<?xml version='1.0' encoding='UTF-8'?><gpx version="1.1" creator="JPX - https://github.com/jenetics/jpx" xmlns="http://www.topografix.com/GPX/1/1"><trk><trkseg><trkpt lat="43.4694" lon="11.3742267"><ele>385.0</ele><time>2026-05-01T08:40:32.978Z</time></trkpt><trkpt lat="43.4692717" lon="11.3742233"><ele>385.0</ele><time>2026-05-01T08:40:34.979Z</time></trkpt><trkpt lat="43.469175" lon="11.3742133"><ele>385.0</ele><time>2026-05-01T08:40:35.978Z</time></trkpt><trkpt lat="43.4690767" lon="11.37419"><ele>385.0</ele><time>2026-05-01T08:40:36.978Z</time></trkpt><trkpt lat="43.46899" lon="11.3741533"><ele>385.0</ele><time>2026-05-01T08:40:37.978Z</time></trkpt><trkpt lat="43.4689" lon="11.3740717"><ele>385.0</ele><time>2026-05-01T08:40:38.978Z</time></trkpt><trkpt lat="43.4688" lon="11.3739517"><ele>385.0</ele><time>2026-05-01T08:40:39.979Z</time></trkpt><trkpt lat="43.4686983" lon="11.3738167"><ele>385.0</ele><time>2026-05-01T08:40:40.978Z</time></trkpt><trkpt lat="43.4686033" lon="11.3736933"><ele>385.0</ele><time>2026-05-01T08:40:41.978Z</time></trkpt><trkpt lat="43.4685083" lon="11.3735967"><ele>384.5</ele><time>2026-05-01T08:40:42.978Z</time></trkpt><trkpt lat="43.468395" lon="11.3734983"><ele>384.0</ele><time>2026-05-01T08:40:43.979Z</time></trkpt><trkpt lat="43.4682833" lon="11.37342"><ele>383.5</ele><time>2026-05-01T08:40:44.979Z</time></trkpt><trkpt lat="43.46817" lon="11.3733467"><ele>383.0</ele><time>2026-05-01T08:40:45.978Z</time></trkpt><trkpt lat="43.4680667" lon="11.37328"><ele>383.0</ele><time>2026-05-01T08:40:46.978Z</time></trkpt><trkpt lat="43.4679883" lon="11.3732333"><ele>383.0</ele><time>2026-05-01T08:40:47.978Z</time></trkpt><trkpt lat="43.467935" lon="11.3731783"><ele>383.0</ele><time>2026-05-01T08:40:48.978Z</time></trkpt><trkpt lat="43.467895" lon="11.3730233"><ele>383.0</ele><time>2026-05-01T08:40:50.979Z</time></trkpt><trkpt lat="43.467885" lon="11.3729317"><ele>383.0</ele><time>2026-05-01T08:40:51.978Z</time></trkpt><trkpt lat="43.4678733" lon="11.3728267"><ele>383.0</ele><time>2026-05-01T08:40:52.978Z</time></trkpt><trkpt lat="43.4678533" lon="11.3727167"><ele>382.4</ele><time>2026-05-01T08:40:53.979Z</time></trkpt><trkpt lat="43.46783" lon="11.372605"><ele>381.79999999999995</ele><time>2026-05-01T08:40:54.979Z</time></trkpt><trkpt lat="43.4678017" lon="11.3724917"><ele>381.2</ele><time>2026-05-01T08:40:55.979Z</time></trkpt><trkpt lat="43.46777" lon="11.37238"><ele>380.6</ele><time>2026-05-01T08:40:56.978Z</time></trkpt><trkpt lat="43.4677283" lon="11.3722667"><ele>380.0</ele><time>2026-05-01T08:40:57.979Z</time></trkpt><trkpt lat="43.46767" lon="11.3721217"><ele>380.0</ele><time>2026-05-01T08:40:58.978Z</time></trkpt><trkpt lat="43.4676033" lon="11.371965"><ele>380.0</ele><time>2026-05-01T08:40:59.979Z</time></trkpt><trkpt lat="43.4675433" lon="11.371825"><ele>380.0</ele><time>2026-05-01T08:41:00.978Z</time></trkpt><trkpt lat="43.46747" lon="11.3717"><ele>380.0</ele><time>2026-05-01T08:41:01.978Z</time></trkpt><trkpt lat="43.4673883" lon="11.3715833"><ele>380.0</ele><time>2026-05-01T08:41:02.979Z</time></trkpt><trkpt lat="43.4672767" lon="11.3714883"><ele>380.0</ele><time>2026-05-01T08:41:03.978Z</time></trkpt><trkpt lat="43.46714" lon="11.3713967"><ele>380.0</ele><time>2026-05-01T08:41:04.979Z</time></trkpt><trkpt lat="43.4670017" lon="11.3713117"><ele>380.0</ele><time>2026-05-01T08:41:05.979Z</time></trkpt><trkpt lat="43.4668683" lon="11.3712183"><ele>379.6666666666667</ele><time>2026-05-01T08:41:06.978Z</time></trkpt><trkpt lat="43.4667467" lon="11.3711167"><ele>379.3333333333333</ele><time>2026-05-01T08:41:07.978Z</time></trkpt><trkpt lat="43.4666167" lon="11.3709833"><ele>379.0</ele><time>2026-05-01T08:41:08.978Z</time></trkpt><trkpt lat="43.4664967" lon="11.3707983"><ele>379.0</ele><time>2026-05-01T08:41:09.978Z</time></trkpt><trkpt lat="43.4663917" lon="11.3706017"><ele>379.0</ele><time>2026-05-01T08:41:10.978Z</time></trkpt><trkpt lat="43.4662883" lon="11.37041"><ele>379.0</ele><time>2026-05-01T08:41:11.979Z</time></trkpt><trkpt lat="43.4661883" lon="11.37021"><ele>378.0</ele><time>2026-05-01T08:41:12.978Z</time></trkpt><trkpt lat="43.46609" lon="11.36998"><ele>377.0</ele><time>2026-05-01T08:41:13.978Z</time></trkpt><trkpt lat="43.4660133" lon="11.3697183"><ele>376.0</ele><time>2026-05-01T08:41:14.978Z</time></trkpt><trkpt lat="43.4659483" lon="11.3694633"><ele>375.3333333333333</ele><time>2026-05-01T08:41:15.978Z</time></trkpt><trkpt lat="43.4658917" lon="11.3692217"><ele>374.6666666666667</ele><time>2026-05-01T08:41:16.979Z</time></trkpt><trkpt lat="43.4658433" lon="11.3690017"><ele>374.0</ele><time>2026-05-01T08:41:17.978Z</time></trkpt><trkpt lat="43.4657917" lon="11.3687817"><ele>374.0</ele><time>2026-05-01T08:41:18.979Z</time></trkpt><trkpt lat="43.465765" lon="11.3685883"><ele>374.0</ele><time>2026-05-01T08:41:19.978Z</time></trkpt><trkpt lat="43.4657667" lon="11.3683967"><ele>374.0</ele><time>2026-05-01T08:41:20.978Z</time></trkpt><trkpt lat="43.46579" lon="11.3681717"><ele>374.0</ele><time>2026-05-01T08:41:21.978Z</time></trkpt><trkpt lat="43.46582" lon="11.367935"><ele>373.0</ele><time>2026-05-01T08:41:22.978Z</time></trkpt><trkpt lat="43.465865" lon="11.3676833"><ele>372.0</ele><time>2026-05-01T08:41:23.978Z</time></trkpt><trkpt lat="43.4659267" lon="11.3673967"><ele>371.0</ele><time>2026-05-01T08:41:24.978Z</time></trkpt><trkpt lat="43.4659983" lon="11.3670833"><ele>370.0</ele><time>2026-05-01T08:41:25.978Z</time></trkpt><trkpt lat="43.466075" lon="11.3667633"><ele>369.0</ele><time>2026-05-01T08:41:26.978Z</time></trkpt><trkpt lat="43.4661517" lon="11.3664267"><ele>368.5</ele><time>2026-05-01T08:41:27.979Z</time></trkpt><trkpt lat="43.4662233" lon="11.366105"><ele>368.0</ele><time>2026-05-01T08:41:28.978Z</time></trkpt><trkpt lat="43.4662867" lon="11.3657833"><ele>369.0</ele><time>2026-05-01T08:41:29.979Z</time></trkpt><trkpt lat="43.4663533" lon="11.36547"><ele>370.0</ele><time>2026-05-01T08:41:30.979Z</time></trkpt><trkpt lat="43.4664183" lon="11.3651683"><ele>370.0</ele><time>2026-05-01T08:41:31.979Z</time></trkpt><trkpt lat="43.46649" lon="11.3648683"><ele>370.0</ele><time>2026-05-01T08:41:32.979Z</time></trkpt><trkpt lat="43.46655" lon="11.3645767"><ele>370.0</ele><time>2026-05-01T08:41:33.978Z</time></trkpt><trkpt lat="43.466605" lon="11.3642983"><ele>369.66666666666663</ele><time>2026-05-01T08:41:34.979Z</time></trkpt><trkpt lat="43.4666617" lon="11.3640367"><ele>369.3333333333333</ele><time>2026-05-01T08:41:35.978Z</time></trkpt><trkpt lat="43.4667117" lon="11.3638017"><ele>369.0</ele><time>2026-05-01T08:41:36.978Z</time></trkpt><trkpt lat="43.4667567" lon="11.3635933"><ele>369.0</ele><time>2026-05-01T08:41:37.979Z</time></trkpt><trkpt lat="43.4667967" lon="11.363415"><ele>369.0</ele><time>2026-05-01T08:41:38.978Z</time></trkpt><trkpt lat="43.46682" lon="11.3632467"><ele>369.0</ele><time>2026-05-01T08:41:39.978Z</time></trkpt><trkpt lat="43.46684" lon="11.3631167"><ele>369.0</ele><time>2026-05-01T08:41:40.978Z</time></trkpt><trkpt lat="43.466845" lon="11.3630133"><ele>369.0</ele><time>2026-05-01T08:41:41.979Z</time></trkpt><trkpt lat="43.46683" lon="11.362915"><ele>369.0</ele><time>2026-05-01T08:41:42.979Z</time></trkpt><trkpt lat="43.4667717" lon="11.362795"><ele>369.0</ele><time>2026-05-01T08:41:44.979Z</time></trkpt><trkpt lat="43.4667083" lon="11.3627367"><ele>369.0</ele><time>2026-05-01T08:41:46.979Z</time></trkpt><trkpt lat="43.4666417" lon="11.3626933"><ele>369.0</ele><time>2026-05-01T08:41:49.979Z</time></trkpt><trkpt lat="43.4665533" lon="11.3626167"><ele>369.0</ele><time>2026-05-01T08:41:52.978Z</time></trkpt><trkpt lat="43.4665083" lon="11.3625283"><ele>369.0</ele><time>2026-05-01T08:41:54.978Z</time></trkpt><trkpt lat="43.4664683" lon="11.36245"><ele>369.0</ele><time>2026-05-01T08:41:56.979Z</time></trkpt><trkpt lat="43.4664417" lon="11.362365"><ele>369.0</ele><time>2026-05-01T08:41:59.979Z</time></trkpt><trkpt lat="43.4664267" lon="11.3622517"><ele>369.0</ele><time>2026-05-01T08:42:05.979Z</time></trkpt><trkpt lat="43.4663667" lon="11.3621067"><ele>369.0</ele><time>2026-05-01T08:42:07.978Z</time></trkpt><trkpt lat="43.46634" lon="11.3620017"><ele>369.0</ele><time>2026-05-01T08:42:08.978Z</time></trkpt><trkpt lat="43.4663033" lon="11.361885"><ele>369.0</ele><time>2026-05-01T08:42:09.979Z</time></trkpt><trkpt lat="43.4662733" lon="11.3617317"><ele>369.2</ele><time>2026-05-01T08:42:10.978Z</time></trkpt><trkpt lat="43.4662383" lon="11.36157"><ele>369.4</ele><time>2026-05-01T08:42:11.978Z</time></trkpt><trkpt lat="43.4662017" lon="11.3614183"><ele>369.6</ele><time>2026-05-01T08:42:12.978Z</time></trkpt><trkpt lat="43.4661533" lon="11.3612967"><ele>369.8</ele><time>2026-05-01T08:42:13.978Z</time></trkpt><trkpt lat="43.4660917" lon="11.3611933"><ele>370.0</ele><time>2026-05-01T08:42:14.978Z</time></trkpt><trkpt lat="43.4660117" lon="11.36109"><ele>370.0</ele><time>2026-05-01T08:42:15.979Z</time></trkpt><trkpt lat="43.46592" lon="11.360995"><ele>370.0</ele><time>2026-05-01T08:42:16.978Z</time></trkpt><trkpt lat="43.4658217" lon="11.3609083"><ele>370.0</ele><time>2026-05-01T08:42:17.978Z</time></trkpt><trkpt lat="43.46573" lon="11.36082"><ele>370.0</ele><time>2026-05-01T08:42:18.979Z</time></trkpt><trkpt lat="43.465645" lon="11.3607117"><ele>370.0</ele><time>2026-05-01T08:42:19.978Z</time></trkpt><trkpt lat="43.465575" lon="11.3605833"><ele>370.0</ele><time>2026-05-01T08:42:20.979Z</time></trkpt><trkpt lat="43.4655117" lon="11.360445"><ele>370.0</ele><time>2026-05-01T08:42:21.978Z</time></trkpt><trkpt lat="43.4654467" lon="11.3603133"><ele>370.0</ele><time>2026-05-01T08:42:22.978Z</time></trkpt><trkpt lat="43.46537" lon="11.3601867"><ele>368.75</ele><time>2026-05-01T08:42:23.979Z</time></trkpt><trkpt lat="43.4652933" lon="11.36007"><ele>367.5</ele><time>2026-05-01T08:42:24.978Z</time></trkpt><trkpt lat="43.4652167" lon="11.359935"><ele>366.25</ele><time>2026-05-01T08:42:25.978Z</time></trkpt><trkpt lat="43.46515" lon="11.3597867"><ele>365.0</ele><time>2026-05-01T08:42:26.978Z</time></trkpt><trkpt lat="43.4650933" lon="11.35964"><ele>365.0</ele><time>2026-05-01T08:42:27.979Z</time></trkpt><trkpt lat="43.4650567" lon="11.3594867"><ele>365.0</ele><time>2026-05-01T08:42:28.978Z</time></trkpt><trkpt lat="43.4650233" lon="11.3593333"><ele>365.0</ele><time>2026-05-01T08:42:29.978Z</time></trkpt><trkpt lat="43.4649883" lon="11.359165"><ele>365.0</ele><time>2026-05-01T08:42:30.978Z</time></trkpt><trkpt lat="43.4649583" lon="11.35898"><ele>366.0</ele><time>2026-05-01T08:42:31.979Z</time></trkpt><trkpt lat="43.4649267" lon="11.35879"><ele>367.0</ele><time>2026-05-01T08:42:32.978Z</time></trkpt><trkpt lat="43.4648917" lon="11.3585867"><ele>368.0</ele><time>2026-05-01T08:42:33.979Z</time></trkpt><trkpt lat="43.464845" lon="11.3583883"><ele>369.0</ele><time>2026-05-01T08:42:34.979Z</time></trkpt><trkpt lat="43.4647883" lon="11.3582033"><ele>369.0</ele><time>2026-05-01T08:42:35.979Z</time></trkpt><trkpt lat="43.4647417" lon="11.3580417"><ele>369.0</ele><time>2026-05-01T08:42:36.979Z</time></trkpt><trkpt lat="43.46469" lon="11.3579"><ele>369.0</ele><time>2026-05-01T08:42:37.979Z</time></trkpt><trkpt lat="43.464625" lon="11.3577533"><ele>369.0</ele><time>2026-05-01T08:42:38.978Z</time></trkpt><trkpt lat="43.4645433" lon="11.35761"><ele>367.75</ele><time>2026-05-01T08:42:39.978Z</time></trkpt><trkpt lat="43.4644517" lon="11.3574833"><ele>366.5</ele><time>2026-05-01T08:42:40.978Z</time></trkpt><trkpt lat="43.4643383" lon="11.3573767"><ele>365.25</ele><time>2026-05-01T08:42:41.979Z</time></trkpt><trkpt lat="43.464225" lon="11.3572967"><ele>364.0</ele><time>2026-05-01T08:42:42.978Z</time></trkpt><trkpt lat="43.4640933" lon="11.3572167"><ele>365.0</ele><time>2026-05-01T08:42:43.979Z</time></trkpt><trkpt lat="43.46398" lon="11.3571533"><ele>366.0</ele><time>2026-05-01T08:42:44.979Z</time></trkpt><trkpt lat="43.4638717" lon="11.357105"><ele>367.0</ele><time>2026-05-01T08:42:45.979Z</time></trkpt><trkpt lat="43.4637617" lon="11.3570783"><ele>368.0</ele><time>2026-05-01T08:42:46.979Z</time></trkpt><trkpt lat="43.463645" lon="11.357065"><ele>368.0</ele><time>2026-05-01T08:42:47.978Z</time></trkpt><trkpt lat="43.4635383" lon="11.3570567"><ele>368.0</ele><time>2026-05-01T08:42:48.979Z</time></trkpt><trkpt lat="43.4634317" lon="11.3570333"><ele>368.0</ele><time>2026-05-01T08:42:49.978Z</time></trkpt><trkpt lat="43.4633267" lon="11.3570117"><ele>368.0</ele><time>2026-05-01T08:42:50.978Z</time></trkpt><trkpt lat="43.4632217" lon="11.3569883"><ele>368.0</ele><time>2026-05-01T08:42:51.978Z</time></trkpt><trkpt lat="43.4631283" lon="11.3569517"><ele>368.0</ele><time>2026-05-01T08:42:52.978Z</time></trkpt><trkpt lat="43.4630267" lon="11.3568917"><ele>368.0</ele><time>2026-05-01T08:42:53.978Z</time></trkpt><trkpt lat="43.4629267" lon="11.3568067"><ele>368.0</ele><time>2026-05-01T08:42:54.978Z</time></trkpt><trkpt lat="43.46282" lon="11.3567083"><ele>368.0</ele><time>2026-05-01T08:42:55.979Z</time></trkpt><trkpt lat="43.4627083" lon="11.356585"><ele>366.6666666666667</ele><time>2026-05-01T08:42:56.978Z</time></trkpt><trkpt lat="43.4625867" lon="11.3564683"><ele>365.3333333333333</ele><time>2026-05-01T08:42:57.979Z</time></trkpt><trkpt lat="43.4624633" lon="11.3563667"><ele>364.0</ele><time>2026-05-01T08:42:58.978Z</time></trkpt><trkpt lat="43.4623267" lon="11.3562533"><ele>364.0</ele><time>2026-05-01T08:42:59.979Z</time></trkpt><trkpt lat="43.462195" lon="11.356125"><ele>364.0</ele><time>2026-05-01T08:43:00.979Z</time></trkpt><trkpt lat="43.462065" lon="11.3559967"><ele>364.0</ele><time>2026-05-01T08:43:01.978Z</time></trkpt><trkpt lat="43.4619217" lon="11.35588"><ele>362.0</ele><time>2026-05-01T08:43:02.978Z</time></trkpt><trkpt lat="43.4617833" lon="11.35577"><ele>360.0</ele><time>2026-05-01T08:43:03.979Z</time></trkpt><trkpt lat="43.4616533" lon="11.3556633"><ele>358.0</ele><time>2026-05-01T08:43:04.978Z</time></trkpt><trkpt lat="43.46154" lon="11.3555767"><ele>356.0</ele><time>2026-05-01T08:43:05.978Z</time></trkpt><trkpt lat="43.4614383" lon="11.3555167"><ele>355.5</ele><time>2026-05-01T08:43:06.978Z</time></trkpt><trkpt lat="43.4613367" lon="11.3554917"><ele>355.0</ele><time>2026-05-01T08:43:07.978Z</time></trkpt><trkpt lat="43.461225" lon="11.3554933"><ele>354.5</ele><time>2026-05-01T08:43:08.978Z</time></trkpt><trkpt lat="43.461105" lon="11.3555183"><ele>354.0</ele><time>2026-05-01T08:43:09.978Z</time></trkpt><trkpt lat="43.46098" lon="11.3555517"><ele>354.0</ele><time>2026-05-01T08:43:10.978Z</time></trkpt><trkpt lat="43.4608533" lon="11.355585"><ele>354.0</ele><time>2026-05-01T08:43:11.978Z</time></trkpt><trkpt lat="43.460725" lon="11.3555933"><ele>354.0</ele><time>2026-05-01T08:43:12.979Z</time></trkpt><trkpt lat="43.4605883" lon="11.35558"><ele>354.0</ele><time>2026-05-01T08:43:13.978Z</time></trkpt><trkpt lat="43.46046" lon="11.3555517"><ele>357.25</ele><time>2026-05-01T08:43:14.979Z</time></trkpt><trkpt lat="43.4603383" lon="11.3555217"><ele>360.5</ele><time>2026-05-01T08:43:15.978Z</time></trkpt><trkpt lat="43.46022" lon="11.3554917"><ele>363.75</ele><time>2026-05-01T08:43:16.978Z</time></trkpt><trkpt lat="43.4600983" lon="11.3554867"><ele>367.0</ele><time>2026-05-01T08:43:17.979Z</time></trkpt><trkpt lat="43.4599633" lon="11.3555017"><ele>367.0</ele><time>2026-05-01T08:43:18.979Z</time></trkpt><trkpt lat="43.4598333" lon="11.3555217"><ele>367.0</ele><time>2026-05-01T08:43:19.978Z</time></trkpt><trkpt lat="43.4597017" lon="11.355535"><ele>367.0</ele><time>2026-05-01T08:43:20.979Z</time></trkpt><trkpt lat="43.45955" lon="11.35554"><ele>367.0</ele><time>2026-05-01T08:43:21.978Z</time></trkpt><trkpt lat="43.4593783" lon="11.35552"><ele>363.3333333333333</ele><time>2026-05-01T08:43:22.978Z</time></trkpt><trkpt lat="43.4592183" lon="11.3554817"><ele>359.6666666666667</ele><time>2026-05-01T08:43:23.979Z</time></trkpt><trkpt lat="43.459065" lon="11.355435"><ele>356.0</ele><time>2026-05-01T08:43:24.979Z</time></trkpt><trkpt lat="43.4589167" lon="11.3553683"><ele>354.0</ele><time>2026-05-01T08:43:25.979Z</time></trkpt><trkpt lat="43.4587517" lon="11.35528"><ele>352.0</ele><time>2026-05-01T08:43:26.977Z</time></trkpt><trkpt lat="43.45859" lon="11.355165"><ele>350.0</ele><time>2026-05-01T08:43:27.977Z</time></trkpt><trkpt lat="43.458435" lon="11.3550367"><ele>350.0</ele><time>2026-05-01T08:43:28.978Z</time></trkpt><trkpt lat="43.4583083" lon="11.3549217"><ele>350.0</ele><time>2026-05-01T08:43:29.977Z</time></trkpt><trkpt lat="43.458205" lon="11.35483"><ele>350.0</ele><time>2026-05-01T08:43:30.978Z</time></trkpt><trkpt lat="43.4581117" lon="11.3547633"><ele>350.0</ele><time>2026-05-01T08:43:31.978Z</time></trkpt><trkpt lat="43.4580067" lon="11.354705"><ele>351.6666666666667</ele><time>2026-05-01T08:43:32.977Z</time></trkpt><trkpt lat="43.4578717" lon="11.3546533"><ele>353.3333333333333</ele><time>2026-05-01T08:43:33.978Z</time></trkpt><trkpt lat="43.4577067" lon="11.3546167"><ele>355.0</ele><time>2026-05-01T08:43:34.978Z</time></trkpt><trkpt lat="43.4575383" lon="11.35456"><ele>355.0</ele><time>2026-05-01T08:43:35.978Z</time></trkpt><trkpt lat="43.457385" lon="11.3544817"><ele>355.0</ele><time>2026-05-01T08:43:36.978Z</time></trkpt><trkpt lat="43.4572317" lon="11.3543983"><ele>355.0</ele><time>2026-05-01T08:43:37.978Z</time></trkpt><trkpt lat="43.45708" lon="11.3543367"><ele>352.75</ele><time>2026-05-01T08:43:38.977Z</time></trkpt><trkpt lat="43.45694" lon="11.3542917"><ele>350.5</ele><time>2026-05-01T08:43:39.977Z</time></trkpt><trkpt lat="43.4568117" lon="11.354275"><ele>348.25</ele><time>2026-05-01T08:43:40.977Z</time></trkpt><trkpt lat="43.4566933" lon="11.3542583"><ele>346.0</ele><time>2026-05-01T08:43:41.977Z</time></trkpt><trkpt lat="43.4565883" lon="11.3542417"><ele>346.0</ele><time>2026-05-01T08:43:42.977Z</time></trkpt><trkpt lat="43.4564933" lon="11.3542183"><ele>346.0</ele><time>2026-05-01T08:43:43.977Z</time></trkpt><trkpt lat="43.4563883" lon="11.354195"><ele>346.0</ele><time>2026-05-01T08:43:44.977Z</time></trkpt><trkpt lat="43.4562867" lon="11.35418"><ele>346.0</ele><time>2026-05-01T08:43:45.977Z</time></trkpt><trkpt lat="43.4561867" lon="11.3541667"><ele>346.0</ele><time>2026-05-01T08:43:46.978Z</time></trkpt><trkpt lat="43.4560967" lon="11.3541467"><ele>345.8</ele><time>2026-05-01T08:43:47.978Z</time></trkpt><trkpt lat="43.4560117" lon="11.3541267"><ele>345.6</ele><time>2026-05-01T08:43:48.977Z</time></trkpt><trkpt lat="43.4559033" lon="11.354085"><ele>345.4</ele><time>2026-05-01T08:43:49.978Z</time></trkpt><trkpt lat="43.4557933" lon="11.354035"><ele>345.2</ele><time>2026-05-01T08:43:50.978Z</time></trkpt><trkpt lat="43.455675" lon="11.35397"><ele>345.0</ele><time>2026-05-01T08:43:51.977Z</time></trkpt><trkpt lat="43.455555" lon="11.35392"><ele>344.5</ele><time>2026-05-01T08:43:52.978Z</time></trkpt><trkpt lat="43.4554333" lon="11.3539083"><ele>344.0</ele><time>2026-05-01T08:43:53.977Z</time></trkpt><trkpt lat="43.45532" lon="11.35391"><ele>343.5</ele><time>2026-05-01T08:43:54.978Z</time></trkpt><trkpt lat="43.4551983" lon="11.3539333"><ele>343.0</ele><time>2026-05-01T08:43:55.977Z</time></trkpt><trkpt lat="43.45507" lon="11.3539633"><ele>343.0</ele><time>2026-05-01T08:43:56.977Z</time></trkpt><trkpt lat="43.4549517" lon="11.3540133"><ele>343.0</ele><time>2026-05-01T08:43:57.978Z</time></trkpt><trkpt lat="43.4548367" lon="11.3540683"><ele>343.0</ele><time>2026-05-01T08:43:58.977Z</time></trkpt><trkpt lat="43.4547283" lon="11.3541317"><ele>343.0</ele><time>2026-05-01T08:43:59.978Z</time></trkpt><trkpt lat="43.4546133" lon="11.354205"><ele>341.59999999999997</ele><time>2026-05-01T08:44:00.978Z</time></trkpt><trkpt lat="43.4544917" lon="11.3542783"><ele>340.2</ele><time>2026-05-01T08:44:01.977Z</time></trkpt><trkpt lat="43.4543817" lon="11.3543317"><ele>338.8</ele><time>2026-05-01T08:44:02.977Z</time></trkpt><trkpt lat="43.45429" lon="11.35434"><ele>337.4</ele><time>2026-05-01T08:44:03.978Z</time></trkpt><trkpt lat="43.4542033" lon="11.3543267"><ele>336.0</ele><time>2026-05-01T08:44:04.977Z</time></trkpt><trkpt lat="43.4541283" lon="11.3543"><ele>336.0</ele><time>2026-05-01T08:44:05.977Z</time></trkpt><trkpt lat="43.4540683" lon="11.354255"><ele>336.0</ele><time>2026-05-01T08:44:06.978Z</time></trkpt><trkpt lat="43.4539917" lon="11.3542567"><ele>336.0</ele><time>2026-05-01T08:44:07.977Z</time></trkpt><trkpt lat="43.4539183" lon="11.3542867"><ele>336.0</ele><time>2026-05-01T08:44:08.977Z</time></trkpt><trkpt lat="43.4538417" lon="11.354335"><ele>336.0</ele><time>2026-05-01T08:44:09.978Z</time></trkpt><trkpt lat="43.4537567" lon="11.3543817"><ele>336.0</ele><time>2026-05-01T08:44:10.977Z</time></trkpt><trkpt lat="43.4536467" lon="11.35443"><ele>338.0</ele><time>2026-05-01T08:44:11.977Z</time></trkpt><trkpt lat="43.4535367" lon="11.3544817"><ele>340.0</ele><time>2026-05-01T08:44:12.978Z</time></trkpt><trkpt lat="43.4534183" lon="11.3545433"><ele>342.0</ele><time>2026-05-01T08:44:13.978Z</time></trkpt><trkpt lat="43.4532933" lon="11.3546067"><ele>344.0</ele><time>2026-05-01T08:44:14.977Z</time></trkpt><trkpt lat="43.4531517" lon="11.3546717"><ele>343.33333333333337</ele><time>2026-05-01T08:44:15.977Z</time></trkpt><trkpt lat="43.4530017" lon="11.3547517"><ele>342.6666666666667</ele><time>2026-05-01T08:44:16.977Z</time></trkpt><trkpt lat="43.4528583" lon="11.354845"><ele>342.0</ele><time>2026-05-01T08:44:17.977Z</time></trkpt><trkpt lat="43.45272" lon="11.3549267"><ele>342.0</ele><time>2026-05-01T08:44:18.977Z</time></trkpt><trkpt lat="43.45259" lon="11.3550033"><ele>342.0</ele><time>2026-05-01T08:44:19.977Z</time></trkpt><trkpt lat="43.4524633" lon="11.3550567"><ele>342.0</ele><time>2026-05-01T08:44:20.978Z</time></trkpt><trkpt lat="43.4523333" lon="11.3551117"><ele>342.0</ele><time>2026-05-01T08:44:21.978Z</time></trkpt><trkpt lat="43.45221" lon="11.35516"><ele>343.75</ele><time>2026-05-01T08:44:22.978Z</time></trkpt><trkpt lat="43.45208" lon="11.3552033"><ele>345.5</ele><time>2026-05-01T08:44:23.977Z</time></trkpt><trkpt lat="43.451955" lon="11.3552367"><ele>347.25</ele><time>2026-05-01T08:44:24.977Z</time></trkpt><trkpt lat="43.4518317" lon="11.3552567"><ele>349.0</ele><time>2026-05-01T08:44:25.978Z</time></trkpt><trkpt lat="43.4517183" lon="11.3552883"><ele>349.0</ele><time>2026-05-01T08:44:26.977Z</time></trkpt><trkpt lat="43.4516017" lon="11.355345"><ele>349.0</ele><time>2026-05-01T08:44:27.977Z</time></trkpt><trkpt lat="43.4514817" lon="11.355425"><ele>349.0</ele><time>2026-05-01T08:44:28.977Z</time></trkpt><trkpt lat="43.4513617" lon="11.3555133"><ele>349.0</ele><time>2026-05-01T08:44:29.977Z</time></trkpt><trkpt lat="43.451255" lon="11.35559"><ele>348.5</ele><time>2026-05-01T08:44:30.978Z</time></trkpt><trkpt lat="43.4511467" lon="11.355685"><ele>348.0</ele><time>2026-05-01T08:44:31.977Z</time></trkpt><trkpt lat="43.45104" lon="11.3557933"><ele>347.5</ele><time>2026-05-01T08:44:32.977Z</time></trkpt><trkpt lat="43.4509417" lon="11.3559117"><ele>347.0</ele><time>2026-05-01T08:44:33.977Z</time></trkpt><trkpt lat="43.4508417" lon="11.3560283"><ele>347.0</ele><time>2026-05-01T08:44:34.977Z</time></trkpt><trkpt lat="43.4507383" lon="11.3561367"><ele>347.0</ele><time>2026-05-01T08:44:35.978Z</time></trkpt><trkpt lat="43.4506417" lon="11.3562467"><ele>347.0</ele><time>2026-05-01T08:44:36.977Z</time></trkpt><trkpt lat="43.450545" lon="11.35635"><ele>347.0</ele><time>2026-05-01T08:44:37.978Z</time></trkpt><trkpt lat="43.4504483" lon="11.356445"><ele>345.25</ele><time>2026-05-01T08:44:38.977Z</time></trkpt><trkpt lat="43.4503483" lon="11.3565167"><ele>343.5</ele><time>2026-05-01T08:44:39.977Z</time></trkpt><trkpt lat="43.4502483" lon="11.3565967"><ele>341.75</ele><time>2026-05-01T08:44:40.978Z</time></trkpt><trkpt lat="43.450135" lon="11.3566733"><ele>340.0</ele><time>2026-05-01T08:44:41.978Z</time></trkpt><trkpt lat="43.450015" lon="11.3567217"><ele>340.0</ele><time>2026-05-01T08:44:42.978Z</time></trkpt><trkpt lat="43.4498933" lon="11.3567317"><ele>340.0</ele><time>2026-05-01T08:44:43.977Z</time></trkpt><trkpt lat="43.4497617" lon="11.3567183"><ele>340.0</ele><time>2026-05-01T08:44:44.978Z</time></trkpt><trkpt lat="43.44962" lon="11.356695"><ele>340.0</ele><time>2026-05-01T08:44:45.977Z</time></trkpt><trkpt lat="43.4494817" lon="11.356675"><ele>338.0</ele><time>2026-05-01T08:44:46.977Z</time></trkpt><trkpt lat="43.4493467" lon="11.3566333"><ele>336.0</ele><time>2026-05-01T08:44:47.977Z</time></trkpt><trkpt lat="43.4492183" lon="11.356565"><ele>334.0</ele><time>2026-05-01T08:44:48.978Z</time></trkpt><trkpt lat="43.44909" lon="11.3564583"><ele>332.0</ele><time>2026-05-01T08:44:49.977Z</time></trkpt><trkpt lat="43.4489483" lon="11.35634"><ele>333.33333333333337</ele><time>2026-05-01T08:44:50.977Z</time></trkpt><trkpt lat="43.448785" lon="11.3562133"><ele>334.6666666666667</ele><time>2026-05-01T08:44:51.977Z</time></trkpt><trkpt lat="43.4486" lon="11.3560967"><ele>336.0</ele><time>2026-05-01T08:44:52.977Z</time></trkpt><trkpt lat="43.4484017" lon="11.3559683"><ele>336.0</ele><time>2026-05-01T08:44:53.978Z</time></trkpt><trkpt lat="43.448215" lon="11.3558483"><ele>336.0</ele><time>2026-05-01T08:44:54.978Z</time></trkpt><trkpt lat="43.4480483" lon="11.3557383"><ele>336.0</ele><time>2026-05-01T08:44:55.978Z</time></trkpt><trkpt lat="43.4478967" lon="11.3556633"><ele>334.75</ele><time>2026-05-01T08:44:56.977Z</time></trkpt><trkpt lat="43.4477633" lon="11.3555883"><ele>333.5</ele><time>2026-05-01T08:44:57.977Z</time></trkpt><trkpt lat="43.4476417" lon="11.3555233"><ele>332.25</ele><time>2026-05-01T08:44:58.978Z</time></trkpt><trkpt lat="43.4475067" lon="11.3554617"><ele>331.0</ele><time>2026-05-01T08:44:59.977Z</time></trkpt><trkpt lat="43.447355" lon="11.3554067"><ele>333.0</ele><time>2026-05-01T08:45:00.977Z</time></trkpt><trkpt lat="43.447185" lon="11.3553633"><ele>335.0</ele><time>2026-05-01T08:45:01.977Z</time></trkpt><trkpt lat="43.4469983" lon="11.355325"><ele>337.0</ele><time>2026-05-01T08:45:02.978Z</time></trkpt><trkpt lat="43.4467817" lon="11.3552983"><ele>337.0</ele><time>2026-05-01T08:45:03.978Z</time></trkpt><trkpt lat="43.44657" lon="11.3552667"><ele>337.0</ele><time>2026-05-01T08:45:04.977Z</time></trkpt><trkpt lat="43.4463617" lon="11.3552433"><ele>337.0</ele><time>2026-05-01T08:45:05.978Z</time></trkpt><trkpt lat="43.4461917" lon="11.3552233"><ele>335.75</ele><time>2026-05-01T08:45:06.977Z</time></trkpt><trkpt lat="43.4460433" lon="11.3552"><ele>334.5</ele><time>2026-05-01T08:45:07.977Z</time></trkpt><trkpt lat="43.445905" lon="11.3551833"><ele>333.25</ele><time>2026-05-01T08:45:08.977Z</time></trkpt><trkpt lat="43.445765" lon="11.3551583"><ele>332.0</ele><time>2026-05-01T08:45:09.977Z</time></trkpt><trkpt lat="43.4456317" lon="11.35511"><ele>332.0</ele><time>2026-05-01T08:45:10.978Z</time></trkpt><trkpt lat="43.4454983" lon="11.3550433"><ele>332.0</ele><time>2026-05-01T08:45:11.977Z</time></trkpt><trkpt lat="43.4453633" lon="11.3549567"><ele>332.0</ele><time>2026-05-01T08:45:12.977Z</time></trkpt><trkpt lat="43.4452317" lon="11.3548383"><ele>332.0</ele><time>2026-05-01T08:45:13.977Z</time></trkpt><trkpt lat="43.44513" lon="11.3547083"><ele>331.20000000000005</ele><time>2026-05-01T08:45:14.978Z</time></trkpt><trkpt lat="43.4450517" lon="11.354575"><ele>330.4</ele><time>2026-05-01T08:45:15.977Z</time></trkpt><trkpt lat="43.444995" lon="11.3544367"><ele>329.6</ele><time>2026-05-01T08:45:16.978Z</time></trkpt><trkpt lat="43.4449667" lon="11.3542917"><ele>328.79999999999995</ele><time>2026-05-01T08:45:17.977Z</time></trkpt><trkpt lat="43.444955" lon="11.3541783"><ele>328.0</ele><time>2026-05-01T08:45:18.977Z</time></trkpt><trkpt lat="43.4449417" lon="11.3540383"><ele>328.0</ele><time>2026-05-01T08:45:19.977Z</time></trkpt><trkpt lat="43.4449317" lon="11.353905"><ele>328.0</ele><time>2026-05-01T08:45:20.977Z</time></trkpt><trkpt lat="43.444925" lon="11.353805"><ele>328.0</ele><time>2026-05-01T08:45:21.978Z</time></trkpt><trkpt lat="43.4449133" lon="11.3536817"><ele>328.0</ele><time>2026-05-01T08:45:23.977Z</time></trkpt><trkpt lat="43.44484" lon="11.353665"><ele>328.0</ele><time>2026-05-01T08:45:26.977Z</time></trkpt><trkpt lat="43.44474" lon="11.3537317"><ele>328.0</ele><time>2026-05-01T08:46:16.977Z</time></trkpt><trkpt lat="43.444655" lon="11.35377"><ele>327.2</ele><time>2026-05-01T08:46:18.977Z</time></trkpt><trkpt lat="43.4445817" lon="11.3537917"><ele>326.4</ele><time>2026-05-01T08:46:19.977Z</time></trkpt><trkpt lat="43.4444833" lon="11.353815"><ele>325.59999999999997</ele><time>2026-05-01T08:46:20.978Z</time></trkpt><trkpt lat="43.44438" lon="11.353845"><ele>324.79999999999995</ele><time>2026-05-01T08:46:21.977Z</time></trkpt><trkpt lat="43.4442683" lon="11.3538833"><ele>324.0</ele><time>2026-05-01T08:46:22.978Z</time></trkpt><trkpt lat="43.4441533" lon="11.3539317"><ele>324.0</ele><time>2026-05-01T08:46:23.977Z</time></trkpt><trkpt lat="43.44403" lon="11.3539917"><ele>324.0</ele><time>2026-05-01T08:46:24.977Z</time></trkpt><trkpt lat="43.4438583" lon="11.354095"><ele>324.0</ele><time>2026-05-01T08:46:25.977Z</time></trkpt><trkpt lat="43.4436667" lon="11.3542233"><ele>327.3333333333333</ele><time>2026-05-01T08:46:26.977Z</time></trkpt><trkpt lat="43.44348" lon="11.3543517"><ele>330.66666666666663</ele><time>2026-05-01T08:46:27.977Z</time></trkpt><trkpt lat="43.4432833" lon="11.3544767"><ele>334.0</ele><time>2026-05-01T08:46:28.977Z</time></trkpt><trkpt lat="43.4431" lon="11.35458"><ele>334.66666666666663</ele><time>2026-05-01T08:46:29.977Z</time></trkpt><trkpt lat="43.442925" lon="11.3546767"><ele>335.3333333333333</ele><time>2026-05-01T08:46:30.978Z</time></trkpt><trkpt lat="43.4427583" lon="11.3547733"><ele>336.0</ele><time>2026-05-01T08:46:31.978Z</time></trkpt><trkpt lat="43.4426017" lon="11.3549067"><ele>336.0</ele><time>2026-05-01T08:46:32.978Z</time></trkpt><trkpt lat="43.4424517" lon="11.355035"><ele>336.0</ele><time>2026-05-01T08:46:33.978Z</time></trkpt><trkpt lat="43.4423333" lon="11.355135"><ele>336.0</ele><time>2026-05-01T08:46:34.978Z</time></trkpt><trkpt lat="43.4422233" lon="11.355215"><ele>336.0</ele><time>2026-05-01T08:46:35.977Z</time></trkpt><trkpt lat="43.4421183" lon="11.3552633"><ele>339.8</ele><time>2026-05-01T08:46:36.977Z</time></trkpt><trkpt lat="43.442005" lon="11.3552867"><ele>343.6</ele><time>2026-05-01T08:46:37.977Z</time></trkpt><trkpt lat="43.4418817" lon="11.3553017"><ele>347.4</ele><time>2026-05-01T08:46:38.977Z</time></trkpt><trkpt lat="43.441775" lon="11.355315"><ele>351.2</ele><time>2026-05-01T08:46:39.978Z</time></trkpt><trkpt lat="43.4416767" lon="11.35534"><ele>355.0</ele><time>2026-05-01T08:46:40.978Z</time></trkpt><trkpt lat="43.4415867" lon="11.3553817"><ele>355.0</ele><time>2026-05-01T08:46:41.978Z</time></trkpt><trkpt lat="43.441525" lon="11.3554617"><ele>355.0</ele><time>2026-05-01T08:46:42.977Z</time></trkpt><trkpt lat="43.4414583" lon="11.3555533"><ele>355.0</ele><time>2026-05-01T08:46:43.977Z</time></trkpt><trkpt lat="43.4414133" lon="11.35565"><ele>355.0</ele><time>2026-05-01T08:46:44.978Z</time></trkpt><trkpt lat="43.4413683" lon="11.3557217"><ele>355.0</ele><time>2026-05-01T08:46:45.977Z</time></trkpt><trkpt lat="43.4413217" lon="11.3557833"><ele>355.0</ele><time>2026-05-01T08:46:46.977Z</time></trkpt><trkpt lat="43.4412667" lon="11.35583"><ele>354.6</ele><time>2026-05-01T08:46:47.977Z</time></trkpt><trkpt lat="43.44119" lon="11.3558633"><ele>354.2</ele><time>2026-05-01T08:46:48.977Z</time></trkpt><trkpt lat="43.441105" lon="11.3558717"><ele>353.79999999999995</ele><time>2026-05-01T08:46:49.977Z</time></trkpt><trkpt lat="43.4410033" lon="11.3558267"><ele>353.4</ele><time>2026-05-01T08:46:51.977Z</time></trkpt><trkpt lat="43.44097" lon="11.3556967"><ele>353.0</ele><time>2026-05-01T08:46:53.978Z</time></trkpt><trkpt lat="43.4410017" lon="11.3555067"><ele>353.0</ele><time>2026-05-01T08:46:55.977Z</time></trkpt><trkpt lat="43.4410233" lon="11.35538"><ele>353.0</ele><time>2026-05-01T08:46:56.977Z</time></trkpt><trkpt lat="43.4410333" lon="11.3552383"><ele>353.0</ele><time>2026-05-01T08:46:57.978Z</time></trkpt><trkpt lat="43.4410267" lon="11.3550633"><ele>353.0</ele><time>2026-05-01T08:46:58.978Z</time></trkpt><trkpt lat="43.4410017" lon="11.3548583"><ele>353.6666666666667</ele><time>2026-05-01T08:46:59.977Z</time></trkpt><trkpt lat="43.4409617" lon="11.35463"><ele>354.3333333333333</ele><time>2026-05-01T08:47:00.978Z</time></trkpt><trkpt lat="43.4409133" lon="11.3544233"><ele>355.0</ele><time>2026-05-01T08:47:01.977Z</time></trkpt><trkpt lat="43.44087" lon="11.3542283"><ele>355.0</ele><time>2026-05-01T08:47:02.978Z</time></trkpt><trkpt lat="43.4408317" lon="11.3540267"><ele>355.0</ele><time>2026-05-01T08:47:03.978Z</time></trkpt><trkpt lat="43.4408" lon="11.353815"><ele>355.0</ele><time>2026-05-01T08:47:04.977Z</time></trkpt><trkpt lat="43.4407767" lon="11.3535833"><ele>357.0</ele><time>2026-05-01T08:47:05.978Z</time></trkpt><trkpt lat="43.4407467" lon="11.35332"><ele>359.0</ele><time>2026-05-01T08:47:06.977Z</time></trkpt><trkpt lat="43.440715" lon="11.353045"><ele>361.0</ele><time>2026-05-01T08:47:07.977Z</time></trkpt><trkpt lat="43.440675" lon="11.35279"><ele>363.0</ele><time>2026-05-01T08:47:08.977Z</time></trkpt><trkpt lat="43.440645" lon="11.35256"><ele>365.0</ele><time>2026-05-01T08:47:09.977Z</time></trkpt><trkpt lat="43.4406067" lon="11.3523483"><ele>367.0</ele><time>2026-05-01T08:47:10.977Z</time></trkpt><trkpt lat="43.440585" lon="11.3521533"><ele>367.8</ele><time>2026-05-01T08:47:11.977Z</time></trkpt><trkpt lat="43.4405483" lon="11.3519617"><ele>368.6</ele><time>2026-05-01T08:47:12.977Z</time></trkpt><trkpt lat="43.4405317" lon="11.3518017"><ele>369.40000000000003</ele><time>2026-05-01T08:47:13.978Z</time></trkpt><trkpt lat="43.4405217" lon="11.35168"><ele>370.20000000000005</ele><time>2026-05-01T08:47:14.977Z</time></trkpt><trkpt lat="43.4404967" lon="11.3515833"><ele>371.0</ele><time>2026-05-01T08:47:15.978Z</time></trkpt><trkpt lat="43.4404617" lon="11.3515067"><ele>371.0</ele><time>2026-05-01T08:47:16.978Z</time></trkpt><trkpt lat="43.4404167" lon="11.3514383"><ele>371.0</ele><time>2026-05-01T08:47:17.977Z</time></trkpt><trkpt lat="43.4403683" lon="11.351355"><ele>371.0</ele><time>2026-05-01T08:47:18.978Z</time></trkpt><trkpt lat="43.44033" lon="11.3512733"><ele>371.0</ele><time>2026-05-01T08:47:19.978Z</time></trkpt><trkpt lat="43.4403" lon="11.35117"><ele>371.0</ele><time>2026-05-01T08:47:20.977Z</time></trkpt><trkpt lat="43.440265" lon="11.35105"><ele>371.0</ele><time>2026-05-01T08:47:21.978Z</time></trkpt><trkpt lat="43.4402183" lon="11.3509283"><ele>371.5</ele><time>2026-05-01T08:47:22.978Z</time></trkpt><trkpt lat="43.440165" lon="11.3508033"><ele>372.0</ele><time>2026-05-01T08:47:23.977Z</time></trkpt><trkpt lat="43.4401033" lon="11.3506767"><ele>372.5</ele><time>2026-05-01T08:47:24.978Z</time></trkpt><trkpt lat="43.439995" lon="11.3505633"><ele>373.0</ele><time>2026-05-01T08:47:25.977Z</time></trkpt><trkpt lat="43.4398683" lon="11.350455"><ele>373.75</ele><time>2026-05-01T08:47:26.977Z</time></trkpt><trkpt lat="43.4397317" lon="11.3503683"><ele>374.5</ele><time>2026-05-01T08:47:27.977Z</time></trkpt><trkpt lat="43.439595" lon="11.3503083"><ele>375.25</ele><time>2026-05-01T08:47:28.977Z</time></trkpt><trkpt lat="43.439445" lon="11.3502667"><ele>376.0</ele><time>2026-05-01T08:47:29.978Z</time></trkpt><trkpt lat="43.4393017" lon="11.3502267"><ele>376.25</ele><time>2026-05-01T08:47:30.977Z</time></trkpt><trkpt lat="43.439145" lon="11.35018"><ele>376.5</ele><time>2026-05-01T08:47:31.977Z</time></trkpt><trkpt lat="43.4389983" lon="11.3501067"><ele>376.75</ele><time>2026-05-01T08:47:32.978Z</time></trkpt><trkpt lat="43.4388833" lon="11.3500433"><ele>377.0</ele><time>2026-05-01T08:47:33.977Z</time></trkpt><trkpt lat="43.4387867" lon="11.34998"><ele>376.6</ele><time>2026-05-01T08:47:34.977Z</time></trkpt><trkpt lat="43.4386833" lon="11.34993"><ele>376.20000000000005</ele><time>2026-05-01T08:47:35.977Z</time></trkpt><trkpt lat="43.4385833" lon="11.349895"><ele>375.8</ele><time>2026-05-01T08:47:36.977Z</time></trkpt><trkpt lat="43.4384933" lon="11.3498417"><ele>375.4</ele><time>2026-05-01T08:47:37.978Z</time></trkpt><trkpt lat="43.4383983" lon="11.3497833"><ele>375.0</ele><time>2026-05-01T08:47:38.977Z</time></trkpt><trkpt lat="43.438305" lon="11.349715"><ele>377.25</ele><time>2026-05-01T08:47:39.978Z</time></trkpt><trkpt lat="43.4382317" lon="11.3496383"><ele>379.5</ele><time>2026-05-01T08:47:40.977Z</time></trkpt><trkpt lat="43.4381383" lon="11.3495217"><ele>381.75</ele><time>2026-05-01T08:47:41.977Z</time></trkpt><trkpt lat="43.43807" lon="11.3493883"><ele>384.0</ele><time>2026-05-01T08:47:42.977Z</time></trkpt><trkpt lat="43.4380167" lon="11.3492317"><ele>384.0</ele><time>2026-05-01T08:47:43.977Z</time></trkpt><trkpt lat="43.4379817" lon="11.3490667"><ele>384.0</ele><time>2026-05-01T08:47:44.978Z</time></trkpt><trkpt lat="43.4379583" lon="11.3489083"><ele>384.0</ele><time>2026-05-01T08:47:45.977Z</time></trkpt><trkpt lat="43.43793" lon="11.3487617"><ele>384.0</ele><time>2026-05-01T08:47:46.977Z</time></trkpt><trkpt lat="43.4378833" lon="11.3486183"><ele>382.6</ele><time>2026-05-01T08:47:47.977Z</time></trkpt><trkpt lat="43.4378283" lon="11.3484967"><ele>381.2</ele><time>2026-05-01T08:47:48.977Z</time></trkpt><trkpt lat="43.43775" lon="11.3484017"><ele>379.8</ele><time>2026-05-01T08:47:49.977Z</time></trkpt><trkpt lat="43.4376667" lon="11.3483367"><ele>378.40000000000003</ele><time>2026-05-01T08:47:50.978Z</time></trkpt><trkpt lat="43.4375767" lon="11.348325"><ele>377.0</ele><time>2026-05-01T08:47:51.978Z</time></trkpt><trkpt lat="43.43749" lon="11.3483517"><ele>377.0</ele><time>2026-05-01T08:47:52.977Z</time></trkpt><trkpt lat="43.4374167" lon="11.3483967"><ele>377.0</ele><time>2026-05-01T08:47:53.978Z</time></trkpt><trkpt lat="43.4373567" lon="11.3484633"><ele>377.0</ele><time>2026-05-01T08:47:54.977Z</time></trkpt><trkpt lat="43.437305" lon="11.34854"><ele>377.0</ele><time>2026-05-01T08:47:55.978Z</time></trkpt><trkpt lat="43.4372433" lon="11.3486833"><ele>377.0</ele><time>2026-05-01T08:47:57.977Z</time></trkpt><trkpt lat="43.4372033" lon="11.348825"><ele>376.20000000000005</ele><time>2026-05-01T08:47:59.977Z</time></trkpt><trkpt lat="43.43718" lon="11.348935"><ele>375.4</ele><time>2026-05-01T08:48:01.978Z</time></trkpt><trkpt lat="43.4371317" lon="11.3490967"><ele>374.6</ele><time>2026-05-01T08:48:03.977Z</time></trkpt><trkpt lat="43.43708" lon="11.3492"><ele>373.79999999999995</ele><time>2026-05-01T08:48:04.978Z</time></trkpt><trkpt lat="43.43702" lon="11.3492933"><ele>373.0</ele><time>2026-05-01T08:48:05.978Z</time></trkpt><trkpt lat="43.4369417" lon="11.349355"><ele>373.0</ele><time>2026-05-01T08:48:06.978Z</time></trkpt><trkpt lat="43.43684" lon="11.3493783"><ele>373.0</ele><time>2026-05-01T08:48:07.978Z</time></trkpt><trkpt lat="43.43675" lon="11.3493733"><ele>373.0</ele><time>2026-05-01T08:48:08.978Z</time></trkpt><trkpt lat="43.43666" lon="11.3493317"><ele>373.0</ele><time>2026-05-01T08:48:09.977Z</time></trkpt><trkpt lat="43.436575" lon="11.3492533"><ele>373.0</ele><time>2026-05-01T08:48:10.977Z</time></trkpt><trkpt lat="43.4364883" lon="11.3491467"><ele>373.0</ele><time>2026-05-01T08:48:11.978Z</time></trkpt><trkpt lat="43.4364033" lon="11.3490417"><ele>373.0</ele><time>2026-05-01T08:48:12.978Z</time></trkpt><trkpt lat="43.4363117" lon="11.3489533"><ele>373.0</ele><time>2026-05-01T08:48:13.978Z</time></trkpt><trkpt lat="43.4362167" lon="11.3488783"><ele>373.0</ele><time>2026-05-01T08:48:14.978Z</time></trkpt><trkpt lat="43.4361117" lon="11.3488017"><ele>375.5</ele><time>2026-05-01T08:48:15.977Z</time></trkpt><trkpt lat="43.4359917" lon="11.3487317"><ele>378.0</ele><time>2026-05-01T08:48:16.977Z</time></trkpt><trkpt lat="43.4358683" lon="11.3486867"><ele>380.5</ele><time>2026-05-01T08:48:17.978Z</time></trkpt><trkpt lat="43.43577" lon="11.3486667"><ele>383.0</ele><time>2026-05-01T08:48:18.978Z</time></trkpt><trkpt lat="43.4356717" lon="11.3486817"><ele>383.0</ele><time>2026-05-01T08:48:19.977Z</time></trkpt><trkpt lat="43.435565" lon="11.3487117"><ele>383.0</ele><time>2026-05-01T08:48:20.978Z</time></trkpt><trkpt lat="43.4354567" lon="11.3487517"><ele>383.0</ele><time>2026-05-01T08:48:21.978Z</time></trkpt><trkpt lat="43.4353433" lon="11.3487817"><ele>383.0</ele><time>2026-05-01T08:48:22.977Z</time></trkpt><trkpt lat="43.435235" lon="11.3487967"><ele>383.0</ele><time>2026-05-01T08:48:23.977Z</time></trkpt><trkpt lat="43.4351267" lon="11.3487917"><ele>383.1666666666667</ele><time>2026-05-01T08:48:24.978Z</time></trkpt><trkpt lat="43.4350317" lon="11.3487617"><ele>383.33333333333337</ele><time>2026-05-01T08:48:25.978Z</time></trkpt><trkpt lat="43.4349367" lon="11.3487317"><ele>383.5</ele><time>2026-05-01T08:48:26.977Z</time></trkpt><trkpt lat="43.4348467" lon="11.348715"><ele>383.6666666666667</ele><time>2026-05-01T08:48:27.978Z</time></trkpt><trkpt lat="43.4347683" lon="11.348735"><ele>383.8333333333333</ele><time>2026-05-01T08:48:28.977Z</time></trkpt><trkpt lat="43.4347" lon="11.348785"><ele>384.0</ele><time>2026-05-01T08:48:29.978Z</time></trkpt><trkpt lat="43.4346317" lon="11.34887"><ele>386.0</ele><time>2026-05-01T08:48:30.977Z</time></trkpt><trkpt lat="43.434565" lon="11.349"><ele>388.0</ele><time>2026-05-01T08:48:31.977Z</time></trkpt><trkpt lat="43.4345133" lon="11.34916"><ele>390.0</ele><time>2026-05-01T08:48:32.978Z</time></trkpt><trkpt lat="43.43446" lon="11.34938"><ele>392.0</ele><time>2026-05-01T08:48:33.978Z</time></trkpt><trkpt lat="43.4343933" lon="11.3495783"><ele>388.66666666666663</ele><time>2026-05-01T08:48:34.978Z</time></trkpt><trkpt lat="43.4343167" lon="11.349755"><ele>385.3333333333333</ele><time>2026-05-01T08:48:35.977Z</time></trkpt><trkpt lat="43.4342217" lon="11.3499083"><ele>382.0</ele><time>2026-05-01T08:48:36.978Z</time></trkpt><trkpt lat="43.4340983" lon="11.3500933"><ele>382.0</ele><time>2026-05-01T08:48:37.978Z</time></trkpt><trkpt lat="43.43396" lon="11.3502733"><ele>382.0</ele><time>2026-05-01T08:48:38.978Z</time></trkpt><trkpt lat="43.4338017" lon="11.3504483"><ele>382.0</ele><time>2026-05-01T08:48:39.977Z</time></trkpt><trkpt lat="43.43363" lon="11.3506217"><ele>381.5</ele><time>2026-05-01T08:48:40.977Z</time></trkpt><trkpt lat="43.4334433" lon="11.3508033"><ele>381.0</ele><time>2026-05-01T08:48:41.978Z</time></trkpt><trkpt lat="43.433245" lon="11.3509733"><ele>381.0</ele><time>2026-05-01T08:48:42.977Z</time></trkpt><trkpt lat="43.4330717" lon="11.35112"><ele>381.0</ele><time>2026-05-01T08:48:43.977Z</time></trkpt><trkpt lat="43.4329317" lon="11.35123"><ele>381.0</ele><time>2026-05-01T08:48:44.978Z</time></trkpt><trkpt lat="43.4328217" lon="11.351305"><ele>383.25</ele><time>2026-05-01T08:48:45.977Z</time></trkpt><trkpt lat="43.4327067" lon="11.3513617"><ele>385.5</ele><time>2026-05-01T08:48:46.977Z</time></trkpt><trkpt lat="43.4326" lon="11.3513883"><ele>387.75</ele><time>2026-05-01T08:48:47.977Z</time></trkpt><trkpt lat="43.43249" lon="11.3513917"><ele>390.0</ele><time>2026-05-01T08:48:48.977Z</time></trkpt><trkpt lat="43.432365" lon="11.3513867"><ele>391.5</ele><time>2026-05-01T08:48:49.977Z</time></trkpt><trkpt lat="43.4322383" lon="11.3513683"><ele>393.0</ele><time>2026-05-01T08:48:50.978Z</time></trkpt><trkpt lat="43.4320967" lon="11.3513483"><ele>394.5</ele><time>2026-05-01T08:48:51.978Z</time></trkpt><trkpt lat="43.4319767" lon="11.3513167"><ele>396.0</ele><time>2026-05-01T08:48:52.978Z</time></trkpt><trkpt lat="43.4318883" lon="11.3512733"><ele>396.0</ele><time>2026-05-01T08:48:53.977Z</time></trkpt><trkpt lat="43.4318217" lon="11.3512233"><ele>396.0</ele><time>2026-05-01T08:48:54.978Z</time></trkpt><trkpt lat="43.4317617" lon="11.3511617"><ele>396.0</ele><time>2026-05-01T08:48:55.978Z</time></trkpt><trkpt lat="43.431705" lon="11.3510983"><ele>396.0</ele><time>2026-05-01T08:48:56.978Z</time></trkpt><trkpt lat="43.4316333" lon="11.3510233"><ele>396.0</ele><time>2026-05-01T08:48:57.977Z</time></trkpt><trkpt lat="43.4315633" lon="11.3509217"><ele>396.0</ele><time>2026-05-01T08:48:58.978Z</time></trkpt><trkpt lat="43.4315033" lon="11.3508317"><ele>396.0</ele><time>2026-05-01T08:48:59.978Z</time></trkpt><trkpt lat="43.4314517" lon="11.3507617"><ele>396.0</ele><time>2026-05-01T08:49:00.977Z</time></trkpt><trkpt lat="43.4313383" lon="11.350695"><ele>396.0</ele><time>2026-05-01T08:49:02.977Z</time></trkpt><trkpt lat="43.43126" lon="11.35071"><ele>396.0</ele><time>2026-05-01T08:49:03.978Z</time></trkpt><trkpt lat="43.4311617" lon="11.3507583"><ele>396.0</ele><time>2026-05-01T08:49:04.978Z</time></trkpt><trkpt lat="43.4310383" lon="11.3508267"><ele>391.3333333333333</ele><time>2026-05-01T08:49:05.978Z</time></trkpt><trkpt lat="43.4308767" lon="11.3508867"><ele>386.66666666666663</ele><time>2026-05-01T08:49:06.978Z</time></trkpt><trkpt lat="43.4307217" lon="11.3509117"><ele>382.0</ele><time>2026-05-01T08:49:07.978Z</time></trkpt><trkpt lat="43.4305483" lon="11.3508933"><ele>381.0</ele><time>2026-05-01T08:49:08.977Z</time></trkpt><trkpt lat="43.4303567" lon="11.35085"><ele>380.0</ele><time>2026-05-01T08:49:09.977Z</time></trkpt><trkpt lat="43.43017" lon="11.3508383"><ele>379.0</ele><time>2026-05-01T08:49:10.977Z</time></trkpt><trkpt lat="43.4300017" lon="11.3508483"><ele>379.0</ele><time>2026-05-01T08:49:11.977Z</time></trkpt><trkpt lat="43.429855" lon="11.35087"><ele>379.0</ele><time>2026-05-01T08:49:12.977Z</time></trkpt><trkpt lat="43.42972" lon="11.3508717"><ele>379.0</ele><time>2026-05-01T08:49:13.978Z</time></trkpt><trkpt lat="43.42959" lon="11.35083"><ele>379.0</ele><time>2026-05-01T08:49:14.977Z</time></trkpt><trkpt lat="43.42945" lon="11.3507567"><ele>378.3333333333333</ele><time>2026-05-01T08:49:15.978Z</time></trkpt><trkpt lat="43.4293017" lon="11.35065"><ele>377.6666666666667</ele><time>2026-05-01T08:49:16.977Z</time></trkpt><trkpt lat="43.4291317" lon="11.3505283"><ele>377.0</ele><time>2026-05-01T08:49:17.977Z</time></trkpt><trkpt lat="43.4289667" lon="11.3503983"><ele>377.0</ele><time>2026-05-01T08:49:18.977Z</time></trkpt><trkpt lat="43.4288217" lon="11.3502867"><ele>377.0</ele><time>2026-05-01T08:49:19.977Z</time></trkpt><trkpt lat="43.428685" lon="11.35018"><ele>377.0</ele><time>2026-05-01T08:49:20.977Z</time></trkpt><trkpt lat="43.4285633" lon="11.3500883"><ele>377.0</ele><time>2026-05-01T08:49:21.977Z</time></trkpt><trkpt lat="43.4284517" lon="11.3500333"><ele>377.0</ele><time>2026-05-01T08:49:22.977Z</time></trkpt><trkpt lat="43.42835" lon="11.3500033"><ele>377.0</ele><time>2026-05-01T08:49:23.977Z</time></trkpt><trkpt lat="43.42822" lon="11.3499817"><ele>377.0</ele><time>2026-05-01T08:49:24.977Z</time></trkpt><trkpt lat="43.4281033" lon="11.3499967"><ele>377.0</ele><time>2026-05-01T08:49:25.977Z</time></trkpt><trkpt lat="43.4279867" lon="11.3500383"><ele>377.0</ele><time>2026-05-01T08:49:26.977Z</time></trkpt><trkpt lat="43.4278567" lon="11.3501133"><ele>377.0</ele><time>2026-05-01T08:49:27.977Z</time></trkpt><trkpt lat="43.4277083" lon="11.35022"><ele>377.0</ele><time>2026-05-01T08:49:28.977Z</time></trkpt><trkpt lat="43.4275333" lon="11.35031"><ele>377.25</ele><time>2026-05-01T08:49:29.977Z</time></trkpt><trkpt lat="43.427375" lon="11.3503817"><ele>377.5</ele><time>2026-05-01T08:49:30.977Z</time></trkpt><trkpt lat="43.4272367" lon="11.35042"><ele>377.75</ele><time>2026-05-01T08:49:31.978Z</time></trkpt><trkpt lat="43.427115" lon="11.350455"><ele>378.0</ele><time>2026-05-01T08:49:32.978Z</time></trkpt><trkpt lat="43.42702" lon="11.3505017"><ele>381.2</ele><time>2026-05-01T08:49:33.977Z</time></trkpt><trkpt lat="43.42693" lon="11.3505833"><ele>384.4</ele><time>2026-05-01T08:49:34.977Z</time></trkpt><trkpt lat="43.4268583" lon="11.3506867"><ele>387.59999999999997</ele><time>2026-05-01T08:49:35.978Z</time></trkpt><trkpt lat="43.426815" lon="11.3508067"><ele>390.79999999999995</ele><time>2026-05-01T08:49:36.978Z</time></trkpt><trkpt lat="43.42678" lon="11.350925"><ele>394.0</ele><time>2026-05-01T08:49:37.977Z</time></trkpt><trkpt lat="43.4267267" lon="11.351055"><ele>394.0</ele><time>2026-05-01T08:49:38.977Z</time></trkpt><trkpt lat="43.4266683" lon="11.3511867"><ele>394.0</ele><time>2026-05-01T08:49:39.977Z</time></trkpt><trkpt lat="43.4266367" lon="11.35132"><ele>394.0</ele><time>2026-05-01T08:49:40.977Z</time></trkpt><trkpt lat="43.4265667" lon="11.351455"><ele>394.0</ele><time>2026-05-01T08:49:41.978Z</time></trkpt><trkpt lat="43.42647" lon="11.3515833"><ele>392.75</ele><time>2026-05-01T08:49:42.977Z</time></trkpt><trkpt lat="43.4263617" lon="11.351715"><ele>391.5</ele><time>2026-05-01T08:49:43.977Z</time></trkpt><trkpt lat="43.426255" lon="11.351835"><ele>390.25</ele><time>2026-05-01T08:49:44.978Z</time></trkpt><trkpt lat="43.42613" lon="11.3519383"><ele>389.0</ele><time>2026-05-01T08:49:45.978Z</time></trkpt><trkpt lat="43.4260383" lon="11.35204"><ele>392.0</ele><time>2026-05-01T08:49:46.977Z</time></trkpt><trkpt lat="43.42596" lon="11.3521517"><ele>395.0</ele><time>2026-05-01T08:49:47.978Z</time></trkpt><trkpt lat="43.4259133" lon="11.3523217"><ele>398.0</ele><time>2026-05-01T08:49:48.977Z</time></trkpt><trkpt lat="43.4258667" lon="11.3525"><ele>401.0</ele><time>2026-05-01T08:49:49.977Z</time></trkpt><trkpt lat="43.4258267" lon="11.3527167"><ele>401.0</ele><time>2026-05-01T08:49:50.977Z</time></trkpt><trkpt lat="43.4257967" lon="11.3529383"><ele>401.0</ele><time>2026-05-01T08:49:51.977Z</time></trkpt><trkpt lat="43.4257833" lon="11.3531633"><ele>401.0</ele><time>2026-05-01T08:49:52.978Z</time></trkpt><trkpt lat="43.4257833" lon="11.35339"><ele>400.5</ele><time>2026-05-01T08:49:53.977Z</time></trkpt><trkpt lat="43.425795" lon="11.353595"><ele>400.0</ele><time>2026-05-01T08:49:54.978Z</time></trkpt><trkpt lat="43.4257967" lon="11.3537617"><ele>399.5</ele><time>2026-05-01T08:49:55.977Z</time></trkpt><trkpt lat="43.4257867" lon="11.353905"><ele>399.0</ele><time>2026-05-01T08:49:56.978Z</time></trkpt><trkpt lat="43.4257433" lon="11.3540433"><ele>400.6</ele><time>2026-05-01T08:49:57.978Z</time></trkpt><trkpt lat="43.4257017" lon="11.3541683"><ele>402.2</ele><time>2026-05-01T08:49:58.978Z</time></trkpt><trkpt lat="43.4256483" lon="11.3542733"><ele>403.8</ele><time>2026-05-01T08:49:59.977Z</time></trkpt><trkpt lat="43.42558" lon="11.3543467"><ele>405.40000000000003</ele><time>2026-05-01T08:50:00.977Z</time></trkpt><trkpt lat="43.425495" lon="11.3543917"><ele>407.0</ele><time>2026-05-01T08:50:01.977Z</time></trkpt><trkpt lat="43.4254133" lon="11.3544033"><ele>409.99999999999994</ele><time>2026-05-01T08:50:02.978Z</time></trkpt><trkpt lat="43.4253283" lon="11.3543983"><ele>413.0</ele><time>2026-05-01T08:50:03.978Z</time></trkpt><trkpt lat="43.425235" lon="11.3544033"><ele>416.0</ele><time>2026-05-01T08:50:04.978Z</time></trkpt><trkpt lat="43.42515" lon="11.3544333"><ele>419.0</ele><time>2026-05-01T08:50:05.978Z</time></trkpt><trkpt lat="43.425085" lon="11.354495"><ele>421.99999999999994</ele><time>2026-05-01T08:50:06.977Z</time></trkpt><trkpt lat="43.42504" lon="11.3545817"><ele>425.0</ele><time>2026-05-01T08:50:07.978Z</time></trkpt><trkpt lat="43.425005" lon="11.3546833"><ele>424.8333333333333</ele><time>2026-05-01T08:50:08.977Z</time></trkpt><trkpt lat="43.424965" lon="11.3547767"><ele>424.66666666666663</ele><time>2026-05-01T08:50:09.977Z</time></trkpt><trkpt lat="43.4249167" lon="11.3548367"><ele>424.5</ele><time>2026-05-01T08:50:10.978Z</time></trkpt><trkpt lat="43.4247883" lon="11.354835"><ele>424.33333333333337</ele><time>2026-05-01T08:50:12.978Z</time></trkpt><trkpt lat="43.4246967" lon="11.3548233"><ele>424.1666666666667</ele><time>2026-05-01T08:50:13.978Z</time></trkpt><trkpt lat="43.4246183" lon="11.354815"><ele>424.0</ele><time>2026-05-01T08:50:14.977Z</time></trkpt><trkpt lat="43.42453" lon="11.3548033"><ele>423.1666666666667</ele><time>2026-05-01T08:50:15.977Z</time></trkpt><trkpt lat="43.424445" lon="11.3547883"><ele>422.33333333333337</ele><time>2026-05-01T08:50:16.977Z</time></trkpt><trkpt lat="43.4243567" lon="11.354765"><ele>421.5</ele><time>2026-05-01T08:50:17.977Z</time></trkpt><trkpt lat="43.4242717" lon="11.3547333"><ele>420.66666666666663</ele><time>2026-05-01T08:50:18.978Z</time></trkpt><trkpt lat="43.4241917" lon="11.3546983"><ele>419.8333333333333</ele><time>2026-05-01T08:50:19.977Z</time></trkpt><trkpt lat="43.4241267" lon="11.3546533"><ele>419.0</ele><time>2026-05-01T08:50:20.977Z</time></trkpt><trkpt lat="43.424065" lon="11.3545817"><ele>422.2</ele><time>2026-05-01T08:50:21.977Z</time></trkpt><trkpt lat="43.4240067" lon="11.3544967"><ele>425.4</ele><time>2026-05-01T08:50:22.978Z</time></trkpt><trkpt lat="43.4239533" lon="11.3543767"><ele>428.6</ele><time>2026-05-01T08:50:23.978Z</time></trkpt><trkpt lat="43.4239" lon="11.3542667"><ele>431.8</ele><time>2026-05-01T08:50:24.978Z</time></trkpt><trkpt lat="43.42386" lon="11.3541567"><ele>435.0</ele><time>2026-05-01T08:50:25.978Z</time></trkpt><trkpt lat="43.4238433" lon="11.3540383"><ele>435.0</ele><time>2026-05-01T08:50:26.977Z</time></trkpt><trkpt lat="43.4238283" lon="11.3539033"><ele>435.0</ele><time>2026-05-01T08:50:27.977Z</time></trkpt><trkpt lat="43.4238183" lon="11.35374"><ele>435.0</ele><time>2026-05-01T08:50:28.977Z</time></trkpt><trkpt lat="43.4238167" lon="11.3535583"><ele>435.0</ele><time>2026-05-01T08:50:29.977Z</time></trkpt><trkpt lat="43.4237933" lon="11.3533683"><ele>434.33333333333337</ele><time>2026-05-01T08:50:30.977Z</time></trkpt><trkpt lat="43.4237733" lon="11.3531633"><ele>433.6666666666667</ele><time>2026-05-01T08:50:31.978Z</time></trkpt><trkpt lat="43.4237317" lon="11.352955"><ele>433.0</ele><time>2026-05-01T08:50:32.977Z</time></trkpt><trkpt lat="43.4237033" lon="11.352745"><ele>435.5</ele><time>2026-05-01T08:50:33.977Z</time></trkpt><trkpt lat="43.4236833" lon="11.3525567"><ele>438.0</ele><time>2026-05-01T08:50:34.977Z</time></trkpt><trkpt lat="43.4236867" lon="11.3523833"><ele>440.5</ele><time>2026-05-01T08:50:35.977Z</time></trkpt><trkpt lat="43.42369" lon="11.3522233"><ele>443.0</ele><time>2026-05-01T08:50:36.977Z</time></trkpt><trkpt lat="43.4237067" lon="11.3520567"><ele>444.25</ele><time>2026-05-01T08:50:37.977Z</time></trkpt><trkpt lat="43.423735" lon="11.351885"><ele>445.5</ele><time>2026-05-01T08:50:38.977Z</time></trkpt><trkpt lat="43.4237933" lon="11.35171"><ele>446.75</ele><time>2026-05-01T08:50:39.978Z</time></trkpt><trkpt lat="43.4238583" lon="11.3515267"><ele>448.0</ele><time>2026-05-01T08:50:40.977Z</time></trkpt><trkpt lat="43.4239133" lon="11.3513517"><ele>449.25</ele><time>2026-05-01T08:50:41.978Z</time></trkpt><trkpt lat="43.4239517" lon="11.3511767"><ele>450.5</ele><time>2026-05-01T08:50:42.978Z</time></trkpt><trkpt lat="43.4239867" lon="11.3509783"><ele>451.75</ele><time>2026-05-01T08:50:43.977Z</time></trkpt><trkpt lat="43.424" lon="11.3507717"><ele>453.0</ele><time>2026-05-01T08:50:44.977Z</time></trkpt><trkpt lat="43.4239967" lon="11.3505883"><ele>454.8333333333333</ele><time>2026-05-01T08:50:45.977Z</time></trkpt><trkpt lat="43.4239867" lon="11.3504333"><ele>456.66666666666663</ele><time>2026-05-01T08:50:46.977Z</time></trkpt><trkpt lat="43.42397" lon="11.3503183"><ele>458.5</ele><time>2026-05-01T08:50:47.978Z</time></trkpt><trkpt lat="43.4239333" lon="11.3502217"><ele>460.3333333333333</ele><time>2026-05-01T08:50:48.978Z</time></trkpt><trkpt lat="43.4238783" lon="11.350145"><ele>462.16666666666663</ele><time>2026-05-01T08:50:49.977Z</time></trkpt><trkpt lat="43.4238083" lon="11.3501083"><ele>464.0</ele><time>2026-05-01T08:50:50.978Z</time></trkpt><trkpt lat="43.4237267" lon="11.350105"><ele>466.4</ele><time>2026-05-01T08:50:51.978Z</time></trkpt><trkpt lat="43.4236367" lon="11.3501383"><ele>468.79999999999995</ele><time>2026-05-01T08:50:52.977Z</time></trkpt><trkpt lat="43.4235467" lon="11.3501917"><ele>471.20000000000005</ele><time>2026-05-01T08:50:53.977Z</time></trkpt><trkpt lat="43.42345" lon="11.35024"><ele>473.6</ele><time>2026-05-01T08:50:54.978Z</time></trkpt><trkpt lat="43.4233383" lon="11.3503"><ele>476.0</ele><time>2026-05-01T08:50:55.978Z</time></trkpt><trkpt lat="43.423225" lon="11.3503867"><ele>476.0</ele><time>2026-05-01T08:50:56.977Z</time></trkpt><trkpt lat="43.4231233" lon="11.350485"><ele>476.0</ele><time>2026-05-01T08:50:57.977Z</time></trkpt><trkpt lat="43.4230383" lon="11.3505767"><ele>476.0</ele><time>2026-05-01T08:50:58.977Z</time></trkpt><trkpt lat="43.4229683" lon="11.3506317"><ele>476.0</ele><time>2026-05-01T08:50:59.977Z</time></trkpt><trkpt lat="43.4228683" lon="11.3506333"><ele>476.0</ele><time>2026-05-01T08:51:01.977Z</time></trkpt><trkpt lat="43.4228117" lon="11.350515"><ele>477.6</ele><time>2026-05-01T08:51:03.977Z</time></trkpt><trkpt lat="43.4227817" lon="11.35043"><ele>479.20000000000005</ele><time>2026-05-01T08:51:04.977Z</time></trkpt><trkpt lat="43.4227417" lon="11.3503183"><ele>480.79999999999995</ele><time>2026-05-01T08:51:05.977Z</time></trkpt><trkpt lat="43.422685" lon="11.35022"><ele>482.4</ele><time>2026-05-01T08:51:06.977Z</time></trkpt><trkpt lat="43.422605" lon="11.3501283"><ele>484.0</ele><time>2026-05-01T08:51:07.978Z</time></trkpt><trkpt lat="43.4225133" lon="11.3500433"><ele>484.0</ele><time>2026-05-01T08:51:08.977Z</time></trkpt><trkpt lat="43.422405" lon="11.349965"><ele>484.0</ele><time>2026-05-01T08:51:09.977Z</time></trkpt><trkpt lat="43.4223" lon="11.349865"><ele>484.0</ele><time>2026-05-01T08:51:10.978Z</time></trkpt><trkpt lat="43.4221917" lon="11.3497467"><ele>484.0</ele><time>2026-05-01T08:51:11.978Z</time></trkpt><trkpt lat="43.4220833" lon="11.3496317"><ele>486.79999999999995</ele><time>2026-05-01T08:51:12.977Z</time></trkpt><trkpt lat="43.42198" lon="11.3495417"><ele>489.59999999999997</ele><time>2026-05-01T08:51:13.977Z</time></trkpt><trkpt lat="43.4218833" lon="11.349505"><ele>492.4</ele><time>2026-05-01T08:51:14.978Z</time></trkpt><trkpt lat="43.42177" lon="11.34952"><ele>495.2</ele><time>2026-05-01T08:51:15.977Z</time></trkpt><trkpt lat="43.4216617" lon="11.3495483"><ele>498.0</ele><time>2026-05-01T08:51:16.977Z</time></trkpt><trkpt lat="43.4215583" lon="11.349555"><ele>498.0</ele><time>2026-05-01T08:51:17.977Z</time></trkpt><trkpt lat="43.421465" lon="11.3495283"><ele>497.99999999999994</ele><time>2026-05-01T08:51:18.978Z</time></trkpt><trkpt lat="43.4213967" lon="11.3494617"><ele>497.99999999999994</ele><time>2026-05-01T08:51:19.977Z</time></trkpt><trkpt lat="43.42136" lon="11.3493433"><ele>498.0</ele><time>2026-05-01T08:51:20.978Z</time></trkpt><trkpt lat="43.4213333" lon="11.3491933"><ele>498.0</ele><time>2026-05-01T08:51:21.978Z</time></trkpt><trkpt lat="43.4213333" lon="11.348985"><ele>499.5</ele><time>2026-05-01T08:51:22.978Z</time></trkpt><trkpt lat="43.42135" lon="11.3487667"><ele>501.0</ele><time>2026-05-01T08:51:23.978Z</time></trkpt><trkpt lat="43.4213717" lon="11.3485783"><ele>502.5</ele><time>2026-05-01T08:51:24.977Z</time></trkpt><trkpt lat="43.4213933" lon="11.3484083"><ele>504.0</ele><time>2026-05-01T08:51:25.978Z</time></trkpt><trkpt lat="43.42141" lon="11.3482417"><ele>504.0</ele><time>2026-05-01T08:51:26.978Z</time></trkpt><trkpt lat="43.4214183" lon="11.3480817"><ele>504.0</ele><time>2026-05-01T08:51:27.977Z</time></trkpt><trkpt lat="43.4214167" lon="11.3479383"><ele>504.0</ele><time>2026-05-01T08:51:28.977Z</time></trkpt><trkpt lat="43.42142" lon="11.34783"><ele>504.0</ele><time>2026-05-01T08:51:29.977Z</time></trkpt><trkpt lat="43.4214067" lon="11.3477033"><ele>504.0</ele><time>2026-05-01T08:51:31.978Z</time></trkpt><trkpt lat="43.4214" lon="11.3476083"><ele>503.4</ele><time>2026-05-01T08:51:33.978Z</time></trkpt><trkpt lat="43.4213567" lon="11.3475133"><ele>502.79999999999995</ele><time>2026-05-01T08:51:35.977Z</time></trkpt><trkpt lat="43.4212967" lon="11.3474317"><ele>502.20000000000005</ele><time>2026-05-01T08:51:37.978Z</time></trkpt><trkpt lat="43.4212267" lon="11.3473733"><ele>501.6</ele><time>2026-05-01T08:51:39.978Z</time></trkpt><trkpt lat="43.4211067" lon="11.34732"><ele>501.0</ele><time>2026-05-01T08:51:41.977Z</time></trkpt><trkpt lat="43.4210317" lon="11.3473033"><ele>501.0</ele><time>2026-05-01T08:51:42.977Z</time></trkpt><trkpt lat="43.4209617" lon="11.3473"><ele>501.0</ele><time>2026-05-01T08:51:43.978Z</time></trkpt><trkpt lat="43.4208883" lon="11.3472983"><ele>501.0</ele><time>2026-05-01T08:51:45.978Z</time></trkpt><trkpt lat="43.4207767" lon="11.3472867"><ele>501.0</ele><time>2026-05-01T08:54:19.976Z</time></trkpt><trkpt lat="43.420635" lon="11.347265"><ele>501.0</ele><time>2026-05-01T08:54:21.976Z</time></trkpt><trkpt lat="43.4205417" lon="11.3472533"><ele>500.0</ele><time>2026-05-01T08:54:22.977Z</time></trkpt><trkpt lat="43.42045" lon="11.3472133"><ele>499.0</ele><time>2026-05-01T08:54:23.976Z</time></trkpt><trkpt lat="43.4203433" lon="11.34713"><ele>498.0</ele><time>2026-05-01T08:54:24.976Z</time></trkpt><trkpt lat="43.4202183" lon="11.3470417"><ele>497.0</ele><time>2026-05-01T08:54:25.977Z</time></trkpt><trkpt lat="43.42007" lon="11.3469983"><ele>498.0</ele><time>2026-05-01T08:54:26.977Z</time></trkpt><trkpt lat="43.4199283" lon="11.3469883"><ele>499.0</ele><time>2026-05-01T08:54:27.977Z</time></trkpt><trkpt lat="43.419815" lon="11.3469883"><ele>500.0</ele><time>2026-05-01T08:54:28.976Z</time></trkpt><trkpt lat="43.41971" lon="11.347"><ele>501.0</ele><time>2026-05-01T08:54:29.976Z</time></trkpt><trkpt lat="43.419615" lon="11.3470033"><ele>501.0</ele><time>2026-05-01T08:54:30.977Z</time></trkpt><trkpt lat="43.4195167" lon="11.34699"><ele>501.0</ele><time>2026-05-01T08:54:31.976Z</time></trkpt><trkpt lat="43.4194017" lon="11.3469333"><ele>501.0</ele><time>2026-05-01T08:54:32.976Z</time></trkpt><trkpt lat="43.419265" lon="11.3468317"><ele>501.0</ele><time>2026-05-01T08:54:33.977Z</time></trkpt><trkpt lat="43.419135" lon="11.3467133"><ele>501.0</ele><time>2026-05-01T08:54:34.977Z</time></trkpt><trkpt lat="43.419015" lon="11.3466"><ele>501.0</ele><time>2026-05-01T08:54:35.977Z</time></trkpt><trkpt lat="43.4189033" lon="11.3464983"><ele>501.0</ele><time>2026-05-01T08:54:36.976Z</time></trkpt><trkpt lat="43.4187883" lon="11.3464333"><ele>501.0</ele><time>2026-05-01T08:54:37.977Z</time></trkpt><trkpt lat="43.418665" lon="11.3464167"><ele>500.5</ele><time>2026-05-01T08:54:38.976Z</time></trkpt><trkpt lat="43.41854" lon="11.346435"><ele>500.0</ele><time>2026-05-01T08:54:39.976Z</time></trkpt><trkpt lat="43.4183933" lon="11.34647"><ele>499.5</ele><time>2026-05-01T08:54:40.976Z</time></trkpt><trkpt lat="43.4182417" lon="11.34652"><ele>499.0</ele><time>2026-05-01T08:54:41.976Z</time></trkpt><trkpt lat="43.4180883" lon="11.3465817"><ele>503.0</ele><time>2026-05-01T08:54:42.976Z</time></trkpt><trkpt lat="43.4179383" lon="11.3466567"><ele>507.0</ele><time>2026-05-01T08:54:43.977Z</time></trkpt><trkpt lat="43.4177817" lon="11.3467567"><ele>511.0</ele><time>2026-05-01T08:54:44.976Z</time></trkpt><trkpt lat="43.4176367" lon="11.3468717"><ele>511.0</ele><time>2026-05-01T08:54:45.976Z</time></trkpt><trkpt lat="43.4175017" lon="11.3470033"><ele>511.0</ele><time>2026-05-01T08:54:46.976Z</time></trkpt><trkpt lat="43.417375" lon="11.3471367"><ele>511.0</ele><time>2026-05-01T08:54:47.976Z</time></trkpt><trkpt lat="43.4172617" lon="11.3472683"><ele>511.0</ele><time>2026-05-01T08:54:48.976Z</time></trkpt><trkpt lat="43.4171783" lon="11.3474017"><ele>511.0</ele><time>2026-05-01T08:54:49.976Z</time></trkpt><trkpt lat="43.4171183" lon="11.3475517"><ele>511.0</ele><time>2026-05-01T08:54:50.977Z</time></trkpt><trkpt lat="43.4170917" lon="11.3477333"><ele>511.0</ele><time>2026-05-01T08:54:51.976Z</time></trkpt><trkpt lat="43.417105" lon="11.34793"><ele>509.5</ele><time>2026-05-01T08:54:52.976Z</time></trkpt><trkpt lat="43.41714" lon="11.3481133"><ele>508.0</ele><time>2026-05-01T08:54:53.976Z</time></trkpt><trkpt lat="43.4171683" lon="11.3482883"><ele>506.5</ele><time>2026-05-01T08:54:54.976Z</time></trkpt><trkpt lat="43.4171733" lon="11.3484333"><ele>505.0</ele><time>2026-05-01T08:54:55.976Z</time></trkpt><trkpt lat="43.41714" lon="11.3485433"><ele>505.0</ele><time>2026-05-01T08:54:56.976Z</time></trkpt><trkpt lat="43.41707" lon="11.3486433"><ele>505.0</ele><time>2026-05-01T08:54:57.977Z</time></trkpt><trkpt lat="43.41695" lon="11.3487183"><ele>505.0</ele><time>2026-05-01T08:54:58.976Z</time></trkpt><trkpt lat="43.4168" lon="11.34877"><ele>505.0</ele><time>2026-05-01T08:54:59.976Z</time></trkpt><trkpt lat="43.4166383" lon="11.348795"><ele>505.0</ele><time>2026-05-01T08:55:00.977Z</time></trkpt><trkpt lat="43.4164717" lon="11.3488067"><ele>505.0</ele><time>2026-05-01T08:55:01.977Z</time></trkpt><trkpt lat="43.4162967" lon="11.3488317"><ele>505.0</ele><time>2026-05-01T08:55:02.977Z</time></trkpt><trkpt lat="43.4161367" lon="11.348855"><ele>500.0</ele><time>2026-05-01T08:55:03.977Z</time></trkpt><trkpt lat="43.41597" lon="11.3488967"><ele>495.0</ele><time>2026-05-01T08:55:04.976Z</time></trkpt><trkpt lat="43.4158167" lon="11.3489233"><ele>490.0</ele><time>2026-05-01T08:55:05.977Z</time></trkpt><trkpt lat="43.4156583" lon="11.3489317"><ele>490.0</ele><time>2026-05-01T08:55:06.977Z</time></trkpt><trkpt lat="43.4154933" lon="11.34889"><ele>490.0</ele><time>2026-05-01T08:55:07.977Z</time></trkpt><trkpt lat="43.4153417" lon="11.3488483"><ele>490.0</ele><time>2026-05-01T08:55:08.977Z</time></trkpt><trkpt lat="43.4152067" lon="11.3488367"><ele>490.25</ele><time>2026-05-01T08:55:09.976Z</time></trkpt><trkpt lat="43.4150783" lon="11.3488783"><ele>490.5</ele><time>2026-05-01T08:55:10.976Z</time></trkpt><trkpt lat="43.4149483" lon="11.3489617"><ele>490.75</ele><time>2026-05-01T08:55:11.976Z</time></trkpt><trkpt lat="43.41482" lon="11.349095"><ele>491.0</ele><time>2026-05-01T08:55:12.977Z</time></trkpt><trkpt lat="43.4147217" lon="11.3492367"><ele>491.75</ele><time>2026-05-01T08:55:13.977Z</time></trkpt><trkpt lat="43.41465" lon="11.349405"><ele>492.5</ele><time>2026-05-01T08:55:14.976Z</time></trkpt><trkpt lat="43.414615" lon="11.3495967"><ele>493.25</ele><time>2026-05-01T08:55:15.976Z</time></trkpt><trkpt lat="43.4146017" lon="11.349805"><ele>494.0</ele><time>2026-05-01T08:55:16.977Z</time></trkpt><trkpt lat="43.414595" lon="11.3500067"><ele>494.0</ele><time>2026-05-01T08:55:17.976Z</time></trkpt><trkpt lat="43.4145817" lon="11.35019"><ele>494.0</ele><time>2026-05-01T08:55:18.976Z</time></trkpt><trkpt lat="43.414555" lon="11.3503367"><ele>494.0</ele><time>2026-05-01T08:55:19.976Z</time></trkpt><trkpt lat="43.4145" lon="11.35043"><ele>494.0</ele><time>2026-05-01T08:55:20.977Z</time></trkpt><trkpt lat="43.414435" lon="11.3504733"><ele>494.0</ele><time>2026-05-01T08:55:21.976Z</time></trkpt><trkpt lat="43.4143517" lon="11.3504683"><ele>494.0</ele><time>2026-05-01T08:55:22.976Z</time></trkpt><trkpt lat="43.41425" lon="11.3504367"><ele>494.0</ele><time>2026-05-01T08:55:23.977Z</time></trkpt><trkpt lat="43.41414" lon="11.35039"><ele>494.0</ele><time>2026-05-01T08:55:24.976Z</time></trkpt><trkpt lat="43.4140333" lon="11.35035"><ele>494.0</ele><time>2026-05-01T08:55:25.976Z</time></trkpt><trkpt lat="43.4139267" lon="11.350365"><ele>494.0</ele><time>2026-05-01T08:55:26.977Z</time></trkpt><trkpt lat="43.4138067" lon="11.3504483"><ele>489.3333333333333</ele><time>2026-05-01T08:55:27.977Z</time></trkpt><trkpt lat="43.4136833" lon="11.3505733"><ele>484.66666666666663</ele><time>2026-05-01T08:55:28.976Z</time></trkpt><trkpt lat="43.413545" lon="11.3507383"><ele>480.0</ele><time>2026-05-01T08:55:29.976Z</time></trkpt><trkpt lat="43.4134033" lon="11.3509367"><ele>480.0</ele><time>2026-05-01T08:55:30.977Z</time></trkpt><trkpt lat="43.41326" lon="11.3511283"><ele>480.0</ele><time>2026-05-01T08:55:31.976Z</time></trkpt><trkpt lat="43.4131217" lon="11.3513133"><ele>480.0</ele><time>2026-05-01T08:55:32.976Z</time></trkpt><trkpt lat="43.412995" lon="11.351475"><ele>477.33333333333337</ele><time>2026-05-01T08:55:33.976Z</time></trkpt><trkpt lat="43.4128633" lon="11.3516167"><ele>474.6666666666667</ele><time>2026-05-01T08:55:34.976Z</time></trkpt><trkpt lat="43.4127083" lon="11.3517167"><ele>472.0</ele><time>2026-05-01T08:55:35.976Z</time></trkpt><trkpt lat="43.4125283" lon="11.35178"><ele>472.0</ele><time>2026-05-01T08:55:36.976Z</time></trkpt><trkpt lat="43.4123217" lon="11.3518267"><ele>472.0</ele><time>2026-05-01T08:55:37.977Z</time></trkpt><trkpt lat="43.4121317" lon="11.3518683"><ele>472.0</ele><time>2026-05-01T08:55:38.977Z</time></trkpt><trkpt lat="43.4119533" lon="11.3519017"><ele>470.33333333333337</ele><time>2026-05-01T08:55:39.977Z</time></trkpt><trkpt lat="43.411775" lon="11.351945"><ele>468.66666666666663</ele><time>2026-05-01T08:55:40.976Z</time></trkpt><trkpt lat="43.4116067" lon="11.351985"><ele>467.0</ele><time>2026-05-01T08:55:41.976Z</time></trkpt><trkpt lat="43.4114367" lon="11.3520267"><ele>468.3333333333333</ele><time>2026-05-01T08:55:42.976Z</time></trkpt><trkpt lat="43.411265" lon="11.3520733"><ele>469.66666666666663</ele><time>2026-05-01T08:55:43.976Z</time></trkpt><trkpt lat="43.411095" lon="11.3521183"><ele>471.0</ele><time>2026-05-01T08:55:44.976Z</time></trkpt><trkpt lat="43.4109267" lon="11.35216"><ele>471.0</ele><time>2026-05-01T08:55:45.977Z</time></trkpt><trkpt lat="43.4107733" lon="11.3522"><ele>471.0</ele><time>2026-05-01T08:55:46.977Z</time></trkpt><trkpt lat="43.410625" lon="11.352235"><ele>471.0</ele><time>2026-05-01T08:55:47.976Z</time></trkpt><trkpt lat="43.4104883" lon="11.352275"><ele>471.0</ele><time>2026-05-01T08:55:48.977Z</time></trkpt><trkpt lat="43.41037" lon="11.3523067"><ele>470.6666666666667</ele><time>2026-05-01T08:55:49.976Z</time></trkpt><trkpt lat="43.4102917" lon="11.35232"><ele>470.33333333333337</ele><time>2026-05-01T08:55:50.976Z</time></trkpt><trkpt lat="43.4101883" lon="11.3523783"><ele>470.0</ele><time>2026-05-01T08:55:52.976Z</time></trkpt><trkpt lat="43.4101217" lon="11.3524433"><ele>469.6666666666667</ele><time>2026-05-01T08:55:53.976Z</time></trkpt><trkpt lat="43.41006" lon="11.3525183"><ele>469.33333333333337</ele><time>2026-05-01T08:55:54.977Z</time></trkpt><trkpt lat="43.409995" lon="11.3526033"><ele>469.0</ele><time>2026-05-01T08:55:55.976Z</time></trkpt><trkpt lat="43.4099433" lon="11.35269"><ele>469.00000000000006</ele><time>2026-05-01T08:55:56.976Z</time></trkpt><trkpt lat="43.4098867" lon="11.3527767"><ele>469.0</ele><time>2026-05-01T08:55:57.976Z</time></trkpt><trkpt lat="43.4098467" lon="11.3528633"><ele>469.0</ele><time>2026-05-01T08:55:58.977Z</time></trkpt><trkpt lat="43.4098167" lon="11.3529517"><ele>469.0</ele><time>2026-05-01T08:55:59.976Z</time></trkpt><trkpt lat="43.4098017" lon="11.3530567"><ele>469.00000000000006</ele><time>2026-05-01T08:56:00.977Z</time></trkpt><trkpt lat="43.4097817" lon="11.353165"><ele>469.0</ele><time>2026-05-01T08:56:01.976Z</time></trkpt><trkpt lat="43.4097517" lon="11.3532483"><ele>468.79999999999995</ele><time>2026-05-01T08:56:02.976Z</time></trkpt><trkpt lat="43.4096683" lon="11.3533317"><ele>468.59999999999997</ele><time>2026-05-01T08:56:04.977Z</time></trkpt><trkpt lat="43.4096033" lon="11.3533417"><ele>468.4</ele><time>2026-05-01T08:56:05.976Z</time></trkpt><trkpt lat="43.4095283" lon="11.353325"><ele>468.2</ele><time>2026-05-01T08:56:06.976Z</time></trkpt><trkpt lat="43.40943" lon="11.3532867"><ele>468.0</ele><time>2026-05-01T08:56:07.976Z</time></trkpt><trkpt lat="43.40932" lon="11.3532617"><ele>468.0</ele><time>2026-05-01T08:56:08.976Z</time></trkpt><trkpt lat="43.4091933" lon="11.3532383"><ele>468.0</ele><time>2026-05-01T08:56:09.976Z</time></trkpt><trkpt lat="43.4090783" lon="11.3532367"><ele>468.0</ele><time>2026-05-01T08:56:10.977Z</time></trkpt><trkpt lat="43.408965" lon="11.3532767"><ele>468.0</ele><time>2026-05-01T08:56:11.976Z</time></trkpt><trkpt lat="43.4088817" lon="11.35336"><ele>468.79999999999995</ele><time>2026-05-01T08:56:12.977Z</time></trkpt><trkpt lat="43.408815" lon="11.353465"><ele>469.59999999999997</ele><time>2026-05-01T08:56:13.977Z</time></trkpt><trkpt lat="43.4087817" lon="11.3535917"><ele>470.40000000000003</ele><time>2026-05-01T08:56:14.977Z</time></trkpt><trkpt lat="43.4087667" lon="11.3537433"><ele>471.20000000000005</ele><time>2026-05-01T08:56:15.977Z</time></trkpt><trkpt lat="43.4087483" lon="11.353885"><ele>472.0</ele><time>2026-05-01T08:56:16.977Z</time></trkpt><trkpt lat="43.4087183" lon="11.3540067"><ele>472.00000000000006</ele><time>2026-05-01T08:56:17.976Z</time></trkpt><trkpt lat="43.40867" lon="11.3540967"><ele>472.0</ele><time>2026-05-01T08:56:18.977Z</time></trkpt><trkpt lat="43.4086033" lon="11.354155"><ele>472.0</ele><time>2026-05-01T08:56:19.977Z</time></trkpt><trkpt lat="43.4085317" lon="11.3541833"><ele>472.0</ele><time>2026-05-01T08:56:20.977Z</time></trkpt><trkpt lat="43.4084567" lon="11.35417"><ele>472.00000000000006</ele><time>2026-05-01T08:56:21.976Z</time></trkpt><trkpt lat="43.40839" lon="11.3541183"><ele>472.0</ele><time>2026-05-01T08:56:22.977Z</time></trkpt><trkpt lat="43.4083183" lon="11.3540333"><ele>472.0</ele><time>2026-05-01T08:56:23.976Z</time></trkpt><trkpt lat="43.40823" lon="11.3539167"><ele>472.00000000000006</ele><time>2026-05-01T08:56:24.976Z</time></trkpt><trkpt lat="43.4081317" lon="11.353825"><ele>472.00000000000006</ele><time>2026-05-01T08:56:25.977Z</time></trkpt><trkpt lat="43.4080333" lon="11.3537917"><ele>472.0</ele><time>2026-05-01T08:56:26.976Z</time></trkpt><trkpt lat="43.4079333" lon="11.3538"><ele>472.0</ele><time>2026-05-01T08:56:27.976Z</time></trkpt><trkpt lat="43.4078317" lon="11.3538467"><ele>470.6</ele><time>2026-05-01T08:56:28.977Z</time></trkpt><trkpt lat="43.4077583" lon="11.3539233"><ele>469.20000000000005</ele><time>2026-05-01T08:56:29.976Z</time></trkpt><trkpt lat="43.407705" lon="11.3540233"><ele>467.8</ele><time>2026-05-01T08:56:30.976Z</time></trkpt><trkpt lat="43.4076767" lon="11.3541467"><ele>466.4</ele><time>2026-05-01T08:56:31.976Z</time></trkpt><trkpt lat="43.4076383" lon="11.3542783"><ele>465.0</ele><time>2026-05-01T08:56:32.977Z</time></trkpt><trkpt lat="43.4075917" lon="11.3543883"><ele>465.0</ele><time>2026-05-01T08:56:33.976Z</time></trkpt><trkpt lat="43.4075283" lon="11.354445"><ele>465.0</ele><time>2026-05-01T08:56:34.976Z</time></trkpt><trkpt lat="43.4074583" lon="11.3544667"><ele>465.0</ele><time>2026-05-01T08:56:35.976Z</time></trkpt><trkpt lat="43.40738" lon="11.35443"><ele>465.0</ele><time>2026-05-01T08:56:36.976Z</time></trkpt><trkpt lat="43.4072683" lon="11.3544017"><ele>465.0</ele><time>2026-05-01T08:56:37.977Z</time></trkpt><trkpt lat="43.4071533" lon="11.354395"><ele>464.25</ele><time>2026-05-01T08:56:38.976Z</time></trkpt><trkpt lat="43.40704" lon="11.3544333"><ele>463.5</ele><time>2026-05-01T08:56:39.976Z</time></trkpt><trkpt lat="43.4069167" lon="11.3545067"><ele>462.75</ele><time>2026-05-01T08:56:40.977Z</time></trkpt><trkpt lat="43.406795" lon="11.3546017"><ele>462.0</ele><time>2026-05-01T08:56:41.977Z</time></trkpt><trkpt lat="43.4066917" lon="11.354705"><ele>462.0</ele><time>2026-05-01T08:56:42.976Z</time></trkpt><trkpt lat="43.4066183" lon="11.35481"><ele>462.00000000000006</ele><time>2026-05-01T08:56:43.977Z</time></trkpt><trkpt lat="43.4065767" lon="11.3549233"><ele>462.00000000000006</ele><time>2026-05-01T08:56:44.977Z</time></trkpt><trkpt lat="43.4065633" lon="11.3550533"><ele>462.0</ele><time>2026-05-01T08:56:45.976Z</time></trkpt><trkpt lat="43.4065717" lon="11.35521"><ele>462.0</ele><time>2026-05-01T08:56:46.976Z</time></trkpt><trkpt lat="43.4065883" lon="11.35538"><ele>462.8</ele><time>2026-05-01T08:56:47.977Z</time></trkpt><trkpt lat="43.4066167" lon="11.355555"><ele>463.6</ele><time>2026-05-01T08:56:48.976Z</time></trkpt><trkpt lat="43.4066433" lon="11.355715"><ele>464.40000000000003</ele><time>2026-05-01T08:56:49.977Z</time></trkpt><trkpt lat="43.4066667" lon="11.3558433"><ele>465.20000000000005</ele><time>2026-05-01T08:56:50.977Z</time></trkpt><trkpt lat="43.4066817" lon="11.3559417"><ele>466.0</ele><time>2026-05-01T08:56:51.977Z</time></trkpt><trkpt lat="43.4066383" lon="11.35607"><ele>466.0</ele><time>2026-05-01T08:56:53.976Z</time></trkpt><trkpt lat="43.40654" lon="11.356065"><ele>466.0</ele><time>2026-05-01T08:56:55.977Z</time></trkpt><trkpt lat="43.40646" lon="11.3560117"><ele>466.0</ele><time>2026-05-01T08:56:56.976Z</time></trkpt><trkpt lat="43.406365" lon="11.3559267"><ele>466.0</ele><time>2026-05-01T08:56:57.977Z</time></trkpt><trkpt lat="43.406235" lon="11.3558267"><ele>466.0</ele><time>2026-05-01T08:56:58.977Z</time></trkpt><trkpt lat="43.4061017" lon="11.3557117"><ele>465.25</ele><time>2026-05-01T08:56:59.976Z</time></trkpt><trkpt lat="43.4059767" lon="11.355625"><ele>464.5</ele><time>2026-05-01T08:57:00.976Z</time></trkpt><trkpt lat="43.40585" lon="11.355545"><ele>463.75</ele><time>2026-05-01T08:57:01.977Z</time></trkpt><trkpt lat="43.405735" lon="11.35549"><ele>463.0</ele><time>2026-05-01T08:57:02.976Z</time></trkpt><trkpt lat="43.405625" lon="11.3554733"><ele>461.83333333333337</ele><time>2026-05-01T08:57:03.976Z</time></trkpt><trkpt lat="43.405535" lon="11.3554833"><ele>460.6666666666667</ele><time>2026-05-01T08:57:04.977Z</time></trkpt><trkpt lat="43.4054633" lon="11.355515"><ele>459.5</ele><time>2026-05-01T08:57:05.977Z</time></trkpt><trkpt lat="43.4054067" lon="11.3555617"><ele>458.33333333333337</ele><time>2026-05-01T08:57:06.976Z</time></trkpt><trkpt lat="43.4053583" lon="11.3557117"><ele>457.1666666666667</ele><time>2026-05-01T08:57:08.976Z</time></trkpt><trkpt lat="43.405335" lon="11.3558167"><ele>456.0</ele><time>2026-05-01T08:57:09.977Z</time></trkpt><trkpt lat="43.4053133" lon="11.35593"><ele>456.0</ele><time>2026-05-01T08:57:10.976Z</time></trkpt><trkpt lat="43.4052733" lon="11.3560183"><ele>456.0</ele><time>2026-05-01T08:57:11.976Z</time></trkpt><trkpt lat="43.405225" lon="11.3560767"><ele>456.0</ele><time>2026-05-01T08:57:12.977Z</time></trkpt><trkpt lat="43.4051617" lon="11.3560883"><ele>456.0</ele><time>2026-05-01T08:57:13.977Z</time></trkpt><trkpt lat="43.4051" lon="11.3560683"><ele>456.0</ele><time>2026-05-01T08:57:14.977Z</time></trkpt><trkpt lat="43.405025" lon="11.3560267"><ele>456.0</ele><time>2026-05-01T08:57:15.976Z</time></trkpt><trkpt lat="43.4049383" lon="11.3559483"><ele>456.0</ele><time>2026-05-01T08:57:16.976Z</time></trkpt><trkpt lat="43.4048167" lon="11.3558517"><ele>456.0</ele><time>2026-05-01T08:57:17.976Z</time></trkpt><trkpt lat="43.4047" lon="11.3557683"><ele>456.0</ele><time>2026-05-01T08:57:18.976Z</time></trkpt><trkpt lat="43.4045517" lon="11.3556883"><ele>456.0</ele><time>2026-05-01T08:57:19.976Z</time></trkpt><trkpt lat="43.4043967" lon="11.35563"><ele>455.0</ele><time>2026-05-01T08:57:20.976Z</time></trkpt><trkpt lat="43.4042467" lon="11.3555983"><ele>454.0</ele><time>2026-05-01T08:57:21.976Z</time></trkpt><trkpt lat="43.40414" lon="11.3556067"><ele>453.0</ele><time>2026-05-01T08:57:22.976Z</time></trkpt><trkpt lat="43.4040367" lon="11.35564"><ele>452.0</ele><time>2026-05-01T08:57:23.977Z</time></trkpt><trkpt lat="43.4039267" lon="11.355705"><ele>450.8</ele><time>2026-05-01T08:57:24.976Z</time></trkpt><trkpt lat="43.4038167" lon="11.355785"><ele>449.6</ele><time>2026-05-01T08:57:25.976Z</time></trkpt><trkpt lat="43.4037183" lon="11.3558717"><ele>448.40000000000003</ele><time>2026-05-01T08:57:26.976Z</time></trkpt><trkpt lat="43.4036367" lon="11.3559433"><ele>447.20000000000005</ele><time>2026-05-01T08:57:27.976Z</time></trkpt><trkpt lat="43.40358" lon="11.356025"><ele>446.0</ele><time>2026-05-01T08:57:28.976Z</time></trkpt><trkpt lat="43.40356" lon="11.3561183"><ele>446.0</ele><time>2026-05-01T08:57:29.977Z</time></trkpt><trkpt lat="43.4035667" lon="11.3562167"><ele>446.0</ele><time>2026-05-01T08:57:30.976Z</time></trkpt><trkpt lat="43.4036383" lon="11.35636"><ele>446.0</ele><time>2026-05-01T08:57:32.977Z</time></trkpt><trkpt lat="43.4037017" lon="11.3564333"><ele>446.0</ele><time>2026-05-01T08:57:33.976Z</time></trkpt><trkpt lat="43.4037717" lon="11.35654"><ele>446.0</ele><time>2026-05-01T08:57:34.977Z</time></trkpt><trkpt lat="43.4038217" lon="11.3566667"><ele>446.16666666666663</ele><time>2026-05-01T08:57:35.977Z</time></trkpt><trkpt lat="43.4038367" lon="11.3567917"><ele>446.3333333333333</ele><time>2026-05-01T08:57:36.977Z</time></trkpt><trkpt lat="43.4038183" lon="11.3569083"><ele>446.5</ele><time>2026-05-01T08:57:37.976Z</time></trkpt><trkpt lat="43.40378" lon="11.3570017"><ele>446.66666666666663</ele><time>2026-05-01T08:57:38.976Z</time></trkpt><trkpt lat="43.4037233" lon="11.3570617"><ele>446.8333333333333</ele><time>2026-05-01T08:57:39.977Z</time></trkpt><trkpt lat="43.403645" lon="11.3571"><ele>447.0</ele><time>2026-05-01T08:57:40.976Z</time></trkpt><trkpt lat="43.40354" lon="11.3571233"><ele>447.0</ele><time>2026-05-01T08:57:41.976Z</time></trkpt><trkpt lat="43.4034433" lon="11.3571317"><ele>447.0</ele><time>2026-05-01T08:57:42.976Z</time></trkpt><trkpt lat="43.4033033" lon="11.3571217"><ele>447.0</ele><time>2026-05-01T08:57:43.976Z</time></trkpt><trkpt lat="43.4031617" lon="11.3571217"><ele>447.0</ele><time>2026-05-01T08:57:44.976Z</time></trkpt><trkpt lat="43.40304" lon="11.3571583"><ele>446.0</ele><time>2026-05-01T08:57:45.977Z</time></trkpt><trkpt lat="43.40293" lon="11.35723"><ele>445.0</ele><time>2026-05-01T08:57:46.976Z</time></trkpt><trkpt lat="43.40284" lon="11.35733"><ele>444.0</ele><time>2026-05-01T08:57:47.976Z</time></trkpt><trkpt lat="43.4027767" lon="11.35745"><ele>443.0</ele><time>2026-05-01T08:57:48.977Z</time></trkpt><trkpt lat="43.40274" lon="11.3575867"><ele>443.0</ele><time>2026-05-01T08:57:49.976Z</time></trkpt><trkpt lat="43.4027333" lon="11.35772"><ele>443.0</ele><time>2026-05-01T08:57:50.977Z</time></trkpt><trkpt lat="43.4027433" lon="11.3578783"><ele>443.0</ele><time>2026-05-01T08:57:51.977Z</time></trkpt><trkpt lat="43.4027817" lon="11.3580633"><ele>443.0</ele><time>2026-05-01T08:57:52.976Z</time></trkpt><trkpt lat="43.40282" lon="11.3582633"><ele>442.75</ele><time>2026-05-01T08:57:53.976Z</time></trkpt><trkpt lat="43.4028583" lon="11.358445"><ele>442.5</ele><time>2026-05-01T08:57:54.976Z</time></trkpt><trkpt lat="43.4028933" lon="11.3586067"><ele>442.25</ele><time>2026-05-01T08:57:55.976Z</time></trkpt><trkpt lat="43.4029533" lon="11.3587367"><ele>442.0</ele><time>2026-05-01T08:57:56.976Z</time></trkpt><trkpt lat="43.40303" lon="11.3588383"><ele>442.6</ele><time>2026-05-01T08:57:57.976Z</time></trkpt><trkpt lat="43.4031117" lon="11.3589033"><ele>443.20000000000005</ele><time>2026-05-01T08:57:58.976Z</time></trkpt><trkpt lat="43.4032117" lon="11.358945"><ele>443.8</ele><time>2026-05-01T08:57:59.977Z</time></trkpt><trkpt lat="43.4033133" lon="11.3590117"><ele>444.4</ele><time>2026-05-01T08:58:00.977Z</time></trkpt><trkpt lat="43.4034167" lon="11.359105"><ele>445.0</ele><time>2026-05-01T08:58:01.976Z</time></trkpt><trkpt lat="43.4035" lon="11.3592083"><ele>445.0</ele><time>2026-05-01T08:58:02.976Z</time></trkpt><trkpt lat="43.4035467" lon="11.3593417"><ele>445.0</ele><time>2026-05-01T08:58:03.977Z</time></trkpt><trkpt lat="43.4035533" lon="11.3594933"><ele>445.0</ele><time>2026-05-01T08:58:04.977Z</time></trkpt><trkpt lat="43.403535" lon="11.3596567"><ele>445.0</ele><time>2026-05-01T08:58:05.976Z</time></trkpt><trkpt lat="43.4035033" lon="11.359825"><ele>443.5</ele><time>2026-05-01T08:58:06.977Z</time></trkpt><trkpt lat="43.4034783" lon="11.3599933"><ele>442.0</ele><time>2026-05-01T08:58:07.976Z</time></trkpt><trkpt lat="43.40348" lon="11.3601567"><ele>440.5</ele><time>2026-05-01T08:58:08.976Z</time></trkpt><trkpt lat="43.40349" lon="11.360305"><ele>439.0</ele><time>2026-05-01T08:58:09.977Z</time></trkpt><trkpt lat="43.4034983" lon="11.3604433"><ele>440.4</ele><time>2026-05-01T08:58:10.977Z</time></trkpt><trkpt lat="43.4034967" lon="11.3605717"><ele>441.79999999999995</ele><time>2026-05-01T08:58:11.976Z</time></trkpt><trkpt lat="43.4034667" lon="11.3606833"><ele>443.20000000000005</ele><time>2026-05-01T08:58:12.976Z</time></trkpt><trkpt lat="43.403415" lon="11.36077"><ele>444.6</ele><time>2026-05-01T08:58:13.977Z</time></trkpt><trkpt lat="43.4033367" lon="11.3608333"><ele>446.0</ele><time>2026-05-01T08:58:14.976Z</time></trkpt><trkpt lat="43.403235" lon="11.3608717"><ele>446.0</ele><time>2026-05-01T08:58:15.976Z</time></trkpt><trkpt lat="43.40311" lon="11.3608933"><ele>446.0</ele><time>2026-05-01T08:58:16.976Z</time></trkpt><trkpt lat="43.4029533" lon="11.3609167"><ele>446.0</ele><time>2026-05-01T08:58:17.976Z</time></trkpt><trkpt lat="43.4027917" lon="11.36091"><ele>446.0</ele><time>2026-05-01T08:58:18.976Z</time></trkpt><trkpt lat="43.4026517" lon="11.3608933"><ele>445.0</ele><time>2026-05-01T08:58:19.976Z</time></trkpt><trkpt lat="43.402545" lon="11.3608767"><ele>444.0</ele><time>2026-05-01T08:58:20.976Z</time></trkpt><trkpt lat="43.4024517" lon="11.36087"><ele>443.0</ele><time>2026-05-01T08:58:21.977Z</time></trkpt><trkpt lat="43.4023583" lon="11.3609"><ele>442.0</ele><time>2026-05-01T08:58:22.977Z</time></trkpt><trkpt lat="43.4022683" lon="11.3609433"><ele>441.0</ele><time>2026-05-01T08:58:23.976Z</time></trkpt><trkpt lat="43.4021733" lon="11.3610167"><ele>441.75</ele><time>2026-05-01T08:58:24.977Z</time></trkpt><trkpt lat="43.4020817" lon="11.3611167"><ele>442.5</ele><time>2026-05-01T08:58:25.976Z</time></trkpt><trkpt lat="43.4019733" lon="11.3612617"><ele>443.25</ele><time>2026-05-01T08:58:26.976Z</time></trkpt><trkpt lat="43.4018417" lon="11.36142"><ele>444.0</ele><time>2026-05-01T08:58:27.976Z</time></trkpt><trkpt lat="43.4017317" lon="11.361545"><ele>444.0</ele><time>2026-05-01T08:58:28.976Z</time></trkpt><trkpt lat="43.4016233" lon="11.3616483"><ele>444.0</ele><time>2026-05-01T08:58:29.976Z</time></trkpt><trkpt lat="43.401525" lon="11.3617383"><ele>444.0</ele><time>2026-05-01T08:58:30.976Z</time></trkpt><trkpt lat="43.40144" lon="11.3618417"><ele>444.0</ele><time>2026-05-01T08:58:31.976Z</time></trkpt><trkpt lat="43.401385" lon="11.3619267"><ele>444.0</ele><time>2026-05-01T08:58:32.976Z</time></trkpt><trkpt lat="43.4013367" lon="11.362025"><ele>445.0</ele><time>2026-05-01T08:58:33.976Z</time></trkpt><trkpt lat="43.4013133" lon="11.3621283"><ele>446.0</ele><time>2026-05-01T08:58:34.977Z</time></trkpt><trkpt lat="43.4013117" lon="11.3622517"><ele>447.0</ele><time>2026-05-01T08:58:35.976Z</time></trkpt><trkpt lat="43.4013183" lon="11.3623917"><ele>448.0</ele><time>2026-05-01T08:58:36.976Z</time></trkpt><trkpt lat="43.4013483" lon="11.362555"><ele>449.0</ele><time>2026-05-01T08:58:37.976Z</time></trkpt><trkpt lat="43.4013667" lon="11.362715"><ele>449.0</ele><time>2026-05-01T08:58:38.976Z</time></trkpt><trkpt lat="43.4013717" lon="11.3628667"><ele>449.0</ele><time>2026-05-01T08:58:39.977Z</time></trkpt><trkpt lat="43.401345" lon="11.3629833"><ele>449.0</ele><time>2026-05-01T08:58:40.977Z</time></trkpt><trkpt lat="43.4013" lon="11.3630817"><ele>449.0</ele><time>2026-05-01T08:58:41.976Z</time></trkpt><trkpt lat="43.4012217" lon="11.363155"><ele>449.0</ele><time>2026-05-01T08:58:42.976Z</time></trkpt><trkpt lat="43.4011283" lon="11.3632017"><ele>447.2</ele><time>2026-05-01T08:58:43.976Z</time></trkpt><trkpt lat="43.4010383" lon="11.3632483"><ele>445.4</ele><time>2026-05-01T08:58:44.976Z</time></trkpt><trkpt lat="43.40095" lon="11.3633217"><ele>443.6</ele><time>2026-05-01T08:58:45.976Z</time></trkpt><trkpt lat="43.40087" lon="11.3634167"><ele>441.8</ele><time>2026-05-01T08:58:46.976Z</time></trkpt><trkpt lat="43.4008117" lon="11.36355"><ele>440.0</ele><time>2026-05-01T08:58:47.976Z</time></trkpt><trkpt lat="43.4007717" lon="11.3637"><ele>440.0</ele><time>2026-05-01T08:58:48.976Z</time></trkpt><trkpt lat="43.4007533" lon="11.3638367"><ele>440.0</ele><time>2026-05-01T08:58:49.976Z</time></trkpt><trkpt lat="43.4007517" lon="11.363965"><ele>440.0</ele><time>2026-05-01T08:58:50.977Z</time></trkpt><trkpt lat="43.4007733" lon="11.3640967"><ele>440.0</ele><time>2026-05-01T08:58:51.976Z</time></trkpt><trkpt lat="43.400815" lon="11.3642267"><ele>440.0</ele><time>2026-05-01T08:58:52.977Z</time></trkpt><trkpt lat="43.400875" lon="11.36438"><ele>440.0</ele><time>2026-05-01T08:58:53.976Z</time></trkpt><trkpt lat="43.400945" lon="11.3645467"><ele>440.0</ele><time>2026-05-01T08:58:54.976Z</time></trkpt><trkpt lat="43.4010133" lon="11.3647217"><ele>440.0</ele><time>2026-05-01T08:58:55.976Z</time></trkpt><trkpt lat="43.4010567" lon="11.3649017"><ele>440.0</ele><time>2026-05-01T08:58:56.976Z</time></trkpt><trkpt lat="43.4010733" lon="11.365065"><ele>440.0</ele><time>2026-05-01T08:58:57.977Z</time></trkpt><trkpt lat="43.4010767" lon="11.365215"><ele>440.0</ele><time>2026-05-01T08:58:58.976Z</time></trkpt><trkpt lat="43.4010933" lon="11.3653417"><ele>440.0</ele><time>2026-05-01T08:58:59.976Z</time></trkpt><trkpt lat="43.401115" lon="11.3654567"><ele>440.0</ele><time>2026-05-01T08:59:00.977Z</time></trkpt><trkpt lat="43.4011283" lon="11.3655433"><ele>440.0</ele><time>2026-05-01T08:59:01.976Z</time></trkpt><trkpt lat="43.40115" lon="11.365675"><ele>440.2</ele><time>2026-05-01T08:59:03.977Z</time></trkpt><trkpt lat="43.4011683" lon="11.36584"><ele>440.4</ele><time>2026-05-01T08:59:24.976Z</time></trkpt><trkpt lat="43.4011933" lon="11.3659883"><ele>440.6</ele><time>2026-05-01T08:59:26.976Z</time></trkpt><trkpt lat="43.40121" lon="11.3660983"><ele>440.8</ele><time>2026-05-01T08:59:27.976Z</time></trkpt><trkpt lat="43.40123" lon="11.3662183"><ele>441.0</ele><time>2026-05-01T08:59:28.976Z</time></trkpt><trkpt lat="43.4012583" lon="11.3663533"><ele>440.25</ele><time>2026-05-01T08:59:29.976Z</time></trkpt><trkpt lat="43.4013033" lon="11.3665017"><ele>439.5</ele><time>2026-05-01T08:59:30.976Z</time></trkpt><trkpt lat="43.4013617" lon="11.3666783"><ele>438.75</ele><time>2026-05-01T08:59:31.977Z</time></trkpt><trkpt lat="43.4014367" lon="11.3668583"><ele>438.0</ele><time>2026-05-01T08:59:32.977Z</time></trkpt><trkpt lat="43.401505" lon="11.367035"><ele>437.0</ele><time>2026-05-01T08:59:33.976Z</time></trkpt><trkpt lat="43.40155" lon="11.36721"><ele>436.0</ele><time>2026-05-01T08:59:34.977Z</time></trkpt><trkpt lat="43.40158" lon="11.36741"><ele>435.0</ele><time>2026-05-01T08:59:35.976Z</time></trkpt><trkpt lat="43.401605" lon="11.3676217"><ele>434.0</ele><time>2026-05-01T08:59:36.977Z</time></trkpt><trkpt lat="43.4016183" lon="11.3678683"><ele>433.3333333333333</ele><time>2026-05-01T08:59:37.977Z</time></trkpt><trkpt lat="43.401645" lon="11.3681283"><ele>432.66666666666663</ele><time>2026-05-01T08:59:38.976Z</time></trkpt><trkpt lat="43.40167" lon="11.3683867"><ele>432.0</ele><time>2026-05-01T08:59:39.976Z</time></trkpt><trkpt lat="43.4016867" lon="11.3686317"><ele>432.0</ele><time>2026-05-01T08:59:40.977Z</time></trkpt><trkpt lat="43.4017033" lon="11.3688483"><ele>432.0</ele><time>2026-05-01T08:59:41.976Z</time></trkpt><trkpt lat="43.4017" lon="11.369065"><ele>432.0</ele><time>2026-05-01T08:59:42.977Z</time></trkpt><trkpt lat="43.4016717" lon="11.3693"><ele>431.33333333333337</ele><time>2026-05-01T08:59:43.976Z</time></trkpt><trkpt lat="43.4016267" lon="11.3695533"><ele>430.6666666666667</ele><time>2026-05-01T08:59:44.977Z</time></trkpt><trkpt lat="43.4015667" lon="11.3698233"><ele>430.0</ele><time>2026-05-01T08:59:45.977Z</time></trkpt><trkpt lat="43.4015033" lon="11.3700717"><ele>430.0</ele><time>2026-05-01T08:59:46.976Z</time></trkpt><trkpt lat="43.4014333" lon="11.3702917"><ele>430.0</ele><time>2026-05-01T08:59:47.976Z</time></trkpt><trkpt lat="43.4013717" lon="11.3704833"><ele>430.0</ele><time>2026-05-01T08:59:48.976Z</time></trkpt><trkpt lat="43.401325" lon="11.3706833"><ele>430.0</ele><time>2026-05-01T08:59:49.977Z</time></trkpt><trkpt lat="43.4012833" lon="11.3708817"><ele>430.0</ele><time>2026-05-01T08:59:50.976Z</time></trkpt><trkpt lat="43.4012783" lon="11.371105"><ele>430.0</ele><time>2026-05-01T08:59:51.976Z</time></trkpt><trkpt lat="43.4012717" lon="11.37135"><ele>431.33333333333337</ele><time>2026-05-01T08:59:52.976Z</time></trkpt><trkpt lat="43.4012783" lon="11.3715917"><ele>432.66666666666663</ele><time>2026-05-01T08:59:53.976Z</time></trkpt><trkpt lat="43.4012783" lon="11.37181"><ele>434.0</ele><time>2026-05-01T08:59:54.977Z</time></trkpt><trkpt lat="43.40128" lon="11.3720283"><ele>434.5</ele><time>2026-05-01T08:59:55.976Z</time></trkpt><trkpt lat="43.40128" lon="11.3722317"><ele>435.0</ele><time>2026-05-01T08:59:56.977Z</time></trkpt><trkpt lat="43.401265" lon="11.3724"><ele>435.5</ele><time>2026-05-01T08:59:57.977Z</time></trkpt><trkpt lat="43.4012317" lon="11.372565"><ele>436.0</ele><time>2026-05-01T08:59:58.976Z</time></trkpt><trkpt lat="43.4011767" lon="11.3727083"><ele>436.0</ele><time>2026-05-01T08:59:59.977Z</time></trkpt><trkpt lat="43.4010983" lon="11.372835"><ele>436.0</ele><time>2026-05-01T09:00:00.977Z</time></trkpt><trkpt lat="43.4009867" lon="11.3729717"><ele>436.0</ele><time>2026-05-01T09:00:01.976Z</time></trkpt><trkpt lat="43.4008667" lon="11.373105"><ele>436.0</ele><time>2026-05-01T09:00:02.976Z</time></trkpt><trkpt lat="43.4007717" lon="11.3732367"><ele>436.0</ele><time>2026-05-01T09:00:03.976Z</time></trkpt><trkpt lat="43.4007017" lon="11.3733867"><ele>436.0</ele><time>2026-05-01T09:00:04.976Z</time></trkpt><trkpt lat="43.4006533" lon="11.3735483"><ele>436.0</ele><time>2026-05-01T09:00:05.976Z</time></trkpt><trkpt lat="43.4006067" lon="11.3737467"><ele>436.0</ele><time>2026-05-01T09:00:06.976Z</time></trkpt><trkpt lat="43.4005733" lon="11.3739383"><ele>436.0</ele><time>2026-05-01T09:00:07.976Z</time></trkpt><trkpt lat="43.4005217" lon="11.37411"><ele>436.0</ele><time>2026-05-01T09:00:08.977Z</time></trkpt><trkpt lat="43.40045" lon="11.3742733"><ele>436.0</ele><time>2026-05-01T09:00:09.976Z</time></trkpt><trkpt lat="43.4003717" lon="11.374435"><ele>436.0</ele><time>2026-05-01T09:00:10.976Z</time></trkpt><trkpt lat="43.4002883" lon="11.3745717"><ele>436.0</ele><time>2026-05-01T09:00:11.976Z</time></trkpt><trkpt lat="43.4002017" lon="11.3747083"><ele>436.0</ele><time>2026-05-01T09:00:12.976Z</time></trkpt><trkpt lat="43.4001167" lon="11.3748367"><ele>436.0</ele><time>2026-05-01T09:00:13.976Z</time></trkpt><trkpt lat="43.40004" lon="11.3749667"><ele>436.0</ele><time>2026-05-01T09:00:14.976Z</time></trkpt><trkpt lat="43.3999633" lon="11.37508"><ele>436.0</ele><time>2026-05-01T09:00:15.976Z</time></trkpt><trkpt lat="43.399895" lon="11.3752067"><ele>436.0</ele><time>2026-05-01T09:00:16.977Z</time></trkpt><trkpt lat="43.3998217" lon="11.3753333"><ele>436.0</ele><time>2026-05-01T09:00:17.976Z</time></trkpt><trkpt lat="43.399755" lon="11.3754633"><ele>436.0</ele><time>2026-05-01T09:00:18.977Z</time></trkpt><trkpt lat="43.39969" lon="11.3755933"><ele>434.4</ele><time>2026-05-01T09:00:19.977Z</time></trkpt><trkpt lat="43.3996233" lon="11.3757067"><ele>432.8</ele><time>2026-05-01T09:00:20.977Z</time></trkpt><trkpt lat="43.399535" lon="11.3758167"><ele>431.19999999999993</ele><time>2026-05-01T09:00:21.977Z</time></trkpt><trkpt lat="43.39944" lon="11.3759"><ele>429.59999999999997</ele><time>2026-05-01T09:00:22.977Z</time></trkpt><trkpt lat="43.39934" lon="11.375955"><ele>428.0</ele><time>2026-05-01T09:00:23.976Z</time></trkpt><trkpt lat="43.3992283" lon="11.37599"><ele>428.0</ele><time>2026-05-01T09:00:24.976Z</time></trkpt><trkpt lat="43.399115" lon="11.3760217"><ele>428.0</ele><time>2026-05-01T09:00:25.977Z</time></trkpt><trkpt lat="43.3989983" lon="11.3760567"><ele>428.0</ele><time>2026-05-01T09:00:26.977Z</time></trkpt><trkpt lat="43.3988867" lon="11.376105"><ele>428.0</ele><time>2026-05-01T09:00:27.976Z</time></trkpt><trkpt lat="43.39878" lon="11.3761583"><ele>426.75</ele><time>2026-05-01T09:00:28.976Z</time></trkpt><trkpt lat="43.3986733" lon="11.3762233"><ele>425.5</ele><time>2026-05-01T09:00:29.976Z</time></trkpt><trkpt lat="43.3985633" lon="11.376295"><ele>424.25</ele><time>2026-05-01T09:00:30.976Z</time></trkpt><trkpt lat="43.39846" lon="11.37638"><ele>423.0</ele><time>2026-05-01T09:00:31.977Z</time></trkpt><trkpt lat="43.3983517" lon="11.376475"><ele>422.33333333333337</ele><time>2026-05-01T09:00:32.976Z</time></trkpt><trkpt lat="43.39825" lon="11.3765933"><ele>421.6666666666667</ele><time>2026-05-01T09:00:33.977Z</time></trkpt><trkpt lat="43.39813" lon="11.3767333"><ele>421.0</ele><time>2026-05-01T09:00:34.977Z</time></trkpt><trkpt lat="43.3979967" lon="11.37691"><ele>420.33333333333337</ele><time>2026-05-01T09:00:35.976Z</time></trkpt><trkpt lat="43.3978633" lon="11.3771017"><ele>419.66666666666663</ele><time>2026-05-01T09:00:36.976Z</time></trkpt><trkpt lat="43.3977133" lon="11.37733"><ele>419.0</ele><time>2026-05-01T09:00:37.976Z</time></trkpt><trkpt lat="43.3975717" lon="11.37754"><ele>419.0</ele><time>2026-05-01T09:00:38.976Z</time></trkpt><trkpt lat="43.397445" lon="11.3777383"><ele>419.0</ele><time>2026-05-01T09:00:39.976Z</time></trkpt><trkpt lat="43.39733" lon="11.377925"><ele>419.0</ele><time>2026-05-01T09:00:40.976Z</time></trkpt><trkpt lat="43.39723" lon="11.378095"><ele>418.75</ele><time>2026-05-01T09:00:41.976Z</time></trkpt><trkpt lat="43.39714" lon="11.37826"><ele>418.5</ele><time>2026-05-01T09:00:42.976Z</time></trkpt><trkpt lat="43.397045" lon="11.378415"><ele>418.25</ele><time>2026-05-01T09:00:43.977Z</time></trkpt><trkpt lat="43.3969583" lon="11.3785733"><ele>418.0</ele><time>2026-05-01T09:00:44.976Z</time></trkpt><trkpt lat="43.39688" lon="11.378765"><ele>416.6666666666667</ele><time>2026-05-01T09:00:45.976Z</time></trkpt><trkpt lat="43.3967933" lon="11.3789683"><ele>415.33333333333337</ele><time>2026-05-01T09:00:46.976Z</time></trkpt><trkpt lat="43.39675" lon="11.37925"><ele>414.0</ele><time>2026-05-01T09:00:47.976Z</time></trkpt><trkpt lat="43.3966933" lon="11.3795633"><ele>412.33333333333337</ele><time>2026-05-01T09:00:48.976Z</time></trkpt><trkpt lat="43.3966467" lon="11.3798667"><ele>410.6666666666667</ele><time>2026-05-01T09:00:49.976Z</time></trkpt><trkpt lat="43.3966" lon="11.3801267"><ele>409.0</ele><time>2026-05-01T09:00:50.976Z</time></trkpt><trkpt lat="43.3965533" lon="11.3803383"><ele>409.0</ele><time>2026-05-01T09:00:51.976Z</time></trkpt><trkpt lat="43.3965033" lon="11.3805133"><ele>409.0</ele><time>2026-05-01T09:00:52.975Z</time></trkpt><trkpt lat="43.3964383" lon="11.3806583"><ele>409.0</ele><time>2026-05-01T09:00:53.975Z</time></trkpt><trkpt lat="43.39636" lon="11.3807767"><ele>409.0</ele><time>2026-05-01T09:00:54.975Z</time></trkpt><trkpt lat="43.3962833" lon="11.3808617"><ele>409.50000000000006</ele><time>2026-05-01T09:00:55.976Z</time></trkpt><trkpt lat="43.3962067" lon="11.3809383"><ele>410.0</ele><time>2026-05-01T09:00:56.976Z</time></trkpt><trkpt lat="43.3961317" lon="11.38099"><ele>410.5</ele><time>2026-05-01T09:00:57.975Z</time></trkpt><trkpt lat="43.3960583" lon="11.3810283"><ele>411.0</ele><time>2026-05-01T09:00:58.976Z</time></trkpt><trkpt lat="43.3959933" lon="11.3810567"><ele>411.50000000000006</ele><time>2026-05-01T09:00:59.975Z</time></trkpt><trkpt lat="43.395915" lon="11.3810667"><ele>412.0</ele><time>2026-05-01T09:01:00.975Z</time></trkpt><trkpt lat="43.3958267" lon="11.3810567"><ele>412.0</ele><time>2026-05-01T09:01:01.975Z</time></trkpt><trkpt lat="43.39572" lon="11.3810467"><ele>412.0</ele><time>2026-05-01T09:01:02.976Z</time></trkpt><trkpt lat="43.3956" lon="11.381035"><ele>412.0</ele><time>2026-05-01T09:01:03.976Z</time></trkpt><trkpt lat="43.39547" lon="11.38101"><ele>412.0</ele><time>2026-05-01T09:01:04.976Z</time></trkpt><trkpt lat="43.3953483" lon="11.3809883"><ele>413.0</ele><time>2026-05-01T09:01:05.976Z</time></trkpt><trkpt lat="43.3952183" lon="11.38097"><ele>414.0</ele><time>2026-05-01T09:01:06.976Z</time></trkpt><trkpt lat="43.3950883" lon="11.38097"><ele>415.0</ele><time>2026-05-01T09:01:07.975Z</time></trkpt><trkpt lat="43.39495" lon="11.3809733"><ele>416.0</ele><time>2026-05-01T09:01:08.976Z</time></trkpt><trkpt lat="43.3948067" lon="11.3809783"><ele>415.75</ele><time>2026-05-01T09:01:09.975Z</time></trkpt><trkpt lat="43.3946667" lon="11.3809933"><ele>415.5</ele><time>2026-05-01T09:01:10.976Z</time></trkpt><trkpt lat="43.3945233" lon="11.3810217"><ele>415.25</ele><time>2026-05-01T09:01:11.975Z</time></trkpt><trkpt lat="43.3943767" lon="11.38107"><ele>415.0</ele><time>2026-05-01T09:01:12.976Z</time></trkpt><trkpt lat="43.3942267" lon="11.38113"><ele>415.0</ele><time>2026-05-01T09:01:13.976Z</time></trkpt><trkpt lat="43.3940833" lon="11.3811917"><ele>415.0</ele><time>2026-05-01T09:01:14.975Z</time></trkpt><trkpt lat="43.3939433" lon="11.381255"><ele>415.0</ele><time>2026-05-01T09:01:15.976Z</time></trkpt><trkpt lat="43.3938033" lon="11.3813433"><ele>416.5</ele><time>2026-05-01T09:01:16.976Z</time></trkpt><trkpt lat="43.3936733" lon="11.3814267"><ele>418.0</ele><time>2026-05-01T09:01:17.975Z</time></trkpt><trkpt lat="43.3935417" lon="11.381515"><ele>419.5</ele><time>2026-05-01T09:01:18.975Z</time></trkpt><trkpt lat="43.3934167" lon="11.3816033"><ele>421.0</ele><time>2026-05-01T09:01:19.975Z</time></trkpt><trkpt lat="43.3932783" lon="11.38171"><ele>421.0</ele><time>2026-05-01T09:01:20.976Z</time></trkpt><trkpt lat="43.393155" lon="11.3818167"><ele>421.0</ele><time>2026-05-01T09:01:21.976Z</time></trkpt><trkpt lat="43.3930217" lon="11.381925"><ele>421.0</ele><time>2026-05-01T09:01:22.975Z</time></trkpt><trkpt lat="43.3928967" lon="11.382035"><ele>421.0</ele><time>2026-05-01T09:01:23.976Z</time></trkpt><trkpt lat="43.3927833" lon="11.3821383"><ele>422.0</ele><time>2026-05-01T09:01:24.976Z</time></trkpt><trkpt lat="43.392675" lon="11.3822317"><ele>423.0</ele><time>2026-05-01T09:01:25.975Z</time></trkpt><trkpt lat="43.392555" lon="11.3823283"><ele>424.0</ele><time>2026-05-01T09:01:26.975Z</time></trkpt><trkpt lat="43.3924383" lon="11.38243"><ele>425.0</ele><time>2026-05-01T09:01:27.975Z</time></trkpt><trkpt lat="43.3923233" lon="11.38254"><ele>425.0</ele><time>2026-05-01T09:01:28.975Z</time></trkpt><trkpt lat="43.3922167" lon="11.3826717"><ele>425.0</ele><time>2026-05-01T09:01:29.975Z</time></trkpt><trkpt lat="43.3921317" lon="11.3828217"><ele>425.0</ele><time>2026-05-01T09:01:30.976Z</time></trkpt><trkpt lat="43.39208" lon="11.38299"><ele>425.0</ele><time>2026-05-01T09:01:31.975Z</time></trkpt><trkpt lat="43.392025" lon="11.3831833"><ele>425.3333333333333</ele><time>2026-05-01T09:01:32.975Z</time></trkpt><trkpt lat="43.3919783" lon="11.3833917"><ele>425.66666666666663</ele><time>2026-05-01T09:01:33.975Z</time></trkpt><trkpt lat="43.39195" lon="11.3835933"><ele>426.0</ele><time>2026-05-01T09:01:34.976Z</time></trkpt><trkpt lat="43.3919167" lon="11.3837833"><ele>425.75</ele><time>2026-05-01T09:01:35.975Z</time></trkpt><trkpt lat="43.3918617" lon="11.3839583"><ele>425.5</ele><time>2026-05-01T09:01:36.975Z</time></trkpt><trkpt lat="43.3917933" lon="11.384105"><ele>425.25</ele><time>2026-05-01T09:01:37.976Z</time></trkpt><trkpt lat="43.3917017" lon="11.3842233"><ele>425.0</ele><time>2026-05-01T09:01:38.976Z</time></trkpt><trkpt lat="43.39159" lon="11.3843367"><ele>425.0</ele><time>2026-05-01T09:01:39.975Z</time></trkpt><trkpt lat="43.391445" lon="11.3844633"><ele>425.0</ele><time>2026-05-01T09:01:40.976Z</time></trkpt><trkpt lat="43.3912967" lon="11.3845967"><ele>425.0</ele><time>2026-05-01T09:01:41.975Z</time></trkpt><trkpt lat="43.3911467" lon="11.3847317"><ele>424.66666666666663</ele><time>2026-05-01T09:01:42.976Z</time></trkpt><trkpt lat="43.391005" lon="11.3848583"><ele>424.33333333333337</ele><time>2026-05-01T09:01:43.976Z</time></trkpt><trkpt lat="43.3908667" lon="11.3849767"><ele>424.0</ele><time>2026-05-01T09:01:44.975Z</time></trkpt><trkpt lat="43.3907283" lon="11.3850817"><ele>424.0</ele><time>2026-05-01T09:01:45.975Z</time></trkpt><trkpt lat="43.39059" lon="11.3851967"><ele>424.0</ele><time>2026-05-01T09:01:46.975Z</time></trkpt><trkpt lat="43.3904583" lon="11.3853033"><ele>424.0</ele><time>2026-05-01T09:01:47.976Z</time></trkpt><trkpt lat="43.3903183" lon="11.38539"><ele>423.75</ele><time>2026-05-01T09:01:48.975Z</time></trkpt><trkpt lat="43.39019" lon="11.3854717"><ele>423.5</ele><time>2026-05-01T09:01:49.975Z</time></trkpt><trkpt lat="43.390055" lon="11.3855633"><ele>423.25</ele><time>2026-05-01T09:01:50.975Z</time></trkpt><trkpt lat="43.389945" lon="11.3856317"><ele>423.0</ele><time>2026-05-01T09:01:51.975Z</time></trkpt><trkpt lat="43.389865" lon="11.385685"><ele>422.8333333333333</ele><time>2026-05-01T09:01:52.975Z</time></trkpt><trkpt lat="43.38981" lon="11.385735"><ele>422.66666666666663</ele><time>2026-05-01T09:01:53.976Z</time></trkpt><trkpt lat="43.38977" lon="11.3858167"><ele>422.5</ele><time>2026-05-01T09:01:54.975Z</time></trkpt><trkpt lat="43.3897367" lon="11.3859183"><ele>422.3333333333333</ele><time>2026-05-01T09:01:55.975Z</time></trkpt><trkpt lat="43.3897117" lon="11.3860417"><ele>422.16666666666663</ele><time>2026-05-01T09:01:56.975Z</time></trkpt><trkpt lat="43.38967" lon="11.3861783"><ele>422.0</ele><time>2026-05-01T09:01:57.975Z</time></trkpt><trkpt lat="43.3896333" lon="11.38631"><ele>422.6</ele><time>2026-05-01T09:01:58.975Z</time></trkpt><trkpt lat="43.3896017" lon="11.3864267"><ele>423.20000000000005</ele><time>2026-05-01T09:01:59.975Z</time></trkpt><trkpt lat="43.38956" lon="11.3865417"><ele>423.8</ele><time>2026-05-01T09:02:00.975Z</time></trkpt><trkpt lat="43.389515" lon="11.3866483"><ele>424.4</ele><time>2026-05-01T09:02:01.975Z</time></trkpt><trkpt lat="43.3894617" lon="11.3867533"><ele>425.0</ele><time>2026-05-01T09:02:02.976Z</time></trkpt><trkpt lat="43.3893917" lon="11.386875"><ele>425.0</ele><time>2026-05-01T09:02:03.976Z</time></trkpt><trkpt lat="43.3893117" lon="11.3870267"><ele>425.0</ele><time>2026-05-01T09:02:04.975Z</time></trkpt><trkpt lat="43.38923" lon="11.3871933"><ele>425.0</ele><time>2026-05-01T09:02:05.975Z</time></trkpt><trkpt lat="43.389155" lon="11.3873883"><ele>425.0</ele><time>2026-05-01T09:02:06.975Z</time></trkpt><trkpt lat="43.38907" lon="11.3876083"><ele>424.0</ele><time>2026-05-01T09:02:07.975Z</time></trkpt><trkpt lat="43.38898" lon="11.3878367"><ele>423.0</ele><time>2026-05-01T09:02:08.975Z</time></trkpt><trkpt lat="43.388885" lon="11.3880633"><ele>422.0</ele><time>2026-05-01T09:02:09.976Z</time></trkpt><trkpt lat="43.3887867" lon="11.38828"><ele>423.66666666666663</ele><time>2026-05-01T09:02:10.976Z</time></trkpt><trkpt lat="43.3886833" lon="11.3885033"><ele>425.33333333333337</ele><time>2026-05-01T09:02:11.975Z</time></trkpt><trkpt lat="43.38859" lon="11.388725"><ele>427.0</ele><time>2026-05-01T09:02:12.975Z</time></trkpt><trkpt lat="43.388485" lon="11.388945"><ele>427.0</ele><time>2026-05-01T09:02:13.975Z</time></trkpt><trkpt lat="43.38839" lon="11.38916"><ele>427.0</ele><time>2026-05-01T09:02:14.976Z</time></trkpt><trkpt lat="43.3883" lon="11.3893767"><ele>427.0</ele><time>2026-05-01T09:02:15.975Z</time></trkpt><trkpt lat="43.38822" lon="11.3895933"><ele>427.33333333333337</ele><time>2026-05-01T09:02:16.976Z</time></trkpt><trkpt lat="43.3881567" lon="11.389815"><ele>427.66666666666663</ele><time>2026-05-01T09:02:17.975Z</time></trkpt><trkpt lat="43.3881117" lon="11.390025"><ele>428.0</ele><time>2026-05-01T09:02:18.975Z</time></trkpt><trkpt lat="43.3880783" lon="11.3902117"><ele>428.0</ele><time>2026-05-01T09:02:19.975Z</time></trkpt><trkpt lat="43.38805" lon="11.390365"><ele>428.0</ele><time>2026-05-01T09:02:20.975Z</time></trkpt><trkpt lat="43.3879967" lon="11.3905117"><ele>428.0</ele><time>2026-05-01T09:02:21.976Z</time></trkpt><trkpt lat="43.3879283" lon="11.3906483"><ele>428.0</ele><time>2026-05-01T09:02:22.975Z</time></trkpt><trkpt lat="43.3878267" lon="11.3908067"><ele>430.66666666666663</ele><time>2026-05-01T09:02:23.975Z</time></trkpt><trkpt lat="43.3877033" lon="11.3909783"><ele>433.33333333333337</ele><time>2026-05-01T09:02:24.976Z</time></trkpt><trkpt lat="43.38758" lon="11.3911617"><ele>436.0</ele><time>2026-05-01T09:02:25.975Z</time></trkpt><trkpt lat="43.3874617" lon="11.3913283"><ele>435.33333333333337</ele><time>2026-05-01T09:02:26.975Z</time></trkpt><trkpt lat="43.3873417" lon="11.3915083"><ele>434.66666666666663</ele><time>2026-05-01T09:02:27.976Z</time></trkpt><trkpt lat="43.3872267" lon="11.3916867"><ele>434.0</ele><time>2026-05-01T09:02:28.975Z</time></trkpt><trkpt lat="43.387115" lon="11.39186"><ele>433.0</ele><time>2026-05-01T09:02:29.975Z</time></trkpt><trkpt lat="43.3870033" lon="11.39203"><ele>432.0</ele><time>2026-05-01T09:02:30.976Z</time></trkpt><trkpt lat="43.3868933" lon="11.39218"><ele>431.0</ele><time>2026-05-01T09:02:31.976Z</time></trkpt><trkpt lat="43.3867567" lon="11.39233"><ele>431.0</ele><time>2026-05-01T09:02:32.975Z</time></trkpt><trkpt lat="43.386615" lon="11.3924583"><ele>431.0</ele><time>2026-05-01T09:02:33.975Z</time></trkpt><trkpt lat="43.3864783" lon="11.3925833"><ele>431.0</ele><time>2026-05-01T09:02:34.975Z</time></trkpt><trkpt lat="43.3863383" lon="11.3927233"><ele>430.0</ele><time>2026-05-01T09:02:35.975Z</time></trkpt><trkpt lat="43.3862033" lon="11.3929033"><ele>429.0</ele><time>2026-05-01T09:02:36.975Z</time></trkpt><trkpt lat="43.3860633" lon="11.3931217"><ele>428.0</ele><time>2026-05-01T09:02:37.976Z</time></trkpt><trkpt lat="43.385905" lon="11.3933667"><ele>428.0</ele><time>2026-05-01T09:02:38.975Z</time></trkpt><trkpt lat="43.38573" lon="11.393615"><ele>428.0</ele><time>2026-05-01T09:02:39.975Z</time></trkpt><trkpt lat="43.385545" lon="11.3938583"><ele>427.0</ele><time>2026-05-01T09:02:40.975Z</time></trkpt><trkpt lat="43.3853917" lon="11.3940883"><ele>426.0</ele><time>2026-05-01T09:02:41.975Z</time></trkpt><trkpt lat="43.3852467" lon="11.3943033"><ele>425.0</ele><time>2026-05-01T09:02:42.975Z</time></trkpt><trkpt lat="43.385115" lon="11.3944967"><ele>424.3333333333333</ele><time>2026-05-01T09:02:43.975Z</time></trkpt><trkpt lat="43.3849817" lon="11.3947"><ele>423.66666666666663</ele><time>2026-05-01T09:02:44.975Z</time></trkpt><trkpt lat="43.3848617" lon="11.3948883"><ele>423.0</ele><time>2026-05-01T09:02:45.976Z</time></trkpt><trkpt lat="43.384755" lon="11.3950483"><ele>421.25</ele><time>2026-05-01T09:02:46.975Z</time></trkpt><trkpt lat="43.3846467" lon="11.3951817"><ele>419.5</ele><time>2026-05-01T09:02:47.975Z</time></trkpt><trkpt lat="43.3845283" lon="11.3952883"><ele>417.75</ele><time>2026-05-01T09:02:48.975Z</time></trkpt><trkpt lat="43.3844067" lon="11.395365"><ele>416.0</ele><time>2026-05-01T09:02:49.975Z</time></trkpt><trkpt lat="43.38428" lon="11.3954233"><ele>416.0</ele><time>2026-05-01T09:02:50.976Z</time></trkpt><trkpt lat="43.3841517" lon="11.3954617"><ele>416.0</ele><time>2026-05-01T09:02:51.975Z</time></trkpt><trkpt lat="43.3840183" lon="11.39551"><ele>416.0</ele><time>2026-05-01T09:02:52.976Z</time></trkpt><trkpt lat="43.3838833" lon="11.395565"><ele>416.0</ele><time>2026-05-01T09:02:53.976Z</time></trkpt><trkpt lat="43.3837467" lon="11.3956217"><ele>416.5</ele><time>2026-05-01T09:02:54.976Z</time></trkpt><trkpt lat="43.3836133" lon="11.3956683"><ele>417.0</ele><time>2026-05-01T09:02:55.976Z</time></trkpt><trkpt lat="43.3834833" lon="11.395715"><ele>417.5</ele><time>2026-05-01T09:02:56.975Z</time></trkpt><trkpt lat="43.3833583" lon="11.3957617"><ele>418.0</ele><time>2026-05-01T09:02:57.975Z</time></trkpt><trkpt lat="43.3832333" lon="11.3958083"><ele>418.0</ele><time>2026-05-01T09:02:58.975Z</time></trkpt><trkpt lat="43.3831083" lon="11.39586"><ele>418.0</ele><time>2026-05-01T09:02:59.976Z</time></trkpt><trkpt lat="43.3829817" lon="11.395915"><ele>418.0</ele><time>2026-05-01T09:03:00.976Z</time></trkpt><trkpt lat="43.3828633" lon="11.3959583"><ele>418.0</ele><time>2026-05-01T09:03:01.975Z</time></trkpt><trkpt lat="43.3827517" lon="11.3959967"><ele>417.0</ele><time>2026-05-01T09:03:02.975Z</time></trkpt><trkpt lat="43.3826267" lon="11.39604"><ele>416.0</ele><time>2026-05-01T09:03:03.975Z</time></trkpt><trkpt lat="43.3824983" lon="11.3960733"><ele>415.0</ele><time>2026-05-01T09:03:04.975Z</time></trkpt><trkpt lat="43.3823533" lon="11.3961133"><ele>414.0</ele><time>2026-05-01T09:03:05.976Z</time></trkpt><trkpt lat="43.3821817" lon="11.3961483"><ele>412.66666666666663</ele><time>2026-05-01T09:03:06.975Z</time></trkpt><trkpt lat="43.381985" lon="11.39619"><ele>411.3333333333333</ele><time>2026-05-01T09:03:07.975Z</time></trkpt><trkpt lat="43.3817783" lon="11.3962183"><ele>410.0</ele><time>2026-05-01T09:03:08.975Z</time></trkpt><trkpt lat="43.381555" lon="11.3962517"><ele>409.3333333333333</ele><time>2026-05-01T09:03:09.976Z</time></trkpt><trkpt lat="43.38134" lon="11.396265"><ele>408.66666666666663</ele><time>2026-05-01T09:03:10.975Z</time></trkpt><trkpt lat="43.381135" lon="11.3962717"><ele>408.0</ele><time>2026-05-01T09:03:11.975Z</time></trkpt><trkpt lat="43.3809467" lon="11.3962783"><ele>408.0</ele><time>2026-05-01T09:03:12.976Z</time></trkpt><trkpt lat="43.3807683" lon="11.396295"><ele>408.0</ele><time>2026-05-01T09:03:13.976Z</time></trkpt><trkpt lat="43.3806" lon="11.3963233"><ele>408.0</ele><time>2026-05-01T09:03:14.975Z</time></trkpt><trkpt lat="43.380445" lon="11.396355"><ele>407.0</ele><time>2026-05-01T09:03:15.975Z</time></trkpt><trkpt lat="43.3803017" lon="11.39639"><ele>406.0</ele><time>2026-05-01T09:03:16.975Z</time></trkpt><trkpt lat="43.380165" lon="11.3964283"><ele>405.0</ele><time>2026-05-01T09:03:17.975Z</time></trkpt><trkpt lat="43.3800217" lon="11.396465"><ele>404.0</ele><time>2026-05-01T09:03:18.976Z</time></trkpt><trkpt lat="43.3798833" lon="11.3965017"><ele>404.0</ele><time>2026-05-01T09:03:19.975Z</time></trkpt><trkpt lat="43.3797383" lon="11.3965333"><ele>404.0</ele><time>2026-05-01T09:03:20.976Z</time></trkpt><trkpt lat="43.3795933" lon="11.3965733"><ele>404.0</ele><time>2026-05-01T09:03:21.976Z</time></trkpt><trkpt lat="43.379445" lon="11.3966183"><ele>404.0</ele><time>2026-05-01T09:03:22.976Z</time></trkpt><trkpt lat="43.3792917" lon="11.3966667"><ele>402.66666666666663</ele><time>2026-05-01T09:03:23.975Z</time></trkpt><trkpt lat="43.37914" lon="11.3967217"><ele>401.33333333333337</ele><time>2026-05-01T09:03:24.975Z</time></trkpt><trkpt lat="43.3789867" lon="11.3967717"><ele>400.0</ele><time>2026-05-01T09:03:25.976Z</time></trkpt><trkpt lat="43.3788467" lon="11.3968217"><ele>398.0</ele><time>2026-05-01T09:03:26.976Z</time></trkpt><trkpt lat="43.3787017" lon="11.39687"><ele>396.0</ele><time>2026-05-01T09:03:27.975Z</time></trkpt><trkpt lat="43.3785467" lon="11.3969283"><ele>394.0</ele><time>2026-05-01T09:03:28.976Z</time></trkpt><trkpt lat="43.37839" lon="11.39698"><ele>394.0</ele><time>2026-05-01T09:03:29.975Z</time></trkpt><trkpt lat="43.3782333" lon="11.39703"><ele>394.0</ele><time>2026-05-01T09:03:30.976Z</time></trkpt><trkpt lat="43.3780883" lon="11.3970683"><ele>394.0</ele><time>2026-05-01T09:03:31.975Z</time></trkpt><trkpt lat="43.377945" lon="11.3971067"><ele>392.75</ele><time>2026-05-01T09:03:32.976Z</time></trkpt><trkpt lat="43.3778067" lon="11.3971233"><ele>391.5</ele><time>2026-05-01T09:03:33.975Z</time></trkpt><trkpt lat="43.3776783" lon="11.3971483"><ele>390.25</ele><time>2026-05-01T09:03:34.975Z</time></trkpt><trkpt lat="43.3775517" lon="11.397185"><ele>389.0</ele><time>2026-05-01T09:03:35.975Z</time></trkpt><trkpt lat="43.377425" lon="11.397255"><ele>388.5</ele><time>2026-05-01T09:03:36.975Z</time></trkpt><trkpt lat="43.3773017" lon="11.3973417"><ele>388.0</ele><time>2026-05-01T09:03:37.975Z</time></trkpt><trkpt lat="43.3771817" lon="11.3974367"><ele>387.5</ele><time>2026-05-01T09:03:38.975Z</time></trkpt><trkpt lat="43.37707" lon="11.397535"><ele>387.0</ele><time>2026-05-01T09:03:39.975Z</time></trkpt><trkpt lat="43.3769683" lon="11.3976383"><ele>387.0</ele><time>2026-05-01T09:03:40.976Z</time></trkpt><trkpt lat="43.376865" lon="11.397745"><ele>387.0</ele><time>2026-05-01T09:03:41.975Z</time></trkpt><trkpt lat="43.3767717" lon="11.3978517"><ele>387.0</ele><time>2026-05-01T09:03:42.975Z</time></trkpt><trkpt lat="43.37668" lon="11.3979533"><ele>387.0</ele><time>2026-05-01T09:03:43.975Z</time></trkpt><trkpt lat="43.376585" lon="11.398025"><ele>386.20000000000005</ele><time>2026-05-01T09:03:44.975Z</time></trkpt><trkpt lat="43.3764967" lon="11.3980867"><ele>385.4</ele><time>2026-05-01T09:03:45.975Z</time></trkpt><trkpt lat="43.3764033" lon="11.3981267"><ele>384.6</ele><time>2026-05-01T09:03:46.975Z</time></trkpt><trkpt lat="43.376315" lon="11.39816"><ele>383.79999999999995</ele><time>2026-05-01T09:03:47.975Z</time></trkpt><trkpt lat="43.3762267" lon="11.3981917"><ele>383.0</ele><time>2026-05-01T09:03:48.975Z</time></trkpt><trkpt lat="43.376135" lon="11.398215"><ele>383.0</ele><time>2026-05-01T09:03:49.975Z</time></trkpt><trkpt lat="43.3760517" lon="11.3982433"><ele>383.0</ele><time>2026-05-01T09:03:50.975Z</time></trkpt><trkpt lat="43.37597" lon="11.3982717"><ele>383.0</ele><time>2026-05-01T09:03:51.975Z</time></trkpt><trkpt lat="43.3758867" lon="11.3983067"><ele>383.0</ele><time>2026-05-01T09:03:52.975Z</time></trkpt><trkpt lat="43.3758017" lon="11.39833"><ele>383.0</ele><time>2026-05-01T09:03:53.975Z</time></trkpt><trkpt lat="43.3757217" lon="11.398355"><ele>383.0</ele><time>2026-05-01T09:03:54.976Z</time></trkpt><trkpt lat="43.3756467" lon="11.398395"><ele>383.0</ele><time>2026-05-01T09:03:55.975Z</time></trkpt><trkpt lat="43.375585" lon="11.3984267"><ele>383.0</ele><time>2026-05-01T09:03:56.975Z</time></trkpt><trkpt lat="43.3755" lon="11.39847"><ele>383.0</ele><time>2026-05-01T09:03:58.975Z</time></trkpt><trkpt lat="43.3754333" lon="11.3985083"><ele>383.0</ele><time>2026-05-01T09:04:00.976Z</time></trkpt><trkpt lat="43.37535" lon="11.398575"><ele>383.0</ele><time>2026-05-01T09:04:03.975Z</time></trkpt><trkpt lat="43.3752367" lon="11.398655"><ele>383.0</ele><time>2026-05-01T09:04:05.975Z</time></trkpt><trkpt lat="43.375175" lon="11.3987167"><ele>383.0</ele><time>2026-05-01T09:04:06.975Z</time></trkpt><trkpt lat="43.3751083" lon="11.3987867"><ele>383.0</ele><time>2026-05-01T09:04:07.976Z</time></trkpt><trkpt lat="43.3750333" lon="11.3988617"><ele>383.0</ele><time>2026-05-01T09:04:08.975Z</time></trkpt><trkpt lat="43.3749567" lon="11.39894"><ele>383.0</ele><time>2026-05-01T09:04:09.975Z</time></trkpt><trkpt lat="43.3748817" lon="11.39903"><ele>383.0</ele><time>2026-05-01T09:04:10.975Z</time></trkpt><trkpt lat="43.3748083" lon="11.3991117"><ele>382.79999999999995</ele><time>2026-05-01T09:04:11.975Z</time></trkpt><trkpt lat="43.3747417" lon="11.3991917"><ele>382.6</ele><time>2026-05-01T09:04:12.975Z</time></trkpt><trkpt lat="43.374665" lon="11.39928"><ele>382.4</ele><time>2026-05-01T09:04:13.975Z</time></trkpt><trkpt lat="43.374585" lon="11.3993683"><ele>382.20000000000005</ele><time>2026-05-01T09:04:14.976Z</time></trkpt><trkpt lat="43.3745017" lon="11.3994633"><ele>382.0</ele><time>2026-05-01T09:04:15.975Z</time></trkpt><trkpt lat="43.374415" lon="11.3995583"><ele>382.25</ele><time>2026-05-01T09:04:16.976Z</time></trkpt><trkpt lat="43.3743267" lon="11.399645"><ele>382.5</ele><time>2026-05-01T09:04:17.975Z</time></trkpt><trkpt lat="43.3742283" lon="11.3997267"><ele>382.75</ele><time>2026-05-01T09:04:18.976Z</time></trkpt><trkpt lat="43.3741267" lon="11.399805"><ele>383.0</ele><time>2026-05-01T09:04:19.976Z</time></trkpt><trkpt lat="43.3740233" lon="11.399875"><ele>383.0</ele><time>2026-05-01T09:04:20.975Z</time></trkpt><trkpt lat="43.3739183" lon="11.39994"><ele>383.0</ele><time>2026-05-01T09:04:21.975Z</time></trkpt><trkpt lat="43.3738017" lon="11.399985"><ele>383.0</ele><time>2026-05-01T09:04:22.976Z</time></trkpt><trkpt lat="43.37368" lon="11.400025"><ele>383.0</ele><time>2026-05-01T09:04:23.975Z</time></trkpt><trkpt lat="43.373565" lon="11.4000783"><ele>383.0</ele><time>2026-05-01T09:04:24.975Z</time></trkpt><trkpt lat="43.3734483" lon="11.4001267"><ele>383.0</ele><time>2026-05-01T09:04:25.975Z</time></trkpt><trkpt lat="43.3733333" lon="11.40019"><ele>383.0</ele><time>2026-05-01T09:04:26.975Z</time></trkpt><trkpt lat="43.3732233" lon="11.400255"><ele>383.0</ele><time>2026-05-01T09:04:27.976Z</time></trkpt><trkpt lat="43.3731283" lon="11.4003367"><ele>383.0</ele><time>2026-05-01T09:04:28.975Z</time></trkpt><trkpt lat="43.3730267" lon="11.4004317"><ele>383.0</ele><time>2026-05-01T09:04:29.976Z</time></trkpt><trkpt lat="43.3729283" lon="11.400535"><ele>383.0</ele><time>2026-05-01T09:04:30.976Z</time></trkpt><trkpt lat="43.3728333" lon="11.400645"><ele>383.0</ele><time>2026-05-01T09:04:31.976Z</time></trkpt><trkpt lat="43.3727383" lon="11.40075"><ele>383.75</ele><time>2026-05-01T09:04:32.975Z</time></trkpt><trkpt lat="43.3726417" lon="11.4008533"><ele>384.5</ele><time>2026-05-01T09:04:33.976Z</time></trkpt><trkpt lat="43.3725417" lon="11.4009567"><ele>385.25</ele><time>2026-05-01T09:04:34.976Z</time></trkpt><trkpt lat="43.3724383" lon="11.4010633"><ele>386.0</ele><time>2026-05-01T09:04:35.975Z</time></trkpt><trkpt lat="43.3723433" lon="11.40116"><ele>386.0</ele><time>2026-05-01T09:04:36.975Z</time></trkpt><trkpt lat="43.37224" lon="11.4012567"><ele>386.0</ele><time>2026-05-01T09:04:37.975Z</time></trkpt><trkpt lat="43.3721467" lon="11.401355"><ele>386.0</ele><time>2026-05-01T09:04:38.975Z</time></trkpt><trkpt lat="43.3720617" lon="11.401455"><ele>386.0</ele><time>2026-05-01T09:04:39.976Z</time></trkpt><trkpt lat="43.3719783" lon="11.4015517"><ele>385.0</ele><time>2026-05-01T09:04:40.975Z</time></trkpt><trkpt lat="43.3719083" lon="11.40165"><ele>384.0</ele><time>2026-05-01T09:04:41.975Z</time></trkpt><trkpt lat="43.3718517" lon="11.4017733"><ele>383.0</ele><time>2026-05-01T09:04:42.976Z</time></trkpt><trkpt lat="43.3718183" lon="11.4019217"><ele>382.0</ele><time>2026-05-01T09:04:43.975Z</time></trkpt><trkpt lat="43.371805" lon="11.402085"><ele>381.0</ele><time>2026-05-01T09:04:44.975Z</time></trkpt><trkpt lat="43.37178" lon="11.4022383"><ele>380.5</ele><time>2026-05-01T09:04:45.975Z</time></trkpt><trkpt lat="43.37174" lon="11.4023933"><ele>380.0</ele><time>2026-05-01T09:04:46.975Z</time></trkpt><trkpt lat="43.3716833" lon="11.4025417"><ele>379.5</ele><time>2026-05-01T09:04:47.976Z</time></trkpt><trkpt lat="43.3716" lon="11.4027017"><ele>379.0</ele><time>2026-05-01T09:04:48.976Z</time></trkpt><trkpt lat="43.3715367" lon="11.4028683"><ele>377.25</ele><time>2026-05-01T09:04:49.975Z</time></trkpt><trkpt lat="43.3714633" lon="11.4030517"><ele>375.5</ele><time>2026-05-01T09:04:50.976Z</time></trkpt><trkpt lat="43.37139" lon="11.4032267"><ele>373.75</ele><time>2026-05-01T09:04:51.975Z</time></trkpt><trkpt lat="43.3713183" lon="11.4034083"><ele>372.0</ele><time>2026-05-01T09:04:52.975Z</time></trkpt><trkpt lat="43.3712567" lon="11.4035967"><ele>371.0</ele><time>2026-05-01T09:04:53.976Z</time></trkpt><trkpt lat="43.3711683" lon="11.40379"><ele>370.0</ele><time>2026-05-01T09:04:54.976Z</time></trkpt><trkpt lat="43.3710967" lon="11.403955"><ele>369.0</ele><time>2026-05-01T09:04:55.975Z</time></trkpt><trkpt lat="43.3710233" lon="11.404105"><ele>368.0</ele><time>2026-05-01T09:04:56.975Z</time></trkpt><trkpt lat="43.370945" lon="11.40425"><ele>367.5</ele><time>2026-05-01T09:04:57.975Z</time></trkpt><trkpt lat="43.3708633" lon="11.4043533"><ele>367.0</ele><time>2026-05-01T09:04:58.975Z</time></trkpt><trkpt lat="43.3707717" lon="11.4044317"><ele>366.5</ele><time>2026-05-01T09:04:59.976Z</time></trkpt><trkpt lat="43.3706617" lon="11.404475"><ele>366.0</ele><time>2026-05-01T09:05:00.976Z</time></trkpt><trkpt lat="43.370535" lon="11.4045017"><ele>364.3333333333333</ele><time>2026-05-01T09:05:01.975Z</time></trkpt><trkpt lat="43.3703933" lon="11.404515"><ele>362.66666666666663</ele><time>2026-05-01T09:05:02.976Z</time></trkpt><trkpt lat="43.3702217" lon="11.4045033"><ele>361.0</ele><time>2026-05-01T09:05:03.975Z</time></trkpt><trkpt lat="43.3700383" lon="11.404495"><ele>361.0</ele><time>2026-05-01T09:05:04.975Z</time></trkpt><trkpt lat="43.36985" lon="11.4044867"><ele>361.0</ele><time>2026-05-01T09:05:05.975Z</time></trkpt><trkpt lat="43.3696567" lon="11.404475"><ele>361.0</ele><time>2026-05-01T09:05:06.975Z</time></trkpt><trkpt lat="43.3694767" lon="11.40447"><ele>359.0</ele><time>2026-05-01T09:05:07.975Z</time></trkpt><trkpt lat="43.3693117" lon="11.404475"><ele>357.0</ele><time>2026-05-01T09:05:08.976Z</time></trkpt><trkpt lat="43.3691467" lon="11.404485"><ele>355.0</ele><time>2026-05-01T09:05:09.975Z</time></trkpt><trkpt lat="43.3689867" lon="11.404495"><ele>354.0</ele><time>2026-05-01T09:05:10.975Z</time></trkpt><trkpt lat="43.3688233" lon="11.4044983"><ele>353.0</ele><time>2026-05-01T09:05:11.976Z</time></trkpt><trkpt lat="43.368655" lon="11.4044883"><ele>352.0</ele><time>2026-05-01T09:05:12.975Z</time></trkpt><trkpt lat="43.3684783" lon="11.4044667"><ele>352.0</ele><time>2026-05-01T09:05:13.976Z</time></trkpt><trkpt lat="43.3683033" lon="11.404435"><ele>352.0</ele><time>2026-05-01T09:05:14.975Z</time></trkpt><trkpt lat="43.36812" lon="11.4044"><ele>352.0</ele><time>2026-05-01T09:05:15.976Z</time></trkpt><trkpt lat="43.3679367" lon="11.40437"><ele>351.0</ele><time>2026-05-01T09:05:16.975Z</time></trkpt><trkpt lat="43.367775" lon="11.404335"><ele>350.0</ele><time>2026-05-01T09:05:17.976Z</time></trkpt><trkpt lat="43.3676183" lon="11.404305"><ele>349.0</ele><time>2026-05-01T09:05:18.975Z</time></trkpt><trkpt lat="43.36747" lon="11.4042817"><ele>349.0</ele><time>2026-05-01T09:05:19.975Z</time></trkpt><trkpt lat="43.367325" lon="11.4042683"><ele>349.0</ele><time>2026-05-01T09:05:20.976Z</time></trkpt><trkpt lat="43.3671767" lon="11.4042683"><ele>349.0</ele><time>2026-05-01T09:05:21.976Z</time></trkpt><trkpt lat="43.3670383" lon="11.404295"><ele>349.0</ele><time>2026-05-01T09:05:22.975Z</time></trkpt><trkpt lat="43.3669017" lon="11.4043483"><ele>349.0</ele><time>2026-05-01T09:05:23.976Z</time></trkpt><trkpt lat="43.366775" lon="11.40443"><ele>349.0</ele><time>2026-05-01T09:05:24.975Z</time></trkpt><trkpt lat="43.36665" lon="11.404555"><ele>349.0</ele><time>2026-05-01T09:05:25.975Z</time></trkpt><trkpt lat="43.3665483" lon="11.4047"><ele>349.0</ele><time>2026-05-01T09:05:26.975Z</time></trkpt><trkpt lat="43.366455" lon="11.40486"><ele>348.66666666666663</ele><time>2026-05-01T09:05:27.975Z</time></trkpt><trkpt lat="43.3663683" lon="11.4050433"><ele>348.3333333333333</ele><time>2026-05-01T09:05:28.975Z</time></trkpt><trkpt lat="43.366285" lon="11.4052433"><ele>348.0</ele><time>2026-05-01T09:05:29.976Z</time></trkpt><trkpt lat="43.36621" lon="11.4054417"><ele>347.0</ele><time>2026-05-01T09:05:30.975Z</time></trkpt><trkpt lat="43.3661333" lon="11.40563"><ele>346.0</ele><time>2026-05-01T09:05:31.975Z</time></trkpt><trkpt lat="43.3660633" lon="11.405805"><ele>345.0</ele><time>2026-05-01T09:05:32.975Z</time></trkpt><trkpt lat="43.3659983" lon="11.4059533"><ele>344.0</ele><time>2026-05-01T09:05:33.975Z</time></trkpt><trkpt lat="43.3659367" lon="11.4060733"><ele>344.0</ele><time>2026-05-01T09:05:34.975Z</time></trkpt><trkpt lat="43.36587" lon="11.4061583"><ele>344.0</ele><time>2026-05-01T09:05:35.975Z</time></trkpt><trkpt lat="43.365775" lon="11.4062267"><ele>344.0</ele><time>2026-05-01T09:05:36.975Z</time></trkpt><trkpt lat="43.365645" lon="11.40629"><ele>344.0</ele><time>2026-05-01T09:05:37.975Z</time></trkpt><trkpt lat="43.3654867" lon="11.4063533"><ele>342.75</ele><time>2026-05-01T09:05:38.975Z</time></trkpt><trkpt lat="43.3653367" lon="11.4064183"><ele>341.5</ele><time>2026-05-01T09:05:39.975Z</time></trkpt><trkpt lat="43.3652033" lon="11.40647"><ele>340.25</ele><time>2026-05-01T09:05:40.975Z</time></trkpt><trkpt lat="43.3650983" lon="11.4064883"><ele>339.0</ele><time>2026-05-01T09:05:41.975Z</time></trkpt><trkpt lat="43.365015" lon="11.4064867"><ele>339.0</ele><time>2026-05-01T09:05:42.975Z</time></trkpt><trkpt lat="43.3649317" lon="11.406435"><ele>339.0</ele><time>2026-05-01T09:05:43.976Z</time></trkpt><trkpt lat="43.3648467" lon="11.4063533"><ele>339.0</ele><time>2026-05-01T09:05:44.976Z</time></trkpt><trkpt lat="43.36477" lon="11.4062417"><ele>339.0</ele><time>2026-05-01T09:05:45.975Z</time></trkpt><trkpt lat="43.3647067" lon="11.4061367"><ele>339.0</ele><time>2026-05-01T09:05:46.975Z</time></trkpt><trkpt lat="43.3646317" lon="11.4060833"><ele>337.0</ele><time>2026-05-01T09:05:47.976Z</time></trkpt><trkpt lat="43.36455" lon="11.4060433"><ele>335.0</ele><time>2026-05-01T09:05:48.976Z</time></trkpt><trkpt lat="43.3644717" lon="11.4060517"><ele>333.0</ele><time>2026-05-01T09:05:49.976Z</time></trkpt><trkpt lat="43.3643733" lon="11.4060967"><ele>331.0</ele><time>2026-05-01T09:05:50.976Z</time></trkpt><trkpt lat="43.36425" lon="11.4061667"><ele>329.0</ele><time>2026-05-01T09:05:51.975Z</time></trkpt><trkpt lat="43.364095" lon="11.40627"><ele>328.6666666666667</ele><time>2026-05-01T09:05:52.976Z</time></trkpt><trkpt lat="43.3639267" lon="11.4063833"><ele>328.3333333333333</ele><time>2026-05-01T09:05:53.975Z</time></trkpt><trkpt lat="43.3637583" lon="11.4064917"><ele>328.0</ele><time>2026-05-01T09:05:54.975Z</time></trkpt><trkpt lat="43.3635917" lon="11.4065917"><ele>325.0</ele><time>2026-05-01T09:05:55.976Z</time></trkpt><trkpt lat="43.3634283" lon="11.4066917"><ele>322.0</ele><time>2026-05-01T09:05:56.976Z</time></trkpt><trkpt lat="43.3632617" lon="11.4067917"><ele>319.0</ele><time>2026-05-01T09:05:57.975Z</time></trkpt><trkpt lat="43.3630933" lon="11.4068933"><ele>316.3333333333333</ele><time>2026-05-01T09:05:58.975Z</time></trkpt><trkpt lat="43.3629233" lon="11.4069883"><ele>313.6666666666667</ele><time>2026-05-01T09:05:59.976Z</time></trkpt><trkpt lat="43.3627483" lon="11.4070783"><ele>311.0</ele><time>2026-05-01T09:06:00.975Z</time></trkpt><trkpt lat="43.36257" lon="11.4071583"><ele>312.0</ele><time>2026-05-01T09:06:01.976Z</time></trkpt><trkpt lat="43.36239" lon="11.407225"><ele>313.0</ele><time>2026-05-01T09:06:02.975Z</time></trkpt><trkpt lat="43.3622083" lon="11.4072817"><ele>314.0</ele><time>2026-05-01T09:06:03.975Z</time></trkpt><trkpt lat="43.3620217" lon="11.4073383"><ele>311.33333333333337</ele><time>2026-05-01T09:06:04.975Z</time></trkpt><trkpt lat="43.3618383" lon="11.40739"><ele>308.6666666666667</ele><time>2026-05-01T09:06:05.975Z</time></trkpt><trkpt lat="43.36166" lon="11.4074417"><ele>306.0</ele><time>2026-05-01T09:06:06.975Z</time></trkpt><trkpt lat="43.3614833" lon="11.4074883"><ele>303.3333333333333</ele><time>2026-05-01T09:06:07.976Z</time></trkpt><trkpt lat="43.3612983" lon="11.4075267"><ele>300.66666666666663</ele><time>2026-05-01T09:06:08.975Z</time></trkpt><trkpt lat="43.3610967" lon="11.4075467"><ele>298.0</ele><time>2026-05-01T09:06:09.975Z</time></trkpt><trkpt lat="43.360895" lon="11.407565"><ele>298.0</ele><time>2026-05-01T09:06:10.975Z</time></trkpt><trkpt lat="43.3606883" lon="11.4075567"><ele>298.0</ele><time>2026-05-01T09:06:11.975Z</time></trkpt><trkpt lat="43.3604817" lon="11.4075317"><ele>298.0</ele><time>2026-05-01T09:06:12.975Z</time></trkpt><trkpt lat="43.3603017" lon="11.4075"><ele>297.25</ele><time>2026-05-01T09:06:13.975Z</time></trkpt><trkpt lat="43.3601367" lon="11.40746"><ele>296.5</ele><time>2026-05-01T09:06:14.975Z</time></trkpt><trkpt lat="43.359995" lon="11.40743"><ele>295.75</ele><time>2026-05-01T09:06:15.975Z</time></trkpt><trkpt lat="43.359875" lon="11.407415"><ele>295.0</ele><time>2026-05-01T09:06:16.976Z</time></trkpt><trkpt lat="43.359775" lon="11.4074117"><ele>295.2</ele><time>2026-05-01T09:06:17.975Z</time></trkpt><trkpt lat="43.3597" lon="11.4074433"><ele>295.4</ele><time>2026-05-01T09:06:18.975Z</time></trkpt><trkpt lat="43.3596183" lon="11.407515"><ele>295.6</ele><time>2026-05-01T09:06:19.975Z</time></trkpt><trkpt lat="43.3595417" lon="11.4076233"><ele>295.8</ele><time>2026-05-01T09:06:20.976Z</time></trkpt><trkpt lat="43.3594833" lon="11.4077417"><ele>296.0</ele><time>2026-05-01T09:06:21.975Z</time></trkpt><trkpt lat="43.35944" lon="11.4078717"><ele>294.83333333333337</ele><time>2026-05-01T09:06:22.975Z</time></trkpt><trkpt lat="43.3594233" lon="11.407995"><ele>293.6666666666667</ele><time>2026-05-01T09:06:23.975Z</time></trkpt><trkpt lat="43.3594417" lon="11.40811"><ele>292.5</ele><time>2026-05-01T09:06:24.975Z</time></trkpt><trkpt lat="43.3594933" lon="11.408215"><ele>291.3333333333333</ele><time>2026-05-01T09:06:25.975Z</time></trkpt><trkpt lat="43.3595567" lon="11.4082967"><ele>290.16666666666663</ele><time>2026-05-01T09:06:26.975Z</time></trkpt><trkpt lat="43.359635" lon="11.4083667"><ele>289.0</ele><time>2026-05-01T09:06:27.975Z</time></trkpt><trkpt lat="43.359735" lon="11.4084417"><ele>289.0</ele><time>2026-05-01T09:06:28.975Z</time></trkpt><trkpt lat="43.359845" lon="11.40852"><ele>289.0</ele><time>2026-05-01T09:06:29.975Z</time></trkpt><trkpt lat="43.3599583" lon="11.4086167"><ele>289.0</ele><time>2026-05-01T09:06:30.976Z</time></trkpt><trkpt lat="43.3601" lon="11.4087133"><ele>289.0</ele><time>2026-05-01T09:06:31.975Z</time></trkpt><trkpt lat="43.3602167" lon="11.4088067"><ele>288.5</ele><time>2026-05-01T09:06:32.976Z</time></trkpt><trkpt lat="43.3603183" lon="11.4089317"><ele>288.0</ele><time>2026-05-01T09:06:33.976Z</time></trkpt><trkpt lat="43.3604233" lon="11.4090817"><ele>287.5</ele><time>2026-05-01T09:06:34.975Z</time></trkpt><trkpt lat="43.3605183" lon="11.4092583"><ele>287.0</ele><time>2026-05-01T09:06:35.975Z</time></trkpt><trkpt lat="43.3606017" lon="11.4094517"><ele>287.0</ele><time>2026-05-01T09:06:36.976Z</time></trkpt><trkpt lat="43.360675" lon="11.409635"><ele>287.0</ele><time>2026-05-01T09:06:37.976Z</time></trkpt><trkpt lat="43.3607367" lon="11.4098067"><ele>287.0</ele><time>2026-05-01T09:06:38.975Z</time></trkpt><trkpt lat="43.36079" lon="11.4099733"><ele>287.0</ele><time>2026-05-01T09:06:39.975Z</time></trkpt><trkpt lat="43.3608317" lon="11.4101283"><ele>285.8</ele><time>2026-05-01T09:06:40.975Z</time></trkpt><trkpt lat="43.36085" lon="11.4102683"><ele>284.6</ele><time>2026-05-01T09:06:41.975Z</time></trkpt><trkpt lat="43.36084" lon="11.41041"><ele>283.40000000000003</ele><time>2026-05-01T09:06:42.975Z</time></trkpt><trkpt lat="43.3608117" lon="11.4105533"><ele>282.2</ele><time>2026-05-01T09:06:43.975Z</time></trkpt><trkpt lat="43.3607567" lon="11.4106833"><ele>281.0</ele><time>2026-05-01T09:06:44.975Z</time></trkpt><trkpt lat="43.3606783" lon="11.410785"><ele>280.25</ele><time>2026-05-01T09:06:45.975Z</time></trkpt><trkpt lat="43.3605717" lon="11.410845"><ele>279.5</ele><time>2026-05-01T09:06:46.975Z</time></trkpt><trkpt lat="43.360435" lon="11.4108933"><ele>278.75</ele><time>2026-05-01T09:06:47.976Z</time></trkpt><trkpt lat="43.3602967" lon="11.4109483"><ele>278.0</ele><time>2026-05-01T09:06:48.976Z</time></trkpt><trkpt lat="43.3601783" lon="11.4110067"><ele>276.6666666666667</ele><time>2026-05-01T09:06:49.975Z</time></trkpt><trkpt lat="43.3600917" lon="11.4110767"><ele>275.33333333333337</ele><time>2026-05-01T09:06:50.975Z</time></trkpt><trkpt lat="43.36003" lon="11.4111583"><ele>274.0</ele><time>2026-05-01T09:06:51.975Z</time></trkpt><trkpt lat="43.3599883" lon="11.41124"><ele>272.6666666666667</ele><time>2026-05-01T09:06:52.975Z</time></trkpt><trkpt lat="43.359955" lon="11.4113383"><ele>271.3333333333333</ele><time>2026-05-01T09:06:53.975Z</time></trkpt><trkpt lat="43.3599467" lon="11.4114567"><ele>270.0</ele><time>2026-05-01T09:06:54.975Z</time></trkpt><trkpt lat="43.3599383" lon="11.4116"><ele>270.0</ele><time>2026-05-01T09:06:55.976Z</time></trkpt><trkpt lat="43.35995" lon="11.4117483"><ele>270.0</ele><time>2026-05-01T09:06:56.975Z</time></trkpt><trkpt lat="43.3599583" lon="11.4118667"><ele>270.0</ele><time>2026-05-01T09:06:57.975Z</time></trkpt><trkpt lat="43.35992" lon="11.4120117"><ele>270.0</ele><time>2026-05-01T09:06:59.975Z</time></trkpt><trkpt lat="43.3598117" lon="11.4120217"><ele>270.0</ele><time>2026-05-01T09:07:01.975Z</time></trkpt><trkpt lat="43.359755" lon="11.4119567"><ele>267.0</ele><time>2026-05-01T09:07:02.975Z</time></trkpt><trkpt lat="43.3596983" lon="11.4118483"><ele>264.0</ele><time>2026-05-01T09:07:03.976Z</time></trkpt><trkpt lat="43.35965" lon="11.4116883"><ele>261.0</ele><time>2026-05-01T09:07:04.975Z</time></trkpt><trkpt lat="43.35961" lon="11.4115217"><ele>258.0</ele><time>2026-05-01T09:07:05.975Z</time></trkpt><trkpt lat="43.359585" lon="11.4113733"><ele>259.2</ele><time>2026-05-01T09:07:06.975Z</time></trkpt><trkpt lat="43.3595483" lon="11.411245"><ele>260.4</ele><time>2026-05-01T09:07:07.975Z</time></trkpt><trkpt lat="43.359505" lon="11.4111333"><ele>261.59999999999997</ele><time>2026-05-01T09:07:08.976Z</time></trkpt><trkpt lat="43.3594467" lon="11.4110367"><ele>262.8</ele><time>2026-05-01T09:07:09.976Z</time></trkpt><trkpt lat="43.35937" lon="11.4109733"><ele>264.0</ele><time>2026-05-01T09:07:10.976Z</time></trkpt><trkpt lat="43.359295" lon="11.4109467"><ele>264.0</ele><time>2026-05-01T09:07:11.975Z</time></trkpt><trkpt lat="43.3592183" lon="11.410955"><ele>264.0</ele><time>2026-05-01T09:07:12.975Z</time></trkpt><trkpt lat="43.35915" lon="11.4109983"><ele>264.0</ele><time>2026-05-01T09:07:13.976Z</time></trkpt><trkpt lat="43.35908" lon="11.411075"><ele>264.0</ele><time>2026-05-01T09:07:14.975Z</time></trkpt><trkpt lat="43.35903" lon="11.41118"><ele>264.0</ele><time>2026-05-01T09:07:15.976Z</time></trkpt><trkpt lat="43.3589967" lon="11.4113317"><ele>264.0</ele><time>2026-05-01T09:07:16.975Z</time></trkpt><trkpt lat="43.358975" lon="11.4115217"><ele>262.5</ele><time>2026-05-01T09:07:17.976Z</time></trkpt><trkpt lat="43.3589717" lon="11.411715"><ele>261.0</ele><time>2026-05-01T09:07:18.975Z</time></trkpt><trkpt lat="43.3589633" lon="11.4118783"><ele>259.5</ele><time>2026-05-01T09:07:19.976Z</time></trkpt><trkpt lat="43.3589533" lon="11.4120167"><ele>258.0</ele><time>2026-05-01T09:07:20.975Z</time></trkpt><trkpt lat="43.35892" lon="11.4121417"><ele>255.25</ele><time>2026-05-01T09:07:21.975Z</time></trkpt><trkpt lat="43.3588567" lon="11.4122367"><ele>252.5</ele><time>2026-05-01T09:07:22.976Z</time></trkpt><trkpt lat="43.3587683" lon="11.4123167"><ele>249.75</ele><time>2026-05-01T09:07:23.975Z</time></trkpt><trkpt lat="43.358655" lon="11.4123733"><ele>247.0</ele><time>2026-05-01T09:07:24.975Z</time></trkpt><trkpt lat="43.35852" lon="11.412405"><ele>247.0</ele><time>2026-05-01T09:07:25.975Z</time></trkpt><trkpt lat="43.358375" lon="11.412425"><ele>247.0</ele><time>2026-05-01T09:07:26.975Z</time></trkpt><trkpt lat="43.3582383" lon="11.4124283"><ele>247.0</ele><time>2026-05-01T09:07:27.975Z</time></trkpt><trkpt lat="43.358095" lon="11.4124233"><ele>247.0</ele><time>2026-05-01T09:07:28.975Z</time></trkpt><trkpt lat="43.3579517" lon="11.4123783"><ele>246.0</ele><time>2026-05-01T09:07:29.976Z</time></trkpt><trkpt lat="43.3578267" lon="11.412335"><ele>245.0</ele><time>2026-05-01T09:07:30.975Z</time></trkpt><trkpt lat="43.3577283" lon="11.4123"><ele>244.0</ele><time>2026-05-01T09:07:31.976Z</time></trkpt><trkpt lat="43.3576167" lon="11.4122867"><ele>243.0</ele><time>2026-05-01T09:07:32.975Z</time></trkpt><trkpt lat="43.3575217" lon="11.41229"><ele>242.0</ele><time>2026-05-01T09:07:33.975Z</time></trkpt><trkpt lat="43.3574183" lon="11.41234"><ele>242.0</ele><time>2026-05-01T09:07:34.975Z</time></trkpt><trkpt lat="43.3573267" lon="11.4124"><ele>242.0</ele><time>2026-05-01T09:07:35.976Z</time></trkpt><trkpt lat="43.3572517" lon="11.4124933"><ele>242.0</ele><time>2026-05-01T09:07:36.975Z</time></trkpt><trkpt lat="43.3571567" lon="11.412605"><ele>242.0</ele><time>2026-05-01T09:07:37.976Z</time></trkpt><trkpt lat="43.3570817" lon="11.4127583"><ele>240.33333333333334</ele><time>2026-05-01T09:07:38.976Z</time></trkpt><trkpt lat="43.357" lon="11.412945"><ele>238.66666666666669</ele><time>2026-05-01T09:07:39.975Z</time></trkpt><trkpt lat="43.356925" lon="11.4131567"><ele>237.0</ele><time>2026-05-01T09:07:40.975Z</time></trkpt><trkpt lat="43.356845" lon="11.4133933"><ele>236.0</ele><time>2026-05-01T09:07:41.975Z</time></trkpt><trkpt lat="43.3567767" lon="11.4136217"><ele>235.0</ele><time>2026-05-01T09:07:42.975Z</time></trkpt><trkpt lat="43.3567167" lon="11.4138417"><ele>234.0</ele><time>2026-05-01T09:07:43.975Z</time></trkpt><trkpt lat="43.3566667" lon="11.4140467"><ele>233.25</ele><time>2026-05-01T09:07:44.975Z</time></trkpt><trkpt lat="43.3566167" lon="11.4142483"><ele>232.5</ele><time>2026-05-01T09:07:45.976Z</time></trkpt><trkpt lat="43.3565667" lon="11.4144417"><ele>231.75</ele><time>2026-05-01T09:07:46.976Z</time></trkpt><trkpt lat="43.3565217" lon="11.41463"><ele>231.0</ele><time>2026-05-01T09:07:47.976Z</time></trkpt><trkpt lat="43.3564767" lon="11.4148167"><ele>230.5</ele><time>2026-05-01T09:07:48.976Z</time></trkpt><trkpt lat="43.3564367" lon="11.4149983"><ele>230.0</ele><time>2026-05-01T09:07:49.975Z</time></trkpt><trkpt lat="43.3563983" lon="11.4151667"><ele>229.5</ele><time>2026-05-01T09:07:50.975Z</time></trkpt><trkpt lat="43.3563683" lon="11.41532"><ele>229.0</ele><time>2026-05-01T09:07:51.976Z</time></trkpt><trkpt lat="43.35634" lon="11.4154533"><ele>227.6</ele><time>2026-05-01T09:07:52.976Z</time></trkpt><trkpt lat="43.35631" lon="11.4155583"><ele>226.2</ele><time>2026-05-01T09:07:53.975Z</time></trkpt><trkpt lat="43.3562917" lon="11.4156483"><ele>224.79999999999998</ele><time>2026-05-01T09:07:54.975Z</time></trkpt><trkpt lat="43.3562583" lon="11.415745"><ele>223.39999999999998</ele><time>2026-05-01T09:07:56.975Z</time></trkpt><trkpt lat="43.35613" lon="11.4158817"><ele>222.0</ele><time>2026-05-01T09:08:30.975Z</time></trkpt><trkpt lat="43.3560333" lon="11.415905"><ele>222.0</ele><time>2026-05-01T09:08:32.975Z</time></trkpt><trkpt lat="43.355915" lon="11.4159333"><ele>222.0</ele><time>2026-05-01T09:08:34.976Z</time></trkpt><trkpt lat="43.355845" lon="11.4159683"><ele>222.0</ele><time>2026-05-01T09:08:35.975Z</time></trkpt><trkpt lat="43.3557683" lon="11.41602"><ele>222.0</ele><time>2026-05-01T09:08:36.975Z</time></trkpt><trkpt lat="43.3556983" lon="11.4160717"><ele>222.0</ele><time>2026-05-01T09:08:37.976Z</time></trkpt><trkpt lat="43.355625" lon="11.4161267"><ele>222.0</ele><time>2026-05-01T09:08:38.976Z</time></trkpt><trkpt lat="43.355565" lon="11.41617"><ele>222.83333333333334</ele><time>2026-05-01T09:08:39.976Z</time></trkpt><trkpt lat="43.3554533" lon="11.4162233"><ele>223.66666666666669</ele><time>2026-05-01T09:08:41.975Z</time></trkpt><trkpt lat="43.35539" lon="11.4162383"><ele>224.5</ele><time>2026-05-01T09:08:42.975Z</time></trkpt><trkpt lat="43.3553233" lon="11.4162467"><ele>225.33333333333334</ele><time>2026-05-01T09:08:43.976Z</time></trkpt><trkpt lat="43.3552483" lon="11.4162417"><ele>226.16666666666669</ele><time>2026-05-01T09:08:44.975Z</time></trkpt><trkpt lat="43.355155" lon="11.4162217"><ele>227.0</ele><time>2026-05-01T09:08:45.976Z</time></trkpt><trkpt lat="43.3550283" lon="11.4162"><ele>227.0</ele><time>2026-05-01T09:08:46.975Z</time></trkpt><trkpt lat="43.3548817" lon="11.4161867"><ele>227.0</ele><time>2026-05-01T09:08:47.975Z</time></trkpt><trkpt lat="43.3547217" lon="11.41617"><ele>227.0</ele><time>2026-05-01T09:08:48.975Z</time></trkpt><trkpt lat="43.354555" lon="11.4161533"><ele>226.33333333333334</ele><time>2026-05-01T09:08:49.976Z</time></trkpt><trkpt lat="43.3543817" lon="11.4161317"><ele>225.66666666666669</ele><time>2026-05-01T09:08:50.975Z</time></trkpt><trkpt lat="43.35421" lon="11.4161133"><ele>225.0</ele><time>2026-05-01T09:08:51.975Z</time></trkpt><trkpt lat="43.3540233" lon="11.4160917"><ele>224.33333333333331</ele><time>2026-05-01T09:08:52.976Z</time></trkpt><trkpt lat="43.3538467" lon="11.4160667"><ele>223.66666666666666</ele><time>2026-05-01T09:08:53.976Z</time></trkpt><trkpt lat="43.3536567" lon="11.4160333"><ele>223.0</ele><time>2026-05-01T09:08:54.975Z</time></trkpt><trkpt lat="43.3534617" lon="11.415995"><ele>223.0</ele><time>2026-05-01T09:08:55.976Z</time></trkpt><trkpt lat="43.35329" lon="11.4159333"><ele>223.0</ele><time>2026-05-01T09:08:56.975Z</time></trkpt><trkpt lat="43.3530983" lon="11.4158717"><ele>223.0</ele><time>2026-05-01T09:08:57.976Z</time></trkpt><trkpt lat="43.35291" lon="11.415815"><ele>223.0</ele><time>2026-05-01T09:08:58.975Z</time></trkpt><trkpt lat="43.3527333" lon="11.4157667"><ele>223.0</ele><time>2026-05-01T09:08:59.976Z</time></trkpt><trkpt lat="43.3525583" lon="11.4157117"><ele>223.0</ele><time>2026-05-01T09:09:00.975Z</time></trkpt><trkpt lat="43.35239" lon="11.4156683"><ele>223.0</ele><time>2026-05-01T09:09:01.976Z</time></trkpt><trkpt lat="43.35222" lon="11.4156217"><ele>223.0</ele><time>2026-05-01T09:09:02.975Z</time></trkpt><trkpt lat="43.3520483" lon="11.415575"><ele>223.0</ele><time>2026-05-01T09:09:03.975Z</time></trkpt><trkpt lat="43.3518933" lon="11.4155267"><ele>222.33333333333331</ele><time>2026-05-01T09:09:04.975Z</time></trkpt><trkpt lat="43.3517167" lon="11.4154883"><ele>221.66666666666669</ele><time>2026-05-01T09:09:05.975Z</time></trkpt><trkpt lat="43.3515483" lon="11.4154467"><ele>221.0</ele><time>2026-05-01T09:09:06.975Z</time></trkpt><trkpt lat="43.3513717" lon="11.4153933"><ele>220.66666666666669</ele><time>2026-05-01T09:09:07.976Z</time></trkpt><trkpt lat="43.3511933" lon="11.4153417"><ele>220.33333333333331</ele><time>2026-05-01T09:09:08.975Z</time></trkpt><trkpt lat="43.3510217" lon="11.4152933"><ele>220.0</ele><time>2026-05-01T09:09:09.976Z</time></trkpt><trkpt lat="43.350855" lon="11.41524"><ele>220.0</ele><time>2026-05-01T09:09:10.975Z</time></trkpt><trkpt lat="43.3506883" lon="11.41518"><ele>220.0</ele><time>2026-05-01T09:09:11.976Z</time></trkpt><trkpt lat="43.3505133" lon="11.4151383"><ele>220.0</ele><time>2026-05-01T09:09:12.976Z</time></trkpt><trkpt lat="43.3503517" lon="11.415085"><ele>222.0</ele><time>2026-05-01T09:09:13.976Z</time></trkpt><trkpt lat="43.3502017" lon="11.415015"><ele>224.0</ele><time>2026-05-01T09:09:14.975Z</time></trkpt><trkpt lat="43.35007" lon="11.414915"><ele>226.0</ele><time>2026-05-01T09:09:15.975Z</time></trkpt><trkpt lat="43.3499483" lon="11.4147817"><ele>226.33333333333331</ele><time>2026-05-01T09:09:16.976Z</time></trkpt><trkpt lat="43.349855" lon="11.4146033"><ele>226.66666666666669</ele><time>2026-05-01T09:09:17.975Z</time></trkpt><trkpt lat="43.34974" lon="11.4144133"><ele>227.0</ele><time>2026-05-01T09:09:18.975Z</time></trkpt><trkpt lat="43.3496367" lon="11.4142167"><ele>227.0</ele><time>2026-05-01T09:09:19.976Z</time></trkpt><trkpt lat="43.34954" lon="11.4139967"><ele>227.0</ele><time>2026-05-01T09:09:20.975Z</time></trkpt><trkpt lat="43.34946" lon="11.4137767"><ele>227.0</ele><time>2026-05-01T09:09:21.976Z</time></trkpt><trkpt lat="43.34939" lon="11.4135533"><ele>227.0</ele><time>2026-05-01T09:09:22.975Z</time></trkpt><trkpt lat="43.3493067" lon="11.4133317"><ele>227.0</ele><time>2026-05-01T09:09:23.975Z</time></trkpt><trkpt lat="43.3492" lon="11.4131183"><ele>227.0</ele><time>2026-05-01T09:09:24.975Z</time></trkpt><trkpt lat="43.349075" lon="11.4129233"><ele>226.33333333333334</ele><time>2026-05-01T09:09:25.974Z</time></trkpt><trkpt lat="43.348945" lon="11.4127333"><ele>225.66666666666669</ele><time>2026-05-01T09:09:26.975Z</time></trkpt><trkpt lat="43.34883" lon="11.4125317"><ele>225.0</ele><time>2026-05-01T09:09:27.975Z</time></trkpt><trkpt lat="43.348735" lon="11.4123317"><ele>227.33333333333331</ele><time>2026-05-01T09:09:28.975Z</time></trkpt><trkpt lat="43.34867" lon="11.4121233"><ele>229.66666666666666</ele><time>2026-05-01T09:09:29.975Z</time></trkpt><trkpt lat="43.3486017" lon="11.4119183"><ele>232.0</ele><time>2026-05-01T09:09:30.974Z</time></trkpt><trkpt lat="43.348555" lon="11.4116683"><ele>232.0</ele><time>2026-05-01T09:09:31.974Z</time></trkpt><trkpt lat="43.3485267" lon="11.4113983"><ele>232.0</ele><time>2026-05-01T09:09:32.975Z</time></trkpt><trkpt lat="43.3485167" lon="11.4111167"><ele>232.0</ele><time>2026-05-01T09:09:33.975Z</time></trkpt><trkpt lat="43.34849" lon="11.410855"><ele>235.0</ele><time>2026-05-01T09:09:34.974Z</time></trkpt><trkpt lat="43.3484517" lon="11.4105483"><ele>238.0</ele><time>2026-05-01T09:09:35.974Z</time></trkpt><trkpt lat="43.3483767" lon="11.4102533"><ele>238.66666666666666</ele><time>2026-05-01T09:09:36.974Z</time></trkpt><trkpt lat="43.3482917" lon="11.4099583"><ele>239.33333333333331</ele><time>2026-05-01T09:09:37.974Z</time></trkpt><trkpt lat="43.34822" lon="11.4096967"><ele>240.0</ele><time>2026-05-01T09:09:38.974Z</time></trkpt><trkpt lat="43.3481533" lon="11.4094417"><ele>240.0</ele><time>2026-05-01T09:09:39.974Z</time></trkpt><trkpt lat="43.3480933" lon="11.40922"><ele>240.0</ele><time>2026-05-01T09:09:40.974Z</time></trkpt><trkpt lat="43.3480583" lon="11.4090067"><ele>240.0</ele><time>2026-05-01T09:09:41.974Z</time></trkpt><trkpt lat="43.3480333" lon="11.40879"><ele>248.0</ele><time>2026-05-01T09:09:42.975Z</time></trkpt><trkpt lat="43.348015" lon="11.4085567"><ele>256.0</ele><time>2026-05-01T09:09:43.974Z</time></trkpt><trkpt lat="43.348" lon="11.4083067"><ele>264.0</ele><time>2026-05-01T09:09:44.974Z</time></trkpt><trkpt lat="43.3479983" lon="11.40803"><ele>266.0</ele><time>2026-05-01T09:09:45.974Z</time></trkpt><trkpt lat="43.34801" lon="11.4077433"><ele>268.0</ele><time>2026-05-01T09:09:46.974Z</time></trkpt><trkpt lat="43.34803" lon="11.40744"><ele>270.0</ele><time>2026-05-01T09:09:47.974Z</time></trkpt><trkpt lat="43.3480533" lon="11.4071533"><ele>265.3333333333333</ele><time>2026-05-01T09:09:48.975Z</time></trkpt><trkpt lat="43.3480717" lon="11.40686"><ele>260.66666666666663</ele><time>2026-05-01T09:09:49.975Z</time></trkpt><trkpt lat="43.348095" lon="11.4065817"><ele>256.0</ele><time>2026-05-01T09:09:50.974Z</time></trkpt><trkpt lat="43.3481583" lon="11.4062933"><ele>256.0</ele><time>2026-05-01T09:09:51.974Z</time></trkpt><trkpt lat="43.3482217" lon="11.4060217"><ele>256.0</ele><time>2026-05-01T09:09:52.974Z</time></trkpt><trkpt lat="43.3483067" lon="11.405765"><ele>256.0</ele><time>2026-05-01T09:09:53.975Z</time></trkpt><trkpt lat="43.3483783" lon="11.4055"><ele>259.66666666666663</ele><time>2026-05-01T09:09:54.974Z</time></trkpt><trkpt lat="43.3484267" lon="11.4052483"><ele>263.3333333333333</ele><time>2026-05-01T09:09:55.974Z</time></trkpt><trkpt lat="43.3484533" lon="11.4049983"><ele>267.0</ele><time>2026-05-01T09:09:56.974Z</time></trkpt><trkpt lat="43.3484867" lon="11.404755"><ele>267.6666666666667</ele><time>2026-05-01T09:09:57.975Z</time></trkpt><trkpt lat="43.348535" lon="11.4045267"><ele>268.33333333333337</ele><time>2026-05-01T09:09:58.974Z</time></trkpt><trkpt lat="43.3485983" lon="11.4043233"><ele>269.0</ele><time>2026-05-01T09:09:59.974Z</time></trkpt><trkpt lat="43.3486817" lon="11.4041417"><ele>269.0</ele><time>2026-05-01T09:10:00.975Z</time></trkpt><trkpt lat="43.3487933" lon="11.4039783"><ele>269.0</ele><time>2026-05-01T09:10:01.974Z</time></trkpt><trkpt lat="43.3488983" lon="11.4038117"><ele>269.0</ele><time>2026-05-01T09:10:02.975Z</time></trkpt><trkpt lat="43.34901" lon="11.4036317"><ele>270.0</ele><time>2026-05-01T09:10:03.974Z</time></trkpt><trkpt lat="43.3490883" lon="11.4034233"><ele>271.0</ele><time>2026-05-01T09:10:04.974Z</time></trkpt><trkpt lat="43.3491333" lon="11.4032067"><ele>272.0</ele><time>2026-05-01T09:10:05.975Z</time></trkpt><trkpt lat="43.34917" lon="11.4029633"><ele>274.33333333333337</ele><time>2026-05-01T09:10:06.974Z</time></trkpt><trkpt lat="43.3491933" lon="11.4027117"><ele>276.6666666666667</ele><time>2026-05-01T09:10:07.975Z</time></trkpt><trkpt lat="43.3492033" lon="11.40245"><ele>279.0</ele><time>2026-05-01T09:10:08.975Z</time></trkpt><trkpt lat="43.3492283" lon="11.402205"><ele>281.0</ele><time>2026-05-01T09:10:09.975Z</time></trkpt><trkpt lat="43.3492533" lon="11.40199"><ele>283.0</ele><time>2026-05-01T09:10:10.974Z</time></trkpt><trkpt lat="43.34929" lon="11.4018"><ele>285.0</ele><time>2026-05-01T09:10:11.974Z</time></trkpt><trkpt lat="43.349355" lon="11.401645"><ele>287.0</ele><time>2026-05-01T09:10:12.975Z</time></trkpt><trkpt lat="43.3494467" lon="11.401545"><ele>287.0</ele><time>2026-05-01T09:10:13.975Z</time></trkpt><trkpt lat="43.349555" lon="11.401505"><ele>287.0</ele><time>2026-05-01T09:10:14.974Z</time></trkpt><trkpt lat="43.3496767" lon="11.4015067"><ele>287.0</ele><time>2026-05-01T09:10:15.974Z</time></trkpt><trkpt lat="43.3498083" lon="11.4015483"><ele>287.0</ele><time>2026-05-01T09:10:16.974Z</time></trkpt><trkpt lat="43.3499383" lon="11.4015967"><ele>286.0</ele><time>2026-05-01T09:10:17.974Z</time></trkpt><trkpt lat="43.3500567" lon="11.4016233"><ele>285.0</ele><time>2026-05-01T09:10:18.974Z</time></trkpt><trkpt lat="43.3501533" lon="11.40158"><ele>284.0</ele><time>2026-05-01T09:10:19.975Z</time></trkpt><trkpt lat="43.350205" lon="11.4014833"><ele>283.0</ele><time>2026-05-01T09:10:20.975Z</time></trkpt><trkpt lat="43.3502283" lon="11.4013517"><ele>282.0</ele><time>2026-05-01T09:10:21.975Z</time></trkpt><trkpt lat="43.3502" lon="11.4012067"><ele>284.5</ele><time>2026-05-01T09:10:22.974Z</time></trkpt><trkpt lat="43.35012" lon="11.4010617"><ele>287.0</ele><time>2026-05-01T09:10:23.974Z</time></trkpt><trkpt lat="43.3500033" lon="11.4009117"><ele>289.5</ele><time>2026-05-01T09:10:24.974Z</time></trkpt><trkpt lat="43.349885" lon="11.4007767"><ele>292.0</ele><time>2026-05-01T09:10:25.974Z</time></trkpt><trkpt lat="43.349755" lon="11.4006883"><ele>292.66666666666663</ele><time>2026-05-01T09:10:26.975Z</time></trkpt><trkpt lat="43.34962" lon="11.4006567"><ele>293.3333333333333</ele><time>2026-05-01T09:10:27.974Z</time></trkpt><trkpt lat="43.3494683" lon="11.4006683"><ele>294.0</ele><time>2026-05-01T09:10:28.975Z</time></trkpt><trkpt lat="43.3492983" lon="11.4007267"><ele>294.0</ele><time>2026-05-01T09:10:29.975Z</time></trkpt><trkpt lat="43.349125" lon="11.4008317"><ele>294.0</ele><time>2026-05-01T09:10:30.974Z</time></trkpt><trkpt lat="43.3489633" lon="11.4009417"><ele>294.0</ele><time>2026-05-01T09:10:31.975Z</time></trkpt><trkpt lat="43.3488183" lon="11.40102"><ele>295.5</ele><time>2026-05-01T09:10:32.974Z</time></trkpt><trkpt lat="43.3486867" lon="11.40107"><ele>297.0</ele><time>2026-05-01T09:10:33.975Z</time></trkpt><trkpt lat="43.348585" lon="11.40106"><ele>298.5</ele><time>2026-05-01T09:10:34.974Z</time></trkpt><trkpt lat="43.3484867" lon="11.400985"><ele>300.0</ele><time>2026-05-01T09:10:35.975Z</time></trkpt><trkpt lat="43.3483883" lon="11.400865"><ele>300.0</ele><time>2026-05-01T09:10:36.974Z</time></trkpt><trkpt lat="43.348265" lon="11.40072"><ele>300.0</ele><time>2026-05-01T09:10:37.974Z</time></trkpt><trkpt lat="43.3481417" lon="11.4005817"><ele>300.0</ele><time>2026-05-01T09:10:38.974Z</time></trkpt><trkpt lat="43.34801" lon="11.40046"><ele>301.75</ele><time>2026-05-01T09:10:39.974Z</time></trkpt><trkpt lat="43.3478917" lon="11.4003683"><ele>303.5</ele><time>2026-05-01T09:10:40.975Z</time></trkpt><trkpt lat="43.3477867" lon="11.4002883"><ele>305.25</ele><time>2026-05-01T09:10:41.974Z</time></trkpt><trkpt lat="43.3476867" lon="11.400215"><ele>307.0</ele><time>2026-05-01T09:10:42.975Z</time></trkpt><trkpt lat="43.3475883" lon="11.4001517"><ele>307.0</ele><time>2026-05-01T09:10:43.974Z</time></trkpt><trkpt lat="43.3475033" lon="11.4000917"><ele>307.0</ele><time>2026-05-01T09:10:44.974Z</time></trkpt><trkpt lat="43.3474517" lon="11.400015"><ele>307.0</ele><time>2026-05-01T09:10:45.974Z</time></trkpt><trkpt lat="43.34742" lon="11.3999233"><ele>307.0</ele><time>2026-05-01T09:10:46.974Z</time></trkpt><trkpt lat="43.3474117" lon="11.399815"><ele>307.0</ele><time>2026-05-01T09:10:47.974Z</time></trkpt><trkpt lat="43.34742" lon="11.3997"><ele>307.0</ele><time>2026-05-01T09:10:48.975Z</time></trkpt><trkpt lat="43.3474533" lon="11.3995733"><ele>307.16666666666663</ele><time>2026-05-01T09:10:49.974Z</time></trkpt><trkpt lat="43.347505" lon="11.3994733"><ele>307.3333333333333</ele><time>2026-05-01T09:10:50.974Z</time></trkpt><trkpt lat="43.3475583" lon="11.39939"><ele>307.5</ele><time>2026-05-01T09:10:51.974Z</time></trkpt><trkpt lat="43.3476167" lon="11.39932"><ele>307.6666666666667</ele><time>2026-05-01T09:10:52.974Z</time></trkpt><trkpt lat="43.3476933" lon="11.3992583"><ele>307.83333333333337</ele><time>2026-05-01T09:10:53.975Z</time></trkpt><trkpt lat="43.3477783" lon="11.3992067"><ele>308.0</ele><time>2026-05-01T09:10:54.974Z</time></trkpt><trkpt lat="43.3478683" lon="11.3991517"><ele>308.0</ele><time>2026-05-01T09:10:55.974Z</time></trkpt><trkpt lat="43.347955" lon="11.3991067"><ele>308.0</ele><time>2026-05-01T09:10:56.974Z</time></trkpt><trkpt lat="43.3480517" lon="11.3990717"><ele>308.0</ele><time>2026-05-01T09:10:57.975Z</time></trkpt><trkpt lat="43.3481417" lon="11.39904"><ele>308.0</ele><time>2026-05-01T09:10:58.974Z</time></trkpt><trkpt lat="43.3482367" lon="11.399015"><ele>308.0</ele><time>2026-05-01T09:10:59.975Z</time></trkpt><trkpt lat="43.3483183" lon="11.3989983"><ele>308.4</ele><time>2026-05-01T09:11:00.975Z</time></trkpt><trkpt lat="43.3483833" lon="11.3989717"><ele>308.8</ele><time>2026-05-01T09:11:01.975Z</time></trkpt><trkpt lat="43.3484417" lon="11.398885"><ele>309.2</ele><time>2026-05-01T09:11:03.974Z</time></trkpt><trkpt lat="43.3483733" lon="11.39881"><ele>309.6</ele><time>2026-05-01T09:11:09.974Z</time></trkpt><trkpt lat="43.348335" lon="11.398695"><ele>310.0</ele><time>2026-05-01T09:11:14.975Z</time></trkpt><trkpt lat="43.3482533" lon="11.3985483"><ele>309.16666666666663</ele><time>2026-05-01T09:11:16.974Z</time></trkpt><trkpt lat="43.3481983" lon="11.3984833"><ele>308.3333333333333</ele><time>2026-05-01T09:11:17.975Z</time></trkpt><trkpt lat="43.34814" lon="11.3984383"><ele>307.5</ele><time>2026-05-01T09:11:18.974Z</time></trkpt><trkpt lat="43.3480583" lon="11.39847"><ele>306.6666666666667</ele><time>2026-05-01T09:11:20.975Z</time></trkpt><trkpt lat="43.3480033" lon="11.3985183"><ele>305.83333333333337</ele><time>2026-05-01T09:11:21.974Z</time></trkpt><trkpt lat="43.3479267" lon="11.3985733"><ele>305.0</ele><time>2026-05-01T09:11:22.974Z</time></trkpt><trkpt lat="43.3478333" lon="11.3986267"><ele>303.5</ele><time>2026-05-01T09:11:23.974Z</time></trkpt><trkpt lat="43.3477167" lon="11.3986667"><ele>302.0</ele><time>2026-05-01T09:11:24.975Z</time></trkpt><trkpt lat="43.3475833" lon="11.39869"><ele>300.5</ele><time>2026-05-01T09:11:25.974Z</time></trkpt><trkpt lat="43.3474283" lon="11.3987133"><ele>299.0</ele><time>2026-05-01T09:11:26.974Z</time></trkpt><trkpt lat="43.34728" lon="11.3987333"><ele>299.75</ele><time>2026-05-01T09:11:27.974Z</time></trkpt><trkpt lat="43.3471433" lon="11.3987483"><ele>300.5</ele><time>2026-05-01T09:11:28.974Z</time></trkpt><trkpt lat="43.347015" lon="11.3987983"><ele>301.25</ele><time>2026-05-01T09:11:29.975Z</time></trkpt><trkpt lat="43.34689" lon="11.39887"><ele>302.0</ele><time>2026-05-01T09:11:30.975Z</time></trkpt><trkpt lat="43.346785" lon="11.39898"><ele>302.0</ele><time>2026-05-01T09:11:31.975Z</time></trkpt><trkpt lat="43.34669" lon="11.399125"><ele>302.0</ele><time>2026-05-01T09:11:32.975Z</time></trkpt><trkpt lat="43.3465683" lon="11.3993183"><ele>302.0</ele><time>2026-05-01T09:11:33.974Z</time></trkpt><trkpt lat="43.346425" lon="11.3995383"><ele>301.0</ele><time>2026-05-01T09:11:34.975Z</time></trkpt><trkpt lat="43.3462883" lon="11.39976"><ele>300.0</ele><time>2026-05-01T09:11:35.974Z</time></trkpt><trkpt lat="43.3461433" lon="11.3999667"><ele>299.0</ele><time>2026-05-01T09:11:36.974Z</time></trkpt><trkpt lat="43.3460133" lon="11.4001583"><ele>299.0</ele><time>2026-05-01T09:11:37.974Z</time></trkpt><trkpt lat="43.3459033" lon="11.4003267"><ele>299.0</ele><time>2026-05-01T09:11:38.974Z</time></trkpt><trkpt lat="43.3457967" lon="11.4004883"><ele>299.0</ele><time>2026-05-01T09:11:39.974Z</time></trkpt><trkpt lat="43.345705" lon="11.40063"><ele>299.0</ele><time>2026-05-01T09:11:40.974Z</time></trkpt><trkpt lat="43.3456133" lon="11.400765"><ele>299.0</ele><time>2026-05-01T09:11:41.974Z</time></trkpt><trkpt lat="43.3455367" lon="11.4008883"><ele>299.0</ele><time>2026-05-01T09:11:42.975Z</time></trkpt><trkpt lat="43.3454517" lon="11.401005"><ele>299.0</ele><time>2026-05-01T09:11:43.974Z</time></trkpt><trkpt lat="43.3453583" lon="11.4010883"><ele>299.0</ele><time>2026-05-01T09:11:44.974Z</time></trkpt><trkpt lat="43.3452367" lon="11.4011633"><ele>299.0</ele><time>2026-05-01T09:11:45.974Z</time></trkpt><trkpt lat="43.345085" lon="11.401225"><ele>299.0</ele><time>2026-05-01T09:11:46.974Z</time></trkpt><trkpt lat="43.3449383" lon="11.4012767"><ele>299.0</ele><time>2026-05-01T09:11:47.974Z</time></trkpt><trkpt lat="43.3448017" lon="11.4013167"><ele>298.5</ele><time>2026-05-01T09:11:48.974Z</time></trkpt><trkpt lat="43.344675" lon="11.401335"><ele>298.0</ele><time>2026-05-01T09:11:49.974Z</time></trkpt><trkpt lat="43.3445417" lon="11.4013383"><ele>297.5</ele><time>2026-05-01T09:11:50.974Z</time></trkpt><trkpt lat="43.3444283" lon="11.4013283"><ele>297.0</ele><time>2026-05-01T09:11:51.975Z</time></trkpt><trkpt lat="43.344305" lon="11.4013283"><ele>296.0</ele><time>2026-05-01T09:11:52.974Z</time></trkpt><trkpt lat="43.3441817" lon="11.4013583"><ele>295.0</ele><time>2026-05-01T09:11:53.975Z</time></trkpt><trkpt lat="43.3440483" lon="11.401415"><ele>294.0</ele><time>2026-05-01T09:11:54.975Z</time></trkpt><trkpt lat="43.3439033" lon="11.4014917"><ele>293.0</ele><time>2026-05-01T09:11:55.974Z</time></trkpt><trkpt lat="43.3437667" lon="11.401565"><ele>292.75</ele><time>2026-05-01T09:11:56.974Z</time></trkpt><trkpt lat="43.3436483" lon="11.4016333"><ele>292.5</ele><time>2026-05-01T09:11:57.974Z</time></trkpt><trkpt lat="43.343545" lon="11.4016967"><ele>292.25</ele><time>2026-05-01T09:11:58.974Z</time></trkpt><trkpt lat="43.3434467" lon="11.4017767"><ele>292.0</ele><time>2026-05-01T09:11:59.974Z</time></trkpt><trkpt lat="43.343355" lon="11.4018717"><ele>292.0</ele><time>2026-05-01T09:12:00.974Z</time></trkpt><trkpt lat="43.343265" lon="11.4019883"><ele>292.0</ele><time>2026-05-01T09:12:01.974Z</time></trkpt><trkpt lat="43.3431817" lon="11.4021267"><ele>292.0</ele><time>2026-05-01T09:12:02.975Z</time></trkpt><trkpt lat="43.3431183" lon="11.4022833"><ele>292.0</ele><time>2026-05-01T09:12:03.975Z</time></trkpt><trkpt lat="43.3430883" lon="11.4024483"><ele>291.25</ele><time>2026-05-01T09:12:04.975Z</time></trkpt><trkpt lat="43.343075" lon="11.4026333"><ele>290.5</ele><time>2026-05-01T09:12:05.975Z</time></trkpt><trkpt lat="43.343055" lon="11.402825"><ele>289.75</ele><time>2026-05-01T09:12:06.974Z</time></trkpt><trkpt lat="43.3430333" lon="11.402985"><ele>289.0</ele><time>2026-05-01T09:12:07.974Z</time></trkpt><trkpt lat="43.3429983" lon="11.40312"><ele>289.0</ele><time>2026-05-01T09:12:08.974Z</time></trkpt><trkpt lat="43.3429333" lon="11.4032283"><ele>289.0</ele><time>2026-05-01T09:12:09.974Z</time></trkpt><trkpt lat="43.3428483" lon="11.403295"><ele>289.0</ele><time>2026-05-01T09:12:10.975Z</time></trkpt><trkpt lat="43.3427567" lon="11.4033217"><ele>289.0</ele><time>2026-05-01T09:12:11.975Z</time></trkpt><trkpt lat="43.342655" lon="11.403335"><ele>289.0</ele><time>2026-05-01T09:12:12.974Z</time></trkpt><trkpt lat="43.3425483" lon="11.4033583"><ele>289.0</ele><time>2026-05-01T09:12:13.974Z</time></trkpt><trkpt lat="43.34245" lon="11.4034017"><ele>289.0</ele><time>2026-05-01T09:12:14.974Z</time></trkpt><trkpt lat="43.34234" lon="11.40348"><ele>289.0</ele><time>2026-05-01T09:12:15.974Z</time></trkpt><trkpt lat="43.342215" lon="11.4035817"><ele>289.0</ele><time>2026-05-01T09:12:16.974Z</time></trkpt><trkpt lat="43.3420933" lon="11.4037083"><ele>287.3333333333333</ele><time>2026-05-01T09:12:17.974Z</time></trkpt><trkpt lat="43.34198" lon="11.4038517"><ele>285.6666666666667</ele><time>2026-05-01T09:12:18.974Z</time></trkpt><trkpt lat="43.3418533" lon="11.404005"><ele>284.0</ele><time>2026-05-01T09:12:19.975Z</time></trkpt><trkpt lat="43.34172" lon="11.4041567"><ele>284.0</ele><time>2026-05-01T09:12:20.974Z</time></trkpt><trkpt lat="43.341595" lon="11.40429"><ele>284.0</ele><time>2026-05-01T09:12:21.974Z</time></trkpt><trkpt lat="43.3414733" lon="11.4044217"><ele>284.0</ele><time>2026-05-01T09:12:22.975Z</time></trkpt><trkpt lat="43.3413617" lon="11.4045733"><ele>286.0</ele><time>2026-05-01T09:12:23.974Z</time></trkpt><trkpt lat="43.3412583" lon="11.4047583"><ele>288.0</ele><time>2026-05-01T09:12:24.975Z</time></trkpt><trkpt lat="43.3411567" lon="11.40493"><ele>290.0</ele><time>2026-05-01T09:12:25.974Z</time></trkpt><trkpt lat="43.341055" lon="11.4050783"><ele>290.0</ele><time>2026-05-01T09:12:26.975Z</time></trkpt><trkpt lat="43.3409517" lon="11.405205"><ele>290.0</ele><time>2026-05-01T09:12:27.974Z</time></trkpt><trkpt lat="43.3408417" lon="11.40531"><ele>290.0</ele><time>2026-05-01T09:12:28.975Z</time></trkpt><trkpt lat="43.3407067" lon="11.4054083"><ele>290.0</ele><time>2026-05-01T09:12:29.974Z</time></trkpt><trkpt lat="43.3405617" lon="11.4054983"><ele>290.0</ele><time>2026-05-01T09:12:30.975Z</time></trkpt><trkpt lat="43.3403967" lon="11.4055983"><ele>290.0</ele><time>2026-05-01T09:12:31.975Z</time></trkpt><trkpt lat="43.3402283" lon="11.4056983"><ele>290.0</ele><time>2026-05-01T09:12:32.975Z</time></trkpt><trkpt lat="43.3400617" lon="11.405795"><ele>290.0</ele><time>2026-05-01T09:12:33.974Z</time></trkpt><trkpt lat="43.3399083" lon="11.405895"><ele>290.0</ele><time>2026-05-01T09:12:34.974Z</time></trkpt><trkpt lat="43.3397867" lon="11.405965"><ele>290.0</ele><time>2026-05-01T09:12:35.975Z</time></trkpt><trkpt lat="43.339705" lon="11.4060383"><ele>290.0</ele><time>2026-05-01T09:12:36.975Z</time></trkpt><trkpt lat="43.339625" lon="11.4061283"><ele>289.5</ele><time>2026-05-01T09:12:37.974Z</time></trkpt><trkpt lat="43.3395683" lon="11.4062083"><ele>289.0</ele><time>2026-05-01T09:12:38.974Z</time></trkpt><trkpt lat="43.3395267" lon="11.4062933"><ele>288.5</ele><time>2026-05-01T09:12:39.975Z</time></trkpt><trkpt lat="43.3395" lon="11.4063833"><ele>288.0</ele><time>2026-05-01T09:12:40.975Z</time></trkpt><trkpt lat="43.33948" lon="11.40647"><ele>287.5</ele><time>2026-05-01T09:12:41.975Z</time></trkpt><trkpt lat="43.339445" lon="11.4066167"><ele>287.0</ele><time>2026-05-01T09:12:43.974Z</time></trkpt><trkpt lat="43.3393717" lon="11.40666"><ele>287.0</ele><time>2026-05-01T09:28:52.974Z</time></trkpt><trkpt lat="43.33931" lon="11.4067267"><ele>287.0</ele><time>2026-05-01T09:28:54.974Z</time></trkpt><trkpt lat="43.33926" lon="11.40679"><ele>287.0</ele><time>2026-05-01T09:28:55.974Z</time></trkpt><trkpt lat="43.3392033" lon="11.4068567"><ele>287.0</ele><time>2026-05-01T09:28:56.975Z</time></trkpt><trkpt lat="43.33914" lon="11.406935"><ele>287.0</ele><time>2026-05-01T09:28:57.974Z</time></trkpt><trkpt lat="43.33907" lon="11.4070233"><ele>287.0</ele><time>2026-05-01T09:28:58.974Z</time></trkpt><trkpt lat="43.3389967" lon="11.4071217"><ele>287.0</ele><time>2026-05-01T09:28:59.975Z</time></trkpt><trkpt lat="43.3389083" lon="11.40723"><ele>287.0</ele><time>2026-05-01T09:29:00.974Z</time></trkpt><trkpt lat="43.3388133" lon="11.40734"><ele>287.0</ele><time>2026-05-01T09:29:01.974Z</time></trkpt><trkpt lat="43.3387183" lon="11.4074483"><ele>287.0</ele><time>2026-05-01T09:29:02.975Z</time></trkpt><trkpt lat="43.33861" lon="11.4075483"><ele>287.5</ele><time>2026-05-01T09:29:03.974Z</time></trkpt><trkpt lat="43.3384967" lon="11.40764"><ele>288.0</ele><time>2026-05-01T09:29:04.975Z</time></trkpt><trkpt lat="43.338385" lon="11.40772"><ele>288.5</ele><time>2026-05-01T09:29:05.975Z</time></trkpt><trkpt lat="43.33828" lon="11.4077883"><ele>289.0</ele><time>2026-05-01T09:29:06.974Z</time></trkpt><trkpt lat="43.33818" lon="11.4078267"><ele>289.0</ele><time>2026-05-01T09:29:07.974Z</time></trkpt><trkpt lat="43.3380867" lon="11.4078317"><ele>289.0</ele><time>2026-05-01T09:29:08.974Z</time></trkpt><trkpt lat="43.338005" lon="11.4077967"><ele>289.0</ele><time>2026-05-01T09:29:09.975Z</time></trkpt><trkpt lat="43.3379133" lon="11.40773"><ele>289.0</ele><time>2026-05-01T09:29:10.974Z</time></trkpt><trkpt lat="43.3378183" lon="11.4076183"><ele>289.0</ele><time>2026-05-01T09:29:11.975Z</time></trkpt><trkpt lat="43.3377167" lon="11.40751"><ele>289.25</ele><time>2026-05-01T09:29:12.975Z</time></trkpt><trkpt lat="43.3376033" lon="11.4074033"><ele>289.5</ele><time>2026-05-01T09:29:13.975Z</time></trkpt><trkpt lat="43.3374983" lon="11.4072967"><ele>289.75</ele><time>2026-05-01T09:29:14.975Z</time></trkpt><trkpt lat="43.3373933" lon="11.4071933"><ele>290.0</ele><time>2026-05-01T09:29:15.974Z</time></trkpt><trkpt lat="43.3372833" lon="11.4070983"><ele>290.5</ele><time>2026-05-01T09:29:16.974Z</time></trkpt><trkpt lat="43.3371683" lon="11.4070283"><ele>291.0</ele><time>2026-05-01T09:29:17.975Z</time></trkpt><trkpt lat="43.3370267" lon="11.4069467"><ele>291.5</ele><time>2026-05-01T09:29:18.974Z</time></trkpt><trkpt lat="43.336865" lon="11.406875"><ele>292.0</ele><time>2026-05-01T09:29:19.975Z</time></trkpt><trkpt lat="43.3367233" lon="11.406815"><ele>292.0</ele><time>2026-05-01T09:29:20.974Z</time></trkpt><trkpt lat="43.3365717" lon="11.4067567"><ele>292.0</ele><time>2026-05-01T09:29:21.974Z</time></trkpt><trkpt lat="43.33644" lon="11.4067017"><ele>292.0</ele><time>2026-05-01T09:29:22.974Z</time></trkpt><trkpt lat="43.3363083" lon="11.40667"><ele>292.0</ele><time>2026-05-01T09:29:23.975Z</time></trkpt><trkpt lat="43.3361967" lon="11.4066767"><ele>293.75</ele><time>2026-05-01T09:29:24.974Z</time></trkpt><trkpt lat="43.33609" lon="11.4067017"><ele>295.5</ele><time>2026-05-01T09:29:25.975Z</time></trkpt><trkpt lat="43.33599" lon="11.4067633"><ele>297.25</ele><time>2026-05-01T09:29:26.974Z</time></trkpt><trkpt lat="43.3358967" lon="11.40685"><ele>299.0</ele><time>2026-05-01T09:29:27.974Z</time></trkpt><trkpt lat="43.335805" lon="11.406965"><ele>299.0</ele><time>2026-05-01T09:29:28.975Z</time></trkpt><trkpt lat="43.3357233" lon="11.4070683"><ele>299.0</ele><time>2026-05-01T09:29:29.974Z</time></trkpt><trkpt lat="43.335635" lon="11.4071833"><ele>299.0</ele><time>2026-05-01T09:29:30.974Z</time></trkpt><trkpt lat="43.3355433" lon="11.4072717"><ele>299.0</ele><time>2026-05-01T09:29:31.974Z</time></trkpt><trkpt lat="43.33545" lon="11.4073383"><ele>298.5</ele><time>2026-05-01T09:29:32.974Z</time></trkpt><trkpt lat="43.3353467" lon="11.4073783"><ele>298.0</ele><time>2026-05-01T09:29:33.975Z</time></trkpt><trkpt lat="43.335235" lon="11.4073867"><ele>297.5</ele><time>2026-05-01T09:29:34.974Z</time></trkpt><trkpt lat="43.335105" lon="11.4074167"><ele>297.0</ele><time>2026-05-01T09:29:35.975Z</time></trkpt><trkpt lat="43.3349817" lon="11.40744"><ele>297.0</ele><time>2026-05-01T09:29:36.975Z</time></trkpt><trkpt lat="43.33487" lon="11.407465"><ele>297.0</ele><time>2026-05-01T09:29:37.974Z</time></trkpt><trkpt lat="43.3347483" lon="11.407485"><ele>297.0</ele><time>2026-05-01T09:29:38.975Z</time></trkpt><trkpt lat="43.334615" lon="11.407485"><ele>297.0</ele><time>2026-05-01T09:29:39.974Z</time></trkpt><trkpt lat="43.334495" lon="11.40749"><ele>295.6</ele><time>2026-05-01T09:29:40.975Z</time></trkpt><trkpt lat="43.3344017" lon="11.4074817"><ele>294.2</ele><time>2026-05-01T09:29:41.974Z</time></trkpt><trkpt lat="43.3343333" lon="11.4074633"><ele>292.8</ele><time>2026-05-01T09:29:42.975Z</time></trkpt><trkpt lat="43.3342417" lon="11.4073433"><ele>291.4</ele><time>2026-05-01T09:29:44.975Z</time></trkpt><trkpt lat="43.3342183" lon="11.40724"><ele>290.0</ele><time>2026-05-01T09:29:45.974Z</time></trkpt><trkpt lat="43.33421" lon="11.4070917"><ele>289.75</ele><time>2026-05-01T09:29:46.975Z</time></trkpt><trkpt lat="43.334205" lon="11.406905"><ele>289.5</ele><time>2026-05-01T09:29:47.974Z</time></trkpt><trkpt lat="43.3341933" lon="11.4067267"><ele>289.25</ele><time>2026-05-01T09:29:48.975Z</time></trkpt><trkpt lat="43.3341783" lon="11.4065467"><ele>289.0</ele><time>2026-05-01T09:29:49.975Z</time></trkpt><trkpt lat="43.33416" lon="11.406375"><ele>288.4</ele><time>2026-05-01T09:29:50.975Z</time></trkpt><trkpt lat="43.3341367" lon="11.4062167"><ele>287.79999999999995</ele><time>2026-05-01T09:29:51.975Z</time></trkpt><trkpt lat="43.3341117" lon="11.4060617"><ele>287.20000000000005</ele><time>2026-05-01T09:29:52.974Z</time></trkpt><trkpt lat="43.3341" lon="11.40592"><ele>286.6</ele><time>2026-05-01T09:29:53.974Z</time></trkpt><trkpt lat="43.3341" lon="11.405765"><ele>286.0</ele><time>2026-05-01T09:29:54.975Z</time></trkpt><trkpt lat="43.3341033" lon="11.4055883"><ele>284.66666666666663</ele><time>2026-05-01T09:29:55.974Z</time></trkpt><trkpt lat="43.3341167" lon="11.4053933"><ele>283.3333333333333</ele><time>2026-05-01T09:29:56.975Z</time></trkpt><trkpt lat="43.3341333" lon="11.4051717"><ele>282.0</ele><time>2026-05-01T09:29:57.974Z</time></trkpt><trkpt lat="43.3341567" lon="11.40496"><ele>282.0</ele><time>2026-05-01T09:29:58.975Z</time></trkpt><trkpt lat="43.334175" lon="11.404765"><ele>282.0</ele><time>2026-05-01T09:29:59.975Z</time></trkpt><trkpt lat="43.3341883" lon="11.4045767"><ele>282.0</ele><time>2026-05-01T09:30:00.975Z</time></trkpt><trkpt lat="43.3342" lon="11.4044217"><ele>282.0</ele><time>2026-05-01T09:30:01.974Z</time></trkpt><trkpt lat="43.33421" lon="11.4042833"><ele>282.0</ele><time>2026-05-01T09:30:02.975Z</time></trkpt><trkpt lat="43.3342083" lon="11.404165"><ele>282.0</ele><time>2026-05-01T09:30:03.974Z</time></trkpt><trkpt lat="43.3341933" lon="11.4040783"><ele>282.0</ele><time>2026-05-01T09:30:04.975Z</time></trkpt><trkpt lat="43.3341" lon="11.404015"><ele>282.0</ele><time>2026-05-01T09:30:06.974Z</time></trkpt><trkpt lat="43.3339733" lon="11.4040683"><ele>282.0</ele><time>2026-05-01T09:30:08.975Z</time></trkpt><trkpt lat="43.3338817" lon="11.4041217"><ele>281.5</ele><time>2026-05-01T09:30:09.975Z</time></trkpt><trkpt lat="43.3337817" lon="11.404175"><ele>281.0</ele><time>2026-05-01T09:30:10.975Z</time></trkpt><trkpt lat="43.3336683" lon="11.4042183"><ele>280.5</ele><time>2026-05-01T09:30:11.974Z</time></trkpt><trkpt lat="43.3335533" lon="11.4042683"><ele>280.0</ele><time>2026-05-01T09:30:12.974Z</time></trkpt><trkpt lat="43.33343" lon="11.404325"><ele>280.0</ele><time>2026-05-01T09:30:13.974Z</time></trkpt><trkpt lat="43.3333117" lon="11.4043917"><ele>280.0</ele><time>2026-05-01T09:30:14.974Z</time></trkpt><trkpt lat="43.3331983" lon="11.4044567"><ele>280.0</ele><time>2026-05-01T09:30:15.974Z</time></trkpt><trkpt lat="43.3330817" lon="11.4045233"><ele>280.0</ele><time>2026-05-01T09:30:16.974Z</time></trkpt><trkpt lat="43.33295" lon="11.4045933"><ele>279.25</ele><time>2026-05-01T09:30:17.974Z</time></trkpt><trkpt lat="43.3328083" lon="11.404675"><ele>278.5</ele><time>2026-05-01T09:30:18.975Z</time></trkpt><trkpt lat="43.3326717" lon="11.4047467"><ele>277.75</ele><time>2026-05-01T09:30:19.974Z</time></trkpt><trkpt lat="43.33254" lon="11.404815"><ele>277.0</ele><time>2026-05-01T09:30:20.974Z</time></trkpt><trkpt lat="43.3324083" lon="11.4048917"><ele>277.0</ele><time>2026-05-01T09:30:21.974Z</time></trkpt><trkpt lat="43.3322783" lon="11.40496"><ele>277.0</ele><time>2026-05-01T09:30:22.974Z</time></trkpt><trkpt lat="43.332145" lon="11.4050333"><ele>277.0</ele><time>2026-05-01T09:30:23.974Z</time></trkpt><trkpt lat="43.3320033" lon="11.4051017"><ele>277.0</ele><time>2026-05-01T09:30:24.974Z</time></trkpt><trkpt lat="43.3318783" lon="11.4051633"><ele>277.25</ele><time>2026-05-01T09:30:25.975Z</time></trkpt><trkpt lat="43.33174" lon="11.4052067"><ele>277.5</ele><time>2026-05-01T09:30:26.975Z</time></trkpt><trkpt lat="43.3315883" lon="11.4052417"><ele>277.75</ele><time>2026-05-01T09:30:27.974Z</time></trkpt><trkpt lat="43.3314383" lon="11.4052833"><ele>278.0</ele><time>2026-05-01T09:30:28.975Z</time></trkpt><trkpt lat="43.3312767" lon="11.4053217"><ele>276.0</ele><time>2026-05-01T09:30:29.975Z</time></trkpt><trkpt lat="43.33111" lon="11.40537"><ele>274.0</ele><time>2026-05-01T09:30:30.974Z</time></trkpt><trkpt lat="43.3309517" lon="11.4054133"><ele>272.0</ele><time>2026-05-01T09:30:31.974Z</time></trkpt><trkpt lat="43.3308067" lon="11.405455"><ele>271.25</ele><time>2026-05-01T09:30:32.974Z</time></trkpt><trkpt lat="43.33066" lon="11.4054983"><ele>270.5</ele><time>2026-05-01T09:30:33.975Z</time></trkpt><trkpt lat="43.3305183" lon="11.4055467"><ele>269.75</ele><time>2026-05-01T09:30:34.974Z</time></trkpt><trkpt lat="43.3303817" lon="11.4056017"><ele>269.0</ele><time>2026-05-01T09:30:35.974Z</time></trkpt><trkpt lat="43.3302467" lon="11.40566"><ele>267.75</ele><time>2026-05-01T09:30:36.974Z</time></trkpt><trkpt lat="43.3301217" lon="11.405725"><ele>266.5</ele><time>2026-05-01T09:30:37.975Z</time></trkpt><trkpt lat="43.3299933" lon="11.4057967"><ele>265.25</ele><time>2026-05-01T09:30:38.974Z</time></trkpt><trkpt lat="43.329875" lon="11.4058817"><ele>264.0</ele><time>2026-05-01T09:30:39.974Z</time></trkpt><trkpt lat="43.32975" lon="11.4059783"><ele>262.3333333333333</ele><time>2026-05-01T09:30:40.975Z</time></trkpt><trkpt lat="43.3296267" lon="11.4061017"><ele>260.66666666666663</ele><time>2026-05-01T09:30:41.974Z</time></trkpt><trkpt lat="43.3294917" lon="11.40623"><ele>259.0</ele><time>2026-05-01T09:30:42.974Z</time></trkpt><trkpt lat="43.32935" lon="11.4063867"><ele>258.66666666666663</ele><time>2026-05-01T09:30:43.974Z</time></trkpt><trkpt lat="43.32922" lon="11.4065433"><ele>258.3333333333333</ele><time>2026-05-01T09:30:44.974Z</time></trkpt><trkpt lat="43.3290783" lon="11.40672"><ele>258.0</ele><time>2026-05-01T09:30:45.975Z</time></trkpt><trkpt lat="43.3289333" lon="11.406895"><ele>257.6666666666667</ele><time>2026-05-01T09:30:46.974Z</time></trkpt><trkpt lat="43.328775" lon="11.4070767"><ele>257.33333333333337</ele><time>2026-05-01T09:30:47.974Z</time></trkpt><trkpt lat="43.328625" lon="11.40726"><ele>257.0</ele><time>2026-05-01T09:30:48.975Z</time></trkpt><trkpt lat="43.3284733" lon="11.4074483"><ele>255.66666666666669</ele><time>2026-05-01T09:30:49.975Z</time></trkpt><trkpt lat="43.3283367" lon="11.4076217"><ele>254.33333333333331</ele><time>2026-05-01T09:30:50.974Z</time></trkpt><trkpt lat="43.3281983" lon="11.40779"><ele>253.0</ele><time>2026-05-01T09:30:51.975Z</time></trkpt><trkpt lat="43.328065" lon="11.4079467"><ele>253.0</ele><time>2026-05-01T09:30:52.975Z</time></trkpt><trkpt lat="43.3279267" lon="11.4081117"><ele>253.0</ele><time>2026-05-01T09:30:53.975Z</time></trkpt><trkpt lat="43.3277767" lon="11.40828"><ele>253.0</ele><time>2026-05-01T09:30:54.974Z</time></trkpt><trkpt lat="43.3276217" lon="11.40845"><ele>253.0</ele><time>2026-05-01T09:30:55.974Z</time></trkpt><trkpt lat="43.3274783" lon="11.4086067"><ele>253.0</ele><time>2026-05-01T09:30:56.974Z</time></trkpt><trkpt lat="43.327345" lon="11.4087617"><ele>253.0</ele><time>2026-05-01T09:30:57.974Z</time></trkpt><trkpt lat="43.3272217" lon="11.4089033"><ele>250.66666666666666</ele><time>2026-05-01T09:30:58.975Z</time></trkpt><trkpt lat="43.32711" lon="11.4090483"><ele>248.33333333333331</ele><time>2026-05-01T09:30:59.974Z</time></trkpt><trkpt lat="43.3269967" lon="11.40921"><ele>246.0</ele><time>2026-05-01T09:31:00.974Z</time></trkpt><trkpt lat="43.3268967" lon="11.4093733"><ele>246.0</ele><time>2026-05-01T09:31:01.974Z</time></trkpt><trkpt lat="43.3267933" lon="11.409535"><ele>246.0</ele><time>2026-05-01T09:31:02.975Z</time></trkpt><trkpt lat="43.32668" lon="11.409685"><ele>246.0</ele><time>2026-05-01T09:31:03.974Z</time></trkpt><trkpt lat="43.32657" lon="11.409825"><ele>245.25</ele><time>2026-05-01T09:31:04.975Z</time></trkpt><trkpt lat="43.326445" lon="11.4099567"><ele>244.5</ele><time>2026-05-01T09:31:05.974Z</time></trkpt><trkpt lat="43.3263383" lon="11.410085"><ele>243.75</ele><time>2026-05-01T09:31:06.975Z</time></trkpt><trkpt lat="43.3262417" lon="11.410195"><ele>243.0</ele><time>2026-05-01T09:31:07.975Z</time></trkpt><trkpt lat="43.3261617" lon="11.410275"><ele>243.0</ele><time>2026-05-01T09:31:08.974Z</time></trkpt><trkpt lat="43.3260883" lon="11.4103417"><ele>243.0</ele><time>2026-05-01T09:31:09.974Z</time></trkpt><trkpt lat="43.3259783" lon="11.4103317"><ele>243.0</ele><time>2026-05-01T09:31:11.974Z</time></trkpt><trkpt lat="43.32591" lon="11.4101817"><ele>243.0</ele><time>2026-05-01T09:31:13.974Z</time></trkpt><trkpt lat="43.3258867" lon="11.4100717"><ele>243.0</ele><time>2026-05-01T09:31:14.974Z</time></trkpt><trkpt lat="43.3258583" lon="11.40996"><ele>243.0</ele><time>2026-05-01T09:31:15.974Z</time></trkpt><trkpt lat="43.3258433" lon="11.4098367"><ele>243.0</ele><time>2026-05-01T09:31:16.974Z</time></trkpt><trkpt lat="43.32583" lon="11.40971"><ele>243.0</ele><time>2026-05-01T09:31:17.975Z</time></trkpt><trkpt lat="43.3258283" lon="11.4095817"><ele>243.0</ele><time>2026-05-01T09:31:18.975Z</time></trkpt><trkpt lat="43.3258383" lon="11.4094467"><ele>243.0</ele><time>2026-05-01T09:31:19.975Z</time></trkpt><trkpt lat="43.3258567" lon="11.40931"><ele>241.4</ele><time>2026-05-01T09:31:20.974Z</time></trkpt><trkpt lat="43.32586" lon="11.40916"><ele>239.8</ele><time>2026-05-01T09:31:21.975Z</time></trkpt><trkpt lat="43.32585" lon="11.4090133"><ele>238.2</ele><time>2026-05-01T09:31:22.974Z</time></trkpt><trkpt lat="43.32584" lon="11.40887"><ele>236.6</ele><time>2026-05-01T09:31:23.975Z</time></trkpt><trkpt lat="43.3258233" lon="11.4087217"><ele>235.0</ele><time>2026-05-01T09:31:24.975Z</time></trkpt><trkpt lat="43.3258033" lon="11.40857"><ele>234.0</ele><time>2026-05-01T09:31:25.974Z</time></trkpt><trkpt lat="43.3257867" lon="11.408415"><ele>233.0</ele><time>2026-05-01T09:31:26.975Z</time></trkpt><trkpt lat="43.325765" lon="11.4082433"><ele>232.0</ele><time>2026-05-01T09:31:27.974Z</time></trkpt><trkpt lat="43.325745" lon="11.408065"><ele>231.0</ele><time>2026-05-01T09:31:28.974Z</time></trkpt><trkpt lat="43.3257317" lon="11.40788"><ele>230.0</ele><time>2026-05-01T09:31:29.975Z</time></trkpt><trkpt lat="43.3257117" lon="11.4077017"><ele>229.0</ele><time>2026-05-01T09:31:30.975Z</time></trkpt><trkpt lat="43.3256917" lon="11.4075083"><ele>228.0</ele><time>2026-05-01T09:31:31.975Z</time></trkpt><trkpt lat="43.3256767" lon="11.4073167"><ele>227.0</ele><time>2026-05-01T09:31:32.975Z</time></trkpt><trkpt lat="43.32565" lon="11.4071233"><ele>226.0</ele><time>2026-05-01T09:31:33.974Z</time></trkpt><trkpt lat="43.3256217" lon="11.40694"><ele>225.0</ele><time>2026-05-01T09:31:34.975Z</time></trkpt><trkpt lat="43.3255783" lon="11.4067617"><ele>224.0</ele><time>2026-05-01T09:31:35.974Z</time></trkpt><trkpt lat="43.3255217" lon="11.4066033"><ele>223.0</ele><time>2026-05-01T09:31:36.975Z</time></trkpt><trkpt lat="43.3254433" lon="11.40646"><ele>221.5</ele><time>2026-05-01T09:31:37.975Z</time></trkpt><trkpt lat="43.3253683" lon="11.4063167"><ele>220.0</ele><time>2026-05-01T09:31:38.975Z</time></trkpt><trkpt lat="43.325295" lon="11.4061633"><ele>218.5</ele><time>2026-05-01T09:31:39.974Z</time></trkpt><trkpt lat="43.325225" lon="11.4059883"><ele>217.0</ele><time>2026-05-01T09:31:40.974Z</time></trkpt><trkpt lat="43.3251667" lon="11.40581"><ele>217.0</ele><time>2026-05-01T09:31:41.975Z</time></trkpt><trkpt lat="43.3251133" lon="11.40563"><ele>217.0</ele><time>2026-05-01T09:31:42.975Z</time></trkpt><trkpt lat="43.3250667" lon="11.4054533"><ele>217.0</ele><time>2026-05-01T09:31:43.975Z</time></trkpt><trkpt lat="43.32503" lon="11.4052783"><ele>217.0</ele><time>2026-05-01T09:31:44.974Z</time></trkpt><trkpt lat="43.325" lon="11.4051067"><ele>216.5</ele><time>2026-05-01T09:31:45.974Z</time></trkpt><trkpt lat="43.324975" lon="11.4049067"><ele>216.0</ele><time>2026-05-01T09:31:46.974Z</time></trkpt><trkpt lat="43.3249517" lon="11.40471"><ele>215.5</ele><time>2026-05-01T09:31:47.974Z</time></trkpt><trkpt lat="43.3249483" lon="11.40452"><ele>215.0</ele><time>2026-05-01T09:31:48.975Z</time></trkpt><trkpt lat="43.32495" lon="11.404325"><ele>214.66666666666669</ele><time>2026-05-01T09:31:49.974Z</time></trkpt><trkpt lat="43.3249583" lon="11.40412"><ele>214.33333333333331</ele><time>2026-05-01T09:31:50.975Z</time></trkpt><trkpt lat="43.3249567" lon="11.40391"><ele>214.0</ele><time>2026-05-01T09:31:51.974Z</time></trkpt><trkpt lat="43.3249567" lon="11.4036967"><ele>213.33333333333331</ele><time>2026-05-01T09:31:52.974Z</time></trkpt><trkpt lat="43.3249633" lon="11.4034733"><ele>212.66666666666669</ele><time>2026-05-01T09:31:53.975Z</time></trkpt><trkpt lat="43.3249867" lon="11.4032433"><ele>212.0</ele><time>2026-05-01T09:31:54.975Z</time></trkpt><trkpt lat="43.32501" lon="11.40302"><ele>213.0</ele><time>2026-05-01T09:31:55.974Z</time></trkpt><trkpt lat="43.32503" lon="11.402825"><ele>214.0</ele><time>2026-05-01T09:31:56.974Z</time></trkpt><trkpt lat="43.32504" lon="11.4026367"><ele>215.0</ele><time>2026-05-01T09:31:57.974Z</time></trkpt><trkpt lat="43.325045" lon="11.4024383"><ele>216.0</ele><time>2026-05-01T09:31:58.974Z</time></trkpt><trkpt lat="43.3250667" lon="11.40224"><ele>218.5</ele><time>2026-05-01T09:31:59.975Z</time></trkpt><trkpt lat="43.32509" lon="11.402035"><ele>221.0</ele><time>2026-05-01T09:32:00.974Z</time></trkpt><trkpt lat="43.3251033" lon="11.4018417"><ele>223.5</ele><time>2026-05-01T09:32:01.974Z</time></trkpt><trkpt lat="43.3251083" lon="11.40165"><ele>226.0</ele><time>2026-05-01T09:32:02.974Z</time></trkpt><trkpt lat="43.3251067" lon="11.4014567"><ele>227.25</ele><time>2026-05-01T09:32:03.975Z</time></trkpt><trkpt lat="43.3250967" lon="11.40126"><ele>228.5</ele><time>2026-05-01T09:32:04.974Z</time></trkpt><trkpt lat="43.325085" lon="11.4010683"><ele>229.75</ele><time>2026-05-01T09:32:05.975Z</time></trkpt><trkpt lat="43.3250817" lon="11.4008733"><ele>231.0</ele><time>2026-05-01T09:32:06.975Z</time></trkpt><trkpt lat="43.3250983" lon="11.4006817"><ele>231.0</ele><time>2026-05-01T09:32:07.974Z</time></trkpt><trkpt lat="43.3251217" lon="11.4005017"><ele>231.0</ele><time>2026-05-01T09:32:08.974Z</time></trkpt><trkpt lat="43.32515" lon="11.4003383"><ele>231.0</ele><time>2026-05-01T09:32:09.974Z</time></trkpt><trkpt lat="43.325175" lon="11.4001733"><ele>231.0</ele><time>2026-05-01T09:32:10.975Z</time></trkpt><trkpt lat="43.3251933" lon="11.4000067"><ele>232.25</ele><time>2026-05-01T09:32:11.974Z</time></trkpt><trkpt lat="43.3251917" lon="11.3998367"><ele>233.5</ele><time>2026-05-01T09:32:12.975Z</time></trkpt><trkpt lat="43.3251817" lon="11.3996667"><ele>234.75</ele><time>2026-05-01T09:32:13.974Z</time></trkpt><trkpt lat="43.32517" lon="11.3995017"><ele>236.0</ele><time>2026-05-01T09:32:14.974Z</time></trkpt><trkpt lat="43.32516" lon="11.39933"><ele>237.25</ele><time>2026-05-01T09:32:15.974Z</time></trkpt><trkpt lat="43.3251483" lon="11.3991533"><ele>238.5</ele><time>2026-05-01T09:32:16.974Z</time></trkpt><trkpt lat="43.325135" lon="11.3989883"><ele>239.75</ele><time>2026-05-01T09:32:17.974Z</time></trkpt><trkpt lat="43.325125" lon="11.3988167"><ele>241.0</ele><time>2026-05-01T09:32:18.974Z</time></trkpt><trkpt lat="43.3251167" lon="11.39864"><ele>242.5</ele><time>2026-05-01T09:32:19.975Z</time></trkpt><trkpt lat="43.3251067" lon="11.39845"><ele>244.0</ele><time>2026-05-01T09:32:20.975Z</time></trkpt><trkpt lat="43.3250933" lon="11.3982667"><ele>245.5</ele><time>2026-05-01T09:32:21.974Z</time></trkpt><trkpt lat="43.3250933" lon="11.3980933"><ele>247.0</ele><time>2026-05-01T09:32:22.975Z</time></trkpt><trkpt lat="43.3250983" lon="11.39792"><ele>247.5</ele><time>2026-05-01T09:32:23.975Z</time></trkpt><trkpt lat="43.3251183" lon="11.3977667"><ele>248.0</ele><time>2026-05-01T09:32:24.975Z</time></trkpt><trkpt lat="43.3251583" lon="11.39762"><ele>248.5</ele><time>2026-05-01T09:32:25.975Z</time></trkpt><trkpt lat="43.3252183" lon="11.3974567"><ele>249.0</ele><time>2026-05-01T09:32:26.975Z</time></trkpt><trkpt lat="43.3252817" lon="11.3972867"><ele>248.5</ele><time>2026-05-01T09:32:27.975Z</time></trkpt><trkpt lat="43.3253333" lon="11.397115"><ele>248.0</ele><time>2026-05-01T09:32:28.974Z</time></trkpt><trkpt lat="43.3253867" lon="11.39694"><ele>247.5</ele><time>2026-05-01T09:32:29.975Z</time></trkpt><trkpt lat="43.3254433" lon="11.3967583"><ele>247.0</ele><time>2026-05-01T09:32:30.974Z</time></trkpt><trkpt lat="43.3254983" lon="11.39658"><ele>247.0</ele><time>2026-05-01T09:32:31.975Z</time></trkpt><trkpt lat="43.3255417" lon="11.3964067"><ele>247.0</ele><time>2026-05-01T09:32:32.975Z</time></trkpt><trkpt lat="43.3255833" lon="11.3962433"><ele>247.0</ele><time>2026-05-01T09:32:33.975Z</time></trkpt><trkpt lat="43.3256267" lon="11.396085"><ele>247.0</ele><time>2026-05-01T09:32:34.975Z</time></trkpt><trkpt lat="43.3256617" lon="11.3959117"><ele>247.75</ele><time>2026-05-01T09:32:35.975Z</time></trkpt><trkpt lat="43.3256833" lon="11.395705"><ele>248.5</ele><time>2026-05-01T09:32:36.974Z</time></trkpt><trkpt lat="43.3256883" lon="11.3955"><ele>249.25</ele><time>2026-05-01T09:32:37.975Z</time></trkpt><trkpt lat="43.3256933" lon="11.3953067"><ele>250.0</ele><time>2026-05-01T09:32:38.974Z</time></trkpt><trkpt lat="43.3256967" lon="11.39512"><ele>250.66666666666666</ele><time>2026-05-01T09:32:39.974Z</time></trkpt><trkpt lat="43.32569" lon="11.3949067"><ele>251.33333333333331</ele><time>2026-05-01T09:32:40.974Z</time></trkpt><trkpt lat="43.3256767" lon="11.3946917"><ele>252.0</ele><time>2026-05-01T09:32:41.974Z</time></trkpt><trkpt lat="43.3256417" lon="11.3944633"><ele>253.0</ele><time>2026-05-01T09:32:42.974Z</time></trkpt><trkpt lat="43.3255833" lon="11.39423"><ele>254.0</ele><time>2026-05-01T09:32:43.975Z</time></trkpt><trkpt lat="43.3255267" lon="11.3939917"><ele>255.0</ele><time>2026-05-01T09:32:44.975Z</time></trkpt><trkpt lat="43.3254617" lon="11.393765"><ele>256.6666666666667</ele><time>2026-05-01T09:32:45.975Z</time></trkpt><trkpt lat="43.3254" lon="11.3935367"><ele>258.33333333333337</ele><time>2026-05-01T09:32:46.975Z</time></trkpt><trkpt lat="43.32534" lon="11.393315"><ele>260.0</ele><time>2026-05-01T09:32:47.975Z</time></trkpt><trkpt lat="43.3252667" lon="11.3930967"><ele>261.0</ele><time>2026-05-01T09:32:48.974Z</time></trkpt><trkpt lat="43.325195" lon="11.3928983"><ele>262.0</ele><time>2026-05-01T09:32:49.975Z</time></trkpt><trkpt lat="43.325135" lon="11.39273"><ele>263.0</ele><time>2026-05-01T09:32:50.974Z</time></trkpt><trkpt lat="43.3250683" lon="11.3925933"><ele>264.0</ele><time>2026-05-01T09:32:51.974Z</time></trkpt><trkpt lat="43.3249867" lon="11.392515"><ele>264.0</ele><time>2026-05-01T09:32:52.975Z</time></trkpt><trkpt lat="43.324885" lon="11.3924917"><ele>264.0</ele><time>2026-05-01T09:32:53.974Z</time></trkpt><trkpt lat="43.3247683" lon="11.3925133"><ele>264.0</ele><time>2026-05-01T09:32:54.975Z</time></trkpt><trkpt lat="43.3246367" lon="11.39255"><ele>264.0</ele><time>2026-05-01T09:32:55.974Z</time></trkpt><trkpt lat="43.3245283" lon="11.3925533"><ele>264.25</ele><time>2026-05-01T09:32:56.974Z</time></trkpt><trkpt lat="43.3244233" lon="11.39253"><ele>264.5</ele><time>2026-05-01T09:32:57.974Z</time></trkpt><trkpt lat="43.3243" lon="11.3924833"><ele>264.75</ele><time>2026-05-01T09:32:58.975Z</time></trkpt><trkpt lat="43.3241583" lon="11.39241"><ele>265.0</ele><time>2026-05-01T09:32:59.974Z</time></trkpt><trkpt lat="43.3240083" lon="11.3923467"><ele>264.66666666666663</ele><time>2026-05-01T09:33:00.974Z</time></trkpt><trkpt lat="43.3238483" lon="11.3923083"><ele>264.3333333333333</ele><time>2026-05-01T09:33:01.974Z</time></trkpt><trkpt lat="43.3236867" lon="11.3922667"><ele>264.0</ele><time>2026-05-01T09:33:02.975Z</time></trkpt><trkpt lat="43.3235317" lon="11.3922283"><ele>264.0</ele><time>2026-05-01T09:33:03.974Z</time></trkpt><trkpt lat="43.3233783" lon="11.392195"><ele>264.0</ele><time>2026-05-01T09:33:04.975Z</time></trkpt><trkpt lat="43.323235" lon="11.392165"><ele>264.0</ele><time>2026-05-01T09:33:05.974Z</time></trkpt><trkpt lat="43.3230883" lon="11.3921283"><ele>264.0</ele><time>2026-05-01T09:33:06.974Z</time></trkpt><trkpt lat="43.3229383" lon="11.3920783"><ele>261.6666666666667</ele><time>2026-05-01T09:33:07.975Z</time></trkpt><trkpt lat="43.3227783" lon="11.3920367"><ele>259.33333333333337</ele><time>2026-05-01T09:33:08.974Z</time></trkpt><trkpt lat="43.3226317" lon="11.392"><ele>257.0</ele><time>2026-05-01T09:33:09.975Z</time></trkpt><trkpt lat="43.322475" lon="11.391955"><ele>257.0</ele><time>2026-05-01T09:33:10.974Z</time></trkpt><trkpt lat="43.3223283" lon="11.391915"><ele>257.0</ele><time>2026-05-01T09:33:11.974Z</time></trkpt><trkpt lat="43.3221783" lon="11.391875"><ele>257.0</ele><time>2026-05-01T09:33:12.974Z</time></trkpt><trkpt lat="43.3220317" lon="11.391825"><ele>255.66666666666669</ele><time>2026-05-01T09:33:13.974Z</time></trkpt><trkpt lat="43.321885" lon="11.3917767"><ele>254.33333333333331</ele><time>2026-05-01T09:33:14.974Z</time></trkpt><trkpt lat="43.3217317" lon="11.391725"><ele>253.0</ele><time>2026-05-01T09:33:15.974Z</time></trkpt><trkpt lat="43.3215883" lon="11.3916667"><ele>253.0</ele><time>2026-05-01T09:33:16.975Z</time></trkpt><trkpt lat="43.3214417" lon="11.391585"><ele>253.0</ele><time>2026-05-01T09:33:17.974Z</time></trkpt><trkpt lat="43.3213" lon="11.391495"><ele>253.0</ele><time>2026-05-01T09:33:18.974Z</time></trkpt><trkpt lat="43.3211533" lon="11.3913967"><ele>251.0</ele><time>2026-05-01T09:33:19.974Z</time></trkpt><trkpt lat="43.3210067" lon="11.3912983"><ele>249.0</ele><time>2026-05-01T09:33:20.974Z</time></trkpt><trkpt lat="43.320865" lon="11.3912067"><ele>247.0</ele><time>2026-05-01T09:33:21.975Z</time></trkpt><trkpt lat="43.320735" lon="11.3911167"><ele>247.0</ele><time>2026-05-01T09:33:22.974Z</time></trkpt><trkpt lat="43.3206033" lon="11.391045"><ele>247.0</ele><time>2026-05-01T09:33:23.975Z</time></trkpt><trkpt lat="43.3204783" lon="11.390985"><ele>247.0</ele><time>2026-05-01T09:33:24.974Z</time></trkpt><trkpt lat="43.3203617" lon="11.3909517"><ele>247.0</ele><time>2026-05-01T09:33:25.974Z</time></trkpt><trkpt lat="43.3202583" lon="11.39092"><ele>247.0</ele><time>2026-05-01T09:33:26.971Z</time></trkpt><trkpt lat="43.32017" lon="11.39086"><ele>247.0</ele><time>2026-05-01T09:33:27.975Z</time></trkpt><trkpt lat="43.32011" lon="11.3907617"><ele>247.0</ele><time>2026-05-01T09:33:28.975Z</time></trkpt><trkpt lat="43.3200817" lon="11.390625"><ele>247.0</ele><time>2026-05-01T09:33:29.974Z</time></trkpt><trkpt lat="43.32007" lon="11.390455"><ele>247.0</ele><time>2026-05-01T09:33:30.974Z</time></trkpt><trkpt lat="43.3200433" lon="11.3902567"><ele>247.0</ele><time>2026-05-01T09:33:31.974Z</time></trkpt><trkpt lat="43.3200083" lon="11.3900483"><ele>247.0</ele><time>2026-05-01T09:33:32.975Z</time></trkpt><trkpt lat="43.319965" lon="11.3898317"><ele>247.0</ele><time>2026-05-01T09:33:33.974Z</time></trkpt><trkpt lat="43.3199117" lon="11.3896217"><ele>245.66666666666666</ele><time>2026-05-01T09:33:34.975Z</time></trkpt><trkpt lat="43.31985" lon="11.3894017"><ele>244.33333333333331</ele><time>2026-05-01T09:33:35.975Z</time></trkpt><trkpt lat="43.319785" lon="11.389175"><ele>243.0</ele><time>2026-05-01T09:33:36.975Z</time></trkpt><trkpt lat="43.3197217" lon="11.3889433"><ele>238.33333333333331</ele><time>2026-05-01T09:33:37.974Z</time></trkpt><trkpt lat="43.3196667" lon="11.3887017"><ele>233.66666666666666</ele><time>2026-05-01T09:33:38.974Z</time></trkpt><trkpt lat="43.3196167" lon="11.3884583"><ele>229.0</ele><time>2026-05-01T09:33:39.974Z</time></trkpt><trkpt lat="43.3195733" lon="11.3882183"><ele>229.0</ele><time>2026-05-01T09:33:40.974Z</time></trkpt><trkpt lat="43.319535" lon="11.388"><ele>229.0</ele><time>2026-05-01T09:33:41.974Z</time></trkpt><trkpt lat="43.31949" lon="11.3878117"><ele>229.0</ele><time>2026-05-01T09:33:42.975Z</time></trkpt><trkpt lat="43.3194517" lon="11.3876483"><ele>229.0</ele><time>2026-05-01T09:33:43.974Z</time></trkpt><trkpt lat="43.3193833" lon="11.387525"><ele>229.0</ele><time>2026-05-01T09:33:44.974Z</time></trkpt><trkpt lat="43.319285" lon="11.38743"><ele>229.0</ele><time>2026-05-01T09:33:45.975Z</time></trkpt><trkpt lat="43.3191717" lon="11.3873433"><ele>229.0</ele><time>2026-05-01T09:33:46.975Z</time></trkpt><trkpt lat="43.319085" lon="11.3872533"><ele>229.0</ele><time>2026-05-01T09:33:47.975Z</time></trkpt><trkpt lat="43.3190383" lon="11.3871433"><ele>228.5</ele><time>2026-05-01T09:33:48.975Z</time></trkpt><trkpt lat="43.31904" lon="11.3869917"><ele>228.0</ele><time>2026-05-01T09:33:49.974Z</time></trkpt><trkpt lat="43.3190833" lon="11.3868167"><ele>227.5</ele><time>2026-05-01T09:33:50.974Z</time></trkpt><trkpt lat="43.3191417" lon="11.3866633"><ele>227.0</ele><time>2026-05-01T09:33:51.975Z</time></trkpt><trkpt lat="43.3192217" lon="11.3865433"><ele>227.0</ele><time>2026-05-01T09:33:52.974Z</time></trkpt><trkpt lat="43.31933" lon="11.3864567"><ele>227.0</ele><time>2026-05-01T09:33:53.974Z</time></trkpt><trkpt lat="43.3194533" lon="11.3863683"><ele>227.0</ele><time>2026-05-01T09:33:54.975Z</time></trkpt><trkpt lat="43.3195867" lon="11.3862883"><ele>227.0</ele><time>2026-05-01T09:33:55.974Z</time></trkpt><trkpt lat="43.3197217" lon="11.3862117"><ele>225.75</ele><time>2026-05-01T09:33:56.974Z</time></trkpt><trkpt lat="43.3198417" lon="11.3861383"><ele>224.5</ele><time>2026-05-01T09:33:57.974Z</time></trkpt><trkpt lat="43.3199517" lon="11.386055"><ele>223.25</ele><time>2026-05-01T09:33:58.974Z</time></trkpt><trkpt lat="43.3200417" lon="11.3859467"><ele>222.0</ele><time>2026-05-01T09:33:59.975Z</time></trkpt><trkpt lat="43.3201033" lon="11.38581"><ele>222.0</ele><time>2026-05-01T09:34:00.974Z</time></trkpt><trkpt lat="43.320135" lon="11.38564"><ele>222.0</ele><time>2026-05-01T09:34:01.974Z</time></trkpt><trkpt lat="43.3201333" lon="11.3854567"><ele>222.0</ele><time>2026-05-01T09:34:02.975Z</time></trkpt><trkpt lat="43.320125" lon="11.38528"><ele>222.0</ele><time>2026-05-01T09:34:03.974Z</time></trkpt><trkpt lat="43.32014" lon="11.385105"><ele>220.75</ele><time>2026-05-01T09:34:04.974Z</time></trkpt><trkpt lat="43.32019" lon="11.3849417"><ele>219.5</ele><time>2026-05-01T09:34:05.975Z</time></trkpt><trkpt lat="43.32026" lon="11.38479"><ele>218.25</ele><time>2026-05-01T09:34:06.974Z</time></trkpt><trkpt lat="43.3203567" lon="11.3846367"><ele>217.0</ele><time>2026-05-01T09:34:07.974Z</time></trkpt><trkpt lat="43.3204683" lon="11.38449"><ele>215.25</ele><time>2026-05-01T09:34:08.974Z</time></trkpt><trkpt lat="43.3205833" lon="11.3843617"><ele>213.5</ele><time>2026-05-01T09:34:09.975Z</time></trkpt><trkpt lat="43.3206917" lon="11.38423"><ele>211.75</ele><time>2026-05-01T09:34:10.974Z</time></trkpt><trkpt lat="43.3207567" lon="11.3840767"><ele>210.0</ele><time>2026-05-01T09:34:11.974Z</time></trkpt><trkpt lat="43.3207783" lon="11.3839233"><ele>208.0</ele><time>2026-05-01T09:34:12.974Z</time></trkpt><trkpt lat="43.32076" lon="11.3837533"><ele>206.0</ele><time>2026-05-01T09:34:13.975Z</time></trkpt><trkpt lat="43.320715" lon="11.383575"><ele>204.0</ele><time>2026-05-01T09:34:14.975Z</time></trkpt><trkpt lat="43.3206633" lon="11.38337"><ele>202.0</ele><time>2026-05-01T09:34:15.974Z</time></trkpt><trkpt lat="43.3206233" lon="11.383145"><ele>201.0</ele><time>2026-05-01T09:34:16.974Z</time></trkpt><trkpt lat="43.3206" lon="11.3829117"><ele>200.0</ele><time>2026-05-01T09:34:17.974Z</time></trkpt><trkpt lat="43.3205783" lon="11.3826667"><ele>199.0</ele><time>2026-05-01T09:34:18.975Z</time></trkpt><trkpt lat="43.3205467" lon="11.382415"><ele>198.66666666666666</ele><time>2026-05-01T09:34:19.974Z</time></trkpt><trkpt lat="43.3205033" lon="11.3821533"><ele>198.33333333333331</ele><time>2026-05-01T09:34:20.975Z</time></trkpt><trkpt lat="43.3204583" lon="11.3818833"><ele>198.0</ele><time>2026-05-01T09:34:21.975Z</time></trkpt><trkpt lat="43.320415" lon="11.381625"><ele>198.0</ele><time>2026-05-01T09:34:22.974Z</time></trkpt><trkpt lat="43.32037" lon="11.3813867"><ele>198.0</ele><time>2026-05-01T09:34:23.975Z</time></trkpt><trkpt lat="43.32034" lon="11.3811533"><ele>198.0</ele><time>2026-05-01T09:34:24.975Z</time></trkpt><trkpt lat="43.320325" lon="11.38093"><ele>197.66666666666669</ele><time>2026-05-01T09:34:25.974Z</time></trkpt><trkpt lat="43.32034" lon="11.3806917"><ele>197.33333333333334</ele><time>2026-05-01T09:34:26.974Z</time></trkpt><trkpt lat="43.3203733" lon="11.3804567"><ele>197.0</ele><time>2026-05-01T09:34:27.974Z</time></trkpt><trkpt lat="43.3204017" lon="11.380215"><ele>197.0</ele><time>2026-05-01T09:34:28.974Z</time></trkpt><trkpt lat="43.3204317" lon="11.3799783"><ele>197.0</ele><time>2026-05-01T09:34:29.974Z</time></trkpt><trkpt lat="43.3204617" lon="11.3797367"><ele>197.0</ele><time>2026-05-01T09:34:30.974Z</time></trkpt><trkpt lat="43.3204917" lon="11.3794917"><ele>198.0</ele><time>2026-05-01T09:34:31.974Z</time></trkpt><trkpt lat="43.3205217" lon="11.3792517"><ele>199.0</ele><time>2026-05-01T09:34:32.974Z</time></trkpt><trkpt lat="43.3205533" lon="11.379005"><ele>200.0</ele><time>2026-05-01T09:34:33.975Z</time></trkpt><trkpt lat="43.320585" lon="11.3787667"><ele>202.0</ele><time>2026-05-01T09:34:34.975Z</time></trkpt><trkpt lat="43.3206083" lon="11.37853"><ele>204.0</ele><time>2026-05-01T09:34:35.975Z</time></trkpt><trkpt lat="43.3206" lon="11.37829"><ele>206.0</ele><time>2026-05-01T09:34:36.975Z</time></trkpt><trkpt lat="43.320575" lon="11.37804"><ele>208.66666666666669</ele><time>2026-05-01T09:34:37.974Z</time></trkpt><trkpt lat="43.320535" lon="11.37779"><ele>211.33333333333331</ele><time>2026-05-01T09:34:38.974Z</time></trkpt><trkpt lat="43.32049" lon="11.3775383"><ele>214.0</ele><time>2026-05-01T09:34:39.974Z</time></trkpt><trkpt lat="43.32046" lon="11.3773"><ele>217.33333333333331</ele><time>2026-05-01T09:34:40.974Z</time></trkpt><trkpt lat="43.3204383" lon="11.3770717"><ele>220.66666666666669</ele><time>2026-05-01T09:34:41.974Z</time></trkpt><trkpt lat="43.3204233" lon="11.37683"><ele>224.0</ele><time>2026-05-01T09:34:42.975Z</time></trkpt><trkpt lat="43.3204317" lon="11.37658"><ele>223.0</ele><time>2026-05-01T09:34:43.975Z</time></trkpt><trkpt lat="43.320455" lon="11.3763333"><ele>222.0</ele><time>2026-05-01T09:34:44.975Z</time></trkpt><trkpt lat="43.3204767" lon="11.3760967"><ele>221.0</ele><time>2026-05-01T09:34:45.974Z</time></trkpt><trkpt lat="43.3205" lon="11.375875"><ele>221.0</ele><time>2026-05-01T09:34:46.974Z</time></trkpt><trkpt lat="43.3204967" lon="11.37569"><ele>221.0</ele><time>2026-05-01T09:34:47.974Z</time></trkpt><trkpt lat="43.3204517" lon="11.3755267"><ele>221.0</ele><time>2026-05-01T09:34:48.975Z</time></trkpt><trkpt lat="43.3203783" lon="11.3753783"><ele>221.0</ele><time>2026-05-01T09:34:49.974Z</time></trkpt><trkpt lat="43.320295" lon="11.3752417"><ele>221.0</ele><time>2026-05-01T09:34:50.974Z</time></trkpt><trkpt lat="43.3202233" lon="11.375125"><ele>221.0</ele><time>2026-05-01T09:34:51.975Z</time></trkpt><trkpt lat="43.3202" lon="11.3749767"><ele>221.0</ele><time>2026-05-01T09:34:52.975Z</time></trkpt><trkpt lat="43.3202133" lon="11.37482"><ele>221.0</ele><time>2026-05-01T09:34:53.975Z</time></trkpt><trkpt lat="43.32026" lon="11.3746383"><ele>221.0</ele><time>2026-05-01T09:34:54.975Z</time></trkpt><trkpt lat="43.320315" lon="11.3744333"><ele>221.0</ele><time>2026-05-01T09:34:55.974Z</time></trkpt><trkpt lat="43.3203817" lon="11.3742067"><ele>221.0</ele><time>2026-05-01T09:34:56.974Z</time></trkpt><trkpt lat="43.3204483" lon="11.3739833"><ele>223.0</ele><time>2026-05-01T09:34:57.974Z</time></trkpt><trkpt lat="43.3205233" lon="11.3737617"><ele>225.0</ele><time>2026-05-01T09:34:58.975Z</time></trkpt><trkpt lat="43.3205933" lon="11.3735667"><ele>227.0</ele><time>2026-05-01T09:34:59.974Z</time></trkpt><trkpt lat="43.320695" lon="11.3733567"><ele>227.66666666666669</ele><time>2026-05-01T09:35:00.974Z</time></trkpt><trkpt lat="43.320795" lon="11.3731533"><ele>228.33333333333331</ele><time>2026-05-01T09:35:01.974Z</time></trkpt><trkpt lat="43.3208817" lon="11.372975"><ele>229.0</ele><time>2026-05-01T09:35:02.974Z</time></trkpt><trkpt lat="43.3209483" lon="11.3728083"><ele>232.0</ele><time>2026-05-01T09:35:03.974Z</time></trkpt><trkpt lat="43.3209867" lon="11.3726267"><ele>235.0</ele><time>2026-05-01T09:35:04.975Z</time></trkpt><trkpt lat="43.3210283" lon="11.3724267"><ele>238.0</ele><time>2026-05-01T09:35:05.974Z</time></trkpt><trkpt lat="43.321065" lon="11.37221"><ele>241.0</ele><time>2026-05-01T09:35:06.974Z</time></trkpt><trkpt lat="43.32111" lon="11.3719617"><ele>244.0</ele><time>2026-05-01T09:35:07.975Z</time></trkpt><trkpt lat="43.32114" lon="11.3717117"><ele>247.0</ele><time>2026-05-01T09:35:08.974Z</time></trkpt><trkpt lat="43.321165" lon="11.3714617"><ele>248.66666666666666</ele><time>2026-05-01T09:35:09.974Z</time></trkpt><trkpt lat="43.3212" lon="11.37122"><ele>250.33333333333331</ele><time>2026-05-01T09:35:10.974Z</time></trkpt><trkpt lat="43.32125" lon="11.3709867"><ele>252.0</ele><time>2026-05-01T09:35:11.975Z</time></trkpt><trkpt lat="43.3213233" lon="11.370775"><ele>252.0</ele><time>2026-05-01T09:35:12.975Z</time></trkpt><trkpt lat="43.3214033" lon="11.3705533"><ele>252.0</ele><time>2026-05-01T09:35:13.974Z</time></trkpt><trkpt lat="43.3215017" lon="11.370345"><ele>252.0</ele><time>2026-05-01T09:35:14.974Z</time></trkpt><trkpt lat="43.3216117" lon="11.37012"><ele>252.0</ele><time>2026-05-01T09:35:15.974Z</time></trkpt><trkpt lat="43.3217317" lon="11.3698983"><ele>252.0</ele><time>2026-05-01T09:35:16.975Z</time></trkpt><trkpt lat="43.3218267" lon="11.3697"><ele>252.0</ele><time>2026-05-01T09:35:17.974Z</time></trkpt><trkpt lat="43.3219217" lon="11.3695183"><ele>253.8</ele><time>2026-05-01T09:35:18.974Z</time></trkpt><trkpt lat="43.32199" lon="11.3693683"><ele>255.6</ele><time>2026-05-01T09:35:19.974Z</time></trkpt><trkpt lat="43.3220267" lon="11.369265"><ele>257.40000000000003</ele><time>2026-05-01T09:35:20.974Z</time></trkpt><trkpt lat="43.32204" lon="11.3691683"><ele>259.2</ele><time>2026-05-01T09:35:21.974Z</time></trkpt><trkpt lat="43.3219667" lon="11.3691017"><ele>261.0</ele><time>2026-05-01T09:35:23.974Z</time></trkpt><trkpt lat="43.3218667" lon="11.369165"><ele>261.0</ele><time>2026-05-01T09:35:24.974Z</time></trkpt><trkpt lat="43.32175" lon="11.3692683"><ele>261.0</ele><time>2026-05-01T09:35:25.974Z</time></trkpt><trkpt lat="43.321615" lon="11.36936"><ele>261.0</ele><time>2026-05-01T09:35:26.975Z</time></trkpt><trkpt lat="43.32148" lon="11.3693817"><ele>261.0</ele><time>2026-05-01T09:35:27.975Z</time></trkpt><trkpt lat="43.321355" lon="11.36935"><ele>261.5</ele><time>2026-05-01T09:35:28.975Z</time></trkpt><trkpt lat="43.3212467" lon="11.3692317"><ele>262.0</ele><time>2026-05-01T09:35:29.974Z</time></trkpt><trkpt lat="43.3211333" lon="11.3690883"><ele>262.5</ele><time>2026-05-01T09:35:30.974Z</time></trkpt><trkpt lat="43.321035" lon="11.3689683"><ele>263.0</ele><time>2026-05-01T09:35:31.975Z</time></trkpt><trkpt lat="43.3209717" lon="11.3688733"><ele>263.0</ele><time>2026-05-01T09:35:32.974Z</time></trkpt><trkpt lat="43.32094" lon="11.36878"><ele>263.0</ele><time>2026-05-01T09:35:33.974Z</time></trkpt><trkpt lat="43.3209317" lon="11.368675"><ele>263.0</ele><time>2026-05-01T09:35:34.974Z</time></trkpt><trkpt lat="43.3209467" lon="11.3685517"><ele>263.0</ele><time>2026-05-01T09:35:35.975Z</time></trkpt><trkpt lat="43.3209867" lon="11.3684017"><ele>263.0</ele><time>2026-05-01T09:35:36.974Z</time></trkpt><trkpt lat="43.3210283" lon="11.368225"><ele>264.33333333333337</ele><time>2026-05-01T09:35:37.974Z</time></trkpt><trkpt lat="43.321065" lon="11.3680133"><ele>265.6666666666667</ele><time>2026-05-01T09:35:38.974Z</time></trkpt><trkpt lat="43.3210933" lon="11.3677717"><ele>267.0</ele><time>2026-05-01T09:35:39.974Z</time></trkpt><trkpt lat="43.3211133" lon="11.3675283"><ele>267.0</ele><time>2026-05-01T09:35:40.974Z</time></trkpt><trkpt lat="43.3211317" lon="11.367275"><ele>267.0</ele><time>2026-05-01T09:35:41.975Z</time></trkpt><trkpt lat="43.321135" lon="11.3670333"><ele>267.0</ele><time>2026-05-01T09:35:42.974Z</time></trkpt><trkpt lat="43.3211433" lon="11.3668083"><ele>268.0</ele><time>2026-05-01T09:35:43.975Z</time></trkpt><trkpt lat="43.3211317" lon="11.36662"><ele>269.0</ele><time>2026-05-01T09:35:44.975Z</time></trkpt><trkpt lat="43.3211183" lon="11.3664567"><ele>270.0</ele><time>2026-05-01T09:35:45.974Z</time></trkpt><trkpt lat="43.3210933" lon="11.3662883"><ele>271.0</ele><time>2026-05-01T09:35:46.974Z</time></trkpt><trkpt lat="43.32106" lon="11.3661033"><ele>271.0</ele><time>2026-05-01T09:35:47.974Z</time></trkpt><trkpt lat="43.3210283" lon="11.3659183"><ele>271.0</ele><time>2026-05-01T09:35:48.974Z</time></trkpt><trkpt lat="43.3209833" lon="11.365725"><ele>271.0</ele><time>2026-05-01T09:35:49.975Z</time></trkpt><trkpt lat="43.3209183" lon="11.36553"><ele>271.0</ele><time>2026-05-01T09:35:50.974Z</time></trkpt><trkpt lat="43.3208467" lon="11.3653317"><ele>271.25</ele><time>2026-05-01T09:35:51.974Z</time></trkpt><trkpt lat="43.3207717" lon="11.365155"><ele>271.5</ele><time>2026-05-01T09:35:52.974Z</time></trkpt><trkpt lat="43.3206933" lon="11.3649867"><ele>271.75</ele><time>2026-05-01T09:35:53.974Z</time></trkpt><trkpt lat="43.32061" lon="11.36484"><ele>272.0</ele><time>2026-05-01T09:35:54.975Z</time></trkpt><trkpt lat="43.320525" lon="11.3646933"><ele>272.5</ele><time>2026-05-01T09:35:55.974Z</time></trkpt><trkpt lat="43.3204483" lon="11.3645533"><ele>273.0</ele><time>2026-05-01T09:35:56.975Z</time></trkpt><trkpt lat="43.320365" lon="11.3644133"><ele>273.5</ele><time>2026-05-01T09:35:57.974Z</time></trkpt><trkpt lat="43.3202817" lon="11.36426"><ele>274.0</ele><time>2026-05-01T09:35:58.974Z</time></trkpt><trkpt lat="43.3201817" lon="11.36411"><ele>274.0</ele><time>2026-05-01T09:35:59.974Z</time></trkpt><trkpt lat="43.320085" lon="11.3639633"><ele>274.0</ele><time>2026-05-01T09:36:00.974Z</time></trkpt><trkpt lat="43.319985" lon="11.3638033"><ele>274.0</ele><time>2026-05-01T09:36:01.974Z</time></trkpt><trkpt lat="43.3198783" lon="11.3636417"><ele>275.0</ele><time>2026-05-01T09:36:02.975Z</time></trkpt><trkpt lat="43.319775" lon="11.3634783"><ele>276.0</ele><time>2026-05-01T09:36:03.974Z</time></trkpt><trkpt lat="43.3196683" lon="11.3633233"><ele>277.0</ele><time>2026-05-01T09:36:04.975Z</time></trkpt><trkpt lat="43.3195683" lon="11.36317"><ele>275.25</ele><time>2026-05-01T09:36:05.975Z</time></trkpt><trkpt lat="43.3194867" lon="11.3630217"><ele>273.5</ele><time>2026-05-01T09:36:06.974Z</time></trkpt><trkpt lat="43.31944" lon="11.36285"><ele>271.75</ele><time>2026-05-01T09:36:07.974Z</time></trkpt><trkpt lat="43.3193967" lon="11.3626867"><ele>270.0</ele><time>2026-05-01T09:36:08.974Z</time></trkpt><trkpt lat="43.3193317" lon="11.3625383"><ele>270.0</ele><time>2026-05-01T09:36:09.974Z</time></trkpt><trkpt lat="43.3192617" lon="11.36239"><ele>270.0</ele><time>2026-05-01T09:36:10.974Z</time></trkpt><trkpt lat="43.31917" lon="11.3622517"><ele>270.0</ele><time>2026-05-01T09:36:11.975Z</time></trkpt><trkpt lat="43.3190733" lon="11.3621067"><ele>270.0</ele><time>2026-05-01T09:36:12.975Z</time></trkpt><trkpt lat="43.31897" lon="11.36196"><ele>268.6666666666667</ele><time>2026-05-01T09:36:13.974Z</time></trkpt><trkpt lat="43.31887" lon="11.3618083"><ele>267.33333333333337</ele><time>2026-05-01T09:36:14.974Z</time></trkpt><trkpt lat="43.3187783" lon="11.361645"><ele>266.0</ele><time>2026-05-01T09:36:15.975Z</time></trkpt><trkpt lat="43.3187067" lon="11.36146"><ele>263.33333333333337</ele><time>2026-05-01T09:36:16.975Z</time></trkpt><trkpt lat="43.3186383" lon="11.361275"><ele>260.6666666666667</ele><time>2026-05-01T09:36:17.974Z</time></trkpt><trkpt lat="43.3185767" lon="11.36108"><ele>258.0</ele><time>2026-05-01T09:36:18.974Z</time></trkpt><trkpt lat="43.3185033" lon="11.3608817"><ele>258.0</ele><time>2026-05-01T09:36:19.975Z</time></trkpt><trkpt lat="43.3184033" lon="11.360695"><ele>258.0</ele><time>2026-05-01T09:36:20.975Z</time></trkpt><trkpt lat="43.318305" lon="11.3605117"><ele>258.0</ele><time>2026-05-01T09:36:21.974Z</time></trkpt><trkpt lat="43.3182317" lon="11.3603167"><ele>255.66666666666669</ele><time>2026-05-01T09:36:22.974Z</time></trkpt><trkpt lat="43.318155" lon="11.3601367"><ele>253.33333333333334</ele><time>2026-05-01T09:36:23.974Z</time></trkpt><trkpt lat="43.3180567" lon="11.3599667"><ele>251.0</ele><time>2026-05-01T09:36:24.973Z</time></trkpt><trkpt lat="43.31797" lon="11.3598"><ele>248.5</ele><time>2026-05-01T09:36:25.973Z</time></trkpt><trkpt lat="43.3178933" lon="11.359635"><ele>246.0</ele><time>2026-05-01T09:36:26.973Z</time></trkpt><trkpt lat="43.31782" lon="11.359455"><ele>243.5</ele><time>2026-05-01T09:36:27.973Z</time></trkpt><trkpt lat="43.31777" lon="11.3592683"><ele>241.0</ele><time>2026-05-01T09:36:28.974Z</time></trkpt><trkpt lat="43.31774" lon="11.3590667"><ele>241.0</ele><time>2026-05-01T09:36:29.973Z</time></trkpt><trkpt lat="43.3177017" lon="11.3588717"><ele>241.0</ele><time>2026-05-01T09:36:30.973Z</time></trkpt><trkpt lat="43.3176367" lon="11.358705"><ele>241.0</ele><time>2026-05-01T09:36:31.974Z</time></trkpt><trkpt lat="43.31754" lon="11.35856"><ele>241.0</ele><time>2026-05-01T09:36:32.974Z</time></trkpt><trkpt lat="43.317435" lon="11.3584417"><ele>240.0</ele><time>2026-05-01T09:36:33.974Z</time></trkpt><trkpt lat="43.317315" lon="11.35836"><ele>239.0</ele><time>2026-05-01T09:36:34.973Z</time></trkpt><trkpt lat="43.3171833" lon="11.3583133"><ele>238.0</ele><time>2026-05-01T09:36:35.972Z</time></trkpt><trkpt lat="43.31704" lon="11.3583083"><ele>237.0</ele><time>2026-05-01T09:36:36.973Z</time></trkpt><trkpt lat="43.3168983" lon="11.358305"><ele>235.75</ele><time>2026-05-01T09:36:37.974Z</time></trkpt><trkpt lat="43.3167767" lon="11.358245"><ele>234.5</ele><time>2026-05-01T09:36:38.973Z</time></trkpt><trkpt lat="43.3166567" lon="11.3581567"><ele>233.25</ele><time>2026-05-01T09:36:39.973Z</time></trkpt><trkpt lat="43.3165433" lon="11.358045"><ele>232.0</ele><time>2026-05-01T09:36:40.974Z</time></trkpt><trkpt lat="43.31644" lon="11.3578817"><ele>230.75</ele><time>2026-05-01T09:36:41.974Z</time></trkpt><trkpt lat="43.31635" lon="11.3577017"><ele>229.5</ele><time>2026-05-01T09:36:42.973Z</time></trkpt><trkpt lat="43.3162517" lon="11.357545"><ele>228.25</ele><time>2026-05-01T09:36:43.973Z</time></trkpt><trkpt lat="43.3161717" lon="11.3573917"><ele>227.0</ele><time>2026-05-01T09:36:44.973Z</time></trkpt><trkpt lat="43.3161083" lon="11.357215"><ele>226.75</ele><time>2026-05-01T09:36:45.974Z</time></trkpt><trkpt lat="43.316075" lon="11.3570333"><ele>226.5</ele><time>2026-05-01T09:36:46.973Z</time></trkpt><trkpt lat="43.316055" lon="11.356845"><ele>226.25</ele><time>2026-05-01T09:36:47.973Z</time></trkpt><trkpt lat="43.3160417" lon="11.3566667"><ele>226.0</ele><time>2026-05-01T09:36:48.974Z</time></trkpt><trkpt lat="43.3160333" lon="11.35649"><ele>225.8</ele><time>2026-05-01T09:36:49.973Z</time></trkpt><trkpt lat="43.3160217" lon="11.3563483"><ele>225.60000000000002</ele><time>2026-05-01T09:36:50.973Z</time></trkpt><trkpt lat="43.316025" lon="11.3562283"><ele>225.4</ele><time>2026-05-01T09:36:51.973Z</time></trkpt><trkpt lat="43.316045" lon="11.3560983"><ele>225.2</ele><time>2026-05-01T09:36:53.973Z</time></trkpt><trkpt lat="43.3161033" lon="11.3560133"><ele>225.0</ele><time>2026-05-01T09:36:55.973Z</time></trkpt><trkpt lat="43.3162017" lon="11.3558867"><ele>225.00000000000003</ele><time>2026-05-01T09:36:57.973Z</time></trkpt><trkpt lat="43.3162467" lon="11.3558033"><ele>225.0</ele><time>2026-05-01T09:36:58.973Z</time></trkpt><trkpt lat="43.3163017" lon="11.3557283"><ele>225.00000000000003</ele><time>2026-05-01T09:36:59.974Z</time></trkpt><trkpt lat="43.3163433" lon="11.3556567"><ele>225.00000000000003</ele><time>2026-05-01T09:37:00.974Z</time></trkpt><trkpt lat="43.3163783" lon="11.3555733"><ele>225.0</ele><time>2026-05-01T09:37:01.973Z</time></trkpt><trkpt lat="43.3163967" lon="11.3554817"><ele>225.00000000000003</ele><time>2026-05-01T09:37:02.973Z</time></trkpt><trkpt lat="43.3163833" lon="11.35538"><ele>225.00000000000003</ele><time>2026-05-01T09:37:03.974Z</time></trkpt><trkpt lat="43.31635" lon="11.3552917"><ele>225.0</ele><time>2026-05-01T09:37:04.974Z</time></trkpt><trkpt lat="43.3162917" lon="11.3552333"><ele>225.0</ele><time>2026-05-01T09:37:05.974Z</time></trkpt><trkpt lat="43.3162267" lon="11.3552133"><ele>225.0</ele><time>2026-05-01T09:37:06.974Z</time></trkpt><trkpt lat="43.3161167" lon="11.3552883"><ele>225.0</ele><time>2026-05-01T09:37:08.973Z</time></trkpt><trkpt lat="43.31608" lon="11.3553817"><ele>225.0</ele><time>2026-05-01T09:37:09.974Z</time></trkpt><trkpt lat="43.3160567" lon="11.3555183"><ele>225.0</ele><time>2026-05-01T09:37:10.973Z</time></trkpt><trkpt lat="43.31603" lon="11.355675"><ele>225.0</ele><time>2026-05-01T09:37:11.973Z</time></trkpt><trkpt lat="43.315995" lon="11.35579"><ele>225.0</ele><time>2026-05-01T09:37:12.973Z</time></trkpt><trkpt lat="43.31595" lon="11.355885"><ele>225.0</ele><time>2026-05-01T09:37:13.974Z</time></trkpt><trkpt lat="43.3159033" lon="11.3559533"><ele>225.0</ele><time>2026-05-01T09:37:14.973Z</time></trkpt><trkpt lat="43.3158167" lon="11.3559817"><ele>225.0</ele><time>2026-05-01T09:37:16.973Z</time></trkpt><trkpt lat="43.3157367" lon="11.355935"><ele>225.0</ele><time>2026-05-01T09:37:53.974Z</time></trkpt><trkpt lat="43.3156683" lon="11.3559217"><ele>225.0</ele><time>2026-05-01T09:37:54.974Z</time></trkpt><trkpt lat="43.3155767" lon="11.3558867"><ele>225.0</ele><time>2026-05-01T09:37:55.974Z</time></trkpt><trkpt lat="43.3154617" lon="11.3558517"><ele>225.0</ele><time>2026-05-01T09:37:56.973Z</time></trkpt><trkpt lat="43.3153583" lon="11.3558267"><ele>225.0</ele><time>2026-05-01T09:37:57.973Z</time></trkpt><trkpt lat="43.315255" lon="11.3558167"><ele>225.0</ele><time>2026-05-01T09:37:58.973Z</time></trkpt><trkpt lat="43.3151633" lon="11.3558433"><ele>226.0</ele><time>2026-05-01T09:37:59.974Z</time></trkpt><trkpt lat="43.31506" lon="11.3559283"><ele>227.0</ele><time>2026-05-01T09:38:00.974Z</time></trkpt><trkpt lat="43.31495" lon="11.3560383"><ele>228.0</ele><time>2026-05-01T09:38:01.974Z</time></trkpt><trkpt lat="43.3148317" lon="11.3561483"><ele>229.0</ele><time>2026-05-01T09:38:02.973Z</time></trkpt><trkpt lat="43.3147267" lon="11.3562467"><ele>229.66666666666666</ele><time>2026-05-01T09:38:03.974Z</time></trkpt><trkpt lat="43.314625" lon="11.3563433"><ele>230.33333333333331</ele><time>2026-05-01T09:38:04.973Z</time></trkpt><trkpt lat="43.31455" lon="11.3563867"><ele>231.0</ele><time>2026-05-01T09:38:05.973Z</time></trkpt><trkpt lat="43.3144767" lon="11.3563817"><ele>231.66666666666669</ele><time>2026-05-01T09:38:06.974Z</time></trkpt><trkpt lat="43.3144317" lon="11.35632"><ele>232.33333333333334</ele><time>2026-05-01T09:38:07.973Z</time></trkpt><trkpt lat="43.31442" lon="11.356215"><ele>233.0</ele><time>2026-05-01T09:38:08.973Z</time></trkpt><trkpt lat="43.3144567" lon="11.3560783"><ele>235.5</ele><time>2026-05-01T09:38:09.974Z</time></trkpt><trkpt lat="43.3145233" lon="11.3559133"><ele>238.0</ele><time>2026-05-01T09:38:10.974Z</time></trkpt><trkpt lat="43.314585" lon="11.3557383"><ele>240.5</ele><time>2026-05-01T09:38:11.973Z</time></trkpt><trkpt lat="43.3146183" lon="11.3555467"><ele>243.0</ele><time>2026-05-01T09:38:12.973Z</time></trkpt><trkpt lat="43.314645" lon="11.3553483"><ele>245.75</ele><time>2026-05-01T09:38:13.973Z</time></trkpt><trkpt lat="43.3146717" lon="11.3551533"><ele>248.5</ele><time>2026-05-01T09:38:14.973Z</time></trkpt><trkpt lat="43.3146783" lon="11.35495"><ele>251.25</ele><time>2026-05-01T09:38:15.973Z</time></trkpt><trkpt lat="43.3146717" lon="11.35476"><ele>254.0</ele><time>2026-05-01T09:38:16.974Z</time></trkpt><trkpt lat="43.314635" lon="11.3545817"><ele>255.25</ele><time>2026-05-01T09:38:17.973Z</time></trkpt><trkpt lat="43.3145817" lon="11.3544317"><ele>256.5</ele><time>2026-05-01T09:38:18.974Z</time></trkpt><trkpt lat="43.3145" lon="11.3542967"><ele>257.75</ele><time>2026-05-01T09:38:19.973Z</time></trkpt><trkpt lat="43.3144017" lon="11.3541817"><ele>259.0</ele><time>2026-05-01T09:38:20.974Z</time></trkpt><trkpt lat="43.314325" lon="11.3540567"><ele>259.0</ele><time>2026-05-01T09:38:21.973Z</time></trkpt><trkpt lat="43.3142767" lon="11.3539167"><ele>259.0</ele><time>2026-05-01T09:38:22.974Z</time></trkpt><trkpt lat="43.3142133" lon="11.353775"><ele>259.0</ele><time>2026-05-01T09:38:23.973Z</time></trkpt><trkpt lat="43.31413" lon="11.3536333"><ele>259.0</ele><time>2026-05-01T09:38:24.973Z</time></trkpt><trkpt lat="43.3140233" lon="11.3535033"><ele>264.3333333333333</ele><time>2026-05-01T09:38:25.974Z</time></trkpt><trkpt lat="43.313905" lon="11.3533683"><ele>269.6666666666667</ele><time>2026-05-01T09:38:26.974Z</time></trkpt><trkpt lat="43.3137817" lon="11.3532217"><ele>275.0</ele><time>2026-05-01T09:38:27.973Z</time></trkpt><trkpt lat="43.3136617" lon="11.35309"><ele>273.0</ele><time>2026-05-01T09:38:28.973Z</time></trkpt><trkpt lat="43.31355" lon="11.352945"><ele>271.0</ele><time>2026-05-01T09:38:29.973Z</time></trkpt><trkpt lat="43.3134567" lon="11.3527917"><ele>269.0</ele><time>2026-05-01T09:38:30.973Z</time></trkpt><trkpt lat="43.3133433" lon="11.3526133"><ele>269.0</ele><time>2026-05-01T09:38:31.973Z</time></trkpt><trkpt lat="43.3132483" lon="11.3524367"><ele>269.0</ele><time>2026-05-01T09:38:32.973Z</time></trkpt><trkpt lat="43.3131733" lon="11.3522667"><ele>269.0</ele><time>2026-05-01T09:38:33.973Z</time></trkpt><trkpt lat="43.3131" lon="11.35215"><ele>269.0</ele><time>2026-05-01T09:38:34.974Z</time></trkpt><trkpt lat="43.3130383" lon="11.352025"><ele>270.75</ele><time>2026-05-01T09:38:35.973Z</time></trkpt><trkpt lat="43.312975" lon="11.3518817"><ele>272.5</ele><time>2026-05-01T09:38:36.973Z</time></trkpt><trkpt lat="43.3129283" lon="11.35172"><ele>274.25</ele><time>2026-05-01T09:38:37.973Z</time></trkpt><trkpt lat="43.312875" lon="11.3515333"><ele>276.0</ele><time>2026-05-01T09:38:38.973Z</time></trkpt><trkpt lat="43.312835" lon="11.351335"><ele>277.25</ele><time>2026-05-01T09:38:39.974Z</time></trkpt><trkpt lat="43.3128033" lon="11.351145"><ele>278.5</ele><time>2026-05-01T09:38:40.973Z</time></trkpt><trkpt lat="43.3127717" lon="11.35097"><ele>279.75</ele><time>2026-05-01T09:38:41.974Z</time></trkpt><trkpt lat="43.3127267" lon="11.3508017"><ele>281.0</ele><time>2026-05-01T09:38:42.973Z</time></trkpt><trkpt lat="43.31268" lon="11.3506333"><ele>280.5</ele><time>2026-05-01T09:38:43.973Z</time></trkpt><trkpt lat="43.3126367" lon="11.3504617"><ele>280.0</ele><time>2026-05-01T09:38:44.974Z</time></trkpt><trkpt lat="43.3125833" lon="11.3503017"><ele>279.5</ele><time>2026-05-01T09:38:45.973Z</time></trkpt><trkpt lat="43.3125333" lon="11.3501567"><ele>279.0</ele><time>2026-05-01T09:38:46.974Z</time></trkpt><trkpt lat="43.3124967" lon="11.35003"><ele>279.0</ele><time>2026-05-01T09:38:47.974Z</time></trkpt><trkpt lat="43.3124967" lon="11.3499217"><ele>279.0</ele><time>2026-05-01T09:38:48.973Z</time></trkpt><trkpt lat="43.312505" lon="11.349815"><ele>279.0</ele><time>2026-05-01T09:38:49.974Z</time></trkpt><trkpt lat="43.31254" lon="11.349705"><ele>279.0</ele><time>2026-05-01T09:38:50.974Z</time></trkpt><trkpt lat="43.3125917" lon="11.349585"><ele>279.0</ele><time>2026-05-01T09:38:51.973Z</time></trkpt><trkpt lat="43.3126533" lon="11.3494567"><ele>278.0</ele><time>2026-05-01T09:38:52.974Z</time></trkpt><trkpt lat="43.312705" lon="11.3493167"><ele>277.0</ele><time>2026-05-01T09:38:53.973Z</time></trkpt><trkpt lat="43.3127417" lon="11.3491817"><ele>276.0</ele><time>2026-05-01T09:38:54.973Z</time></trkpt><trkpt lat="43.31275" lon="11.3490533"><ele>275.0</ele><time>2026-05-01T09:38:55.973Z</time></trkpt><trkpt lat="43.3127483" lon="11.3489117"><ele>274.0</ele><time>2026-05-01T09:38:56.973Z</time></trkpt><trkpt lat="43.31273" lon="11.34879"><ele>273.0</ele><time>2026-05-01T09:38:57.973Z</time></trkpt><trkpt lat="43.3127" lon="11.348665"><ele>272.0</ele><time>2026-05-01T09:38:58.973Z</time></trkpt><trkpt lat="43.312645" lon="11.34852"><ele>271.0</ele><time>2026-05-01T09:38:59.973Z</time></trkpt><trkpt lat="43.3125783" lon="11.3483783"><ele>270.0</ele><time>2026-05-01T09:39:00.974Z</time></trkpt><trkpt lat="43.3125" lon="11.3482567"><ele>270.0</ele><time>2026-05-01T09:39:01.974Z</time></trkpt><trkpt lat="43.3124233" lon="11.3481533"><ele>270.0</ele><time>2026-05-01T09:39:02.973Z</time></trkpt><trkpt lat="43.312355" lon="11.3480683"><ele>270.0</ele><time>2026-05-01T09:39:03.973Z</time></trkpt><trkpt lat="43.3122783" lon="11.348"><ele>270.0</ele><time>2026-05-01T09:39:05.973Z</time></trkpt><trkpt lat="43.31222" lon="11.3480583"><ele>270.0</ele><time>2026-05-01T09:39:07.973Z</time></trkpt><trkpt lat="43.31217" lon="11.348185"><ele>268.75</ele><time>2026-05-01T09:39:09.973Z</time></trkpt><trkpt lat="43.31213" lon="11.34828"><ele>267.5</ele><time>2026-05-01T09:39:10.973Z</time></trkpt><trkpt lat="43.312075" lon="11.3484167"><ele>266.25</ele><time>2026-05-01T09:39:11.974Z</time></trkpt><trkpt lat="43.3120167" lon="11.3485917"><ele>265.0</ele><time>2026-05-01T09:39:12.974Z</time></trkpt><trkpt lat="43.3119667" lon="11.3487817"><ele>264.25</ele><time>2026-05-01T09:39:13.974Z</time></trkpt><trkpt lat="43.3119167" lon="11.34897"><ele>263.5</ele><time>2026-05-01T09:39:14.974Z</time></trkpt><trkpt lat="43.3118633" lon="11.3491483"><ele>262.75</ele><time>2026-05-01T09:39:15.973Z</time></trkpt><trkpt lat="43.3118067" lon="11.3493117"><ele>262.0</ele><time>2026-05-01T09:39:16.974Z</time></trkpt><trkpt lat="43.3117283" lon="11.3494617"><ele>262.0</ele><time>2026-05-01T09:39:17.974Z</time></trkpt><trkpt lat="43.3116383" lon="11.3495867"><ele>262.0</ele><time>2026-05-01T09:39:18.973Z</time></trkpt><trkpt lat="43.3115233" lon="11.3496933"><ele>262.0</ele><time>2026-05-01T09:39:19.973Z</time></trkpt><trkpt lat="43.3113967" lon="11.3497883"><ele>262.0</ele><time>2026-05-01T09:39:20.974Z</time></trkpt><trkpt lat="43.31127" lon="11.34987"><ele>262.0</ele><time>2026-05-01T09:39:21.973Z</time></trkpt><trkpt lat="43.3111517" lon="11.3499283"><ele>262.0</ele><time>2026-05-01T09:39:22.973Z</time></trkpt><trkpt lat="43.3110383" lon="11.3499733"><ele>262.0</ele><time>2026-05-01T09:39:23.973Z</time></trkpt><trkpt lat="43.310925" lon="11.3500083"><ele>262.0</ele><time>2026-05-01T09:39:24.974Z</time></trkpt><trkpt lat="43.3108267" lon="11.350035"><ele>262.0</ele><time>2026-05-01T09:39:25.974Z</time></trkpt><trkpt lat="43.310735" lon="11.350065"><ele>262.0</ele><time>2026-05-01T09:39:26.973Z</time></trkpt><trkpt lat="43.3106417" lon="11.3501017"><ele>262.0</ele><time>2026-05-01T09:39:27.973Z</time></trkpt><trkpt lat="43.3105567" lon="11.3501467"><ele>262.0</ele><time>2026-05-01T09:39:28.974Z</time></trkpt><trkpt lat="43.3104783" lon="11.3502133"><ele>262.0</ele><time>2026-05-01T09:39:29.974Z</time></trkpt><trkpt lat="43.3104083" lon="11.350265"><ele>262.0</ele><time>2026-05-01T09:39:30.974Z</time></trkpt><trkpt lat="43.31034" lon="11.35032"><ele>262.0</ele><time>2026-05-01T09:39:31.974Z</time></trkpt><trkpt lat="43.310285" lon="11.3503867"><ele>262.0</ele><time>2026-05-01T09:39:32.974Z</time></trkpt><trkpt lat="43.3102233" lon="11.3504717"><ele>262.0</ele><time>2026-05-01T09:39:33.974Z</time></trkpt><trkpt lat="43.3101717" lon="11.3505417"><ele>262.0</ele><time>2026-05-01T09:39:34.974Z</time></trkpt><trkpt lat="43.3101117" lon="11.3506183"><ele>262.0</ele><time>2026-05-01T09:39:35.973Z</time></trkpt><trkpt lat="43.3100433" lon="11.3507117"><ele>261.8</ele><time>2026-05-01T09:39:36.973Z</time></trkpt><trkpt lat="43.3099783" lon="11.3507967"><ele>261.6</ele><time>2026-05-01T09:39:37.973Z</time></trkpt><trkpt lat="43.30992" lon="11.3508783"><ele>261.40000000000003</ele><time>2026-05-01T09:39:38.973Z</time></trkpt><trkpt lat="43.3098583" lon="11.350965"><ele>261.2</ele><time>2026-05-01T09:39:39.974Z</time></trkpt><trkpt lat="43.3097933" lon="11.3510683"><ele>261.0</ele><time>2026-05-01T09:39:40.973Z</time></trkpt><trkpt lat="43.3097383" lon="11.3511933"><ele>262.0</ele><time>2026-05-01T09:39:41.974Z</time></trkpt><trkpt lat="43.30969" lon="11.351325"><ele>263.0</ele><time>2026-05-01T09:39:42.974Z</time></trkpt><trkpt lat="43.3096483" lon="11.3514833"><ele>264.0</ele><time>2026-05-01T09:39:43.974Z</time></trkpt><trkpt lat="43.3096083" lon="11.3516617"><ele>265.0</ele><time>2026-05-01T09:39:44.974Z</time></trkpt><trkpt lat="43.3095617" lon="11.3518533"><ele>265.0</ele><time>2026-05-01T09:39:45.974Z</time></trkpt><trkpt lat="43.309525" lon="11.3520467"><ele>265.0</ele><time>2026-05-01T09:39:46.973Z</time></trkpt><trkpt lat="43.30949" lon="11.35224"><ele>265.0</ele><time>2026-05-01T09:39:47.974Z</time></trkpt><trkpt lat="43.3094533" lon="11.3524483"><ele>265.0</ele><time>2026-05-01T09:39:48.973Z</time></trkpt><trkpt lat="43.3094233" lon="11.3526433"><ele>265.0</ele><time>2026-05-01T09:39:49.973Z</time></trkpt><trkpt lat="43.3093917" lon="11.35285"><ele>265.0</ele><time>2026-05-01T09:39:50.973Z</time></trkpt><trkpt lat="43.309355" lon="11.3530533"><ele>265.0</ele><time>2026-05-01T09:39:51.974Z</time></trkpt><trkpt lat="43.309325" lon="11.3532433"><ele>265.0</ele><time>2026-05-01T09:39:52.974Z</time></trkpt><trkpt lat="43.3092867" lon="11.3534117"><ele>265.0</ele><time>2026-05-01T09:39:53.973Z</time></trkpt><trkpt lat="43.3092633" lon="11.353585"><ele>265.0</ele><time>2026-05-01T09:39:54.973Z</time></trkpt><trkpt lat="43.3092483" lon="11.353765"><ele>265.0</ele><time>2026-05-01T09:39:55.973Z</time></trkpt><trkpt lat="43.30924" lon="11.3539767"><ele>265.0</ele><time>2026-05-01T09:39:56.973Z</time></trkpt><trkpt lat="43.3092333" lon="11.3541933"><ele>264.3333333333333</ele><time>2026-05-01T09:39:57.973Z</time></trkpt><trkpt lat="43.3092283" lon="11.35441"><ele>263.6666666666667</ele><time>2026-05-01T09:39:58.973Z</time></trkpt><trkpt lat="43.3092233" lon="11.354615"><ele>263.0</ele><time>2026-05-01T09:39:59.973Z</time></trkpt><trkpt lat="43.3092317" lon="11.3548183"><ele>263.0</ele><time>2026-05-01T09:40:00.974Z</time></trkpt><trkpt lat="43.30924" lon="11.3550233"><ele>263.0</ele><time>2026-05-01T09:40:01.974Z</time></trkpt><trkpt lat="43.30927" lon="11.355205"><ele>263.0</ele><time>2026-05-01T09:40:02.974Z</time></trkpt><trkpt lat="43.3093" lon="11.355395"><ele>263.0</ele><time>2026-05-01T09:40:03.973Z</time></trkpt><trkpt lat="43.3093433" lon="11.35557"><ele>262.5</ele><time>2026-05-01T09:40:04.973Z</time></trkpt><trkpt lat="43.309385" lon="11.35576"><ele>262.0</ele><time>2026-05-01T09:40:05.974Z</time></trkpt><trkpt lat="43.3094367" lon="11.3559517"><ele>261.5</ele><time>2026-05-01T09:40:06.973Z</time></trkpt><trkpt lat="43.3094817" lon="11.3561417"><ele>261.0</ele><time>2026-05-01T09:40:07.973Z</time></trkpt><trkpt lat="43.309515" lon="11.35633"><ele>259.5</ele><time>2026-05-01T09:40:08.974Z</time></trkpt><trkpt lat="43.3095217" lon="11.3565267"><ele>258.0</ele><time>2026-05-01T09:40:09.974Z</time></trkpt><trkpt lat="43.3095067" lon="11.3567"><ele>256.5</ele><time>2026-05-01T09:40:10.973Z</time></trkpt><trkpt lat="43.3094667" lon="11.3568867"><ele>255.0</ele><time>2026-05-01T09:40:11.973Z</time></trkpt><trkpt lat="43.3094217" lon="11.3570667"><ele>254.5</ele><time>2026-05-01T09:40:12.974Z</time></trkpt><trkpt lat="43.3093567" lon="11.3572367"><ele>254.0</ele><time>2026-05-01T09:40:13.973Z</time></trkpt><trkpt lat="43.3092667" lon="11.3573833"><ele>253.5</ele><time>2026-05-01T09:40:14.973Z</time></trkpt><trkpt lat="43.309145" lon="11.3575117"><ele>253.0</ele><time>2026-05-01T09:40:15.974Z</time></trkpt><trkpt lat="43.3090083" lon="11.35764"><ele>250.66666666666666</ele><time>2026-05-01T09:40:16.973Z</time></trkpt><trkpt lat="43.3088683" lon="11.35776"><ele>248.33333333333331</ele><time>2026-05-01T09:40:17.974Z</time></trkpt><trkpt lat="43.3087367" lon="11.35789"><ele>246.0</ele><time>2026-05-01T09:40:18.973Z</time></trkpt><trkpt lat="43.3086" lon="11.3580217"><ele>246.33333333333331</ele><time>2026-05-01T09:40:19.973Z</time></trkpt><trkpt lat="43.3084667" lon="11.358135"><ele>246.66666666666666</ele><time>2026-05-01T09:40:20.973Z</time></trkpt><trkpt lat="43.3083317" lon="11.3582367"><ele>247.0</ele><time>2026-05-01T09:40:21.973Z</time></trkpt><trkpt lat="43.3082" lon="11.3583367"><ele>247.0</ele><time>2026-05-01T09:40:22.973Z</time></trkpt><trkpt lat="43.3080783" lon="11.358435"><ele>247.0</ele><time>2026-05-01T09:40:23.974Z</time></trkpt><trkpt lat="43.30795" lon="11.3585533"><ele>247.0</ele><time>2026-05-01T09:40:24.973Z</time></trkpt><trkpt lat="43.3078167" lon="11.3587117"><ele>244.0</ele><time>2026-05-01T09:40:25.974Z</time></trkpt><trkpt lat="43.3076783" lon="11.3588883"><ele>241.0</ele><time>2026-05-01T09:40:26.973Z</time></trkpt><trkpt lat="43.3075267" lon="11.3590767"><ele>238.0</ele><time>2026-05-01T09:40:27.974Z</time></trkpt><trkpt lat="43.30735" lon="11.3592883"><ele>239.0</ele><time>2026-05-01T09:40:28.973Z</time></trkpt><trkpt lat="43.307175" lon="11.3595"><ele>240.0</ele><time>2026-05-01T09:40:29.974Z</time></trkpt><trkpt lat="43.3070117" lon="11.3596833"><ele>241.0</ele><time>2026-05-01T09:40:30.973Z</time></trkpt><trkpt lat="43.3068667" lon="11.3598633"><ele>241.0</ele><time>2026-05-01T09:40:31.973Z</time></trkpt><trkpt lat="43.3067467" lon="11.3600367"><ele>241.0</ele><time>2026-05-01T09:40:32.974Z</time></trkpt><trkpt lat="43.306635" lon="11.3602217"><ele>241.0</ele><time>2026-05-01T09:40:33.973Z</time></trkpt><trkpt lat="43.3065117" lon="11.36041"><ele>244.66666666666666</ele><time>2026-05-01T09:40:34.973Z</time></trkpt><trkpt lat="43.306395" lon="11.3605733"><ele>248.33333333333331</ele><time>2026-05-01T09:40:35.973Z</time></trkpt><trkpt lat="43.3062767" lon="11.3607333"><ele>252.0</ele><time>2026-05-01T09:40:36.973Z</time></trkpt><trkpt lat="43.30618" lon="11.360895"><ele>252.0</ele><time>2026-05-01T09:40:37.973Z</time></trkpt><trkpt lat="43.3061133" lon="11.36105"><ele>252.0</ele><time>2026-05-01T09:40:38.974Z</time></trkpt><trkpt lat="43.3060583" lon="11.3611883"><ele>252.0</ele><time>2026-05-01T09:40:39.973Z</time></trkpt><trkpt lat="43.30601" lon="11.3613033"><ele>252.0</ele><time>2026-05-01T09:40:40.974Z</time></trkpt><trkpt lat="43.3059667" lon="11.3613967"><ele>252.0</ele><time>2026-05-01T09:40:41.974Z</time></trkpt><trkpt lat="43.305915" lon="11.361475"><ele>251.0</ele><time>2026-05-01T09:40:42.973Z</time></trkpt><trkpt lat="43.305855" lon="11.361545"><ele>250.0</ele><time>2026-05-01T09:40:43.974Z</time></trkpt><trkpt lat="43.3057817" lon="11.361595"><ele>249.0</ele><time>2026-05-01T09:40:44.974Z</time></trkpt><trkpt lat="43.3056917" lon="11.3616483"><ele>248.0</ele><time>2026-05-01T09:40:45.973Z</time></trkpt><trkpt lat="43.30559" lon="11.361685"><ele>247.0</ele><time>2026-05-01T09:40:46.973Z</time></trkpt><trkpt lat="43.3054617" lon="11.3617133"><ele>247.0</ele><time>2026-05-01T09:40:47.974Z</time></trkpt><trkpt lat="43.3053083" lon="11.3617483"><ele>247.0</ele><time>2026-05-01T09:40:48.974Z</time></trkpt><trkpt lat="43.3051667" lon="11.3617767"><ele>247.0</ele><time>2026-05-01T09:40:49.973Z</time></trkpt><trkpt lat="43.3050183" lon="11.3618083"><ele>247.0</ele><time>2026-05-01T09:40:50.973Z</time></trkpt><trkpt lat="43.3048833" lon="11.3618217"><ele>247.0</ele><time>2026-05-01T09:40:51.973Z</time></trkpt><trkpt lat="43.3047517" lon="11.3618333"><ele>247.0</ele><time>2026-05-01T09:40:52.973Z</time></trkpt><trkpt lat="43.3046217" lon="11.3618417"><ele>247.0</ele><time>2026-05-01T09:40:53.974Z</time></trkpt><trkpt lat="43.3044817" lon="11.3618633"><ele>247.0</ele><time>2026-05-01T09:40:54.973Z</time></trkpt><trkpt lat="43.30433" lon="11.36192"><ele>246.66666666666666</ele><time>2026-05-01T09:40:55.974Z</time></trkpt><trkpt lat="43.3041867" lon="11.3620167"><ele>246.33333333333331</ele><time>2026-05-01T09:40:56.974Z</time></trkpt><trkpt lat="43.3040267" lon="11.3621317"><ele>246.0</ele><time>2026-05-01T09:40:57.974Z</time></trkpt><trkpt lat="43.3038783" lon="11.36225"><ele>246.0</ele><time>2026-05-01T09:40:58.973Z</time></trkpt><trkpt lat="43.3037467" lon="11.3623683"><ele>246.0</ele><time>2026-05-01T09:40:59.974Z</time></trkpt><trkpt lat="43.303635" lon="11.36249"><ele>246.0</ele><time>2026-05-01T09:41:00.974Z</time></trkpt><trkpt lat="43.3035383" lon="11.362615"><ele>246.0</ele><time>2026-05-01T09:41:01.974Z</time></trkpt><trkpt lat="43.3034567" lon="11.3627567"><ele>246.0</ele><time>2026-05-01T09:41:02.973Z</time></trkpt><trkpt lat="43.3034133" lon="11.3629233"><ele>246.0</ele><time>2026-05-01T09:41:03.974Z</time></trkpt><trkpt lat="43.303385" lon="11.3631067"><ele>246.0</ele><time>2026-05-01T09:41:04.973Z</time></trkpt><trkpt lat="43.303365" lon="11.363305"><ele>246.0</ele><time>2026-05-01T09:41:05.974Z</time></trkpt><trkpt lat="43.3033417" lon="11.3634883"><ele>246.0</ele><time>2026-05-01T09:41:06.974Z</time></trkpt><trkpt lat="43.3033033" lon="11.363655"><ele>246.00000000000003</ele><time>2026-05-01T09:41:07.974Z</time></trkpt><trkpt lat="43.3032417" lon="11.363785"><ele>246.00000000000003</ele><time>2026-05-01T09:41:08.974Z</time></trkpt><trkpt lat="43.3031667" lon="11.363885"><ele>246.0</ele><time>2026-05-01T09:41:09.974Z</time></trkpt><trkpt lat="43.3030767" lon="11.3639417"><ele>246.0</ele><time>2026-05-01T09:41:10.974Z</time></trkpt><trkpt lat="43.3029633" lon="11.36397"><ele>247.75</ele><time>2026-05-01T09:41:11.973Z</time></trkpt><trkpt lat="43.3028417" lon="11.3639717"><ele>249.5</ele><time>2026-05-01T09:41:12.973Z</time></trkpt><trkpt lat="43.3027183" lon="11.36397"><ele>251.25</ele><time>2026-05-01T09:41:13.974Z</time></trkpt><trkpt lat="43.3025867" lon="11.3639883"><ele>253.0</ele><time>2026-05-01T09:41:14.973Z</time></trkpt><trkpt lat="43.3024633" lon="11.364035"><ele>253.0</ele><time>2026-05-01T09:41:15.974Z</time></trkpt><trkpt lat="43.3023433" lon="11.364095"><ele>253.0</ele><time>2026-05-01T09:41:16.973Z</time></trkpt><trkpt lat="43.3022233" lon="11.3641717"><ele>253.0</ele><time>2026-05-01T09:41:17.973Z</time></trkpt><trkpt lat="43.3021117" lon="11.3642633"><ele>253.0</ele><time>2026-05-01T09:41:18.974Z</time></trkpt><trkpt lat="43.3020083" lon="11.36436"><ele>250.5</ele><time>2026-05-01T09:41:19.973Z</time></trkpt><trkpt lat="43.301915" lon="11.3644833"><ele>248.0</ele><time>2026-05-01T09:41:20.973Z</time></trkpt><trkpt lat="43.3018483" lon="11.3646333"><ele>245.5</ele><time>2026-05-01T09:41:21.973Z</time></trkpt><trkpt lat="43.30179" lon="11.3648167"><ele>243.0</ele><time>2026-05-01T09:41:22.974Z</time></trkpt><trkpt lat="43.3017367" lon="11.3649983"><ele>243.0</ele><time>2026-05-01T09:41:23.974Z</time></trkpt><trkpt lat="43.301665" lon="11.36515"><ele>243.0</ele><time>2026-05-01T09:41:24.973Z</time></trkpt><trkpt lat="43.30157" lon="11.3652767"><ele>243.0</ele><time>2026-05-01T09:41:25.973Z</time></trkpt><trkpt lat="43.3014333" lon="11.3653767"><ele>243.0</ele><time>2026-05-01T09:41:26.973Z</time></trkpt><trkpt lat="43.3012933" lon="11.3654567"><ele>242.33333333333331</ele><time>2026-05-01T09:41:27.974Z</time></trkpt><trkpt lat="43.3011483" lon="11.3655467"><ele>241.66666666666666</ele><time>2026-05-01T09:41:28.974Z</time></trkpt><trkpt lat="43.3010067" lon="11.3656317"><ele>241.0</ele><time>2026-05-01T09:41:29.974Z</time></trkpt><trkpt lat="43.300875" lon="11.3657"><ele>241.0</ele><time>2026-05-01T09:41:30.973Z</time></trkpt><trkpt lat="43.3007333" lon="11.365735"><ele>241.0</ele><time>2026-05-01T09:41:31.974Z</time></trkpt><trkpt lat="43.3005917" lon="11.3657417"><ele>241.0</ele><time>2026-05-01T09:41:32.974Z</time></trkpt><trkpt lat="43.3004517" lon="11.3657417"><ele>241.0</ele><time>2026-05-01T09:41:33.973Z</time></trkpt><trkpt lat="43.3003217" lon="11.36574"><ele>241.75</ele><time>2026-05-01T09:41:34.974Z</time></trkpt><trkpt lat="43.3001967" lon="11.365755"><ele>242.5</ele><time>2026-05-01T09:41:35.974Z</time></trkpt><trkpt lat="43.3000817" lon="11.365805"><ele>243.25</ele><time>2026-05-01T09:41:36.974Z</time></trkpt><trkpt lat="43.299965" lon="11.3658917"><ele>244.0</ele><time>2026-05-01T09:41:37.973Z</time></trkpt><trkpt lat="43.2998533" lon="11.3659983"><ele>244.0</ele><time>2026-05-01T09:41:38.974Z</time></trkpt><trkpt lat="43.2997583" lon="11.3661183"><ele>244.0</ele><time>2026-05-01T09:41:39.974Z</time></trkpt><trkpt lat="43.2996517" lon="11.3662617"><ele>244.0</ele><time>2026-05-01T09:41:40.973Z</time></trkpt><trkpt lat="43.299535" lon="11.3664017"><ele>244.0</ele><time>2026-05-01T09:41:41.974Z</time></trkpt><trkpt lat="43.299415" lon="11.3665567"><ele>242.25</ele><time>2026-05-01T09:41:42.973Z</time></trkpt><trkpt lat="43.299315" lon="11.36668"><ele>240.5</ele><time>2026-05-01T09:41:43.973Z</time></trkpt><trkpt lat="43.2992033" lon="11.3668317"><ele>238.75</ele><time>2026-05-01T09:41:44.974Z</time></trkpt><trkpt lat="43.2991067" lon="11.36699"><ele>237.0</ele><time>2026-05-01T09:41:45.974Z</time></trkpt><trkpt lat="43.299035" lon="11.3671633"><ele>237.66666666666669</ele><time>2026-05-01T09:41:46.973Z</time></trkpt><trkpt lat="43.29897" lon="11.3673383"><ele>238.33333333333334</ele><time>2026-05-01T09:41:47.973Z</time></trkpt><trkpt lat="43.2988983" lon="11.3675283"><ele>239.0</ele><time>2026-05-01T09:41:48.974Z</time></trkpt><trkpt lat="43.2988233" lon="11.36772"><ele>238.0</ele><time>2026-05-01T09:41:49.973Z</time></trkpt><trkpt lat="43.2987433" lon="11.3679"><ele>237.0</ele><time>2026-05-01T09:41:50.974Z</time></trkpt><trkpt lat="43.298665" lon="11.3680667"><ele>236.0</ele><time>2026-05-01T09:41:51.974Z</time></trkpt><trkpt lat="43.298585" lon="11.3682117"><ele>235.0</ele><time>2026-05-01T09:41:52.974Z</time></trkpt><trkpt lat="43.2985067" lon="11.3683267"><ele>235.0</ele><time>2026-05-01T09:41:53.973Z</time></trkpt><trkpt lat="43.2984117" lon="11.36842"><ele>235.0</ele><time>2026-05-01T09:41:54.973Z</time></trkpt><trkpt lat="43.2982933" lon="11.368485"><ele>235.0</ele><time>2026-05-01T09:41:55.971Z</time></trkpt><trkpt lat="43.2981667" lon="11.3685217"><ele>235.0</ele><time>2026-05-01T09:41:56.973Z</time></trkpt><trkpt lat="43.298035" lon="11.3685533"><ele>235.75</ele><time>2026-05-01T09:41:57.973Z</time></trkpt><trkpt lat="43.2979083" lon="11.3685517"><ele>236.5</ele><time>2026-05-01T09:41:58.973Z</time></trkpt><trkpt lat="43.2977767" lon="11.3685017"><ele>237.25</ele><time>2026-05-01T09:41:59.973Z</time></trkpt><trkpt lat="43.2976433" lon="11.3684333"><ele>238.0</ele><time>2026-05-01T09:42:00.973Z</time></trkpt><trkpt lat="43.2975067" lon="11.368335"><ele>238.0</ele><time>2026-05-01T09:42:01.974Z</time></trkpt><trkpt lat="43.29737" lon="11.3682433"><ele>238.0</ele><time>2026-05-01T09:42:02.973Z</time></trkpt><trkpt lat="43.2972283" lon="11.3681667"><ele>238.0</ele><time>2026-05-01T09:42:03.973Z</time></trkpt><trkpt lat="43.2970817" lon="11.368105"><ele>237.0</ele><time>2026-05-01T09:42:04.974Z</time></trkpt><trkpt lat="43.29692" lon="11.368055"><ele>236.0</ele><time>2026-05-01T09:42:05.974Z</time></trkpt><trkpt lat="43.2967567" lon="11.368025"><ele>235.0</ele><time>2026-05-01T09:42:06.972Z</time></trkpt><trkpt lat="43.2965883" lon="11.3680183"><ele>235.0</ele><time>2026-05-01T09:42:07.973Z</time></trkpt><trkpt lat="43.2964267" lon="11.3680283"><ele>235.0</ele><time>2026-05-01T09:42:08.972Z</time></trkpt><trkpt lat="43.2962633" lon="11.368055"><ele>235.0</ele><time>2026-05-01T09:42:09.973Z</time></trkpt><trkpt lat="43.2961067" lon="11.3680883"><ele>235.75</ele><time>2026-05-01T09:42:10.973Z</time></trkpt><trkpt lat="43.295965" lon="11.368155"><ele>236.5</ele><time>2026-05-01T09:42:11.972Z</time></trkpt><trkpt lat="43.29583" lon="11.3682333"><ele>237.25</ele><time>2026-05-01T09:42:12.972Z</time></trkpt><trkpt lat="43.2957033" lon="11.36829"><ele>238.0</ele><time>2026-05-01T09:42:13.973Z</time></trkpt><trkpt lat="43.29557" lon="11.368315"><ele>238.0</ele><time>2026-05-01T09:42:14.972Z</time></trkpt><trkpt lat="43.295435" lon="11.3683383"><ele>238.0</ele><time>2026-05-01T09:42:15.972Z</time></trkpt><trkpt lat="43.295305" lon="11.368385"><ele>238.0</ele><time>2026-05-01T09:42:16.973Z</time></trkpt><trkpt lat="43.2951833" lon="11.3684417"><ele>238.0</ele><time>2026-05-01T09:42:17.972Z</time></trkpt><trkpt lat="43.2950683" lon="11.3685283"><ele>238.0</ele><time>2026-05-01T09:42:18.972Z</time></trkpt><trkpt lat="43.2949683" lon="11.36865"><ele>238.0</ele><time>2026-05-01T09:42:19.973Z</time></trkpt><trkpt lat="43.2948933" lon="11.3687917"><ele>238.0</ele><time>2026-05-01T09:42:20.973Z</time></trkpt><trkpt lat="43.2948167" lon="11.3689467"><ele>238.0</ele><time>2026-05-01T09:42:21.972Z</time></trkpt><trkpt lat="43.2947283" lon="11.3690883"><ele>236.0</ele><time>2026-05-01T09:42:22.973Z</time></trkpt><trkpt lat="43.294615" lon="11.3692133"><ele>234.0</ele><time>2026-05-01T09:42:23.972Z</time></trkpt><trkpt lat="43.29448" lon="11.3693167"><ele>232.0</ele><time>2026-05-01T09:42:24.972Z</time></trkpt><trkpt lat="43.2943633" lon="11.3694"><ele>230.0</ele><time>2026-05-01T09:42:25.973Z</time></trkpt><trkpt lat="43.2942517" lon="11.3694667"><ele>230.0</ele><time>2026-05-01T09:42:26.972Z</time></trkpt><trkpt lat="43.2941467" lon="11.369525"><ele>230.0</ele><time>2026-05-01T09:42:27.973Z</time></trkpt><trkpt lat="43.2940467" lon="11.3695867"><ele>230.0</ele><time>2026-05-01T09:42:28.973Z</time></trkpt><trkpt lat="43.2939533" lon="11.3696533"><ele>230.0</ele><time>2026-05-01T09:42:29.972Z</time></trkpt><trkpt lat="43.293855" lon="11.3697233"><ele>230.0</ele><time>2026-05-01T09:42:30.973Z</time></trkpt><trkpt lat="43.2937483" lon="11.3697933"><ele>228.75</ele><time>2026-05-01T09:42:31.972Z</time></trkpt><trkpt lat="43.2936383" lon="11.3698617"><ele>227.5</ele><time>2026-05-01T09:42:32.972Z</time></trkpt><trkpt lat="43.2935183" lon="11.36992"><ele>226.25</ele><time>2026-05-01T09:42:33.973Z</time></trkpt><trkpt lat="43.2933867" lon="11.3699717"><ele>225.0</ele><time>2026-05-01T09:42:34.972Z</time></trkpt><trkpt lat="43.2932483" lon="11.370015"><ele>225.0</ele><time>2026-05-01T09:42:35.973Z</time></trkpt><trkpt lat="43.2931067" lon="11.370055"><ele>225.0</ele><time>2026-05-01T09:42:36.973Z</time></trkpt><trkpt lat="43.2929533" lon="11.370075"><ele>225.0</ele><time>2026-05-01T09:42:37.973Z</time></trkpt><trkpt lat="43.2927833" lon="11.37009"><ele>224.0</ele><time>2026-05-01T09:42:38.972Z</time></trkpt><trkpt lat="43.2926183" lon="11.3700817"><ele>223.0</ele><time>2026-05-01T09:42:39.972Z</time></trkpt><trkpt lat="43.29245" lon="11.3700683"><ele>222.0</ele><time>2026-05-01T09:42:40.972Z</time></trkpt><trkpt lat="43.2922733" lon="11.37006"><ele>222.33333333333331</ele><time>2026-05-01T09:42:41.972Z</time></trkpt><trkpt lat="43.2920917" lon="11.3700667"><ele>222.66666666666666</ele><time>2026-05-01T09:42:42.972Z</time></trkpt><trkpt lat="43.2919033" lon="11.3700833"><ele>223.0</ele><time>2026-05-01T09:42:43.972Z</time></trkpt><trkpt lat="43.29172" lon="11.37013"><ele>223.0</ele><time>2026-05-01T09:42:44.972Z</time></trkpt><trkpt lat="43.2915467" lon="11.3702083"><ele>223.0</ele><time>2026-05-01T09:42:45.973Z</time></trkpt><trkpt lat="43.29138" lon="11.37032"><ele>223.0</ele><time>2026-05-01T09:42:46.973Z</time></trkpt><trkpt lat="43.2912283" lon="11.3704367"><ele>223.66666666666666</ele><time>2026-05-01T09:42:47.972Z</time></trkpt><trkpt lat="43.29109" lon="11.37053"><ele>224.33333333333331</ele><time>2026-05-01T09:42:48.973Z</time></trkpt><trkpt lat="43.2909383" lon="11.3706117"><ele>225.0</ele><time>2026-05-01T09:42:49.972Z</time></trkpt><trkpt lat="43.2907983" lon="11.3706683"><ele>225.0</ele><time>2026-05-01T09:42:50.972Z</time></trkpt><trkpt lat="43.2906667" lon="11.3707217"><ele>225.0</ele><time>2026-05-01T09:42:51.972Z</time></trkpt><trkpt lat="43.29055" lon="11.3708017"><ele>225.0</ele><time>2026-05-01T09:42:52.973Z</time></trkpt><trkpt lat="43.2904583" lon="11.37092"><ele>225.0</ele><time>2026-05-01T09:42:53.973Z</time></trkpt><trkpt lat="43.2903867" lon="11.3710617"><ele>225.0</ele><time>2026-05-01T09:42:54.973Z</time></trkpt><trkpt lat="43.290335" lon="11.371215"><ele>225.0</ele><time>2026-05-01T09:42:55.972Z</time></trkpt><trkpt lat="43.2902533" lon="11.3713417"><ele>225.0</ele><time>2026-05-01T09:42:56.973Z</time></trkpt><trkpt lat="43.2901467" lon="11.3714533"><ele>225.0</ele><time>2026-05-01T09:42:57.972Z</time></trkpt><trkpt lat="43.29004" lon="11.37153"><ele>225.0</ele><time>2026-05-01T09:42:58.972Z</time></trkpt><trkpt lat="43.2899617" lon="11.3715867"><ele>225.0</ele><time>2026-05-01T09:42:59.972Z</time></trkpt><trkpt lat="43.2899083" lon="11.37167"><ele>225.0</ele><time>2026-05-01T09:43:00.973Z</time></trkpt><trkpt lat="43.289895" lon="11.37177"><ele>225.0</ele><time>2026-05-01T09:43:01.972Z</time></trkpt><trkpt lat="43.2898967" lon="11.3718767"><ele>225.0</ele><time>2026-05-01T09:43:02.972Z</time></trkpt><trkpt lat="43.289885" lon="11.3719833"><ele>225.0</ele><time>2026-05-01T09:43:03.972Z</time></trkpt><trkpt lat="43.2898583" lon="11.3720717"><ele>225.0</ele><time>2026-05-01T09:43:04.973Z</time></trkpt><trkpt lat="43.289805" lon="11.3721383"><ele>225.0</ele><time>2026-05-01T09:43:05.972Z</time></trkpt><trkpt lat="43.28972" lon="11.3722"><ele>225.0</ele><time>2026-05-01T09:43:06.972Z</time></trkpt><trkpt lat="43.2896167" lon="11.3722583"><ele>225.0</ele><time>2026-05-01T09:43:07.972Z</time></trkpt><trkpt lat="43.2895" lon="11.3723167"><ele>225.0</ele><time>2026-05-01T09:43:08.972Z</time></trkpt><trkpt lat="43.2893883" lon="11.3723683"><ele>223.4</ele><time>2026-05-01T09:43:09.973Z</time></trkpt><trkpt lat="43.2892867" lon="11.372415"><ele>221.8</ele><time>2026-05-01T09:43:10.972Z</time></trkpt><trkpt lat="43.2892067" lon="11.372475"><ele>220.2</ele><time>2026-05-01T09:43:11.973Z</time></trkpt><trkpt lat="43.2891433" lon="11.372555"><ele>218.6</ele><time>2026-05-01T09:43:12.972Z</time></trkpt><trkpt lat="43.2891033" lon="11.3726467"><ele>217.0</ele><time>2026-05-01T09:43:13.972Z</time></trkpt><trkpt lat="43.2890867" lon="11.37277"><ele>217.0</ele><time>2026-05-01T09:43:14.972Z</time></trkpt><trkpt lat="43.28909" lon="11.3729267"><ele>217.0</ele><time>2026-05-01T09:43:15.972Z</time></trkpt><trkpt lat="43.2891" lon="11.3731133"><ele>217.0</ele><time>2026-05-01T09:43:16.972Z</time></trkpt><trkpt lat="43.2890917" lon="11.37332"><ele>217.0</ele><time>2026-05-01T09:43:17.972Z</time></trkpt><trkpt lat="43.2890933" lon="11.3735617"><ele>214.66666666666666</ele><time>2026-05-01T09:43:18.972Z</time></trkpt><trkpt lat="43.2890967" lon="11.37383"><ele>212.33333333333331</ele><time>2026-05-01T09:43:19.972Z</time></trkpt><trkpt lat="43.289095" lon="11.3740917"><ele>210.0</ele><time>2026-05-01T09:43:20.972Z</time></trkpt><trkpt lat="43.2891" lon="11.3743483"><ele>207.33333333333331</ele><time>2026-05-01T09:43:21.972Z</time></trkpt><trkpt lat="43.2891067" lon="11.3746283"><ele>204.66666666666666</ele><time>2026-05-01T09:43:22.973Z</time></trkpt><trkpt lat="43.2891217" lon="11.374945"><ele>202.0</ele><time>2026-05-01T09:43:23.973Z</time></trkpt><trkpt lat="43.289125" lon="11.37526"><ele>196.66666666666666</ele><time>2026-05-01T09:43:24.973Z</time></trkpt><trkpt lat="43.2891367" lon="11.37556"><ele>191.33333333333331</ele><time>2026-05-01T09:43:25.972Z</time></trkpt><trkpt lat="43.2891483" lon="11.3758417"><ele>186.0</ele><time>2026-05-01T09:43:26.972Z</time></trkpt><trkpt lat="43.2891533" lon="11.3761"><ele>185.0</ele><time>2026-05-01T09:43:27.972Z</time></trkpt><trkpt lat="43.2891683" lon="11.3763567"><ele>184.0</ele><time>2026-05-01T09:43:28.972Z</time></trkpt><trkpt lat="43.2891767" lon="11.3766283"><ele>183.0</ele><time>2026-05-01T09:43:29.972Z</time></trkpt><trkpt lat="43.2892" lon="11.3768883"><ele>183.0</ele><time>2026-05-01T09:43:30.973Z</time></trkpt><trkpt lat="43.289225" lon="11.3771283"><ele>183.0</ele><time>2026-05-01T09:43:31.972Z</time></trkpt><trkpt lat="43.28924" lon="11.37734"><ele>183.0</ele><time>2026-05-01T09:43:32.972Z</time></trkpt><trkpt lat="43.2892417" lon="11.3775267"><ele>183.33333333333334</ele><time>2026-05-01T09:43:33.973Z</time></trkpt><trkpt lat="43.2892383" lon="11.3776683"><ele>183.66666666666666</ele><time>2026-05-01T09:43:34.973Z</time></trkpt><trkpt lat="43.2892183" lon="11.37778"><ele>184.0</ele><time>2026-05-01T09:43:35.972Z</time></trkpt><trkpt lat="43.2891817" lon="11.3778617"><ele>184.33333333333331</ele><time>2026-05-01T09:43:36.972Z</time></trkpt><trkpt lat="43.2891267" lon="11.37792"><ele>184.66666666666666</ele><time>2026-05-01T09:43:37.973Z</time></trkpt><trkpt lat="43.2890617" lon="11.3779617"><ele>185.0</ele><time>2026-05-01T09:43:38.972Z</time></trkpt><trkpt lat="43.2889817" lon="11.3779967"><ele>187.6</ele><time>2026-05-01T09:43:39.972Z</time></trkpt><trkpt lat="43.28889" lon="11.3780367"><ele>190.2</ele><time>2026-05-01T09:43:40.972Z</time></trkpt><trkpt lat="43.28879" lon="11.3780883"><ele>192.8</ele><time>2026-05-01T09:43:41.973Z</time></trkpt><trkpt lat="43.2886883" lon="11.3781467"><ele>195.4</ele><time>2026-05-01T09:43:42.972Z</time></trkpt><trkpt lat="43.2885767" lon="11.3782133"><ele>198.0</ele><time>2026-05-01T09:43:43.973Z</time></trkpt><trkpt lat="43.288465" lon="11.3782883"><ele>198.0</ele><time>2026-05-01T09:43:44.972Z</time></trkpt><trkpt lat="43.2883717" lon="11.3783783"><ele>198.0</ele><time>2026-05-01T09:43:45.972Z</time></trkpt><trkpt lat="43.2882883" lon="11.3784733"><ele>198.0</ele><time>2026-05-01T09:43:46.972Z</time></trkpt><trkpt lat="43.288215" lon="11.378565"><ele>198.0</ele><time>2026-05-01T09:43:47.972Z</time></trkpt><trkpt lat="43.2881583" lon="11.378645"><ele>198.0</ele><time>2026-05-01T09:43:48.972Z</time></trkpt><trkpt lat="43.2880967" lon="11.3787233"><ele>197.66666666666666</ele><time>2026-05-01T09:43:49.972Z</time></trkpt><trkpt lat="43.28805" lon="11.3788"><ele>197.33333333333331</ele><time>2026-05-01T09:43:50.972Z</time></trkpt><trkpt lat="43.2880167" lon="11.378895"><ele>197.0</ele><time>2026-05-01T09:43:51.972Z</time></trkpt><trkpt lat="43.288" lon="11.37901"><ele>196.66666666666666</ele><time>2026-05-01T09:43:52.972Z</time></trkpt><trkpt lat="43.288" lon="11.379115"><ele>196.33333333333331</ele><time>2026-05-01T09:43:53.972Z</time></trkpt><trkpt lat="43.2880033" lon="11.3792267"><ele>196.0</ele><time>2026-05-01T09:43:54.972Z</time></trkpt><trkpt lat="43.2880017" lon="11.3793283"><ele>196.33333333333331</ele><time>2026-05-01T09:43:55.973Z</time></trkpt><trkpt lat="43.287995" lon="11.3794533"><ele>196.66666666666666</ele><time>2026-05-01T09:43:57.972Z</time></trkpt><trkpt lat="43.2879483" lon="11.3795183"><ele>197.0</ele><time>2026-05-01T09:45:22.972Z</time></trkpt><trkpt lat="43.28789" lon="11.3795667"><ele>197.33333333333331</ele><time>2026-05-01T09:45:23.973Z</time></trkpt><trkpt lat="43.2878083" lon="11.3796117"><ele>197.66666666666666</ele><time>2026-05-01T09:45:24.972Z</time></trkpt><trkpt lat="43.2877167" lon="11.3796567"><ele>198.0</ele><time>2026-05-01T09:45:25.972Z</time></trkpt><trkpt lat="43.2876133" lon="11.3797083"><ele>198.0</ele><time>2026-05-01T09:45:26.973Z</time></trkpt><trkpt lat="43.2875" lon="11.3797633"><ele>198.0</ele><time>2026-05-01T09:45:27.973Z</time></trkpt><trkpt lat="43.2873767" lon="11.37982"><ele>198.0</ele><time>2026-05-01T09:45:28.972Z</time></trkpt><trkpt lat="43.2872417" lon="11.3798717"><ele>198.0</ele><time>2026-05-01T09:45:29.972Z</time></trkpt><trkpt lat="43.2870983" lon="11.37988"><ele>197.0</ele><time>2026-05-01T09:45:30.972Z</time></trkpt><trkpt lat="43.2869417" lon="11.3798567"><ele>196.0</ele><time>2026-05-01T09:45:31.973Z</time></trkpt><trkpt lat="43.2867817" lon="11.37983"><ele>195.0</ele><time>2026-05-01T09:45:32.972Z</time></trkpt><trkpt lat="43.286615" lon="11.379785"><ele>195.0</ele><time>2026-05-01T09:45:33.973Z</time></trkpt><trkpt lat="43.2864467" lon="11.3797233"><ele>195.0</ele><time>2026-05-01T09:45:34.973Z</time></trkpt><trkpt lat="43.2862767" lon="11.3796367"><ele>195.0</ele><time>2026-05-01T09:45:35.972Z</time></trkpt><trkpt lat="43.286115" lon="11.37953"><ele>195.66666666666669</ele><time>2026-05-01T09:45:36.972Z</time></trkpt><trkpt lat="43.2859533" lon="11.3794133"><ele>196.33333333333334</ele><time>2026-05-01T09:45:37.973Z</time></trkpt><trkpt lat="43.2857867" lon="11.37931"><ele>197.0</ele><time>2026-05-01T09:45:38.973Z</time></trkpt><trkpt lat="43.2856317" lon="11.3791983"><ele>196.0</ele><time>2026-05-01T09:45:39.972Z</time></trkpt><trkpt lat="43.2854617" lon="11.3790983"><ele>195.0</ele><time>2026-05-01T09:45:40.972Z</time></trkpt><trkpt lat="43.2852833" lon="11.3790267"><ele>194.0</ele><time>2026-05-01T09:45:41.973Z</time></trkpt><trkpt lat="43.2850983" lon="11.37899"><ele>194.0</ele><time>2026-05-01T09:45:42.973Z</time></trkpt><trkpt lat="43.2849067" lon="11.3789717"><ele>194.0</ele><time>2026-05-01T09:45:43.972Z</time></trkpt><trkpt lat="43.284725" lon="11.3789583"><ele>194.0</ele><time>2026-05-01T09:45:44.972Z</time></trkpt><trkpt lat="43.28455" lon="11.3789383"><ele>193.66666666666669</ele><time>2026-05-01T09:45:45.972Z</time></trkpt><trkpt lat="43.28439" lon="11.378905"><ele>193.33333333333331</ele><time>2026-05-01T09:45:46.972Z</time></trkpt><trkpt lat="43.2842417" lon="11.37885"><ele>193.0</ele><time>2026-05-01T09:45:47.972Z</time></trkpt><trkpt lat="43.2841233" lon="11.3787583"><ele>191.5</ele><time>2026-05-01T09:45:48.972Z</time></trkpt><trkpt lat="43.284025" lon="11.37862"><ele>190.0</ele><time>2026-05-01T09:45:49.972Z</time></trkpt><trkpt lat="43.2839333" lon="11.378455"><ele>188.5</ele><time>2026-05-01T09:45:50.973Z</time></trkpt><trkpt lat="43.2838567" lon="11.3782733"><ele>187.0</ele><time>2026-05-01T09:45:51.972Z</time></trkpt><trkpt lat="43.2837767" lon="11.3781017"><ele>184.33333333333334</ele><time>2026-05-01T09:45:52.972Z</time></trkpt><trkpt lat="43.28366" lon="11.377945"><ele>181.66666666666666</ele><time>2026-05-01T09:45:53.972Z</time></trkpt><trkpt lat="43.2835117" lon="11.37783"><ele>179.0</ele><time>2026-05-01T09:45:54.972Z</time></trkpt><trkpt lat="43.2833667" lon="11.37774"><ele>179.0</ele><time>2026-05-01T09:45:55.973Z</time></trkpt><trkpt lat="43.2832033" lon="11.377695"><ele>179.0</ele><time>2026-05-01T09:45:56.973Z</time></trkpt><trkpt lat="43.2830117" lon="11.3777517"><ele>179.0</ele><time>2026-05-01T09:45:57.973Z</time></trkpt><trkpt lat="43.282825" lon="11.3778417"><ele>178.66666666666666</ele><time>2026-05-01T09:45:58.973Z</time></trkpt><trkpt lat="43.2826467" lon="11.377905"><ele>178.33333333333334</ele><time>2026-05-01T09:45:59.972Z</time></trkpt><trkpt lat="43.2824833" lon="11.3779267"><ele>178.0</ele><time>2026-05-01T09:46:00.972Z</time></trkpt><trkpt lat="43.282335" lon="11.3778967"><ele>177.75</ele><time>2026-05-01T09:46:01.973Z</time></trkpt><trkpt lat="43.2822133" lon="11.377805"><ele>177.5</ele><time>2026-05-01T09:46:02.972Z</time></trkpt><trkpt lat="43.2821033" lon="11.377675"><ele>177.25</ele><time>2026-05-01T09:46:03.972Z</time></trkpt><trkpt lat="43.28202" lon="11.3774933"><ele>177.0</ele><time>2026-05-01T09:46:04.972Z</time></trkpt><trkpt lat="43.2819517" lon="11.3772833"><ele>176.5</ele><time>2026-05-01T09:46:05.972Z</time></trkpt><trkpt lat="43.2819083" lon="11.3770833"><ele>176.0</ele><time>2026-05-01T09:46:06.972Z</time></trkpt><trkpt lat="43.2818667" lon="11.3768917"><ele>175.5</ele><time>2026-05-01T09:46:07.972Z</time></trkpt><trkpt lat="43.2818533" lon="11.3767283"><ele>175.0</ele><time>2026-05-01T09:46:08.973Z</time></trkpt><trkpt lat="43.2818717" lon="11.37658"><ele>175.0</ele><time>2026-05-01T09:46:09.973Z</time></trkpt><trkpt lat="43.2819167" lon="11.376435"><ele>175.0</ele><time>2026-05-01T09:46:10.972Z</time></trkpt><trkpt lat="43.2819467" lon="11.3762967"><ele>175.0</ele><time>2026-05-01T09:46:11.972Z</time></trkpt><trkpt lat="43.28192" lon="11.376165"><ele>175.0</ele><time>2026-05-01T09:46:12.972Z</time></trkpt><trkpt lat="43.2818517" lon="11.37605"><ele>175.0</ele><time>2026-05-01T09:46:13.973Z</time></trkpt><trkpt lat="43.2817567" lon="11.3759483"><ele>175.5</ele><time>2026-05-01T09:46:14.973Z</time></trkpt><trkpt lat="43.2816633" lon="11.3758367"><ele>176.0</ele><time>2026-05-01T09:46:15.972Z</time></trkpt><trkpt lat="43.2815917" lon="11.375675"><ele>176.5</ele><time>2026-05-01T09:46:16.972Z</time></trkpt><trkpt lat="43.2815583" lon="11.3754667"><ele>177.0</ele><time>2026-05-01T09:46:17.972Z</time></trkpt><trkpt lat="43.2815467" lon="11.3752367"><ele>178.66666666666666</ele><time>2026-05-01T09:46:18.973Z</time></trkpt><trkpt lat="43.28155" lon="11.3750017"><ele>180.33333333333331</ele><time>2026-05-01T09:46:19.973Z</time></trkpt><trkpt lat="43.2815767" lon="11.3747683"><ele>182.0</ele><time>2026-05-01T09:46:20.973Z</time></trkpt><trkpt lat="43.2816433" lon="11.3745317"><ele>184.33333333333331</ele><time>2026-05-01T09:46:21.972Z</time></trkpt><trkpt lat="43.2817317" lon="11.374315"><ele>186.66666666666666</ele><time>2026-05-01T09:46:22.973Z</time></trkpt><trkpt lat="43.2818267" lon="11.3741017"><ele>189.0</ele><time>2026-05-01T09:46:23.972Z</time></trkpt><trkpt lat="43.2819283" lon="11.3738917"><ele>190.33333333333331</ele><time>2026-05-01T09:46:24.973Z</time></trkpt><trkpt lat="43.28204" lon="11.3736933"><ele>191.66666666666666</ele><time>2026-05-01T09:46:25.972Z</time></trkpt><trkpt lat="43.2821367" lon="11.3734817"><ele>193.0</ele><time>2026-05-01T09:46:26.973Z</time></trkpt><trkpt lat="43.2822067" lon="11.3732567"><ele>193.66666666666666</ele><time>2026-05-01T09:46:27.973Z</time></trkpt><trkpt lat="43.282255" lon="11.3730133"><ele>194.33333333333331</ele><time>2026-05-01T09:46:28.973Z</time></trkpt><trkpt lat="43.28228" lon="11.3727583"><ele>195.0</ele><time>2026-05-01T09:46:29.972Z</time></trkpt><trkpt lat="43.2823067" lon="11.372495"><ele>195.0</ele><time>2026-05-01T09:46:30.973Z</time></trkpt><trkpt lat="43.2823267" lon="11.3722267"><ele>195.0</ele><time>2026-05-01T09:46:31.972Z</time></trkpt><trkpt lat="43.2823417" lon="11.37196"><ele>195.0</ele><time>2026-05-01T09:46:32.973Z</time></trkpt><trkpt lat="43.2823617" lon="11.3716817"><ele>196.33333333333331</ele><time>2026-05-01T09:46:33.973Z</time></trkpt><trkpt lat="43.2823867" lon="11.3714"><ele>197.66666666666666</ele><time>2026-05-01T09:46:34.973Z</time></trkpt><trkpt lat="43.2824017" lon="11.3711283"><ele>199.0</ele><time>2026-05-01T09:46:35.972Z</time></trkpt><trkpt lat="43.28243" lon="11.3708483"><ele>199.66666666666666</ele><time>2026-05-01T09:46:36.972Z</time></trkpt><trkpt lat="43.282465" lon="11.3705933"><ele>200.33333333333331</ele><time>2026-05-01T09:46:37.973Z</time></trkpt><trkpt lat="43.2825283" lon="11.370345"><ele>201.0</ele><time>2026-05-01T09:46:38.972Z</time></trkpt><trkpt lat="43.2826067" lon="11.3700917"><ele>202.0</ele><time>2026-05-01T09:46:39.972Z</time></trkpt><trkpt lat="43.2827083" lon="11.3698383"><ele>203.0</ele><time>2026-05-01T09:46:40.973Z</time></trkpt><trkpt lat="43.28282" lon="11.3695983"><ele>204.0</ele><time>2026-05-01T09:46:41.973Z</time></trkpt><trkpt lat="43.2829383" lon="11.369365"><ele>204.0</ele><time>2026-05-01T09:46:42.972Z</time></trkpt><trkpt lat="43.2830583" lon="11.3691283"><ele>204.0</ele><time>2026-05-01T09:46:43.972Z</time></trkpt><trkpt lat="43.2831717" lon="11.3689"><ele>204.0</ele><time>2026-05-01T09:46:44.972Z</time></trkpt><trkpt lat="43.2832767" lon="11.3686733"><ele>205.33333333333331</ele><time>2026-05-01T09:46:45.972Z</time></trkpt><trkpt lat="43.283365" lon="11.3684383"><ele>206.66666666666666</ele><time>2026-05-01T09:46:46.972Z</time></trkpt><trkpt lat="43.2834283" lon="11.3681917"><ele>208.0</ele><time>2026-05-01T09:46:47.972Z</time></trkpt><trkpt lat="43.28346" lon="11.3679367"><ele>208.0</ele><time>2026-05-01T09:46:48.973Z</time></trkpt><trkpt lat="43.28349" lon="11.3676667"><ele>208.0</ele><time>2026-05-01T09:46:49.973Z</time></trkpt><trkpt lat="43.2834767" lon="11.3674"><ele>208.0</ele><time>2026-05-01T09:46:50.972Z</time></trkpt><trkpt lat="43.2834383" lon="11.367135"><ele>209.0</ele><time>2026-05-01T09:46:51.973Z</time></trkpt><trkpt lat="43.2833733" lon="11.3668833"><ele>210.0</ele><time>2026-05-01T09:46:52.972Z</time></trkpt><trkpt lat="43.2832817" lon="11.366645"><ele>211.0</ele><time>2026-05-01T09:46:53.973Z</time></trkpt><trkpt lat="43.2831767" lon="11.3664217"><ele>212.33333333333331</ele><time>2026-05-01T09:46:54.972Z</time></trkpt><trkpt lat="43.2830433" lon="11.3662167"><ele>213.66666666666669</ele><time>2026-05-01T09:46:55.973Z</time></trkpt><trkpt lat="43.2828867" lon="11.3660283"><ele>215.0</ele><time>2026-05-01T09:46:56.973Z</time></trkpt><trkpt lat="43.2827317" lon="11.3658583"><ele>215.0</ele><time>2026-05-01T09:46:57.972Z</time></trkpt><trkpt lat="43.282575" lon="11.3656967"><ele>215.0</ele><time>2026-05-01T09:46:58.972Z</time></trkpt><trkpt lat="43.28243" lon="11.36553"><ele>215.0</ele><time>2026-05-01T09:46:59.972Z</time></trkpt><trkpt lat="43.2823133" lon="11.3653467"><ele>215.0</ele><time>2026-05-01T09:47:00.972Z</time></trkpt><trkpt lat="43.282215" lon="11.3651467"><ele>215.0</ele><time>2026-05-01T09:47:01.973Z</time></trkpt><trkpt lat="43.282155" lon="11.36492"><ele>215.0</ele><time>2026-05-01T09:47:02.972Z</time></trkpt><trkpt lat="43.2821467" lon="11.36468"><ele>213.66666666666669</ele><time>2026-05-01T09:47:03.973Z</time></trkpt><trkpt lat="43.28217" lon="11.3644333"><ele>212.33333333333331</ele><time>2026-05-01T09:47:04.973Z</time></trkpt><trkpt lat="43.28221" lon="11.36418"><ele>211.0</ele><time>2026-05-01T09:47:05.972Z</time></trkpt><trkpt lat="43.28227" lon="11.36393"><ele>214.0</ele><time>2026-05-01T09:47:06.972Z</time></trkpt><trkpt lat="43.28235" lon="11.3636883"><ele>217.0</ele><time>2026-05-01T09:47:07.972Z</time></trkpt><trkpt lat="43.2824517" lon="11.36346"><ele>220.0</ele><time>2026-05-01T09:47:08.973Z</time></trkpt><trkpt lat="43.28256" lon="11.3632417"><ele>217.33333333333331</ele><time>2026-05-01T09:47:09.973Z</time></trkpt><trkpt lat="43.28268" lon="11.3630167"><ele>214.66666666666669</ele><time>2026-05-01T09:47:10.972Z</time></trkpt><trkpt lat="43.2827933" lon="11.3627867"><ele>212.0</ele><time>2026-05-01T09:47:11.973Z</time></trkpt><trkpt lat="43.2829067" lon="11.3625633"><ele>212.0</ele><time>2026-05-01T09:47:12.972Z</time></trkpt><trkpt lat="43.283015" lon="11.3623317"><ele>212.0</ele><time>2026-05-01T09:47:13.973Z</time></trkpt><trkpt lat="43.2831117" lon="11.362085"><ele>212.0</ele><time>2026-05-01T09:47:14.973Z</time></trkpt><trkpt lat="43.2831983" lon="11.36183"><ele>215.66666666666669</ele><time>2026-05-01T09:47:15.972Z</time></trkpt><trkpt lat="43.2832717" lon="11.3615667"><ele>219.33333333333331</ele><time>2026-05-01T09:47:16.972Z</time></trkpt><trkpt lat="43.2833267" lon="11.3612967"><ele>223.0</ele><time>2026-05-01T09:47:17.973Z</time></trkpt><trkpt lat="43.28338" lon="11.3610083"><ele>223.0</ele><time>2026-05-01T09:47:18.973Z</time></trkpt><trkpt lat="43.2834383" lon="11.3607217"><ele>223.0</ele><time>2026-05-01T09:47:19.972Z</time></trkpt><trkpt lat="43.2834967" lon="11.3604483"><ele>223.0</ele><time>2026-05-01T09:47:20.972Z</time></trkpt><trkpt lat="43.283575" lon="11.3601683"><ele>221.0</ele><time>2026-05-01T09:47:21.973Z</time></trkpt><trkpt lat="43.28366" lon="11.3598967"><ele>219.0</ele><time>2026-05-01T09:47:22.972Z</time></trkpt><trkpt lat="43.2837383" lon="11.359635"><ele>217.0</ele><time>2026-05-01T09:47:23.972Z</time></trkpt><trkpt lat="43.2838233" lon="11.359365"><ele>216.33333333333331</ele><time>2026-05-01T09:47:24.972Z</time></trkpt><trkpt lat="43.2838933" lon="11.3590967"><ele>215.66666666666669</ele><time>2026-05-01T09:47:25.972Z</time></trkpt><trkpt lat="43.2839683" lon="11.358825"><ele>215.0</ele><time>2026-05-01T09:47:26.973Z</time></trkpt><trkpt lat="43.284045" lon="11.3585567"><ele>219.33333333333334</ele><time>2026-05-01T09:47:27.972Z</time></trkpt><trkpt lat="43.2841183" lon="11.35828"><ele>223.66666666666669</ele><time>2026-05-01T09:47:28.972Z</time></trkpt><trkpt lat="43.284185" lon="11.3580033"><ele>228.0</ele><time>2026-05-01T09:47:29.973Z</time></trkpt><trkpt lat="43.2842433" lon="11.3577283"><ele>228.0</ele><time>2026-05-01T09:47:30.972Z</time></trkpt><trkpt lat="43.284295" lon="11.357455"><ele>228.0</ele><time>2026-05-01T09:47:31.972Z</time></trkpt><trkpt lat="43.2843533" lon="11.35719"><ele>228.0</ele><time>2026-05-01T09:47:32.972Z</time></trkpt><trkpt lat="43.2844283" lon="11.35692"><ele>227.66666666666669</ele><time>2026-05-01T09:47:33.973Z</time></trkpt><trkpt lat="43.2845133" lon="11.35665"><ele>227.33333333333334</ele><time>2026-05-01T09:47:34.972Z</time></trkpt><trkpt lat="43.2845983" lon="11.3563917"><ele>227.0</ele><time>2026-05-01T09:47:35.973Z</time></trkpt><trkpt lat="43.2846883" lon="11.3561383"><ele>230.0</ele><time>2026-05-01T09:47:36.973Z</time></trkpt><trkpt lat="43.284775" lon="11.3558833"><ele>233.0</ele><time>2026-05-01T09:47:37.973Z</time></trkpt><trkpt lat="43.2848617" lon="11.3556333"><ele>236.0</ele><time>2026-05-01T09:47:38.972Z</time></trkpt><trkpt lat="43.2849383" lon="11.355395"><ele>236.0</ele><time>2026-05-01T09:47:39.973Z</time></trkpt><trkpt lat="43.285015" lon="11.3551683"><ele>236.0</ele><time>2026-05-01T09:47:40.973Z</time></trkpt><trkpt lat="43.285075" lon="11.3549483"><ele>236.0</ele><time>2026-05-01T09:47:41.972Z</time></trkpt><trkpt lat="43.2851033" lon="11.354735"><ele>236.66666666666669</ele><time>2026-05-01T09:47:42.973Z</time></trkpt><trkpt lat="43.2850883" lon="11.3545317"><ele>237.33333333333331</ele><time>2026-05-01T09:47:43.972Z</time></trkpt><trkpt lat="43.2850283" lon="11.354345"><ele>238.0</ele><time>2026-05-01T09:47:44.973Z</time></trkpt><trkpt lat="43.284935" lon="11.3541717"><ele>238.0</ele><time>2026-05-01T09:47:45.972Z</time></trkpt><trkpt lat="43.2848167" lon="11.3540067"><ele>238.0</ele><time>2026-05-01T09:47:46.972Z</time></trkpt><trkpt lat="43.2847017" lon="11.3538367"><ele>238.0</ele><time>2026-05-01T09:47:47.973Z</time></trkpt><trkpt lat="43.2846033" lon="11.35368"><ele>237.60000000000002</ele><time>2026-05-01T09:47:48.973Z</time></trkpt><trkpt lat="43.2845233" lon="11.35354"><ele>237.20000000000002</ele><time>2026-05-01T09:47:49.973Z</time></trkpt><trkpt lat="43.28447" lon="11.3534333"><ele>236.8</ele><time>2026-05-01T09:47:50.973Z</time></trkpt><trkpt lat="43.2844033" lon="11.3533383"><ele>236.4</ele><time>2026-05-01T09:47:52.972Z</time></trkpt><trkpt lat="43.2843183" lon="11.3533383"><ele>236.0</ele><time>2026-05-01T09:47:54.972Z</time></trkpt><trkpt lat="43.284245" lon="11.3533783"><ele>236.0</ele><time>2026-05-01T09:47:55.972Z</time></trkpt><trkpt lat="43.284135" lon="11.353455"><ele>236.0</ele><time>2026-05-01T09:47:56.972Z</time></trkpt><trkpt lat="43.2839983" lon="11.353535"><ele>236.0</ele><time>2026-05-01T09:47:57.972Z</time></trkpt><trkpt lat="43.2838567" lon="11.353605"><ele>236.0</ele><time>2026-05-01T09:47:58.972Z</time></trkpt><trkpt lat="43.2837233" lon="11.3536567"><ele>236.5</ele><time>2026-05-01T09:47:59.973Z</time></trkpt><trkpt lat="43.28359" lon="11.353675"><ele>237.0</ele><time>2026-05-01T09:48:00.972Z</time></trkpt><trkpt lat="43.2834483" lon="11.3536783"><ele>237.5</ele><time>2026-05-01T09:48:01.973Z</time></trkpt><trkpt lat="43.28329" lon="11.3536733"><ele>238.0</ele><time>2026-05-01T09:48:02.973Z</time></trkpt><trkpt lat="43.2831267" lon="11.35366"><ele>238.0</ele><time>2026-05-01T09:48:03.972Z</time></trkpt><trkpt lat="43.28296" lon="11.35363"><ele>238.0</ele><time>2026-05-01T09:48:04.972Z</time></trkpt><trkpt lat="43.282795" lon="11.35359"><ele>238.0</ele><time>2026-05-01T09:48:05.972Z</time></trkpt><trkpt lat="43.2826283" lon="11.353555"><ele>238.0</ele><time>2026-05-01T09:48:06.972Z</time></trkpt><trkpt lat="43.2824517" lon="11.3535133"><ele>238.0</ele><time>2026-05-01T09:48:07.973Z</time></trkpt><trkpt lat="43.2822733" lon="11.35347"><ele>238.0</ele><time>2026-05-01T09:48:08.972Z</time></trkpt><trkpt lat="43.2820933" lon="11.3534333"><ele>238.0</ele><time>2026-05-01T09:48:09.973Z</time></trkpt><trkpt lat="43.281915" lon="11.3533983"><ele>238.0</ele><time>2026-05-01T09:48:10.973Z</time></trkpt><trkpt lat="43.281745" lon="11.3533567"><ele>238.0</ele><time>2026-05-01T09:48:11.972Z</time></trkpt><trkpt lat="43.281575" lon="11.3533167"><ele>238.0</ele><time>2026-05-01T09:48:12.973Z</time></trkpt><trkpt lat="43.281405" lon="11.3532767"><ele>238.0</ele><time>2026-05-01T09:48:13.972Z</time></trkpt><trkpt lat="43.28124" lon="11.353235"><ele>238.0</ele><time>2026-05-01T09:48:14.973Z</time></trkpt><trkpt lat="43.2810883" lon="11.353185"><ele>238.0</ele><time>2026-05-01T09:48:15.972Z</time></trkpt><trkpt lat="43.2809417" lon="11.3531233"><ele>238.0</ele><time>2026-05-01T09:48:16.973Z</time></trkpt><trkpt lat="43.28079" lon="11.35307"><ele>238.0</ele><time>2026-05-01T09:48:17.971Z</time></trkpt><trkpt lat="43.28062" lon="11.3530183"><ele>235.33333333333331</ele><time>2026-05-01T09:48:18.971Z</time></trkpt><trkpt lat="43.2804433" lon="11.35296"><ele>232.66666666666669</ele><time>2026-05-01T09:48:19.971Z</time></trkpt><trkpt lat="43.2802717" lon="11.3529033"><ele>230.0</ele><time>2026-05-01T09:48:20.971Z</time></trkpt><trkpt lat="43.2801067" lon="11.3528517"><ele>230.0</ele><time>2026-05-01T09:48:21.97Z</time></trkpt><trkpt lat="43.27994" lon="11.3527983"><ele>230.0</ele><time>2026-05-01T09:48:22.972Z</time></trkpt><trkpt lat="43.279775" lon="11.352755"><ele>230.0</ele><time>2026-05-01T09:48:23.972Z</time></trkpt><trkpt lat="43.2796167" lon="11.3527183"><ele>229.0</ele><time>2026-05-01T09:48:24.971Z</time></trkpt><trkpt lat="43.2794633" lon="11.3526867"><ele>228.0</ele><time>2026-05-01T09:48:25.971Z</time></trkpt><trkpt lat="43.2793033" lon="11.35266"><ele>227.0</ele><time>2026-05-01T09:48:26.972Z</time></trkpt><trkpt lat="43.2791433" lon="11.35264"><ele>227.0</ele><time>2026-05-01T09:48:27.971Z</time></trkpt><trkpt lat="43.2789833" lon="11.3526283"><ele>227.0</ele><time>2026-05-01T09:48:28.972Z</time></trkpt><trkpt lat="43.278825" lon="11.35265"><ele>227.0</ele><time>2026-05-01T09:48:29.971Z</time></trkpt><trkpt lat="43.2786733" lon="11.3527017"><ele>227.0</ele><time>2026-05-01T09:48:30.971Z</time></trkpt><trkpt lat="43.2785233" lon="11.3527883"><ele>227.0</ele><time>2026-05-01T09:48:31.972Z</time></trkpt><trkpt lat="43.278375" lon="11.3528783"><ele>227.0</ele><time>2026-05-01T09:48:32.972Z</time></trkpt><trkpt lat="43.27823" lon="11.3529667"><ele>228.33333333333334</ele><time>2026-05-01T09:48:33.971Z</time></trkpt><trkpt lat="43.2780767" lon="11.3530633"><ele>229.66666666666669</ele><time>2026-05-01T09:48:34.971Z</time></trkpt><trkpt lat="43.2779233" lon="11.3531567"><ele>231.0</ele><time>2026-05-01T09:48:35.971Z</time></trkpt><trkpt lat="43.2777767" lon="11.3532533"><ele>231.0</ele><time>2026-05-01T09:48:36.972Z</time></trkpt><trkpt lat="43.277635" lon="11.35334"><ele>231.0</ele><time>2026-05-01T09:48:37.972Z</time></trkpt><trkpt lat="43.2774833" lon="11.3534267"><ele>231.0</ele><time>2026-05-01T09:48:38.972Z</time></trkpt><trkpt lat="43.2773333" lon="11.3535083"><ele>231.33333333333331</ele><time>2026-05-01T09:48:39.972Z</time></trkpt><trkpt lat="43.27718" lon="11.3535817"><ele>231.66666666666666</ele><time>2026-05-01T09:48:40.972Z</time></trkpt><trkpt lat="43.2770117" lon="11.3536483"><ele>232.0</ele><time>2026-05-01T09:48:41.971Z</time></trkpt><trkpt lat="43.2768317" lon="11.3536967"><ele>232.0</ele><time>2026-05-01T09:48:42.972Z</time></trkpt><trkpt lat="43.2766533" lon="11.3537367"><ele>232.0</ele><time>2026-05-01T09:48:43.972Z</time></trkpt><trkpt lat="43.2764717" lon="11.3537733"><ele>232.0</ele><time>2026-05-01T09:48:44.971Z</time></trkpt><trkpt lat="43.27629" lon="11.3538033"><ele>230.33333333333331</ele><time>2026-05-01T09:48:45.971Z</time></trkpt><trkpt lat="43.2761117" lon="11.3538367"><ele>228.66666666666669</ele><time>2026-05-01T09:48:46.971Z</time></trkpt><trkpt lat="43.2759267" lon="11.3538783"><ele>227.0</ele><time>2026-05-01T09:48:47.971Z</time></trkpt><trkpt lat="43.27574" lon="11.3539083"><ele>225.33333333333334</ele><time>2026-05-01T09:48:48.972Z</time></trkpt><trkpt lat="43.2755617" lon="11.3539467"><ele>223.66666666666669</ele><time>2026-05-01T09:48:49.972Z</time></trkpt><trkpt lat="43.2753783" lon="11.353985"><ele>222.0</ele><time>2026-05-01T09:48:50.971Z</time></trkpt><trkpt lat="43.2751967" lon="11.3540267"><ele>222.0</ele><time>2026-05-01T09:48:51.972Z</time></trkpt><trkpt lat="43.27502" lon="11.3540717"><ele>222.0</ele><time>2026-05-01T09:48:52.971Z</time></trkpt><trkpt lat="43.27485" lon="11.3541283"><ele>222.0</ele><time>2026-05-01T09:48:53.971Z</time></trkpt><trkpt lat="43.2746767" lon="11.3542083"><ele>223.0</ele><time>2026-05-01T09:48:54.971Z</time></trkpt><trkpt lat="43.2745217" lon="11.354325"><ele>224.0</ele><time>2026-05-01T09:48:55.971Z</time></trkpt><trkpt lat="43.274385" lon="11.35448"><ele>225.0</ele><time>2026-05-01T09:48:56.972Z</time></trkpt><trkpt lat="43.2742617" lon="11.35466"><ele>224.0</ele><time>2026-05-01T09:48:57.971Z</time></trkpt><trkpt lat="43.2741367" lon="11.3548433"><ele>223.0</ele><time>2026-05-01T09:48:58.971Z</time></trkpt><trkpt lat="43.2740033" lon="11.3550217"><ele>222.0</ele><time>2026-05-01T09:48:59.971Z</time></trkpt><trkpt lat="43.27387" lon="11.3551917"><ele>222.33333333333331</ele><time>2026-05-01T09:49:00.971Z</time></trkpt><trkpt lat="43.273735" lon="11.3553483"><ele>222.66666666666666</ele><time>2026-05-01T09:49:01.971Z</time></trkpt><trkpt lat="43.2736017" lon="11.3555033"><ele>223.0</ele><time>2026-05-01T09:49:02.971Z</time></trkpt><trkpt lat="43.273465" lon="11.3556617"><ele>223.0</ele><time>2026-05-01T09:49:03.972Z</time></trkpt><trkpt lat="43.273325" lon="11.3558133"><ele>223.0</ele><time>2026-05-01T09:49:04.971Z</time></trkpt><trkpt lat="43.2731867" lon="11.3559717"><ele>223.0</ele><time>2026-05-01T09:49:05.971Z</time></trkpt><trkpt lat="43.2730483" lon="11.3561133"><ele>224.33333333333331</ele><time>2026-05-01T09:49:06.972Z</time></trkpt><trkpt lat="43.2729033" lon="11.3562633"><ele>225.66666666666669</ele><time>2026-05-01T09:49:07.971Z</time></trkpt><trkpt lat="43.27277" lon="11.3564183"><ele>227.0</ele><time>2026-05-01T09:49:08.972Z</time></trkpt><trkpt lat="43.2726467" lon="11.3565567"><ele>227.0</ele><time>2026-05-01T09:49:09.972Z</time></trkpt><trkpt lat="43.272525" lon="11.3566917"><ele>227.0</ele><time>2026-05-01T09:49:10.971Z</time></trkpt><trkpt lat="43.2724133" lon="11.3568183"><ele>227.0</ele><time>2026-05-01T09:49:11.972Z</time></trkpt><trkpt lat="43.2723033" lon="11.356935"><ele>227.0</ele><time>2026-05-01T09:49:12.972Z</time></trkpt><trkpt lat="43.2722" lon="11.3570567"><ele>226.2</ele><time>2026-05-01T09:49:13.972Z</time></trkpt><trkpt lat="43.27211" lon="11.3571583"><ele>225.39999999999998</ele><time>2026-05-01T09:49:14.972Z</time></trkpt><trkpt lat="43.2720317" lon="11.35725"><ele>224.60000000000002</ele><time>2026-05-01T09:49:15.972Z</time></trkpt><trkpt lat="43.27195" lon="11.3573333"><ele>223.8</ele><time>2026-05-01T09:49:16.971Z</time></trkpt><trkpt lat="43.2718767" lon="11.3573833"><ele>223.0</ele><time>2026-05-01T09:49:17.971Z</time></trkpt><trkpt lat="43.2717983" lon="11.3573917"><ele>223.0</ele><time>2026-05-01T09:49:18.972Z</time></trkpt><trkpt lat="43.2717167" lon="11.35735"><ele>223.0</ele><time>2026-05-01T09:49:19.972Z</time></trkpt><trkpt lat="43.271615" lon="11.357265"><ele>223.0</ele><time>2026-05-01T09:49:20.971Z</time></trkpt><trkpt lat="43.2714833" lon="11.3571233"><ele>223.0</ele><time>2026-05-01T09:49:21.972Z</time></trkpt><trkpt lat="43.271325" lon="11.3569533"><ele>222.66666666666666</ele><time>2026-05-01T09:49:22.971Z</time></trkpt><trkpt lat="43.271175" lon="11.3567733"><ele>222.33333333333331</ele><time>2026-05-01T09:49:23.972Z</time></trkpt><trkpt lat="43.2710367" lon="11.3566217"><ele>222.0</ele><time>2026-05-01T09:49:24.971Z</time></trkpt><trkpt lat="43.270895" lon="11.35648"><ele>219.5</ele><time>2026-05-01T09:49:25.971Z</time></trkpt><trkpt lat="43.270775" lon="11.3563567"><ele>217.0</ele><time>2026-05-01T09:49:26.971Z</time></trkpt><trkpt lat="43.270665" lon="11.3562467"><ele>214.5</ele><time>2026-05-01T09:49:27.971Z</time></trkpt><trkpt lat="43.270565" lon="11.35615"><ele>212.0</ele><time>2026-05-01T09:49:28.971Z</time></trkpt><trkpt lat="43.2704833" lon="11.3560567"><ele>211.5</ele><time>2026-05-01T09:49:29.971Z</time></trkpt><trkpt lat="43.2703917" lon="11.3559783"><ele>211.0</ele><time>2026-05-01T09:49:30.971Z</time></trkpt><trkpt lat="43.2702983" lon="11.3559217"><ele>210.5</ele><time>2026-05-01T09:49:31.972Z</time></trkpt><trkpt lat="43.27018" lon="11.355915"><ele>210.0</ele><time>2026-05-01T09:49:32.971Z</time></trkpt><trkpt lat="43.2700433" lon="11.3559217"><ele>210.0</ele><time>2026-05-01T09:49:33.971Z</time></trkpt><trkpt lat="43.269905" lon="11.35594"><ele>210.0</ele><time>2026-05-01T09:49:34.971Z</time></trkpt><trkpt lat="43.2697767" lon="11.355975"><ele>210.0</ele><time>2026-05-01T09:49:35.971Z</time></trkpt><trkpt lat="43.2696617" lon="11.356025"><ele>210.0</ele><time>2026-05-01T09:49:36.971Z</time></trkpt><trkpt lat="43.2695467" lon="11.3560983"><ele>208.0</ele><time>2026-05-01T09:49:37.972Z</time></trkpt><trkpt lat="43.2694333" lon="11.3561983"><ele>206.0</ele><time>2026-05-01T09:49:38.971Z</time></trkpt><trkpt lat="43.269325" lon="11.356315"><ele>204.0</ele><time>2026-05-01T09:49:39.971Z</time></trkpt><trkpt lat="43.2692217" lon="11.3564567"><ele>202.0</ele><time>2026-05-01T09:49:40.972Z</time></trkpt><trkpt lat="43.2691367" lon="11.3566083"><ele>202.0</ele><time>2026-05-01T09:49:41.971Z</time></trkpt><trkpt lat="43.2690617" lon="11.35677"><ele>202.0</ele><time>2026-05-01T09:49:42.971Z</time></trkpt><trkpt lat="43.2690083" lon="11.356945"><ele>202.0</ele><time>2026-05-01T09:49:43.971Z</time></trkpt><trkpt lat="43.2689717" lon="11.3571433"><ele>202.0</ele><time>2026-05-01T09:49:44.971Z</time></trkpt><trkpt lat="43.2689483" lon="11.35736"><ele>202.66666666666666</ele><time>2026-05-01T09:49:45.971Z</time></trkpt><trkpt lat="43.2689433" lon="11.3576133"><ele>203.33333333333331</ele><time>2026-05-01T09:49:46.971Z</time></trkpt><trkpt lat="43.2689383" lon="11.3578483"><ele>204.0</ele><time>2026-05-01T09:49:47.971Z</time></trkpt><trkpt lat="43.26893" lon="11.358065"><ele>200.25</ele><time>2026-05-01T09:49:48.972Z</time></trkpt><trkpt lat="43.2689167" lon="11.3582583"><ele>196.5</ele><time>2026-05-01T09:49:49.972Z</time></trkpt><trkpt lat="43.2688967" lon="11.3584383"><ele>192.75</ele><time>2026-05-01T09:49:50.971Z</time></trkpt><trkpt lat="43.26886" lon="11.3586117"><ele>189.0</ele><time>2026-05-01T09:49:51.971Z</time></trkpt><trkpt lat="43.2687967" lon="11.3587867"><ele>189.25</ele><time>2026-05-01T09:49:52.972Z</time></trkpt><trkpt lat="43.2687183" lon="11.3589483"><ele>189.5</ele><time>2026-05-01T09:49:53.972Z</time></trkpt><trkpt lat="43.268625" lon="11.3590833"><ele>189.75</ele><time>2026-05-01T09:49:54.971Z</time></trkpt><trkpt lat="43.2685067" lon="11.3592033"><ele>190.0</ele><time>2026-05-01T09:49:55.971Z</time></trkpt><trkpt lat="43.26837" lon="11.3593033"><ele>190.0</ele><time>2026-05-01T09:49:56.971Z</time></trkpt><trkpt lat="43.2682233" lon="11.3593783"><ele>190.0</ele><time>2026-05-01T09:49:57.972Z</time></trkpt><trkpt lat="43.2680767" lon="11.359415"><ele>190.0</ele><time>2026-05-01T09:49:58.972Z</time></trkpt><trkpt lat="43.2679333" lon="11.3594117"><ele>190.0</ele><time>2026-05-01T09:49:59.972Z</time></trkpt><trkpt lat="43.2677767" lon="11.35938"><ele>188.66666666666669</ele><time>2026-05-01T09:50:00.971Z</time></trkpt><trkpt lat="43.2676083" lon="11.3593233"><ele>187.33333333333334</ele><time>2026-05-01T09:50:01.972Z</time></trkpt><trkpt lat="43.2674267" lon="11.359245"><ele>186.0</ele><time>2026-05-01T09:50:02.971Z</time></trkpt><trkpt lat="43.26724" lon="11.359165"><ele>185.66666666666666</ele><time>2026-05-01T09:50:03.971Z</time></trkpt><trkpt lat="43.2670483" lon="11.3590867"><ele>185.33333333333331</ele><time>2026-05-01T09:50:04.971Z</time></trkpt><trkpt lat="43.2668717" lon="11.359015"><ele>185.0</ele><time>2026-05-01T09:50:05.972Z</time></trkpt><trkpt lat="43.2667067" lon="11.35894"><ele>185.0</ele><time>2026-05-01T09:50:06.972Z</time></trkpt><trkpt lat="43.2665383" lon="11.358865"><ele>185.0</ele><time>2026-05-01T09:50:07.972Z</time></trkpt><trkpt lat="43.2663633" lon="11.3587883"><ele>185.0</ele><time>2026-05-01T09:50:08.971Z</time></trkpt><trkpt lat="43.266175" lon="11.358715"><ele>185.0</ele><time>2026-05-01T09:50:09.971Z</time></trkpt><trkpt lat="43.2659967" lon="11.3586333"><ele>185.0</ele><time>2026-05-01T09:50:10.971Z</time></trkpt><trkpt lat="43.2658117" lon="11.3585467"><ele>185.0</ele><time>2026-05-01T09:50:11.972Z</time></trkpt><trkpt lat="43.2656367" lon="11.358465"><ele>184.66666666666666</ele><time>2026-05-01T09:50:12.972Z</time></trkpt><trkpt lat="43.26547" lon="11.3584"><ele>184.33333333333334</ele><time>2026-05-01T09:50:13.971Z</time></trkpt><trkpt lat="43.2653167" lon="11.3583333"><ele>184.0</ele><time>2026-05-01T09:50:14.971Z</time></trkpt><trkpt lat="43.2651817" lon="11.3582767"><ele>184.0</ele><time>2026-05-01T09:50:15.971Z</time></trkpt><trkpt lat="43.2650517" lon="11.3582283"><ele>184.0</ele><time>2026-05-01T09:50:16.972Z</time></trkpt><trkpt lat="43.2649333" lon="11.358195"><ele>184.0</ele><time>2026-05-01T09:50:17.972Z</time></trkpt><trkpt lat="43.26482" lon="11.3582"><ele>184.0</ele><time>2026-05-01T09:50:18.971Z</time></trkpt><trkpt lat="43.264705" lon="11.3582483"><ele>184.75</ele><time>2026-05-01T09:50:19.972Z</time></trkpt><trkpt lat="43.2646183" lon="11.3583383"><ele>185.5</ele><time>2026-05-01T09:50:20.971Z</time></trkpt><trkpt lat="43.26454" lon="11.3584517"><ele>186.25</ele><time>2026-05-01T09:50:21.971Z</time></trkpt><trkpt lat="43.2644517" lon="11.3586017"><ele>187.0</ele><time>2026-05-01T09:50:22.971Z</time></trkpt><trkpt lat="43.2643667" lon="11.3587783"><ele>186.0</ele><time>2026-05-01T09:50:23.972Z</time></trkpt><trkpt lat="43.2642717" lon="11.358945"><ele>185.0</ele><time>2026-05-01T09:50:24.971Z</time></trkpt><trkpt lat="43.264165" lon="11.3590867"><ele>184.0</ele><time>2026-05-01T09:50:25.971Z</time></trkpt><trkpt lat="43.2640383" lon="11.3592233"><ele>183.66666666666669</ele><time>2026-05-01T09:50:26.972Z</time></trkpt><trkpt lat="43.2638833" lon="11.35935"><ele>183.33333333333334</ele><time>2026-05-01T09:50:27.972Z</time></trkpt><trkpt lat="43.2637117" lon="11.3594817"><ele>183.0</ele><time>2026-05-01T09:50:28.972Z</time></trkpt><trkpt lat="43.26352" lon="11.359625"><ele>182.5</ele><time>2026-05-01T09:50:29.971Z</time></trkpt><trkpt lat="43.2633333" lon="11.3597983"><ele>182.0</ele><time>2026-05-01T09:50:30.972Z</time></trkpt><trkpt lat="43.2631417" lon="11.3599967"><ele>182.33333333333331</ele><time>2026-05-01T09:50:31.971Z</time></trkpt><trkpt lat="43.2629633" lon="11.36019"><ele>182.66666666666666</ele><time>2026-05-01T09:50:32.972Z</time></trkpt><trkpt lat="43.2627967" lon="11.3603683"><ele>183.0</ele><time>2026-05-01T09:50:33.971Z</time></trkpt><trkpt lat="43.2626383" lon="11.3605517"><ele>183.0</ele><time>2026-05-01T09:50:34.972Z</time></trkpt><trkpt lat="43.2624867" lon="11.3607383"><ele>183.0</ele><time>2026-05-01T09:50:35.971Z</time></trkpt><trkpt lat="43.262345" lon="11.3609183"><ele>183.0</ele><time>2026-05-01T09:50:36.971Z</time></trkpt><trkpt lat="43.2622117" lon="11.3610883"><ele>182.66666666666666</ele><time>2026-05-01T09:50:37.971Z</time></trkpt><trkpt lat="43.2620683" lon="11.3612483"><ele>182.33333333333331</ele><time>2026-05-01T09:50:38.971Z</time></trkpt><trkpt lat="43.2619267" lon="11.361395"><ele>182.0</ele><time>2026-05-01T09:50:39.971Z</time></trkpt><trkpt lat="43.261775" lon="11.3615283"><ele>182.0</ele><time>2026-05-01T09:50:40.972Z</time></trkpt><trkpt lat="43.2616333" lon="11.3616367"><ele>182.0</ele><time>2026-05-01T09:50:41.971Z</time></trkpt><trkpt lat="43.2614983" lon="11.3617233"><ele>182.0</ele><time>2026-05-01T09:50:42.971Z</time></trkpt><trkpt lat="43.2613767" lon="11.3617983"><ele>182.0</ele><time>2026-05-01T09:50:43.972Z</time></trkpt><trkpt lat="43.2612467" lon="11.3618617"><ele>182.0</ele><time>2026-05-01T09:50:44.971Z</time></trkpt><trkpt lat="43.2611017" lon="11.3619133"><ele>182.0</ele><time>2026-05-01T09:50:45.972Z</time></trkpt><trkpt lat="43.260945" lon="11.3619483"><ele>182.0</ele><time>2026-05-01T09:50:46.971Z</time></trkpt><trkpt lat="43.260785" lon="11.36197"><ele>183.0</ele><time>2026-05-01T09:50:47.971Z</time></trkpt><trkpt lat="43.260615" lon="11.36197"><ele>184.0</ele><time>2026-05-01T09:50:48.971Z</time></trkpt><trkpt lat="43.260445" lon="11.3619417"><ele>185.0</ele><time>2026-05-01T09:50:49.971Z</time></trkpt><trkpt lat="43.2602767" lon="11.361895"><ele>185.0</ele><time>2026-05-01T09:50:50.971Z</time></trkpt><trkpt lat="43.26011" lon="11.36185"><ele>185.0</ele><time>2026-05-01T09:50:51.971Z</time></trkpt><trkpt lat="43.2599433" lon="11.3618083"><ele>185.0</ele><time>2026-05-01T09:50:52.972Z</time></trkpt><trkpt lat="43.2597783" lon="11.3617483"><ele>187.66666666666666</ele><time>2026-05-01T09:50:53.972Z</time></trkpt><trkpt lat="43.25962" lon="11.3616817"><ele>190.33333333333331</ele><time>2026-05-01T09:50:54.971Z</time></trkpt><trkpt lat="43.259465" lon="11.3616017"><ele>193.0</ele><time>2026-05-01T09:50:55.971Z</time></trkpt><trkpt lat="43.2593167" lon="11.3615217"><ele>193.0</ele><time>2026-05-01T09:50:56.971Z</time></trkpt><trkpt lat="43.259175" lon="11.36145"><ele>193.0</ele><time>2026-05-01T09:50:57.971Z</time></trkpt><trkpt lat="43.2590217" lon="11.3613667"><ele>193.0</ele><time>2026-05-01T09:50:58.971Z</time></trkpt><trkpt lat="43.2588533" lon="11.3612583"><ele>193.66666666666666</ele><time>2026-05-01T09:50:59.971Z</time></trkpt><trkpt lat="43.2587017" lon="11.3611333"><ele>194.33333333333331</ele><time>2026-05-01T09:51:00.972Z</time></trkpt><trkpt lat="43.2585367" lon="11.3609867"><ele>195.0</ele><time>2026-05-01T09:51:01.971Z</time></trkpt><trkpt lat="43.2583633" lon="11.36082"><ele>195.0</ele><time>2026-05-01T09:51:02.971Z</time></trkpt><trkpt lat="43.2582117" lon="11.3606733"><ele>195.0</ele><time>2026-05-01T09:51:03.972Z</time></trkpt><trkpt lat="43.258085" lon="11.3605617"><ele>195.0</ele><time>2026-05-01T09:51:04.971Z</time></trkpt><trkpt lat="43.2579617" lon="11.3604633"><ele>195.0</ele><time>2026-05-01T09:51:05.971Z</time></trkpt><trkpt lat="43.2578367" lon="11.3603833"><ele>195.0</ele><time>2026-05-01T09:51:06.971Z</time></trkpt><trkpt lat="43.257685" lon="11.3603067"><ele>195.0</ele><time>2026-05-01T09:51:07.972Z</time></trkpt><trkpt lat="43.2575217" lon="11.36024"><ele>195.0</ele><time>2026-05-01T09:51:08.971Z</time></trkpt><trkpt lat="43.2573683" lon="11.360175"><ele>195.0</ele><time>2026-05-01T09:51:09.972Z</time></trkpt><trkpt lat="43.2572183" lon="11.3601267"><ele>195.0</ele><time>2026-05-01T09:51:10.972Z</time></trkpt><trkpt lat="43.2570717" lon="11.3601"><ele>196.33333333333331</ele><time>2026-05-01T09:51:11.971Z</time></trkpt><trkpt lat="43.256925" lon="11.3600933"><ele>197.66666666666666</ele><time>2026-05-01T09:51:12.971Z</time></trkpt><trkpt lat="43.2567617" lon="11.360105"><ele>199.0</ele><time>2026-05-01T09:51:13.972Z</time></trkpt><trkpt lat="43.25659" lon="11.3601283"><ele>200.33333333333331</ele><time>2026-05-01T09:51:14.972Z</time></trkpt><trkpt lat="43.2564267" lon="11.36016"><ele>201.66666666666669</ele><time>2026-05-01T09:51:15.971Z</time></trkpt><trkpt lat="43.2562733" lon="11.3602017"><ele>203.0</ele><time>2026-05-01T09:51:16.971Z</time></trkpt><trkpt lat="43.25612" lon="11.360265"><ele>203.0</ele><time>2026-05-01T09:51:17.971Z</time></trkpt><trkpt lat="43.2559583" lon="11.360365"><ele>203.0</ele><time>2026-05-01T09:51:18.971Z</time></trkpt><trkpt lat="43.25578" lon="11.3604883"><ele>203.0</ele><time>2026-05-01T09:51:19.971Z</time></trkpt><trkpt lat="43.2556067" lon="11.3606117"><ele>206.66666666666669</ele><time>2026-05-01T09:51:20.971Z</time></trkpt><trkpt lat="43.255455" lon="11.3607283"><ele>210.33333333333331</ele><time>2026-05-01T09:51:21.971Z</time></trkpt><trkpt lat="43.2553217" lon="11.3608317"><ele>214.0</ele><time>2026-05-01T09:51:22.971Z</time></trkpt><trkpt lat="43.25521" lon="11.3609467"><ele>214.0</ele><time>2026-05-01T09:51:23.972Z</time></trkpt><trkpt lat="43.2550967" lon="11.3610917"><ele>214.0</ele><time>2026-05-01T09:51:24.972Z</time></trkpt><trkpt lat="43.254995" lon="11.3612617"><ele>214.0</ele><time>2026-05-01T09:51:25.972Z</time></trkpt><trkpt lat="43.2548983" lon="11.3614483"><ele>214.0</ele><time>2026-05-01T09:51:26.971Z</time></trkpt><trkpt lat="43.254805" lon="11.3616483"><ele>214.0</ele><time>2026-05-01T09:51:27.971Z</time></trkpt><trkpt lat="43.25471" lon="11.3618433"><ele>214.0</ele><time>2026-05-01T09:51:28.971Z</time></trkpt><trkpt lat="43.2546" lon="11.3620033"><ele>215.5</ele><time>2026-05-01T09:51:29.971Z</time></trkpt><trkpt lat="43.2544733" lon="11.36213"><ele>217.0</ele><time>2026-05-01T09:51:30.971Z</time></trkpt><trkpt lat="43.254345" lon="11.3622267"><ele>218.5</ele><time>2026-05-01T09:51:31.971Z</time></trkpt><trkpt lat="43.2542217" lon="11.3622967"><ele>220.0</ele><time>2026-05-01T09:51:32.972Z</time></trkpt><trkpt lat="43.2541" lon="11.3623533"><ele>220.0</ele><time>2026-05-01T09:51:33.971Z</time></trkpt><trkpt lat="43.2539717" lon="11.362395"><ele>220.0</ele><time>2026-05-01T09:51:34.971Z</time></trkpt><trkpt lat="43.253845" lon="11.3624083"><ele>220.0</ele><time>2026-05-01T09:51:35.972Z</time></trkpt><trkpt lat="43.2536967" lon="11.362425"><ele>220.0</ele><time>2026-05-01T09:51:36.971Z</time></trkpt><trkpt lat="43.25354" lon="11.3624467"><ele>221.66666666666666</ele><time>2026-05-01T09:51:37.972Z</time></trkpt><trkpt lat="43.253385" lon="11.3624833"><ele>223.33333333333331</ele><time>2026-05-01T09:51:38.971Z</time></trkpt><trkpt lat="43.2532217" lon="11.3625433"><ele>225.0</ele><time>2026-05-01T09:51:39.971Z</time></trkpt><trkpt lat="43.2530517" lon="11.36262"><ele>226.0</ele><time>2026-05-01T09:51:40.971Z</time></trkpt><trkpt lat="43.2528817" lon="11.3627183"><ele>227.0</ele><time>2026-05-01T09:51:41.971Z</time></trkpt><trkpt lat="43.2527183" lon="11.362815"><ele>228.0</ele><time>2026-05-01T09:51:42.971Z</time></trkpt><trkpt lat="43.25258" lon="11.3629133"><ele>228.0</ele><time>2026-05-01T09:51:43.971Z</time></trkpt><trkpt lat="43.2524467" lon="11.3630217"><ele>228.0</ele><time>2026-05-01T09:51:44.972Z</time></trkpt><trkpt lat="43.2523133" lon="11.363145"><ele>228.0</ele><time>2026-05-01T09:51:45.972Z</time></trkpt><trkpt lat="43.2521817" lon="11.3632833"><ele>229.66666666666669</ele><time>2026-05-01T09:51:46.972Z</time></trkpt><trkpt lat="43.2520467" lon="11.36342"><ele>231.33333333333334</ele><time>2026-05-01T09:51:47.971Z</time></trkpt><trkpt lat="43.2519183" lon="11.3635167"><ele>233.0</ele><time>2026-05-01T09:51:48.972Z</time></trkpt><trkpt lat="43.2517883" lon="11.363585"><ele>233.0</ele><time>2026-05-01T09:51:49.971Z</time></trkpt><trkpt lat="43.251645" lon="11.3636183"><ele>233.0</ele><time>2026-05-01T09:51:50.971Z</time></trkpt><trkpt lat="43.2514967" lon="11.36363"><ele>233.0</ele><time>2026-05-01T09:51:51.972Z</time></trkpt><trkpt lat="43.2513417" lon="11.3636017"><ele>230.33333333333334</ele><time>2026-05-01T09:51:52.971Z</time></trkpt><trkpt lat="43.25116" lon="11.3635367"><ele>227.66666666666669</ele><time>2026-05-01T09:51:53.971Z</time></trkpt><trkpt lat="43.2509733" lon="11.3634517"><ele>225.0</ele><time>2026-05-01T09:51:54.971Z</time></trkpt><trkpt lat="43.2507517" lon="11.3633633"><ele>224.0</ele><time>2026-05-01T09:51:55.971Z</time></trkpt><trkpt lat="43.2505133" lon="11.3632917"><ele>223.0</ele><time>2026-05-01T09:51:56.972Z</time></trkpt><trkpt lat="43.2503017" lon="11.3632433"><ele>223.0</ele><time>2026-05-01T09:51:57.972Z</time></trkpt><trkpt lat="43.2500917" lon="11.363185"><ele>223.0</ele><time>2026-05-01T09:51:58.971Z</time></trkpt><trkpt lat="43.2499033" lon="11.3631283"><ele>223.0</ele><time>2026-05-01T09:51:59.971Z</time></trkpt><trkpt lat="43.2497283" lon="11.3630883"><ele>224.25</ele><time>2026-05-01T09:52:00.971Z</time></trkpt><trkpt lat="43.24958" lon="11.3630817"><ele>225.5</ele><time>2026-05-01T09:52:01.972Z</time></trkpt><trkpt lat="43.2494333" lon="11.363115"><ele>226.75</ele><time>2026-05-01T09:52:02.971Z</time></trkpt><trkpt lat="43.2492917" lon="11.363185"><ele>228.0</ele><time>2026-05-01T09:52:03.971Z</time></trkpt><trkpt lat="43.2491633" lon="11.3632783"><ele>228.0</ele><time>2026-05-01T09:52:04.971Z</time></trkpt><trkpt lat="43.2490517" lon="11.3633967"><ele>228.0</ele><time>2026-05-01T09:52:05.971Z</time></trkpt><trkpt lat="43.2489383" lon="11.363545"><ele>228.0</ele><time>2026-05-01T09:52:06.971Z</time></trkpt><trkpt lat="43.24883" lon="11.3637067"><ele>227.66666666666669</ele><time>2026-05-01T09:52:07.972Z</time></trkpt><trkpt lat="43.2487167" lon="11.36387"><ele>227.33333333333334</ele><time>2026-05-01T09:52:08.971Z</time></trkpt><trkpt lat="43.2486" lon="11.364025"><ele>227.0</ele><time>2026-05-01T09:52:09.971Z</time></trkpt><trkpt lat="43.2484817" lon="11.36418"><ele>227.0</ele><time>2026-05-01T09:52:10.971Z</time></trkpt><trkpt lat="43.2483833" lon="11.3643317"><ele>227.0</ele><time>2026-05-01T09:52:11.971Z</time></trkpt><trkpt lat="43.2483133" lon="11.3644867"><ele>227.0</ele><time>2026-05-01T09:52:12.971Z</time></trkpt><trkpt lat="43.24827" lon="11.364655"><ele>227.0</ele><time>2026-05-01T09:52:13.971Z</time></trkpt><trkpt lat="43.2482533" lon="11.3648433"><ele>226.5</ele><time>2026-05-01T09:52:14.972Z</time></trkpt><trkpt lat="43.24825" lon="11.3650717"><ele>226.0</ele><time>2026-05-01T09:52:15.971Z</time></trkpt><trkpt lat="43.24823" lon="11.365265"><ele>225.5</ele><time>2026-05-01T09:52:16.972Z</time></trkpt><trkpt lat="43.248185" lon="11.365425"><ele>225.0</ele><time>2026-05-01T09:52:17.971Z</time></trkpt><trkpt lat="43.24812" lon="11.3655767"><ele>224.5</ele><time>2026-05-01T09:52:18.971Z</time></trkpt><trkpt lat="43.248035" lon="11.3657167"><ele>224.0</ele><time>2026-05-01T09:52:19.972Z</time></trkpt><trkpt lat="43.247935" lon="11.3658383"><ele>223.5</ele><time>2026-05-01T09:52:20.972Z</time></trkpt><trkpt lat="43.24783" lon="11.36594"><ele>223.0</ele><time>2026-05-01T09:52:21.971Z</time></trkpt><trkpt lat="43.247715" lon="11.366015"><ele>223.0</ele><time>2026-05-01T09:52:22.972Z</time></trkpt><trkpt lat="43.2475833" lon="11.3660617"><ele>223.0</ele><time>2026-05-01T09:52:23.972Z</time></trkpt><trkpt lat="43.2474383" lon="11.36609"><ele>223.0</ele><time>2026-05-01T09:52:24.972Z</time></trkpt><trkpt lat="43.24729" lon="11.3661267"><ele>223.0</ele><time>2026-05-01T09:52:25.972Z</time></trkpt><trkpt lat="43.2471417" lon="11.3661667"><ele>222.33333333333331</ele><time>2026-05-01T09:52:26.971Z</time></trkpt><trkpt lat="43.246995" lon="11.3662167"><ele>221.66666666666669</ele><time>2026-05-01T09:52:27.971Z</time></trkpt><trkpt lat="43.246835" lon="11.366275"><ele>221.0</ele><time>2026-05-01T09:52:28.971Z</time></trkpt><trkpt lat="43.246675" lon="11.3663433"><ele>221.66666666666669</ele><time>2026-05-01T09:52:29.971Z</time></trkpt><trkpt lat="43.2465233" lon="11.36642"><ele>222.33333333333331</ele><time>2026-05-01T09:52:30.971Z</time></trkpt><trkpt lat="43.2463817" lon="11.3665083"><ele>223.0</ele><time>2026-05-01T09:52:31.971Z</time></trkpt><trkpt lat="43.246255" lon="11.3666033"><ele>223.25</ele><time>2026-05-01T09:52:32.971Z</time></trkpt><trkpt lat="43.246145" lon="11.366705"><ele>223.5</ele><time>2026-05-01T09:52:33.971Z</time></trkpt><trkpt lat="43.246035" lon="11.366815"><ele>223.75</ele><time>2026-05-01T09:52:34.971Z</time></trkpt><trkpt lat="43.2459267" lon="11.36693"><ele>224.0</ele><time>2026-05-01T09:52:35.971Z</time></trkpt><trkpt lat="43.2458167" lon="11.3670483"><ele>224.0</ele><time>2026-05-01T09:52:36.972Z</time></trkpt><trkpt lat="43.2457017" lon="11.3671567"><ele>224.0</ele><time>2026-05-01T09:52:37.971Z</time></trkpt><trkpt lat="43.2455833" lon="11.3672567"><ele>224.0</ele><time>2026-05-01T09:52:38.971Z</time></trkpt><trkpt lat="43.245465" lon="11.36734"><ele>224.0</ele><time>2026-05-01T09:52:39.972Z</time></trkpt><trkpt lat="43.245335" lon="11.367405"><ele>222.66666666666669</ele><time>2026-05-01T09:52:40.971Z</time></trkpt><trkpt lat="43.2451883" lon="11.367465"><ele>221.33333333333331</ele><time>2026-05-01T09:52:41.972Z</time></trkpt><trkpt lat="43.2450167" lon="11.3675233"><ele>220.0</ele><time>2026-05-01T09:52:42.971Z</time></trkpt><trkpt lat="43.244825" lon="11.3675833"><ele>221.0</ele><time>2026-05-01T09:52:43.971Z</time></trkpt><trkpt lat="43.2446167" lon="11.3676417"><ele>222.0</ele><time>2026-05-01T09:52:44.972Z</time></trkpt><trkpt lat="43.2443967" lon="11.3677133"><ele>223.0</ele><time>2026-05-01T09:52:45.971Z</time></trkpt><trkpt lat="43.244175" lon="11.367785"><ele>223.0</ele><time>2026-05-01T09:52:46.971Z</time></trkpt><trkpt lat="43.2439717" lon="11.3678517"><ele>223.0</ele><time>2026-05-01T09:52:47.971Z</time></trkpt><trkpt lat="43.24379" lon="11.3679017"><ele>223.0</ele><time>2026-05-01T09:52:48.972Z</time></trkpt><trkpt lat="43.2436183" lon="11.3679483"><ele>222.66666666666666</ele><time>2026-05-01T09:52:49.972Z</time></trkpt><trkpt lat="43.2434533" lon="11.3679817"><ele>222.33333333333331</ele><time>2026-05-01T09:52:50.971Z</time></trkpt><trkpt lat="43.2432933" lon="11.3680167"><ele>222.0</ele><time>2026-05-01T09:52:51.971Z</time></trkpt><trkpt lat="43.24314" lon="11.368055"><ele>222.0</ele><time>2026-05-01T09:52:52.972Z</time></trkpt><trkpt lat="43.2429917" lon="11.368115"><ele>222.0</ele><time>2026-05-01T09:52:53.971Z</time></trkpt><trkpt lat="43.2428433" lon="11.3681917"><ele>222.0</ele><time>2026-05-01T09:52:54.971Z</time></trkpt><trkpt lat="43.242705" lon="11.3682883"><ele>222.0</ele><time>2026-05-01T09:52:55.971Z</time></trkpt><trkpt lat="43.24258" lon="11.3684133"><ele>222.0</ele><time>2026-05-01T09:52:56.972Z</time></trkpt><trkpt lat="43.24244" lon="11.3685683"><ele>222.0</ele><time>2026-05-01T09:52:57.971Z</time></trkpt><trkpt lat="43.2422967" lon="11.3687433"><ele>221.33333333333331</ele><time>2026-05-01T09:52:58.971Z</time></trkpt><trkpt lat="43.2421483" lon="11.3689283"><ele>220.66666666666666</ele><time>2026-05-01T09:52:59.971Z</time></trkpt><trkpt lat="43.242005" lon="11.3691133"><ele>220.0</ele><time>2026-05-01T09:53:00.971Z</time></trkpt><trkpt lat="43.2418667" lon="11.3692933"><ele>220.0</ele><time>2026-05-01T09:53:01.971Z</time></trkpt><trkpt lat="43.2417283" lon="11.3694633"><ele>220.0</ele><time>2026-05-01T09:53:02.971Z</time></trkpt><trkpt lat="43.2415783" lon="11.3696467"><ele>220.0</ele><time>2026-05-01T09:53:03.971Z</time></trkpt><trkpt lat="43.2414133" lon="11.3698317"><ele>218.33333333333331</ele><time>2026-05-01T09:53:04.971Z</time></trkpt><trkpt lat="43.241235" lon="11.3700167"><ele>216.66666666666669</ele><time>2026-05-01T09:53:05.971Z</time></trkpt><trkpt lat="43.2410583" lon="11.3701817"><ele>215.0</ele><time>2026-05-01T09:53:06.972Z</time></trkpt><trkpt lat="43.2408933" lon="11.3703367"><ele>215.0</ele><time>2026-05-01T09:53:07.971Z</time></trkpt><trkpt lat="43.24075" lon="11.3704717"><ele>215.0</ele><time>2026-05-01T09:53:08.972Z</time></trkpt><trkpt lat="43.2406317" lon="11.370595"><ele>215.0</ele><time>2026-05-01T09:53:09.972Z</time></trkpt><trkpt lat="43.2405283" lon="11.370735"><ele>215.66666666666669</ele><time>2026-05-01T09:53:10.971Z</time></trkpt><trkpt lat="43.24042" lon="11.3708933"><ele>216.33333333333331</ele><time>2026-05-01T09:53:11.971Z</time></trkpt><trkpt lat="43.2403167" lon="11.371065"><ele>217.0</ele><time>2026-05-01T09:53:12.972Z</time></trkpt><trkpt lat="43.2402167" lon="11.3712433"><ele>216.0</ele><time>2026-05-01T09:53:13.971Z</time></trkpt><trkpt lat="43.2401183" lon="11.3714217"><ele>215.0</ele><time>2026-05-01T09:53:14.971Z</time></trkpt><trkpt lat="43.2400183" lon="11.3716017"><ele>214.0</ele><time>2026-05-01T09:53:15.971Z</time></trkpt><trkpt lat="43.239915" lon="11.3717917"><ele>214.0</ele><time>2026-05-01T09:53:16.971Z</time></trkpt><trkpt lat="43.2398183" lon="11.3719717"><ele>214.0</ele><time>2026-05-01T09:53:17.971Z</time></trkpt><trkpt lat="43.239735" lon="11.3721467"><ele>214.0</ele><time>2026-05-01T09:53:18.972Z</time></trkpt><trkpt lat="43.2396533" lon="11.372315"><ele>213.75</ele><time>2026-05-01T09:53:19.971Z</time></trkpt><trkpt lat="43.23957" lon="11.3724667"><ele>213.5</ele><time>2026-05-01T09:53:20.971Z</time></trkpt><trkpt lat="43.2394783" lon="11.37258"><ele>213.25</ele><time>2026-05-01T09:53:21.971Z</time></trkpt><trkpt lat="43.23938" lon="11.3726533"><ele>213.0</ele><time>2026-05-01T09:53:22.971Z</time></trkpt><trkpt lat="43.2392667" lon="11.3726917"><ele>213.0</ele><time>2026-05-01T09:53:23.972Z</time></trkpt><trkpt lat="43.23914" lon="11.3727067"><ele>213.0</ele><time>2026-05-01T09:53:24.971Z</time></trkpt><trkpt lat="43.2390067" lon="11.3727067"><ele>213.0</ele><time>2026-05-01T09:53:25.971Z</time></trkpt><trkpt lat="43.2388683" lon="11.3727217"><ele>213.0</ele><time>2026-05-01T09:53:26.971Z</time></trkpt><trkpt lat="43.238725" lon="11.37276"><ele>213.0</ele><time>2026-05-01T09:53:27.971Z</time></trkpt><trkpt lat="43.2385883" lon="11.372825"><ele>213.0</ele><time>2026-05-01T09:53:28.972Z</time></trkpt><trkpt lat="43.2384683" lon="11.3729067"><ele>213.0</ele><time>2026-05-01T09:53:29.971Z</time></trkpt><trkpt lat="43.2383717" lon="11.372985"><ele>213.0</ele><time>2026-05-01T09:53:30.971Z</time></trkpt><trkpt lat="43.2383033" lon="11.373065"><ele>211.4</ele><time>2026-05-01T09:53:31.971Z</time></trkpt><trkpt lat="43.23825" lon="11.37317"><ele>209.8</ele><time>2026-05-01T09:53:32.971Z</time></trkpt><trkpt lat="43.2382183" lon="11.3733017"><ele>208.2</ele><time>2026-05-01T09:53:33.971Z</time></trkpt><trkpt lat="43.2382117" lon="11.3734433"><ele>206.6</ele><time>2026-05-01T09:53:34.972Z</time></trkpt><trkpt lat="43.2382217" lon="11.3735967"><ele>205.0</ele><time>2026-05-01T09:53:35.971Z</time></trkpt><trkpt lat="43.2382433" lon="11.3737633"><ele>204.75</ele><time>2026-05-01T09:53:36.972Z</time></trkpt><trkpt lat="43.2382583" lon="11.3739367"><ele>204.5</ele><time>2026-05-01T09:53:37.971Z</time></trkpt><trkpt lat="43.23828" lon="11.3741"><ele>204.25</ele><time>2026-05-01T09:53:38.971Z</time></trkpt><trkpt lat="43.23829" lon="11.3742667"><ele>204.0</ele><time>2026-05-01T09:53:39.971Z</time></trkpt><trkpt lat="43.2382967" lon="11.3744267"><ele>204.0</ele><time>2026-05-01T09:53:40.971Z</time></trkpt><trkpt lat="43.2382933" lon="11.37459"><ele>204.0</ele><time>2026-05-01T09:53:41.972Z</time></trkpt><trkpt lat="43.23829" lon="11.374745"><ele>204.0</ele><time>2026-05-01T09:53:42.971Z</time></trkpt><trkpt lat="43.2382683" lon="11.374885"><ele>204.0</ele><time>2026-05-01T09:53:43.971Z</time></trkpt><trkpt lat="43.2382433" lon="11.3749983"><ele>204.0</ele><time>2026-05-01T09:53:44.971Z</time></trkpt><trkpt lat="43.2381983" lon="11.375095"><ele>204.0</ele><time>2026-05-01T09:53:45.971Z</time></trkpt><trkpt lat="43.23813" lon="11.37518"><ele>204.0</ele><time>2026-05-01T09:53:46.971Z</time></trkpt><trkpt lat="43.238035" lon="11.3752617"><ele>204.0</ele><time>2026-05-01T09:53:47.972Z</time></trkpt><trkpt lat="43.23793" lon="11.3753517"><ele>204.0</ele><time>2026-05-01T09:53:48.971Z</time></trkpt><trkpt lat="43.2378333" lon="11.3754417"><ele>204.0</ele><time>2026-05-01T09:53:49.971Z</time></trkpt><trkpt lat="43.23774" lon="11.3755317"><ele>202.75</ele><time>2026-05-01T09:53:50.972Z</time></trkpt><trkpt lat="43.2376467" lon="11.37563"><ele>201.5</ele><time>2026-05-01T09:53:51.971Z</time></trkpt><trkpt lat="43.23755" lon="11.375735"><ele>200.25</ele><time>2026-05-01T09:53:52.971Z</time></trkpt><trkpt lat="43.2374433" lon="11.3758517"><ele>199.0</ele><time>2026-05-01T09:53:53.972Z</time></trkpt><trkpt lat="43.2373233" lon="11.375985"><ele>198.25</ele><time>2026-05-01T09:53:54.971Z</time></trkpt><trkpt lat="43.2372083" lon="11.3761033"><ele>197.5</ele><time>2026-05-01T09:53:55.971Z</time></trkpt><trkpt lat="43.237105" lon="11.37621"><ele>196.75</ele><time>2026-05-01T09:53:56.972Z</time></trkpt><trkpt lat="43.2370017" lon="11.376295"><ele>196.0</ele><time>2026-05-01T09:53:57.971Z</time></trkpt><trkpt lat="43.2368983" lon="11.37634"><ele>196.0</ele><time>2026-05-01T09:53:58.97Z</time></trkpt><trkpt lat="43.2367917" lon="11.37637"><ele>196.0</ele><time>2026-05-01T09:53:59.971Z</time></trkpt><trkpt lat="43.2366883" lon="11.3763833"><ele>196.0</ele><time>2026-05-01T09:54:00.97Z</time></trkpt><trkpt lat="43.23659" lon="11.3763767"><ele>196.0</ele><time>2026-05-01T09:54:01.97Z</time></trkpt><trkpt lat="43.2364933" lon="11.37634"><ele>196.0</ele><time>2026-05-01T09:54:02.971Z</time></trkpt><trkpt lat="43.23641" lon="11.3762717"><ele>194.0</ele><time>2026-05-01T09:54:03.97Z</time></trkpt><trkpt lat="43.23634" lon="11.3761833"><ele>192.0</ele><time>2026-05-01T09:54:04.971Z</time></trkpt><trkpt lat="43.2362817" lon="11.3760583"><ele>190.0</ele><time>2026-05-01T09:54:05.971Z</time></trkpt><trkpt lat="43.2362317" lon="11.37594"><ele>188.0</ele><time>2026-05-01T09:54:06.97Z</time></trkpt><trkpt lat="43.2362067" lon="11.3758533"><ele>186.0</ele><time>2026-05-01T09:54:07.971Z</time></trkpt><trkpt lat="43.236185" lon="11.375675"><ele>186.0</ele><time>2026-05-01T09:54:09.97Z</time></trkpt><trkpt lat="43.2361867" lon="11.3755533"><ele>186.0</ele><time>2026-05-01T09:54:10.971Z</time></trkpt><trkpt lat="43.2362017" lon="11.3754283"><ele>186.0</ele><time>2026-05-01T09:54:11.971Z</time></trkpt><trkpt lat="43.23623" lon="11.375285"><ele>186.0</ele><time>2026-05-01T09:54:12.97Z</time></trkpt><trkpt lat="43.236275" lon="11.37514"><ele>186.0</ele><time>2026-05-01T09:54:13.97Z</time></trkpt><trkpt lat="43.2363383" lon="11.3749917"><ele>185.0</ele><time>2026-05-01T09:54:14.971Z</time></trkpt><trkpt lat="43.2364017" lon="11.374855"><ele>184.0</ele><time>2026-05-01T09:54:15.971Z</time></trkpt><trkpt lat="43.2364517" lon="11.3747033"><ele>183.0</ele><time>2026-05-01T09:54:16.97Z</time></trkpt><trkpt lat="43.2364917" lon="11.3745417"><ele>182.0</ele><time>2026-05-01T09:54:17.97Z</time></trkpt><trkpt lat="43.236525" lon="11.3743683"><ele>183.0</ele><time>2026-05-01T09:54:18.971Z</time></trkpt><trkpt lat="43.2365433" lon="11.3742033"><ele>184.0</ele><time>2026-05-01T09:54:19.97Z</time></trkpt><trkpt lat="43.2365633" lon="11.3740483"><ele>185.0</ele><time>2026-05-01T09:54:20.971Z</time></trkpt><trkpt lat="43.2365633" lon="11.3739"><ele>186.0</ele><time>2026-05-01T09:54:21.971Z</time></trkpt><trkpt lat="43.2365383" lon="11.3737667"><ele>187.0</ele><time>2026-05-01T09:54:22.971Z</time></trkpt><trkpt lat="43.236495" lon="11.3736517"><ele>186.0</ele><time>2026-05-01T09:54:23.97Z</time></trkpt><trkpt lat="43.23643" lon="11.3735533"><ele>185.0</ele><time>2026-05-01T09:54:24.97Z</time></trkpt><trkpt lat="43.236355" lon="11.3734867"><ele>184.0</ele><time>2026-05-01T09:54:25.97Z</time></trkpt><trkpt lat="43.2362717" lon="11.3734333"><ele>183.0</ele><time>2026-05-01T09:54:26.97Z</time></trkpt><trkpt lat="43.2361817" lon="11.3734133"><ele>182.0</ele><time>2026-05-01T09:54:27.971Z</time></trkpt><trkpt lat="43.2360833" lon="11.37341"><ele>182.0</ele><time>2026-05-01T09:54:28.97Z</time></trkpt><trkpt lat="43.2359767" lon="11.37342"><ele>182.0</ele><time>2026-05-01T09:54:29.97Z</time></trkpt><trkpt lat="43.2358633" lon="11.3734333"><ele>182.0</ele><time>2026-05-01T09:54:30.97Z</time></trkpt><trkpt lat="43.235745" lon="11.3734433"><ele>182.0</ele><time>2026-05-01T09:54:31.971Z</time></trkpt><trkpt lat="43.23562" lon="11.373455"><ele>180.75</ele><time>2026-05-01T09:54:32.97Z</time></trkpt><trkpt lat="43.2354983" lon="11.3734683"><ele>179.5</ele><time>2026-05-01T09:54:33.97Z</time></trkpt><trkpt lat="43.2353783" lon="11.373475"><ele>178.25</ele><time>2026-05-01T09:54:34.97Z</time></trkpt><trkpt lat="43.2352583" lon="11.3734917"><ele>177.0</ele><time>2026-05-01T09:54:35.97Z</time></trkpt><trkpt lat="43.2351467" lon="11.373505"><ele>177.0</ele><time>2026-05-01T09:54:36.97Z</time></trkpt><trkpt lat="43.2350317" lon="11.37351"><ele>177.0</ele><time>2026-05-01T09:54:37.97Z</time></trkpt><trkpt lat="43.2349067" lon="11.3735167"><ele>177.0</ele><time>2026-05-01T09:54:38.971Z</time></trkpt><trkpt lat="43.2347817" lon="11.373525"><ele>177.0</ele><time>2026-05-01T09:54:39.97Z</time></trkpt><trkpt lat="43.2346667" lon="11.3735333"><ele>177.25</ele><time>2026-05-01T09:54:40.97Z</time></trkpt><trkpt lat="43.2345517" lon="11.3735417"><ele>177.5</ele><time>2026-05-01T09:54:41.971Z</time></trkpt><trkpt lat="43.2344333" lon="11.373555"><ele>177.75</ele><time>2026-05-01T09:54:42.971Z</time></trkpt><trkpt lat="43.2343067" lon="11.3735683"><ele>178.0</ele><time>2026-05-01T09:54:43.97Z</time></trkpt><trkpt lat="43.234175" lon="11.3735767"><ele>178.0</ele><time>2026-05-01T09:54:44.971Z</time></trkpt><trkpt lat="43.2340317" lon="11.3735883"><ele>178.0</ele><time>2026-05-01T09:54:45.97Z</time></trkpt><trkpt lat="43.2338933" lon="11.3736117"><ele>178.0</ele><time>2026-05-01T09:54:46.971Z</time></trkpt><trkpt lat="43.2337467" lon="11.3736483"><ele>178.0</ele><time>2026-05-01T09:54:47.97Z</time></trkpt><trkpt lat="43.2335967" lon="11.3737233"><ele>178.33333333333334</ele><time>2026-05-01T09:54:48.971Z</time></trkpt><trkpt lat="43.2334467" lon="11.3738217"><ele>178.66666666666666</ele><time>2026-05-01T09:54:49.97Z</time></trkpt><trkpt lat="43.233285" lon="11.37393"><ele>179.0</ele><time>2026-05-01T09:54:50.97Z</time></trkpt><trkpt lat="43.2331117" lon="11.3740467"><ele>179.0</ele><time>2026-05-01T09:54:51.971Z</time></trkpt><trkpt lat="43.2329367" lon="11.37417"><ele>179.0</ele><time>2026-05-01T09:54:52.97Z</time></trkpt><trkpt lat="43.232755" lon="11.374295"><ele>179.0</ele><time>2026-05-01T09:54:53.971Z</time></trkpt><trkpt lat="43.2325617" lon="11.374425"><ele>179.0</ele><time>2026-05-01T09:54:54.971Z</time></trkpt><trkpt lat="43.2323633" lon="11.3745633"><ele>179.0</ele><time>2026-05-01T09:54:55.97Z</time></trkpt><trkpt lat="43.2321567" lon="11.3747083"><ele>179.0</ele><time>2026-05-01T09:54:56.971Z</time></trkpt><trkpt lat="43.2319467" lon="11.37486"><ele>179.0</ele><time>2026-05-01T09:54:57.97Z</time></trkpt><trkpt lat="43.2317417" lon="11.3750083"><ele>179.0</ele><time>2026-05-01T09:54:58.97Z</time></trkpt><trkpt lat="43.23153" lon="11.3751633"><ele>179.0</ele><time>2026-05-01T09:54:59.97Z</time></trkpt><trkpt lat="43.2313117" lon="11.37532"><ele>179.0</ele><time>2026-05-01T09:55:00.971Z</time></trkpt><trkpt lat="43.2310733" lon="11.3754867"><ele>179.0</ele><time>2026-05-01T09:55:01.971Z</time></trkpt><trkpt lat="43.2308383" lon="11.3756517"><ele>181.5</ele><time>2026-05-01T09:55:02.971Z</time></trkpt><trkpt lat="43.230615" lon="11.3758067"><ele>184.0</ele><time>2026-05-01T09:55:03.97Z</time></trkpt><trkpt lat="43.2304" lon="11.3759617"><ele>184.0</ele><time>2026-05-01T09:55:04.971Z</time></trkpt><trkpt lat="43.2301767" lon="11.3761217"><ele>184.0</ele><time>2026-05-01T09:55:05.97Z</time></trkpt><trkpt lat="43.22996" lon="11.37629"><ele>185.0</ele><time>2026-05-01T09:55:06.97Z</time></trkpt><trkpt lat="43.2297483" lon="11.3764433"><ele>186.0</ele><time>2026-05-01T09:55:07.97Z</time></trkpt><trkpt lat="43.2295633" lon="11.3766"><ele>186.0</ele><time>2026-05-01T09:55:08.97Z</time></trkpt><trkpt lat="43.2294" lon="11.37674"><ele>186.0</ele><time>2026-05-01T09:55:09.97Z</time></trkpt><trkpt lat="43.2292433" lon="11.3768733"><ele>186.0</ele><time>2026-05-01T09:55:10.97Z</time></trkpt><trkpt lat="43.2290933" lon="11.3769967"><ele>187.33333333333334</ele><time>2026-05-01T09:55:11.971Z</time></trkpt><trkpt lat="43.22893" lon="11.3771017"><ele>188.66666666666669</ele><time>2026-05-01T09:55:12.971Z</time></trkpt><trkpt lat="43.2287583" lon="11.3771767"><ele>190.0</ele><time>2026-05-01T09:55:13.97Z</time></trkpt><trkpt lat="43.2285833" lon="11.3772333"><ele>186.0</ele><time>2026-05-01T09:55:14.97Z</time></trkpt><trkpt lat="43.2283867" lon="11.37726"><ele>182.0</ele><time>2026-05-01T09:55:15.971Z</time></trkpt><trkpt lat="43.22818" lon="11.3772667"><ele>178.0</ele><time>2026-05-01T09:55:16.97Z</time></trkpt><trkpt lat="43.2279833" lon="11.3772783"><ele>178.0</ele><time>2026-05-01T09:55:17.97Z</time></trkpt><trkpt lat="43.2277883" lon="11.3772933"><ele>178.0</ele><time>2026-05-01T09:55:18.971Z</time></trkpt><trkpt lat="43.22759" lon="11.3772967"><ele>178.0</ele><time>2026-05-01T09:55:19.97Z</time></trkpt><trkpt lat="43.227415" lon="11.3772867"><ele>177.66666666666669</ele><time>2026-05-01T09:55:20.971Z</time></trkpt><trkpt lat="43.2272567" lon="11.37726"><ele>177.33333333333334</ele><time>2026-05-01T09:55:21.971Z</time></trkpt><trkpt lat="43.2270883" lon="11.3772"><ele>177.0</ele><time>2026-05-01T09:55:22.97Z</time></trkpt><trkpt lat="43.2269267" lon="11.3771117"><ele>177.0</ele><time>2026-05-01T09:55:23.971Z</time></trkpt><trkpt lat="43.2267617" lon="11.376995"><ele>177.0</ele><time>2026-05-01T09:55:24.971Z</time></trkpt><trkpt lat="43.2266033" lon="11.37685"><ele>177.0</ele><time>2026-05-01T09:55:25.971Z</time></trkpt><trkpt lat="43.2264683" lon="11.3767017"><ele>177.0</ele><time>2026-05-01T09:55:26.97Z</time></trkpt><trkpt lat="43.2263433" lon="11.3765283"><ele>177.0</ele><time>2026-05-01T09:55:27.971Z</time></trkpt><trkpt lat="43.22624" lon="11.3763467"><ele>177.0</ele><time>2026-05-01T09:55:28.97Z</time></trkpt><trkpt lat="43.22615" lon="11.3761517"><ele>177.33333333333334</ele><time>2026-05-01T09:55:29.97Z</time></trkpt><trkpt lat="43.2260867" lon="11.3759217"><ele>177.66666666666669</ele><time>2026-05-01T09:55:30.971Z</time></trkpt><trkpt lat="43.2260333" lon="11.3756933"><ele>178.0</ele><time>2026-05-01T09:55:31.97Z</time></trkpt><trkpt lat="43.2260167" lon="11.3754767"><ele>178.0</ele><time>2026-05-01T09:55:32.97Z</time></trkpt><trkpt lat="43.2260217" lon="11.375265"><ele>178.0</ele><time>2026-05-01T09:55:33.971Z</time></trkpt><trkpt lat="43.22604" lon="11.3750383"><ele>178.0</ele><time>2026-05-01T09:55:34.97Z</time></trkpt><trkpt lat="43.2260667" lon="11.3748017"><ele>177.66666666666669</ele><time>2026-05-01T09:55:35.971Z</time></trkpt><trkpt lat="43.2260883" lon="11.37457"><ele>177.33333333333334</ele><time>2026-05-01T09:55:36.97Z</time></trkpt><trkpt lat="43.2261083" lon="11.3743583"><ele>177.0</ele><time>2026-05-01T09:55:37.971Z</time></trkpt><trkpt lat="43.2261267" lon="11.374155"><ele>177.0</ele><time>2026-05-01T09:55:38.971Z</time></trkpt><trkpt lat="43.2261333" lon="11.3739583"><ele>177.0</ele><time>2026-05-01T09:55:39.971Z</time></trkpt><trkpt lat="43.2261233" lon="11.3737617"><ele>177.0</ele><time>2026-05-01T09:55:40.971Z</time></trkpt><trkpt lat="43.2260967" lon="11.373555"><ele>177.0</ele><time>2026-05-01T09:55:41.971Z</time></trkpt><trkpt lat="43.226045" lon="11.3733533"><ele>177.33333333333334</ele><time>2026-05-01T09:55:42.971Z</time></trkpt><trkpt lat="43.2259817" lon="11.373135"><ele>177.66666666666669</ele><time>2026-05-01T09:55:43.97Z</time></trkpt><trkpt lat="43.2259083" lon="11.3729083"><ele>178.0</ele><time>2026-05-01T09:55:44.971Z</time></trkpt><trkpt lat="43.225835" lon="11.3726983"><ele>178.4</ele><time>2026-05-01T09:55:45.97Z</time></trkpt><trkpt lat="43.2257783" lon="11.37252"><ele>178.8</ele><time>2026-05-01T09:55:46.971Z</time></trkpt><trkpt lat="43.22573" lon="11.3723867"><ele>179.2</ele><time>2026-05-01T09:55:47.97Z</time></trkpt><trkpt lat="43.225685" lon="11.3722967"><ele>179.6</ele><time>2026-05-01T09:55:48.97Z</time></trkpt><trkpt lat="43.225625" lon="11.3722167"><ele>180.0</ele><time>2026-05-01T09:55:49.97Z</time></trkpt><trkpt lat="43.2255483" lon="11.3721717"><ele>180.0</ele><time>2026-05-01T09:55:50.971Z</time></trkpt><trkpt lat="43.2254717" lon="11.3721667"><ele>180.0</ele><time>2026-05-01T09:55:51.971Z</time></trkpt><trkpt lat="43.225395" lon="11.3721983"><ele>180.0</ele><time>2026-05-01T09:55:52.971Z</time></trkpt><trkpt lat="43.2253333" lon="11.372265"><ele>180.0</ele><time>2026-05-01T09:55:53.97Z</time></trkpt><trkpt lat="43.2252783" lon="11.37236"><ele>180.0</ele><time>2026-05-01T09:55:54.971Z</time></trkpt><trkpt lat="43.2252217" lon="11.37249"><ele>180.0</ele><time>2026-05-01T09:55:55.97Z</time></trkpt><trkpt lat="43.2251683" lon="11.372655"><ele>180.0</ele><time>2026-05-01T09:55:56.97Z</time></trkpt><trkpt lat="43.22511" lon="11.3728333"><ele>180.0</ele><time>2026-05-01T09:55:57.97Z</time></trkpt><trkpt lat="43.22504" lon="11.3730017"><ele>180.0</ele><time>2026-05-01T09:55:58.971Z</time></trkpt><trkpt lat="43.2249567" lon="11.3731717"><ele>180.0</ele><time>2026-05-01T09:55:59.971Z</time></trkpt><trkpt lat="43.2248717" lon="11.3732933"><ele>182.0</ele><time>2026-05-01T09:56:00.971Z</time></trkpt><trkpt lat="43.2247667" lon="11.3733867"><ele>184.0</ele><time>2026-05-01T09:56:01.97Z</time></trkpt><trkpt lat="43.2246483" lon="11.37346"><ele>186.0</ele><time>2026-05-01T09:56:02.97Z</time></trkpt><trkpt lat="43.224525" lon="11.37351"><ele>188.0</ele><time>2026-05-01T09:56:03.97Z</time></trkpt><trkpt lat="43.2244133" lon="11.3735383"><ele>188.0</ele><time>2026-05-01T09:56:04.97Z</time></trkpt><trkpt lat="43.224305" lon="11.373545"><ele>188.0</ele><time>2026-05-01T09:56:05.971Z</time></trkpt><trkpt lat="43.2242017" lon="11.3735233"><ele>188.0</ele><time>2026-05-01T09:56:06.971Z</time></trkpt><trkpt lat="43.2240967" lon="11.3734733"><ele>188.0</ele><time>2026-05-01T09:56:07.97Z</time></trkpt><trkpt lat="43.2239883" lon="11.3734033"><ele>188.0</ele><time>2026-05-01T09:56:08.97Z</time></trkpt><trkpt lat="43.2238833" lon="11.3733117"><ele>192.5</ele><time>2026-05-01T09:56:09.97Z</time></trkpt><trkpt lat="43.223785" lon="11.3732"><ele>197.0</ele><time>2026-05-01T09:56:10.97Z</time></trkpt><trkpt lat="43.2237033" lon="11.3730783"><ele>201.5</ele><time>2026-05-01T09:56:11.971Z</time></trkpt><trkpt lat="43.223645" lon="11.3729533"><ele>206.0</ele><time>2026-05-01T09:56:12.97Z</time></trkpt><trkpt lat="43.2235983" lon="11.3728133"><ele>206.0</ele><time>2026-05-01T09:56:13.97Z</time></trkpt><trkpt lat="43.2235683" lon="11.3726667"><ele>206.0</ele><time>2026-05-01T09:56:14.97Z</time></trkpt><trkpt lat="43.22358" lon="11.3724967"><ele>206.0</ele><time>2026-05-01T09:56:15.971Z</time></trkpt><trkpt lat="43.2236" lon="11.3723183"><ele>206.0</ele><time>2026-05-01T09:56:16.97Z</time></trkpt><trkpt lat="43.2236233" lon="11.3721167"><ele>206.0</ele><time>2026-05-01T09:56:17.97Z</time></trkpt><trkpt lat="43.2236383" lon="11.371935"><ele>206.0</ele><time>2026-05-01T09:56:18.97Z</time></trkpt><trkpt lat="43.2236333" lon="11.3717717"><ele>206.0</ele><time>2026-05-01T09:56:19.97Z</time></trkpt><trkpt lat="43.2235917" lon="11.3716317"><ele>206.0</ele><time>2026-05-01T09:56:20.971Z</time></trkpt><trkpt lat="43.2235333" lon="11.371495"><ele>206.0</ele><time>2026-05-01T09:56:21.971Z</time></trkpt><trkpt lat="43.2234467" lon="11.3713817"><ele>206.0</ele><time>2026-05-01T09:56:22.971Z</time></trkpt><trkpt lat="43.2233583" lon="11.37129"><ele>206.0</ele><time>2026-05-01T09:56:23.97Z</time></trkpt><trkpt lat="43.2232733" lon="11.37123"><ele>206.0</ele><time>2026-05-01T09:56:24.97Z</time></trkpt><trkpt lat="43.2231767" lon="11.371205"><ele>206.0</ele><time>2026-05-01T09:56:25.971Z</time></trkpt><trkpt lat="43.2230767" lon="11.3712183"><ele>206.5</ele><time>2026-05-01T09:56:26.97Z</time></trkpt><trkpt lat="43.2229783" lon="11.371265"><ele>207.0</ele><time>2026-05-01T09:56:27.97Z</time></trkpt><trkpt lat="43.2228933" lon="11.371345"><ele>207.5</ele><time>2026-05-01T09:56:28.971Z</time></trkpt><trkpt lat="43.22281" lon="11.3714617"><ele>208.0</ele><time>2026-05-01T09:56:29.97Z</time></trkpt><trkpt lat="43.2227267" lon="11.3716117"><ele>208.0</ele><time>2026-05-01T09:56:30.971Z</time></trkpt><trkpt lat="43.2226367" lon="11.3717917"><ele>208.0</ele><time>2026-05-01T09:56:31.971Z</time></trkpt><trkpt lat="43.2225283" lon="11.371975"><ele>208.0</ele><time>2026-05-01T09:56:32.97Z</time></trkpt><trkpt lat="43.2224017" lon="11.3721583"><ele>212.33333333333331</ele><time>2026-05-01T09:56:33.97Z</time></trkpt><trkpt lat="43.2222633" lon="11.3723217"><ele>216.66666666666669</ele><time>2026-05-01T09:56:34.97Z</time></trkpt><trkpt lat="43.2221217" lon="11.3724617"><ele>221.0</ele><time>2026-05-01T09:56:35.97Z</time></trkpt><trkpt lat="43.22199" lon="11.37256"><ele>221.0</ele><time>2026-05-01T09:56:36.97Z</time></trkpt><trkpt lat="43.2218533" lon="11.37262"><ele>221.0</ele><time>2026-05-01T09:56:37.97Z</time></trkpt><trkpt lat="43.2217067" lon="11.3726633"><ele>221.0</ele><time>2026-05-01T09:56:38.97Z</time></trkpt><trkpt lat="43.221555" lon="11.3727033"><ele>221.0</ele><time>2026-05-01T09:56:39.97Z</time></trkpt><trkpt lat="43.2214033" lon="11.372745"><ele>223.0</ele><time>2026-05-01T09:56:40.97Z</time></trkpt><trkpt lat="43.221255" lon="11.3727733"><ele>225.0</ele><time>2026-05-01T09:56:41.971Z</time></trkpt><trkpt lat="43.22111" lon="11.3728067"><ele>227.0</ele><time>2026-05-01T09:56:42.971Z</time></trkpt><trkpt lat="43.220955" lon="11.372835"><ele>227.0</ele><time>2026-05-01T09:56:43.97Z</time></trkpt><trkpt lat="43.220805" lon="11.372865"><ele>227.0</ele><time>2026-05-01T09:56:44.97Z</time></trkpt><trkpt lat="43.220635" lon="11.3728933"><ele>227.0</ele><time>2026-05-01T09:56:45.97Z</time></trkpt><trkpt lat="43.2204533" lon="11.3729333"><ele>228.33333333333334</ele><time>2026-05-01T09:56:46.971Z</time></trkpt><trkpt lat="43.22027" lon="11.3729717"><ele>229.66666666666669</ele><time>2026-05-01T09:56:47.971Z</time></trkpt><trkpt lat="43.2200883" lon="11.3730183"><ele>231.0</ele><time>2026-05-01T09:56:48.971Z</time></trkpt><trkpt lat="43.2199033" lon="11.3730567"><ele>235.33333333333331</ele><time>2026-05-01T09:56:49.97Z</time></trkpt><trkpt lat="43.2197317" lon="11.373085"><ele>239.66666666666666</ele><time>2026-05-01T09:56:50.971Z</time></trkpt><trkpt lat="43.2195683" lon="11.3731"><ele>244.0</ele><time>2026-05-01T09:56:51.97Z</time></trkpt><trkpt lat="43.21943" lon="11.373095"><ele>244.0</ele><time>2026-05-01T09:56:52.97Z</time></trkpt><trkpt lat="43.2193117" lon="11.37308"><ele>243.99999999999997</ele><time>2026-05-01T09:56:53.97Z</time></trkpt><trkpt lat="43.2192133" lon="11.37306"><ele>243.99999999999997</ele><time>2026-05-01T09:56:54.97Z</time></trkpt><trkpt lat="43.219115" lon="11.37305"><ele>244.0</ele><time>2026-05-01T09:56:55.97Z</time></trkpt><trkpt lat="43.219025" lon="11.3730233"><ele>244.0</ele><time>2026-05-01T09:56:56.97Z</time></trkpt><trkpt lat="43.21893" lon="11.3730017"><ele>245.6</ele><time>2026-05-01T09:56:57.97Z</time></trkpt><trkpt lat="43.21884" lon="11.3729633"><ele>247.2</ele><time>2026-05-01T09:56:58.971Z</time></trkpt><trkpt lat="43.2187483" lon="11.3729233"><ele>248.79999999999998</ele><time>2026-05-01T09:56:59.971Z</time></trkpt><trkpt lat="43.2186583" lon="11.3728783"><ele>250.39999999999998</ele><time>2026-05-01T09:57:00.97Z</time></trkpt><trkpt lat="43.218555" lon="11.3728417"><ele>252.0</ele><time>2026-05-01T09:57:01.97Z</time></trkpt><trkpt lat="43.2184533" lon="11.3727933"><ele>252.0</ele><time>2026-05-01T09:57:02.97Z</time></trkpt><trkpt lat="43.218365" lon="11.3727267"><ele>252.0</ele><time>2026-05-01T09:57:03.971Z</time></trkpt><trkpt lat="43.2182683" lon="11.372665"><ele>252.0</ele><time>2026-05-01T09:57:04.971Z</time></trkpt><trkpt lat="43.218165" lon="11.37261"><ele>252.0</ele><time>2026-05-01T09:57:05.97Z</time></trkpt><trkpt lat="43.21806" lon="11.372565"><ele>252.0</ele><time>2026-05-01T09:57:06.97Z</time></trkpt><trkpt lat="43.2179633" lon="11.3725133"><ele>250.0</ele><time>2026-05-01T09:57:07.97Z</time></trkpt><trkpt lat="43.2178683" lon="11.3724617"><ele>248.0</ele><time>2026-05-01T09:57:08.971Z</time></trkpt><trkpt lat="43.21777" lon="11.3724133"><ele>246.0</ele><time>2026-05-01T09:57:09.97Z</time></trkpt><trkpt lat="43.2176767" lon="11.372375"><ele>244.0</ele><time>2026-05-01T09:57:10.971Z</time></trkpt><trkpt lat="43.2175817" lon="11.37233"><ele>242.0</ele><time>2026-05-01T09:57:11.971Z</time></trkpt><trkpt lat="43.2174983" lon="11.3722867"><ele>242.0</ele><time>2026-05-01T09:57:12.97Z</time></trkpt><trkpt lat="43.2174233" lon="11.3722483"><ele>242.0</ele><time>2026-05-01T09:57:13.97Z</time></trkpt><trkpt lat="43.21734" lon="11.372215"><ele>242.0</ele><time>2026-05-01T09:57:15.97Z</time></trkpt><trkpt lat="43.21726" lon="11.3721767"><ele>242.0</ele><time>2026-05-01T09:57:17.97Z</time></trkpt><trkpt lat="43.2171317" lon="11.3721"><ele>242.0</ele><time>2026-05-01T09:57:19.97Z</time></trkpt><trkpt lat="43.2170533" lon="11.3720567"><ele>241.33333333333334</ele><time>2026-05-01T09:57:20.97Z</time></trkpt><trkpt lat="43.216975" lon="11.37201"><ele>240.66666666666669</ele><time>2026-05-01T09:57:21.97Z</time></trkpt><trkpt lat="43.216905" lon="11.3719717"><ele>240.0</ele><time>2026-05-01T09:57:22.97Z</time></trkpt><trkpt lat="43.2168283" lon="11.37194"><ele>239.33333333333331</ele><time>2026-05-01T09:57:23.971Z</time></trkpt><trkpt lat="43.2167533" lon="11.37191"><ele>238.66666666666666</ele><time>2026-05-01T09:57:24.971Z</time></trkpt><trkpt lat="43.2166783" lon="11.3718633"><ele>238.0</ele><time>2026-05-01T09:57:25.97Z</time></trkpt><trkpt lat="43.2165983" lon="11.3718283"><ele>238.0</ele><time>2026-05-01T09:57:26.971Z</time></trkpt><trkpt lat="43.2165033" lon="11.371785"><ele>238.0</ele><time>2026-05-01T09:57:27.971Z</time></trkpt><trkpt lat="43.2164033" lon="11.37173"><ele>238.0</ele><time>2026-05-01T09:57:28.97Z</time></trkpt><trkpt lat="43.2163" lon="11.3716817"><ele>238.0</ele><time>2026-05-01T09:57:29.97Z</time></trkpt><trkpt lat="43.216195" lon="11.3716317"><ele>238.0</ele><time>2026-05-01T09:57:30.97Z</time></trkpt><trkpt lat="43.2160983" lon="11.3715733"><ele>238.4</ele><time>2026-05-01T09:57:31.97Z</time></trkpt><trkpt lat="43.216005" lon="11.3715233"><ele>238.8</ele><time>2026-05-01T09:57:32.97Z</time></trkpt><trkpt lat="43.2159183" lon="11.3714583"><ele>239.2</ele><time>2026-05-01T09:57:33.97Z</time></trkpt><trkpt lat="43.2158333" lon="11.371385"><ele>239.6</ele><time>2026-05-01T09:57:34.971Z</time></trkpt><trkpt lat="43.215755" lon="11.3713233"><ele>240.0</ele><time>2026-05-01T09:57:35.97Z</time></trkpt><trkpt lat="43.21568" lon="11.37126"><ele>240.0</ele><time>2026-05-01T09:57:36.97Z</time></trkpt><trkpt lat="43.2156033" lon="11.3711867"><ele>240.0</ele><time>2026-05-01T09:57:37.97Z</time></trkpt><trkpt lat="43.2155333" lon="11.3711033"><ele>240.0</ele><time>2026-05-01T09:57:38.97Z</time></trkpt><trkpt lat="43.21546" lon="11.37101"><ele>240.0</ele><time>2026-05-01T09:57:39.971Z</time></trkpt><trkpt lat="43.2153733" lon="11.3709333"><ele>240.0</ele><time>2026-05-01T09:57:40.97Z</time></trkpt><trkpt lat="43.2152733" lon="11.37088"><ele>240.0</ele><time>2026-05-01T09:57:41.97Z</time></trkpt><trkpt lat="43.215175" lon="11.37083"><ele>240.0</ele><time>2026-05-01T09:57:42.971Z</time></trkpt><trkpt lat="43.2150783" lon="11.3707767"><ele>240.0</ele><time>2026-05-01T09:57:43.97Z</time></trkpt><trkpt lat="43.214965" lon="11.37073"><ele>240.0</ele><time>2026-05-01T09:57:44.971Z</time></trkpt><trkpt lat="43.2148533" lon="11.37071"><ele>240.0</ele><time>2026-05-01T09:57:45.97Z</time></trkpt><trkpt lat="43.2147417" lon="11.370715"><ele>237.0</ele><time>2026-05-01T09:57:46.971Z</time></trkpt><trkpt lat="43.21463" lon="11.37075"><ele>234.0</ele><time>2026-05-01T09:57:47.97Z</time></trkpt><trkpt lat="43.2145183" lon="11.3708133"><ele>231.0</ele><time>2026-05-01T09:57:48.971Z</time></trkpt><trkpt lat="43.2144033" lon="11.370895"><ele>228.0</ele><time>2026-05-01T09:57:49.97Z</time></trkpt><trkpt lat="43.2142883" lon="11.3709583"><ele>228.0</ele><time>2026-05-01T09:57:50.97Z</time></trkpt><trkpt lat="43.2141767" lon="11.3710267"><ele>228.0</ele><time>2026-05-01T09:57:51.971Z</time></trkpt><trkpt lat="43.214065" lon="11.3711"><ele>228.0</ele><time>2026-05-01T09:57:52.97Z</time></trkpt><trkpt lat="43.213955" lon="11.371175"><ele>228.0</ele><time>2026-05-01T09:57:53.971Z</time></trkpt><trkpt lat="43.2138467" lon="11.371245"><ele>226.5</ele><time>2026-05-01T09:57:54.97Z</time></trkpt><trkpt lat="43.21374" lon="11.3713033"><ele>225.0</ele><time>2026-05-01T09:57:55.97Z</time></trkpt><trkpt lat="43.2136283" lon="11.3713533"><ele>223.5</ele><time>2026-05-01T09:57:56.971Z</time></trkpt><trkpt lat="43.213515" lon="11.3713783"><ele>222.0</ele><time>2026-05-01T09:57:57.97Z</time></trkpt><trkpt lat="43.2134067" lon="11.371375"><ele>222.0</ele><time>2026-05-01T09:57:58.97Z</time></trkpt><trkpt lat="43.21331" lon="11.3713233"><ele>222.0</ele><time>2026-05-01T09:57:59.97Z</time></trkpt><trkpt lat="43.2132317" lon="11.3712167"><ele>222.0</ele><time>2026-05-01T09:58:00.971Z</time></trkpt><trkpt lat="43.2131583" lon="11.37108"><ele>222.0</ele><time>2026-05-01T09:58:01.971Z</time></trkpt><trkpt lat="43.2130767" lon="11.3709317"><ele>222.0</ele><time>2026-05-01T09:58:02.97Z</time></trkpt><trkpt lat="43.2129883" lon="11.37076"><ele>222.0</ele><time>2026-05-01T09:58:03.97Z</time></trkpt><trkpt lat="43.2128917" lon="11.3705683"><ele>222.0</ele><time>2026-05-01T09:58:04.97Z</time></trkpt><trkpt lat="43.2127967" lon="11.3703667"><ele>223.66666666666669</ele><time>2026-05-01T09:58:05.97Z</time></trkpt><trkpt lat="43.212695" lon="11.3701733"><ele>225.33333333333334</ele><time>2026-05-01T09:58:06.971Z</time></trkpt><trkpt lat="43.2125867" lon="11.3699767"><ele>227.0</ele><time>2026-05-01T09:58:07.97Z</time></trkpt><trkpt lat="43.2124767" lon="11.36979"><ele>226.33333333333334</ele><time>2026-05-01T09:58:08.971Z</time></trkpt><trkpt lat="43.2123633" lon="11.3696067"><ele>225.66666666666669</ele><time>2026-05-01T09:58:09.97Z</time></trkpt><trkpt lat="43.212245" lon="11.36943"><ele>225.0</ele><time>2026-05-01T09:58:10.97Z</time></trkpt><trkpt lat="43.2121267" lon="11.3692817"><ele>228.0</ele><time>2026-05-01T09:58:11.97Z</time></trkpt><trkpt lat="43.212" lon="11.369145"><ele>231.0</ele><time>2026-05-01T09:58:12.97Z</time></trkpt><trkpt lat="43.2118683" lon="11.3690217"><ele>234.0</ele><time>2026-05-01T09:58:13.97Z</time></trkpt><trkpt lat="43.211725" lon="11.3689133"><ele>233.66666666666669</ele><time>2026-05-01T09:58:14.97Z</time></trkpt><trkpt lat="43.2115633" lon="11.3688233"><ele>233.33333333333334</ele><time>2026-05-01T09:58:15.97Z</time></trkpt><trkpt lat="43.2113817" lon="11.3687417"><ele>233.0</ele><time>2026-05-01T09:58:16.971Z</time></trkpt><trkpt lat="43.2111883" lon="11.3686667"><ele>233.0</ele><time>2026-05-01T09:58:17.97Z</time></trkpt><trkpt lat="43.2109767" lon="11.3686"><ele>233.0</ele><time>2026-05-01T09:58:18.97Z</time></trkpt><trkpt lat="43.21074" lon="11.3685233"><ele>232.33333333333334</ele><time>2026-05-01T09:58:19.971Z</time></trkpt><trkpt lat="43.2105117" lon="11.3684533"><ele>231.66666666666669</ele><time>2026-05-01T09:58:20.97Z</time></trkpt><trkpt lat="43.2103117" lon="11.3683817"><ele>231.0</ele><time>2026-05-01T09:58:21.97Z</time></trkpt><trkpt lat="43.2101367" lon="11.3683233"><ele>231.0</ele><time>2026-05-01T09:58:22.971Z</time></trkpt><trkpt lat="43.2099917" lon="11.3682817"><ele>231.0</ele><time>2026-05-01T09:58:23.97Z</time></trkpt><trkpt lat="43.209875" lon="11.3682483"><ele>231.0</ele><time>2026-05-01T09:58:24.97Z</time></trkpt><trkpt lat="43.2097667" lon="11.3682383"><ele>231.0</ele><time>2026-05-01T09:58:25.97Z</time></trkpt><trkpt lat="43.2096767" lon="11.3682633"><ele>234.5</ele><time>2026-05-01T09:58:26.971Z</time></trkpt><trkpt lat="43.2095933" lon="11.368325"><ele>238.0</ele><time>2026-05-01T09:58:27.971Z</time></trkpt><trkpt lat="43.2095033" lon="11.3684367"><ele>241.5</ele><time>2026-05-01T09:58:28.97Z</time></trkpt><trkpt lat="43.2094" lon="11.36859"><ele>245.0</ele><time>2026-05-01T09:58:29.971Z</time></trkpt><trkpt lat="43.209295" lon="11.36877"><ele>243.0</ele><time>2026-05-01T09:58:30.97Z</time></trkpt><trkpt lat="43.2091767" lon="11.3689567"><ele>241.0</ele><time>2026-05-01T09:58:31.971Z</time></trkpt><trkpt lat="43.2090517" lon="11.3691467"><ele>239.0</ele><time>2026-05-01T09:58:32.971Z</time></trkpt><trkpt lat="43.20891" lon="11.3693417"><ele>243.66666666666669</ele><time>2026-05-01T09:58:33.97Z</time></trkpt><trkpt lat="43.2087583" lon="11.3695467"><ele>248.33333333333331</ele><time>2026-05-01T09:58:34.97Z</time></trkpt><trkpt lat="43.2086067" lon="11.369755"><ele>253.0</ele><time>2026-05-01T09:58:35.971Z</time></trkpt><trkpt lat="43.2084567" lon="11.3699617"><ele>253.0</ele><time>2026-05-01T09:58:36.97Z</time></trkpt><trkpt lat="43.208325" lon="11.370145"><ele>253.0</ele><time>2026-05-01T09:58:37.97Z</time></trkpt><trkpt lat="43.20819" lon="11.3703267"><ele>253.0</ele><time>2026-05-01T09:58:38.971Z</time></trkpt><trkpt lat="43.20806" lon="11.370515"><ele>258.66666666666663</ele><time>2026-05-01T09:58:39.971Z</time></trkpt><trkpt lat="43.207925" lon="11.3707017"><ele>264.3333333333333</ele><time>2026-05-01T09:58:40.97Z</time></trkpt><trkpt lat="43.2077867" lon="11.3709067"><ele>270.0</ele><time>2026-05-01T09:58:41.971Z</time></trkpt><trkpt lat="43.2076333" lon="11.3711083"><ele>270.0</ele><time>2026-05-01T09:58:42.971Z</time></trkpt><trkpt lat="43.2074867" lon="11.3713"><ele>270.0</ele><time>2026-05-01T09:58:43.97Z</time></trkpt><trkpt lat="43.2073483" lon="11.3714767"><ele>270.0</ele><time>2026-05-01T09:58:44.97Z</time></trkpt><trkpt lat="43.2072333" lon="11.3716517"><ele>270.3333333333333</ele><time>2026-05-01T09:58:45.971Z</time></trkpt><trkpt lat="43.2071233" lon="11.371835"><ele>270.66666666666663</ele><time>2026-05-01T09:58:46.971Z</time></trkpt><trkpt lat="43.2070133" lon="11.37204"><ele>271.0</ele><time>2026-05-01T09:58:47.971Z</time></trkpt><trkpt lat="43.206915" lon="11.3722267"><ele>271.0</ele><time>2026-05-01T09:58:48.97Z</time></trkpt><trkpt lat="43.2068217" lon="11.3723983"><ele>271.0</ele><time>2026-05-01T09:58:49.97Z</time></trkpt><trkpt lat="43.2067217" lon="11.37256"><ele>271.0</ele><time>2026-05-01T09:58:50.97Z</time></trkpt><trkpt lat="43.2066083" lon="11.3727017"><ele>269.66666666666663</ele><time>2026-05-01T09:58:51.971Z</time></trkpt><trkpt lat="43.20648" lon="11.3728383"><ele>268.3333333333333</ele><time>2026-05-01T09:58:52.97Z</time></trkpt><trkpt lat="43.2063267" lon="11.3729667"><ele>267.0</ele><time>2026-05-01T09:58:53.971Z</time></trkpt><trkpt lat="43.2061733" lon="11.3730533"><ele>267.0</ele><time>2026-05-01T09:58:54.97Z</time></trkpt><trkpt lat="43.2060133" lon="11.3731517"><ele>267.0</ele><time>2026-05-01T09:58:55.97Z</time></trkpt><trkpt lat="43.205865" lon="11.3732583"><ele>267.0</ele><time>2026-05-01T09:58:56.971Z</time></trkpt><trkpt lat="43.2057233" lon="11.3733783"><ele>267.25</ele><time>2026-05-01T09:58:57.97Z</time></trkpt><trkpt lat="43.2055917" lon="11.3735217"><ele>267.5</ele><time>2026-05-01T09:58:58.97Z</time></trkpt><trkpt lat="43.2054767" lon="11.3736367"><ele>267.75</ele><time>2026-05-01T09:58:59.97Z</time></trkpt><trkpt lat="43.205375" lon="11.373715"><ele>268.0</ele><time>2026-05-01T09:59:00.97Z</time></trkpt><trkpt lat="43.2052717" lon="11.37375"><ele>268.0</ele><time>2026-05-01T09:59:01.971Z</time></trkpt><trkpt lat="43.20516" lon="11.3737733"><ele>268.0</ele><time>2026-05-01T09:59:02.971Z</time></trkpt><trkpt lat="43.2050317" lon="11.3737783"><ele>268.0</ele><time>2026-05-01T09:59:03.97Z</time></trkpt><trkpt lat="43.2048917" lon="11.3737733"><ele>268.0</ele><time>2026-05-01T09:59:04.97Z</time></trkpt><trkpt lat="43.20474" lon="11.3737783"><ele>267.66666666666663</ele><time>2026-05-01T09:59:05.97Z</time></trkpt><trkpt lat="43.2045717" lon="11.3738033"><ele>267.3333333333333</ele><time>2026-05-01T09:59:06.97Z</time></trkpt><trkpt lat="43.2043917" lon="11.3738517"><ele>267.0</ele><time>2026-05-01T09:59:07.97Z</time></trkpt><trkpt lat="43.20422" lon="11.3739067"><ele>264.0</ele><time>2026-05-01T09:59:08.971Z</time></trkpt><trkpt lat="43.204055" lon="11.373965"><ele>261.0</ele><time>2026-05-01T09:59:09.97Z</time></trkpt><trkpt lat="43.2039017" lon="11.3740167"><ele>258.0</ele><time>2026-05-01T09:59:10.971Z</time></trkpt><trkpt lat="43.2037633" lon="11.3740917"><ele>258.0</ele><time>2026-05-01T09:59:11.97Z</time></trkpt><trkpt lat="43.20362" lon="11.3741833"><ele>258.0</ele><time>2026-05-01T09:59:12.971Z</time></trkpt><trkpt lat="43.2034733" lon="11.3743067"><ele>258.0</ele><time>2026-05-01T09:59:13.97Z</time></trkpt><trkpt lat="43.2033383" lon="11.3744167"><ele>258.0</ele><time>2026-05-01T09:59:14.971Z</time></trkpt><trkpt lat="43.2032033" lon="11.374485"><ele>258.0</ele><time>2026-05-01T09:59:15.971Z</time></trkpt><trkpt lat="43.2030417" lon="11.3745367"><ele>258.0</ele><time>2026-05-01T09:59:16.97Z</time></trkpt><trkpt lat="43.2028517" lon="11.3745933"><ele>256.0</ele><time>2026-05-01T09:59:17.97Z</time></trkpt><trkpt lat="43.2026517" lon="11.3746333"><ele>254.0</ele><time>2026-05-01T09:59:18.971Z</time></trkpt><trkpt lat="43.20243" lon="11.37469"><ele>252.0</ele><time>2026-05-01T09:59:19.97Z</time></trkpt><trkpt lat="43.2022283" lon="11.3747433"><ele>256.6666666666667</ele><time>2026-05-01T09:59:20.97Z</time></trkpt><trkpt lat="43.2020467" lon="11.3748033"><ele>261.33333333333337</ele><time>2026-05-01T09:59:21.971Z</time></trkpt><trkpt lat="43.2018867" lon="11.3748633"><ele>266.0</ele><time>2026-05-01T09:59:22.97Z</time></trkpt><trkpt lat="43.20173" lon="11.3749433"><ele>266.0</ele><time>2026-05-01T09:59:23.971Z</time></trkpt><trkpt lat="43.201575" lon="11.37505"><ele>266.0</ele><time>2026-05-01T09:59:24.97Z</time></trkpt><trkpt lat="43.201445" lon="11.3751433"><ele>266.0</ele><time>2026-05-01T09:59:25.97Z</time></trkpt><trkpt lat="43.201335" lon="11.375225"><ele>266.0</ele><time>2026-05-01T09:59:26.971Z</time></trkpt><trkpt lat="43.201235" lon="11.3752917"><ele>266.83333333333337</ele><time>2026-05-01T09:59:27.97Z</time></trkpt><trkpt lat="43.2011467" lon="11.3753517"><ele>267.6666666666667</ele><time>2026-05-01T09:59:28.97Z</time></trkpt><trkpt lat="43.2010717" lon="11.3753983"><ele>268.5</ele><time>2026-05-01T09:59:29.97Z</time></trkpt><trkpt lat="43.2009767" lon="11.3754017"><ele>269.3333333333333</ele><time>2026-05-01T09:59:31.97Z</time></trkpt><trkpt lat="43.2008933" lon="11.375355"><ele>270.16666666666663</ele><time>2026-05-01T09:59:34.971Z</time></trkpt><trkpt lat="43.2008133" lon="11.3753267"><ele>271.0</ele><time>2026-05-01T09:59:36.97Z</time></trkpt><trkpt lat="43.2006833" lon="11.37526"><ele>268.0</ele><time>2026-05-01T09:59:38.97Z</time></trkpt><trkpt lat="43.2005917" lon="11.3752033"><ele>265.0</ele><time>2026-05-01T09:59:39.971Z</time></trkpt><trkpt lat="43.20049" lon="11.375145"><ele>262.0</ele><time>2026-05-01T09:59:40.97Z</time></trkpt><trkpt lat="43.20039" lon="11.375085"><ele>259.0</ele><time>2026-05-01T09:59:41.97Z</time></trkpt><trkpt lat="43.2002967" lon="11.3750467"><ele>256.0</ele><time>2026-05-01T09:59:42.97Z</time></trkpt><trkpt lat="43.2002233" lon="11.3750217"><ele>255.99999999999997</ele><time>2026-05-01T09:59:43.97Z</time></trkpt><trkpt lat="43.200155" lon="11.375015"><ele>256.0</ele><time>2026-05-01T09:59:44.97Z</time></trkpt><trkpt lat="43.200085" lon="11.3750417"><ele>256.0</ele><time>2026-05-01T09:59:45.971Z</time></trkpt><trkpt lat="43.2000217" lon="11.375105"><ele>256.0</ele><time>2026-05-01T09:59:46.971Z</time></trkpt><trkpt lat="43.1999633" lon="11.3751983"><ele>255.99999999999997</ele><time>2026-05-01T09:59:47.97Z</time></trkpt><trkpt lat="43.1999033" lon="11.3753067"><ele>256.0</ele><time>2026-05-01T09:59:48.97Z</time></trkpt><trkpt lat="43.1998333" lon="11.375435"><ele>253.0</ele><time>2026-05-01T09:59:49.97Z</time></trkpt><trkpt lat="43.19975" lon="11.3755833"><ele>250.0</ele><time>2026-05-01T09:59:50.97Z</time></trkpt><trkpt lat="43.19964" lon="11.3757367"><ele>247.0</ele><time>2026-05-01T09:59:51.97Z</time></trkpt><trkpt lat="43.1995233" lon="11.3758783"><ele>244.0</ele><time>2026-05-01T09:59:52.97Z</time></trkpt><trkpt lat="43.1994017" lon="11.376005"><ele>244.0</ele><time>2026-05-01T09:59:53.97Z</time></trkpt><trkpt lat="43.1992783" lon="11.37611"><ele>244.0</ele><time>2026-05-01T09:59:54.97Z</time></trkpt><trkpt lat="43.1991483" lon="11.3761833"><ele>244.0</ele><time>2026-05-01T09:59:55.97Z</time></trkpt><trkpt lat="43.198985" lon="11.3762383"><ele>242.66666666666666</ele><time>2026-05-01T09:59:56.97Z</time></trkpt><trkpt lat="43.1988067" lon="11.37628"><ele>241.33333333333331</ele><time>2026-05-01T09:59:57.97Z</time></trkpt><trkpt lat="43.198635" lon="11.376315"><ele>240.0</ele><time>2026-05-01T09:59:58.971Z</time></trkpt><trkpt lat="43.1984867" lon="11.3763733"><ele>240.0</ele><time>2026-05-01T09:59:59.97Z</time></trkpt><trkpt lat="43.1983467" lon="11.3764517"><ele>240.0</ele><time>2026-05-01T10:00:00.97Z</time></trkpt><trkpt lat="43.198225" lon="11.3765583"><ele>240.0</ele><time>2026-05-01T10:00:01.97Z</time></trkpt><trkpt lat="43.1981" lon="11.37667"><ele>240.0</ele><time>2026-05-01T10:00:02.97Z</time></trkpt><trkpt lat="43.19796" lon="11.37682"><ele>240.0</ele><time>2026-05-01T10:00:03.97Z</time></trkpt><trkpt lat="43.1977967" lon="11.3769917"><ele>240.0</ele><time>2026-05-01T10:00:04.969Z</time></trkpt><trkpt lat="43.1976" lon="11.3771533"><ele>240.0</ele><time>2026-05-01T10:00:05.969Z</time></trkpt><trkpt lat="43.1973733" lon="11.3773133"><ele>236.0</ele><time>2026-05-01T10:00:06.97Z</time></trkpt><trkpt lat="43.1971517" lon="11.3774583"><ele>232.0</ele><time>2026-05-01T10:00:07.97Z</time></trkpt><trkpt lat="43.19695" lon="11.37759"><ele>232.0</ele><time>2026-05-01T10:00:08.969Z</time></trkpt><trkpt lat="43.19676" lon="11.3777183"><ele>232.0</ele><time>2026-05-01T10:00:09.969Z</time></trkpt><trkpt lat="43.1965617" lon="11.377855"><ele>232.0</ele><time>2026-05-01T10:00:10.969Z</time></trkpt><trkpt lat="43.19634" lon="11.378015"><ele>233.0</ele><time>2026-05-01T10:00:11.97Z</time></trkpt><trkpt lat="43.1961117" lon="11.3781733"><ele>234.0</ele><time>2026-05-01T10:00:12.97Z</time></trkpt><trkpt lat="43.1958883" lon="11.3783017"><ele>234.0</ele><time>2026-05-01T10:00:13.97Z</time></trkpt><trkpt lat="43.195695" lon="11.378395"><ele>234.0</ele><time>2026-05-01T10:00:14.97Z</time></trkpt><trkpt lat="43.195535" lon="11.37847"><ele>234.0</ele><time>2026-05-01T10:00:15.97Z</time></trkpt><trkpt lat="43.1953933" lon="11.3785483"><ele>233.66666666666669</ele><time>2026-05-01T10:00:16.969Z</time></trkpt><trkpt lat="43.19525" lon="11.3786333"><ele>233.33333333333334</ele><time>2026-05-01T10:00:17.97Z</time></trkpt><trkpt lat="43.19512" lon="11.378775"><ele>233.0</ele><time>2026-05-01T10:00:18.97Z</time></trkpt><trkpt lat="43.194985" lon="11.3789367"><ele>233.0</ele><time>2026-05-01T10:00:19.969Z</time></trkpt><trkpt lat="43.194865" lon="11.3791133"><ele>233.0</ele><time>2026-05-01T10:00:20.97Z</time></trkpt><trkpt lat="43.1947683" lon="11.379295"><ele>233.0</ele><time>2026-05-01T10:00:21.969Z</time></trkpt><trkpt lat="43.194685" lon="11.3794867"><ele>231.0</ele><time>2026-05-01T10:00:22.97Z</time></trkpt><trkpt lat="43.1946167" lon="11.3797167"><ele>229.0</ele><time>2026-05-01T10:00:23.969Z</time></trkpt><trkpt lat="43.1945717" lon="11.3799967"><ele>227.0</ele><time>2026-05-01T10:00:24.97Z</time></trkpt><trkpt lat="43.19453" lon="11.38029"><ele>227.33333333333334</ele><time>2026-05-01T10:00:25.97Z</time></trkpt><trkpt lat="43.1945033" lon="11.3805817"><ele>227.66666666666669</ele><time>2026-05-01T10:00:26.969Z</time></trkpt><trkpt lat="43.1944783" lon="11.380835"><ele>228.0</ele><time>2026-05-01T10:00:27.97Z</time></trkpt><trkpt lat="43.19443" lon="11.381075"><ele>228.0</ele><time>2026-05-01T10:00:28.969Z</time></trkpt><trkpt lat="43.1943483" lon="11.38133"><ele>228.0</ele><time>2026-05-01T10:00:29.969Z</time></trkpt><trkpt lat="43.1942467" lon="11.3816183"><ele>228.0</ele><time>2026-05-01T10:00:30.97Z</time></trkpt><trkpt lat="43.1941417" lon="11.3819183"><ele>227.5</ele><time>2026-05-01T10:00:31.97Z</time></trkpt><trkpt lat="43.1940233" lon="11.382215"><ele>227.0</ele><time>2026-05-01T10:00:32.97Z</time></trkpt><trkpt lat="43.1939233" lon="11.38249"><ele>226.66666666666669</ele><time>2026-05-01T10:00:33.969Z</time></trkpt><trkpt lat="43.19384" lon="11.38274"><ele>226.33333333333331</ele><time>2026-05-01T10:00:34.969Z</time></trkpt><trkpt lat="43.193755" lon="11.3829567"><ele>226.0</ele><time>2026-05-01T10:00:35.97Z</time></trkpt><trkpt lat="43.1936833" lon="11.3831483"><ele>226.0</ele><time>2026-05-01T10:00:36.969Z</time></trkpt><trkpt lat="43.1936" lon="11.3833"><ele>226.0</ele><time>2026-05-01T10:00:37.97Z</time></trkpt><trkpt lat="43.1935017" lon="11.3834167"><ele>226.0</ele><time>2026-05-01T10:00:38.969Z</time></trkpt><trkpt lat="43.193385" lon="11.3835083"><ele>226.0</ele><time>2026-05-01T10:00:39.97Z</time></trkpt><trkpt lat="43.1932267" lon="11.383585"><ele>225.33333333333331</ele><time>2026-05-01T10:00:40.969Z</time></trkpt><trkpt lat="43.1930317" lon="11.38367"><ele>224.66666666666669</ele><time>2026-05-01T10:00:41.969Z</time></trkpt><trkpt lat="43.19284" lon="11.3837617"><ele>224.0</ele><time>2026-05-01T10:00:42.969Z</time></trkpt><trkpt lat="43.19266" lon="11.3838533"><ele>224.0</ele><time>2026-05-01T10:00:43.97Z</time></trkpt><trkpt lat="43.1924867" lon="11.383925"><ele>224.0</ele><time>2026-05-01T10:00:44.969Z</time></trkpt><trkpt lat="43.1923067" lon="11.38397"><ele>224.0</ele><time>2026-05-01T10:00:45.969Z</time></trkpt><trkpt lat="43.19214" lon="11.3839833"><ele>224.25</ele><time>2026-05-01T10:00:46.969Z</time></trkpt><trkpt lat="43.1919967" lon="11.3839783"><ele>224.5</ele><time>2026-05-01T10:00:47.97Z</time></trkpt><trkpt lat="43.1918833" lon="11.3839867"><ele>224.75</ele><time>2026-05-01T10:00:48.969Z</time></trkpt><trkpt lat="43.19177" lon="11.3840233"><ele>225.0</ele><time>2026-05-01T10:00:49.97Z</time></trkpt><trkpt lat="43.1916583" lon="11.3841033"><ele>225.0</ele><time>2026-05-01T10:00:50.969Z</time></trkpt><trkpt lat="43.19156" lon="11.3842167"><ele>225.0</ele><time>2026-05-01T10:00:51.969Z</time></trkpt><trkpt lat="43.19145" lon="11.38436"><ele>225.0</ele><time>2026-05-01T10:00:52.969Z</time></trkpt><trkpt lat="43.1913267" lon="11.3845433"><ele>226.0</ele><time>2026-05-01T10:00:53.97Z</time></trkpt><trkpt lat="43.1911917" lon="11.384745"><ele>227.0</ele><time>2026-05-01T10:00:54.97Z</time></trkpt><trkpt lat="43.1910567" lon="11.3849167"><ele>228.0</ele><time>2026-05-01T10:00:55.969Z</time></trkpt><trkpt lat="43.190915" lon="11.3850667"><ele>228.0</ele><time>2026-05-01T10:00:56.97Z</time></trkpt><trkpt lat="43.1907467" lon="11.3852067"><ele>228.0</ele><time>2026-05-01T10:00:57.969Z</time></trkpt><trkpt lat="43.19059" lon="11.3853233"><ele>228.0</ele><time>2026-05-01T10:00:58.97Z</time></trkpt><trkpt lat="43.1904283" lon="11.3854267"><ele>226.0</ele><time>2026-05-01T10:00:59.969Z</time></trkpt><trkpt lat="43.1902517" lon="11.3855133"><ele>224.0</ele><time>2026-05-01T10:01:00.969Z</time></trkpt><trkpt lat="43.1900467" lon="11.3855767"><ele>222.0</ele><time>2026-05-01T10:01:01.97Z</time></trkpt><trkpt lat="43.1898183" lon="11.38563"><ele>220.5</ele><time>2026-05-01T10:01:02.97Z</time></trkpt><trkpt lat="43.1895533" lon="11.3857017"><ele>219.0</ele><time>2026-05-01T10:01:03.97Z</time></trkpt><trkpt lat="43.1892883" lon="11.38578"><ele>219.0</ele><time>2026-05-01T10:01:04.969Z</time></trkpt><trkpt lat="43.189065" lon="11.385855"><ele>219.0</ele><time>2026-05-01T10:01:05.969Z</time></trkpt><trkpt lat="43.1888833" lon="11.38592"><ele>219.0</ele><time>2026-05-01T10:01:06.97Z</time></trkpt><trkpt lat="43.1887367" lon="11.3859583"><ele>220.75</ele><time>2026-05-01T10:01:07.97Z</time></trkpt><trkpt lat="43.1886117" lon="11.38595"><ele>222.5</ele><time>2026-05-01T10:01:08.97Z</time></trkpt><trkpt lat="43.1884983" lon="11.3859017"><ele>224.25</ele><time>2026-05-01T10:01:09.969Z</time></trkpt><trkpt lat="43.188375" lon="11.3858133"><ele>226.0</ele><time>2026-05-01T10:01:10.97Z</time></trkpt><trkpt lat="43.1882367" lon="11.385705"><ele>230.66666666666666</ele><time>2026-05-01T10:01:11.97Z</time></trkpt><trkpt lat="43.1880883" lon="11.3855883"><ele>235.33333333333331</ele><time>2026-05-01T10:01:12.969Z</time></trkpt><trkpt lat="43.1879283" lon="11.38548"><ele>240.0</ele><time>2026-05-01T10:01:13.97Z</time></trkpt><trkpt lat="43.187755" lon="11.3853817"><ele>240.0</ele><time>2026-05-01T10:01:14.969Z</time></trkpt><trkpt lat="43.187595" lon="11.38531"><ele>240.0</ele><time>2026-05-01T10:01:15.97Z</time></trkpt><trkpt lat="43.1874517" lon="11.3852633"><ele>240.0</ele><time>2026-05-01T10:01:16.97Z</time></trkpt><trkpt lat="43.1872967" lon="11.385255"><ele>242.66666666666669</ele><time>2026-05-01T10:01:17.969Z</time></trkpt><trkpt lat="43.18713" lon="11.3852633"><ele>245.33333333333334</ele><time>2026-05-01T10:01:18.969Z</time></trkpt><trkpt lat="43.18693" lon="11.3852967"><ele>248.0</ele><time>2026-05-01T10:01:19.97Z</time></trkpt><trkpt lat="43.1867117" lon="11.3853467"><ele>252.0</ele><time>2026-05-01T10:01:20.97Z</time></trkpt><trkpt lat="43.18648" lon="11.3853967"><ele>256.0</ele><time>2026-05-01T10:01:21.969Z</time></trkpt><trkpt lat="43.1862367" lon="11.3854283"><ele>256.0</ele><time>2026-05-01T10:01:22.97Z</time></trkpt><trkpt lat="43.1860083" lon="11.385435"><ele>256.0</ele><time>2026-05-01T10:01:23.97Z</time></trkpt><trkpt lat="43.185815" lon="11.385435"><ele>256.0</ele><time>2026-05-01T10:01:24.969Z</time></trkpt><trkpt lat="43.1856733" lon="11.3854467"><ele>258.75</ele><time>2026-05-01T10:01:25.969Z</time></trkpt><trkpt lat="43.185535" lon="11.3854267"><ele>261.5</ele><time>2026-05-01T10:01:26.969Z</time></trkpt><trkpt lat="43.185415" lon="11.38538"><ele>264.25</ele><time>2026-05-01T10:01:27.969Z</time></trkpt><trkpt lat="43.18531" lon="11.3852933"><ele>267.0</ele><time>2026-05-01T10:01:28.97Z</time></trkpt><trkpt lat="43.1851967" lon="11.3851683"><ele>267.0</ele><time>2026-05-01T10:01:29.969Z</time></trkpt><trkpt lat="43.1850967" lon="11.385025"><ele>267.0</ele><time>2026-05-01T10:01:30.969Z</time></trkpt><trkpt lat="43.1849967" lon="11.38487"><ele>267.0</ele><time>2026-05-01T10:01:31.97Z</time></trkpt><trkpt lat="43.1848867" lon="11.3846933"><ele>269.0</ele><time>2026-05-01T10:01:32.97Z</time></trkpt><trkpt lat="43.184775" lon="11.3845367"><ele>271.0</ele><time>2026-05-01T10:01:33.97Z</time></trkpt><trkpt lat="43.1846617" lon="11.3844017"><ele>273.0</ele><time>2026-05-01T10:01:34.969Z</time></trkpt><trkpt lat="43.184555" lon="11.3842833"><ele>275.0</ele><time>2026-05-01T10:01:35.97Z</time></trkpt><trkpt lat="43.1844483" lon="11.3841867"><ele>275.0</ele><time>2026-05-01T10:01:36.969Z</time></trkpt><trkpt lat="43.184345" lon="11.3840917"><ele>275.0</ele><time>2026-05-01T10:01:37.969Z</time></trkpt><trkpt lat="43.1842383" lon="11.3840083"><ele>275.0</ele><time>2026-05-01T10:01:38.97Z</time></trkpt><trkpt lat="43.1841333" lon="11.3839433"><ele>275.0</ele><time>2026-05-01T10:01:39.97Z</time></trkpt><trkpt lat="43.1840133" lon="11.38389"><ele>274.75</ele><time>2026-05-01T10:01:40.97Z</time></trkpt><trkpt lat="43.1838933" lon="11.3838333"><ele>274.5</ele><time>2026-05-01T10:01:41.969Z</time></trkpt><trkpt lat="43.1837433" lon="11.3837817"><ele>274.25</ele><time>2026-05-01T10:01:42.969Z</time></trkpt><trkpt lat="43.1836017" lon="11.3837333"><ele>274.0</ele><time>2026-05-01T10:01:43.969Z</time></trkpt><trkpt lat="43.183465" lon="11.3836817"><ele>274.0</ele><time>2026-05-01T10:01:44.969Z</time></trkpt><trkpt lat="43.1833333" lon="11.3836317"><ele>274.0</ele><time>2026-05-01T10:01:45.969Z</time></trkpt><trkpt lat="43.1832" lon="11.3835783"><ele>274.0</ele><time>2026-05-01T10:01:46.969Z</time></trkpt><trkpt lat="43.18306" lon="11.38351"><ele>274.0</ele><time>2026-05-01T10:01:47.97Z</time></trkpt><trkpt lat="43.1829117" lon="11.3834367"><ele>273.0</ele><time>2026-05-01T10:01:48.97Z</time></trkpt><trkpt lat="43.1827417" lon="11.3833567"><ele>272.0</ele><time>2026-05-01T10:01:49.969Z</time></trkpt><trkpt lat="43.1825517" lon="11.3832733"><ele>271.0</ele><time>2026-05-01T10:01:50.969Z</time></trkpt><trkpt lat="43.1823617" lon="11.3832067"><ele>270.3333333333333</ele><time>2026-05-01T10:01:51.97Z</time></trkpt><trkpt lat="43.1821733" lon="11.383135"><ele>269.6666666666667</ele><time>2026-05-01T10:01:52.969Z</time></trkpt><trkpt lat="43.18201" lon="11.38309"><ele>269.0</ele><time>2026-05-01T10:01:53.969Z</time></trkpt><trkpt lat="43.18185" lon="11.3830533"><ele>269.0</ele><time>2026-05-01T10:01:54.969Z</time></trkpt><trkpt lat="43.1816867" lon="11.3830167"><ele>269.0</ele><time>2026-05-01T10:01:55.97Z</time></trkpt><trkpt lat="43.1815383" lon="11.3829883"><ele>269.0</ele><time>2026-05-01T10:01:56.969Z</time></trkpt><trkpt lat="43.181405" lon="11.3829583"><ele>268.4</ele><time>2026-05-01T10:01:57.969Z</time></trkpt><trkpt lat="43.18129" lon="11.382925"><ele>267.79999999999995</ele><time>2026-05-01T10:01:58.969Z</time></trkpt><trkpt lat="43.1811833" lon="11.3828833"><ele>267.20000000000005</ele><time>2026-05-01T10:01:59.969Z</time></trkpt><trkpt lat="43.1810883" lon="11.3828317"><ele>266.6</ele><time>2026-05-01T10:02:00.969Z</time></trkpt><trkpt lat="43.1809983" lon="11.38277"><ele>266.0</ele><time>2026-05-01T10:02:01.969Z</time></trkpt><trkpt lat="43.1809317" lon="11.38273"><ele>266.0</ele><time>2026-05-01T10:02:02.97Z</time></trkpt><trkpt lat="43.180845" lon="11.382685"><ele>266.0</ele><time>2026-05-01T10:02:08.969Z</time></trkpt><trkpt lat="43.18075" lon="11.3826967"><ele>266.0</ele><time>2026-05-01T10:02:10.969Z</time></trkpt><trkpt lat="43.18069" lon="11.3827417"><ele>266.0</ele><time>2026-05-01T10:02:12.97Z</time></trkpt></trkseg><trkseg><trkpt lat="43.160245" lon="11.388"><ele>301.0</ele><time>2026-05-01T12:59:39.976Z</time></trkpt><trkpt lat="43.1601833" lon="11.3879367"><ele>301.0</ele><time>2026-05-01T12:59:42.976Z</time></trkpt><trkpt lat="43.160055" lon="11.38791"><ele>301.0</ele><time>2026-05-01T12:59:55.977Z</time></trkpt><trkpt lat="43.1599867" lon="11.3880033"><ele>301.0</ele><time>2026-05-01T12:59:57.976Z</time></trkpt><trkpt lat="43.1599267" lon="11.3880883"><ele>301.0</ele><time>2026-05-01T12:59:59.976Z</time></trkpt><trkpt lat="43.15988" lon="11.3881533"><ele>300.42857142857144</ele><time>2026-05-01T13:00:02.976Z</time></trkpt><trkpt lat="43.1598467" lon="11.3882583"><ele>299.8571428571429</ele><time>2026-05-01T13:00:06.977Z</time></trkpt><trkpt lat="43.15983" lon="11.38836"><ele>299.2857142857143</ele><time>2026-05-01T13:00:09.976Z</time></trkpt><trkpt lat="43.1598" lon="11.38844"><ele>298.7142857142857</ele><time>2026-05-01T13:00:11.976Z</time></trkpt><trkpt lat="43.1597783" lon="11.38853"><ele>298.14285714285717</ele><time>2026-05-01T13:00:13.976Z</time></trkpt><trkpt lat="43.1597517" lon="11.3886117"><ele>297.57142857142856</ele><time>2026-05-01T13:00:15.977Z</time></trkpt><trkpt lat="43.1597167" lon="11.38872"><ele>297.0</ele><time>2026-05-01T13:00:17.976Z</time></trkpt><trkpt lat="43.1596933" lon="11.3888517"><ele>296.0</ele><time>2026-05-01T13:00:19.976Z</time></trkpt><trkpt lat="43.1596767" lon="11.3889783"><ele>295.0</ele><time>2026-05-01T13:00:21.976Z</time></trkpt><trkpt lat="43.15967" lon="11.389105"><ele>294.0</ele><time>2026-05-01T13:00:23.977Z</time></trkpt><trkpt lat="43.1596817" lon="11.3892033"><ele>293.0</ele><time>2026-05-01T13:00:25.976Z</time></trkpt><trkpt lat="43.1597067" lon="11.38929"><ele>292.0</ele><time>2026-05-01T13:00:30.976Z</time></trkpt><trkpt lat="43.15976" lon="11.3893483"><ele>291.0</ele><time>2026-05-01T13:00:34.976Z</time></trkpt><trkpt lat="43.159825" lon="11.3894183"><ele>291.0</ele><time>2026-05-01T13:00:37.977Z</time></trkpt><trkpt lat="43.159885" lon="11.38946"><ele>291.0</ele><time>2026-05-01T13:00:40.976Z</time></trkpt><trkpt lat="43.15994" lon="11.3895133"><ele>291.0</ele><time>2026-05-01T13:00:43.977Z</time></trkpt><trkpt lat="43.1600117" lon="11.3895783"><ele>291.0</ele><time>2026-05-01T13:00:46.977Z</time></trkpt><trkpt lat="43.16007" lon="11.3896267"><ele>291.0</ele><time>2026-05-01T13:00:48.977Z</time></trkpt><trkpt lat="43.1601283" lon="11.389695"><ele>291.0</ele><time>2026-05-01T13:00:50.976Z</time></trkpt><trkpt lat="43.1601867" lon="11.38975"><ele>291.0</ele><time>2026-05-01T13:00:52.976Z</time></trkpt><trkpt lat="43.16025" lon="11.389795"><ele>289.8</ele><time>2026-05-01T13:00:54.976Z</time></trkpt><trkpt lat="43.1603033" lon="11.3898583"><ele>288.6</ele><time>2026-05-01T13:00:56.977Z</time></trkpt><trkpt lat="43.16038" lon="11.3899333"><ele>287.4</ele><time>2026-05-01T13:00:59.976Z</time></trkpt><trkpt lat="43.1604717" lon="11.3900217"><ele>286.2</ele><time>2026-05-01T13:01:32.976Z</time></trkpt><trkpt lat="43.1605467" lon="11.3900917"><ele>285.0</ele><time>2026-05-01T13:01:33.976Z</time></trkpt><trkpt lat="43.160655" lon="11.3901767"><ele>285.25</ele><time>2026-05-01T13:01:34.976Z</time></trkpt><trkpt lat="43.1607883" lon="11.390285"><ele>285.5</ele><time>2026-05-01T13:01:35.976Z</time></trkpt><trkpt lat="43.1609167" lon="11.3903867"><ele>285.75</ele><time>2026-05-01T13:01:36.977Z</time></trkpt><trkpt lat="43.1610217" lon="11.390495"><ele>286.0</ele><time>2026-05-01T13:01:37.977Z</time></trkpt><trkpt lat="43.1611233" lon="11.3906017"><ele>285.5</ele><time>2026-05-01T13:01:38.977Z</time></trkpt><trkpt lat="43.1612233" lon="11.3907233"><ele>285.0</ele><time>2026-05-01T13:01:39.976Z</time></trkpt><trkpt lat="43.1613233" lon="11.39084"><ele>284.5</ele><time>2026-05-01T13:01:40.976Z</time></trkpt><trkpt lat="43.1614133" lon="11.3909683"><ele>284.0</ele><time>2026-05-01T13:01:41.977Z</time></trkpt><trkpt lat="43.1614933" lon="11.3911"><ele>284.25</ele><time>2026-05-01T13:01:42.976Z</time></trkpt><trkpt lat="43.1615733" lon="11.3912383"><ele>284.5</ele><time>2026-05-01T13:01:43.976Z</time></trkpt><trkpt lat="43.161645" lon="11.391375"><ele>284.75</ele><time>2026-05-01T13:01:44.977Z</time></trkpt><trkpt lat="43.161705" lon="11.3914933"><ele>285.0</ele><time>2026-05-01T13:01:45.976Z</time></trkpt><trkpt lat="43.161755" lon="11.3916067"><ele>285.2</ele><time>2026-05-01T13:01:46.976Z</time></trkpt><trkpt lat="43.1617833" lon="11.391715"><ele>285.4</ele><time>2026-05-01T13:01:47.977Z</time></trkpt><trkpt lat="43.1617817" lon="11.39183"><ele>285.6</ele><time>2026-05-01T13:01:48.977Z</time></trkpt><trkpt lat="43.1617617" lon="11.3919533"><ele>285.8</ele><time>2026-05-01T13:01:49.977Z</time></trkpt><trkpt lat="43.1617167" lon="11.3920967"><ele>286.0</ele><time>2026-05-01T13:01:50.976Z</time></trkpt><trkpt lat="43.1616683" lon="11.3922517"><ele>285.0</ele><time>2026-05-01T13:01:51.977Z</time></trkpt><trkpt lat="43.161625" lon="11.392415"><ele>284.0</ele><time>2026-05-01T13:01:52.977Z</time></trkpt><trkpt lat="43.1615733" lon="11.3925783"><ele>283.0</ele><time>2026-05-01T13:01:53.977Z</time></trkpt><trkpt lat="43.1614967" lon="11.3927367"><ele>282.0</ele><time>2026-05-01T13:01:54.977Z</time></trkpt><trkpt lat="43.161395" lon="11.392895"><ele>281.0</ele><time>2026-05-01T13:01:55.977Z</time></trkpt><trkpt lat="43.1612567" lon="11.3930317"><ele>280.0</ele><time>2026-05-01T13:01:56.976Z</time></trkpt><trkpt lat="43.1610867" lon="11.3931367"><ele>279.0</ele><time>2026-05-01T13:01:57.977Z</time></trkpt><trkpt lat="43.1608933" lon="11.39321"><ele>279.0</ele><time>2026-05-01T13:01:58.977Z</time></trkpt><trkpt lat="43.1607017" lon="11.3932867"><ele>279.0</ele><time>2026-05-01T13:01:59.976Z</time></trkpt><trkpt lat="43.1605067" lon="11.39337"><ele>279.0</ele><time>2026-05-01T13:02:00.977Z</time></trkpt><trkpt lat="43.160315" lon="11.393455"><ele>278.3333333333333</ele><time>2026-05-01T13:02:01.976Z</time></trkpt><trkpt lat="43.1601417" lon="11.3935433"><ele>277.66666666666663</ele><time>2026-05-01T13:02:02.977Z</time></trkpt><trkpt lat="43.15997" lon="11.39363"><ele>277.0</ele><time>2026-05-01T13:02:03.976Z</time></trkpt><trkpt lat="43.1598067" lon="11.393715"><ele>276.66666666666663</ele><time>2026-05-01T13:02:04.977Z</time></trkpt><trkpt lat="43.1596483" lon="11.3938217"><ele>276.3333333333333</ele><time>2026-05-01T13:02:05.976Z</time></trkpt><trkpt lat="43.159495" lon="11.3939433"><ele>276.0</ele><time>2026-05-01T13:02:06.976Z</time></trkpt><trkpt lat="43.159345" lon="11.3940883"><ele>276.0</ele><time>2026-05-01T13:02:07.976Z</time></trkpt><trkpt lat="43.15921" lon="11.3942467"><ele>276.0</ele><time>2026-05-01T13:02:08.977Z</time></trkpt><trkpt lat="43.15908" lon="11.3944267"><ele>276.0</ele><time>2026-05-01T13:02:09.977Z</time></trkpt><trkpt lat="43.1589633" lon="11.3946267"><ele>277.0</ele><time>2026-05-01T13:02:10.977Z</time></trkpt><trkpt lat="43.1588633" lon="11.394855"><ele>278.0</ele><time>2026-05-01T13:02:11.976Z</time></trkpt><trkpt lat="43.1587817" lon="11.3950867"><ele>279.0</ele><time>2026-05-01T13:02:12.976Z</time></trkpt><trkpt lat="43.1587283" lon="11.3953383"><ele>279.0</ele><time>2026-05-01T13:02:13.977Z</time></trkpt><trkpt lat="43.1587017" lon="11.3956083"><ele>279.0</ele><time>2026-05-01T13:02:14.977Z</time></trkpt><trkpt lat="43.1586883" lon="11.3958717"><ele>279.0</ele><time>2026-05-01T13:02:15.976Z</time></trkpt><trkpt lat="43.15868" lon="11.3961333"><ele>279.3333333333333</ele><time>2026-05-01T13:02:16.977Z</time></trkpt><trkpt lat="43.1586833" lon="11.3964067"><ele>279.66666666666663</ele><time>2026-05-01T13:02:17.977Z</time></trkpt><trkpt lat="43.1586867" lon="11.3966667"><ele>280.0</ele><time>2026-05-01T13:02:18.976Z</time></trkpt><trkpt lat="43.15869" lon="11.3969167"><ele>280.0</ele><time>2026-05-01T13:02:19.976Z</time></trkpt><trkpt lat="43.1586883" lon="11.3971433"><ele>280.0</ele><time>2026-05-01T13:02:20.976Z</time></trkpt><trkpt lat="43.15869" lon="11.397365"><ele>280.0</ele><time>2026-05-01T13:02:21.976Z</time></trkpt><trkpt lat="43.1586917" lon="11.3975633"><ele>280.0</ele><time>2026-05-01T13:02:22.977Z</time></trkpt><trkpt lat="43.1587" lon="11.397755"><ele>280.0</ele><time>2026-05-01T13:02:23.976Z</time></trkpt><trkpt lat="43.1587217" lon="11.397955"><ele>280.0</ele><time>2026-05-01T13:02:24.976Z</time></trkpt><trkpt lat="43.1587567" lon="11.3981567"><ele>280.0</ele><time>2026-05-01T13:02:25.975Z</time></trkpt><trkpt lat="43.1588" lon="11.3983733"><ele>280.66666666666663</ele><time>2026-05-01T13:02:26.976Z</time></trkpt><trkpt lat="43.1588467" lon="11.3985867"><ele>281.3333333333333</ele><time>2026-05-01T13:02:27.975Z</time></trkpt><trkpt lat="43.1588883" lon="11.3988033"><ele>282.0</ele><time>2026-05-01T13:02:28.976Z</time></trkpt><trkpt lat="43.1589167" lon="11.399025"><ele>282.5</ele><time>2026-05-01T13:02:29.976Z</time></trkpt><trkpt lat="43.1589133" lon="11.39925"><ele>283.0</ele><time>2026-05-01T13:02:30.976Z</time></trkpt><trkpt lat="43.15888" lon="11.3994383"><ele>283.5</ele><time>2026-05-01T13:02:31.976Z</time></trkpt><trkpt lat="43.1588" lon="11.399575"><ele>284.0</ele><time>2026-05-01T13:02:32.976Z</time></trkpt><trkpt lat="43.1586883" lon="11.3996433"><ele>284.0</ele><time>2026-05-01T13:02:33.975Z</time></trkpt><trkpt lat="43.1585383" lon="11.39966"><ele>284.0</ele><time>2026-05-01T13:02:34.975Z</time></trkpt><trkpt lat="43.15838" lon="11.399645"><ele>284.0</ele><time>2026-05-01T13:02:35.975Z</time></trkpt><trkpt lat="43.158225" lon="11.3996333"><ele>286.0</ele><time>2026-05-01T13:02:36.975Z</time></trkpt><trkpt lat="43.1580767" lon="11.399655"><ele>288.0</ele><time>2026-05-01T13:02:37.975Z</time></trkpt><trkpt lat="43.1579233" lon="11.3997283"><ele>290.0</ele><time>2026-05-01T13:02:38.975Z</time></trkpt><trkpt lat="43.1577667" lon="11.3998583"><ele>290.0</ele><time>2026-05-01T13:02:39.975Z</time></trkpt><trkpt lat="43.15759" lon="11.40001"><ele>290.0</ele><time>2026-05-01T13:02:40.975Z</time></trkpt><trkpt lat="43.1574117" lon="11.400125"><ele>290.0</ele><time>2026-05-01T13:02:41.975Z</time></trkpt><trkpt lat="43.1572283" lon="11.4001783"><ele>291.33333333333337</ele><time>2026-05-01T13:02:42.975Z</time></trkpt><trkpt lat="43.157045" lon="11.4001717"><ele>292.6666666666667</ele><time>2026-05-01T13:02:43.976Z</time></trkpt><trkpt lat="43.1568567" lon="11.4001083"><ele>294.0</ele><time>2026-05-01T13:02:44.975Z</time></trkpt><trkpt lat="43.1566883" lon="11.4000317"><ele>294.0</ele><time>2026-05-01T13:02:45.975Z</time></trkpt><trkpt lat="43.1565417" lon="11.3999917"><ele>294.0</ele><time>2026-05-01T13:02:46.976Z</time></trkpt><trkpt lat="43.15641" lon="11.4000217"><ele>294.0</ele><time>2026-05-01T13:02:47.976Z</time></trkpt><trkpt lat="43.15631" lon="11.400105"><ele>294.0</ele><time>2026-05-01T13:02:48.975Z</time></trkpt><trkpt lat="43.1562467" lon="11.40025"><ele>298.3333333333333</ele><time>2026-05-01T13:02:49.975Z</time></trkpt><trkpt lat="43.1562433" lon="11.4004433"><ele>302.66666666666663</ele><time>2026-05-01T13:02:50.975Z</time></trkpt><trkpt lat="43.1563" lon="11.400645"><ele>307.0</ele><time>2026-05-01T13:02:51.976Z</time></trkpt><trkpt lat="43.1564117" lon="11.4008483"><ele>307.3333333333333</ele><time>2026-05-01T13:02:52.975Z</time></trkpt><trkpt lat="43.1565133" lon="11.4010617"><ele>307.6666666666667</ele><time>2026-05-01T13:02:53.975Z</time></trkpt><trkpt lat="43.1566033" lon="11.4012633"><ele>308.0</ele><time>2026-05-01T13:02:54.976Z</time></trkpt><trkpt lat="43.15667" lon="11.4014733"><ele>300.33333333333337</ele><time>2026-05-01T13:02:55.975Z</time></trkpt><trkpt lat="43.1566883" lon="11.401695"><ele>292.6666666666667</ele><time>2026-05-01T13:02:56.975Z</time></trkpt><trkpt lat="43.1566733" lon="11.4019383"><ele>285.0</ele><time>2026-05-01T13:02:57.976Z</time></trkpt><trkpt lat="43.1566283" lon="11.402215"><ele>284.0</ele><time>2026-05-01T13:02:58.976Z</time></trkpt><trkpt lat="43.156575" lon="11.40252"><ele>283.0</ele><time>2026-05-01T13:02:59.975Z</time></trkpt><trkpt lat="43.15652" lon="11.4028517"><ele>290.5</ele><time>2026-05-01T13:03:00.975Z</time></trkpt><trkpt lat="43.1564817" lon="11.4031833"><ele>298.0</ele><time>2026-05-01T13:03:01.975Z</time></trkpt><trkpt lat="43.1564517" lon="11.403495"><ele>298.0</ele><time>2026-05-01T13:03:02.975Z</time></trkpt><trkpt lat="43.1564333" lon="11.4037833"><ele>298.0</ele><time>2026-05-01T13:03:03.975Z</time></trkpt><trkpt lat="43.1564" lon="11.4040417"><ele>298.0</ele><time>2026-05-01T13:03:04.976Z</time></trkpt><trkpt lat="43.1563467" lon="11.4042633"><ele>296.0</ele><time>2026-05-01T13:03:05.975Z</time></trkpt><trkpt lat="43.1562533" lon="11.4044483"><ele>294.0</ele><time>2026-05-01T13:03:06.976Z</time></trkpt><trkpt lat="43.15612" lon="11.40463"><ele>292.0</ele><time>2026-05-01T13:03:07.975Z</time></trkpt><trkpt lat="43.1559583" lon="11.4047767"><ele>289.66666666666663</ele><time>2026-05-01T13:03:08.976Z</time></trkpt><trkpt lat="43.15577" lon="11.40488"><ele>287.3333333333333</ele><time>2026-05-01T13:03:09.975Z</time></trkpt><trkpt lat="43.155535" lon="11.4049383"><ele>285.0</ele><time>2026-05-01T13:03:10.976Z</time></trkpt><trkpt lat="43.1552567" lon="11.4049867"><ele>285.0</ele><time>2026-05-01T13:03:11.975Z</time></trkpt><trkpt lat="43.15497" lon="11.4050783"><ele>285.0</ele><time>2026-05-01T13:03:12.975Z</time></trkpt><trkpt lat="43.1547" lon="11.40521"><ele>282.0</ele><time>2026-05-01T13:03:13.976Z</time></trkpt><trkpt lat="43.15445" lon="11.4053583"><ele>279.0</ele><time>2026-05-01T13:03:14.976Z</time></trkpt><trkpt lat="43.1542267" lon="11.4055"><ele>281.3333333333333</ele><time>2026-05-01T13:03:15.975Z</time></trkpt><trkpt lat="43.154025" lon="11.4056117"><ele>283.66666666666663</ele><time>2026-05-01T13:03:16.976Z</time></trkpt><trkpt lat="43.153815" lon="11.405675"><ele>286.0</ele><time>2026-05-01T13:03:17.975Z</time></trkpt><trkpt lat="43.153595" lon="11.40569"><ele>286.0</ele><time>2026-05-01T13:03:18.976Z</time></trkpt><trkpt lat="43.153405" lon="11.405735"><ele>286.0</ele><time>2026-05-01T13:03:19.975Z</time></trkpt><trkpt lat="43.1532167" lon="11.4058383"><ele>286.0</ele><time>2026-05-01T13:03:20.975Z</time></trkpt><trkpt lat="43.153025" lon="11.40602"><ele>284.5</ele><time>2026-05-01T13:03:21.975Z</time></trkpt><trkpt lat="43.152845" lon="11.40621"><ele>283.0</ele><time>2026-05-01T13:03:22.976Z</time></trkpt><trkpt lat="43.15265" lon="11.40637"><ele>283.0</ele><time>2026-05-01T13:03:23.976Z</time></trkpt><trkpt lat="43.1524217" lon="11.406505"><ele>283.0</ele><time>2026-05-01T13:03:24.975Z</time></trkpt><trkpt lat="43.1521667" lon="11.40659"><ele>283.0</ele><time>2026-05-01T13:03:25.976Z</time></trkpt><trkpt lat="43.1518917" lon="11.406625"><ele>283.0</ele><time>2026-05-01T13:03:26.976Z</time></trkpt><trkpt lat="43.1516017" lon="11.4066433"><ele>284.5</ele><time>2026-05-01T13:03:27.975Z</time></trkpt><trkpt lat="43.15133" lon="11.4066833"><ele>286.0</ele><time>2026-05-01T13:03:28.976Z</time></trkpt><trkpt lat="43.151075" lon="11.4067583"><ele>286.0</ele><time>2026-05-01T13:03:29.976Z</time></trkpt><trkpt lat="43.1508267" lon="11.4068"><ele>286.0</ele><time>2026-05-01T13:03:30.975Z</time></trkpt><trkpt lat="43.150595" lon="11.4067883"><ele>284.3333333333333</ele><time>2026-05-01T13:03:31.975Z</time></trkpt><trkpt lat="43.1503867" lon="11.4067333"><ele>282.6666666666667</ele><time>2026-05-01T13:03:32.976Z</time></trkpt><trkpt lat="43.1502117" lon="11.406645"><ele>281.0</ele><time>2026-05-01T13:03:33.975Z</time></trkpt><trkpt lat="43.1500883" lon="11.4065283"><ele>281.0</ele><time>2026-05-01T13:03:34.975Z</time></trkpt><trkpt lat="43.1500033" lon="11.4064017"><ele>281.0</ele><time>2026-05-01T13:03:35.975Z</time></trkpt><trkpt lat="43.14992" lon="11.4062933"><ele>281.0</ele><time>2026-05-01T13:03:36.976Z</time></trkpt><trkpt lat="43.1498283" lon="11.4062283"><ele>281.0</ele><time>2026-05-01T13:03:37.975Z</time></trkpt><trkpt lat="43.1497367" lon="11.406205"><ele>281.0</ele><time>2026-05-01T13:03:38.975Z</time></trkpt><trkpt lat="43.1496283" lon="11.4062133"><ele>281.8</ele><time>2026-05-01T13:03:39.976Z</time></trkpt><trkpt lat="43.149525" lon="11.4062583"><ele>282.6</ele><time>2026-05-01T13:03:40.975Z</time></trkpt><trkpt lat="43.1494383" lon="11.4063367"><ele>283.4</ele><time>2026-05-01T13:03:41.975Z</time></trkpt><trkpt lat="43.1493583" lon="11.4064317"><ele>284.2</ele><time>2026-05-01T13:03:42.975Z</time></trkpt><trkpt lat="43.1492917" lon="11.406535"><ele>285.0</ele><time>2026-05-01T13:03:43.975Z</time></trkpt><trkpt lat="43.1492167" lon="11.4066283"><ele>285.0</ele><time>2026-05-01T13:03:44.975Z</time></trkpt><trkpt lat="43.1491333" lon="11.40669"><ele>285.0</ele><time>2026-05-01T13:03:45.976Z</time></trkpt><trkpt lat="43.1490383" lon="11.4067283"><ele>285.0</ele><time>2026-05-01T13:03:46.976Z</time></trkpt><trkpt lat="43.1489183" lon="11.4067617"><ele>285.0</ele><time>2026-05-01T13:03:47.975Z</time></trkpt><trkpt lat="43.1487517" lon="11.4067983"><ele>286.3333333333333</ele><time>2026-05-01T13:03:48.976Z</time></trkpt><trkpt lat="43.1485833" lon="11.4068567"><ele>287.66666666666663</ele><time>2026-05-01T13:03:49.975Z</time></trkpt><trkpt lat="43.148435" lon="11.4069683"><ele>289.0</ele><time>2026-05-01T13:03:50.976Z</time></trkpt><trkpt lat="43.1483183" lon="11.407145"><ele>290.0</ele><time>2026-05-01T13:03:51.975Z</time></trkpt><trkpt lat="43.14821" lon="11.4073817"><ele>291.0</ele><time>2026-05-01T13:03:52.975Z</time></trkpt><trkpt lat="43.1481067" lon="11.4076333"><ele>292.0</ele><time>2026-05-01T13:03:53.975Z</time></trkpt><trkpt lat="43.14801" lon="11.40788"><ele>290.0</ele><time>2026-05-01T13:03:54.976Z</time></trkpt><trkpt lat="43.1479283" lon="11.4081217"><ele>288.0</ele><time>2026-05-01T13:03:55.976Z</time></trkpt><trkpt lat="43.1478817" lon="11.408405"><ele>286.0</ele><time>2026-05-01T13:03:56.975Z</time></trkpt><trkpt lat="43.1478517" lon="11.4087517"><ele>283.0</ele><time>2026-05-01T13:03:57.975Z</time></trkpt><trkpt lat="43.1478133" lon="11.4091283"><ele>280.0</ele><time>2026-05-01T13:03:58.976Z</time></trkpt><trkpt lat="43.14777" lon="11.40947"><ele>277.66666666666663</ele><time>2026-05-01T13:03:59.975Z</time></trkpt><trkpt lat="43.1477167" lon="11.409785"><ele>275.3333333333333</ele><time>2026-05-01T13:04:00.975Z</time></trkpt><trkpt lat="43.1476533" lon="11.4100633"><ele>273.0</ele><time>2026-05-01T13:04:01.975Z</time></trkpt><trkpt lat="43.1475667" lon="11.4102883"><ele>273.0</ele><time>2026-05-01T13:04:02.976Z</time></trkpt><trkpt lat="43.147455" lon="11.410455"><ele>273.0</ele><time>2026-05-01T13:04:03.975Z</time></trkpt><trkpt lat="43.1472883" lon="11.4106"><ele>273.0</ele><time>2026-05-01T13:04:04.976Z</time></trkpt><trkpt lat="43.1470833" lon="11.41073"><ele>269.5</ele><time>2026-05-01T13:04:05.975Z</time></trkpt><trkpt lat="43.1468833" lon="11.4108783"><ele>266.0</ele><time>2026-05-01T13:04:06.975Z</time></trkpt><trkpt lat="43.1466967" lon="11.411075"><ele>263.5</ele><time>2026-05-01T13:04:07.975Z</time></trkpt><trkpt lat="43.1465217" lon="11.4113267"><ele>261.0</ele><time>2026-05-01T13:04:08.975Z</time></trkpt><trkpt lat="43.1463483" lon="11.4116183"><ele>261.0</ele><time>2026-05-01T13:04:09.975Z</time></trkpt><trkpt lat="43.14619" lon="11.411895"><ele>261.0</ele><time>2026-05-01T13:04:10.976Z</time></trkpt><trkpt lat="43.146055" lon="11.4121767"><ele>257.0</ele><time>2026-05-01T13:04:11.975Z</time></trkpt><trkpt lat="43.145945" lon="11.4124917"><ele>253.0</ele><time>2026-05-01T13:04:12.975Z</time></trkpt><trkpt lat="43.1458633" lon="11.4128217"><ele>252.5</ele><time>2026-05-01T13:04:13.975Z</time></trkpt><trkpt lat="43.1457967" lon="11.4131183"><ele>252.0</ele><time>2026-05-01T13:04:14.975Z</time></trkpt><trkpt lat="43.14569" lon="11.4133967"><ele>249.0</ele><time>2026-05-01T13:04:15.976Z</time></trkpt><trkpt lat="43.1455383" lon="11.4136567"><ele>246.0</ele><time>2026-05-01T13:04:16.975Z</time></trkpt><trkpt lat="43.1453983" lon="11.4138667"><ele>244.66666666666669</ele><time>2026-05-01T13:04:17.976Z</time></trkpt><trkpt lat="43.1452983" lon="11.41406"><ele>243.33333333333334</ele><time>2026-05-01T13:04:18.976Z</time></trkpt><trkpt lat="43.14524" lon="11.41425"><ele>242.0</ele><time>2026-05-01T13:04:19.975Z</time></trkpt><trkpt lat="43.1452267" lon="11.4144817"><ele>240.0</ele><time>2026-05-01T13:04:20.975Z</time></trkpt><trkpt lat="43.1452767" lon="11.4147117"><ele>238.0</ele><time>2026-05-01T13:04:21.976Z</time></trkpt><trkpt lat="43.1453817" lon="11.4149183"><ele>236.0</ele><time>2026-05-01T13:04:22.975Z</time></trkpt><trkpt lat="43.1455067" lon="11.4151183"><ele>236.0</ele><time>2026-05-01T13:04:23.975Z</time></trkpt><trkpt lat="43.145625" lon="11.4153133"><ele>236.0</ele><time>2026-05-01T13:04:24.975Z</time></trkpt><trkpt lat="43.145725" lon="11.4155167"><ele>236.0</ele><time>2026-05-01T13:04:25.976Z</time></trkpt><trkpt lat="43.1457817" lon="11.4157583"><ele>236.0</ele><time>2026-05-01T13:04:26.976Z</time></trkpt><trkpt lat="43.1458033" lon="11.416035"><ele>236.0</ele><time>2026-05-01T13:04:27.976Z</time></trkpt><trkpt lat="43.1457883" lon="11.4163467"><ele>236.0</ele><time>2026-05-01T13:04:28.976Z</time></trkpt><trkpt lat="43.1457483" lon="11.4166833"><ele>229.0</ele><time>2026-05-01T13:04:29.976Z</time></trkpt><trkpt lat="43.1456967" lon="11.4170117"><ele>222.0</ele><time>2026-05-01T13:04:30.976Z</time></trkpt><trkpt lat="43.1456217" lon="11.4173533"><ele>219.5</ele><time>2026-05-01T13:04:31.976Z</time></trkpt><trkpt lat="43.1455167" lon="11.4177017"><ele>217.0</ele><time>2026-05-01T13:04:32.975Z</time></trkpt><trkpt lat="43.1454233" lon="11.4180417"><ele>215.5</ele><time>2026-05-01T13:04:33.975Z</time></trkpt><trkpt lat="43.1453633" lon="11.418405"><ele>214.0</ele><time>2026-05-01T13:04:34.976Z</time></trkpt><trkpt lat="43.145345" lon="11.41879"><ele>213.5</ele><time>2026-05-01T13:04:35.976Z</time></trkpt><trkpt lat="43.1453283" lon="11.4191583"><ele>213.0</ele><time>2026-05-01T13:04:36.975Z</time></trkpt><trkpt lat="43.1452817" lon="11.4195033"><ele>211.5</ele><time>2026-05-01T13:04:37.975Z</time></trkpt><trkpt lat="43.1452133" lon="11.4198283"><ele>210.0</ele><time>2026-05-01T13:04:38.975Z</time></trkpt><trkpt lat="43.14517" lon="11.4201317"><ele>210.0</ele><time>2026-05-01T13:04:39.976Z</time></trkpt><trkpt lat="43.1451633" lon="11.420415"><ele>210.0</ele><time>2026-05-01T13:04:40.975Z</time></trkpt><trkpt lat="43.1451683" lon="11.42066"><ele>210.0</ele><time>2026-05-01T13:04:41.975Z</time></trkpt><trkpt lat="43.1451733" lon="11.4208617"><ele>209.5</ele><time>2026-05-01T13:04:42.975Z</time></trkpt><trkpt lat="43.145175" lon="11.421025"><ele>209.0</ele><time>2026-05-01T13:04:43.976Z</time></trkpt><trkpt lat="43.14518" lon="11.421155"><ele>208.5</ele><time>2026-05-01T13:04:44.975Z</time></trkpt><trkpt lat="43.1451883" lon="11.4212433"><ele>208.0</ele><time>2026-05-01T13:04:45.975Z</time></trkpt><trkpt lat="43.1452067" lon="11.4213533"><ele>207.5</ele><time>2026-05-01T13:04:47.975Z</time></trkpt><trkpt lat="43.145235" lon="11.42145"><ele>207.0</ele><time>2026-05-01T13:04:50.975Z</time></trkpt><trkpt lat="43.145275" lon="11.42156"><ele>206.8</ele><time>2026-05-01T13:04:53.975Z</time></trkpt><trkpt lat="43.145305" lon="11.4216583"><ele>206.6</ele><time>2026-05-01T13:04:56.976Z</time></trkpt><trkpt lat="43.14534" lon="11.4217717"><ele>206.4</ele><time>2026-05-01T13:04:59.975Z</time></trkpt><trkpt lat="43.14539" lon="11.4219183"><ele>206.20000000000002</ele><time>2026-05-01T13:05:01.975Z</time></trkpt><trkpt lat="43.1454267" lon="11.422035"><ele>206.0</ele><time>2026-05-01T13:05:02.975Z</time></trkpt><trkpt lat="43.1454783" lon="11.4221817"><ele>206.75</ele><time>2026-05-01T13:05:03.976Z</time></trkpt><trkpt lat="43.1455367" lon="11.42235"><ele>207.5</ele><time>2026-05-01T13:05:04.975Z</time></trkpt><trkpt lat="43.1456" lon="11.42253"><ele>208.25</ele><time>2026-05-01T13:05:05.975Z</time></trkpt><trkpt lat="43.14567" lon="11.422735"><ele>209.0</ele><time>2026-05-01T13:05:06.976Z</time></trkpt><trkpt lat="43.1457483" lon="11.42294"><ele>208.33333333333334</ele><time>2026-05-01T13:05:07.975Z</time></trkpt><trkpt lat="43.1458183" lon="11.42314"><ele>207.66666666666669</ele><time>2026-05-01T13:05:08.975Z</time></trkpt><trkpt lat="43.1458817" lon="11.423325"><ele>207.0</ele><time>2026-05-01T13:05:09.976Z</time></trkpt><trkpt lat="43.1459333" lon="11.4235033"><ele>207.0</ele><time>2026-05-01T13:05:10.976Z</time></trkpt><trkpt lat="43.1459667" lon="11.42368"><ele>207.0</ele><time>2026-05-01T13:05:11.975Z</time></trkpt><trkpt lat="43.145975" lon="11.4238533"><ele>207.0</ele><time>2026-05-01T13:05:12.975Z</time></trkpt><trkpt lat="43.1459617" lon="11.4240183"><ele>207.0</ele><time>2026-05-01T13:05:13.976Z</time></trkpt><trkpt lat="43.1459267" lon="11.4241817"><ele>206.75</ele><time>2026-05-01T13:05:14.975Z</time></trkpt><trkpt lat="43.145875" lon="11.424335"><ele>206.5</ele><time>2026-05-01T13:05:15.975Z</time></trkpt><trkpt lat="43.1457933" lon="11.4245083"><ele>206.25</ele><time>2026-05-01T13:05:16.976Z</time></trkpt><trkpt lat="43.145705" lon="11.42466"><ele>206.0</ele><time>2026-05-01T13:05:17.975Z</time></trkpt><trkpt lat="43.1456333" lon="11.424785"><ele>208.8</ele><time>2026-05-01T13:05:18.975Z</time></trkpt><trkpt lat="43.1455817" lon="11.4249"><ele>211.60000000000002</ele><time>2026-05-01T13:05:19.975Z</time></trkpt><trkpt lat="43.1455533" lon="11.4250183"><ele>214.4</ele><time>2026-05-01T13:05:20.975Z</time></trkpt><trkpt lat="43.145565" lon="11.425135"><ele>217.2</ele><time>2026-05-01T13:05:21.975Z</time></trkpt><trkpt lat="43.1456217" lon="11.425235"><ele>220.0</ele><time>2026-05-01T13:05:22.975Z</time></trkpt><trkpt lat="43.145705" lon="11.4253083"><ele>218.25</ele><time>2026-05-01T13:05:23.976Z</time></trkpt><trkpt lat="43.1458117" lon="11.42538"><ele>216.5</ele><time>2026-05-01T13:05:24.975Z</time></trkpt><trkpt lat="43.14594" lon="11.4254567"><ele>214.75</ele><time>2026-05-01T13:05:25.976Z</time></trkpt><trkpt lat="43.14607" lon="11.425555"><ele>213.0</ele><time>2026-05-01T13:05:26.975Z</time></trkpt><trkpt lat="43.1461983" lon="11.4256817"><ele>213.0</ele><time>2026-05-01T13:05:27.975Z</time></trkpt><trkpt lat="43.1463383" lon="11.4258367"><ele>213.0</ele><time>2026-05-01T13:05:28.976Z</time></trkpt><trkpt lat="43.1465133" lon="11.4260067"><ele>213.0</ele><time>2026-05-01T13:05:29.976Z</time></trkpt><trkpt lat="43.1466883" lon="11.4261783"><ele>212.66666666666669</ele><time>2026-05-01T13:05:30.976Z</time></trkpt><trkpt lat="43.1468483" lon="11.42632"><ele>212.33333333333334</ele><time>2026-05-01T13:05:31.975Z</time></trkpt><trkpt lat="43.147005" lon="11.42644"><ele>212.0</ele><time>2026-05-01T13:05:32.975Z</time></trkpt><trkpt lat="43.1471433" lon="11.426555"><ele>212.0</ele><time>2026-05-01T13:05:33.976Z</time></trkpt><trkpt lat="43.1472567" lon="11.42669"><ele>212.0</ele><time>2026-05-01T13:05:34.975Z</time></trkpt><trkpt lat="43.1473617" lon="11.4268233"><ele>212.0</ele><time>2026-05-01T13:05:35.976Z</time></trkpt><trkpt lat="43.1474683" lon="11.42696"><ele>212.0</ele><time>2026-05-01T13:05:36.976Z</time></trkpt><trkpt lat="43.1475833" lon="11.42707"><ele>211.0</ele><time>2026-05-01T13:05:37.975Z</time></trkpt><trkpt lat="43.1477033" lon="11.4271517"><ele>210.0</ele><time>2026-05-01T13:05:38.975Z</time></trkpt><trkpt lat="43.147835" lon="11.4272133"><ele>209.0</ele><time>2026-05-01T13:05:39.975Z</time></trkpt><trkpt lat="43.147985" lon="11.4272583"><ele>208.0</ele><time>2026-05-01T13:05:40.975Z</time></trkpt><trkpt lat="43.1481217" lon="11.4272933"><ele>207.25</ele><time>2026-05-01T13:05:41.976Z</time></trkpt><trkpt lat="43.1482467" lon="11.4273467"><ele>206.5</ele><time>2026-05-01T13:05:42.975Z</time></trkpt><trkpt lat="43.1483817" lon="11.42741"><ele>205.75</ele><time>2026-05-01T13:05:43.975Z</time></trkpt><trkpt lat="43.1485317" lon="11.4274917"><ele>205.0</ele><time>2026-05-01T13:05:44.975Z</time></trkpt><trkpt lat="43.1487033" lon="11.4275883"><ele>205.0</ele><time>2026-05-01T13:05:45.975Z</time></trkpt><trkpt lat="43.148885" lon="11.4276817"><ele>205.0</ele><time>2026-05-01T13:05:46.976Z</time></trkpt><trkpt lat="43.1490483" lon="11.4277767"><ele>205.0</ele><time>2026-05-01T13:05:47.975Z</time></trkpt><trkpt lat="43.1491917" lon="11.4278683"><ele>201.33333333333331</ele><time>2026-05-01T13:05:48.975Z</time></trkpt><trkpt lat="43.1493283" lon="11.4279767"><ele>197.66666666666669</ele><time>2026-05-01T13:05:49.975Z</time></trkpt><trkpt lat="43.1494617" lon="11.4281133"><ele>194.0</ele><time>2026-05-01T13:05:50.976Z</time></trkpt><trkpt lat="43.1496017" lon="11.428275"><ele>194.0</ele><time>2026-05-01T13:05:51.975Z</time></trkpt><trkpt lat="43.1497533" lon="11.4284267"><ele>194.0</ele><time>2026-05-01T13:05:52.976Z</time></trkpt><trkpt lat="43.1498917" lon="11.428565"><ele>194.0</ele><time>2026-05-01T13:05:53.976Z</time></trkpt><trkpt lat="43.1500167" lon="11.428715"><ele>192.33333333333334</ele><time>2026-05-01T13:05:54.975Z</time></trkpt><trkpt lat="43.15013" lon="11.4288917"><ele>190.66666666666669</ele><time>2026-05-01T13:05:55.975Z</time></trkpt><trkpt lat="43.1502333" lon="11.42908"><ele>189.0</ele><time>2026-05-01T13:05:56.976Z</time></trkpt><trkpt lat="43.15034" lon="11.4292617"><ele>189.0</ele><time>2026-05-01T13:05:57.975Z</time></trkpt><trkpt lat="43.1504517" lon="11.4294283"><ele>189.0</ele><time>2026-05-01T13:05:58.975Z</time></trkpt><trkpt lat="43.15056" lon="11.429575"><ele>189.0</ele><time>2026-05-01T13:05:59.975Z</time></trkpt><trkpt lat="43.15067" lon="11.429705"><ele>189.25</ele><time>2026-05-01T13:06:00.976Z</time></trkpt><trkpt lat="43.150795" lon="11.4298217"><ele>189.5</ele><time>2026-05-01T13:06:01.975Z</time></trkpt><trkpt lat="43.1509233" lon="11.42994"><ele>189.75</ele><time>2026-05-01T13:06:02.975Z</time></trkpt><trkpt lat="43.151025" lon="11.4300633"><ele>190.0</ele><time>2026-05-01T13:06:03.976Z</time></trkpt><trkpt lat="43.1511033" lon="11.4302017"><ele>190.0</ele><time>2026-05-01T13:06:04.976Z</time></trkpt><trkpt lat="43.1511467" lon="11.4303633"><ele>190.0</ele><time>2026-05-01T13:06:05.975Z</time></trkpt><trkpt lat="43.15116" lon="11.4305333"><ele>190.0</ele><time>2026-05-01T13:06:06.975Z</time></trkpt><trkpt lat="43.151155" lon="11.4307383"><ele>190.0</ele><time>2026-05-01T13:06:07.975Z</time></trkpt><trkpt lat="43.1511367" lon="11.4309867"><ele>187.66666666666669</ele><time>2026-05-01T13:06:08.975Z</time></trkpt><trkpt lat="43.1511117" lon="11.4312433"><ele>185.33333333333334</ele><time>2026-05-01T13:06:09.976Z</time></trkpt><trkpt lat="43.1510967" lon="11.43147"><ele>183.0</ele><time>2026-05-01T13:06:10.976Z</time></trkpt><trkpt lat="43.1511083" lon="11.4316967"><ele>181.0</ele><time>2026-05-01T13:06:11.976Z</time></trkpt><trkpt lat="43.1511267" lon="11.4319233"><ele>179.0</ele><time>2026-05-01T13:06:12.975Z</time></trkpt><trkpt lat="43.151135" lon="11.4321283"><ele>177.0</ele><time>2026-05-01T13:06:13.976Z</time></trkpt><trkpt lat="43.1511283" lon="11.432315"><ele>176.25</ele><time>2026-05-01T13:06:14.976Z</time></trkpt><trkpt lat="43.1511183" lon="11.432505"><ele>175.5</ele><time>2026-05-01T13:06:15.976Z</time></trkpt><trkpt lat="43.1511283" lon="11.432665"><ele>174.75</ele><time>2026-05-01T13:06:16.976Z</time></trkpt><trkpt lat="43.1511633" lon="11.4328067"><ele>174.0</ele><time>2026-05-01T13:06:17.975Z</time></trkpt><trkpt lat="43.1512267" lon="11.4329417"><ele>173.0</ele><time>2026-05-01T13:06:18.976Z</time></trkpt><trkpt lat="43.151315" lon="11.4330867"><ele>172.0</ele><time>2026-05-01T13:06:19.976Z</time></trkpt><trkpt lat="43.1514283" lon="11.4332267"><ele>171.0</ele><time>2026-05-01T13:06:20.975Z</time></trkpt><trkpt lat="43.1515517" lon="11.4333483"><ele>170.0</ele><time>2026-05-01T13:06:21.975Z</time></trkpt><trkpt lat="43.1516617" lon="11.433435"><ele>171.6</ele><time>2026-05-01T13:06:22.975Z</time></trkpt><trkpt lat="43.151765" lon="11.4334967"><ele>173.2</ele><time>2026-05-01T13:06:23.976Z</time></trkpt><trkpt lat="43.1518683" lon="11.4335283"><ele>174.8</ele><time>2026-05-01T13:06:24.976Z</time></trkpt><trkpt lat="43.1519767" lon="11.4335333"><ele>176.4</ele><time>2026-05-01T13:06:25.976Z</time></trkpt><trkpt lat="43.1520683" lon="11.4335017"><ele>178.0</ele><time>2026-05-01T13:06:26.975Z</time></trkpt><trkpt lat="43.1521667" lon="11.4334267"><ele>178.0</ele><time>2026-05-01T13:06:27.976Z</time></trkpt><trkpt lat="43.1522633" lon="11.43331"><ele>178.0</ele><time>2026-05-01T13:06:28.975Z</time></trkpt><trkpt lat="43.1523683" lon="11.4331783"><ele>178.0</ele><time>2026-05-01T13:06:29.975Z</time></trkpt><trkpt lat="43.15246" lon="11.43306"><ele>178.0</ele><time>2026-05-01T13:06:30.976Z</time></trkpt><trkpt lat="43.1525433" lon="11.432985"><ele>178.33333333333334</ele><time>2026-05-01T13:06:31.975Z</time></trkpt><trkpt lat="43.152615" lon="11.4329517"><ele>178.66666666666669</ele><time>2026-05-01T13:06:32.975Z</time></trkpt><trkpt lat="43.152685" lon="11.4329733"><ele>179.0</ele><time>2026-05-01T13:06:33.976Z</time></trkpt><trkpt lat="43.1527467" lon="11.4330367"><ele>179.33333333333334</ele><time>2026-05-01T13:06:34.976Z</time></trkpt><trkpt lat="43.152775" lon="11.43313"><ele>179.66666666666666</ele><time>2026-05-01T13:06:35.975Z</time></trkpt><trkpt lat="43.152775" lon="11.4332367"><ele>180.0</ele><time>2026-05-01T13:06:36.976Z</time></trkpt><trkpt lat="43.152745" lon="11.4333367"><ele>177.75</ele><time>2026-05-01T13:06:37.975Z</time></trkpt><trkpt lat="43.15269" lon="11.43343"><ele>175.5</ele><time>2026-05-01T13:06:38.976Z</time></trkpt><trkpt lat="43.15261" lon="11.43354"><ele>173.25</ele><time>2026-05-01T13:06:39.976Z</time></trkpt><trkpt lat="43.1525067" lon="11.4336633"><ele>171.0</ele><time>2026-05-01T13:06:40.976Z</time></trkpt><trkpt lat="43.152385" lon="11.4338033"><ele>170.0</ele><time>2026-05-01T13:06:41.976Z</time></trkpt><trkpt lat="43.152245" lon="11.433965"><ele>169.0</ele><time>2026-05-01T13:06:42.976Z</time></trkpt><trkpt lat="43.15211" lon="11.43414"><ele>168.0</ele><time>2026-05-01T13:06:43.976Z</time></trkpt><trkpt lat="43.1519817" lon="11.4342983"><ele>168.0</ele><time>2026-05-01T13:06:44.975Z</time></trkpt><trkpt lat="43.1518733" lon="11.4344317"><ele>168.0</ele><time>2026-05-01T13:06:45.976Z</time></trkpt><trkpt lat="43.1517833" lon="11.4345417"><ele>168.0</ele><time>2026-05-01T13:06:46.975Z</time></trkpt><trkpt lat="43.1516983" lon="11.43466"><ele>168.0</ele><time>2026-05-01T13:06:47.976Z</time></trkpt><trkpt lat="43.151635" lon="11.434795"><ele>165.75</ele><time>2026-05-01T13:06:48.975Z</time></trkpt><trkpt lat="43.15159" lon="11.43495"><ele>163.5</ele><time>2026-05-01T13:06:49.975Z</time></trkpt><trkpt lat="43.1515683" lon="11.4351333"><ele>161.25</ele><time>2026-05-01T13:06:50.975Z</time></trkpt><trkpt lat="43.15158" lon="11.43534"><ele>159.0</ele><time>2026-05-01T13:06:51.976Z</time></trkpt><trkpt lat="43.151605" lon="11.4355833"><ele>158.0</ele><time>2026-05-01T13:06:52.975Z</time></trkpt><trkpt lat="43.1516517" lon="11.4358683"><ele>157.0</ele><time>2026-05-01T13:06:53.975Z</time></trkpt><trkpt lat="43.1517067" lon="11.4362"><ele>156.0</ele><time>2026-05-01T13:06:54.975Z</time></trkpt><trkpt lat="43.151765" lon="11.4365683"><ele>155.0</ele><time>2026-05-01T13:06:55.974Z</time></trkpt><trkpt lat="43.1518267" lon="11.4369567"><ele>155.5</ele><time>2026-05-01T13:06:56.975Z</time></trkpt><trkpt lat="43.1518783" lon="11.4373183"><ele>156.0</ele><time>2026-05-01T13:06:57.976Z</time></trkpt><trkpt lat="43.151925" lon="11.4376217"><ele>156.0</ele><time>2026-05-01T13:06:58.975Z</time></trkpt><trkpt lat="43.1519683" lon="11.4378733"><ele>156.0</ele><time>2026-05-01T13:06:59.976Z</time></trkpt><trkpt lat="43.152005" lon="11.4380917"><ele>156.0</ele><time>2026-05-01T13:07:00.975Z</time></trkpt><trkpt lat="43.15202" lon="11.4382717"><ele>157.25</ele><time>2026-05-01T13:07:01.975Z</time></trkpt><trkpt lat="43.1520117" lon="11.438445"><ele>158.5</ele><time>2026-05-01T13:07:02.975Z</time></trkpt><trkpt lat="43.1519767" lon="11.438615"><ele>159.75</ele><time>2026-05-01T13:07:03.976Z</time></trkpt><trkpt lat="43.1519067" lon="11.438785"><ele>161.0</ele><time>2026-05-01T13:07:04.975Z</time></trkpt><trkpt lat="43.1517967" lon="11.4389733"><ele>162.0</ele><time>2026-05-01T13:07:05.976Z</time></trkpt><trkpt lat="43.1516733" lon="11.4391683"><ele>163.0</ele><time>2026-05-01T13:07:06.976Z</time></trkpt><trkpt lat="43.151545" lon="11.4393883"><ele>164.0</ele><time>2026-05-01T13:07:07.976Z</time></trkpt><trkpt lat="43.1514217" lon="11.439605"><ele>163.33333333333331</ele><time>2026-05-01T13:07:08.975Z</time></trkpt><trkpt lat="43.1513033" lon="11.4398233"><ele>162.66666666666666</ele><time>2026-05-01T13:07:09.975Z</time></trkpt><trkpt lat="43.151195" lon="11.44005"><ele>162.0</ele><time>2026-05-01T13:07:10.975Z</time></trkpt><trkpt lat="43.1511017" lon="11.4402783"><ele>163.33333333333334</ele><time>2026-05-01T13:07:11.976Z</time></trkpt><trkpt lat="43.151015" lon="11.44047"><ele>164.66666666666669</ele><time>2026-05-01T13:07:12.975Z</time></trkpt><trkpt lat="43.1509233" lon="11.44063"><ele>166.0</ele><time>2026-05-01T13:07:13.975Z</time></trkpt><trkpt lat="43.150815" lon="11.44078"><ele>165.0</ele><time>2026-05-01T13:07:14.975Z</time></trkpt><trkpt lat="43.1506867" lon="11.4409083"><ele>164.0</ele><time>2026-05-01T13:07:15.975Z</time></trkpt><trkpt lat="43.1505167" lon="11.4410567"><ele>163.0</ele><time>2026-05-01T13:07:16.975Z</time></trkpt><trkpt lat="43.1503183" lon="11.44121"><ele>163.0</ele><time>2026-05-01T13:07:17.976Z</time></trkpt><trkpt lat="43.1501017" lon="11.4413783"><ele>163.0</ele><time>2026-05-01T13:07:18.975Z</time></trkpt><trkpt lat="43.14986" lon="11.4415683"><ele>163.0</ele><time>2026-05-01T13:07:19.976Z</time></trkpt><trkpt lat="43.1496317" lon="11.4417583"><ele>163.0</ele><time>2026-05-01T13:07:20.976Z</time></trkpt><trkpt lat="43.1494283" lon="11.4419217"><ele>163.0</ele><time>2026-05-01T13:07:21.976Z</time></trkpt><trkpt lat="43.149245" lon="11.4420683"><ele>163.0</ele><time>2026-05-01T13:07:22.976Z</time></trkpt><trkpt lat="43.1490867" lon="11.4421917"><ele>163.0</ele><time>2026-05-01T13:07:23.976Z</time></trkpt><trkpt lat="43.14895" lon="11.44231"><ele>163.25</ele><time>2026-05-01T13:07:24.976Z</time></trkpt><trkpt lat="43.1488383" lon="11.44241"><ele>163.5</ele><time>2026-05-01T13:07:25.975Z</time></trkpt><trkpt lat="43.1487367" lon="11.4425283"><ele>163.75</ele><time>2026-05-01T13:07:26.975Z</time></trkpt><trkpt lat="43.1486433" lon="11.4426633"><ele>164.0</ele><time>2026-05-01T13:07:27.976Z</time></trkpt><trkpt lat="43.1485517" lon="11.4427983"><ele>164.0</ele><time>2026-05-01T13:07:28.975Z</time></trkpt><trkpt lat="43.148455" lon="11.442935"><ele>164.0</ele><time>2026-05-01T13:07:29.975Z</time></trkpt><trkpt lat="43.1483617" lon="11.44307"><ele>164.0</ele><time>2026-05-01T13:07:30.976Z</time></trkpt><trkpt lat="43.148275" lon="11.4431933"><ele>164.0</ele><time>2026-05-01T13:07:31.975Z</time></trkpt><trkpt lat="43.1482017" lon="11.4433167"><ele>164.0</ele><time>2026-05-01T13:07:32.975Z</time></trkpt><trkpt lat="43.1481367" lon="11.443435"><ele>164.0</ele><time>2026-05-01T13:07:33.975Z</time></trkpt><trkpt lat="43.1480817" lon="11.4435617"><ele>164.0</ele><time>2026-05-01T13:07:34.975Z</time></trkpt><trkpt lat="43.1480517" lon="11.4437"><ele>164.0</ele><time>2026-05-01T13:07:35.976Z</time></trkpt><trkpt lat="43.1480533" lon="11.443835"><ele>164.0</ele><time>2026-05-01T13:07:36.976Z</time></trkpt><trkpt lat="43.1480717" lon="11.4439633"><ele>164.0</ele><time>2026-05-01T13:07:37.975Z</time></trkpt><trkpt lat="43.1481083" lon="11.44409"><ele>164.0</ele><time>2026-05-01T13:07:38.975Z</time></trkpt><trkpt lat="43.1481533" lon="11.4442217"><ele>164.0</ele><time>2026-05-01T13:07:39.975Z</time></trkpt><trkpt lat="43.1481917" lon="11.4443567"><ele>164.0</ele><time>2026-05-01T13:07:40.975Z</time></trkpt><trkpt lat="43.1481983" lon="11.4444817"><ele>164.0</ele><time>2026-05-01T13:07:41.975Z</time></trkpt><trkpt lat="43.1481767" lon="11.4446033"><ele>165.39999999999998</ele><time>2026-05-01T13:07:42.974Z</time></trkpt><trkpt lat="43.1481283" lon="11.4447233"><ele>166.8</ele><time>2026-05-01T13:07:43.975Z</time></trkpt><trkpt lat="43.1480567" lon="11.4447967"><ele>168.2</ele><time>2026-05-01T13:07:44.975Z</time></trkpt><trkpt lat="43.1479717" lon="11.44483"><ele>169.60000000000002</ele><time>2026-05-01T13:07:45.975Z</time></trkpt><trkpt lat="43.1478683" lon="11.4448133"><ele>171.0</ele><time>2026-05-01T13:07:46.975Z</time></trkpt><trkpt lat="43.147745" lon="11.4447717"><ele>171.0</ele><time>2026-05-01T13:07:47.975Z</time></trkpt><trkpt lat="43.1476033" lon="11.444695"><ele>171.0</ele><time>2026-05-01T13:07:48.974Z</time></trkpt><trkpt lat="43.1474383" lon="11.44462"><ele>171.0</ele><time>2026-05-01T13:07:49.975Z</time></trkpt><trkpt lat="43.147265" lon="11.4445633"><ele>168.0</ele><time>2026-05-01T13:07:50.975Z</time></trkpt><trkpt lat="43.1471033" lon="11.4445333"><ele>165.0</ele><time>2026-05-01T13:07:51.975Z</time></trkpt><trkpt lat="43.146955" lon="11.444535"><ele>162.0</ele><time>2026-05-01T13:07:52.975Z</time></trkpt><trkpt lat="43.1467883" lon="11.44453"><ele>162.0</ele><time>2026-05-01T13:07:53.975Z</time></trkpt><trkpt lat="43.1466467" lon="11.444545"><ele>162.0</ele><time>2026-05-01T13:07:54.975Z</time></trkpt><trkpt lat="43.1465233" lon="11.4445783"><ele>162.0</ele><time>2026-05-01T13:07:55.974Z</time></trkpt><trkpt lat="43.1464117" lon="11.4446317"><ele>162.0</ele><time>2026-05-01T13:07:56.974Z</time></trkpt><trkpt lat="43.1463217" lon="11.4447017"><ele>162.0</ele><time>2026-05-01T13:07:57.975Z</time></trkpt><trkpt lat="43.146245" lon="11.444795"><ele>162.0</ele><time>2026-05-01T13:07:58.974Z</time></trkpt><trkpt lat="43.1461833" lon="11.444925"><ele>162.0</ele><time>2026-05-01T13:07:59.974Z</time></trkpt><trkpt lat="43.1461417" lon="11.4450717"><ele>162.0</ele><time>2026-05-01T13:08:00.974Z</time></trkpt><trkpt lat="43.146125" lon="11.4452217"><ele>162.0</ele><time>2026-05-01T13:08:01.975Z</time></trkpt><trkpt lat="43.1461333" lon="11.44538"><ele>161.66666666666666</ele><time>2026-05-01T13:08:02.974Z</time></trkpt><trkpt lat="43.14616" lon="11.44555"><ele>161.33333333333331</ele><time>2026-05-01T13:08:03.975Z</time></trkpt><trkpt lat="43.1462083" lon="11.4457583"><ele>161.0</ele><time>2026-05-01T13:08:04.974Z</time></trkpt><trkpt lat="43.1462617" lon="11.4459983"><ele>161.0</ele><time>2026-05-01T13:08:05.974Z</time></trkpt><trkpt lat="43.14632" lon="11.44624"><ele>161.0</ele><time>2026-05-01T13:08:06.974Z</time></trkpt><trkpt lat="43.1463783" lon="11.4464533"><ele>161.0</ele><time>2026-05-01T13:08:07.974Z</time></trkpt><trkpt lat="43.146415" lon="11.4466083"><ele>161.83333333333331</ele><time>2026-05-01T13:08:08.975Z</time></trkpt><trkpt lat="43.14642" lon="11.4467383"><ele>162.66666666666666</ele><time>2026-05-01T13:08:09.974Z</time></trkpt><trkpt lat="43.1464067" lon="11.4468517"><ele>163.5</ele><time>2026-05-01T13:08:10.975Z</time></trkpt><trkpt lat="43.14636" lon="11.4469217"><ele>164.33333333333334</ele><time>2026-05-01T13:08:11.974Z</time></trkpt><trkpt lat="43.146295" lon="11.44695"><ele>165.16666666666669</ele><time>2026-05-01T13:08:12.974Z</time></trkpt><trkpt lat="43.146205" lon="11.4469467"><ele>166.0</ele><time>2026-05-01T13:08:13.975Z</time></trkpt><trkpt lat="43.1460833" lon="11.44692"><ele>166.0</ele><time>2026-05-01T13:08:14.975Z</time></trkpt><trkpt lat="43.1459317" lon="11.4468867"><ele>166.0</ele><time>2026-05-01T13:08:15.974Z</time></trkpt><trkpt lat="43.1457667" lon="11.4468833"><ele>166.0</ele><time>2026-05-01T13:08:16.975Z</time></trkpt><trkpt lat="43.1456167" lon="11.4468967"><ele>166.5</ele><time>2026-05-01T13:08:17.974Z</time></trkpt><trkpt lat="43.1454867" lon="11.4469533"><ele>167.0</ele><time>2026-05-01T13:08:18.974Z</time></trkpt><trkpt lat="43.1453617" lon="11.4470417"><ele>167.5</ele><time>2026-05-01T13:08:19.975Z</time></trkpt><trkpt lat="43.1452533" lon="11.4471583"><ele>168.0</ele><time>2026-05-01T13:08:20.975Z</time></trkpt><trkpt lat="43.1451517" lon="11.4472717"><ele>168.0</ele><time>2026-05-01T13:08:21.974Z</time></trkpt><trkpt lat="43.1450617" lon="11.44739"><ele>168.0</ele><time>2026-05-01T13:08:22.974Z</time></trkpt><trkpt lat="43.14499" lon="11.4474983"><ele>168.0</ele><time>2026-05-01T13:08:23.975Z</time></trkpt><trkpt lat="43.14494" lon="11.447615"><ele>168.0</ele><time>2026-05-01T13:08:24.975Z</time></trkpt><trkpt lat="43.1449217" lon="11.4477333"><ele>168.0</ele><time>2026-05-01T13:08:25.974Z</time></trkpt><trkpt lat="43.1449133" lon="11.4478583"><ele>167.8</ele><time>2026-05-01T13:08:26.975Z</time></trkpt><trkpt lat="43.14491" lon="11.448005"><ele>167.60000000000002</ele><time>2026-05-01T13:08:27.974Z</time></trkpt><trkpt lat="43.1448983" lon="11.448155"><ele>167.39999999999998</ele><time>2026-05-01T13:08:28.974Z</time></trkpt><trkpt lat="43.1448783" lon="11.4482933"><ele>167.2</ele><time>2026-05-01T13:08:29.974Z</time></trkpt><trkpt lat="43.144835" lon="11.4484133"><ele>167.0</ele><time>2026-05-01T13:08:30.975Z</time></trkpt><trkpt lat="43.14477" lon="11.4485083"><ele>167.0</ele><time>2026-05-01T13:08:31.974Z</time></trkpt><trkpt lat="43.1446817" lon="11.4485633"><ele>167.0</ele><time>2026-05-01T13:08:32.974Z</time></trkpt><trkpt lat="43.1445717" lon="11.4485933"><ele>167.0</ele><time>2026-05-01T13:08:33.974Z</time></trkpt><trkpt lat="43.14443" lon="11.4485867"><ele>167.0</ele><time>2026-05-01T13:08:34.975Z</time></trkpt><trkpt lat="43.144265" lon="11.448545"><ele>167.0</ele><time>2026-05-01T13:08:35.974Z</time></trkpt><trkpt lat="43.14409" lon="11.4484833"><ele>167.0</ele><time>2026-05-01T13:08:36.974Z</time></trkpt><trkpt lat="43.1439133" lon="11.4483933"><ele>167.0</ele><time>2026-05-01T13:08:37.974Z</time></trkpt><trkpt lat="43.143725" lon="11.4482683"><ele>168.66666666666666</ele><time>2026-05-01T13:08:38.974Z</time></trkpt><trkpt lat="43.1435417" lon="11.44814"><ele>170.33333333333334</ele><time>2026-05-01T13:08:39.974Z</time></trkpt><trkpt lat="43.1433817" lon="11.4480167"><ele>172.0</ele><time>2026-05-01T13:08:40.975Z</time></trkpt><trkpt lat="43.1432333" lon="11.44791"><ele>169.75</ele><time>2026-05-01T13:08:41.975Z</time></trkpt><trkpt lat="43.1431033" lon="11.4478167"><ele>167.5</ele><time>2026-05-01T13:08:42.974Z</time></trkpt><trkpt lat="43.142975" lon="11.447745"><ele>165.25</ele><time>2026-05-01T13:08:43.975Z</time></trkpt><trkpt lat="43.1428367" lon="11.4477"><ele>163.0</ele><time>2026-05-01T13:08:44.975Z</time></trkpt><trkpt lat="43.1426917" lon="11.44768"><ele>163.0</ele><time>2026-05-01T13:08:45.975Z</time></trkpt><trkpt lat="43.1425417" lon="11.4476917"><ele>163.0</ele><time>2026-05-01T13:08:46.974Z</time></trkpt><trkpt lat="43.142375" lon="11.44773"><ele>163.0</ele><time>2026-05-01T13:08:47.974Z</time></trkpt><trkpt lat="43.142185" lon="11.44779"><ele>162.5</ele><time>2026-05-01T13:08:48.975Z</time></trkpt><trkpt lat="43.1419833" lon="11.4478667"><ele>162.0</ele><time>2026-05-01T13:08:49.974Z</time></trkpt><trkpt lat="43.1417483" lon="11.44795"><ele>166.5</ele><time>2026-05-01T13:08:50.975Z</time></trkpt><trkpt lat="43.1415083" lon="11.4480267"><ele>171.0</ele><time>2026-05-01T13:08:51.975Z</time></trkpt><trkpt lat="43.141285" lon="11.4480833"><ele>171.0</ele><time>2026-05-01T13:08:52.974Z</time></trkpt><trkpt lat="43.14107" lon="11.44812"><ele>171.0</ele><time>2026-05-01T13:08:53.974Z</time></trkpt><trkpt lat="43.1408783" lon="11.448155"><ele>171.0</ele><time>2026-05-01T13:08:54.974Z</time></trkpt><trkpt lat="43.1407217" lon="11.4481767"><ele>170.25</ele><time>2026-05-01T13:08:55.975Z</time></trkpt><trkpt lat="43.140585" lon="11.44818"><ele>169.5</ele><time>2026-05-01T13:08:56.975Z</time></trkpt><trkpt lat="43.1404433" lon="11.448155"><ele>168.75</ele><time>2026-05-01T13:08:57.975Z</time></trkpt><trkpt lat="43.1402817" lon="11.4481033"><ele>168.0</ele><time>2026-05-01T13:08:58.974Z</time></trkpt><trkpt lat="43.1401283" lon="11.4480333"><ele>167.5</ele><time>2026-05-01T13:08:59.974Z</time></trkpt><trkpt lat="43.139995" lon="11.44796"><ele>167.0</ele><time>2026-05-01T13:09:00.974Z</time></trkpt><trkpt lat="43.1398867" lon="11.4478883"><ele>166.5</ele><time>2026-05-01T13:09:01.975Z</time></trkpt><trkpt lat="43.139795" lon="11.4478333"><ele>166.0</ele><time>2026-05-01T13:09:02.975Z</time></trkpt><trkpt lat="43.1396933" lon="11.4478117"><ele>164.8</ele><time>2026-05-01T13:09:03.975Z</time></trkpt><trkpt lat="43.1395917" lon="11.44783"><ele>163.60000000000002</ele><time>2026-05-01T13:09:04.974Z</time></trkpt><trkpt lat="43.1395" lon="11.447885"><ele>162.4</ele><time>2026-05-01T13:09:05.975Z</time></trkpt><trkpt lat="43.1394217" lon="11.4479817"><ele>161.2</ele><time>2026-05-01T13:09:06.974Z</time></trkpt><trkpt lat="43.1393733" lon="11.44811"><ele>160.0</ele><time>2026-05-01T13:09:07.974Z</time></trkpt><trkpt lat="43.139335" lon="11.4482817"><ele>160.0</ele><time>2026-05-01T13:09:08.974Z</time></trkpt><trkpt lat="43.1393133" lon="11.4484867"><ele>160.0</ele><time>2026-05-01T13:09:09.974Z</time></trkpt><trkpt lat="43.139295" lon="11.4487333"><ele>160.0</ele><time>2026-05-01T13:09:10.975Z</time></trkpt><trkpt lat="43.1392867" lon="11.4490083"><ele>160.0</ele><time>2026-05-01T13:09:11.974Z</time></trkpt><trkpt lat="43.139285" lon="11.449315"><ele>160.0</ele><time>2026-05-01T13:09:12.975Z</time></trkpt><trkpt lat="43.1392867" lon="11.44964"><ele>160.0</ele><time>2026-05-01T13:09:13.974Z</time></trkpt><trkpt lat="43.1392917" lon="11.4499567"><ele>160.0</ele><time>2026-05-01T13:09:14.974Z</time></trkpt><trkpt lat="43.1393017" lon="11.450235"><ele>160.0</ele><time>2026-05-01T13:09:15.974Z</time></trkpt><trkpt lat="43.1393067" lon="11.4504783"><ele>160.5</ele><time>2026-05-01T13:09:16.974Z</time></trkpt><trkpt lat="43.139295" lon="11.45069"><ele>161.0</ele><time>2026-05-01T13:09:17.975Z</time></trkpt><trkpt lat="43.1392683" lon="11.4508583"><ele>161.5</ele><time>2026-05-01T13:09:18.974Z</time></trkpt><trkpt lat="43.1392067" lon="11.4510267"><ele>162.0</ele><time>2026-05-01T13:09:19.975Z</time></trkpt><trkpt lat="43.1391217" lon="11.4512083"><ele>159.66666666666666</ele><time>2026-05-01T13:09:20.974Z</time></trkpt><trkpt lat="43.139015" lon="11.4514117"><ele>157.33333333333331</ele><time>2026-05-01T13:09:21.974Z</time></trkpt><trkpt lat="43.13889" lon="11.4516467"><ele>155.0</ele><time>2026-05-01T13:09:22.974Z</time></trkpt><trkpt lat="43.138765" lon="11.4518667"><ele>155.0</ele><time>2026-05-01T13:09:23.974Z</time></trkpt><trkpt lat="43.1386467" lon="11.4520583"><ele>155.0</ele><time>2026-05-01T13:09:24.974Z</time></trkpt><trkpt lat="43.1385383" lon="11.45223"><ele>155.0</ele><time>2026-05-01T13:09:25.975Z</time></trkpt><trkpt lat="43.1384117" lon="11.45239"><ele>154.33333333333331</ele><time>2026-05-01T13:09:26.974Z</time></trkpt><trkpt lat="43.1382817" lon="11.4525233"><ele>153.66666666666666</ele><time>2026-05-01T13:09:27.974Z</time></trkpt><trkpt lat="43.13815" lon="11.4526383"><ele>153.0</ele><time>2026-05-01T13:09:28.975Z</time></trkpt><trkpt lat="43.13802" lon="11.4527583"><ele>153.0</ele><time>2026-05-01T13:09:29.975Z</time></trkpt><trkpt lat="43.13788" lon="11.4528533"><ele>153.0</ele><time>2026-05-01T13:09:30.975Z</time></trkpt><trkpt lat="43.1377383" lon="11.452935"><ele>153.0</ele><time>2026-05-01T13:09:31.975Z</time></trkpt><trkpt lat="43.1376" lon="11.453025"><ele>153.0</ele><time>2026-05-01T13:09:32.974Z</time></trkpt><trkpt lat="43.1374583" lon="11.4531067"><ele>153.0</ele><time>2026-05-01T13:09:33.974Z</time></trkpt><trkpt lat="43.1373167" lon="11.45322"><ele>153.0</ele><time>2026-05-01T13:09:34.974Z</time></trkpt><trkpt lat="43.1371683" lon="11.4533583"><ele>153.0</ele><time>2026-05-01T13:09:35.974Z</time></trkpt><trkpt lat="43.1370217" lon="11.453505"><ele>153.0</ele><time>2026-05-01T13:09:36.975Z</time></trkpt><trkpt lat="43.136875" lon="11.45366"><ele>153.0</ele><time>2026-05-01T13:09:37.974Z</time></trkpt><trkpt lat="43.1367333" lon="11.45382"><ele>152.33333333333334</ele><time>2026-05-01T13:09:38.975Z</time></trkpt><trkpt lat="43.1366033" lon="11.45398"><ele>151.66666666666669</ele><time>2026-05-01T13:09:39.974Z</time></trkpt><trkpt lat="43.1364883" lon="11.4541467"><ele>151.0</ele><time>2026-05-01T13:09:40.974Z</time></trkpt><trkpt lat="43.136385" lon="11.454315"><ele>151.0</ele><time>2026-05-01T13:09:41.974Z</time></trkpt><trkpt lat="43.1363" lon="11.4544817"><ele>151.0</ele><time>2026-05-01T13:09:42.975Z</time></trkpt><trkpt lat="43.1362183" lon="11.45465"><ele>151.0</ele><time>2026-05-01T13:09:43.975Z</time></trkpt><trkpt lat="43.136135" lon="11.4548267"><ele>151.0</ele><time>2026-05-01T13:09:44.975Z</time></trkpt><trkpt lat="43.13605" lon="11.4550167"><ele>152.66666666666669</ele><time>2026-05-01T13:09:45.975Z</time></trkpt><trkpt lat="43.1359633" lon="11.4552083"><ele>154.33333333333334</ele><time>2026-05-01T13:09:46.974Z</time></trkpt><trkpt lat="43.1358733" lon="11.4553833"><ele>156.0</ele><time>2026-05-01T13:09:47.975Z</time></trkpt><trkpt lat="43.1357783" lon="11.4555483"><ele>154.66666666666666</ele><time>2026-05-01T13:09:48.975Z</time></trkpt><trkpt lat="43.1356667" lon="11.4556933"><ele>153.33333333333331</ele><time>2026-05-01T13:09:49.974Z</time></trkpt><trkpt lat="43.1355433" lon="11.455815"><ele>152.0</ele><time>2026-05-01T13:09:50.975Z</time></trkpt><trkpt lat="43.1354033" lon="11.45594"><ele>152.0</ele><time>2026-05-01T13:09:51.974Z</time></trkpt><trkpt lat="43.1352683" lon="11.4560717"><ele>152.0</ele><time>2026-05-01T13:09:52.974Z</time></trkpt><trkpt lat="43.1351267" lon="11.4562117"><ele>152.0</ele><time>2026-05-01T13:09:53.974Z</time></trkpt><trkpt lat="43.1349667" lon="11.4563767"><ele>152.0</ele><time>2026-05-01T13:09:54.974Z</time></trkpt><trkpt lat="43.1347833" lon="11.4565667"><ele>152.0</ele><time>2026-05-01T13:09:55.974Z</time></trkpt><trkpt lat="43.1345783" lon="11.4567733"><ele>152.0</ele><time>2026-05-01T13:09:56.974Z</time></trkpt><trkpt lat="43.1343533" lon="11.4569983"><ele>152.0</ele><time>2026-05-01T13:09:57.974Z</time></trkpt><trkpt lat="43.1341317" lon="11.4572183"><ele>151.0</ele><time>2026-05-01T13:09:58.974Z</time></trkpt><trkpt lat="43.1339267" lon="11.457415"><ele>150.0</ele><time>2026-05-01T13:09:59.974Z</time></trkpt><trkpt lat="43.1337383" lon="11.4575933"><ele>150.0</ele><time>2026-05-01T13:10:00.975Z</time></trkpt><trkpt lat="43.1335617" lon="11.457755"><ele>150.0</ele><time>2026-05-01T13:10:01.974Z</time></trkpt><trkpt lat="43.1334" lon="11.457895"><ele>150.0</ele><time>2026-05-01T13:10:02.974Z</time></trkpt><trkpt lat="43.1332433" lon="11.4580333"><ele>149.0</ele><time>2026-05-01T13:10:03.975Z</time></trkpt><trkpt lat="43.1331067" lon="11.4581867"><ele>148.0</ele><time>2026-05-01T13:10:04.974Z</time></trkpt><trkpt lat="43.1329817" lon="11.45834"><ele>147.0</ele><time>2026-05-01T13:10:05.974Z</time></trkpt><trkpt lat="43.13287" lon="11.4584917"><ele>147.0</ele><time>2026-05-01T13:10:06.975Z</time></trkpt><trkpt lat="43.1327783" lon="11.4586167"><ele>147.0</ele><time>2026-05-01T13:10:07.974Z</time></trkpt><trkpt lat="43.1326867" lon="11.4587583"><ele>147.0</ele><time>2026-05-01T13:10:08.974Z</time></trkpt><trkpt lat="43.1326033" lon="11.4589183"><ele>147.0</ele><time>2026-05-01T13:10:09.974Z</time></trkpt><trkpt lat="43.13254" lon="11.459095"><ele>146.6</ele><time>2026-05-01T13:10:10.975Z</time></trkpt><trkpt lat="43.1324817" lon="11.4592467"><ele>146.2</ele><time>2026-05-01T13:10:11.974Z</time></trkpt><trkpt lat="43.1324383" lon="11.4593833"><ele>145.8</ele><time>2026-05-01T13:10:12.975Z</time></trkpt><trkpt lat="43.132405" lon="11.459505"><ele>145.4</ele><time>2026-05-01T13:10:13.974Z</time></trkpt><trkpt lat="43.1323833" lon="11.4596117"><ele>145.0</ele><time>2026-05-01T13:10:14.974Z</time></trkpt><trkpt lat="43.1323733" lon="11.45973"><ele>145.0</ele><time>2026-05-01T13:10:15.974Z</time></trkpt><trkpt lat="43.1323567" lon="11.459845"><ele>145.0</ele><time>2026-05-01T13:10:16.975Z</time></trkpt><trkpt lat="43.132335" lon="11.4599517"><ele>145.0</ele><time>2026-05-01T13:10:17.975Z</time></trkpt><trkpt lat="43.13231" lon="11.4600617"><ele>145.0</ele><time>2026-05-01T13:10:18.975Z</time></trkpt><trkpt lat="43.1322783" lon="11.4601933"><ele>145.0</ele><time>2026-05-01T13:10:19.974Z</time></trkpt><trkpt lat="43.1322417" lon="11.4603367"><ele>145.2</ele><time>2026-05-01T13:10:20.975Z</time></trkpt><trkpt lat="43.1322067" lon="11.4604867"><ele>145.4</ele><time>2026-05-01T13:10:21.975Z</time></trkpt><trkpt lat="43.1321717" lon="11.46063"><ele>145.6</ele><time>2026-05-01T13:10:22.974Z</time></trkpt><trkpt lat="43.1321417" lon="11.4607717"><ele>145.8</ele><time>2026-05-01T13:10:23.975Z</time></trkpt><trkpt lat="43.1321267" lon="11.4609133"><ele>146.0</ele><time>2026-05-01T13:10:24.975Z</time></trkpt><trkpt lat="43.1321283" lon="11.4610517"><ele>146.0</ele><time>2026-05-01T13:10:25.974Z</time></trkpt><trkpt lat="43.1321383" lon="11.4611917"><ele>146.0</ele><time>2026-05-01T13:10:26.974Z</time></trkpt><trkpt lat="43.1321533" lon="11.4613333"><ele>146.0</ele><time>2026-05-01T13:10:27.974Z</time></trkpt><trkpt lat="43.1321667" lon="11.4614717"><ele>146.0</ele><time>2026-05-01T13:10:28.974Z</time></trkpt><trkpt lat="43.1321733" lon="11.4616033"><ele>146.0</ele><time>2026-05-01T13:10:29.975Z</time></trkpt><trkpt lat="43.1321767" lon="11.4617267"><ele>146.0</ele><time>2026-05-01T13:10:30.975Z</time></trkpt><trkpt lat="43.1321633" lon="11.46182"><ele>146.0</ele><time>2026-05-01T13:10:31.975Z</time></trkpt><trkpt lat="43.13212" lon="11.461905"><ele>146.0</ele><time>2026-05-01T13:10:33.974Z</time></trkpt><trkpt lat="43.1320383" lon="11.461805"><ele>146.0</ele><time>2026-05-01T13:10:36.974Z</time></trkpt><trkpt lat="43.1319733" lon="11.4616683"><ele>146.0</ele><time>2026-05-01T13:10:38.974Z</time></trkpt><trkpt lat="43.1318917" lon="11.4616067"><ele>146.0</ele><time>2026-05-01T13:10:40.975Z</time></trkpt><trkpt lat="43.1318283" lon="11.4615817"><ele>146.0</ele><time>2026-05-01T13:10:42.974Z</time></trkpt><trkpt lat="43.1317583" lon="11.4615633"><ele>146.0</ele><time>2026-05-01T13:10:46.974Z</time></trkpt><trkpt lat="43.1316717" lon="11.461545"><ele>146.0</ele><time>2026-05-01T13:11:48.975Z</time></trkpt><trkpt lat="43.1315717" lon="11.4615383"><ele>146.0</ele><time>2026-05-01T13:12:30.974Z</time></trkpt><trkpt lat="43.131445" lon="11.4614933"><ele>145.5</ele><time>2026-05-01T13:12:32.974Z</time></trkpt><trkpt lat="43.1313733" lon="11.4614517"><ele>145.0</ele><time>2026-05-01T13:12:33.975Z</time></trkpt><trkpt lat="43.1313017" lon="11.461385"><ele>144.5</ele><time>2026-05-01T13:12:34.975Z</time></trkpt><trkpt lat="43.131245" lon="11.4613033"><ele>144.0</ele><time>2026-05-01T13:12:35.974Z</time></trkpt><trkpt lat="43.1311933" lon="11.4612017"><ele>143.5</ele><time>2026-05-01T13:12:36.974Z</time></trkpt><trkpt lat="43.1311333" lon="11.461095"><ele>143.0</ele><time>2026-05-01T13:12:37.974Z</time></trkpt><trkpt lat="43.1310767" lon="11.4609933"><ele>143.0</ele><time>2026-05-01T13:12:38.975Z</time></trkpt><trkpt lat="43.1310117" lon="11.4609167"><ele>143.0</ele><time>2026-05-01T13:12:39.974Z</time></trkpt><trkpt lat="43.1309233" lon="11.46086"><ele>143.0</ele><time>2026-05-01T13:12:40.975Z</time></trkpt><trkpt lat="43.13083" lon="11.4608267"><ele>143.0</ele><time>2026-05-01T13:12:41.975Z</time></trkpt><trkpt lat="43.1307417" lon="11.4608033"><ele>143.0</ele><time>2026-05-01T13:12:42.974Z</time></trkpt><trkpt lat="43.1306567" lon="11.4607817"><ele>142.83333333333331</ele><time>2026-05-01T13:12:43.974Z</time></trkpt><trkpt lat="43.1305767" lon="11.4607283"><ele>142.66666666666666</ele><time>2026-05-01T13:12:44.975Z</time></trkpt><trkpt lat="43.1305133" lon="11.46066"><ele>142.5</ele><time>2026-05-01T13:12:45.974Z</time></trkpt><trkpt lat="43.1304667" lon="11.460565"><ele>142.33333333333334</ele><time>2026-05-01T13:12:46.975Z</time></trkpt><trkpt lat="43.1304333" lon="11.4604533"><ele>142.16666666666669</ele><time>2026-05-01T13:12:47.974Z</time></trkpt><trkpt lat="43.1304133" lon="11.4603433"><ele>142.0</ele><time>2026-05-01T13:12:48.973Z</time></trkpt><trkpt lat="43.1303917" lon="11.4602217"><ele>142.5</ele><time>2026-05-01T13:12:49.973Z</time></trkpt><trkpt lat="43.1303633" lon="11.460085"><ele>143.0</ele><time>2026-05-01T13:12:50.974Z</time></trkpt><trkpt lat="43.1303317" lon="11.4599317"><ele>143.5</ele><time>2026-05-01T13:12:51.973Z</time></trkpt><trkpt lat="43.130295" lon="11.4597683"><ele>144.0</ele><time>2026-05-01T13:12:52.973Z</time></trkpt><trkpt lat="43.1302567" lon="11.4595933"><ele>144.33333333333334</ele><time>2026-05-01T13:12:53.973Z</time></trkpt><trkpt lat="43.1302117" lon="11.4594033"><ele>144.66666666666669</ele><time>2026-05-01T13:12:54.973Z</time></trkpt><trkpt lat="43.1301683" lon="11.4592033"><ele>145.0</ele><time>2026-05-01T13:12:55.974Z</time></trkpt><trkpt lat="43.130125" lon="11.45899"><ele>145.0</ele><time>2026-05-01T13:12:56.973Z</time></trkpt><trkpt lat="43.1300817" lon="11.45879"><ele>145.0</ele><time>2026-05-01T13:12:57.974Z</time></trkpt><trkpt lat="43.1300483" lon="11.4586233"><ele>145.0</ele><time>2026-05-01T13:12:58.974Z</time></trkpt><trkpt lat="43.13002" lon="11.4584833"><ele>145.0</ele><time>2026-05-01T13:12:59.974Z</time></trkpt><trkpt lat="43.1300067" lon="11.4583733"><ele>146.2</ele><time>2026-05-01T13:13:00.973Z</time></trkpt><trkpt lat="43.1300067" lon="11.4582867"><ele>147.4</ele><time>2026-05-01T13:13:01.973Z</time></trkpt><trkpt lat="43.12996" lon="11.458125"><ele>148.6</ele><time>2026-05-01T13:13:03.973Z</time></trkpt><trkpt lat="43.1298933" lon="11.4580117"><ele>149.8</ele><time>2026-05-01T13:13:04.973Z</time></trkpt><trkpt lat="43.1298083" lon="11.4578683"><ele>151.0</ele><time>2026-05-01T13:13:05.973Z</time></trkpt><trkpt lat="43.1297133" lon="11.4577033"><ele>154.33333333333334</ele><time>2026-05-01T13:13:06.973Z</time></trkpt><trkpt lat="43.1296133" lon="11.4575317"><ele>157.66666666666666</ele><time>2026-05-01T13:13:07.973Z</time></trkpt><trkpt lat="43.1295183" lon="11.457355"><ele>161.0</ele><time>2026-05-01T13:13:08.974Z</time></trkpt><trkpt lat="43.1294283" lon="11.4571733"><ele>161.66666666666666</ele><time>2026-05-01T13:13:09.973Z</time></trkpt><trkpt lat="43.1293317" lon="11.4569983"><ele>162.33333333333334</ele><time>2026-05-01T13:13:10.974Z</time></trkpt><trkpt lat="43.1292267" lon="11.4568267"><ele>163.0</ele><time>2026-05-01T13:13:11.974Z</time></trkpt><trkpt lat="43.1291233" lon="11.4566467"><ele>166.33333333333334</ele><time>2026-05-01T13:13:12.974Z</time></trkpt><trkpt lat="43.129025" lon="11.4564733"><ele>169.66666666666666</ele><time>2026-05-01T13:13:13.974Z</time></trkpt><trkpt lat="43.1289317" lon="11.4563033"><ele>173.0</ele><time>2026-05-01T13:13:14.973Z</time></trkpt><trkpt lat="43.1288367" lon="11.4561333"><ele>173.5</ele><time>2026-05-01T13:13:15.974Z</time></trkpt><trkpt lat="43.1287483" lon="11.4559833"><ele>174.0</ele><time>2026-05-01T13:13:16.974Z</time></trkpt><trkpt lat="43.1286667" lon="11.45584"><ele>174.5</ele><time>2026-05-01T13:13:17.973Z</time></trkpt><trkpt lat="43.128585" lon="11.4557167"><ele>175.0</ele><time>2026-05-01T13:13:18.974Z</time></trkpt><trkpt lat="43.1285" lon="11.4556117"><ele>175.0</ele><time>2026-05-01T13:13:19.974Z</time></trkpt><trkpt lat="43.1284083" lon="11.4555217"><ele>175.0</ele><time>2026-05-01T13:13:20.974Z</time></trkpt><trkpt lat="43.1283117" lon="11.4554533"><ele>175.0</ele><time>2026-05-01T13:13:21.974Z</time></trkpt><trkpt lat="43.1282117" lon="11.4553933"><ele>175.0</ele><time>2026-05-01T13:13:22.973Z</time></trkpt><trkpt lat="43.1281117" lon="11.4553417"><ele>175.0</ele><time>2026-05-01T13:13:23.974Z</time></trkpt><trkpt lat="43.1280183" lon="11.45531"><ele>178.6</ele><time>2026-05-01T13:13:24.973Z</time></trkpt><trkpt lat="43.127935" lon="11.4552733"><ele>182.2</ele><time>2026-05-01T13:13:25.974Z</time></trkpt><trkpt lat="43.1278533" lon="11.4552367"><ele>185.8</ele><time>2026-05-01T13:13:26.974Z</time></trkpt><trkpt lat="43.127755" lon="11.4551983"><ele>189.4</ele><time>2026-05-01T13:13:27.973Z</time></trkpt><trkpt lat="43.127645" lon="11.45515"><ele>193.0</ele><time>2026-05-01T13:13:28.974Z</time></trkpt><trkpt lat="43.1275383" lon="11.4551"><ele>193.0</ele><time>2026-05-01T13:13:29.973Z</time></trkpt><trkpt lat="43.12744" lon="11.4550383"><ele>193.0</ele><time>2026-05-01T13:13:30.973Z</time></trkpt><trkpt lat="43.1273417" lon="11.45498"><ele>193.0</ele><time>2026-05-01T13:13:31.974Z</time></trkpt><trkpt lat="43.127245" lon="11.454915"><ele>193.0</ele><time>2026-05-01T13:13:32.973Z</time></trkpt><trkpt lat="43.1271517" lon="11.4548233"><ele>193.0</ele><time>2026-05-01T13:13:33.973Z</time></trkpt><trkpt lat="43.1270667" lon="11.4547017"><ele>198.0</ele><time>2026-05-01T13:13:34.973Z</time></trkpt><trkpt lat="43.12699" lon="11.454565"><ele>203.0</ele><time>2026-05-01T13:13:35.973Z</time></trkpt><trkpt lat="43.126925" lon="11.45442"><ele>208.0</ele><time>2026-05-01T13:13:36.973Z</time></trkpt><trkpt lat="43.1268733" lon="11.45426"><ele>213.0</ele><time>2026-05-01T13:13:37.973Z</time></trkpt><trkpt lat="43.126835" lon="11.454095"><ele>213.0</ele><time>2026-05-01T13:13:38.973Z</time></trkpt><trkpt lat="43.12681" lon="11.45392"><ele>213.0</ele><time>2026-05-01T13:13:39.973Z</time></trkpt><trkpt lat="43.1267933" lon="11.4537417"><ele>213.0</ele><time>2026-05-01T13:13:40.974Z</time></trkpt><trkpt lat="43.1267867" lon="11.453555"><ele>213.0</ele><time>2026-05-01T13:13:41.973Z</time></trkpt><trkpt lat="43.1267783" lon="11.4533633"><ele>214.5</ele><time>2026-05-01T13:13:42.973Z</time></trkpt><trkpt lat="43.12677" lon="11.453165"><ele>216.0</ele><time>2026-05-01T13:13:43.973Z</time></trkpt><trkpt lat="43.126775" lon="11.452965"><ele>217.5</ele><time>2026-05-01T13:13:44.973Z</time></trkpt><trkpt lat="43.1267817" lon="11.45277"><ele>219.0</ele><time>2026-05-01T13:13:45.973Z</time></trkpt><trkpt lat="43.126785" lon="11.4525717"><ele>220.0</ele><time>2026-05-01T13:13:46.973Z</time></trkpt><trkpt lat="43.1267817" lon="11.4523717"><ele>221.0</ele><time>2026-05-01T13:13:47.974Z</time></trkpt><trkpt lat="43.1267717" lon="11.4521633"><ele>222.0</ele><time>2026-05-01T13:13:48.973Z</time></trkpt><trkpt lat="43.1267567" lon="11.4519483"><ele>223.0</ele><time>2026-05-01T13:13:49.973Z</time></trkpt><trkpt lat="43.12674" lon="11.4517283"><ele>224.0</ele><time>2026-05-01T13:13:50.973Z</time></trkpt><trkpt lat="43.1267183" lon="11.45152"><ele>225.0</ele><time>2026-05-01T13:13:51.973Z</time></trkpt><trkpt lat="43.1266817" lon="11.4513083"><ele>225.0</ele><time>2026-05-01T13:13:52.974Z</time></trkpt><trkpt lat="43.12663" lon="11.4511"><ele>225.0</ele><time>2026-05-01T13:13:53.973Z</time></trkpt><trkpt lat="43.1265667" lon="11.4508867"><ele>225.0</ele><time>2026-05-01T13:13:54.973Z</time></trkpt><trkpt lat="43.1264983" lon="11.4506767"><ele>225.0</ele><time>2026-05-01T13:13:55.974Z</time></trkpt><trkpt lat="43.1264317" lon="11.4504717"><ele>225.0</ele><time>2026-05-01T13:13:56.973Z</time></trkpt><trkpt lat="43.1263667" lon="11.4502733"><ele>225.0</ele><time>2026-05-01T13:13:57.974Z</time></trkpt><trkpt lat="43.1263017" lon="11.4500667"><ele>227.0</ele><time>2026-05-01T13:13:58.974Z</time></trkpt><trkpt lat="43.126235" lon="11.4498617"><ele>229.0</ele><time>2026-05-01T13:13:59.974Z</time></trkpt><trkpt lat="43.1261683" lon="11.44967"><ele>231.0</ele><time>2026-05-01T13:14:00.973Z</time></trkpt><trkpt lat="43.1260983" lon="11.4495"><ele>233.0</ele><time>2026-05-01T13:14:01.973Z</time></trkpt><trkpt lat="43.12602" lon="11.4493667"><ele>235.0</ele><time>2026-05-01T13:14:02.974Z</time></trkpt><trkpt lat="43.12592" lon="11.4492667"><ele>237.0</ele><time>2026-05-01T13:14:03.974Z</time></trkpt><trkpt lat="43.125795" lon="11.4491933"><ele>239.0</ele><time>2026-05-01T13:14:04.973Z</time></trkpt><trkpt lat="43.1256617" lon="11.449135"><ele>239.0</ele><time>2026-05-01T13:14:05.973Z</time></trkpt><trkpt lat="43.12553" lon="11.44909"><ele>239.0</ele><time>2026-05-01T13:14:06.973Z</time></trkpt><trkpt lat="43.1254067" lon="11.449045"><ele>239.0</ele><time>2026-05-01T13:14:07.974Z</time></trkpt><trkpt lat="43.1252883" lon="11.4489983"><ele>239.0</ele><time>2026-05-01T13:14:08.973Z</time></trkpt><trkpt lat="43.1251767" lon="11.44896"><ele>239.0</ele><time>2026-05-01T13:14:09.974Z</time></trkpt><trkpt lat="43.12507" lon="11.44891"><ele>238.99999999999997</ele><time>2026-05-01T13:14:10.973Z</time></trkpt><trkpt lat="43.1249617" lon="11.448865"><ele>238.99999999999997</ele><time>2026-05-01T13:14:11.973Z</time></trkpt><trkpt lat="43.1248667" lon="11.4488217"><ele>239.0</ele><time>2026-05-01T13:14:12.973Z</time></trkpt><trkpt lat="43.12477" lon="11.4487767"><ele>239.0</ele><time>2026-05-01T13:14:13.974Z</time></trkpt><trkpt lat="43.1246967" lon="11.44877"><ele>238.66666666666669</ele><time>2026-05-01T13:14:14.973Z</time></trkpt><trkpt lat="43.1246233" lon="11.4487933"><ele>238.33333333333334</ele><time>2026-05-01T13:14:15.974Z</time></trkpt><trkpt lat="43.124555" lon="11.4488517"><ele>238.0</ele><time>2026-05-01T13:14:16.973Z</time></trkpt><trkpt lat="43.124495" lon="11.4489367"><ele>237.66666666666669</ele><time>2026-05-01T13:14:17.973Z</time></trkpt><trkpt lat="43.1244383" lon="11.4490283"><ele>237.33333333333334</ele><time>2026-05-01T13:14:18.974Z</time></trkpt><trkpt lat="43.1243717" lon="11.4491167"><ele>237.0</ele><time>2026-05-01T13:14:19.974Z</time></trkpt><trkpt lat="43.124295" lon="11.4491917"><ele>237.0</ele><time>2026-05-01T13:14:20.974Z</time></trkpt><trkpt lat="43.12421" lon="11.4492383"><ele>237.0</ele><time>2026-05-01T13:14:21.973Z</time></trkpt><trkpt lat="43.1241017" lon="11.4492583"><ele>237.0</ele><time>2026-05-01T13:14:22.974Z</time></trkpt><trkpt lat="43.1239933" lon="11.44924"><ele>237.0</ele><time>2026-05-01T13:14:23.973Z</time></trkpt><trkpt lat="43.1238767" lon="11.4492033"><ele>237.0</ele><time>2026-05-01T13:14:24.974Z</time></trkpt><trkpt lat="43.1237533" lon="11.44916"><ele>236.25</ele><time>2026-05-01T13:14:25.973Z</time></trkpt><trkpt lat="43.123625" lon="11.4491183"><ele>235.5</ele><time>2026-05-01T13:14:26.974Z</time></trkpt><trkpt lat="43.1234833" lon="11.4490733"><ele>234.75</ele><time>2026-05-01T13:14:27.974Z</time></trkpt><trkpt lat="43.123335" lon="11.4490217"><ele>234.0</ele><time>2026-05-01T13:14:28.974Z</time></trkpt><trkpt lat="43.12318" lon="11.44897"><ele>233.0</ele><time>2026-05-01T13:14:29.973Z</time></trkpt><trkpt lat="43.1230233" lon="11.4489167"><ele>232.0</ele><time>2026-05-01T13:14:30.973Z</time></trkpt><trkpt lat="43.122875" lon="11.448875"><ele>231.0</ele><time>2026-05-01T13:14:31.973Z</time></trkpt><trkpt lat="43.12271" lon="11.448835"><ele>230.66666666666669</ele><time>2026-05-01T13:14:32.973Z</time></trkpt><trkpt lat="43.12253" lon="11.448775"><ele>230.33333333333334</ele><time>2026-05-01T13:14:33.974Z</time></trkpt><trkpt lat="43.1223167" lon="11.448695"><ele>230.0</ele><time>2026-05-01T13:14:34.973Z</time></trkpt><trkpt lat="43.12209" lon="11.4486033"><ele>228.0</ele><time>2026-05-01T13:14:35.974Z</time></trkpt><trkpt lat="43.12188" lon="11.4485233"><ele>226.0</ele><time>2026-05-01T13:14:36.974Z</time></trkpt><trkpt lat="43.1217017" lon="11.44845"><ele>224.0</ele><time>2026-05-01T13:14:37.974Z</time></trkpt><trkpt lat="43.1215517" lon="11.4483683"><ele>221.66666666666669</ele><time>2026-05-01T13:14:38.973Z</time></trkpt><trkpt lat="43.1214267" lon="11.4482517"><ele>219.33333333333331</ele><time>2026-05-01T13:14:39.974Z</time></trkpt><trkpt lat="43.1213283" lon="11.4480817"><ele>217.0</ele><time>2026-05-01T13:14:40.973Z</time></trkpt><trkpt lat="43.12124" lon="11.447875"><ele>217.0</ele><time>2026-05-01T13:14:41.973Z</time></trkpt><trkpt lat="43.12117" lon="11.4476533"><ele>217.0</ele><time>2026-05-01T13:14:42.973Z</time></trkpt><trkpt lat="43.1211033" lon="11.4474333"><ele>217.0</ele><time>2026-05-01T13:14:43.973Z</time></trkpt><trkpt lat="43.121035" lon="11.44721"><ele>215.66666666666666</ele><time>2026-05-01T13:14:44.973Z</time></trkpt><trkpt lat="43.1209717" lon="11.446975"><ele>214.33333333333331</ele><time>2026-05-01T13:14:45.973Z</time></trkpt><trkpt lat="43.1209" lon="11.4467533"><ele>213.0</ele><time>2026-05-01T13:14:46.973Z</time></trkpt><trkpt lat="43.1208383" lon="11.4465367"><ele>213.0</ele><time>2026-05-01T13:14:47.973Z</time></trkpt><trkpt lat="43.1207717" lon="11.4463183"><ele>213.0</ele><time>2026-05-01T13:14:48.974Z</time></trkpt><trkpt lat="43.1207167" lon="11.44613"><ele>213.0</ele><time>2026-05-01T13:14:49.974Z</time></trkpt><trkpt lat="43.1207" lon="11.445975"><ele>213.0</ele><time>2026-05-01T13:14:50.973Z</time></trkpt><trkpt lat="43.1207067" lon="11.4458"><ele>212.5</ele><time>2026-05-01T13:14:51.973Z</time></trkpt><trkpt lat="43.120745" lon="11.4456233"><ele>212.0</ele><time>2026-05-01T13:14:52.974Z</time></trkpt><trkpt lat="43.1208033" lon="11.445445"><ele>211.5</ele><time>2026-05-01T13:14:53.974Z</time></trkpt><trkpt lat="43.1208617" lon="11.4452783"><ele>211.0</ele><time>2026-05-01T13:14:54.974Z</time></trkpt><trkpt lat="43.1208883" lon="11.4451033"><ele>211.0</ele><time>2026-05-01T13:14:55.973Z</time></trkpt><trkpt lat="43.12088" lon="11.4449333"><ele>211.0</ele><time>2026-05-01T13:14:56.974Z</time></trkpt><trkpt lat="43.1208417" lon="11.444765"><ele>211.0</ele><time>2026-05-01T13:14:57.974Z</time></trkpt><trkpt lat="43.1207667" lon="11.4446217"><ele>211.0</ele><time>2026-05-01T13:14:58.973Z</time></trkpt><trkpt lat="43.1206367" lon="11.4445017"><ele>208.66666666666666</ele><time>2026-05-01T13:14:59.973Z</time></trkpt><trkpt lat="43.1204933" lon="11.4443983"><ele>206.33333333333331</ele><time>2026-05-01T13:15:00.973Z</time></trkpt><trkpt lat="43.1203383" lon="11.4442867"><ele>204.0</ele><time>2026-05-01T13:15:01.973Z</time></trkpt><trkpt lat="43.1201783" lon="11.4441767"><ele>204.0</ele><time>2026-05-01T13:15:02.973Z</time></trkpt><trkpt lat="43.1200217" lon="11.4440667"><ele>204.0</ele><time>2026-05-01T13:15:03.973Z</time></trkpt><trkpt lat="43.1198667" lon="11.4439733"><ele>204.0</ele><time>2026-05-01T13:15:04.973Z</time></trkpt><trkpt lat="43.1197117" lon="11.4438767"><ele>199.66666666666666</ele><time>2026-05-01T13:15:05.974Z</time></trkpt><trkpt lat="43.1195583" lon="11.44378"><ele>195.33333333333331</ele><time>2026-05-01T13:15:06.973Z</time></trkpt><trkpt lat="43.1194083" lon="11.443675"><ele>191.0</ele><time>2026-05-01T13:15:07.973Z</time></trkpt><trkpt lat="43.11925" lon="11.4435517"><ele>191.0</ele><time>2026-05-01T13:15:08.974Z</time></trkpt><trkpt lat="43.1191133" lon="11.44343"><ele>191.0</ele><time>2026-05-01T13:15:09.974Z</time></trkpt><trkpt lat="43.1189783" lon="11.4433083"><ele>191.0</ele><time>2026-05-01T13:15:10.974Z</time></trkpt><trkpt lat="43.1188533" lon="11.4431667"><ele>189.66666666666666</ele><time>2026-05-01T13:15:11.974Z</time></trkpt><trkpt lat="43.1187367" lon="11.4430133"><ele>188.33333333333334</ele><time>2026-05-01T13:15:12.973Z</time></trkpt><trkpt lat="43.118625" lon="11.4428733"><ele>187.0</ele><time>2026-05-01T13:15:13.973Z</time></trkpt><trkpt lat="43.1185083" lon="11.4427533"><ele>183.33333333333334</ele><time>2026-05-01T13:15:14.973Z</time></trkpt><trkpt lat="43.118385" lon="11.44264"><ele>179.66666666666666</ele><time>2026-05-01T13:15:15.974Z</time></trkpt><trkpt lat="43.1182483" lon="11.442535"><ele>176.0</ele><time>2026-05-01T13:15:16.974Z</time></trkpt><trkpt lat="43.1181233" lon="11.4424333"><ele>176.0</ele><time>2026-05-01T13:15:17.973Z</time></trkpt><trkpt lat="43.11802" lon="11.4423467"><ele>176.0</ele><time>2026-05-01T13:15:18.973Z</time></trkpt><trkpt lat="43.1179167" lon="11.4422617"><ele>176.0</ele><time>2026-05-01T13:15:19.973Z</time></trkpt><trkpt lat="43.1178033" lon="11.44218"><ele>176.0</ele><time>2026-05-01T13:15:20.973Z</time></trkpt><trkpt lat="43.1176933" lon="11.4421083"><ele>173.25</ele><time>2026-05-01T13:15:21.973Z</time></trkpt><trkpt lat="43.1175817" lon="11.442065"><ele>170.5</ele><time>2026-05-01T13:15:22.973Z</time></trkpt><trkpt lat="43.1174717" lon="11.4420183"><ele>167.75</ele><time>2026-05-01T13:15:23.974Z</time></trkpt><trkpt lat="43.117355" lon="11.4420167"><ele>165.0</ele><time>2026-05-01T13:15:24.973Z</time></trkpt><trkpt lat="43.1172283" lon="11.442055"><ele>166.0</ele><time>2026-05-01T13:15:25.974Z</time></trkpt><trkpt lat="43.117085" lon="11.4421283"><ele>167.0</ele><time>2026-05-01T13:15:26.974Z</time></trkpt><trkpt lat="43.11694" lon="11.4422067"><ele>168.0</ele><time>2026-05-01T13:15:27.974Z</time></trkpt><trkpt lat="43.1168067" lon="11.4422683"><ele>168.0</ele><time>2026-05-01T13:15:28.974Z</time></trkpt><trkpt lat="43.116695" lon="11.44229"><ele>168.0</ele><time>2026-05-01T13:15:29.974Z</time></trkpt><trkpt lat="43.1165933" lon="11.44227"><ele>168.0</ele><time>2026-05-01T13:15:30.974Z</time></trkpt><trkpt lat="43.116505" lon="11.4422017"><ele>168.0</ele><time>2026-05-01T13:15:31.974Z</time></trkpt><trkpt lat="43.1164167" lon="11.4420883"><ele>168.0</ele><time>2026-05-01T13:15:32.974Z</time></trkpt><trkpt lat="43.1163033" lon="11.4419433"><ele>165.0</ele><time>2026-05-01T13:15:33.973Z</time></trkpt><trkpt lat="43.1161667" lon="11.441775"><ele>162.0</ele><time>2026-05-01T13:15:34.973Z</time></trkpt><trkpt lat="43.1160133" lon="11.4416183"><ele>159.0</ele><time>2026-05-01T13:15:35.973Z</time></trkpt><trkpt lat="43.1158883" lon="11.4414933"><ele>159.0</ele><time>2026-05-01T13:15:36.973Z</time></trkpt><trkpt lat="43.1157883" lon="11.441395"><ele>159.0</ele><time>2026-05-01T13:15:37.973Z</time></trkpt><trkpt lat="43.1156833" lon="11.4413233"><ele>159.0</ele><time>2026-05-01T13:15:38.973Z</time></trkpt><trkpt lat="43.11557" lon="11.441275"><ele>159.0</ele><time>2026-05-01T13:15:39.974Z</time></trkpt><trkpt lat="43.1154433" lon="11.4412667"><ele>156.66666666666666</ele><time>2026-05-01T13:15:40.973Z</time></trkpt><trkpt lat="43.1153033" lon="11.441285"><ele>154.33333333333331</ele><time>2026-05-01T13:15:41.973Z</time></trkpt><trkpt lat="43.1151383" lon="11.4413183"><ele>152.0</ele><time>2026-05-01T13:15:42.974Z</time></trkpt><trkpt lat="43.1149333" lon="11.4413367"><ele>148.33333333333331</ele><time>2026-05-01T13:15:43.973Z</time></trkpt><trkpt lat="43.11471" lon="11.441355"><ele>144.66666666666666</ele><time>2026-05-01T13:15:44.973Z</time></trkpt><trkpt lat="43.1144967" lon="11.441365"><ele>141.0</ele><time>2026-05-01T13:15:45.973Z</time></trkpt><trkpt lat="43.1142733" lon="11.44138"><ele>140.0</ele><time>2026-05-01T13:15:46.973Z</time></trkpt><trkpt lat="43.11405" lon="11.4413933"><ele>139.0</ele><time>2026-05-01T13:15:47.973Z</time></trkpt><trkpt lat="43.1138333" lon="11.4414033"><ele>138.0</ele><time>2026-05-01T13:15:48.973Z</time></trkpt><trkpt lat="43.1136167" lon="11.4414217"><ele>138.0</ele><time>2026-05-01T13:15:49.973Z</time></trkpt><trkpt lat="43.1134" lon="11.441445"><ele>138.0</ele><time>2026-05-01T13:15:50.974Z</time></trkpt><trkpt lat="43.1131767" lon="11.44147"><ele>138.0</ele><time>2026-05-01T13:15:51.973Z</time></trkpt><trkpt lat="43.1129583" lon="11.441485"><ele>137.66666666666666</ele><time>2026-05-01T13:15:52.973Z</time></trkpt><trkpt lat="43.112735" lon="11.4415017"><ele>137.33333333333331</ele><time>2026-05-01T13:15:53.974Z</time></trkpt><trkpt lat="43.1125217" lon="11.4415233"><ele>137.0</ele><time>2026-05-01T13:15:54.973Z</time></trkpt><trkpt lat="43.1123183" lon="11.4415467"><ele>136.66666666666666</ele><time>2026-05-01T13:15:55.974Z</time></trkpt><trkpt lat="43.1121267" lon="11.441565"><ele>136.33333333333334</ele><time>2026-05-01T13:15:56.974Z</time></trkpt><trkpt lat="43.1119517" lon="11.4415817"><ele>136.0</ele><time>2026-05-01T13:15:57.973Z</time></trkpt><trkpt lat="43.11178" lon="11.4415967"><ele>136.0</ele><time>2026-05-01T13:15:58.973Z</time></trkpt><trkpt lat="43.1116217" lon="11.4416167"><ele>136.0</ele><time>2026-05-01T13:15:59.973Z</time></trkpt><trkpt lat="43.111455" lon="11.4416417"><ele>136.0</ele><time>2026-05-01T13:16:00.973Z</time></trkpt><trkpt lat="43.1112683" lon="11.44168"><ele>135.66666666666669</ele><time>2026-05-01T13:16:01.973Z</time></trkpt><trkpt lat="43.11107" lon="11.4417017"><ele>135.33333333333334</ele><time>2026-05-01T13:16:02.974Z</time></trkpt><trkpt lat="43.1108733" lon="11.4417233"><ele>135.0</ele><time>2026-05-01T13:16:03.973Z</time></trkpt><trkpt lat="43.1106783" lon="11.4417267"><ele>134.33333333333334</ele><time>2026-05-01T13:16:04.973Z</time></trkpt><trkpt lat="43.1104833" lon="11.4417417"><ele>133.66666666666669</ele><time>2026-05-01T13:16:05.973Z</time></trkpt><trkpt lat="43.110295" lon="11.4417633"><ele>133.0</ele><time>2026-05-01T13:16:06.974Z</time></trkpt><trkpt lat="43.1100983" lon="11.44181"><ele>133.0</ele><time>2026-05-01T13:16:07.974Z</time></trkpt><trkpt lat="43.109895" lon="11.441875"><ele>133.0</ele><time>2026-05-01T13:16:08.974Z</time></trkpt><trkpt lat="43.109685" lon="11.4419583"><ele>133.0</ele><time>2026-05-01T13:16:09.974Z</time></trkpt><trkpt lat="43.1094733" lon="11.4420433"><ele>133.0</ele><time>2026-05-01T13:16:10.973Z</time></trkpt><trkpt lat="43.1092467" lon="11.4421217"><ele>133.0</ele><time>2026-05-01T13:16:11.974Z</time></trkpt><trkpt lat="43.109005" lon="11.442195"><ele>133.0</ele><time>2026-05-01T13:16:12.974Z</time></trkpt><trkpt lat="43.1087783" lon="11.4422483"><ele>133.0</ele><time>2026-05-01T13:16:13.974Z</time></trkpt><trkpt lat="43.1085683" lon="11.4422883"><ele>133.0</ele><time>2026-05-01T13:16:14.973Z</time></trkpt><trkpt lat="43.1083733" lon="11.442325"><ele>133.33333333333334</ele><time>2026-05-01T13:16:15.973Z</time></trkpt><trkpt lat="43.108195" lon="11.442365"><ele>133.66666666666666</ele><time>2026-05-01T13:16:16.973Z</time></trkpt><trkpt lat="43.1080317" lon="11.4423983"><ele>134.0</ele><time>2026-05-01T13:16:17.974Z</time></trkpt><trkpt lat="43.1078833" lon="11.44243"><ele>134.0</ele><time>2026-05-01T13:16:18.974Z</time></trkpt><trkpt lat="43.1077517" lon="11.4424567"><ele>134.0</ele><time>2026-05-01T13:16:19.974Z</time></trkpt><trkpt lat="43.1076233" lon="11.442455"><ele>134.0</ele><time>2026-05-01T13:16:20.974Z</time></trkpt><trkpt lat="43.1074933" lon="11.4424317"><ele>134.0</ele><time>2026-05-01T13:16:21.974Z</time></trkpt><trkpt lat="43.1073833" lon="11.4423617"><ele>133.25</ele><time>2026-05-01T13:16:22.973Z</time></trkpt><trkpt lat="43.1072733" lon="11.44225"><ele>132.5</ele><time>2026-05-01T13:16:23.974Z</time></trkpt><trkpt lat="43.10717" lon="11.4421117"><ele>131.75</ele><time>2026-05-01T13:16:24.973Z</time></trkpt><trkpt lat="43.1070767" lon="11.4419617"><ele>131.0</ele><time>2026-05-01T13:16:25.974Z</time></trkpt><trkpt lat="43.1069767" lon="11.4418117"><ele>131.0</ele><time>2026-05-01T13:16:26.973Z</time></trkpt><trkpt lat="43.106875" lon="11.44165"><ele>131.0</ele><time>2026-05-01T13:16:27.974Z</time></trkpt><trkpt lat="43.106765" lon="11.44148"><ele>131.0</ele><time>2026-05-01T13:16:28.973Z</time></trkpt><trkpt lat="43.1066467" lon="11.44131"><ele>131.0</ele><time>2026-05-01T13:16:29.973Z</time></trkpt><trkpt lat="43.106515" lon="11.4411167"><ele>131.0</ele><time>2026-05-01T13:16:30.974Z</time></trkpt><trkpt lat="43.10637" lon="11.4409133"><ele>131.0</ele><time>2026-05-01T13:16:31.973Z</time></trkpt><trkpt lat="43.1062233" lon="11.4407083"><ele>131.0</ele><time>2026-05-01T13:16:32.973Z</time></trkpt><trkpt lat="43.10608" lon="11.4405133"><ele>131.0</ele><time>2026-05-01T13:16:33.973Z</time></trkpt><trkpt lat="43.1059333" lon="11.4403283"><ele>131.0</ele><time>2026-05-01T13:16:34.974Z</time></trkpt><trkpt lat="43.105795" lon="11.4401317"><ele>130.66666666666666</ele><time>2026-05-01T13:16:35.974Z</time></trkpt><trkpt lat="43.1056417" lon="11.43993"><ele>130.33333333333334</ele><time>2026-05-01T13:16:36.973Z</time></trkpt><trkpt lat="43.105485" lon="11.4397383"><ele>130.0</ele><time>2026-05-01T13:16:37.973Z</time></trkpt><trkpt lat="43.105325" lon="11.4395183"><ele>129.66666666666669</ele><time>2026-05-01T13:16:38.973Z</time></trkpt><trkpt lat="43.1051767" lon="11.4392933"><ele>129.33333333333334</ele><time>2026-05-01T13:16:39.974Z</time></trkpt><trkpt lat="43.1050467" lon="11.439065"><ele>129.0</ele><time>2026-05-01T13:16:40.973Z</time></trkpt><trkpt lat="43.1049233" lon="11.438835"><ele>129.66666666666666</ele><time>2026-05-01T13:16:41.974Z</time></trkpt><trkpt lat="43.10478" lon="11.4386217"><ele>130.33333333333331</ele><time>2026-05-01T13:16:42.974Z</time></trkpt><trkpt lat="43.1046383" lon="11.4384367"><ele>131.0</ele><time>2026-05-01T13:16:43.974Z</time></trkpt><trkpt lat="43.1045017" lon="11.4382567"><ele>131.0</ele><time>2026-05-01T13:16:44.973Z</time></trkpt><trkpt lat="43.1043667" lon="11.438075"><ele>131.0</ele><time>2026-05-01T13:16:45.973Z</time></trkpt><trkpt lat="43.10423" lon="11.43789"><ele>131.0</ele><time>2026-05-01T13:16:46.973Z</time></trkpt><trkpt lat="43.1040883" lon="11.437695"><ele>131.33333333333331</ele><time>2026-05-01T13:16:47.974Z</time></trkpt><trkpt lat="43.1039417" lon="11.4374767"><ele>131.66666666666666</ele><time>2026-05-01T13:16:48.974Z</time></trkpt><trkpt lat="43.1037833" lon="11.4372433"><ele>132.0</ele><time>2026-05-01T13:16:49.974Z</time></trkpt><trkpt lat="43.1036117" lon="11.43699"><ele>133.0</ele><time>2026-05-01T13:16:50.974Z</time></trkpt><trkpt lat="43.1034083" lon="11.43671"><ele>134.0</ele><time>2026-05-01T13:16:51.973Z</time></trkpt><trkpt lat="43.1031967" lon="11.4364133"><ele>135.0</ele><time>2026-05-01T13:16:52.973Z</time></trkpt><trkpt lat="43.102985" lon="11.4361183"><ele>136.0</ele><time>2026-05-01T13:16:53.974Z</time></trkpt><trkpt lat="43.1027917" lon="11.4358517"><ele>136.0</ele><time>2026-05-01T13:16:54.974Z</time></trkpt><trkpt lat="43.102625" lon="11.435615"><ele>136.0</ele><time>2026-05-01T13:16:55.973Z</time></trkpt><trkpt lat="43.1024917" lon="11.4354033"><ele>136.0</ele><time>2026-05-01T13:16:56.973Z</time></trkpt><trkpt lat="43.1023683" lon="11.4352133"><ele>136.75</ele><time>2026-05-01T13:16:57.973Z</time></trkpt><trkpt lat="43.102285" lon="11.4350383"><ele>137.5</ele><time>2026-05-01T13:16:58.973Z</time></trkpt><trkpt lat="43.1022217" lon="11.4348783"><ele>138.25</ele><time>2026-05-01T13:16:59.973Z</time></trkpt><trkpt lat="43.1021917" lon="11.43471"><ele>139.0</ele><time>2026-05-01T13:17:00.974Z</time></trkpt><trkpt lat="43.102185" lon="11.4345267"><ele>141.0</ele><time>2026-05-01T13:17:01.973Z</time></trkpt><trkpt lat="43.1022167" lon="11.43432"><ele>143.0</ele><time>2026-05-01T13:17:02.974Z</time></trkpt><trkpt lat="43.1022667" lon="11.4340967"><ele>145.0</ele><time>2026-05-01T13:17:03.973Z</time></trkpt><trkpt lat="43.1023083" lon="11.4338567"><ele>146.66666666666669</ele><time>2026-05-01T13:17:04.974Z</time></trkpt><trkpt lat="43.102335" lon="11.4336383"><ele>148.33333333333334</ele><time>2026-05-01T13:17:05.973Z</time></trkpt><trkpt lat="43.1023317" lon="11.4334333"><ele>150.0</ele><time>2026-05-01T13:17:06.973Z</time></trkpt><trkpt lat="43.1023083" lon="11.4332267"><ele>150.0</ele><time>2026-05-01T13:17:07.974Z</time></trkpt><trkpt lat="43.1022733" lon="11.4330367"><ele>150.0</ele><time>2026-05-01T13:17:08.973Z</time></trkpt><trkpt lat="43.10223" lon="11.4328767"><ele>150.0</ele><time>2026-05-01T13:17:09.973Z</time></trkpt><trkpt lat="43.1021883" lon="11.432745"><ele>150.0</ele><time>2026-05-01T13:17:10.974Z</time></trkpt><trkpt lat="43.1021283" lon="11.432645"><ele>149.2</ele><time>2026-05-01T13:17:11.974Z</time></trkpt><trkpt lat="43.10205" lon="11.4325667"><ele>148.4</ele><time>2026-05-01T13:17:12.974Z</time></trkpt><trkpt lat="43.1019633" lon="11.432515"><ele>147.6</ele><time>2026-05-01T13:17:13.974Z</time></trkpt><trkpt lat="43.1018683" lon="11.4324833"><ele>146.8</ele><time>2026-05-01T13:17:14.974Z</time></trkpt><trkpt lat="43.1017683" lon="11.43246"><ele>146.0</ele><time>2026-05-01T13:17:15.974Z</time></trkpt><trkpt lat="43.1016667" lon="11.43245"><ele>147.2</ele><time>2026-05-01T13:17:16.974Z</time></trkpt><trkpt lat="43.1015567" lon="11.4324433"><ele>148.39999999999998</ele><time>2026-05-01T13:17:17.974Z</time></trkpt><trkpt lat="43.1014433" lon="11.43243"><ele>149.6</ele><time>2026-05-01T13:17:18.973Z</time></trkpt><trkpt lat="43.10134" lon="11.4324267"><ele>150.79999999999998</ele><time>2026-05-01T13:17:19.973Z</time></trkpt><trkpt lat="43.1012317" lon="11.4324183"><ele>152.0</ele><time>2026-05-01T13:17:20.973Z</time></trkpt><trkpt lat="43.1011283" lon="11.432405"><ele>152.0</ele><time>2026-05-01T13:17:21.974Z</time></trkpt><trkpt lat="43.1010233" lon="11.432395"><ele>152.0</ele><time>2026-05-01T13:17:22.974Z</time></trkpt><trkpt lat="43.1009283" lon="11.4323883"><ele>152.0</ele><time>2026-05-01T13:17:23.974Z</time></trkpt><trkpt lat="43.10084" lon="11.432385"><ele>152.0</ele><time>2026-05-01T13:17:24.974Z</time></trkpt><trkpt lat="43.1007483" lon="11.4323767"><ele>152.0</ele><time>2026-05-01T13:17:25.973Z</time></trkpt><trkpt lat="43.1006583" lon="11.4323667"><ele>153.2</ele><time>2026-05-01T13:17:26.973Z</time></trkpt><trkpt lat="43.1005667" lon="11.43236"><ele>154.39999999999998</ele><time>2026-05-01T13:17:27.973Z</time></trkpt><trkpt lat="43.1004633" lon="11.4323517"><ele>155.60000000000002</ele><time>2026-05-01T13:17:28.973Z</time></trkpt><trkpt lat="43.1003567" lon="11.4323467"><ele>156.8</ele><time>2026-05-01T13:17:29.974Z</time></trkpt><trkpt lat="43.1002367" lon="11.432335"><ele>158.0</ele><time>2026-05-01T13:17:30.973Z</time></trkpt><trkpt lat="43.1001067" lon="11.4323167"><ele>158.0</ele><time>2026-05-01T13:17:31.973Z</time></trkpt><trkpt lat="43.09997" lon="11.4323017"><ele>158.0</ele><time>2026-05-01T13:17:32.973Z</time></trkpt><trkpt lat="43.0998383" lon="11.4322933"><ele>158.0</ele><time>2026-05-01T13:17:33.974Z</time></trkpt><trkpt lat="43.0997067" lon="11.4322833"><ele>158.0</ele><time>2026-05-01T13:17:34.974Z</time></trkpt><trkpt lat="43.0995683" lon="11.4322783"><ele>157.75</ele><time>2026-05-01T13:17:35.974Z</time></trkpt><trkpt lat="43.0994383" lon="11.43227"><ele>157.5</ele><time>2026-05-01T13:17:36.973Z</time></trkpt><trkpt lat="43.09931" lon="11.4322567"><ele>157.25</ele><time>2026-05-01T13:17:37.973Z</time></trkpt><trkpt lat="43.0991833" lon="11.4322483"><ele>157.0</ele><time>2026-05-01T13:17:38.974Z</time></trkpt><trkpt lat="43.0990633" lon="11.43223"><ele>157.0</ele><time>2026-05-01T13:17:39.973Z</time></trkpt><trkpt lat="43.0989433" lon="11.43222"><ele>157.0</ele><time>2026-05-01T13:17:40.973Z</time></trkpt><trkpt lat="43.0988317" lon="11.4321917"><ele>157.0</ele><time>2026-05-01T13:17:41.973Z</time></trkpt><trkpt lat="43.09873" lon="11.4321633"><ele>157.0</ele><time>2026-05-01T13:17:42.974Z</time></trkpt><trkpt lat="43.098625" lon="11.4321233"><ele>157.0</ele><time>2026-05-01T13:17:43.974Z</time></trkpt><trkpt lat="43.0985267" lon="11.4320767"><ele>158.0</ele><time>2026-05-01T13:17:44.973Z</time></trkpt><trkpt lat="43.0984417" lon="11.43202"><ele>159.0</ele><time>2026-05-01T13:17:45.973Z</time></trkpt><trkpt lat="43.098365" lon="11.43196"><ele>160.0</ele><time>2026-05-01T13:17:46.974Z</time></trkpt><trkpt lat="43.0982967" lon="11.4318967"><ele>161.0</ele><time>2026-05-01T13:17:47.973Z</time></trkpt><trkpt lat="43.098235" lon="11.4318317"><ele>162.0</ele><time>2026-05-01T13:17:48.973Z</time></trkpt><trkpt lat="43.0981733" lon="11.4317717"><ele>163.0</ele><time>2026-05-01T13:17:49.974Z</time></trkpt><trkpt lat="43.0981183" lon="11.4317233"><ele>163.0</ele><time>2026-05-01T13:17:50.973Z</time></trkpt><trkpt lat="43.0980583" lon="11.4316667"><ele>163.0</ele><time>2026-05-01T13:17:51.974Z</time></trkpt><trkpt lat="43.0979883" lon="11.431605"><ele>163.0</ele><time>2026-05-01T13:17:52.973Z</time></trkpt><trkpt lat="43.0979083" lon="11.431545"><ele>163.0</ele><time>2026-05-01T13:17:53.973Z</time></trkpt><trkpt lat="43.0978283" lon="11.4314817"><ele>163.0</ele><time>2026-05-01T13:17:54.974Z</time></trkpt><trkpt lat="43.0977483" lon="11.43142"><ele>163.0</ele><time>2026-05-01T13:17:55.974Z</time></trkpt><trkpt lat="43.097665" lon="11.4313583"><ele>163.8</ele><time>2026-05-01T13:17:56.974Z</time></trkpt><trkpt lat="43.0975767" lon="11.4312867"><ele>164.60000000000002</ele><time>2026-05-01T13:17:57.973Z</time></trkpt><trkpt lat="43.097485" lon="11.431205"><ele>165.39999999999998</ele><time>2026-05-01T13:17:58.974Z</time></trkpt><trkpt lat="43.0973967" lon="11.431125"><ele>166.2</ele><time>2026-05-01T13:17:59.973Z</time></trkpt><trkpt lat="43.0972967" lon="11.4310283"><ele>167.0</ele><time>2026-05-01T13:18:00.973Z</time></trkpt><trkpt lat="43.097185" lon="11.4309417"><ele>167.0</ele><time>2026-05-01T13:18:01.973Z</time></trkpt><trkpt lat="43.09707" lon="11.43085"><ele>167.0</ele><time>2026-05-01T13:18:02.974Z</time></trkpt><trkpt lat="43.0969567" lon="11.4307617"><ele>167.0</ele><time>2026-05-01T13:18:03.974Z</time></trkpt><trkpt lat="43.09685" lon="11.430665"><ele>167.0</ele><time>2026-05-01T13:18:04.973Z</time></trkpt><trkpt lat="43.0967383" lon="11.4305533"><ele>168.33333333333331</ele><time>2026-05-01T13:18:05.972Z</time></trkpt><trkpt lat="43.0966133" lon="11.43041"><ele>169.66666666666666</ele><time>2026-05-01T13:18:06.972Z</time></trkpt><trkpt lat="43.0964833" lon="11.430245"><ele>171.0</ele><time>2026-05-01T13:18:07.972Z</time></trkpt><trkpt lat="43.0963517" lon="11.4300717"><ele>171.0</ele><time>2026-05-01T13:18:08.972Z</time></trkpt><trkpt lat="43.0962283" lon="11.42992"><ele>171.0</ele><time>2026-05-01T13:18:09.972Z</time></trkpt><trkpt lat="43.0961183" lon="11.4297817"><ele>171.0</ele><time>2026-05-01T13:18:10.972Z</time></trkpt><trkpt lat="43.096" lon="11.4296683"><ele>172.33333333333334</ele><time>2026-05-01T13:18:11.972Z</time></trkpt><trkpt lat="43.0958467" lon="11.42954"><ele>173.66666666666669</ele><time>2026-05-01T13:18:12.972Z</time></trkpt><trkpt lat="43.0956717" lon="11.4294033"><ele>175.0</ele><time>2026-05-01T13:18:13.973Z</time></trkpt><trkpt lat="43.0954767" lon="11.42926"><ele>177.0</ele><time>2026-05-01T13:18:14.972Z</time></trkpt><trkpt lat="43.0952633" lon="11.42911"><ele>179.0</ele><time>2026-05-01T13:18:15.972Z</time></trkpt><trkpt lat="43.0950533" lon="11.42896"><ele>180.0</ele><time>2026-05-01T13:18:16.972Z</time></trkpt><trkpt lat="43.09486" lon="11.4288317"><ele>181.0</ele><time>2026-05-01T13:18:17.972Z</time></trkpt><trkpt lat="43.0946717" lon="11.4286883"><ele>182.0</ele><time>2026-05-01T13:18:18.972Z</time></trkpt><trkpt lat="43.0944917" lon="11.4285567"><ele>183.33333333333331</ele><time>2026-05-01T13:18:19.972Z</time></trkpt><trkpt lat="43.0943233" lon="11.4284283"><ele>184.66666666666666</ele><time>2026-05-01T13:18:20.972Z</time></trkpt><trkpt lat="43.094155" lon="11.4282983"><ele>186.0</ele><time>2026-05-01T13:18:21.973Z</time></trkpt><trkpt lat="43.09398" lon="11.4281717"><ele>186.66666666666666</ele><time>2026-05-01T13:18:22.973Z</time></trkpt><trkpt lat="43.0937983" lon="11.4280533"><ele>187.33333333333331</ele><time>2026-05-01T13:18:23.972Z</time></trkpt><trkpt lat="43.0936" lon="11.4279133"><ele>188.0</ele><time>2026-05-01T13:18:24.972Z</time></trkpt><trkpt lat="43.0933967" lon="11.4277667"><ele>190.0</ele><time>2026-05-01T13:18:25.973Z</time></trkpt><trkpt lat="43.0931983" lon="11.4276333"><ele>192.0</ele><time>2026-05-01T13:18:26.972Z</time></trkpt><trkpt lat="43.093005" lon="11.4274917"><ele>194.0</ele><time>2026-05-01T13:18:27.973Z</time></trkpt><trkpt lat="43.0928083" lon="11.427345"><ele>194.0</ele><time>2026-05-01T13:18:28.973Z</time></trkpt><trkpt lat="43.0926067" lon="11.4271967"><ele>194.0</ele><time>2026-05-01T13:18:29.973Z</time></trkpt><trkpt lat="43.0924" lon="11.4270517"><ele>197.0</ele><time>2026-05-01T13:18:30.972Z</time></trkpt><trkpt lat="43.0921967" lon="11.4269083"><ele>200.0</ele><time>2026-05-01T13:18:31.972Z</time></trkpt><trkpt lat="43.091995" lon="11.42677"><ele>200.0</ele><time>2026-05-01T13:18:32.972Z</time></trkpt><trkpt lat="43.0918083" lon="11.4266333"><ele>200.0</ele><time>2026-05-01T13:18:33.972Z</time></trkpt><trkpt lat="43.0916383" lon="11.4265083"><ele>200.0</ele><time>2026-05-01T13:18:34.972Z</time></trkpt><trkpt lat="43.0914883" lon="11.426385"><ele>200.75</ele><time>2026-05-01T13:18:35.972Z</time></trkpt><trkpt lat="43.0913667" lon="11.4262783"><ele>201.5</ele><time>2026-05-01T13:18:36.972Z</time></trkpt><trkpt lat="43.091255" lon="11.4261917"><ele>202.25</ele><time>2026-05-01T13:18:37.973Z</time></trkpt><trkpt lat="43.091165" lon="11.4261333"><ele>203.0</ele><time>2026-05-01T13:18:38.972Z</time></trkpt><trkpt lat="43.0910867" lon="11.42608"><ele>203.0</ele><time>2026-05-01T13:18:39.972Z</time></trkpt><trkpt lat="43.09099" lon="11.4260417"><ele>203.0</ele><time>2026-05-01T13:18:40.973Z</time></trkpt><trkpt lat="43.0908683" lon="11.4259933"><ele>203.0</ele><time>2026-05-01T13:18:41.973Z</time></trkpt><trkpt lat="43.0907217" lon="11.425955"><ele>203.0</ele><time>2026-05-01T13:18:42.973Z</time></trkpt><trkpt lat="43.0905733" lon="11.4259183"><ele>204.5</ele><time>2026-05-01T13:18:43.972Z</time></trkpt><trkpt lat="43.0904283" lon="11.42588"><ele>206.0</ele><time>2026-05-01T13:18:44.972Z</time></trkpt><trkpt lat="43.0902867" lon="11.4258417"><ele>207.5</ele><time>2026-05-01T13:18:45.972Z</time></trkpt><trkpt lat="43.0901367" lon="11.4258033"><ele>209.0</ele><time>2026-05-01T13:18:46.972Z</time></trkpt><trkpt lat="43.0899733" lon="11.425755"><ele>210.66666666666669</ele><time>2026-05-01T13:18:47.972Z</time></trkpt><trkpt lat="43.0897817" lon="11.4256933"><ele>212.33333333333331</ele><time>2026-05-01T13:18:48.972Z</time></trkpt><trkpt lat="43.0895917" lon="11.4256333"><ele>214.0</ele><time>2026-05-01T13:18:49.972Z</time></trkpt><trkpt lat="43.0894133" lon="11.42559"><ele>214.0</ele><time>2026-05-01T13:18:50.973Z</time></trkpt><trkpt lat="43.0892633" lon="11.4255467"><ele>214.0</ele><time>2026-05-01T13:18:51.972Z</time></trkpt><trkpt lat="43.0891333" lon="11.425495"><ele>214.0</ele><time>2026-05-01T13:18:52.972Z</time></trkpt><trkpt lat="43.0890283" lon="11.425435"><ele>214.0</ele><time>2026-05-01T13:18:53.973Z</time></trkpt><trkpt lat="43.0889583" lon="11.4253667"><ele>219.2</ele><time>2026-05-01T13:18:54.972Z</time></trkpt><trkpt lat="43.088925" lon="11.4252583"><ele>224.39999999999998</ele><time>2026-05-01T13:18:55.973Z</time></trkpt><trkpt lat="43.0889217" lon="11.4251183"><ele>229.6</ele><time>2026-05-01T13:18:56.972Z</time></trkpt><trkpt lat="43.0889417" lon="11.4249583"><ele>234.8</ele><time>2026-05-01T13:18:57.972Z</time></trkpt><trkpt lat="43.0889683" lon="11.42477"><ele>240.0</ele><time>2026-05-01T13:18:58.972Z</time></trkpt><trkpt lat="43.088995" lon="11.4245733"><ele>237.75</ele><time>2026-05-01T13:18:59.973Z</time></trkpt><trkpt lat="43.0890267" lon="11.4243883"><ele>235.5</ele><time>2026-05-01T13:19:00.973Z</time></trkpt><trkpt lat="43.0890567" lon="11.42421"><ele>233.25</ele><time>2026-05-01T13:19:01.973Z</time></trkpt><trkpt lat="43.08909" lon="11.4240333"><ele>231.0</ele><time>2026-05-01T13:19:02.973Z</time></trkpt><trkpt lat="43.0891133" lon="11.4238333"><ele>232.75</ele><time>2026-05-01T13:19:03.973Z</time></trkpt><trkpt lat="43.089135" lon="11.42364"><ele>234.5</ele><time>2026-05-01T13:19:04.973Z</time></trkpt><trkpt lat="43.0891483" lon="11.4234533"><ele>236.25</ele><time>2026-05-01T13:19:05.972Z</time></trkpt><trkpt lat="43.089135" lon="11.42329"><ele>238.0</ele><time>2026-05-01T13:19:06.972Z</time></trkpt><trkpt lat="43.089105" lon="11.423125"><ele>244.25</ele><time>2026-05-01T13:19:07.973Z</time></trkpt><trkpt lat="43.0890517" lon="11.4229567"><ele>250.5</ele><time>2026-05-01T13:19:08.973Z</time></trkpt><trkpt lat="43.0889783" lon="11.4227833"><ele>256.75</ele><time>2026-05-01T13:19:09.972Z</time></trkpt><trkpt lat="43.0888933" lon="11.422595"><ele>263.0</ele><time>2026-05-01T13:19:10.973Z</time></trkpt><trkpt lat="43.0888217" lon="11.422385"><ele>263.0</ele><time>2026-05-01T13:19:11.972Z</time></trkpt><trkpt lat="43.08875" lon="11.4221983"><ele>263.0</ele><time>2026-05-01T13:19:12.972Z</time></trkpt><trkpt lat="43.08868" lon="11.42203"><ele>263.0</ele><time>2026-05-01T13:19:13.972Z</time></trkpt><trkpt lat="43.088615" lon="11.4218933"><ele>263.0</ele><time>2026-05-01T13:19:14.973Z</time></trkpt><trkpt lat="43.0885433" lon="11.421805"><ele>261.8</ele><time>2026-05-01T13:19:15.972Z</time></trkpt><trkpt lat="43.0884517" lon="11.42174"><ele>260.6</ele><time>2026-05-01T13:19:16.972Z</time></trkpt><trkpt lat="43.0883583" lon="11.421715"><ele>259.4</ele><time>2026-05-01T13:19:17.973Z</time></trkpt><trkpt lat="43.0882667" lon="11.4217367"><ele>258.2</ele><time>2026-05-01T13:19:18.972Z</time></trkpt><trkpt lat="43.0882033" lon="11.421805"><ele>257.0</ele><time>2026-05-01T13:19:19.972Z</time></trkpt><trkpt lat="43.0881583" lon="11.4219083"><ele>262.5</ele><time>2026-05-01T13:19:20.972Z</time></trkpt><trkpt lat="43.0881233" lon="11.4220383"><ele>268.0</ele><time>2026-05-01T13:19:21.973Z</time></trkpt><trkpt lat="43.0880933" lon="11.4222117"><ele>273.5</ele><time>2026-05-01T13:19:22.972Z</time></trkpt><trkpt lat="43.0880517" lon="11.4223967"><ele>279.0</ele><time>2026-05-01T13:19:23.973Z</time></trkpt><trkpt lat="43.0880033" lon="11.4226317"><ele>280.0</ele><time>2026-05-01T13:19:24.973Z</time></trkpt><trkpt lat="43.0879467" lon="11.422855"><ele>281.0</ele><time>2026-05-01T13:19:25.972Z</time></trkpt><trkpt lat="43.08788" lon="11.423065"><ele>282.0</ele><time>2026-05-01T13:19:26.972Z</time></trkpt><trkpt lat="43.087805" lon="11.4232517"><ele>282.2</ele><time>2026-05-01T13:19:27.972Z</time></trkpt><trkpt lat="43.0877333" lon="11.4233983"><ele>282.4</ele><time>2026-05-01T13:19:28.973Z</time></trkpt><trkpt lat="43.0876717" lon="11.4234933"><ele>282.6</ele><time>2026-05-01T13:19:29.973Z</time></trkpt><trkpt lat="43.0876117" lon="11.4235333"><ele>282.8</ele><time>2026-05-01T13:19:30.972Z</time></trkpt><trkpt lat="43.0875267" lon="11.4234867"><ele>283.0</ele><time>2026-05-01T13:19:32.973Z</time></trkpt><trkpt lat="43.0874783" lon="11.4233533"><ele>283.0</ele><time>2026-05-01T13:19:34.973Z</time></trkpt><trkpt lat="43.0874533" lon="11.4232633"><ele>283.0</ele><time>2026-05-01T13:19:35.973Z</time></trkpt><trkpt lat="43.0874333" lon="11.4231367"><ele>283.0</ele><time>2026-05-01T13:19:36.973Z</time></trkpt><trkpt lat="43.08741" lon="11.422965"><ele>283.0</ele><time>2026-05-01T13:19:37.972Z</time></trkpt><trkpt lat="43.087375" lon="11.4228"><ele>283.0</ele><time>2026-05-01T13:19:38.973Z</time></trkpt><trkpt lat="43.08733" lon="11.4226817"><ele>288.4</ele><time>2026-05-01T13:19:39.972Z</time></trkpt><trkpt lat="43.08725" lon="11.422605"><ele>293.8</ele><time>2026-05-01T13:19:41.973Z</time></trkpt><trkpt lat="43.0871733" lon="11.4227"><ele>299.2</ele><time>2026-05-01T13:19:43.973Z</time></trkpt><trkpt lat="43.0871467" lon="11.42279"><ele>304.6</ele><time>2026-05-01T13:19:44.972Z</time></trkpt><trkpt lat="43.0871267" lon="11.42291"><ele>310.0</ele><time>2026-05-01T13:19:45.973Z</time></trkpt><trkpt lat="43.0871117" lon="11.423055"><ele>310.0</ele><time>2026-05-01T13:19:46.972Z</time></trkpt><trkpt lat="43.0870917" lon="11.4232333"><ele>310.0</ele><time>2026-05-01T13:19:47.972Z</time></trkpt><trkpt lat="43.08705" lon="11.4234333"><ele>310.0</ele><time>2026-05-01T13:19:48.973Z</time></trkpt><trkpt lat="43.0870033" lon="11.4236167"><ele>310.0</ele><time>2026-05-01T13:19:49.972Z</time></trkpt><trkpt lat="43.086945" lon="11.42374"><ele>311.3333333333333</ele><time>2026-05-01T13:19:50.972Z</time></trkpt><trkpt lat="43.0868767" lon="11.4238317"><ele>312.66666666666663</ele><time>2026-05-01T13:19:51.972Z</time></trkpt><trkpt lat="43.086805" lon="11.42389"><ele>314.0</ele><time>2026-05-01T13:19:52.973Z</time></trkpt><trkpt lat="43.0867283" lon="11.4239033"><ele>315.3333333333333</ele><time>2026-05-01T13:19:53.973Z</time></trkpt><trkpt lat="43.0866417" lon="11.4238883"><ele>316.6666666666667</ele><time>2026-05-01T13:19:54.972Z</time></trkpt><trkpt lat="43.0865533" lon="11.4238433"><ele>318.0</ele><time>2026-05-01T13:19:55.973Z</time></trkpt><trkpt lat="43.0864733" lon="11.4237917"><ele>319.8333333333333</ele><time>2026-05-01T13:19:56.973Z</time></trkpt><trkpt lat="43.0864133" lon="11.4237017"><ele>321.6666666666667</ele><time>2026-05-01T13:19:57.972Z</time></trkpt><trkpt lat="43.08638" lon="11.4236067"><ele>323.5</ele><time>2026-05-01T13:19:58.972Z</time></trkpt><trkpt lat="43.08638" lon="11.4234967"><ele>325.33333333333337</ele><time>2026-05-01T13:19:59.972Z</time></trkpt><trkpt lat="43.0864067" lon="11.4233717"><ele>327.1666666666667</ele><time>2026-05-01T13:20:00.972Z</time></trkpt><trkpt lat="43.0864467" lon="11.4232367"><ele>329.0</ele><time>2026-05-01T13:20:01.972Z</time></trkpt><trkpt lat="43.0864783" lon="11.4231017"><ele>328.79999999999995</ele><time>2026-05-01T13:20:02.973Z</time></trkpt><trkpt lat="43.0864933" lon="11.4229733"><ele>328.59999999999997</ele><time>2026-05-01T13:20:03.972Z</time></trkpt><trkpt lat="43.0865067" lon="11.4228667"><ele>328.4</ele><time>2026-05-01T13:20:04.973Z</time></trkpt><trkpt lat="43.0865033" lon="11.4227283"><ele>328.2</ele><time>2026-05-01T13:20:06.972Z</time></trkpt><trkpt lat="43.0864367" lon="11.42263"><ele>328.0</ele><time>2026-05-01T13:20:08.972Z</time></trkpt><trkpt lat="43.086315" lon="11.4225983"><ele>328.0</ele><time>2026-05-01T13:20:10.973Z</time></trkpt><trkpt lat="43.0862533" lon="11.4226467"><ele>328.0</ele><time>2026-05-01T13:20:11.972Z</time></trkpt><trkpt lat="43.0861817" lon="11.4227383"><ele>328.0</ele><time>2026-05-01T13:20:12.973Z</time></trkpt><trkpt lat="43.086105" lon="11.4228817"><ele>328.0</ele><time>2026-05-01T13:20:13.973Z</time></trkpt><trkpt lat="43.0860167" lon="11.42306"><ele>328.2</ele><time>2026-05-01T13:20:14.973Z</time></trkpt><trkpt lat="43.085935" lon="11.4231867"><ele>328.4</ele><time>2026-05-01T13:20:15.972Z</time></trkpt><trkpt lat="43.08586" lon="11.42327"><ele>328.59999999999997</ele><time>2026-05-01T13:20:16.972Z</time></trkpt><trkpt lat="43.0857833" lon="11.423305"><ele>328.79999999999995</ele><time>2026-05-01T13:20:17.973Z</time></trkpt><trkpt lat="43.08571" lon="11.423295"><ele>329.0</ele><time>2026-05-01T13:20:18.972Z</time></trkpt><trkpt lat="43.08564" lon="11.4232267"><ele>333.0</ele><time>2026-05-01T13:20:19.973Z</time></trkpt><trkpt lat="43.0855733" lon="11.423105"><ele>337.0</ele><time>2026-05-01T13:20:20.972Z</time></trkpt><trkpt lat="43.08552" lon="11.422945"><ele>341.0</ele><time>2026-05-01T13:20:21.973Z</time></trkpt><trkpt lat="43.0854767" lon="11.42276"><ele>345.0</ele><time>2026-05-01T13:20:22.972Z</time></trkpt><trkpt lat="43.0854367" lon="11.4225733"><ele>346.0</ele><time>2026-05-01T13:20:23.972Z</time></trkpt><trkpt lat="43.0853883" lon="11.4223867"><ele>347.0</ele><time>2026-05-01T13:20:24.973Z</time></trkpt><trkpt lat="43.0853467" lon="11.4222283"><ele>348.0</ele><time>2026-05-01T13:20:25.972Z</time></trkpt><trkpt lat="43.0852967" lon="11.422085"><ele>349.0</ele><time>2026-05-01T13:20:26.972Z</time></trkpt><trkpt lat="43.08523" lon="11.42197"><ele>348.0</ele><time>2026-05-01T13:20:27.972Z</time></trkpt><trkpt lat="43.0851417" lon="11.42187"><ele>347.0</ele><time>2026-05-01T13:20:28.972Z</time></trkpt><trkpt lat="43.085035" lon="11.42179"><ele>346.0</ele><time>2026-05-01T13:20:29.973Z</time></trkpt><trkpt lat="43.0849167" lon="11.4217283"><ele>345.0</ele><time>2026-05-01T13:20:30.973Z</time></trkpt><trkpt lat="43.0847983" lon="11.4216733"><ele>345.0</ele><time>2026-05-01T13:20:31.972Z</time></trkpt><trkpt lat="43.0846783" lon="11.4216267"><ele>345.0</ele><time>2026-05-01T13:20:32.972Z</time></trkpt><trkpt lat="43.0845567" lon="11.4215817"><ele>345.0</ele><time>2026-05-01T13:20:33.972Z</time></trkpt><trkpt lat="43.0844233" lon="11.421515"><ele>345.0</ele><time>2026-05-01T13:20:34.972Z</time></trkpt><trkpt lat="43.084295" lon="11.4214367"><ele>345.0</ele><time>2026-05-01T13:20:35.972Z</time></trkpt><trkpt lat="43.0841633" lon="11.4213433"><ele>345.0</ele><time>2026-05-01T13:20:36.972Z</time></trkpt><trkpt lat="43.0840333" lon="11.4212367"><ele>345.0</ele><time>2026-05-01T13:20:37.973Z</time></trkpt><trkpt lat="43.0839167" lon="11.4211483"><ele>345.0</ele><time>2026-05-01T13:20:38.972Z</time></trkpt><trkpt lat="43.0837983" lon="11.42105"><ele>345.5</ele><time>2026-05-01T13:20:39.972Z</time></trkpt><trkpt lat="43.08367" lon="11.4209783"><ele>346.0</ele><time>2026-05-01T13:20:40.973Z</time></trkpt><trkpt lat="43.08353" lon="11.4209167"><ele>346.5</ele><time>2026-05-01T13:20:41.973Z</time></trkpt><trkpt lat="43.0833817" lon="11.420875"><ele>347.0</ele><time>2026-05-01T13:20:42.973Z</time></trkpt><trkpt lat="43.0832367" lon="11.4208333"><ele>349.0</ele><time>2026-05-01T13:20:43.973Z</time></trkpt><trkpt lat="43.0830983" lon="11.4207917"><ele>351.0</ele><time>2026-05-01T13:20:44.972Z</time></trkpt><trkpt lat="43.08296" lon="11.4207467"><ele>353.0</ele><time>2026-05-01T13:20:45.972Z</time></trkpt><trkpt lat="43.082825" lon="11.4207"><ele>355.0</ele><time>2026-05-01T13:20:46.972Z</time></trkpt><trkpt lat="43.082695" lon="11.4206483"><ele>355.0</ele><time>2026-05-01T13:20:47.972Z</time></trkpt><trkpt lat="43.0825733" lon="11.420605"><ele>355.0</ele><time>2026-05-01T13:20:48.972Z</time></trkpt><trkpt lat="43.0824517" lon="11.4205767"><ele>355.0</ele><time>2026-05-01T13:20:49.972Z</time></trkpt><trkpt lat="43.08232" lon="11.4205533"><ele>355.0</ele><time>2026-05-01T13:20:50.972Z</time></trkpt><trkpt lat="43.0821883" lon="11.420545"><ele>354.75</ele><time>2026-05-01T13:20:51.972Z</time></trkpt><trkpt lat="43.0820583" lon="11.4205467"><ele>354.5</ele><time>2026-05-01T13:20:52.973Z</time></trkpt><trkpt lat="43.0819217" lon="11.420535"><ele>354.25</ele><time>2026-05-01T13:20:53.972Z</time></trkpt><trkpt lat="43.0817917" lon="11.420495"><ele>354.0</ele><time>2026-05-01T13:20:54.973Z</time></trkpt><trkpt lat="43.0816717" lon="11.4204067"><ele>358.0</ele><time>2026-05-01T13:20:55.973Z</time></trkpt><trkpt lat="43.0815583" lon="11.4202967"><ele>362.0</ele><time>2026-05-01T13:20:56.972Z</time></trkpt><trkpt lat="43.0814533" lon="11.4201567"><ele>366.0</ele><time>2026-05-01T13:20:57.972Z</time></trkpt><trkpt lat="43.0813583" lon="11.42001"><ele>370.0</ele><time>2026-05-01T13:20:58.973Z</time></trkpt><trkpt lat="43.0812817" lon="11.4198733"><ele>370.0</ele><time>2026-05-01T13:20:59.972Z</time></trkpt><trkpt lat="43.081215" lon="11.419745"><ele>370.0</ele><time>2026-05-01T13:21:00.972Z</time></trkpt><trkpt lat="43.081135" lon="11.41963"><ele>370.0</ele><time>2026-05-01T13:21:01.973Z</time></trkpt><trkpt lat="43.081035" lon="11.41954"><ele>370.0</ele><time>2026-05-01T13:21:02.973Z</time></trkpt><trkpt lat="43.080915" lon="11.419475"><ele>369.0</ele><time>2026-05-01T13:21:03.973Z</time></trkpt><trkpt lat="43.0807767" lon="11.4194283"><ele>368.0</ele><time>2026-05-01T13:21:04.972Z</time></trkpt><trkpt lat="43.0806333" lon="11.4193917"><ele>367.0</ele><time>2026-05-01T13:21:05.973Z</time></trkpt><trkpt lat="43.0805017" lon="11.4193617"><ele>366.0</ele><time>2026-05-01T13:21:06.973Z</time></trkpt><trkpt lat="43.080385" lon="11.419325"><ele>368.0</ele><time>2026-05-01T13:21:07.972Z</time></trkpt><trkpt lat="43.0802917" lon="11.4192533"><ele>370.0</ele><time>2026-05-01T13:21:08.972Z</time></trkpt><trkpt lat="43.080205" lon="11.419145"><ele>372.0</ele><time>2026-05-01T13:21:09.972Z</time></trkpt><trkpt lat="43.08015" lon="11.4190133"><ele>374.0</ele><time>2026-05-01T13:21:10.973Z</time></trkpt><trkpt lat="43.0800933" lon="11.4188867"><ele>376.0</ele><time>2026-05-01T13:21:11.973Z</time></trkpt><trkpt lat="43.080025" lon="11.4187817"><ele>381.25</ele><time>2026-05-01T13:21:12.973Z</time></trkpt><trkpt lat="43.07992" lon="11.418685"><ele>386.5</ele><time>2026-05-01T13:21:13.972Z</time></trkpt><trkpt lat="43.0797917" lon="11.418605"><ele>391.75</ele><time>2026-05-01T13:21:14.973Z</time></trkpt><trkpt lat="43.079645" lon="11.418535"><ele>397.0</ele><time>2026-05-01T13:21:15.972Z</time></trkpt><trkpt lat="43.0794883" lon="11.41847"><ele>397.0</ele><time>2026-05-01T13:21:16.973Z</time></trkpt><trkpt lat="43.0793583" lon="11.418395"><ele>397.0</ele><time>2026-05-01T13:21:17.972Z</time></trkpt><trkpt lat="43.0792383" lon="11.4183133"><ele>397.0</ele><time>2026-05-01T13:21:18.972Z</time></trkpt><trkpt lat="43.079125" lon="11.4182167"><ele>397.0</ele><time>2026-05-01T13:21:19.972Z</time></trkpt><trkpt lat="43.079015" lon="11.4181233"><ele>396.5</ele><time>2026-05-01T13:21:20.972Z</time></trkpt><trkpt lat="43.0789" lon="11.4180517"><ele>396.0</ele><time>2026-05-01T13:21:21.972Z</time></trkpt><trkpt lat="43.0787667" lon="11.4180033"><ele>395.5</ele><time>2026-05-01T13:21:22.972Z</time></trkpt><trkpt lat="43.0786167" lon="11.4179783"><ele>395.0</ele><time>2026-05-01T13:21:23.972Z</time></trkpt><trkpt lat="43.078455" lon="11.4179567"><ele>395.0</ele><time>2026-05-01T13:21:24.973Z</time></trkpt><trkpt lat="43.0782717" lon="11.4179467"><ele>395.0</ele><time>2026-05-01T13:21:25.972Z</time></trkpt><trkpt lat="43.0781" lon="11.41793"><ele>395.0</ele><time>2026-05-01T13:21:26.972Z</time></trkpt><trkpt lat="43.0779433" lon="11.4179217"><ele>398.5</ele><time>2026-05-01T13:21:27.973Z</time></trkpt><trkpt lat="43.077785" lon="11.4179217"><ele>402.0</ele><time>2026-05-01T13:21:28.972Z</time></trkpt><trkpt lat="43.0776517" lon="11.417915"><ele>405.5</ele><time>2026-05-01T13:21:29.973Z</time></trkpt><trkpt lat="43.0775233" lon="11.4178867"><ele>409.0</ele><time>2026-05-01T13:21:30.973Z</time></trkpt><trkpt lat="43.0774033" lon="11.4178267"><ele>413.5</ele><time>2026-05-01T13:21:31.972Z</time></trkpt><trkpt lat="43.0772683" lon="11.4177433"><ele>418.0</ele><time>2026-05-01T13:21:32.972Z</time></trkpt><trkpt lat="43.07713" lon="11.4176483"><ele>422.5</ele><time>2026-05-01T13:21:33.972Z</time></trkpt><trkpt lat="43.0770117" lon="11.41755"><ele>427.0</ele><time>2026-05-01T13:21:34.973Z</time></trkpt><trkpt lat="43.0769167" lon="11.4174183"><ele>427.0</ele><time>2026-05-01T13:21:35.972Z</time></trkpt><trkpt lat="43.0768567" lon="11.41727"><ele>427.00000000000006</ele><time>2026-05-01T13:21:36.972Z</time></trkpt><trkpt lat="43.07681" lon="11.4171233"><ele>427.00000000000006</ele><time>2026-05-01T13:21:37.972Z</time></trkpt><trkpt lat="43.07676" lon="11.4170117"><ele>427.0</ele><time>2026-05-01T13:21:38.972Z</time></trkpt><trkpt lat="43.076685" lon="11.41693"><ele>427.0</ele><time>2026-05-01T13:21:39.972Z</time></trkpt><trkpt lat="43.0765783" lon="11.4168717"><ele>427.75</ele><time>2026-05-01T13:21:40.972Z</time></trkpt><trkpt lat="43.076465" lon="11.4168233"><ele>428.5</ele><time>2026-05-01T13:21:41.972Z</time></trkpt><trkpt lat="43.0763383" lon="11.4167783"><ele>429.25</ele><time>2026-05-01T13:21:42.973Z</time></trkpt><trkpt lat="43.0761967" lon="11.4167417"><ele>430.0</ele><time>2026-05-01T13:21:43.973Z</time></trkpt><trkpt lat="43.076055" lon="11.416685"><ele>430.0</ele><time>2026-05-01T13:21:44.973Z</time></trkpt><trkpt lat="43.07591" lon="11.4165817"><ele>430.0</ele><time>2026-05-01T13:21:45.972Z</time></trkpt><trkpt lat="43.075755" lon="11.416465"><ele>430.0</ele><time>2026-05-01T13:21:46.973Z</time></trkpt><trkpt lat="43.0755767" lon="11.4163383"><ele>431.6666666666667</ele><time>2026-05-01T13:21:47.973Z</time></trkpt><trkpt lat="43.0754183" lon="11.4162217"><ele>433.33333333333337</ele><time>2026-05-01T13:21:48.972Z</time></trkpt><trkpt lat="43.0752567" lon="11.4161233"><ele>435.0</ele><time>2026-05-01T13:21:49.972Z</time></trkpt><trkpt lat="43.0751033" lon="11.41603"><ele>435.0</ele><time>2026-05-01T13:21:50.972Z</time></trkpt><trkpt lat="43.07497" lon="11.4159383"><ele>435.0</ele><time>2026-05-01T13:21:51.972Z</time></trkpt><trkpt lat="43.0748483" lon="11.4158633"><ele>435.0</ele><time>2026-05-01T13:21:52.972Z</time></trkpt><trkpt lat="43.0747317" lon="11.4158183"><ele>435.0</ele><time>2026-05-01T13:21:53.972Z</time></trkpt><trkpt lat="43.0746133" lon="11.41578"><ele>435.8333333333333</ele><time>2026-05-01T13:21:54.972Z</time></trkpt><trkpt lat="43.0745083" lon="11.4157483"><ele>436.66666666666663</ele><time>2026-05-01T13:21:55.972Z</time></trkpt><trkpt lat="43.074435" lon="11.415695"><ele>437.5</ele><time>2026-05-01T13:21:56.972Z</time></trkpt><trkpt lat="43.0743783" lon="11.4156117"><ele>438.3333333333333</ele><time>2026-05-01T13:21:57.972Z</time></trkpt><trkpt lat="43.0743483" lon="11.415505"><ele>439.16666666666663</ele><time>2026-05-01T13:21:58.973Z</time></trkpt><trkpt lat="43.074345" lon="11.4153817"><ele>440.0</ele><time>2026-05-01T13:21:59.972Z</time></trkpt><trkpt lat="43.074335" lon="11.4152383"><ele>442.5</ele><time>2026-05-01T13:22:00.973Z</time></trkpt><trkpt lat="43.0743217" lon="11.4150867"><ele>445.0</ele><time>2026-05-01T13:22:01.973Z</time></trkpt><trkpt lat="43.07429" lon="11.414925"><ele>447.5</ele><time>2026-05-01T13:22:02.972Z</time></trkpt><trkpt lat="43.0742517" lon="11.4147467"><ele>450.0</ele><time>2026-05-01T13:22:03.972Z</time></trkpt><trkpt lat="43.0742067" lon="11.41461"><ele>451.4</ele><time>2026-05-01T13:22:04.972Z</time></trkpt><trkpt lat="43.07415" lon="11.4145133"><ele>452.8</ele><time>2026-05-01T13:22:05.972Z</time></trkpt><trkpt lat="43.0740783" lon="11.41444"><ele>454.20000000000005</ele><time>2026-05-01T13:22:06.972Z</time></trkpt><trkpt lat="43.0740017" lon="11.4144017"><ele>455.6</ele><time>2026-05-01T13:22:07.972Z</time></trkpt><trkpt lat="43.073905" lon="11.4143833"><ele>457.0</ele><time>2026-05-01T13:22:08.972Z</time></trkpt><trkpt lat="43.073785" lon="11.4143717"><ele>460.6666666666667</ele><time>2026-05-01T13:22:09.972Z</time></trkpt><trkpt lat="43.0736417" lon="11.41436"><ele>464.33333333333337</ele><time>2026-05-01T13:22:10.972Z</time></trkpt><trkpt lat="43.0734917" lon="11.4143333"><ele>468.0</ele><time>2026-05-01T13:22:11.972Z</time></trkpt><trkpt lat="43.0733383" lon="11.4143017"><ele>471.0</ele><time>2026-05-01T13:22:12.972Z</time></trkpt><trkpt lat="43.0731833" lon="11.4142733"><ele>474.0</ele><time>2026-05-01T13:22:13.973Z</time></trkpt><trkpt lat="43.07302" lon="11.41426"><ele>477.0</ele><time>2026-05-01T13:22:14.972Z</time></trkpt><trkpt lat="43.0728583" lon="11.4142767"><ele>477.0</ele><time>2026-05-01T13:22:15.973Z</time></trkpt><trkpt lat="43.072705" lon="11.4142733"><ele>477.0</ele><time>2026-05-01T13:22:16.972Z</time></trkpt><trkpt lat="43.0725633" lon="11.41424"><ele>477.0</ele><time>2026-05-01T13:22:17.972Z</time></trkpt><trkpt lat="43.0724467" lon="11.4141833"><ele>477.0</ele><time>2026-05-01T13:22:18.972Z</time></trkpt><trkpt lat="43.0723617" lon="11.414135"><ele>476.6666666666667</ele><time>2026-05-01T13:22:19.972Z</time></trkpt><trkpt lat="43.0723" lon="11.4141083"><ele>476.33333333333337</ele><time>2026-05-01T13:22:20.972Z</time></trkpt><trkpt lat="43.0722283" lon="11.4140633"><ele>476.0</ele><time>2026-05-01T13:22:24.972Z</time></trkpt><trkpt lat="43.07215" lon="11.4140033"><ele>475.6666666666667</ele><time>2026-05-01T13:22:26.973Z</time></trkpt><trkpt lat="43.07203" lon="11.41395"><ele>475.33333333333337</ele><time>2026-05-01T13:22:28.972Z</time></trkpt><trkpt lat="43.0719617" lon="11.4139283"><ele>475.0</ele><time>2026-05-01T13:22:29.972Z</time></trkpt><trkpt lat="43.0718783" lon="11.4138867"><ele>475.0</ele><time>2026-05-01T13:22:30.972Z</time></trkpt><trkpt lat="43.0717833" lon="11.4138233"><ele>475.0</ele><time>2026-05-01T13:22:31.972Z</time></trkpt><trkpt lat="43.0716967" lon="11.413755"><ele>475.0</ele><time>2026-05-01T13:22:32.973Z</time></trkpt><trkpt lat="43.0716133" lon="11.41369"><ele>475.0</ele><time>2026-05-01T13:22:33.973Z</time></trkpt><trkpt lat="43.07154" lon="11.4136317"><ele>475.0</ele><time>2026-05-01T13:22:34.973Z</time></trkpt><trkpt lat="43.071455" lon="11.4135917"><ele>476.83333333333337</ele><time>2026-05-01T13:22:35.973Z</time></trkpt><trkpt lat="43.071365" lon="11.413585"><ele>478.6666666666667</ele><time>2026-05-01T13:22:36.972Z</time></trkpt><trkpt lat="43.07128" lon="11.4135933"><ele>480.5</ele><time>2026-05-01T13:22:37.973Z</time></trkpt><trkpt lat="43.0712" lon="11.413615"><ele>482.33333333333337</ele><time>2026-05-01T13:22:38.973Z</time></trkpt><trkpt lat="43.07113" lon="11.4136283"><ele>484.1666666666667</ele><time>2026-05-01T13:22:39.972Z</time></trkpt><trkpt lat="43.0710617" lon="11.413625"><ele>486.0</ele><time>2026-05-01T13:22:40.972Z</time></trkpt><trkpt lat="43.0709867" lon="11.413595"><ele>486.0</ele><time>2026-05-01T13:22:41.972Z</time></trkpt><trkpt lat="43.070905" lon="11.41354"><ele>486.0</ele><time>2026-05-01T13:22:42.972Z</time></trkpt><trkpt lat="43.070815" lon="11.413455"><ele>486.0</ele><time>2026-05-01T13:22:43.972Z</time></trkpt><trkpt lat="43.0707167" lon="11.4133533"><ele>486.0</ele><time>2026-05-01T13:22:44.972Z</time></trkpt><trkpt lat="43.0706283" lon="11.41322"><ele>487.8</ele><time>2026-05-01T13:22:45.972Z</time></trkpt><trkpt lat="43.07054" lon="11.413105"><ele>489.6</ele><time>2026-05-01T13:22:46.972Z</time></trkpt><trkpt lat="43.0704583" lon="11.4130067"><ele>491.4</ele><time>2026-05-01T13:22:47.973Z</time></trkpt><trkpt lat="43.0703717" lon="11.4129417"><ele>493.2</ele><time>2026-05-01T13:22:48.973Z</time></trkpt><trkpt lat="43.07029" lon="11.412905"><ele>495.0</ele><time>2026-05-01T13:22:49.973Z</time></trkpt><trkpt lat="43.0702117" lon="11.41294"><ele>495.0</ele><time>2026-05-01T13:22:50.973Z</time></trkpt><trkpt lat="43.0701417" lon="11.4130117"><ele>495.0</ele><time>2026-05-01T13:22:51.972Z</time></trkpt><trkpt lat="43.0700967" lon="11.41311"><ele>495.0</ele><time>2026-05-01T13:22:52.972Z</time></trkpt><trkpt lat="43.07005" lon="11.413235"><ele>495.0</ele><time>2026-05-01T13:22:53.972Z</time></trkpt><trkpt lat="43.0700083" lon="11.413405"><ele>495.0</ele><time>2026-05-01T13:22:54.973Z</time></trkpt><trkpt lat="43.0699867" lon="11.4136033"><ele>495.0</ele><time>2026-05-01T13:22:55.973Z</time></trkpt><trkpt lat="43.06999" lon="11.41382"><ele>495.0</ele><time>2026-05-01T13:22:56.972Z</time></trkpt><trkpt lat="43.0700033" lon="11.4140383"><ele>495.0</ele><time>2026-05-01T13:22:57.972Z</time></trkpt><trkpt lat="43.0700017" lon="11.414235"><ele>494.75</ele><time>2026-05-01T13:22:58.973Z</time></trkpt><trkpt lat="43.07" lon="11.414405"><ele>494.5</ele><time>2026-05-01T13:22:59.972Z</time></trkpt><trkpt lat="43.06998" lon="11.4145617"><ele>494.25</ele><time>2026-05-01T13:23:00.972Z</time></trkpt><trkpt lat="43.0699383" lon="11.4147117"><ele>494.0</ele><time>2026-05-01T13:23:01.972Z</time></trkpt><trkpt lat="43.0698683" lon="11.4148367"><ele>495.25</ele><time>2026-05-01T13:23:02.972Z</time></trkpt><trkpt lat="43.0697867" lon="11.4149533"><ele>496.5</ele><time>2026-05-01T13:23:03.973Z</time></trkpt><trkpt lat="43.0696733" lon="11.4150583"><ele>497.75</ele><time>2026-05-01T13:23:04.973Z</time></trkpt><trkpt lat="43.06953" lon="11.415175"><ele>499.0</ele><time>2026-05-01T13:23:05.973Z</time></trkpt><trkpt lat="43.0693833" lon="11.4153"><ele>499.0</ele><time>2026-05-01T13:23:06.973Z</time></trkpt><trkpt lat="43.069225" lon="11.4154217"><ele>499.0</ele><time>2026-05-01T13:23:07.972Z</time></trkpt><trkpt lat="43.0690767" lon="11.4155033"><ele>499.0</ele><time>2026-05-01T13:23:08.972Z</time></trkpt><trkpt lat="43.068965" lon="11.4155433"><ele>496.79999999999995</ele><time>2026-05-01T13:23:09.973Z</time></trkpt><trkpt lat="43.06886" lon="11.4155817"><ele>494.59999999999997</ele><time>2026-05-01T13:23:10.972Z</time></trkpt><trkpt lat="43.06876" lon="11.4156183"><ele>492.4</ele><time>2026-05-01T13:23:11.972Z</time></trkpt><trkpt lat="43.06866" lon="11.4156583"><ele>490.2</ele><time>2026-05-01T13:23:12.972Z</time></trkpt><trkpt lat="43.0685667" lon="11.4157333"><ele>488.0</ele><time>2026-05-01T13:23:13.972Z</time></trkpt><trkpt lat="43.0684783" lon="11.4158317"><ele>488.0</ele><time>2026-05-01T13:23:14.972Z</time></trkpt><trkpt lat="43.0683867" lon="11.4159517"><ele>488.0</ele><time>2026-05-01T13:23:15.973Z</time></trkpt><trkpt lat="43.0682817" lon="11.4160683"><ele>488.0</ele><time>2026-05-01T13:23:16.972Z</time></trkpt><trkpt lat="43.068165" lon="11.4161833"><ele>488.0</ele><time>2026-05-01T13:23:17.972Z</time></trkpt><trkpt lat="43.0680333" lon="11.4162883"><ele>490.25</ele><time>2026-05-01T13:23:18.972Z</time></trkpt><trkpt lat="43.0679133" lon="11.4163833"><ele>492.5</ele><time>2026-05-01T13:23:19.972Z</time></trkpt><trkpt lat="43.06782" lon="11.41647"><ele>494.75</ele><time>2026-05-01T13:23:20.973Z</time></trkpt><trkpt lat="43.0677433" lon="11.4165667"><ele>497.0</ele><time>2026-05-01T13:23:21.973Z</time></trkpt><trkpt lat="43.0676883" lon="11.4167083"><ele>497.0</ele><time>2026-05-01T13:23:22.972Z</time></trkpt><trkpt lat="43.06764" lon="11.41688"><ele>497.0</ele><time>2026-05-01T13:23:23.973Z</time></trkpt><trkpt lat="43.067585" lon="11.417055"><ele>497.0</ele><time>2026-05-01T13:23:24.973Z</time></trkpt><trkpt lat="43.0674983" lon="11.4172317"><ele>497.0</ele><time>2026-05-01T13:23:25.973Z</time></trkpt><trkpt lat="43.0674133" lon="11.4173767"><ele>498.75</ele><time>2026-05-01T13:23:26.973Z</time></trkpt><trkpt lat="43.0673167" lon="11.4174917"><ele>500.5</ele><time>2026-05-01T13:23:27.972Z</time></trkpt><trkpt lat="43.067195" lon="11.4175783"><ele>502.25</ele><time>2026-05-01T13:23:28.972Z</time></trkpt><trkpt lat="43.0670583" lon="11.41764"><ele>504.0</ele><time>2026-05-01T13:23:29.972Z</time></trkpt><trkpt lat="43.0669317" lon="11.4177017"><ele>504.0</ele><time>2026-05-01T13:23:30.973Z</time></trkpt><trkpt lat="43.06683" lon="11.417785"><ele>504.0</ele><time>2026-05-01T13:23:31.972Z</time></trkpt><trkpt lat="43.0667567" lon="11.417885"><ele>504.0</ele><time>2026-05-01T13:23:32.972Z</time></trkpt><trkpt lat="43.0667017" lon="11.4180233"><ele>504.0</ele><time>2026-05-01T13:23:33.972Z</time></trkpt><trkpt lat="43.0666583" lon="11.418185"><ele>501.66666666666663</ele><time>2026-05-01T13:23:34.972Z</time></trkpt><trkpt lat="43.0666117" lon="11.4183967"><ele>499.3333333333333</ele><time>2026-05-01T13:23:35.973Z</time></trkpt><trkpt lat="43.0665817" lon="11.418615"><ele>497.0</ele><time>2026-05-01T13:23:36.972Z</time></trkpt><trkpt lat="43.06656" lon="11.4188433"><ele>491.66666666666663</ele><time>2026-05-01T13:23:37.972Z</time></trkpt><trkpt lat="43.0665633" lon="11.419075"><ele>486.33333333333337</ele><time>2026-05-01T13:23:38.973Z</time></trkpt><trkpt lat="43.0665667" lon="11.4192817"><ele>481.0</ele><time>2026-05-01T13:23:39.973Z</time></trkpt><trkpt lat="43.0665667" lon="11.4194767"><ele>482.0</ele><time>2026-05-01T13:23:40.972Z</time></trkpt><trkpt lat="43.0665683" lon="11.4196667"><ele>483.0</ele><time>2026-05-01T13:23:41.972Z</time></trkpt><trkpt lat="43.0665633" lon="11.419835"><ele>484.0</ele><time>2026-05-01T13:23:42.973Z</time></trkpt><trkpt lat="43.066535" lon="11.4199983"><ele>485.0</ele><time>2026-05-01T13:23:43.973Z</time></trkpt><trkpt lat="43.066475" lon="11.42016"><ele>485.0</ele><time>2026-05-01T13:23:44.972Z</time></trkpt><trkpt lat="43.0663917" lon="11.4203267"><ele>485.0</ele><time>2026-05-01T13:23:45.973Z</time></trkpt><trkpt lat="43.0662833" lon="11.4205367"><ele>485.0</ele><time>2026-05-01T13:23:46.973Z</time></trkpt><trkpt lat="43.066165" lon="11.4207783"><ele>487.3333333333333</ele><time>2026-05-01T13:23:47.972Z</time></trkpt><trkpt lat="43.066045" lon="11.421035"><ele>489.66666666666663</ele><time>2026-05-01T13:23:48.972Z</time></trkpt><trkpt lat="43.0659217" lon="11.42127"><ele>492.0</ele><time>2026-05-01T13:23:49.972Z</time></trkpt><trkpt lat="43.065815" lon="11.421475"><ele>490.5</ele><time>2026-05-01T13:23:50.972Z</time></trkpt><trkpt lat="43.0657233" lon="11.42165"><ele>489.0</ele><time>2026-05-01T13:23:51.972Z</time></trkpt><trkpt lat="43.0656333" lon="11.421795"><ele>487.5</ele><time>2026-05-01T13:23:52.973Z</time></trkpt><trkpt lat="43.06551" lon="11.4219183"><ele>486.0</ele><time>2026-05-01T13:23:53.973Z</time></trkpt><trkpt lat="43.0653817" lon="11.422035"><ele>486.0</ele><time>2026-05-01T13:23:54.972Z</time></trkpt><trkpt lat="43.0652667" lon="11.42213"><ele>486.0</ele><time>2026-05-01T13:23:55.972Z</time></trkpt><trkpt lat="43.0651483" lon="11.4221967"><ele>486.0</ele><time>2026-05-01T13:23:56.972Z</time></trkpt><trkpt lat="43.065005" lon="11.4222283"><ele>486.0</ele><time>2026-05-01T13:23:57.973Z</time></trkpt><trkpt lat="43.0648483" lon="11.4222433"><ele>486.0</ele><time>2026-05-01T13:23:58.972Z</time></trkpt><trkpt lat="43.064685" lon="11.422245"><ele>486.0</ele><time>2026-05-01T13:23:59.973Z</time></trkpt><trkpt lat="43.0645267" lon="11.4222183"><ele>486.0</ele><time>2026-05-01T13:24:00.973Z</time></trkpt><trkpt lat="43.0643667" lon="11.4221633"><ele>484.25</ele><time>2026-05-01T13:24:01.973Z</time></trkpt><trkpt lat="43.0642217" lon="11.42209"><ele>482.5</ele><time>2026-05-01T13:24:02.973Z</time></trkpt><trkpt lat="43.064105" lon="11.4220383"><ele>480.75</ele><time>2026-05-01T13:24:03.971Z</time></trkpt><trkpt lat="43.063995" lon="11.422"><ele>479.0</ele><time>2026-05-01T13:24:04.972Z</time></trkpt><trkpt lat="43.0638667" lon="11.421995"><ele>477.6</ele><time>2026-05-01T13:24:05.972Z</time></trkpt><trkpt lat="43.06375" lon="11.4220117"><ele>476.2</ele><time>2026-05-01T13:24:06.971Z</time></trkpt><trkpt lat="43.0636517" lon="11.4220333"><ele>474.80000000000007</ele><time>2026-05-01T13:24:07.972Z</time></trkpt><trkpt lat="43.0635817" lon="11.422065"><ele>473.40000000000003</ele><time>2026-05-01T13:24:08.971Z</time></trkpt><trkpt lat="43.0634917" lon="11.4221867"><ele>472.0</ele><time>2026-05-01T13:24:10.972Z</time></trkpt><trkpt lat="43.063485" lon="11.4222833"><ele>472.00000000000006</ele><time>2026-05-01T13:24:11.971Z</time></trkpt><trkpt lat="43.0634933" lon="11.4223867"><ele>472.0</ele><time>2026-05-01T13:24:12.972Z</time></trkpt><trkpt lat="43.0635183" lon="11.422495"><ele>472.0</ele><time>2026-05-01T13:24:13.971Z</time></trkpt><trkpt lat="43.0635433" lon="11.4226033"><ele>472.0</ele><time>2026-05-01T13:24:14.972Z</time></trkpt><trkpt lat="43.0635583" lon="11.4227133"><ele>472.00000000000006</ele><time>2026-05-01T13:24:15.972Z</time></trkpt><trkpt lat="43.0635617" lon="11.422825"><ele>472.0</ele><time>2026-05-01T13:24:16.972Z</time></trkpt><trkpt lat="43.0635483" lon="11.422945"><ele>471.40000000000003</ele><time>2026-05-01T13:24:17.971Z</time></trkpt><trkpt lat="43.0635033" lon="11.4230683"><ele>470.80000000000007</ele><time>2026-05-01T13:24:18.972Z</time></trkpt><trkpt lat="43.0634467" lon="11.4231833"><ele>470.2</ele><time>2026-05-01T13:24:19.971Z</time></trkpt><trkpt lat="43.0633933" lon="11.4233033"><ele>469.6</ele><time>2026-05-01T13:24:20.971Z</time></trkpt><trkpt lat="43.0633583" lon="11.4234367"><ele>469.0</ele><time>2026-05-01T13:24:21.971Z</time></trkpt><trkpt lat="43.0633467" lon="11.4235667"><ele>469.0</ele><time>2026-05-01T13:24:22.971Z</time></trkpt><trkpt lat="43.063345" lon="11.4236967"><ele>469.0</ele><time>2026-05-01T13:24:23.972Z</time></trkpt><trkpt lat="43.0633683" lon="11.42383"><ele>469.0</ele><time>2026-05-01T13:24:24.971Z</time></trkpt><trkpt lat="43.0633867" lon="11.4239633"><ele>469.0</ele><time>2026-05-01T13:24:25.971Z</time></trkpt><trkpt lat="43.0633883" lon="11.4240967"><ele>469.0</ele><time>2026-05-01T13:24:26.971Z</time></trkpt><trkpt lat="43.0633667" lon="11.424245"><ele>468.0</ele><time>2026-05-01T13:24:27.971Z</time></trkpt><trkpt lat="43.0633167" lon="11.42441"><ele>467.0</ele><time>2026-05-01T13:24:28.972Z</time></trkpt><trkpt lat="43.0632783" lon="11.4245983"><ele>466.0</ele><time>2026-05-01T13:24:29.971Z</time></trkpt><trkpt lat="43.06325" lon="11.4247833"><ele>465.0</ele><time>2026-05-01T13:24:30.972Z</time></trkpt><trkpt lat="43.0632183" lon="11.4249567"><ele>465.25</ele><time>2026-05-01T13:24:31.972Z</time></trkpt><trkpt lat="43.0631667" lon="11.4251283"><ele>465.5</ele><time>2026-05-01T13:24:32.972Z</time></trkpt><trkpt lat="43.0630883" lon="11.4252983"><ele>465.75</ele><time>2026-05-01T13:24:33.971Z</time></trkpt><trkpt lat="43.0630017" lon="11.4254633"><ele>466.0</ele><time>2026-05-01T13:24:34.971Z</time></trkpt><trkpt lat="43.0629117" lon="11.42561"><ele>466.0</ele><time>2026-05-01T13:24:35.972Z</time></trkpt><trkpt lat="43.06286" lon="11.4257683"><ele>466.0</ele><time>2026-05-01T13:24:36.971Z</time></trkpt><trkpt lat="43.06284" lon="11.4259583"><ele>466.0</ele><time>2026-05-01T13:24:37.971Z</time></trkpt><trkpt lat="43.0628317" lon="11.4261633"><ele>466.0</ele><time>2026-05-01T13:24:38.972Z</time></trkpt><trkpt lat="43.06284" lon="11.426385"><ele>467.0</ele><time>2026-05-01T13:24:39.971Z</time></trkpt><trkpt lat="43.0628617" lon="11.4265917"><ele>468.0</ele><time>2026-05-01T13:24:40.972Z</time></trkpt><trkpt lat="43.062885" lon="11.4267883"><ele>469.0</ele><time>2026-05-01T13:24:41.971Z</time></trkpt><trkpt lat="43.0629" lon="11.4269533"><ele>470.0</ele><time>2026-05-01T13:24:42.971Z</time></trkpt><trkpt lat="43.0628783" lon="11.42709"><ele>470.0</ele><time>2026-05-01T13:24:43.972Z</time></trkpt><trkpt lat="43.0628317" lon="11.42721"><ele>470.0</ele><time>2026-05-01T13:24:44.971Z</time></trkpt><trkpt lat="43.0627633" lon="11.4273133"><ele>470.0</ele><time>2026-05-01T13:24:45.971Z</time></trkpt><trkpt lat="43.06267" lon="11.4273917"><ele>470.0</ele><time>2026-05-01T13:24:46.971Z</time></trkpt><trkpt lat="43.0625567" lon="11.42745"><ele>470.0</ele><time>2026-05-01T13:24:47.971Z</time></trkpt><trkpt lat="43.0624333" lon="11.4275"><ele>470.0</ele><time>2026-05-01T13:24:48.971Z</time></trkpt><trkpt lat="43.0623067" lon="11.4275517"><ele>470.0</ele><time>2026-05-01T13:24:49.971Z</time></trkpt><trkpt lat="43.0621783" lon="11.42759"><ele>470.0</ele><time>2026-05-01T13:24:50.972Z</time></trkpt><trkpt lat="43.062055" lon="11.4276183"><ele>470.0</ele><time>2026-05-01T13:24:51.971Z</time></trkpt><trkpt lat="43.0619417" lon="11.4276167"><ele>470.0</ele><time>2026-05-01T13:24:52.971Z</time></trkpt><trkpt lat="43.0618233" lon="11.4275767"><ele>470.0</ele><time>2026-05-01T13:24:53.971Z</time></trkpt><trkpt lat="43.0616933" lon="11.427495"><ele>470.0</ele><time>2026-05-01T13:24:54.972Z</time></trkpt><trkpt lat="43.06157" lon="11.4274183"><ele>470.0</ele><time>2026-05-01T13:24:55.971Z</time></trkpt><trkpt lat="43.0614483" lon="11.4273767"><ele>470.25</ele><time>2026-05-01T13:24:56.971Z</time></trkpt><trkpt lat="43.0613133" lon="11.42739"><ele>470.5</ele><time>2026-05-01T13:24:57.971Z</time></trkpt><trkpt lat="43.061165" lon="11.4274333"><ele>470.75</ele><time>2026-05-01T13:24:58.972Z</time></trkpt><trkpt lat="43.061035" lon="11.42748"><ele>471.0</ele><time>2026-05-01T13:24:59.971Z</time></trkpt><trkpt lat="43.0609133" lon="11.4275083"><ele>471.0</ele><time>2026-05-01T13:25:00.971Z</time></trkpt><trkpt lat="43.060805" lon="11.4274917"><ele>471.0</ele><time>2026-05-01T13:25:01.971Z</time></trkpt><trkpt lat="43.06069" lon="11.4274283"><ele>471.0</ele><time>2026-05-01T13:25:02.971Z</time></trkpt><trkpt lat="43.060575" lon="11.4273517"><ele>471.0</ele><time>2026-05-01T13:25:03.972Z</time></trkpt><trkpt lat="43.0604867" lon="11.4272983"><ele>472.3333333333333</ele><time>2026-05-01T13:25:04.972Z</time></trkpt><trkpt lat="43.0604167" lon="11.4272783"><ele>473.66666666666663</ele><time>2026-05-01T13:25:05.971Z</time></trkpt><trkpt lat="43.0603517" lon="11.4273"><ele>475.0</ele><time>2026-05-01T13:25:06.971Z</time></trkpt><trkpt lat="43.0602817" lon="11.42744"><ele>476.3333333333333</ele><time>2026-05-01T13:25:08.972Z</time></trkpt><trkpt lat="43.0602683" lon="11.4275633"><ele>477.66666666666663</ele><time>2026-05-01T13:25:09.971Z</time></trkpt><trkpt lat="43.060235" lon="11.4276817"><ele>479.0</ele><time>2026-05-01T13:25:10.971Z</time></trkpt><trkpt lat="43.0601833" lon="11.4277683"><ele>479.0</ele><time>2026-05-01T13:25:11.971Z</time></trkpt><trkpt lat="43.0600967" lon="11.427835"><ele>479.0</ele><time>2026-05-01T13:25:12.971Z</time></trkpt><trkpt lat="43.059995" lon="11.4278883"><ele>479.0</ele><time>2026-05-01T13:25:13.971Z</time></trkpt><trkpt lat="43.059895" lon="11.4279133"><ele>479.0</ele><time>2026-05-01T13:25:14.971Z</time></trkpt><trkpt lat="43.0598117" lon="11.4279"><ele>479.0</ele><time>2026-05-01T13:25:15.972Z</time></trkpt><trkpt lat="43.0597217" lon="11.4278333"><ele>480.25</ele><time>2026-05-01T13:25:16.971Z</time></trkpt><trkpt lat="43.05964" lon="11.4277317"><ele>481.5</ele><time>2026-05-01T13:25:17.972Z</time></trkpt><trkpt lat="43.0595667" lon="11.4276"><ele>482.75</ele><time>2026-05-01T13:25:18.971Z</time></trkpt><trkpt lat="43.0594817" lon="11.4274667"><ele>484.0</ele><time>2026-05-01T13:25:19.972Z</time></trkpt><trkpt lat="43.0594" lon="11.4273717"><ele>484.00000000000006</ele><time>2026-05-01T13:25:20.971Z</time></trkpt><trkpt lat="43.0593183" lon="11.4273033"><ele>484.0</ele><time>2026-05-01T13:25:21.971Z</time></trkpt><trkpt lat="43.05923" lon="11.4272767"><ele>484.0</ele><time>2026-05-01T13:25:22.971Z</time></trkpt><trkpt lat="43.0591533" lon="11.42729"><ele>484.0</ele><time>2026-05-01T13:25:23.972Z</time></trkpt><trkpt lat="43.0590867" lon="11.4273383"><ele>484.00000000000006</ele><time>2026-05-01T13:25:24.972Z</time></trkpt><trkpt lat="43.0590317" lon="11.427405"><ele>484.0</ele><time>2026-05-01T13:25:25.971Z</time></trkpt><trkpt lat="43.0590033" lon="11.42749"><ele>483.0</ele><time>2026-05-01T13:25:26.971Z</time></trkpt><trkpt lat="43.059005" lon="11.4276"><ele>482.0</ele><time>2026-05-01T13:25:27.971Z</time></trkpt><trkpt lat="43.0590133" lon="11.4276967"><ele>481.0</ele><time>2026-05-01T13:25:28.971Z</time></trkpt><trkpt lat="43.0590467" lon="11.427825"><ele>480.0</ele><time>2026-05-01T13:25:29.971Z</time></trkpt><trkpt lat="43.059105" lon="11.4279883"><ele>479.0</ele><time>2026-05-01T13:25:30.971Z</time></trkpt><trkpt lat="43.059155" lon="11.4281383"><ele>478.99999999999994</ele><time>2026-05-01T13:25:31.972Z</time></trkpt><trkpt lat="43.05917" lon="11.42826"><ele>479.0</ele><time>2026-05-01T13:25:32.971Z</time></trkpt><trkpt lat="43.0591467" lon="11.42835"><ele>479.0</ele><time>2026-05-01T13:25:33.972Z</time></trkpt><trkpt lat="43.0590917" lon="11.4284067"><ele>479.0</ele><time>2026-05-01T13:25:34.971Z</time></trkpt><trkpt lat="43.0590167" lon="11.42844"><ele>478.99999999999994</ele><time>2026-05-01T13:25:35.972Z</time></trkpt><trkpt lat="43.0589233" lon="11.4284633"><ele>479.0</ele><time>2026-05-01T13:25:36.971Z</time></trkpt><trkpt lat="43.0588367" lon="11.4285283"><ele>480.75</ele><time>2026-05-01T13:25:37.972Z</time></trkpt><trkpt lat="43.0587433" lon="11.4286333"><ele>482.5</ele><time>2026-05-01T13:25:38.971Z</time></trkpt><trkpt lat="43.0586583" lon="11.4287783"><ele>484.25</ele><time>2026-05-01T13:25:39.971Z</time></trkpt><trkpt lat="43.0585767" lon="11.428955"><ele>486.0</ele><time>2026-05-01T13:25:40.971Z</time></trkpt><trkpt lat="43.0585" lon="11.4291567"><ele>486.0</ele><time>2026-05-01T13:25:41.971Z</time></trkpt><trkpt lat="43.0584317" lon="11.42938"><ele>486.0</ele><time>2026-05-01T13:25:42.971Z</time></trkpt><trkpt lat="43.058375" lon="11.4296167"><ele>486.0</ele><time>2026-05-01T13:25:43.971Z</time></trkpt><trkpt lat="43.058335" lon="11.4298383"><ele>486.0</ele><time>2026-05-01T13:25:44.971Z</time></trkpt><trkpt lat="43.0583017" lon="11.430025"><ele>486.0</ele><time>2026-05-01T13:25:45.971Z</time></trkpt><trkpt lat="43.0582867" lon="11.4301983"><ele>486.0</ele><time>2026-05-01T13:25:46.972Z</time></trkpt><trkpt lat="43.05828" lon="11.4303583"><ele>486.0</ele><time>2026-05-01T13:25:47.971Z</time></trkpt><trkpt lat="43.0582867" lon="11.430535"><ele>485.8</ele><time>2026-05-01T13:25:48.972Z</time></trkpt><trkpt lat="43.0582867" lon="11.4306967"><ele>485.6</ele><time>2026-05-01T13:25:49.971Z</time></trkpt><trkpt lat="43.05827" lon="11.43083"><ele>485.4</ele><time>2026-05-01T13:25:50.972Z</time></trkpt><trkpt lat="43.0582283" lon="11.4309417"><ele>485.2</ele><time>2026-05-01T13:25:51.972Z</time></trkpt><trkpt lat="43.0581533" lon="11.4310217"><ele>485.0</ele><time>2026-05-01T13:25:52.972Z</time></trkpt><trkpt lat="43.0580333" lon="11.431095"><ele>486.0</ele><time>2026-05-01T13:25:53.971Z</time></trkpt><trkpt lat="43.0578917" lon="11.4311767"><ele>487.0</ele><time>2026-05-01T13:25:54.972Z</time></trkpt><trkpt lat="43.05775" lon="11.43126"><ele>488.0</ele><time>2026-05-01T13:25:55.971Z</time></trkpt><trkpt lat="43.057605" lon="11.4313617"><ele>488.0</ele><time>2026-05-01T13:25:56.972Z</time></trkpt><trkpt lat="43.0574817" lon="11.4314817"><ele>488.0</ele><time>2026-05-01T13:25:57.972Z</time></trkpt><trkpt lat="43.057375" lon="11.43162"><ele>488.0</ele><time>2026-05-01T13:25:58.971Z</time></trkpt><trkpt lat="43.0572733" lon="11.4317567"><ele>488.0</ele><time>2026-05-01T13:25:59.972Z</time></trkpt><trkpt lat="43.0571817" lon="11.431915"><ele>488.25</ele><time>2026-05-01T13:26:00.971Z</time></trkpt><trkpt lat="43.0571067" lon="11.4320683"><ele>488.5</ele><time>2026-05-01T13:26:01.971Z</time></trkpt><trkpt lat="43.0570317" lon="11.4322133"><ele>488.75</ele><time>2026-05-01T13:26:02.972Z</time></trkpt><trkpt lat="43.05696" lon="11.43235"><ele>489.0</ele><time>2026-05-01T13:26:03.972Z</time></trkpt><trkpt lat="43.0568817" lon="11.4324833"><ele>489.25</ele><time>2026-05-01T13:26:04.971Z</time></trkpt><trkpt lat="43.0567933" lon="11.4326183"><ele>489.5</ele><time>2026-05-01T13:26:05.971Z</time></trkpt><trkpt lat="43.0567017" lon="11.4327567"><ele>489.75</ele><time>2026-05-01T13:26:06.972Z</time></trkpt><trkpt lat="43.0566167" lon="11.4328833"><ele>490.0</ele><time>2026-05-01T13:26:07.971Z</time></trkpt><trkpt lat="43.0565383" lon="11.432985"><ele>491.4</ele><time>2026-05-01T13:26:08.971Z</time></trkpt><trkpt lat="43.0564633" lon="11.43308"><ele>492.8</ele><time>2026-05-01T13:26:09.971Z</time></trkpt><trkpt lat="43.0563833" lon="11.4331467"><ele>494.20000000000005</ele><time>2026-05-01T13:26:10.971Z</time></trkpt><trkpt lat="43.0562883" lon="11.4332083"><ele>495.6</ele><time>2026-05-01T13:26:11.971Z</time></trkpt><trkpt lat="43.0561867" lon="11.433265"><ele>497.0</ele><time>2026-05-01T13:26:12.971Z</time></trkpt><trkpt lat="43.0560717" lon="11.4333083"><ele>497.0</ele><time>2026-05-01T13:26:13.972Z</time></trkpt><trkpt lat="43.0559517" lon="11.4333517"><ele>497.0</ele><time>2026-05-01T13:26:14.971Z</time></trkpt><trkpt lat="43.055835" lon="11.4333983"><ele>497.0</ele><time>2026-05-01T13:26:15.972Z</time></trkpt><trkpt lat="43.0557333" lon="11.4334417"><ele>497.0</ele><time>2026-05-01T13:26:16.972Z</time></trkpt><trkpt lat="43.0556367" lon="11.433495"><ele>496.75</ele><time>2026-05-01T13:26:17.972Z</time></trkpt><trkpt lat="43.055535" lon="11.4335567"><ele>496.5</ele><time>2026-05-01T13:26:18.972Z</time></trkpt><trkpt lat="43.05543" lon="11.4336117"><ele>496.25</ele><time>2026-05-01T13:26:19.972Z</time></trkpt><trkpt lat="43.055325" lon="11.43367"><ele>496.0</ele><time>2026-05-01T13:26:20.971Z</time></trkpt><trkpt lat="43.05521" lon="11.4337083"><ele>496.0</ele><time>2026-05-01T13:26:21.972Z</time></trkpt><trkpt lat="43.05509" lon="11.4337417"><ele>496.0</ele><time>2026-05-01T13:26:22.971Z</time></trkpt><trkpt lat="43.0549783" lon="11.43379"><ele>496.0</ele><time>2026-05-01T13:26:23.971Z</time></trkpt><trkpt lat="43.054865" lon="11.433855"><ele>496.0</ele><time>2026-05-01T13:26:24.972Z</time></trkpt><trkpt lat="43.05476" lon="11.4339217"><ele>493.5</ele><time>2026-05-01T13:26:25.971Z</time></trkpt><trkpt lat="43.05465" lon="11.433995"><ele>491.0</ele><time>2026-05-01T13:26:26.971Z</time></trkpt><trkpt lat="43.0545517" lon="11.4340533"><ele>488.5</ele><time>2026-05-01T13:26:27.972Z</time></trkpt><trkpt lat="43.0544417" lon="11.4341183"><ele>486.0</ele><time>2026-05-01T13:26:28.972Z</time></trkpt><trkpt lat="43.05433" lon="11.43418"><ele>486.0</ele><time>2026-05-01T13:26:29.972Z</time></trkpt><trkpt lat="43.0542233" lon="11.4342283"><ele>486.0</ele><time>2026-05-01T13:26:30.971Z</time></trkpt><trkpt lat="43.05411" lon="11.4342567"><ele>486.0</ele><time>2026-05-01T13:26:31.971Z</time></trkpt><trkpt lat="43.0539983" lon="11.4342817"><ele>486.0</ele><time>2026-05-01T13:26:32.971Z</time></trkpt><trkpt lat="43.053885" lon="11.4343133"><ele>485.6</ele><time>2026-05-01T13:26:33.971Z</time></trkpt><trkpt lat="43.05378" lon="11.43435"><ele>485.20000000000005</ele><time>2026-05-01T13:26:34.971Z</time></trkpt><trkpt lat="43.0536767" lon="11.4344117"><ele>484.79999999999995</ele><time>2026-05-01T13:26:35.971Z</time></trkpt><trkpt lat="43.0535883" lon="11.4344917"><ele>484.4</ele><time>2026-05-01T13:26:36.971Z</time></trkpt><trkpt lat="43.0535033" lon="11.4345917"><ele>484.0</ele><time>2026-05-01T13:26:37.971Z</time></trkpt><trkpt lat="43.0534267" lon="11.434695"><ele>482.25</ele><time>2026-05-01T13:26:38.971Z</time></trkpt><trkpt lat="43.0533583" lon="11.434815"><ele>480.5</ele><time>2026-05-01T13:26:39.971Z</time></trkpt><trkpt lat="43.0532983" lon="11.4349567"><ele>478.75</ele><time>2026-05-01T13:26:40.972Z</time></trkpt><trkpt lat="43.0532433" lon="11.4351117"><ele>477.0</ele><time>2026-05-01T13:26:41.971Z</time></trkpt><trkpt lat="43.0531933" lon="11.43527"><ele>477.0</ele><time>2026-05-01T13:26:42.971Z</time></trkpt><trkpt lat="43.05315" lon="11.43544"><ele>477.0</ele><time>2026-05-01T13:26:43.971Z</time></trkpt><trkpt lat="43.0531183" lon="11.4356067"><ele>477.0</ele><time>2026-05-01T13:26:44.971Z</time></trkpt><trkpt lat="43.0530933" lon="11.4357817"><ele>477.0</ele><time>2026-05-01T13:26:45.972Z</time></trkpt><trkpt lat="43.0530733" lon="11.435955"><ele>475.20000000000005</ele><time>2026-05-01T13:26:46.971Z</time></trkpt><trkpt lat="43.053045" lon="11.43611"><ele>473.40000000000003</ele><time>2026-05-01T13:26:47.972Z</time></trkpt><trkpt lat="43.05302" lon="11.43625"><ele>471.59999999999997</ele><time>2026-05-01T13:26:48.971Z</time></trkpt><trkpt lat="43.0529883" lon="11.4363833"><ele>469.79999999999995</ele><time>2026-05-01T13:26:49.972Z</time></trkpt><trkpt lat="43.0529467" lon="11.4364983"><ele>468.0</ele><time>2026-05-01T13:26:50.972Z</time></trkpt><trkpt lat="43.05288" lon="11.4366067"><ele>468.0</ele><time>2026-05-01T13:26:51.972Z</time></trkpt><trkpt lat="43.0528167" lon="11.43668"><ele>468.0</ele><time>2026-05-01T13:26:52.972Z</time></trkpt><trkpt lat="43.05276" lon="11.4367333"><ele>468.0</ele><time>2026-05-01T13:26:53.972Z</time></trkpt><trkpt lat="43.052695" lon="11.43678"><ele>468.0</ele><time>2026-05-01T13:26:54.971Z</time></trkpt><trkpt lat="43.052615" lon="11.4368117"><ele>468.0</ele><time>2026-05-01T13:26:55.971Z</time></trkpt><trkpt lat="43.05254" lon="11.436825"><ele>468.0</ele><time>2026-05-01T13:26:56.971Z</time></trkpt><trkpt lat="43.0524733" lon="11.436815"><ele>468.0</ele><time>2026-05-01T13:26:57.971Z</time></trkpt><trkpt lat="43.0524033" lon="11.4367733"><ele>467.99999999999994</ele><time>2026-05-01T13:26:59.971Z</time></trkpt><trkpt lat="43.052505" lon="11.4368217"><ele>467.99999999999994</ele><time>2026-05-01T13:45:11.97Z</time></trkpt><trkpt lat="43.0526283" lon="11.4367967"><ele>468.0</ele><time>2026-05-01T13:45:13.97Z</time></trkpt><trkpt lat="43.0527" lon="11.43676"><ele>468.0</ele><time>2026-05-01T13:45:14.971Z</time></trkpt><trkpt lat="43.052765" lon="11.4367183"><ele>468.0</ele><time>2026-05-01T13:45:15.97Z</time></trkpt><trkpt lat="43.0528183" lon="11.436665"><ele>468.0</ele><time>2026-05-01T13:45:16.97Z</time></trkpt><trkpt lat="43.0528683" lon="11.4366017"><ele>468.0</ele><time>2026-05-01T13:45:17.97Z</time></trkpt><trkpt lat="43.0529217" lon="11.4365167"><ele>468.0</ele><time>2026-05-01T13:45:18.971Z</time></trkpt><trkpt lat="43.0529683" lon="11.436415"><ele>468.0</ele><time>2026-05-01T13:45:19.97Z</time></trkpt><trkpt lat="43.0530083" lon="11.4362867"><ele>468.0</ele><time>2026-05-01T13:45:20.971Z</time></trkpt><trkpt lat="43.05303" lon="11.4361567"><ele>467.4</ele><time>2026-05-01T13:45:21.97Z</time></trkpt><trkpt lat="43.0530567" lon="11.4360233"><ele>466.79999999999995</ele><time>2026-05-01T13:45:22.97Z</time></trkpt><trkpt lat="43.0530767" lon="11.4358667"><ele>466.2</ele><time>2026-05-01T13:45:23.971Z</time></trkpt><trkpt lat="43.0530967" lon="11.4357167"><ele>465.6</ele><time>2026-05-01T13:45:24.97Z</time></trkpt><trkpt lat="43.0531167" lon="11.4355567"><ele>465.0</ele><time>2026-05-01T13:45:25.971Z</time></trkpt><trkpt lat="43.0531433" lon="11.4354"><ele>467.2</ele><time>2026-05-01T13:45:26.97Z</time></trkpt><trkpt lat="43.0531767" lon="11.4352583"><ele>469.4</ele><time>2026-05-01T13:45:27.97Z</time></trkpt><trkpt lat="43.0532183" lon="11.43512"><ele>471.6</ele><time>2026-05-01T13:45:28.97Z</time></trkpt><trkpt lat="43.05327" lon="11.4349833"><ele>473.8</ele><time>2026-05-01T13:45:29.971Z</time></trkpt><trkpt lat="43.0533267" lon="11.43485"><ele>476.0</ele><time>2026-05-01T13:45:30.971Z</time></trkpt><trkpt lat="43.053395" lon="11.4347283"><ele>478.0</ele><time>2026-05-01T13:45:31.97Z</time></trkpt><trkpt lat="43.0534633" lon="11.4346083"><ele>480.0</ele><time>2026-05-01T13:45:32.97Z</time></trkpt><trkpt lat="43.0535417" lon="11.434505"><ele>482.0</ele><time>2026-05-01T13:45:33.97Z</time></trkpt><trkpt lat="43.0536383" lon="11.4344133"><ele>484.0</ele><time>2026-05-01T13:45:34.97Z</time></trkpt><trkpt lat="43.0537383" lon="11.43434"><ele>484.0</ele><time>2026-05-01T13:45:35.971Z</time></trkpt><trkpt lat="43.053845" lon="11.4343017"><ele>484.0</ele><time>2026-05-01T13:45:36.97Z</time></trkpt><trkpt lat="43.053965" lon="11.434275"><ele>484.0</ele><time>2026-05-01T13:45:37.97Z</time></trkpt><trkpt lat="43.0540933" lon="11.4342533"><ele>484.0</ele><time>2026-05-01T13:45:38.97Z</time></trkpt><trkpt lat="43.0542283" lon="11.434215"><ele>484.5</ele><time>2026-05-01T13:45:39.971Z</time></trkpt><trkpt lat="43.0543567" lon="11.4341617"><ele>485.0</ele><time>2026-05-01T13:45:40.971Z</time></trkpt><trkpt lat="43.0544867" lon="11.4340933"><ele>485.5</ele><time>2026-05-01T13:45:41.971Z</time></trkpt><trkpt lat="43.0546217" lon="11.4340267"><ele>486.0</ele><time>2026-05-01T13:45:42.971Z</time></trkpt><trkpt lat="43.05476" lon="11.4339483"><ele>486.0</ele><time>2026-05-01T13:45:43.971Z</time></trkpt><trkpt lat="43.0548967" lon="11.4338617"><ele>486.0</ele><time>2026-05-01T13:45:44.97Z</time></trkpt><trkpt lat="43.0550317" lon="11.4337767"><ele>486.0</ele><time>2026-05-01T13:45:45.97Z</time></trkpt><trkpt lat="43.05517" lon="11.4337233"><ele>486.0</ele><time>2026-05-01T13:45:46.971Z</time></trkpt><trkpt lat="43.055305" lon="11.433675"><ele>488.0</ele><time>2026-05-01T13:45:47.97Z</time></trkpt><trkpt lat="43.05543" lon="11.4336233"><ele>490.0</ele><time>2026-05-01T13:45:48.97Z</time></trkpt><trkpt lat="43.0555333" lon="11.4335733"><ele>492.0</ele><time>2026-05-01T13:45:49.97Z</time></trkpt><trkpt lat="43.0556233" lon="11.4335183"><ele>494.0</ele><time>2026-05-01T13:45:50.971Z</time></trkpt><trkpt lat="43.0556983" lon="11.4334667"><ele>496.0</ele><time>2026-05-01T13:45:51.971Z</time></trkpt><trkpt lat="43.0557783" lon="11.4334233"><ele>496.25</ele><time>2026-05-01T13:45:52.97Z</time></trkpt><trkpt lat="43.0558717" lon="11.433385"><ele>496.5</ele><time>2026-05-01T13:45:53.971Z</time></trkpt><trkpt lat="43.0559883" lon="11.4333517"><ele>496.75</ele><time>2026-05-01T13:45:54.97Z</time></trkpt><trkpt lat="43.0561217" lon="11.4332967"><ele>497.0</ele><time>2026-05-01T13:45:55.97Z</time></trkpt><trkpt lat="43.05626" lon="11.433235"><ele>497.0</ele><time>2026-05-01T13:45:56.971Z</time></trkpt><trkpt lat="43.05637" lon="11.4331767"><ele>497.00000000000006</ele><time>2026-05-01T13:45:57.97Z</time></trkpt><trkpt lat="43.0564583" lon="11.433115"><ele>497.00000000000006</ele><time>2026-05-01T13:45:58.971Z</time></trkpt><trkpt lat="43.0565317" lon="11.4330433"><ele>497.0</ele><time>2026-05-01T13:45:59.97Z</time></trkpt><trkpt lat="43.0565917" lon="11.4329483"><ele>497.0</ele><time>2026-05-01T13:46:00.97Z</time></trkpt><trkpt lat="43.0566517" lon="11.4328467"><ele>496.0</ele><time>2026-05-01T13:46:01.971Z</time></trkpt><trkpt lat="43.0567133" lon="11.4327433"><ele>495.00000000000006</ele><time>2026-05-01T13:46:02.97Z</time></trkpt><trkpt lat="43.0567717" lon="11.4326517"><ele>494.00000000000006</ele><time>2026-05-01T13:46:03.97Z</time></trkpt><trkpt lat="43.056835" lon="11.4325367"><ele>493.0</ele><time>2026-05-01T13:46:05.97Z</time></trkpt><trkpt lat="43.0568167" lon="11.43243"><ele>492.0</ele><time>2026-05-01T13:46:07.971Z</time></trkpt><trkpt lat="43.0567433" lon="11.4323033"><ele>492.0</ele><time>2026-05-01T13:46:09.97Z</time></trkpt><trkpt lat="43.0566833" lon="11.4322467"><ele>492.0</ele><time>2026-05-01T13:46:10.97Z</time></trkpt><trkpt lat="43.0566167" lon="11.4321883"><ele>492.0</ele><time>2026-05-01T13:46:11.97Z</time></trkpt><trkpt lat="43.0565467" lon="11.43214"><ele>492.0</ele><time>2026-05-01T13:46:12.97Z</time></trkpt><trkpt lat="43.0564717" lon="11.4320833"><ele>492.0</ele><time>2026-05-01T13:46:13.97Z</time></trkpt><trkpt lat="43.056405" lon="11.432035"><ele>492.0</ele><time>2026-05-01T13:46:14.97Z</time></trkpt><trkpt lat="43.0563233" lon="11.4319933"><ele>490.20000000000005</ele><time>2026-05-01T13:46:15.971Z</time></trkpt><trkpt lat="43.0562317" lon="11.4319517"><ele>488.40000000000003</ele><time>2026-05-01T13:46:16.97Z</time></trkpt><trkpt lat="43.056145" lon="11.4319167"><ele>486.59999999999997</ele><time>2026-05-01T13:46:17.971Z</time></trkpt><trkpt lat="43.0560533" lon="11.43188"><ele>484.79999999999995</ele><time>2026-05-01T13:46:18.97Z</time></trkpt><trkpt lat="43.0559633" lon="11.4318533"><ele>483.0</ele><time>2026-05-01T13:46:19.97Z</time></trkpt><trkpt lat="43.0558583" lon="11.4318283"><ele>482.0</ele><time>2026-05-01T13:46:20.971Z</time></trkpt><trkpt lat="43.055755" lon="11.4318017"><ele>480.99999999999994</ele><time>2026-05-01T13:46:21.97Z</time></trkpt><trkpt lat="43.0556517" lon="11.43178"><ele>479.99999999999994</ele><time>2026-05-01T13:46:22.97Z</time></trkpt><trkpt lat="43.0555617" lon="11.4317633"><ele>479.0</ele><time>2026-05-01T13:46:23.97Z</time></trkpt><trkpt lat="43.0554733" lon="11.4317433"><ele>478.0</ele><time>2026-05-01T13:46:24.97Z</time></trkpt><trkpt lat="43.055395" lon="11.4316933"><ele>478.00000000000006</ele><time>2026-05-01T13:46:25.97Z</time></trkpt><trkpt lat="43.055325" lon="11.431635"><ele>478.0</ele><time>2026-05-01T13:46:26.971Z</time></trkpt><trkpt lat="43.05527" lon="11.4315633"><ele>478.0</ele><time>2026-05-01T13:46:27.97Z</time></trkpt><trkpt lat="43.05523" lon="11.4314717"><ele>478.0</ele><time>2026-05-01T13:46:28.97Z</time></trkpt><trkpt lat="43.0551767" lon="11.4313867"><ele>478.00000000000006</ele><time>2026-05-01T13:46:29.971Z</time></trkpt><trkpt lat="43.0551217" lon="11.43131"><ele>478.0</ele><time>2026-05-01T13:46:30.971Z</time></trkpt><trkpt lat="43.0550567" lon="11.4312267"><ele>476.0</ele><time>2026-05-01T13:46:31.97Z</time></trkpt><trkpt lat="43.0549883" lon="11.4311417"><ele>473.99999999999994</ele><time>2026-05-01T13:46:32.971Z</time></trkpt><trkpt lat="43.0549217" lon="11.4310483"><ele>471.99999999999994</ele><time>2026-05-01T13:46:33.97Z</time></trkpt><trkpt lat="43.0548567" lon="11.430975"><ele>470.0</ele><time>2026-05-01T13:46:34.97Z</time></trkpt><trkpt lat="43.0547683" lon="11.43093"><ele>468.0</ele><time>2026-05-01T13:46:35.97Z</time></trkpt><trkpt lat="43.0546717" lon="11.4309067"><ele>467.59999999999997</ele><time>2026-05-01T13:46:36.971Z</time></trkpt><trkpt lat="43.0545817" lon="11.4308917"><ele>467.19999999999993</ele><time>2026-05-01T13:46:37.971Z</time></trkpt><trkpt lat="43.0544883" lon="11.4308733"><ele>466.8</ele><time>2026-05-01T13:46:38.97Z</time></trkpt><trkpt lat="43.0544" lon="11.4308483"><ele>466.4</ele><time>2026-05-01T13:46:39.971Z</time></trkpt><trkpt lat="43.0543067" lon="11.43082"><ele>466.0</ele><time>2026-05-01T13:46:40.971Z</time></trkpt><trkpt lat="43.0542133" lon="11.4308"><ele>466.00000000000006</ele><time>2026-05-01T13:46:41.971Z</time></trkpt><trkpt lat="43.054125" lon="11.4307817"><ele>466.0</ele><time>2026-05-01T13:46:42.971Z</time></trkpt><trkpt lat="43.0540417" lon="11.43077"><ele>466.0</ele><time>2026-05-01T13:46:43.97Z</time></trkpt><trkpt lat="43.0539583" lon="11.43077"><ele>466.0</ele><time>2026-05-01T13:46:44.971Z</time></trkpt><trkpt lat="43.0538783" lon="11.43077"><ele>466.00000000000006</ele><time>2026-05-01T13:46:45.97Z</time></trkpt><trkpt lat="43.0537883" lon="11.43076"><ele>466.0</ele><time>2026-05-01T13:46:46.971Z</time></trkpt><trkpt lat="43.0537067" lon="11.4307567"><ele>464.6666666666667</ele><time>2026-05-01T13:46:47.971Z</time></trkpt><trkpt lat="43.053625" lon="11.4307433"><ele>463.33333333333337</ele><time>2026-05-01T13:46:48.97Z</time></trkpt><trkpt lat="43.053545" lon="11.4307133"><ele>462.0</ele><time>2026-05-01T13:46:49.971Z</time></trkpt><trkpt lat="43.0534633" lon="11.4306783"><ele>460.66666666666663</ele><time>2026-05-01T13:46:50.971Z</time></trkpt><trkpt lat="43.053375" lon="11.4306333"><ele>459.3333333333333</ele><time>2026-05-01T13:46:51.971Z</time></trkpt><trkpt lat="43.0532933" lon="11.4305917"><ele>458.0</ele><time>2026-05-01T13:46:52.971Z</time></trkpt><trkpt lat="43.0532" lon="11.4305467"><ele>455.0</ele><time>2026-05-01T13:46:53.97Z</time></trkpt><trkpt lat="43.05311" lon="11.4304967"><ele>452.0</ele><time>2026-05-01T13:46:54.97Z</time></trkpt><trkpt lat="43.05298" lon="11.4304283"><ele>449.0</ele><time>2026-05-01T13:46:55.97Z</time></trkpt><trkpt lat="43.0528283" lon="11.4303283"><ele>446.0</ele><time>2026-05-01T13:46:56.971Z</time></trkpt><trkpt lat="43.0526533" lon="11.4302083"><ele>446.0</ele><time>2026-05-01T13:46:57.97Z</time></trkpt><trkpt lat="43.0524667" lon="11.430095"><ele>446.0</ele><time>2026-05-01T13:46:58.97Z</time></trkpt><trkpt lat="43.0522817" lon="11.4299983"><ele>446.0</ele><time>2026-05-01T13:46:59.97Z</time></trkpt><trkpt lat="43.0520883" lon="11.4299133"><ele>441.3333333333333</ele><time>2026-05-01T13:47:00.971Z</time></trkpt><trkpt lat="43.0518917" lon="11.4298333"><ele>436.66666666666663</ele><time>2026-05-01T13:47:01.97Z</time></trkpt><trkpt lat="43.051715" lon="11.42976"><ele>432.0</ele><time>2026-05-01T13:47:02.97Z</time></trkpt><trkpt lat="43.0515633" lon="11.4296883"><ele>433.33333333333337</ele><time>2026-05-01T13:47:03.971Z</time></trkpt><trkpt lat="43.051425" lon="11.4296017"><ele>434.6666666666667</ele><time>2026-05-01T13:47:04.971Z</time></trkpt><trkpt lat="43.05127" lon="11.4295"><ele>436.0</ele><time>2026-05-01T13:47:05.971Z</time></trkpt><trkpt lat="43.0511283" lon="11.42937"><ele>436.0</ele><time>2026-05-01T13:47:06.97Z</time></trkpt><trkpt lat="43.0509983" lon="11.429245"><ele>436.0</ele><time>2026-05-01T13:47:07.97Z</time></trkpt><trkpt lat="43.0508817" lon="11.4291167"><ele>436.0</ele><time>2026-05-01T13:47:08.971Z</time></trkpt><trkpt lat="43.050785" lon="11.42902"><ele>436.0</ele><time>2026-05-01T13:47:09.971Z</time></trkpt><trkpt lat="43.0507033" lon="11.4289433"><ele>436.1666666666667</ele><time>2026-05-01T13:47:10.97Z</time></trkpt><trkpt lat="43.050645" lon="11.42888"><ele>436.33333333333337</ele><time>2026-05-01T13:47:11.97Z</time></trkpt><trkpt lat="43.0505833" lon="11.42883"><ele>436.5</ele><time>2026-05-01T13:47:12.97Z</time></trkpt><trkpt lat="43.050525" lon="11.42877"><ele>436.66666666666663</ele><time>2026-05-01T13:47:13.97Z</time></trkpt><trkpt lat="43.050465" lon="11.4287083"><ele>436.8333333333333</ele><time>2026-05-01T13:47:14.97Z</time></trkpt><trkpt lat="43.050405" lon="11.4286383"><ele>437.0</ele><time>2026-05-01T13:47:15.97Z</time></trkpt><trkpt lat="43.0503433" lon="11.42857"><ele>436.99999999999994</ele><time>2026-05-01T13:47:16.97Z</time></trkpt><trkpt lat="43.0502783" lon="11.4285017"><ele>437.0</ele><time>2026-05-01T13:47:17.97Z</time></trkpt><trkpt lat="43.0502117" lon="11.42844"><ele>437.0</ele><time>2026-05-01T13:47:18.971Z</time></trkpt><trkpt lat="43.0501383" lon="11.4283867"><ele>437.0</ele><time>2026-05-01T13:47:19.97Z</time></trkpt><trkpt lat="43.0500667" lon="11.428355"><ele>436.99999999999994</ele><time>2026-05-01T13:47:20.97Z</time></trkpt><trkpt lat="43.04999" lon="11.4283383"><ele>437.0</ele><time>2026-05-01T13:47:21.97Z</time></trkpt><trkpt lat="43.0499033" lon="11.4283133"><ele>438.0</ele><time>2026-05-01T13:47:22.971Z</time></trkpt><trkpt lat="43.0498167" lon="11.4282817"><ele>439.00000000000006</ele><time>2026-05-01T13:47:23.97Z</time></trkpt><trkpt lat="43.0497267" lon="11.4282133"><ele>440.00000000000006</ele><time>2026-05-01T13:47:24.97Z</time></trkpt><trkpt lat="43.0496517" lon="11.428125"><ele>441.0</ele><time>2026-05-01T13:47:25.971Z</time></trkpt><trkpt lat="43.04959" lon="11.4280367"><ele>442.0</ele><time>2026-05-01T13:47:26.97Z</time></trkpt><trkpt lat="43.04954" lon="11.4279583"><ele>439.6666666666667</ele><time>2026-05-01T13:47:27.971Z</time></trkpt><trkpt lat="43.0494733" lon="11.4278817"><ele>437.33333333333337</ele><time>2026-05-01T13:47:29.971Z</time></trkpt><trkpt lat="43.049395" lon="11.4278"><ele>435.0</ele><time>2026-05-01T13:48:01.971Z</time></trkpt><trkpt lat="43.049315" lon="11.427735"><ele>432.66666666666663</ele><time>2026-05-01T13:48:04.97Z</time></trkpt><trkpt lat="43.0492433" lon="11.4276917"><ele>430.3333333333333</ele><time>2026-05-01T13:48:06.97Z</time></trkpt><trkpt lat="43.0491733" lon="11.427635"><ele>428.0</ele><time>2026-05-01T13:48:08.97Z</time></trkpt><trkpt lat="43.0491" lon="11.4275833"><ele>427.79999999999995</ele><time>2026-05-01T13:48:10.97Z</time></trkpt><trkpt lat="43.0490133" lon="11.42751"><ele>427.59999999999997</ele><time>2026-05-01T13:48:12.97Z</time></trkpt><trkpt lat="43.0489183" lon="11.4274183"><ele>427.40000000000003</ele><time>2026-05-01T13:48:14.97Z</time></trkpt><trkpt lat="43.048835" lon="11.4273267"><ele>427.20000000000005</ele><time>2026-05-01T13:48:16.971Z</time></trkpt><trkpt lat="43.0487583" lon="11.4272217"><ele>427.0</ele><time>2026-05-01T13:48:18.971Z</time></trkpt><trkpt lat="43.0486933" lon="11.42709"><ele>425.20000000000005</ele><time>2026-05-01T13:48:20.97Z</time></trkpt><trkpt lat="43.0486383" lon="11.4270067"><ele>423.40000000000003</ele><time>2026-05-01T13:48:21.97Z</time></trkpt><trkpt lat="43.0485683" lon="11.426895"><ele>421.6</ele><time>2026-05-01T13:48:22.97Z</time></trkpt><trkpt lat="43.048485" lon="11.42677"><ele>419.79999999999995</ele><time>2026-05-01T13:48:23.97Z</time></trkpt><trkpt lat="43.0484" lon="11.4266467"><ele>418.0</ele><time>2026-05-01T13:48:24.97Z</time></trkpt><trkpt lat="43.048325" lon="11.42652"><ele>416.75</ele><time>2026-05-01T13:48:25.971Z</time></trkpt><trkpt lat="43.04826" lon="11.4263817"><ele>415.5</ele><time>2026-05-01T13:48:26.97Z</time></trkpt><trkpt lat="43.0482083" lon="11.4262267"><ele>414.25</ele><time>2026-05-01T13:48:27.97Z</time></trkpt><trkpt lat="43.0481567" lon="11.42609"><ele>413.0</ele><time>2026-05-01T13:48:28.97Z</time></trkpt><trkpt lat="43.0480917" lon="11.4259567"><ele>411.5</ele><time>2026-05-01T13:48:29.97Z</time></trkpt><trkpt lat="43.04803" lon="11.425815"><ele>410.0</ele><time>2026-05-01T13:48:30.971Z</time></trkpt><trkpt lat="43.0479617" lon="11.4256767"><ele>408.5</ele><time>2026-05-01T13:48:31.97Z</time></trkpt><trkpt lat="43.047895" lon="11.42555"><ele>407.0</ele><time>2026-05-01T13:48:32.971Z</time></trkpt><trkpt lat="43.04781" lon="11.4254167"><ele>404.5</ele><time>2026-05-01T13:48:33.97Z</time></trkpt><trkpt lat="43.0477217" lon="11.4252867"><ele>402.0</ele><time>2026-05-01T13:48:34.97Z</time></trkpt><trkpt lat="43.0476367" lon="11.4251683"><ele>399.5</ele><time>2026-05-01T13:48:35.971Z</time></trkpt><trkpt lat="43.0475567" lon="11.4250517"><ele>397.0</ele><time>2026-05-01T13:48:36.97Z</time></trkpt><trkpt lat="43.047475" lon="11.4249333"><ele>396.25</ele><time>2026-05-01T13:48:37.97Z</time></trkpt><trkpt lat="43.0473967" lon="11.4248167"><ele>395.5</ele><time>2026-05-01T13:48:38.971Z</time></trkpt><trkpt lat="43.047305" lon="11.424725"><ele>394.75</ele><time>2026-05-01T13:48:39.97Z</time></trkpt><trkpt lat="43.0471967" lon="11.424655"><ele>394.0</ele><time>2026-05-01T13:48:40.971Z</time></trkpt><trkpt lat="43.0470967" lon="11.424575"><ele>392.75</ele><time>2026-05-01T13:48:41.97Z</time></trkpt><trkpt lat="43.0470017" lon="11.4244667"><ele>391.5</ele><time>2026-05-01T13:48:42.971Z</time></trkpt><trkpt lat="43.0469283" lon="11.4243433"><ele>390.25</ele><time>2026-05-01T13:48:43.971Z</time></trkpt><trkpt lat="43.04688" lon="11.4241917"><ele>389.0</ele><time>2026-05-01T13:48:44.97Z</time></trkpt><trkpt lat="43.046835" lon="11.4240267"><ele>389.0</ele><time>2026-05-01T13:48:45.971Z</time></trkpt><trkpt lat="43.046775" lon="11.4238617"><ele>389.0</ele><time>2026-05-01T13:48:46.97Z</time></trkpt><trkpt lat="43.046715" lon="11.4236783"><ele>389.0</ele><time>2026-05-01T13:48:47.97Z</time></trkpt><trkpt lat="43.0466483" lon="11.4234967"><ele>389.0</ele><time>2026-05-01T13:48:48.971Z</time></trkpt><trkpt lat="43.0465767" lon="11.4233167"><ele>388.5</ele><time>2026-05-01T13:48:49.97Z</time></trkpt><trkpt lat="43.0465083" lon="11.4231483"><ele>388.0</ele><time>2026-05-01T13:48:50.971Z</time></trkpt><trkpt lat="43.0464467" lon="11.423"><ele>387.5</ele><time>2026-05-01T13:48:51.97Z</time></trkpt><trkpt lat="43.0463883" lon="11.4228617"><ele>387.0</ele><time>2026-05-01T13:48:52.97Z</time></trkpt><trkpt lat="43.0463367" lon="11.4227183"><ele>389.6</ele><time>2026-05-01T13:48:53.971Z</time></trkpt><trkpt lat="43.046285" lon="11.4225783"><ele>392.20000000000005</ele><time>2026-05-01T13:48:54.97Z</time></trkpt><trkpt lat="43.046235" lon="11.4224533"><ele>394.8</ele><time>2026-05-01T13:48:55.97Z</time></trkpt><trkpt lat="43.0461883" lon="11.4223317"><ele>397.4</ele><time>2026-05-01T13:48:56.971Z</time></trkpt><trkpt lat="43.046145" lon="11.4222367"><ele>400.0</ele><time>2026-05-01T13:48:57.97Z</time></trkpt><trkpt lat="43.0461067" lon="11.422095"><ele>401.1666666666667</ele><time>2026-05-01T13:48:59.971Z</time></trkpt><trkpt lat="43.0461217" lon="11.421965"><ele>402.33333333333337</ele><time>2026-05-01T13:49:01.97Z</time></trkpt><trkpt lat="43.0461517" lon="11.4218683"><ele>403.5</ele><time>2026-05-01T13:49:03.971Z</time></trkpt><trkpt lat="43.046155" lon="11.4217767"><ele>404.66666666666663</ele><time>2026-05-01T13:50:08.97Z</time></trkpt><trkpt lat="43.0461533" lon="11.4216833"><ele>405.8333333333333</ele><time>2026-05-01T13:50:12.97Z</time></trkpt><trkpt lat="43.0462117" lon="11.4215833"><ele>407.0</ele><time>2026-05-01T13:52:34.969Z</time></trkpt><trkpt lat="43.0462633" lon="11.421435"><ele>407.0</ele><time>2026-05-01T13:52:36.969Z</time></trkpt><trkpt lat="43.0463017" lon="11.4213467"><ele>407.0</ele><time>2026-05-01T13:52:37.969Z</time></trkpt><trkpt lat="43.0463483" lon="11.4212567"><ele>407.0</ele><time>2026-05-01T13:52:38.97Z</time></trkpt><trkpt lat="43.0463817" lon="11.421175"><ele>407.0</ele><time>2026-05-01T13:52:39.97Z</time></trkpt><trkpt lat="43.0464367" lon="11.4210333"><ele>407.0</ele><time>2026-05-01T13:52:41.97Z</time></trkpt><trkpt lat="43.04648" lon="11.420875"><ele>405.25</ele><time>2026-05-01T13:52:43.969Z</time></trkpt><trkpt lat="43.0464883" lon="11.4207"><ele>403.5</ele><time>2026-05-01T13:52:45.97Z</time></trkpt><trkpt lat="43.04645" lon="11.4205433"><ele>401.75</ele><time>2026-05-01T13:52:47.97Z</time></trkpt><trkpt lat="43.0463883" lon="11.4204083"><ele>400.0</ele><time>2026-05-01T13:52:49.97Z</time></trkpt><trkpt lat="43.0463167" lon="11.4202883"><ele>398.50000000000006</ele><time>2026-05-01T13:52:51.969Z</time></trkpt><trkpt lat="43.0462483" lon="11.4201633"><ele>397.0</ele><time>2026-05-01T13:52:53.969Z</time></trkpt><trkpt lat="43.04617" lon="11.42004"><ele>395.5</ele><time>2026-05-01T13:52:55.969Z</time></trkpt><trkpt lat="43.0461283" lon="11.4199717"><ele>394.0</ele><time>2026-05-01T13:52:56.969Z</time></trkpt><trkpt lat="43.046085" lon="11.4199083"><ele>392.50000000000006</ele><time>2026-05-01T13:52:57.969Z</time></trkpt><trkpt lat="43.04604" lon="11.4198417"><ele>391.0</ele><time>2026-05-01T13:52:58.97Z</time></trkpt><trkpt lat="43.046" lon="11.4197733"><ele>390.99999999999994</ele><time>2026-05-01T13:52:59.969Z</time></trkpt><trkpt lat="43.0459617" lon="11.4196983"><ele>391.0</ele><time>2026-05-01T13:53:00.97Z</time></trkpt><trkpt lat="43.045925" lon="11.4196267"><ele>391.0</ele><time>2026-05-01T13:53:01.969Z</time></trkpt><trkpt lat="43.0458933" lon="11.4195483"><ele>391.0</ele><time>2026-05-01T13:53:02.969Z</time></trkpt><trkpt lat="43.04586" lon="11.4194667"><ele>391.0</ele><time>2026-05-01T13:53:03.97Z</time></trkpt><trkpt lat="43.0458233" lon="11.4193933"><ele>390.99999999999994</ele><time>2026-05-01T13:53:04.969Z</time></trkpt><trkpt lat="43.0457867" lon="11.419315"><ele>391.0</ele><time>2026-05-01T13:53:05.97Z</time></trkpt><trkpt lat="43.0456933" lon="11.4192033"><ele>389.71428571428567</ele><time>2026-05-01T13:53:07.969Z</time></trkpt><trkpt lat="43.0456417" lon="11.419145"><ele>388.42857142857144</ele><time>2026-05-01T13:53:08.969Z</time></trkpt><trkpt lat="43.045585" lon="11.41909"><ele>387.1428571428571</ele><time>2026-05-01T13:53:09.969Z</time></trkpt><trkpt lat="43.045525" lon="11.4190267"><ele>385.85714285714283</ele><time>2026-05-01T13:53:10.969Z</time></trkpt><trkpt lat="43.0454733" lon="11.4189733"><ele>384.57142857142856</ele><time>2026-05-01T13:53:11.97Z</time></trkpt><trkpt lat="43.04541" lon="11.41891"><ele>383.2857142857143</ele><time>2026-05-01T13:53:12.969Z</time></trkpt><trkpt lat="43.045335" lon="11.4188367"><ele>382.0</ele><time>2026-05-01T13:53:13.97Z</time></trkpt><trkpt lat="43.04526" lon="11.4187667"><ele>381.6</ele><time>2026-05-01T13:53:14.969Z</time></trkpt><trkpt lat="43.0451917" lon="11.418695"><ele>381.20000000000005</ele><time>2026-05-01T13:53:15.969Z</time></trkpt><trkpt lat="43.04512" lon="11.4186233"><ele>380.8</ele><time>2026-05-01T13:53:16.969Z</time></trkpt><trkpt lat="43.0450433" lon="11.41854"><ele>380.4</ele><time>2026-05-01T13:53:17.97Z</time></trkpt><trkpt lat="43.044965" lon="11.418455"><ele>380.0</ele><time>2026-05-01T13:53:18.97Z</time></trkpt><trkpt lat="43.0448817" lon="11.4183667"><ele>378.6</ele><time>2026-05-01T13:53:19.969Z</time></trkpt><trkpt lat="43.044795" lon="11.418275"><ele>377.2</ele><time>2026-05-01T13:53:20.969Z</time></trkpt><trkpt lat="43.04472" lon="11.4181817"><ele>375.79999999999995</ele><time>2026-05-01T13:53:21.969Z</time></trkpt><trkpt lat="43.0446417" lon="11.4180933"><ele>374.4</ele><time>2026-05-01T13:53:22.969Z</time></trkpt><trkpt lat="43.0445667" lon="11.4180083"><ele>373.0</ele><time>2026-05-01T13:53:23.969Z</time></trkpt><trkpt lat="43.044485" lon="11.4179267"><ele>373.0</ele><time>2026-05-01T13:53:24.969Z</time></trkpt><trkpt lat="43.0444" lon="11.4178317"><ele>373.0</ele><time>2026-05-01T13:53:25.97Z</time></trkpt><trkpt lat="43.0443183" lon="11.4177483"><ele>373.0</ele><time>2026-05-01T13:53:26.969Z</time></trkpt><trkpt lat="43.0442417" lon="11.41766"><ele>373.0</ele><time>2026-05-01T13:53:27.969Z</time></trkpt><trkpt lat="43.044155" lon="11.4175667"><ele>373.0</ele><time>2026-05-01T13:53:28.97Z</time></trkpt><trkpt lat="43.044075" lon="11.417475"><ele>371.75</ele><time>2026-05-01T13:53:29.969Z</time></trkpt><trkpt lat="43.0439917" lon="11.417375"><ele>370.5</ele><time>2026-05-01T13:53:30.969Z</time></trkpt><trkpt lat="43.04391" lon="11.4172583"><ele>369.25</ele><time>2026-05-01T13:53:31.969Z</time></trkpt><trkpt lat="43.04383" lon="11.41714"><ele>368.0</ele><time>2026-05-01T13:53:32.97Z</time></trkpt><trkpt lat="43.0437617" lon="11.4170233"><ele>368.0</ele><time>2026-05-01T13:53:33.969Z</time></trkpt><trkpt lat="43.0436883" lon="11.416915"><ele>368.0</ele><time>2026-05-01T13:53:34.969Z</time></trkpt><trkpt lat="43.0436267" lon="11.4167983"><ele>368.0</ele><time>2026-05-01T13:53:35.97Z</time></trkpt><trkpt lat="43.043565" lon="11.4166883"><ele>368.0</ele><time>2026-05-01T13:53:36.97Z</time></trkpt><trkpt lat="43.0435017" lon="11.41658"><ele>368.0</ele><time>2026-05-01T13:53:37.969Z</time></trkpt><trkpt lat="43.043445" lon="11.4164683"><ele>368.0</ele><time>2026-05-01T13:53:38.969Z</time></trkpt><trkpt lat="43.0433833" lon="11.4163567"><ele>368.0</ele><time>2026-05-01T13:53:39.97Z</time></trkpt><trkpt lat="43.0433183" lon="11.4162517"><ele>368.0</ele><time>2026-05-01T13:53:40.969Z</time></trkpt><trkpt lat="43.043255" lon="11.416145"><ele>368.0</ele><time>2026-05-01T13:53:41.969Z</time></trkpt><trkpt lat="43.0431883" lon="11.41603"><ele>368.0</ele><time>2026-05-01T13:53:42.97Z</time></trkpt><trkpt lat="43.0431183" lon="11.4159083"><ele>366.25</ele><time>2026-05-01T13:53:43.969Z</time></trkpt><trkpt lat="43.0430483" lon="11.4157783"><ele>364.5</ele><time>2026-05-01T13:53:44.969Z</time></trkpt><trkpt lat="43.04299" lon="11.4156367"><ele>362.75</ele><time>2026-05-01T13:53:45.97Z</time></trkpt><trkpt lat="43.0429183" lon="11.4155033"><ele>361.0</ele><time>2026-05-01T13:53:46.969Z</time></trkpt><trkpt lat="43.0428467" lon="11.415355"><ele>360.75</ele><time>2026-05-01T13:53:47.969Z</time></trkpt><trkpt lat="43.0427733" lon="11.415205"><ele>360.5</ele><time>2026-05-01T13:53:48.969Z</time></trkpt><trkpt lat="43.04269" lon="11.4150767"><ele>360.25</ele><time>2026-05-01T13:53:49.97Z</time></trkpt><trkpt lat="43.04261" lon="11.414955"><ele>360.0</ele><time>2026-05-01T13:53:50.969Z</time></trkpt><trkpt lat="43.0425233" lon="11.4148367"><ele>357.6666666666667</ele><time>2026-05-01T13:53:51.969Z</time></trkpt><trkpt lat="43.042415" lon="11.41469"><ele>355.33333333333337</ele><time>2026-05-01T13:53:52.97Z</time></trkpt><trkpt lat="43.0423017" lon="11.4145417"><ele>353.0</ele><time>2026-05-01T13:53:53.969Z</time></trkpt><trkpt lat="43.042185" lon="11.4144133"><ele>352.5</ele><time>2026-05-01T13:53:54.969Z</time></trkpt><trkpt lat="43.0420933" lon="11.4142883"><ele>352.0</ele><time>2026-05-01T13:53:55.969Z</time></trkpt><trkpt lat="43.042015" lon="11.414145"><ele>351.5</ele><time>2026-05-01T13:53:56.969Z</time></trkpt><trkpt lat="43.0419433" lon="11.4139633"><ele>351.0</ele><time>2026-05-01T13:53:57.97Z</time></trkpt><trkpt lat="43.0418733" lon="11.4137433"><ele>349.0</ele><time>2026-05-01T13:53:58.969Z</time></trkpt><trkpt lat="43.0417867" lon="11.4134933"><ele>347.0</ele><time>2026-05-01T13:53:59.97Z</time></trkpt><trkpt lat="43.0417067" lon="11.41325"><ele>345.0</ele><time>2026-05-01T13:54:00.97Z</time></trkpt><trkpt lat="43.0416383" lon="11.4130167"><ele>340.3333333333333</ele><time>2026-05-01T13:54:01.969Z</time></trkpt><trkpt lat="43.041585" lon="11.412785"><ele>335.66666666666663</ele><time>2026-05-01T13:54:02.969Z</time></trkpt><trkpt lat="43.0415433" lon="11.4125633"><ele>331.0</ele><time>2026-05-01T13:54:03.969Z</time></trkpt><trkpt lat="43.041515" lon="11.4123333"><ele>328.66666666666663</ele><time>2026-05-01T13:54:04.969Z</time></trkpt><trkpt lat="43.0415017" lon="11.4120933"><ele>326.3333333333333</ele><time>2026-05-01T13:54:05.969Z</time></trkpt><trkpt lat="43.0414983" lon="11.41184"><ele>324.0</ele><time>2026-05-01T13:54:06.97Z</time></trkpt><trkpt lat="43.0415067" lon="11.4115767"><ele>324.0</ele><time>2026-05-01T13:54:07.969Z</time></trkpt><trkpt lat="43.0415133" lon="11.4113483"><ele>324.0</ele><time>2026-05-01T13:54:08.97Z</time></trkpt><trkpt lat="43.0415333" lon="11.4111017"><ele>324.0</ele><time>2026-05-01T13:54:09.97Z</time></trkpt><trkpt lat="43.0415633" lon="11.4108317"><ele>323.3333333333333</ele><time>2026-05-01T13:54:10.969Z</time></trkpt><trkpt lat="43.0416017" lon="11.41057"><ele>322.66666666666663</ele><time>2026-05-01T13:54:11.97Z</time></trkpt><trkpt lat="43.041635" lon="11.4103117"><ele>322.0</ele><time>2026-05-01T13:54:12.969Z</time></trkpt><trkpt lat="43.0416633" lon="11.4100683"><ele>321.66666666666663</ele><time>2026-05-01T13:54:13.97Z</time></trkpt><trkpt lat="43.0416917" lon="11.4098317"><ele>321.3333333333333</ele><time>2026-05-01T13:54:14.969Z</time></trkpt><trkpt lat="43.041715" lon="11.4095983"><ele>321.0</ele><time>2026-05-01T13:54:15.97Z</time></trkpt><trkpt lat="43.0417283" lon="11.4093667"><ele>318.3333333333333</ele><time>2026-05-01T13:54:16.97Z</time></trkpt><trkpt lat="43.0417317" lon="11.409145"><ele>315.66666666666663</ele><time>2026-05-01T13:54:17.969Z</time></trkpt><trkpt lat="43.0417333" lon="11.408915"><ele>313.0</ele><time>2026-05-01T13:54:18.969Z</time></trkpt><trkpt lat="43.04174" lon="11.4087083"><ele>311.0</ele><time>2026-05-01T13:54:19.97Z</time></trkpt><trkpt lat="43.0417467" lon="11.40852"><ele>309.0</ele><time>2026-05-01T13:54:20.969Z</time></trkpt><trkpt lat="43.0417517" lon="11.4083367"><ele>307.0</ele><time>2026-05-01T13:54:21.97Z</time></trkpt><trkpt lat="43.0417617" lon="11.4081883"><ele>305.0</ele><time>2026-05-01T13:54:22.969Z</time></trkpt><trkpt lat="43.0417683" lon="11.4080583"><ele>303.2</ele><time>2026-05-01T13:54:23.969Z</time></trkpt><trkpt lat="43.04176" lon="11.4079367"><ele>301.4</ele><time>2026-05-01T13:54:24.97Z</time></trkpt><trkpt lat="43.0417233" lon="11.4078283"><ele>299.6</ele><time>2026-05-01T13:54:25.97Z</time></trkpt><trkpt lat="43.0416567" lon="11.4077367"><ele>297.8</ele><time>2026-05-01T13:54:26.97Z</time></trkpt><trkpt lat="43.041575" lon="11.407695"><ele>296.0</ele><time>2026-05-01T13:54:27.969Z</time></trkpt><trkpt lat="43.04148" lon="11.407685"><ele>296.0</ele><time>2026-05-01T13:54:28.97Z</time></trkpt><trkpt lat="43.0413767" lon="11.4076783"><ele>296.0</ele><time>2026-05-01T13:54:29.97Z</time></trkpt><trkpt lat="43.0412667" lon="11.4076717"><ele>296.0</ele><time>2026-05-01T13:54:30.969Z</time></trkpt><trkpt lat="43.04116" lon="11.4076567"><ele>296.0</ele><time>2026-05-01T13:54:31.97Z</time></trkpt><trkpt lat="43.0410567" lon="11.4076283"><ele>296.0</ele><time>2026-05-01T13:54:32.969Z</time></trkpt><trkpt lat="43.0409617" lon="11.4076"><ele>296.0</ele><time>2026-05-01T13:54:33.97Z</time></trkpt><trkpt lat="43.04086" lon="11.40757"><ele>296.0</ele><time>2026-05-01T13:54:34.97Z</time></trkpt><trkpt lat="43.0407667" lon="11.4075533"><ele>296.0</ele><time>2026-05-01T13:54:35.969Z</time></trkpt><trkpt lat="43.0406733" lon="11.40755"><ele>296.0</ele><time>2026-05-01T13:54:36.97Z</time></trkpt><trkpt lat="43.0405717" lon="11.40756"><ele>296.0</ele><time>2026-05-01T13:54:37.969Z</time></trkpt><trkpt lat="43.0404783" lon="11.4075933"><ele>294.75</ele><time>2026-05-01T13:54:38.97Z</time></trkpt><trkpt lat="43.0403867" lon="11.407645"><ele>293.5</ele><time>2026-05-01T13:54:39.969Z</time></trkpt><trkpt lat="43.0402967" lon="11.4077083"><ele>292.25</ele><time>2026-05-01T13:54:40.969Z</time></trkpt><trkpt lat="43.04019" lon="11.4077867"><ele>291.0</ele><time>2026-05-01T13:54:41.97Z</time></trkpt><trkpt lat="43.0400633" lon="11.40788"><ele>290.3333333333333</ele><time>2026-05-01T13:54:42.97Z</time></trkpt><trkpt lat="43.0399133" lon="11.4079633"><ele>289.66666666666663</ele><time>2026-05-01T13:54:43.969Z</time></trkpt><trkpt lat="43.039765" lon="11.4080283"><ele>289.0</ele><time>2026-05-01T13:54:44.969Z</time></trkpt><trkpt lat="43.0396" lon="11.4080867"><ele>289.0</ele><time>2026-05-01T13:54:45.969Z</time></trkpt><trkpt lat="43.0394467" lon="11.4081283"><ele>289.0</ele><time>2026-05-01T13:54:46.969Z</time></trkpt><trkpt lat="43.0392967" lon="11.408165"><ele>289.0</ele><time>2026-05-01T13:54:47.969Z</time></trkpt><trkpt lat="43.0391467" lon="11.408205"><ele>287.0</ele><time>2026-05-01T13:54:48.97Z</time></trkpt><trkpt lat="43.0390083" lon="11.4082467"><ele>285.0</ele><time>2026-05-01T13:54:49.97Z</time></trkpt><trkpt lat="43.0388867" lon="11.4083083"><ele>283.0</ele><time>2026-05-01T13:54:50.97Z</time></trkpt><trkpt lat="43.0387583" lon="11.4083767"><ele>281.0</ele><time>2026-05-01T13:54:51.969Z</time></trkpt><trkpt lat="43.0386267" lon="11.4084433"><ele>281.0</ele><time>2026-05-01T13:54:52.97Z</time></trkpt><trkpt lat="43.0385083" lon="11.4085067"><ele>281.0</ele><time>2026-05-01T13:54:53.969Z</time></trkpt><trkpt lat="43.038405" lon="11.4085683"><ele>281.0</ele><time>2026-05-01T13:54:54.97Z</time></trkpt><trkpt lat="43.03831" lon="11.408635"><ele>281.0</ele><time>2026-05-01T13:54:55.969Z</time></trkpt><trkpt lat="43.03821" lon="11.4087333"><ele>280.0</ele><time>2026-05-01T13:54:56.97Z</time></trkpt><trkpt lat="43.0381067" lon="11.4088617"><ele>279.0</ele><time>2026-05-01T13:54:57.97Z</time></trkpt><trkpt lat="43.038" lon="11.40901"><ele>278.0</ele><time>2026-05-01T13:54:58.97Z</time></trkpt><trkpt lat="43.0379033" lon="11.4091483"><ele>277.0</ele><time>2026-05-01T13:54:59.97Z</time></trkpt><trkpt lat="43.0378183" lon="11.4092633"><ele>277.0</ele><time>2026-05-01T13:55:00.969Z</time></trkpt><trkpt lat="43.03774" lon="11.4093667"><ele>277.0</ele><time>2026-05-01T13:55:01.969Z</time></trkpt><trkpt lat="43.0376667" lon="11.4094433"><ele>277.0</ele><time>2026-05-01T13:55:02.969Z</time></trkpt><trkpt lat="43.0375833" lon="11.4095"><ele>277.0</ele><time>2026-05-01T13:55:03.97Z</time></trkpt><trkpt lat="43.0375" lon="11.4094967"><ele>277.0</ele><time>2026-05-01T13:55:04.969Z</time></trkpt><trkpt lat="43.0374267" lon="11.4094367"><ele>276.6</ele><time>2026-05-01T13:55:05.969Z</time></trkpt><trkpt lat="43.0373617" lon="11.409345"><ele>276.2</ele><time>2026-05-01T13:55:06.969Z</time></trkpt><trkpt lat="43.0373067" lon="11.4092483"><ele>275.8</ele><time>2026-05-01T13:55:07.969Z</time></trkpt><trkpt lat="43.0372517" lon="11.4091533"><ele>275.4</ele><time>2026-05-01T13:55:08.969Z</time></trkpt><trkpt lat="43.0371883" lon="11.4090583"><ele>275.0</ele><time>2026-05-01T13:55:09.97Z</time></trkpt><trkpt lat="43.037125" lon="11.408955"><ele>275.0</ele><time>2026-05-01T13:55:10.969Z</time></trkpt><trkpt lat="43.0370583" lon="11.4088467"><ele>275.0</ele><time>2026-05-01T13:55:11.969Z</time></trkpt><trkpt lat="43.03699" lon="11.4087333"><ele>275.0</ele><time>2026-05-01T13:55:12.97Z</time></trkpt><trkpt lat="43.03692" lon="11.4086283"><ele>275.0</ele><time>2026-05-01T13:55:13.969Z</time></trkpt><trkpt lat="43.0368567" lon="11.4085283"><ele>275.0</ele><time>2026-05-01T13:55:14.969Z</time></trkpt><trkpt lat="43.0367967" lon="11.4084267"><ele>274.1666666666667</ele><time>2026-05-01T13:55:15.969Z</time></trkpt><trkpt lat="43.0367333" lon="11.40834"><ele>273.33333333333337</ele><time>2026-05-01T13:55:16.969Z</time></trkpt><trkpt lat="43.03667" lon="11.4082783"><ele>272.5</ele><time>2026-05-01T13:55:17.969Z</time></trkpt><trkpt lat="43.0366083" lon="11.4082517"><ele>271.6666666666667</ele><time>2026-05-01T13:55:18.97Z</time></trkpt><trkpt lat="43.0365383" lon="11.4082567"><ele>270.8333333333333</ele><time>2026-05-01T13:55:19.969Z</time></trkpt><trkpt lat="43.036475" lon="11.4083017"><ele>270.0</ele><time>2026-05-01T13:55:20.969Z</time></trkpt><trkpt lat="43.0364183" lon="11.40838"><ele>270.5</ele><time>2026-05-01T13:55:21.97Z</time></trkpt><trkpt lat="43.03634" lon="11.4084867"><ele>271.0</ele><time>2026-05-01T13:55:22.969Z</time></trkpt><trkpt lat="43.03623" lon="11.408635"><ele>271.5</ele><time>2026-05-01T13:55:23.97Z</time></trkpt><trkpt lat="43.036115" lon="11.4088"><ele>272.0</ele><time>2026-05-01T13:55:24.969Z</time></trkpt><trkpt lat="43.03598" lon="11.408985"><ele>272.0</ele><time>2026-05-01T13:55:25.969Z</time></trkpt><trkpt lat="43.0358617" lon="11.4091583"><ele>272.0</ele><time>2026-05-01T13:55:26.969Z</time></trkpt><trkpt lat="43.035745" lon="11.4093117"><ele>272.0</ele><time>2026-05-01T13:55:27.969Z</time></trkpt><trkpt lat="43.0356317" lon="11.4094533"><ele>271.33333333333337</ele><time>2026-05-01T13:55:28.97Z</time></trkpt><trkpt lat="43.0355217" lon="11.4095783"><ele>270.6666666666667</ele><time>2026-05-01T13:55:29.969Z</time></trkpt><trkpt lat="43.0353883" lon="11.4097117"><ele>270.0</ele><time>2026-05-01T13:55:30.969Z</time></trkpt><trkpt lat="43.035245" lon="11.4098317"><ele>271.3333333333333</ele><time>2026-05-01T13:55:31.969Z</time></trkpt><trkpt lat="43.0350867" lon="11.4099467"><ele>272.66666666666663</ele><time>2026-05-01T13:55:32.97Z</time></trkpt><trkpt lat="43.03494" lon="11.410065"><ele>274.0</ele><time>2026-05-01T13:55:33.969Z</time></trkpt><trkpt lat="43.0348033" lon="11.410165"><ele>274.0</ele><time>2026-05-01T13:55:34.97Z</time></trkpt><trkpt lat="43.0346633" lon="11.410255"><ele>274.0</ele><time>2026-05-01T13:55:35.97Z</time></trkpt><trkpt lat="43.0345167" lon="11.4103267"><ele>274.0</ele><time>2026-05-01T13:55:36.969Z</time></trkpt><trkpt lat="43.0343567" lon="11.41039"><ele>274.0</ele><time>2026-05-01T13:55:37.97Z</time></trkpt><trkpt lat="43.034195" lon="11.4104283"><ele>274.0</ele><time>2026-05-01T13:55:38.97Z</time></trkpt><trkpt lat="43.0340367" lon="11.41046"><ele>274.0</ele><time>2026-05-01T13:55:39.97Z</time></trkpt><trkpt lat="43.0338867" lon="11.410475"><ele>273.75</ele><time>2026-05-01T13:55:40.97Z</time></trkpt><trkpt lat="43.0337317" lon="11.4104933"><ele>273.5</ele><time>2026-05-01T13:55:41.97Z</time></trkpt><trkpt lat="43.0335833" lon="11.41051"><ele>273.25</ele><time>2026-05-01T13:55:42.97Z</time></trkpt><trkpt lat="43.0334417" lon="11.410535"><ele>273.0</ele><time>2026-05-01T13:55:43.969Z</time></trkpt><trkpt lat="43.0332867" lon="11.4105567"><ele>269.6666666666667</ele><time>2026-05-01T13:55:44.97Z</time></trkpt><trkpt lat="43.0331217" lon="11.4105867"><ele>266.33333333333337</ele><time>2026-05-01T13:55:45.969Z</time></trkpt><trkpt lat="43.0329483" lon="11.410625"><ele>263.0</ele><time>2026-05-01T13:55:46.969Z</time></trkpt><trkpt lat="43.032775" lon="11.41066"><ele>263.0</ele><time>2026-05-01T13:55:47.97Z</time></trkpt><trkpt lat="43.03262" lon="11.4106867"><ele>263.0</ele><time>2026-05-01T13:55:48.97Z</time></trkpt><trkpt lat="43.0324617" lon="11.410725"><ele>263.0</ele><time>2026-05-01T13:55:49.97Z</time></trkpt><trkpt lat="43.0323" lon="11.4107883"><ele>259.33333333333337</ele><time>2026-05-01T13:55:50.969Z</time></trkpt><trkpt lat="43.03213" lon="11.4108633"><ele>255.66666666666669</ele><time>2026-05-01T13:55:51.97Z</time></trkpt><trkpt lat="43.031955" lon="11.41095"><ele>252.0</ele><time>2026-05-01T13:55:52.97Z</time></trkpt><trkpt lat="43.031765" lon="11.4110367"><ele>249.0</ele><time>2026-05-01T13:55:53.969Z</time></trkpt><trkpt lat="43.031555" lon="11.411115"><ele>246.0</ele><time>2026-05-01T13:55:54.969Z</time></trkpt><trkpt lat="43.0313567" lon="11.4111967"><ele>243.0</ele><time>2026-05-01T13:55:55.969Z</time></trkpt><trkpt lat="43.0311783" lon="11.41127"><ele>242.0</ele><time>2026-05-01T13:55:56.969Z</time></trkpt><trkpt lat="43.03102" lon="11.4113317"><ele>241.0</ele><time>2026-05-01T13:55:57.97Z</time></trkpt><trkpt lat="43.0308817" lon="11.41139"><ele>240.0</ele><time>2026-05-01T13:55:58.97Z</time></trkpt><trkpt lat="43.030755" lon="11.4114483"><ele>239.0</ele><time>2026-05-01T13:55:59.969Z</time></trkpt><trkpt lat="43.0306367" lon="11.411525"><ele>239.0</ele><time>2026-05-01T13:56:00.969Z</time></trkpt><trkpt lat="43.030515" lon="11.411635"><ele>239.0</ele><time>2026-05-01T13:56:01.969Z</time></trkpt><trkpt lat="43.030395" lon="11.4117617"><ele>239.0</ele><time>2026-05-01T13:56:02.97Z</time></trkpt><trkpt lat="43.030275" lon="11.4119017"><ele>239.0</ele><time>2026-05-01T13:56:03.969Z</time></trkpt><trkpt lat="43.0301617" lon="11.41205"><ele>239.0</ele><time>2026-05-01T13:56:04.969Z</time></trkpt><trkpt lat="43.0300533" lon="11.41223"><ele>239.0</ele><time>2026-05-01T13:56:05.97Z</time></trkpt><trkpt lat="43.0299367" lon="11.41246"><ele>239.5</ele><time>2026-05-01T13:56:06.97Z</time></trkpt><trkpt lat="43.0297983" lon="11.4127267"><ele>240.0</ele><time>2026-05-01T13:56:07.969Z</time></trkpt><trkpt lat="43.0296517" lon="11.4129933"><ele>240.0</ele><time>2026-05-01T13:56:08.969Z</time></trkpt><trkpt lat="43.0294967" lon="11.4132567"><ele>240.0</ele><time>2026-05-01T13:56:09.97Z</time></trkpt><trkpt lat="43.029335" lon="11.4135367"><ele>240.0</ele><time>2026-05-01T13:56:10.969Z</time></trkpt><trkpt lat="43.0291667" lon="11.413815"><ele>240.0</ele><time>2026-05-01T13:56:11.969Z</time></trkpt><trkpt lat="43.0289833" lon="11.41411"><ele>238.5</ele><time>2026-05-01T13:56:12.97Z</time></trkpt><trkpt lat="43.02881" lon="11.414395"><ele>237.0</ele><time>2026-05-01T13:56:13.969Z</time></trkpt><trkpt lat="43.0286517" lon="11.4146533"><ele>240.5</ele><time>2026-05-01T13:56:14.97Z</time></trkpt><trkpt lat="43.0284933" lon="11.4148917"><ele>244.0</ele><time>2026-05-01T13:56:15.969Z</time></trkpt><trkpt lat="43.0283433" lon="11.4151233"><ele>244.5</ele><time>2026-05-01T13:56:16.969Z</time></trkpt><trkpt lat="43.028195" lon="11.4153683"><ele>245.0</ele><time>2026-05-01T13:56:17.969Z</time></trkpt><trkpt lat="43.0280533" lon="11.4156133"><ele>245.0</ele><time>2026-05-01T13:56:18.969Z</time></trkpt><trkpt lat="43.0279167" lon="11.4158433"><ele>245.0</ele><time>2026-05-01T13:56:19.969Z</time></trkpt><trkpt lat="43.0277833" lon="11.4160733"><ele>245.0</ele><time>2026-05-01T13:56:20.97Z</time></trkpt><trkpt lat="43.0276583" lon="11.416295"><ele>246.66666666666669</ele><time>2026-05-01T13:56:21.97Z</time></trkpt><trkpt lat="43.0275317" lon="11.4165067"><ele>248.33333333333331</ele><time>2026-05-01T13:56:22.969Z</time></trkpt><trkpt lat="43.027415" lon="11.4167067"><ele>250.0</ele><time>2026-05-01T13:56:23.969Z</time></trkpt><trkpt lat="43.02731" lon="11.416885"><ele>248.75</ele><time>2026-05-01T13:56:24.97Z</time></trkpt><trkpt lat="43.0272083" lon="11.4170483"><ele>247.5</ele><time>2026-05-01T13:56:25.969Z</time></trkpt><trkpt lat="43.027115" lon="11.4172033"><ele>246.25</ele><time>2026-05-01T13:56:26.97Z</time></trkpt><trkpt lat="43.0270233" lon="11.4173583"><ele>245.0</ele><time>2026-05-01T13:56:27.97Z</time></trkpt><trkpt lat="43.0269267" lon="11.4175083"><ele>245.0</ele><time>2026-05-01T13:56:28.97Z</time></trkpt><trkpt lat="43.0268317" lon="11.4176417"><ele>245.0</ele><time>2026-05-01T13:56:29.969Z</time></trkpt><trkpt lat="43.0267333" lon="11.41777"><ele>245.0</ele><time>2026-05-01T13:56:30.97Z</time></trkpt><trkpt lat="43.0266467" lon="11.4178967"><ele>245.0</ele><time>2026-05-01T13:56:31.969Z</time></trkpt><trkpt lat="43.0265567" lon="11.4180233"><ele>245.25</ele><time>2026-05-01T13:56:32.969Z</time></trkpt><trkpt lat="43.026475" lon="11.4181367"><ele>245.5</ele><time>2026-05-01T13:56:33.969Z</time></trkpt><trkpt lat="43.026395" lon="11.4182417"><ele>245.75</ele><time>2026-05-01T13:56:34.969Z</time></trkpt><trkpt lat="43.0262967" lon="11.4183567"><ele>246.0</ele><time>2026-05-01T13:56:35.97Z</time></trkpt><trkpt lat="43.0262" lon="11.4184733"><ele>246.0</ele><time>2026-05-01T13:56:36.969Z</time></trkpt><trkpt lat="43.026105" lon="11.4186033"><ele>246.0</ele><time>2026-05-01T13:56:37.969Z</time></trkpt><trkpt lat="43.02601" lon="11.418725"><ele>246.0</ele><time>2026-05-01T13:56:38.97Z</time></trkpt><trkpt lat="43.0259133" lon="11.41885"><ele>246.0</ele><time>2026-05-01T13:56:39.969Z</time></trkpt><trkpt lat="43.02582" lon="11.4189717"><ele>243.0</ele><time>2026-05-01T13:56:40.97Z</time></trkpt><trkpt lat="43.025725" lon="11.41909"><ele>240.0</ele><time>2026-05-01T13:56:41.969Z</time></trkpt><trkpt lat="43.0256317" lon="11.41921"><ele>237.0</ele><time>2026-05-01T13:56:42.969Z</time></trkpt><trkpt lat="43.025535" lon="11.4193283"><ele>234.0</ele><time>2026-05-01T13:56:43.969Z</time></trkpt><trkpt lat="43.025435" lon="11.4194467"><ele>234.0</ele><time>2026-05-01T13:56:44.969Z</time></trkpt><trkpt lat="43.0253467" lon="11.4195633"><ele>234.0</ele><time>2026-05-01T13:56:45.97Z</time></trkpt><trkpt lat="43.0252533" lon="11.419675"><ele>234.0</ele><time>2026-05-01T13:56:46.969Z</time></trkpt><trkpt lat="43.0251633" lon="11.4197883"><ele>234.0</ele><time>2026-05-01T13:56:47.969Z</time></trkpt><trkpt lat="43.0250583" lon="11.4198883"><ele>233.25</ele><time>2026-05-01T13:56:48.969Z</time></trkpt><trkpt lat="43.0249633" lon="11.4199767"><ele>232.5</ele><time>2026-05-01T13:56:49.969Z</time></trkpt><trkpt lat="43.0248483" lon="11.4200367"><ele>231.75</ele><time>2026-05-01T13:56:50.969Z</time></trkpt><trkpt lat="43.024715" lon="11.4200783"><ele>231.0</ele><time>2026-05-01T13:56:51.97Z</time></trkpt><trkpt lat="43.0245583" lon="11.4201"><ele>231.0</ele><time>2026-05-01T13:56:52.97Z</time></trkpt><trkpt lat="43.0243967" lon="11.4201067"><ele>231.0</ele><time>2026-05-01T13:56:53.969Z</time></trkpt><trkpt lat="43.0242367" lon="11.420115"><ele>231.0</ele><time>2026-05-01T13:56:54.969Z</time></trkpt><trkpt lat="43.0240867" lon="11.4201133"><ele>229.75</ele><time>2026-05-01T13:56:55.97Z</time></trkpt><trkpt lat="43.0239483" lon="11.4201233"><ele>228.5</ele><time>2026-05-01T13:56:56.97Z</time></trkpt><trkpt lat="43.023815" lon="11.4201217"><ele>227.25</ele><time>2026-05-01T13:56:57.969Z</time></trkpt><trkpt lat="43.02369" lon="11.4201233"><ele>226.0</ele><time>2026-05-01T13:56:58.969Z</time></trkpt><trkpt lat="43.0235633" lon="11.420105"><ele>226.0</ele><time>2026-05-01T13:56:59.969Z</time></trkpt><trkpt lat="43.0234417" lon="11.420065"><ele>226.0</ele><time>2026-05-01T13:57:00.97Z</time></trkpt><trkpt lat="43.023335" lon="11.42001"><ele>226.0</ele><time>2026-05-01T13:57:01.969Z</time></trkpt><trkpt lat="43.0232283" lon="11.419945"><ele>226.0</ele><time>2026-05-01T13:57:02.969Z</time></trkpt><trkpt lat="43.023125" lon="11.4198833"><ele>226.25</ele><time>2026-05-01T13:57:03.969Z</time></trkpt><trkpt lat="43.023015" lon="11.419815"><ele>226.5</ele><time>2026-05-01T13:57:04.969Z</time></trkpt><trkpt lat="43.0229183" lon="11.4197333"><ele>226.75</ele><time>2026-05-01T13:57:05.97Z</time></trkpt><trkpt lat="43.022825" lon="11.4196583"><ele>227.0</ele><time>2026-05-01T13:57:06.969Z</time></trkpt><trkpt lat="43.02273" lon="11.419585"><ele>226.25</ele><time>2026-05-01T13:57:07.969Z</time></trkpt><trkpt lat="43.0226217" lon="11.4195"><ele>225.5</ele><time>2026-05-01T13:57:08.97Z</time></trkpt><trkpt lat="43.0225183" lon="11.4194133"><ele>224.75</ele><time>2026-05-01T13:57:09.97Z</time></trkpt><trkpt lat="43.0224167" lon="11.4193283"><ele>224.0</ele><time>2026-05-01T13:57:10.969Z</time></trkpt><trkpt lat="43.0223167" lon="11.4192367"><ele>224.0</ele><time>2026-05-01T13:57:11.969Z</time></trkpt><trkpt lat="43.02221" lon="11.4191483"><ele>224.0</ele><time>2026-05-01T13:57:12.969Z</time></trkpt><trkpt lat="43.0221" lon="11.4190583"><ele>224.0</ele><time>2026-05-01T13:57:13.97Z</time></trkpt><trkpt lat="43.0219833" lon="11.4189767"><ele>224.0</ele><time>2026-05-01T13:57:14.969Z</time></trkpt><trkpt lat="43.0218667" lon="11.41891"><ele>224.0</ele><time>2026-05-01T13:57:15.969Z</time></trkpt><trkpt lat="43.0217467" lon="11.4188433"><ele>224.0</ele><time>2026-05-01T13:57:16.969Z</time></trkpt><trkpt lat="43.021625" lon="11.4187933"><ele>224.0</ele><time>2026-05-01T13:57:17.969Z</time></trkpt><trkpt lat="43.0215067" lon="11.4187433"><ele>224.0</ele><time>2026-05-01T13:57:18.969Z</time></trkpt><trkpt lat="43.0213967" lon="11.4187083"><ele>224.6</ele><time>2026-05-01T13:57:19.97Z</time></trkpt><trkpt lat="43.0212983" lon="11.4186817"><ele>225.2</ele><time>2026-05-01T13:57:20.97Z</time></trkpt><trkpt lat="43.0212233" lon="11.4186667"><ele>225.79999999999998</ele><time>2026-05-01T13:57:21.969Z</time></trkpt><trkpt lat="43.0211267" lon="11.4186867"><ele>226.39999999999998</ele><time>2026-05-01T13:57:23.97Z</time></trkpt><trkpt lat="43.021135" lon="11.4188483"><ele>227.0</ele><time>2026-05-01T13:57:30.969Z</time></trkpt><trkpt lat="43.0211817" lon="11.4189267"><ele>227.00000000000003</ele><time>2026-05-01T13:57:31.969Z</time></trkpt><trkpt lat="43.0212317" lon="11.41902"><ele>227.0</ele><time>2026-05-01T13:57:32.97Z</time></trkpt><trkpt lat="43.02128" lon="11.419115"><ele>227.0</ele><time>2026-05-01T13:57:33.969Z</time></trkpt><trkpt lat="43.0213283" lon="11.4192067"><ele>227.0</ele><time>2026-05-01T13:57:34.969Z</time></trkpt><trkpt lat="43.0213817" lon="11.419295"><ele>227.00000000000003</ele><time>2026-05-01T13:57:35.97Z</time></trkpt><trkpt lat="43.0214433" lon="11.4193967"><ele>227.0</ele><time>2026-05-01T13:57:36.97Z</time></trkpt><trkpt lat="43.0215167" lon="11.41951"><ele>227.0</ele><time>2026-05-01T13:57:37.97Z</time></trkpt><trkpt lat="43.0215917" lon="11.4196333"><ele>227.0</ele><time>2026-05-01T13:57:38.969Z</time></trkpt><trkpt lat="43.0216617" lon="11.419775"><ele>227.0</ele><time>2026-05-01T13:57:39.969Z</time></trkpt><trkpt lat="43.02174" lon="11.4199133"><ele>227.0</ele><time>2026-05-01T13:57:40.969Z</time></trkpt><trkpt lat="43.0218283" lon="11.420055"><ele>228.25</ele><time>2026-05-01T13:57:41.97Z</time></trkpt><trkpt lat="43.0219183" lon="11.4202083"><ele>229.5</ele><time>2026-05-01T13:57:42.969Z</time></trkpt><trkpt lat="43.021995" lon="11.4203517"><ele>230.75</ele><time>2026-05-01T13:57:43.97Z</time></trkpt><trkpt lat="43.02207" lon="11.4204783"><ele>232.0</ele><time>2026-05-01T13:57:44.97Z</time></trkpt><trkpt lat="43.0221433" lon="11.4205983"><ele>232.0</ele><time>2026-05-01T13:57:45.969Z</time></trkpt><trkpt lat="43.0222067" lon="11.4207183"><ele>232.0</ele><time>2026-05-01T13:57:46.97Z</time></trkpt><trkpt lat="43.0222567" lon="11.420825"><ele>232.0</ele><time>2026-05-01T13:57:47.969Z</time></trkpt><trkpt lat="43.02229" lon="11.4209367"><ele>232.0</ele><time>2026-05-01T13:57:48.97Z</time></trkpt><trkpt lat="43.0223117" lon="11.4210567"><ele>232.0</ele><time>2026-05-01T13:57:49.97Z</time></trkpt><trkpt lat="43.0223117" lon="11.4211817"><ele>232.0</ele><time>2026-05-01T13:57:50.969Z</time></trkpt><trkpt lat="43.0223" lon="11.4213117"><ele>232.0</ele><time>2026-05-01T13:57:51.969Z</time></trkpt><trkpt lat="43.0222733" lon="11.4214417"><ele>232.0</ele><time>2026-05-01T13:57:52.969Z</time></trkpt><trkpt lat="43.0222317" lon="11.421565"><ele>232.0</ele><time>2026-05-01T13:57:53.97Z</time></trkpt><trkpt lat="43.0221783" lon="11.421685"><ele>232.0</ele><time>2026-05-01T13:57:54.969Z</time></trkpt><trkpt lat="43.022125" lon="11.421795"><ele>230.0</ele><time>2026-05-01T13:57:55.97Z</time></trkpt><trkpt lat="43.0220817" lon="11.4219067"><ele>228.0</ele><time>2026-05-01T13:57:56.969Z</time></trkpt><trkpt lat="43.0220383" lon="11.4220233"><ele>226.0</ele><time>2026-05-01T13:57:57.969Z</time></trkpt><trkpt lat="43.02198" lon="11.4221617"><ele>224.0</ele><time>2026-05-01T13:57:58.97Z</time></trkpt><trkpt lat="43.0219117" lon="11.4223183"><ele>222.0</ele><time>2026-05-01T13:57:59.969Z</time></trkpt><trkpt lat="43.0218483" lon="11.42248"><ele>220.0</ele><time>2026-05-01T13:58:00.969Z</time></trkpt><trkpt lat="43.0217817" lon="11.42265"><ele>218.0</ele><time>2026-05-01T13:58:01.969Z</time></trkpt><trkpt lat="43.0216967" lon="11.42284"><ele>216.0</ele><time>2026-05-01T13:58:02.969Z</time></trkpt><trkpt lat="43.021605" lon="11.4230583"><ele>215.0</ele><time>2026-05-01T13:58:03.969Z</time></trkpt><trkpt lat="43.0215083" lon="11.42328"><ele>214.0</ele><time>2026-05-01T13:58:04.97Z</time></trkpt><trkpt lat="43.0214" lon="11.423505"><ele>213.0</ele><time>2026-05-01T13:58:05.969Z</time></trkpt><trkpt lat="43.0212983" lon="11.4237117"><ele>214.66666666666669</ele><time>2026-05-01T13:58:06.969Z</time></trkpt><trkpt lat="43.021165" lon="11.4238917"><ele>216.33333333333334</ele><time>2026-05-01T13:58:07.969Z</time></trkpt><trkpt lat="43.0210217" lon="11.4240717"><ele>218.0</ele><time>2026-05-01T13:58:08.97Z</time></trkpt><trkpt lat="43.0208683" lon="11.424245"><ele>218.33333333333334</ele><time>2026-05-01T13:58:09.97Z</time></trkpt><trkpt lat="43.0207133" lon="11.424415"><ele>218.66666666666669</ele><time>2026-05-01T13:58:10.969Z</time></trkpt><trkpt lat="43.0205667" lon="11.424595"><ele>219.0</ele><time>2026-05-01T13:58:11.97Z</time></trkpt><trkpt lat="43.0204317" lon="11.424775"><ele>221.66666666666669</ele><time>2026-05-01T13:58:12.97Z</time></trkpt><trkpt lat="43.0203" lon="11.4249667"><ele>224.33333333333334</ele><time>2026-05-01T13:58:13.969Z</time></trkpt><trkpt lat="43.0201667" lon="11.425195"><ele>227.0</ele><time>2026-05-01T13:58:14.969Z</time></trkpt><trkpt lat="43.02004" lon="11.4254517"><ele>231.33333333333334</ele><time>2026-05-01T13:58:15.969Z</time></trkpt><trkpt lat="43.0199233" lon="11.42571"><ele>235.66666666666669</ele><time>2026-05-01T13:58:16.97Z</time></trkpt><trkpt lat="43.01981" lon="11.4259517"><ele>240.0</ele><time>2026-05-01T13:58:17.969Z</time></trkpt><trkpt lat="43.019705" lon="11.42619"><ele>241.33333333333331</ele><time>2026-05-01T13:58:18.969Z</time></trkpt><trkpt lat="43.0196017" lon="11.42643"><ele>242.66666666666666</ele><time>2026-05-01T13:58:19.969Z</time></trkpt><trkpt lat="43.0195033" lon="11.42666"><ele>244.0</ele><time>2026-05-01T13:58:20.969Z</time></trkpt><trkpt lat="43.0194" lon="11.4268933"><ele>244.0</ele><time>2026-05-01T13:58:21.969Z</time></trkpt><trkpt lat="43.019295" lon="11.4271233"><ele>244.0</ele><time>2026-05-01T13:58:22.97Z</time></trkpt><trkpt lat="43.0191867" lon="11.4273467"><ele>244.0</ele><time>2026-05-01T13:58:23.969Z</time></trkpt><trkpt lat="43.0190933" lon="11.42757"><ele>246.66666666666666</ele><time>2026-05-01T13:58:24.969Z</time></trkpt><trkpt lat="43.0189983" lon="11.4277967"><ele>249.33333333333331</ele><time>2026-05-01T13:58:25.969Z</time></trkpt><trkpt lat="43.0189183" lon="11.4280233"><ele>252.0</ele><time>2026-05-01T13:58:26.969Z</time></trkpt><trkpt lat="43.0188467" lon="11.4282417"><ele>252.0</ele><time>2026-05-01T13:58:27.969Z</time></trkpt><trkpt lat="43.0187817" lon="11.4284583"><ele>252.0</ele><time>2026-05-01T13:58:28.97Z</time></trkpt><trkpt lat="43.0187133" lon="11.4286783"><ele>252.0</ele><time>2026-05-01T13:58:29.97Z</time></trkpt><trkpt lat="43.0186417" lon="11.4288917"><ele>251.33333333333331</ele><time>2026-05-01T13:58:30.97Z</time></trkpt><trkpt lat="43.01858" lon="11.42911"><ele>250.66666666666666</ele><time>2026-05-01T13:58:31.969Z</time></trkpt><trkpt lat="43.0185217" lon="11.4293317"><ele>250.0</ele><time>2026-05-01T13:58:32.969Z</time></trkpt><trkpt lat="43.018455" lon="11.4295517"><ele>249.33333333333331</ele><time>2026-05-01T13:58:33.97Z</time></trkpt><trkpt lat="43.0183967" lon="11.4297717"><ele>248.66666666666669</ele><time>2026-05-01T13:58:34.969Z</time></trkpt><trkpt lat="43.0183333" lon="11.42999"><ele>248.0</ele><time>2026-05-01T13:58:35.969Z</time></trkpt><trkpt lat="43.018275" lon="11.4302067"><ele>248.0</ele><time>2026-05-01T13:58:36.97Z</time></trkpt><trkpt lat="43.0182083" lon="11.4304333"><ele>248.0</ele><time>2026-05-01T13:58:37.969Z</time></trkpt><trkpt lat="43.0181417" lon="11.4306517"><ele>248.0</ele><time>2026-05-01T13:58:38.968Z</time></trkpt><trkpt lat="43.01808" lon="11.4308717"><ele>246.0</ele><time>2026-05-01T13:58:39.968Z</time></trkpt><trkpt lat="43.01802" lon="11.43108"><ele>244.0</ele><time>2026-05-01T13:58:40.968Z</time></trkpt><trkpt lat="43.01796" lon="11.4312867"><ele>242.0</ele><time>2026-05-01T13:58:41.968Z</time></trkpt><trkpt lat="43.0178967" lon="11.431485"><ele>241.0</ele><time>2026-05-01T13:58:42.969Z</time></trkpt><trkpt lat="43.0178333" lon="11.4316933"><ele>240.0</ele><time>2026-05-01T13:58:43.969Z</time></trkpt><trkpt lat="43.0177667" lon="11.431905"><ele>239.0</ele><time>2026-05-01T13:58:44.968Z</time></trkpt><trkpt lat="43.017705" lon="11.4321183"><ele>239.0</ele><time>2026-05-01T13:58:45.968Z</time></trkpt><trkpt lat="43.01764" lon="11.432345"><ele>239.0</ele><time>2026-05-01T13:58:46.968Z</time></trkpt><trkpt lat="43.017575" lon="11.4325783"><ele>239.0</ele><time>2026-05-01T13:58:47.968Z</time></trkpt><trkpt lat="43.017505" lon="11.43281"><ele>240.33333333333334</ele><time>2026-05-01T13:58:48.969Z</time></trkpt><trkpt lat="43.0174333" lon="11.4330417"><ele>241.66666666666669</ele><time>2026-05-01T13:58:49.968Z</time></trkpt><trkpt lat="43.017365" lon="11.4332817"><ele>243.0</ele><time>2026-05-01T13:58:50.968Z</time></trkpt><trkpt lat="43.017295" lon="11.433525"><ele>243.0</ele><time>2026-05-01T13:58:51.968Z</time></trkpt><trkpt lat="43.0172267" lon="11.4337533"><ele>243.0</ele><time>2026-05-01T13:58:52.968Z</time></trkpt><trkpt lat="43.0171517" lon="11.4339933"><ele>243.0</ele><time>2026-05-01T13:58:53.968Z</time></trkpt><trkpt lat="43.0170817" lon="11.4342267"><ele>245.0</ele><time>2026-05-01T13:58:54.969Z</time></trkpt><trkpt lat="43.0170133" lon="11.4344517"><ele>247.0</ele><time>2026-05-01T13:58:55.969Z</time></trkpt><trkpt lat="43.0169467" lon="11.4346867"><ele>249.0</ele><time>2026-05-01T13:58:56.968Z</time></trkpt><trkpt lat="43.016875" lon="11.4349183"><ele>249.66666666666669</ele><time>2026-05-01T13:58:57.969Z</time></trkpt><trkpt lat="43.0168083" lon="11.43515"><ele>250.33333333333334</ele><time>2026-05-01T13:58:58.968Z</time></trkpt><trkpt lat="43.0167417" lon="11.4353867"><ele>251.0</ele><time>2026-05-01T13:58:59.968Z</time></trkpt><trkpt lat="43.016675" lon="11.4356217"><ele>252.66666666666669</ele><time>2026-05-01T13:59:00.968Z</time></trkpt><trkpt lat="43.0166067" lon="11.4358517"><ele>254.33333333333331</ele><time>2026-05-01T13:59:01.968Z</time></trkpt><trkpt lat="43.0165383" lon="11.436085"><ele>256.0</ele><time>2026-05-01T13:59:02.969Z</time></trkpt><trkpt lat="43.016465" lon="11.4363183"><ele>257.0</ele><time>2026-05-01T13:59:03.968Z</time></trkpt><trkpt lat="43.016395" lon="11.43655"><ele>258.0</ele><time>2026-05-01T13:59:04.968Z</time></trkpt><trkpt lat="43.0163267" lon="11.4367883"><ele>259.0</ele><time>2026-05-01T13:59:05.968Z</time></trkpt><trkpt lat="43.0162567" lon="11.4370217"><ele>261.0</ele><time>2026-05-01T13:59:06.969Z</time></trkpt><trkpt lat="43.0161867" lon="11.437245"><ele>263.0</ele><time>2026-05-01T13:59:07.968Z</time></trkpt><trkpt lat="43.0161233" lon="11.43746"><ele>265.0</ele><time>2026-05-01T13:59:08.969Z</time></trkpt><trkpt lat="43.0160633" lon="11.4376617"><ele>265.0</ele><time>2026-05-01T13:59:09.968Z</time></trkpt><trkpt lat="43.0160017" lon="11.4378533"><ele>265.0</ele><time>2026-05-01T13:59:10.968Z</time></trkpt><trkpt lat="43.015945" lon="11.43806"><ele>265.0</ele><time>2026-05-01T13:59:11.968Z</time></trkpt><trkpt lat="43.0158867" lon="11.4382583"><ele>266.0</ele><time>2026-05-01T13:59:12.969Z</time></trkpt><trkpt lat="43.0158383" lon="11.438435"><ele>267.0</ele><time>2026-05-01T13:59:13.969Z</time></trkpt><trkpt lat="43.0157917" lon="11.4385867"><ele>268.0</ele><time>2026-05-01T13:59:14.968Z</time></trkpt><trkpt lat="43.0157433" lon="11.4386833"><ele>269.0</ele><time>2026-05-01T13:59:15.969Z</time></trkpt><trkpt lat="43.0156917" lon="11.4387383"><ele>270.0</ele><time>2026-05-01T13:59:16.968Z</time></trkpt><trkpt lat="43.0155983" lon="11.4387367"><ele>270.8</ele><time>2026-05-01T13:59:18.969Z</time></trkpt><trkpt lat="43.0155283" lon="11.4386367"><ele>271.6</ele><time>2026-05-01T13:59:39.969Z</time></trkpt><trkpt lat="43.0154867" lon="11.438535"><ele>272.4</ele><time>2026-05-01T13:59:40.968Z</time></trkpt><trkpt lat="43.01543" lon="11.4383983"><ele>273.2</ele><time>2026-05-01T13:59:41.968Z</time></trkpt><trkpt lat="43.0153667" lon="11.4382517"><ele>274.0</ele><time>2026-05-01T13:59:42.969Z</time></trkpt><trkpt lat="43.0153117" lon="11.4381167"><ele>274.0</ele><time>2026-05-01T13:59:43.969Z</time></trkpt><trkpt lat="43.015245" lon="11.4379983"><ele>274.0</ele><time>2026-05-01T13:59:44.969Z</time></trkpt><trkpt lat="43.0151817" lon="11.4378767"><ele>274.0</ele><time>2026-05-01T13:59:45.968Z</time></trkpt><trkpt lat="43.0151283" lon="11.4377483"><ele>274.0</ele><time>2026-05-01T13:59:46.968Z</time></trkpt><trkpt lat="43.015075" lon="11.437625"><ele>274.0</ele><time>2026-05-01T13:59:47.968Z</time></trkpt><trkpt lat="43.0150283" lon="11.437485"><ele>271.0</ele><time>2026-05-01T13:59:48.968Z</time></trkpt><trkpt lat="43.014985" lon="11.43733"><ele>268.0</ele><time>2026-05-01T13:59:49.969Z</time></trkpt><trkpt lat="43.0149517" lon="11.4371783"><ele>265.0</ele><time>2026-05-01T13:59:50.969Z</time></trkpt><trkpt lat="43.0149283" lon="11.43702"><ele>262.0</ele><time>2026-05-01T13:59:51.968Z</time></trkpt><trkpt lat="43.0149167" lon="11.4368517"><ele>261.25</ele><time>2026-05-01T13:59:52.968Z</time></trkpt><trkpt lat="43.0149017" lon="11.43668"><ele>260.5</ele><time>2026-05-01T13:59:53.969Z</time></trkpt><trkpt lat="43.0148917" lon="11.4364983"><ele>259.75</ele><time>2026-05-01T13:59:54.968Z</time></trkpt><trkpt lat="43.014875" lon="11.43631"><ele>259.0</ele><time>2026-05-01T13:59:55.969Z</time></trkpt><trkpt lat="43.014865" lon="11.4361233"><ele>258.5</ele><time>2026-05-01T13:59:56.968Z</time></trkpt><trkpt lat="43.01486" lon="11.4359317"><ele>258.0</ele><time>2026-05-01T13:59:57.968Z</time></trkpt><trkpt lat="43.014855" lon="11.43574"><ele>257.5</ele><time>2026-05-01T13:59:58.969Z</time></trkpt><trkpt lat="43.0148467" lon="11.4355433"><ele>257.0</ele><time>2026-05-01T13:59:59.969Z</time></trkpt><trkpt lat="43.0148333" lon="11.435345"><ele>256.75</ele><time>2026-05-01T14:00:00.968Z</time></trkpt><trkpt lat="43.0148167" lon="11.4351517"><ele>256.5</ele><time>2026-05-01T14:00:01.969Z</time></trkpt><trkpt lat="43.0147983" lon="11.4349483"><ele>256.25</ele><time>2026-05-01T14:00:02.968Z</time></trkpt><trkpt lat="43.014775" lon="11.434745"><ele>256.0</ele><time>2026-05-01T14:00:03.969Z</time></trkpt><trkpt lat="43.014745" lon="11.4345417"><ele>255.75</ele><time>2026-05-01T14:00:04.969Z</time></trkpt><trkpt lat="43.0147167" lon="11.4343367"><ele>255.5</ele><time>2026-05-01T14:00:05.969Z</time></trkpt><trkpt lat="43.014705" lon="11.4341483"><ele>255.25</ele><time>2026-05-01T14:00:06.968Z</time></trkpt><trkpt lat="43.0147" lon="11.43397"><ele>255.0</ele><time>2026-05-01T14:00:07.968Z</time></trkpt><trkpt lat="43.014715" lon="11.4338033"><ele>254.0</ele><time>2026-05-01T14:00:08.968Z</time></trkpt><trkpt lat="43.0147533" lon="11.4336417"><ele>253.0</ele><time>2026-05-01T14:00:09.968Z</time></trkpt><trkpt lat="43.014815" lon="11.4334817"><ele>252.0</ele><time>2026-05-01T14:00:10.969Z</time></trkpt><trkpt lat="43.0148767" lon="11.433335"><ele>251.0</ele><time>2026-05-01T14:00:11.969Z</time></trkpt><trkpt lat="43.014925" lon="11.43319"><ele>251.0</ele><time>2026-05-01T14:00:12.968Z</time></trkpt><trkpt lat="43.01496" lon="11.433035"><ele>251.0</ele><time>2026-05-01T14:00:13.968Z</time></trkpt><trkpt lat="43.014985" lon="11.43287"><ele>251.0</ele><time>2026-05-01T14:00:14.969Z</time></trkpt><trkpt lat="43.0149883" lon="11.4326867"><ele>251.0</ele><time>2026-05-01T14:00:15.969Z</time></trkpt><trkpt lat="43.0149667" lon="11.43249"><ele>250.25</ele><time>2026-05-01T14:00:16.968Z</time></trkpt><trkpt lat="43.0149317" lon="11.4322883"><ele>249.5</ele><time>2026-05-01T14:00:17.969Z</time></trkpt><trkpt lat="43.0149" lon="11.43209"><ele>248.75</ele><time>2026-05-01T14:00:18.969Z</time></trkpt><trkpt lat="43.014865" lon="11.4318967"><ele>248.0</ele><time>2026-05-01T14:00:19.968Z</time></trkpt><trkpt lat="43.0148283" lon="11.431695"><ele>247.25</ele><time>2026-05-01T14:00:20.968Z</time></trkpt><trkpt lat="43.014795" lon="11.4315"><ele>246.5</ele><time>2026-05-01T14:00:21.968Z</time></trkpt><trkpt lat="43.0147617" lon="11.4313033"><ele>245.75</ele><time>2026-05-01T14:00:22.968Z</time></trkpt><trkpt lat="43.01472" lon="11.4311217"><ele>245.0</ele><time>2026-05-01T14:00:23.969Z</time></trkpt><trkpt lat="43.0146717" lon="11.430955"><ele>243.75</ele><time>2026-05-01T14:00:24.969Z</time></trkpt><trkpt lat="43.0146117" lon="11.430795"><ele>242.5</ele><time>2026-05-01T14:00:25.969Z</time></trkpt><trkpt lat="43.0145233" lon="11.4306683"><ele>241.25</ele><time>2026-05-01T14:00:26.969Z</time></trkpt><trkpt lat="43.014415" lon="11.4305717"><ele>240.0</ele><time>2026-05-01T14:00:27.968Z</time></trkpt><trkpt lat="43.0142883" lon="11.430495"><ele>239.0</ele><time>2026-05-01T14:00:28.969Z</time></trkpt><trkpt lat="43.0141717" lon="11.4303967"><ele>238.0</ele><time>2026-05-01T14:00:29.969Z</time></trkpt><trkpt lat="43.01407" lon="11.4302717"><ele>237.0</ele><time>2026-05-01T14:00:30.968Z</time></trkpt><trkpt lat="43.0139883" lon="11.4301233"><ele>236.0</ele><time>2026-05-01T14:00:31.969Z</time></trkpt><trkpt lat="43.0139333" lon="11.4299533"><ele>236.0</ele><time>2026-05-01T14:00:32.968Z</time></trkpt><trkpt lat="43.0138867" lon="11.4297533"><ele>236.0</ele><time>2026-05-01T14:00:33.968Z</time></trkpt><trkpt lat="43.013855" lon="11.42956"><ele>236.0</ele><time>2026-05-01T14:00:34.968Z</time></trkpt><trkpt lat="43.0138067" lon="11.429395"><ele>236.0</ele><time>2026-05-01T14:00:35.968Z</time></trkpt><trkpt lat="43.013735" lon="11.4292617"><ele>234.5</ele><time>2026-05-01T14:00:36.968Z</time></trkpt><trkpt lat="43.0136383" lon="11.4291533"><ele>233.0</ele><time>2026-05-01T14:00:37.968Z</time></trkpt><trkpt lat="43.0135167" lon="11.4290783"><ele>231.5</ele><time>2026-05-01T14:00:38.968Z</time></trkpt><trkpt lat="43.0133933" lon="11.429005"><ele>230.0</ele><time>2026-05-01T14:00:39.968Z</time></trkpt><trkpt lat="43.01327" lon="11.4289317"><ele>230.0</ele><time>2026-05-01T14:00:40.968Z</time></trkpt><trkpt lat="43.0131417" lon="11.4288633"><ele>230.0</ele><time>2026-05-01T14:00:41.968Z</time></trkpt><trkpt lat="43.0130083" lon="11.4288067"><ele>230.0</ele><time>2026-05-01T14:00:42.968Z</time></trkpt><trkpt lat="43.0128767" lon="11.42875"><ele>230.0</ele><time>2026-05-01T14:00:43.968Z</time></trkpt><trkpt lat="43.0127467" lon="11.4286983"><ele>229.5</ele><time>2026-05-01T14:00:44.968Z</time></trkpt><trkpt lat="43.0126133" lon="11.428645"><ele>229.0</ele><time>2026-05-01T14:00:45.968Z</time></trkpt><trkpt lat="43.0124867" lon="11.42858"><ele>228.5</ele><time>2026-05-01T14:00:46.968Z</time></trkpt><trkpt lat="43.0123683" lon="11.4285033"><ele>228.0</ele><time>2026-05-01T14:00:47.968Z</time></trkpt><trkpt lat="43.01224" lon="11.4284067"><ele>228.0</ele><time>2026-05-01T14:00:48.968Z</time></trkpt><trkpt lat="43.0121167" lon="11.4283067"><ele>228.0</ele><time>2026-05-01T14:00:49.968Z</time></trkpt><trkpt lat="43.0120067" lon="11.4281967"><ele>228.0</ele><time>2026-05-01T14:00:50.968Z</time></trkpt><trkpt lat="43.0118933" lon="11.4280817"><ele>228.0</ele><time>2026-05-01T14:00:51.969Z</time></trkpt><trkpt lat="43.0117733" lon="11.42798"><ele>227.5</ele><time>2026-05-01T14:00:52.968Z</time></trkpt><trkpt lat="43.01165" lon="11.4278667"><ele>227.0</ele><time>2026-05-01T14:00:53.968Z</time></trkpt><trkpt lat="43.01153" lon="11.4277367"><ele>226.5</ele><time>2026-05-01T14:00:54.968Z</time></trkpt><trkpt lat="43.0114267" lon="11.4275967"><ele>226.0</ele><time>2026-05-01T14:00:55.968Z</time></trkpt><trkpt lat="43.01133" lon="11.4274567"><ele>226.0</ele><time>2026-05-01T14:00:56.969Z</time></trkpt><trkpt lat="43.0112367" lon="11.4272983"><ele>226.0</ele><time>2026-05-01T14:00:57.968Z</time></trkpt><trkpt lat="43.0111467" lon="11.427125"><ele>226.0</ele><time>2026-05-01T14:00:58.968Z</time></trkpt><trkpt lat="43.01106" lon="11.42695"><ele>227.33333333333331</ele><time>2026-05-01T14:00:59.968Z</time></trkpt><trkpt lat="43.0109733" lon="11.42676"><ele>228.66666666666669</ele><time>2026-05-01T14:01:00.968Z</time></trkpt><trkpt lat="43.0108933" lon="11.4265667"><ele>230.0</ele><time>2026-05-01T14:01:01.969Z</time></trkpt><trkpt lat="43.010795" lon="11.4263867"><ele>229.0</ele><time>2026-05-01T14:01:02.968Z</time></trkpt><trkpt lat="43.0106867" lon="11.426195"><ele>228.0</ele><time>2026-05-01T14:01:03.968Z</time></trkpt><trkpt lat="43.0105917" lon="11.4260167"><ele>227.0</ele><time>2026-05-01T14:01:04.969Z</time></trkpt><trkpt lat="43.010495" lon="11.425845"><ele>227.0</ele><time>2026-05-01T14:01:05.968Z</time></trkpt><trkpt lat="43.0104183" lon="11.425675"><ele>227.0</ele><time>2026-05-01T14:01:06.969Z</time></trkpt><trkpt lat="43.01036" lon="11.4254983"><ele>227.0</ele><time>2026-05-01T14:01:07.969Z</time></trkpt><trkpt lat="43.0103133" lon="11.42531"><ele>227.0</ele><time>2026-05-01T14:01:08.969Z</time></trkpt><trkpt lat="43.0102717" lon="11.4251067"><ele>226.0</ele><time>2026-05-01T14:01:09.968Z</time></trkpt><trkpt lat="43.01024" lon="11.4249167"><ele>225.0</ele><time>2026-05-01T14:01:10.968Z</time></trkpt><trkpt lat="43.0102067" lon="11.4247083"><ele>224.0</ele><time>2026-05-01T14:01:11.968Z</time></trkpt><trkpt lat="43.0101683" lon="11.4245033"><ele>223.25</ele><time>2026-05-01T14:01:12.968Z</time></trkpt><trkpt lat="43.010125" lon="11.4242967"><ele>222.5</ele><time>2026-05-01T14:01:13.968Z</time></trkpt><trkpt lat="43.01009" lon="11.4241083"><ele>221.75</ele><time>2026-05-01T14:01:14.968Z</time></trkpt><trkpt lat="43.01005" lon="11.4239217"><ele>221.0</ele><time>2026-05-01T14:01:15.969Z</time></trkpt><trkpt lat="43.0100083" lon="11.4237383"><ele>219.0</ele><time>2026-05-01T14:01:16.969Z</time></trkpt><trkpt lat="43.0099683" lon="11.4235317"><ele>217.0</ele><time>2026-05-01T14:01:17.968Z</time></trkpt><trkpt lat="43.0099267" lon="11.4233267"><ele>215.0</ele><time>2026-05-01T14:01:18.969Z</time></trkpt><trkpt lat="43.0098517" lon="11.4231033"><ele>215.0</ele><time>2026-05-01T14:01:19.969Z</time></trkpt><trkpt lat="43.0097633" lon="11.4228483"><ele>215.0</ele><time>2026-05-01T14:01:20.969Z</time></trkpt><trkpt lat="43.009675" lon="11.4225783"><ele>215.0</ele><time>2026-05-01T14:01:21.969Z</time></trkpt><trkpt lat="43.009595" lon="11.4223283"><ele>216.33333333333334</ele><time>2026-05-01T14:01:22.969Z</time></trkpt><trkpt lat="43.0095183" lon="11.4220883"><ele>217.66666666666669</ele><time>2026-05-01T14:01:23.968Z</time></trkpt><trkpt lat="43.009445" lon="11.4218717"><ele>219.0</ele><time>2026-05-01T14:01:24.968Z</time></trkpt><trkpt lat="43.0093683" lon="11.4216733"><ele>219.0</ele><time>2026-05-01T14:01:25.968Z</time></trkpt><trkpt lat="43.00928" lon="11.4214967"><ele>219.0</ele><time>2026-05-01T14:01:26.968Z</time></trkpt><trkpt lat="43.0091567" lon="11.42134"><ele>219.0</ele><time>2026-05-01T14:01:27.968Z</time></trkpt><trkpt lat="43.009005" lon="11.4212183"><ele>221.33333333333331</ele><time>2026-05-01T14:01:28.969Z</time></trkpt><trkpt lat="43.0088383" lon="11.4211033"><ele>223.66666666666666</ele><time>2026-05-01T14:01:29.969Z</time></trkpt><trkpt lat="43.0086567" lon="11.4209817"><ele>226.0</ele><time>2026-05-01T14:01:30.968Z</time></trkpt><trkpt lat="43.0084833" lon="11.4208433"><ele>228.0</ele><time>2026-05-01T14:01:31.969Z</time></trkpt><trkpt lat="43.008315" lon="11.42071"><ele>230.0</ele><time>2026-05-01T14:01:32.969Z</time></trkpt><trkpt lat="43.0081517" lon="11.42058"><ele>232.0</ele><time>2026-05-01T14:01:33.968Z</time></trkpt><trkpt lat="43.0079767" lon="11.4204367"><ele>232.33333333333331</ele><time>2026-05-01T14:01:34.969Z</time></trkpt><trkpt lat="43.0077883" lon="11.42028"><ele>232.66666666666669</ele><time>2026-05-01T14:01:35.968Z</time></trkpt><trkpt lat="43.0076033" lon="11.42012"><ele>233.0</ele><time>2026-05-01T14:01:36.968Z</time></trkpt><trkpt lat="43.0074433" lon="11.4199783"><ele>233.0</ele><time>2026-05-01T14:01:37.969Z</time></trkpt><trkpt lat="43.007305" lon="11.41987"><ele>233.0</ele><time>2026-05-01T14:01:38.969Z</time></trkpt><trkpt lat="43.007165" lon="11.4197583"><ele>233.0</ele><time>2026-05-01T14:01:39.968Z</time></trkpt><trkpt lat="43.0070033" lon="11.41962"><ele>233.0</ele><time>2026-05-01T14:01:40.968Z</time></trkpt><trkpt lat="43.0068533" lon="11.4194533"><ele>233.0</ele><time>2026-05-01T14:01:41.968Z</time></trkpt><trkpt lat="43.006705" lon="11.4192767"><ele>233.0</ele><time>2026-05-01T14:01:42.968Z</time></trkpt><trkpt lat="43.00657" lon="11.4190933"><ele>233.0</ele><time>2026-05-01T14:01:43.969Z</time></trkpt><trkpt lat="43.0064483" lon="11.4189033"><ele>233.0</ele><time>2026-05-01T14:01:44.968Z</time></trkpt><trkpt lat="43.006345" lon="11.4187"><ele>233.0</ele><time>2026-05-01T14:01:45.969Z</time></trkpt><trkpt lat="43.0062467" lon="11.4185083"><ele>231.66666666666669</ele><time>2026-05-01T14:01:46.969Z</time></trkpt><trkpt lat="43.0061583" lon="11.41832"><ele>230.33333333333331</ele><time>2026-05-01T14:01:47.968Z</time></trkpt><trkpt lat="43.0060667" lon="11.4181333"><ele>229.0</ele><time>2026-05-01T14:01:48.969Z</time></trkpt><trkpt lat="43.0059783" lon="11.41795"><ele>228.0</ele><time>2026-05-01T14:01:49.969Z</time></trkpt><trkpt lat="43.0058867" lon="11.4177633"><ele>227.0</ele><time>2026-05-01T14:01:50.968Z</time></trkpt><trkpt lat="43.0057833" lon="11.4175817"><ele>226.0</ele><time>2026-05-01T14:01:51.968Z</time></trkpt><trkpt lat="43.00569" lon="11.41739"><ele>226.0</ele><time>2026-05-01T14:01:52.969Z</time></trkpt><trkpt lat="43.0055917" lon="11.4171983"><ele>226.0</ele><time>2026-05-01T14:01:53.968Z</time></trkpt><trkpt lat="43.005495" lon="11.41699"><ele>226.0</ele><time>2026-05-01T14:01:54.968Z</time></trkpt><trkpt lat="43.0053817" lon="11.4167517"><ele>225.66666666666666</ele><time>2026-05-01T14:01:55.968Z</time></trkpt><trkpt lat="43.00527" lon="11.41651"><ele>225.33333333333331</ele><time>2026-05-01T14:01:56.969Z</time></trkpt><trkpt lat="43.0051533" lon="11.4162567"><ele>225.0</ele><time>2026-05-01T14:01:57.968Z</time></trkpt><trkpt lat="43.0050417" lon="11.416005"><ele>224.66666666666669</ele><time>2026-05-01T14:01:58.968Z</time></trkpt><trkpt lat="43.0049283" lon="11.4157617"><ele>224.33333333333334</ele><time>2026-05-01T14:01:59.968Z</time></trkpt><trkpt lat="43.004825" lon="11.4155283"><ele>224.0</ele><time>2026-05-01T14:02:00.969Z</time></trkpt><trkpt lat="43.0047167" lon="11.4152983"><ele>226.0</ele><time>2026-05-01T14:02:01.969Z</time></trkpt><trkpt lat="43.0046033" lon="11.41506"><ele>228.0</ele><time>2026-05-01T14:02:02.968Z</time></trkpt><trkpt lat="43.00448" lon="11.4148333"><ele>230.0</ele><time>2026-05-01T14:02:03.968Z</time></trkpt><trkpt lat="43.0043567" lon="11.4146067"><ele>231.0</ele><time>2026-05-01T14:02:04.968Z</time></trkpt><trkpt lat="43.00423" lon="11.4143833"><ele>232.0</ele><time>2026-05-01T14:02:05.969Z</time></trkpt><trkpt lat="43.004105" lon="11.4141517"><ele>233.0</ele><time>2026-05-01T14:02:06.969Z</time></trkpt><trkpt lat="43.00397" lon="11.413905"><ele>232.5</ele><time>2026-05-01T14:02:07.969Z</time></trkpt><trkpt lat="43.0038267" lon="11.4136367"><ele>232.0</ele><time>2026-05-01T14:02:08.969Z</time></trkpt><trkpt lat="43.0036967" lon="11.4134017"><ele>232.0</ele><time>2026-05-01T14:02:09.968Z</time></trkpt><trkpt lat="43.003575" lon="11.4131833"><ele>232.0</ele><time>2026-05-01T14:02:10.969Z</time></trkpt><trkpt lat="43.003455" lon="11.4129733"><ele>232.0</ele><time>2026-05-01T14:02:11.968Z</time></trkpt><trkpt lat="43.0033317" lon="11.412765"><ele>232.0</ele><time>2026-05-01T14:02:12.969Z</time></trkpt><trkpt lat="43.0032117" lon="11.4125517"><ele>232.0</ele><time>2026-05-01T14:02:13.968Z</time></trkpt><trkpt lat="43.0030967" lon="11.41235"><ele>232.0</ele><time>2026-05-01T14:02:14.968Z</time></trkpt><trkpt lat="43.00299" lon="11.4121583"><ele>234.0</ele><time>2026-05-01T14:02:15.968Z</time></trkpt><trkpt lat="43.0028883" lon="11.41198"><ele>236.0</ele><time>2026-05-01T14:02:16.968Z</time></trkpt><trkpt lat="43.0027967" lon="11.4118067"><ele>238.0</ele><time>2026-05-01T14:02:17.968Z</time></trkpt><trkpt lat="43.0027117" lon="11.4116417"><ele>238.0</ele><time>2026-05-01T14:02:18.968Z</time></trkpt><trkpt lat="43.0026283" lon="11.4114817"><ele>238.0</ele><time>2026-05-01T14:02:19.968Z</time></trkpt><trkpt lat="43.0025417" lon="11.4113283"><ele>238.0</ele><time>2026-05-01T14:02:20.969Z</time></trkpt><trkpt lat="43.0024533" lon="11.4111867"><ele>238.0</ele><time>2026-05-01T14:02:21.968Z</time></trkpt><trkpt lat="43.002355" lon="11.4110517"><ele>238.25</ele><time>2026-05-01T14:02:22.968Z</time></trkpt><trkpt lat="43.0022667" lon="11.410915"><ele>238.5</ele><time>2026-05-01T14:02:23.968Z</time></trkpt><trkpt lat="43.0021667" lon="11.4107967"><ele>238.75</ele><time>2026-05-01T14:02:24.968Z</time></trkpt><trkpt lat="43.0020717" lon="11.41071"><ele>239.0</ele><time>2026-05-01T14:02:25.968Z</time></trkpt><trkpt lat="43.00195" lon="11.4106583"><ele>239.0</ele><time>2026-05-01T14:02:26.969Z</time></trkpt><trkpt lat="43.0018217" lon="11.41065"><ele>239.0</ele><time>2026-05-01T14:02:27.968Z</time></trkpt><trkpt lat="43.0016867" lon="11.4106783"><ele>239.0</ele><time>2026-05-01T14:02:28.968Z</time></trkpt><trkpt lat="43.0015617" lon="11.4107017"><ele>239.0</ele><time>2026-05-01T14:02:29.968Z</time></trkpt><trkpt lat="43.0014333" lon="11.4107317"><ele>238.75</ele><time>2026-05-01T14:02:30.968Z</time></trkpt><trkpt lat="43.0013017" lon="11.4107633"><ele>238.5</ele><time>2026-05-01T14:02:31.968Z</time></trkpt><trkpt lat="43.0011717" lon="11.4107933"><ele>238.25</ele><time>2026-05-01T14:02:32.968Z</time></trkpt><trkpt lat="43.001035" lon="11.4108217"><ele>238.0</ele><time>2026-05-01T14:02:33.968Z</time></trkpt><trkpt lat="43.0009017" lon="11.4108517"><ele>239.33333333333331</ele><time>2026-05-01T14:02:34.968Z</time></trkpt><trkpt lat="43.0007517" lon="11.41088"><ele>240.66666666666669</ele><time>2026-05-01T14:02:35.968Z</time></trkpt><trkpt lat="43.0005983" lon="11.4109183"><ele>242.0</ele><time>2026-05-01T14:02:36.968Z</time></trkpt><trkpt lat="43.0004417" lon="11.41095"><ele>242.0</ele><time>2026-05-01T14:02:37.968Z</time></trkpt><trkpt lat="43.0002917" lon="11.41098"><ele>242.0</ele><time>2026-05-01T14:02:38.969Z</time></trkpt><trkpt lat="43.0001317" lon="11.4110117"><ele>242.0</ele><time>2026-05-01T14:02:39.969Z</time></trkpt><trkpt lat="42.9999683" lon="11.411045"><ele>242.0</ele><time>2026-05-01T14:02:40.968Z</time></trkpt><trkpt lat="42.999805" lon="11.4110767"><ele>242.0</ele><time>2026-05-01T14:02:41.968Z</time></trkpt><trkpt lat="42.99964" lon="11.4111083"><ele>242.0</ele><time>2026-05-01T14:02:42.968Z</time></trkpt><trkpt lat="42.9994767" lon="11.4111433"><ele>242.0</ele><time>2026-05-01T14:02:43.968Z</time></trkpt><trkpt lat="42.9993133" lon="11.411175"><ele>242.0</ele><time>2026-05-01T14:02:44.968Z</time></trkpt><trkpt lat="42.9991483" lon="11.4112033"><ele>242.0</ele><time>2026-05-01T14:02:45.969Z</time></trkpt><trkpt lat="42.9989817" lon="11.4112367"><ele>242.66666666666669</ele><time>2026-05-01T14:02:46.968Z</time></trkpt><trkpt lat="42.9988167" lon="11.4112667"><ele>243.33333333333331</ele><time>2026-05-01T14:02:47.969Z</time></trkpt><trkpt lat="42.9986517" lon="11.4113"><ele>244.0</ele><time>2026-05-01T14:02:48.969Z</time></trkpt><trkpt lat="42.99849" lon="11.4113283"><ele>246.66666666666666</ele><time>2026-05-01T14:02:49.969Z</time></trkpt><trkpt lat="42.9983217" lon="11.4113583"><ele>249.33333333333331</ele><time>2026-05-01T14:02:50.968Z</time></trkpt><trkpt lat="42.998155" lon="11.4113933"><ele>252.0</ele><time>2026-05-01T14:02:51.968Z</time></trkpt><trkpt lat="42.99799" lon="11.411425"><ele>252.0</ele><time>2026-05-01T14:02:52.968Z</time></trkpt><trkpt lat="42.9978267" lon="11.41146"><ele>252.0</ele><time>2026-05-01T14:02:53.969Z</time></trkpt><trkpt lat="42.9976667" lon="11.4114967"><ele>252.0</ele><time>2026-05-01T14:02:54.969Z</time></trkpt><trkpt lat="42.997515" lon="11.4115233"><ele>252.0</ele><time>2026-05-01T14:02:55.968Z</time></trkpt><trkpt lat="42.9973717" lon="11.4115533"><ele>252.0</ele><time>2026-05-01T14:02:56.969Z</time></trkpt><trkpt lat="42.99723" lon="11.41158"><ele>252.0</ele><time>2026-05-01T14:02:57.969Z</time></trkpt><trkpt lat="42.9970817" lon="11.4116017"><ele>252.0</ele><time>2026-05-01T14:02:58.968Z</time></trkpt><trkpt lat="42.9969233" lon="11.4116233"><ele>252.0</ele><time>2026-05-01T14:02:59.968Z</time></trkpt><trkpt lat="42.9967667" lon="11.4116417"><ele>252.0</ele><time>2026-05-01T14:03:00.969Z</time></trkpt><trkpt lat="42.9966133" lon="11.4116683"><ele>252.0</ele><time>2026-05-01T14:03:01.968Z</time></trkpt><trkpt lat="42.9964617" lon="11.411705"><ele>253.0</ele><time>2026-05-01T14:03:02.969Z</time></trkpt><trkpt lat="42.9963133" lon="11.41176"><ele>254.0</ele><time>2026-05-01T14:03:03.968Z</time></trkpt><trkpt lat="42.9961517" lon="11.41182"><ele>255.0</ele><time>2026-05-01T14:03:04.969Z</time></trkpt><trkpt lat="42.9959867" lon="11.4118833"><ele>254.33333333333331</ele><time>2026-05-01T14:03:05.968Z</time></trkpt><trkpt lat="42.99582" lon="11.411945"><ele>253.66666666666666</ele><time>2026-05-01T14:03:06.968Z</time></trkpt><trkpt lat="42.9956667" lon="11.412"><ele>253.0</ele><time>2026-05-01T14:03:07.968Z</time></trkpt><trkpt lat="42.9955133" lon="11.4120517"><ele>253.0</ele><time>2026-05-01T14:03:08.968Z</time></trkpt><trkpt lat="42.9953617" lon="11.4120917"><ele>253.0</ele><time>2026-05-01T14:03:09.969Z</time></trkpt><trkpt lat="42.9952033" lon="11.4121267"><ele>253.0</ele><time>2026-05-01T14:03:10.968Z</time></trkpt><trkpt lat="42.995035" lon="11.4121333"><ele>252.33333333333331</ele><time>2026-05-01T14:03:11.968Z</time></trkpt><trkpt lat="42.9948683" lon="11.4121133"><ele>251.66666666666669</ele><time>2026-05-01T14:03:12.968Z</time></trkpt><trkpt lat="42.99471" lon="11.41205"><ele>251.0</ele><time>2026-05-01T14:03:13.968Z</time></trkpt><trkpt lat="42.99456" lon="11.41194"><ele>251.0</ele><time>2026-05-01T14:03:14.968Z</time></trkpt><trkpt lat="42.99442" lon="11.4118167"><ele>251.0</ele><time>2026-05-01T14:03:15.968Z</time></trkpt><trkpt lat="42.9942817" lon="11.4117017"><ele>251.0</ele><time>2026-05-01T14:03:16.968Z</time></trkpt><trkpt lat="42.99414" lon="11.4115767"><ele>250.66666666666669</ele><time>2026-05-01T14:03:17.969Z</time></trkpt><trkpt lat="42.993995" lon="11.4114533"><ele>250.33333333333331</ele><time>2026-05-01T14:03:18.968Z</time></trkpt><trkpt lat="42.993855" lon="11.4113283"><ele>250.0</ele><time>2026-05-01T14:03:19.969Z</time></trkpt><trkpt lat="42.993705" lon="11.4112083"><ele>248.66666666666666</ele><time>2026-05-01T14:03:20.968Z</time></trkpt><trkpt lat="42.9935667" lon="11.4110667"><ele>247.33333333333331</ele><time>2026-05-01T14:03:21.968Z</time></trkpt><trkpt lat="42.9934333" lon="11.4109217"><ele>246.0</ele><time>2026-05-01T14:03:22.969Z</time></trkpt><trkpt lat="42.9933133" lon="11.4107833"><ele>246.0</ele><time>2026-05-01T14:03:23.969Z</time></trkpt><trkpt lat="42.9931733" lon="11.4106617"><ele>246.0</ele><time>2026-05-01T14:03:24.968Z</time></trkpt><trkpt lat="42.9930217" lon="11.4105567"><ele>246.0</ele><time>2026-05-01T14:03:25.968Z</time></trkpt><trkpt lat="42.9928617" lon="11.4104817"><ele>245.33333333333331</ele><time>2026-05-01T14:03:26.969Z</time></trkpt><trkpt lat="42.9926917" lon="11.41043"><ele>244.66666666666666</ele><time>2026-05-01T14:03:27.968Z</time></trkpt><trkpt lat="42.992525" lon="11.410395"><ele>244.0</ele><time>2026-05-01T14:03:28.968Z</time></trkpt><trkpt lat="42.9923583" lon="11.41037"><ele>244.0</ele><time>2026-05-01T14:03:29.968Z</time></trkpt><trkpt lat="42.992195" lon="11.4103517"><ele>244.0</ele><time>2026-05-01T14:03:30.968Z</time></trkpt><trkpt lat="42.9920317" lon="11.4103417"><ele>244.0</ele><time>2026-05-01T14:03:31.969Z</time></trkpt><trkpt lat="42.9918633" lon="11.4103467"><ele>244.0</ele><time>2026-05-01T14:03:32.969Z</time></trkpt><trkpt lat="42.9916983" lon="11.41036"><ele>244.0</ele><time>2026-05-01T14:03:33.968Z</time></trkpt><trkpt lat="42.9915367" lon="11.4103767"><ele>244.0</ele><time>2026-05-01T14:03:34.968Z</time></trkpt><trkpt lat="42.9913783" lon="11.4103767"><ele>244.33333333333331</ele><time>2026-05-01T14:03:35.968Z</time></trkpt><trkpt lat="42.991205" lon="11.41035"><ele>244.66666666666669</ele><time>2026-05-01T14:03:36.969Z</time></trkpt><trkpt lat="42.9910367" lon="11.4103233"><ele>245.0</ele><time>2026-05-01T14:03:37.968Z</time></trkpt><trkpt lat="42.990875" lon="11.4103017"><ele>244.66666666666669</ele><time>2026-05-01T14:03:38.968Z</time></trkpt><trkpt lat="42.990715" lon="11.4102833"><ele>244.33333333333331</ele><time>2026-05-01T14:03:39.969Z</time></trkpt><trkpt lat="42.99055" lon="11.410265"><ele>244.0</ele><time>2026-05-01T14:03:40.969Z</time></trkpt><trkpt lat="42.9903817" lon="11.4102517"><ele>244.0</ele><time>2026-05-01T14:03:41.968Z</time></trkpt><trkpt lat="42.99022" lon="11.410255"><ele>244.0</ele><time>2026-05-01T14:03:42.969Z</time></trkpt><trkpt lat="42.9900733" lon="11.4102833"><ele>244.0</ele><time>2026-05-01T14:03:43.968Z</time></trkpt><trkpt lat="42.98994" lon="11.41033"><ele>244.0</ele><time>2026-05-01T14:03:44.968Z</time></trkpt><trkpt lat="42.9898217" lon="11.4103883"><ele>244.0</ele><time>2026-05-01T14:03:45.968Z</time></trkpt><trkpt lat="42.9896917" lon="11.4104383"><ele>244.0</ele><time>2026-05-01T14:03:46.969Z</time></trkpt><trkpt lat="42.9895483" lon="11.4104667"><ele>244.0</ele><time>2026-05-01T14:03:47.968Z</time></trkpt><trkpt lat="42.989395" lon="11.4104817"><ele>244.0</ele><time>2026-05-01T14:03:48.968Z</time></trkpt><trkpt lat="42.98923" lon="11.41049"><ele>243.33333333333331</ele><time>2026-05-01T14:03:49.968Z</time></trkpt><trkpt lat="42.9890583" lon="11.4104933"><ele>242.66666666666669</ele><time>2026-05-01T14:03:50.968Z</time></trkpt><trkpt lat="42.9888667" lon="11.4104817"><ele>242.0</ele><time>2026-05-01T14:03:51.968Z</time></trkpt><trkpt lat="42.9886667" lon="11.4104617"><ele>240.66666666666669</ele><time>2026-05-01T14:03:52.968Z</time></trkpt><trkpt lat="42.9884617" lon="11.410435"><ele>239.33333333333331</ele><time>2026-05-01T14:03:53.968Z</time></trkpt><trkpt lat="42.9882583" lon="11.4104"><ele>238.0</ele><time>2026-05-01T14:03:54.969Z</time></trkpt><trkpt lat="42.9880617" lon="11.41036"><ele>237.33333333333331</ele><time>2026-05-01T14:03:55.968Z</time></trkpt><trkpt lat="42.9878617" lon="11.41032"><ele>236.66666666666669</ele><time>2026-05-01T14:03:56.968Z</time></trkpt><trkpt lat="42.9876567" lon="11.410275"><ele>236.0</ele><time>2026-05-01T14:03:57.969Z</time></trkpt><trkpt lat="42.987455" lon="11.4102317"><ele>236.0</ele><time>2026-05-01T14:03:58.968Z</time></trkpt><trkpt lat="42.9872567" lon="11.41019"><ele>236.0</ele><time>2026-05-01T14:03:59.969Z</time></trkpt><trkpt lat="42.98707" lon="11.4101583"><ele>236.0</ele><time>2026-05-01T14:04:00.969Z</time></trkpt><trkpt lat="42.9868833" lon="11.4101133"><ele>236.0</ele><time>2026-05-01T14:04:01.969Z</time></trkpt><trkpt lat="42.986705" lon="11.4100683"><ele>236.0</ele><time>2026-05-01T14:04:02.969Z</time></trkpt><trkpt lat="42.9865367" lon="11.4100267"><ele>236.0</ele><time>2026-05-01T14:04:03.968Z</time></trkpt><trkpt lat="42.98637" lon="11.40998"><ele>234.66666666666669</ele><time>2026-05-01T14:04:04.968Z</time></trkpt><trkpt lat="42.98621" lon="11.4099267"><ele>233.33333333333331</ele><time>2026-05-01T14:04:05.969Z</time></trkpt><trkpt lat="42.9860583" lon="11.40987"><ele>232.0</ele><time>2026-05-01T14:04:06.968Z</time></trkpt><trkpt lat="42.9859133" lon="11.4097967"><ele>231.66666666666666</ele><time>2026-05-01T14:04:07.969Z</time></trkpt><trkpt lat="42.985765" lon="11.4097117"><ele>231.33333333333331</ele><time>2026-05-01T14:04:08.968Z</time></trkpt><trkpt lat="42.9856117" lon="11.4096283"><ele>231.0</ele><time>2026-05-01T14:04:09.969Z</time></trkpt><trkpt lat="42.985455" lon="11.40954"><ele>228.33333333333331</ele><time>2026-05-01T14:04:10.969Z</time></trkpt><trkpt lat="42.9852867" lon="11.40947"><ele>225.66666666666666</ele><time>2026-05-01T14:04:11.969Z</time></trkpt><trkpt lat="42.985115" lon="11.40941"><ele>223.0</ele><time>2026-05-01T14:04:12.968Z</time></trkpt><trkpt lat="42.9849333" lon="11.4093383"><ele>222.33333333333331</ele><time>2026-05-01T14:04:13.969Z</time></trkpt><trkpt lat="42.98476" lon="11.409255"><ele>221.66666666666669</ele><time>2026-05-01T14:04:14.969Z</time></trkpt><trkpt lat="42.984585" lon="11.4091467"><ele>221.0</ele><time>2026-05-01T14:04:15.968Z</time></trkpt><trkpt lat="42.98441" lon="11.40903"><ele>221.0</ele><time>2026-05-01T14:04:16.968Z</time></trkpt><trkpt lat="42.9842433" lon="11.4088983"><ele>221.0</ele><time>2026-05-01T14:04:17.968Z</time></trkpt><trkpt lat="42.9840833" lon="11.4087617"><ele>221.0</ele><time>2026-05-01T14:04:18.968Z</time></trkpt><trkpt lat="42.9839183" lon="11.4086283"><ele>217.0</ele><time>2026-05-01T14:04:19.968Z</time></trkpt><trkpt lat="42.9837467" lon="11.4084933"><ele>213.0</ele><time>2026-05-01T14:04:20.969Z</time></trkpt><trkpt lat="42.9835767" lon="11.4083617"><ele>209.0</ele><time>2026-05-01T14:04:21.969Z</time></trkpt><trkpt lat="42.9834117" lon="11.4082283"><ele>209.66666666666669</ele><time>2026-05-01T14:04:22.968Z</time></trkpt><trkpt lat="42.9832633" lon="11.4080983"><ele>210.33333333333331</ele><time>2026-05-01T14:04:23.968Z</time></trkpt><trkpt lat="42.9831167" lon="11.4079783"><ele>211.0</ele><time>2026-05-01T14:04:24.969Z</time></trkpt><trkpt lat="42.98297" lon="11.4078633"><ele>209.5</ele><time>2026-05-01T14:04:25.967Z</time></trkpt><trkpt lat="42.9828383" lon="11.4077567"><ele>208.0</ele><time>2026-05-01T14:04:26.967Z</time></trkpt><trkpt lat="42.982715" lon="11.4076533"><ele>206.5</ele><time>2026-05-01T14:04:27.968Z</time></trkpt><trkpt lat="42.9826117" lon="11.4075783"><ele>205.0</ele><time>2026-05-01T14:04:28.968Z</time></trkpt><trkpt lat="42.9825267" lon="11.4075283"><ele>205.2</ele><time>2026-05-01T14:04:29.968Z</time></trkpt><trkpt lat="42.9824517" lon="11.4075067"><ele>205.4</ele><time>2026-05-01T14:04:30.968Z</time></trkpt><trkpt lat="42.9823883" lon="11.40752"><ele>205.60000000000002</ele><time>2026-05-01T14:04:31.967Z</time></trkpt><trkpt lat="42.9822983" lon="11.4076517"><ele>205.8</ele><time>2026-05-01T14:04:33.967Z</time></trkpt><trkpt lat="42.9822683" lon="11.4077767"><ele>206.0</ele><time>2026-05-01T14:04:34.968Z</time></trkpt><trkpt lat="42.9822333" lon="11.4079233"><ele>207.0</ele><time>2026-05-01T14:04:35.967Z</time></trkpt><trkpt lat="42.9821933" lon="11.4080767"><ele>208.0</ele><time>2026-05-01T14:04:36.968Z</time></trkpt><trkpt lat="42.9821483" lon="11.4082283"><ele>209.0</ele><time>2026-05-01T14:04:37.968Z</time></trkpt><trkpt lat="42.982095" lon="11.408375"><ele>210.0</ele><time>2026-05-01T14:04:38.968Z</time></trkpt><trkpt lat="42.9820317" lon="11.4085117"><ele>210.0</ele><time>2026-05-01T14:04:39.967Z</time></trkpt><trkpt lat="42.981955" lon="11.4086317"><ele>210.0</ele><time>2026-05-01T14:04:40.967Z</time></trkpt><trkpt lat="42.9818583" lon="11.4087417"><ele>210.0</ele><time>2026-05-01T14:04:41.967Z</time></trkpt><trkpt lat="42.9817533" lon="11.4088483"><ele>210.0</ele><time>2026-05-01T14:04:42.967Z</time></trkpt><trkpt lat="42.9816267" lon="11.4089383"><ele>211.25</ele><time>2026-05-01T14:04:43.968Z</time></trkpt><trkpt lat="42.981495" lon="11.4089933"><ele>212.5</ele><time>2026-05-01T14:04:44.968Z</time></trkpt><trkpt lat="42.98135" lon="11.4090267"><ele>213.75</ele><time>2026-05-01T14:04:45.967Z</time></trkpt><trkpt lat="42.9812183" lon="11.4090467"><ele>215.0</ele><time>2026-05-01T14:04:46.968Z</time></trkpt><trkpt lat="42.98109" lon="11.4090667"><ele>215.0</ele><time>2026-05-01T14:04:47.967Z</time></trkpt><trkpt lat="42.9809667" lon="11.409095"><ele>215.0</ele><time>2026-05-01T14:04:48.967Z</time></trkpt><trkpt lat="42.980845" lon="11.4091217"><ele>215.0</ele><time>2026-05-01T14:04:49.967Z</time></trkpt><trkpt lat="42.9807083" lon="11.4091517"><ele>215.0</ele><time>2026-05-01T14:04:50.968Z</time></trkpt><trkpt lat="42.9805683" lon="11.4091983"><ele>215.5</ele><time>2026-05-01T14:04:51.967Z</time></trkpt><trkpt lat="42.98043" lon="11.4092383"><ele>216.0</ele><time>2026-05-01T14:04:52.968Z</time></trkpt><trkpt lat="42.9802967" lon="11.409285"><ele>216.5</ele><time>2026-05-01T14:04:53.967Z</time></trkpt><trkpt lat="42.9801667" lon="11.4093233"><ele>217.0</ele><time>2026-05-01T14:04:54.967Z</time></trkpt><trkpt lat="42.9800267" lon="11.40934"><ele>215.25</ele><time>2026-05-01T14:04:55.967Z</time></trkpt><trkpt lat="42.9798883" lon="11.409325"><ele>213.5</ele><time>2026-05-01T14:04:56.967Z</time></trkpt><trkpt lat="42.9797417" lon="11.4092933"><ele>211.75</ele><time>2026-05-01T14:04:57.967Z</time></trkpt><trkpt lat="42.979595" lon="11.4092767"><ele>210.0</ele><time>2026-05-01T14:04:58.968Z</time></trkpt><trkpt lat="42.9794483" lon="11.40926"><ele>210.0</ele><time>2026-05-01T14:04:59.967Z</time></trkpt><trkpt lat="42.9793017" lon="11.4092517"><ele>210.0</ele><time>2026-05-01T14:05:00.967Z</time></trkpt><trkpt lat="42.9791567" lon="11.40928"><ele>210.0</ele><time>2026-05-01T14:05:01.967Z</time></trkpt><trkpt lat="42.9790133" lon="11.4093267"><ele>210.0</ele><time>2026-05-01T14:05:02.968Z</time></trkpt><trkpt lat="42.9788817" lon="11.4093917"><ele>207.5</ele><time>2026-05-01T14:05:03.968Z</time></trkpt><trkpt lat="42.9787517" lon="11.4094567"><ele>205.0</ele><time>2026-05-01T14:05:04.967Z</time></trkpt><trkpt lat="42.9786133" lon="11.40948"><ele>202.5</ele><time>2026-05-01T14:05:05.967Z</time></trkpt><trkpt lat="42.97848" lon="11.4094567"><ele>200.0</ele><time>2026-05-01T14:05:06.968Z</time></trkpt><trkpt lat="42.9783433" lon="11.40941"><ele>197.0</ele><time>2026-05-01T14:05:07.967Z</time></trkpt><trkpt lat="42.9781983" lon="11.409345"><ele>194.0</ele><time>2026-05-01T14:05:08.967Z</time></trkpt><trkpt lat="42.9780567" lon="11.4092533"><ele>191.0</ele><time>2026-05-01T14:05:09.968Z</time></trkpt><trkpt lat="42.9779133" lon="11.4091733"><ele>191.0</ele><time>2026-05-01T14:05:10.968Z</time></trkpt><trkpt lat="42.9777617" lon="11.4091067"><ele>191.0</ele><time>2026-05-01T14:05:11.967Z</time></trkpt><trkpt lat="42.9776033" lon="11.4090417"><ele>191.0</ele><time>2026-05-01T14:05:12.967Z</time></trkpt><trkpt lat="42.9774517" lon="11.4089617"><ele>188.66666666666666</ele><time>2026-05-01T14:05:13.967Z</time></trkpt><trkpt lat="42.9773033" lon="11.4088767"><ele>186.33333333333334</ele><time>2026-05-01T14:05:14.967Z</time></trkpt><trkpt lat="42.9771617" lon="11.4087917"><ele>184.0</ele><time>2026-05-01T14:05:15.967Z</time></trkpt><trkpt lat="42.977015" lon="11.4087067"><ele>182.25</ele><time>2026-05-01T14:05:16.968Z</time></trkpt><trkpt lat="42.9768667" lon="11.40864"><ele>180.5</ele><time>2026-05-01T14:05:17.967Z</time></trkpt><trkpt lat="42.9767333" lon="11.40858"><ele>178.75</ele><time>2026-05-01T14:05:18.968Z</time></trkpt><trkpt lat="42.97662" lon="11.40856"><ele>177.0</ele><time>2026-05-01T14:05:19.968Z</time></trkpt><trkpt lat="42.9765117" lon="11.40857"><ele>176.6</ele><time>2026-05-01T14:05:20.967Z</time></trkpt><trkpt lat="42.9764283" lon="11.40861"><ele>176.2</ele><time>2026-05-01T14:05:21.968Z</time></trkpt><trkpt lat="42.9763583" lon="11.4086983"><ele>175.8</ele><time>2026-05-01T14:05:22.967Z</time></trkpt><trkpt lat="42.9763217" lon="11.408835"><ele>175.4</ele><time>2026-05-01T14:05:23.967Z</time></trkpt><trkpt lat="42.9763017" lon="11.408975"><ele>175.0</ele><time>2026-05-01T14:05:24.967Z</time></trkpt><trkpt lat="42.9763" lon="11.4091433"><ele>175.0</ele><time>2026-05-01T14:05:25.967Z</time></trkpt><trkpt lat="42.976285" lon="11.4092933"><ele>175.0</ele><time>2026-05-01T14:05:26.968Z</time></trkpt><trkpt lat="42.9762467" lon="11.4094333"><ele>175.0</ele><time>2026-05-01T14:05:27.967Z</time></trkpt><trkpt lat="42.9761983" lon="11.4095533"><ele>175.0</ele><time>2026-05-01T14:05:28.968Z</time></trkpt><trkpt lat="42.976135" lon="11.4096783"><ele>175.0</ele><time>2026-05-01T14:05:29.967Z</time></trkpt><trkpt lat="42.9760767" lon="11.4097817"><ele>175.8</ele><time>2026-05-01T14:05:30.967Z</time></trkpt><trkpt lat="42.9760033" lon="11.4098667"><ele>176.6</ele><time>2026-05-01T14:05:31.967Z</time></trkpt><trkpt lat="42.9759167" lon="11.4099383"><ele>177.39999999999998</ele><time>2026-05-01T14:05:32.967Z</time></trkpt><trkpt lat="42.9758217" lon="11.4099867"><ele>178.2</ele><time>2026-05-01T14:05:33.968Z</time></trkpt><trkpt lat="42.9757183" lon="11.4100283"><ele>179.0</ele><time>2026-05-01T14:05:34.967Z</time></trkpt><trkpt lat="42.9756183" lon="11.4100767"><ele>176.6</ele><time>2026-05-01T14:05:35.967Z</time></trkpt><trkpt lat="42.9755133" lon="11.4101383"><ele>174.2</ele><time>2026-05-01T14:05:36.967Z</time></trkpt><trkpt lat="42.9754167" lon="11.410215"><ele>171.79999999999998</ele><time>2026-05-01T14:05:37.967Z</time></trkpt><trkpt lat="42.975325" lon="11.4103017"><ele>169.39999999999998</ele><time>2026-05-01T14:05:38.967Z</time></trkpt><trkpt lat="42.9752517" lon="11.41041"><ele>167.0</ele><time>2026-05-01T14:05:39.968Z</time></trkpt><trkpt lat="42.9752" lon="11.4105383"><ele>167.0</ele><time>2026-05-01T14:05:40.967Z</time></trkpt><trkpt lat="42.97516" lon="11.4106817"><ele>167.0</ele><time>2026-05-01T14:05:41.967Z</time></trkpt><trkpt lat="42.9751233" lon="11.4108267"><ele>167.0</ele><time>2026-05-01T14:05:42.967Z</time></trkpt><trkpt lat="42.9750667" lon="11.4109683"><ele>167.0</ele><time>2026-05-01T14:05:43.967Z</time></trkpt><trkpt lat="42.9750017" lon="11.4110817"><ele>167.0</ele><time>2026-05-01T14:05:44.967Z</time></trkpt><trkpt lat="42.97493" lon="11.4111833"><ele>164.25</ele><time>2026-05-01T14:05:45.968Z</time></trkpt><trkpt lat="42.9748517" lon="11.4112867"><ele>161.5</ele><time>2026-05-01T14:05:46.968Z</time></trkpt><trkpt lat="42.9747667" lon="11.411395"><ele>158.75</ele><time>2026-05-01T14:05:47.967Z</time></trkpt><trkpt lat="42.9746817" lon="11.4115067"><ele>156.0</ele><time>2026-05-01T14:05:48.968Z</time></trkpt><trkpt lat="42.9745833" lon="11.4116183"><ele>156.0</ele><time>2026-05-01T14:05:49.968Z</time></trkpt><trkpt lat="42.97449" lon="11.4117383"><ele>156.0</ele><time>2026-05-01T14:05:50.968Z</time></trkpt><trkpt lat="42.9743917" lon="11.411855"><ele>156.0</ele><time>2026-05-01T14:05:51.967Z</time></trkpt><trkpt lat="42.9742983" lon="11.4119733"><ele>156.0</ele><time>2026-05-01T14:05:52.968Z</time></trkpt><trkpt lat="42.9742083" lon="11.4120933"><ele>153.5</ele><time>2026-05-01T14:05:53.967Z</time></trkpt><trkpt lat="42.9741083" lon="11.4122217"><ele>151.0</ele><time>2026-05-01T14:05:54.967Z</time></trkpt><trkpt lat="42.974005" lon="11.41235"><ele>148.5</ele><time>2026-05-01T14:05:55.968Z</time></trkpt><trkpt lat="42.9738983" lon="11.41248"><ele>146.0</ele><time>2026-05-01T14:05:56.967Z</time></trkpt><trkpt lat="42.9737817" lon="11.4126183"><ele>146.0</ele><time>2026-05-01T14:05:57.967Z</time></trkpt><trkpt lat="42.9736567" lon="11.4127967"><ele>146.0</ele><time>2026-05-01T14:05:58.968Z</time></trkpt><trkpt lat="42.973505" lon="11.4130017"><ele>146.0</ele><time>2026-05-01T14:05:59.968Z</time></trkpt><trkpt lat="42.9733517" lon="11.4131917"><ele>143.0</ele><time>2026-05-01T14:06:00.967Z</time></trkpt><trkpt lat="42.9732017" lon="11.4133667"><ele>140.0</ele><time>2026-05-01T14:06:01.968Z</time></trkpt><trkpt lat="42.97305" lon="11.41354"><ele>137.0</ele><time>2026-05-01T14:06:02.968Z</time></trkpt><trkpt lat="42.9728933" lon="11.4137233"><ele>134.33333333333331</ele><time>2026-05-01T14:06:03.968Z</time></trkpt><trkpt lat="42.9727467" lon="11.4139083"><ele>131.66666666666666</ele><time>2026-05-01T14:06:04.967Z</time></trkpt><trkpt lat="42.9726067" lon="11.414105"><ele>129.0</ele><time>2026-05-01T14:06:05.967Z</time></trkpt><trkpt lat="42.972475" lon="11.4142867"><ele>129.0</ele><time>2026-05-01T14:06:06.967Z</time></trkpt><trkpt lat="42.97234" lon="11.414455"><ele>129.0</ele><time>2026-05-01T14:06:07.967Z</time></trkpt><trkpt lat="42.9722" lon="11.4146117"><ele>129.0</ele><time>2026-05-01T14:06:08.967Z</time></trkpt><trkpt lat="42.97205" lon="11.4147517"><ele>126.66666666666666</ele><time>2026-05-01T14:06:09.967Z</time></trkpt><trkpt lat="42.9718867" lon="11.4148867"><ele>124.33333333333333</ele><time>2026-05-01T14:06:10.967Z</time></trkpt><trkpt lat="42.9717133" lon="11.4150117"><ele>122.0</ele><time>2026-05-01T14:06:11.967Z</time></trkpt><trkpt lat="42.97154" lon="11.4151283"><ele>121.66666666666666</ele><time>2026-05-01T14:06:12.968Z</time></trkpt><trkpt lat="42.9713617" lon="11.41524"><ele>121.33333333333334</ele><time>2026-05-01T14:06:13.967Z</time></trkpt><trkpt lat="42.971185" lon="11.41534"><ele>121.0</ele><time>2026-05-01T14:06:14.967Z</time></trkpt><trkpt lat="42.9710083" lon="11.4154383"><ele>119.0</ele><time>2026-05-01T14:06:15.968Z</time></trkpt><trkpt lat="42.97084" lon="11.415535"><ele>117.0</ele><time>2026-05-01T14:06:16.967Z</time></trkpt><trkpt lat="42.97067" lon="11.415635"><ele>115.0</ele><time>2026-05-01T14:06:17.967Z</time></trkpt><trkpt lat="42.9705033" lon="11.4157367"><ele>115.0</ele><time>2026-05-01T14:06:18.967Z</time></trkpt><trkpt lat="42.9703383" lon="11.4158267"><ele>115.0</ele><time>2026-05-01T14:06:19.967Z</time></trkpt><trkpt lat="42.9701767" lon="11.415915"><ele>115.0</ele><time>2026-05-01T14:06:20.967Z</time></trkpt><trkpt lat="42.9700033" lon="11.4160117"><ele>114.33333333333334</ele><time>2026-05-01T14:06:21.967Z</time></trkpt><trkpt lat="42.9698283" lon="11.4161117"><ele>113.66666666666666</ele><time>2026-05-01T14:06:22.967Z</time></trkpt><trkpt lat="42.969665" lon="11.4162083"><ele>113.0</ele><time>2026-05-01T14:06:23.967Z</time></trkpt><trkpt lat="42.9695083" lon="11.4162983"><ele>113.0</ele><time>2026-05-01T14:06:24.967Z</time></trkpt><trkpt lat="42.9693633" lon="11.416375"><ele>113.0</ele><time>2026-05-01T14:06:25.967Z</time></trkpt><trkpt lat="42.969225" lon="11.4164533"><ele>113.0</ele><time>2026-05-01T14:06:26.968Z</time></trkpt><trkpt lat="42.9690983" lon="11.4165417"><ele>113.0</ele><time>2026-05-01T14:06:27.968Z</time></trkpt><trkpt lat="42.9689833" lon="11.4166517"><ele>113.0</ele><time>2026-05-01T14:06:28.967Z</time></trkpt><trkpt lat="42.9688767" lon="11.416765"><ele>113.0</ele><time>2026-05-01T14:06:29.968Z</time></trkpt><trkpt lat="42.9687883" lon="11.4168917"><ele>113.0</ele><time>2026-05-01T14:06:30.967Z</time></trkpt><trkpt lat="42.9687433" lon="11.4170383"><ele>113.0</ele><time>2026-05-01T14:06:31.967Z</time></trkpt><trkpt lat="42.96874" lon="11.4172033"><ele>113.0</ele><time>2026-05-01T14:06:32.968Z</time></trkpt><trkpt lat="42.968775" lon="11.41735"><ele>113.0</ele><time>2026-05-01T14:06:33.967Z</time></trkpt><trkpt lat="42.9688217" lon="11.4175067"><ele>113.0</ele><time>2026-05-01T14:06:34.968Z</time></trkpt><trkpt lat="42.9688667" lon="11.4176833"><ele>113.0</ele><time>2026-05-01T14:06:35.967Z</time></trkpt><trkpt lat="42.968905" lon="11.4178517"><ele>116.5</ele><time>2026-05-01T14:06:36.967Z</time></trkpt><trkpt lat="42.96893" lon="11.4180183"><ele>120.0</ele><time>2026-05-01T14:06:37.967Z</time></trkpt><trkpt lat="42.9689267" lon="11.418175"><ele>123.5</ele><time>2026-05-01T14:06:38.968Z</time></trkpt><trkpt lat="42.9688833" lon="11.4183133"><ele>127.0</ele><time>2026-05-01T14:06:39.967Z</time></trkpt><trkpt lat="42.968795" lon="11.4184317"><ele>127.0</ele><time>2026-05-01T14:06:40.968Z</time></trkpt><trkpt lat="42.968675" lon="11.41854"><ele>127.0</ele><time>2026-05-01T14:06:41.968Z</time></trkpt><trkpt lat="42.968565" lon="11.418655"><ele>127.0</ele><time>2026-05-01T14:06:42.968Z</time></trkpt><trkpt lat="42.96846" lon="11.418795"><ele>127.0</ele><time>2026-05-01T14:06:43.967Z</time></trkpt><trkpt lat="42.968395" lon="11.4189533"><ele>128.75</ele><time>2026-05-01T14:06:44.968Z</time></trkpt><trkpt lat="42.96836" lon="11.4191217"><ele>130.5</ele><time>2026-05-01T14:06:45.967Z</time></trkpt><trkpt lat="42.968335" lon="11.4193"><ele>132.25</ele><time>2026-05-01T14:06:46.967Z</time></trkpt><trkpt lat="42.9683117" lon="11.4194767"><ele>134.0</ele><time>2026-05-01T14:06:47.967Z</time></trkpt><trkpt lat="42.968305" lon="11.419655"><ele>134.0</ele><time>2026-05-01T14:06:48.967Z</time></trkpt><trkpt lat="42.9683117" lon="11.4198333"><ele>134.0</ele><time>2026-05-01T14:06:49.967Z</time></trkpt><trkpt lat="42.9683183" lon="11.4199933"><ele>134.0</ele><time>2026-05-01T14:06:50.968Z</time></trkpt><trkpt lat="42.9683467" lon="11.4201633"><ele>134.0</ele><time>2026-05-01T14:06:51.967Z</time></trkpt><trkpt lat="42.9683883" lon="11.4203417"><ele>135.0</ele><time>2026-05-01T14:06:52.967Z</time></trkpt><trkpt lat="42.968425" lon="11.4205233"><ele>136.0</ele><time>2026-05-01T14:06:53.968Z</time></trkpt><trkpt lat="42.9684667" lon="11.42071"><ele>137.0</ele><time>2026-05-01T14:06:54.967Z</time></trkpt><trkpt lat="42.96851" lon="11.4209167"><ele>138.0</ele><time>2026-05-01T14:06:55.967Z</time></trkpt><trkpt lat="42.96855" lon="11.4211183"><ele>138.66666666666666</ele><time>2026-05-01T14:06:56.967Z</time></trkpt><trkpt lat="42.9685933" lon="11.4213183"><ele>139.33333333333331</ele><time>2026-05-01T14:06:57.968Z</time></trkpt><trkpt lat="42.9686383" lon="11.4215167"><ele>140.0</ele><time>2026-05-01T14:06:58.968Z</time></trkpt><trkpt lat="42.96869" lon="11.4217267"><ele>140.0</ele><time>2026-05-01T14:06:59.967Z</time></trkpt><trkpt lat="42.96874" lon="11.4219417"><ele>140.0</ele><time>2026-05-01T14:07:00.967Z</time></trkpt><trkpt lat="42.9687833" lon="11.4221567"><ele>140.0</ele><time>2026-05-01T14:07:01.967Z</time></trkpt><trkpt lat="42.96882" lon="11.4223767"><ele>140.0</ele><time>2026-05-01T14:07:02.967Z</time></trkpt><trkpt lat="42.9688383" lon="11.4226033"><ele>140.0</ele><time>2026-05-01T14:07:03.968Z</time></trkpt><trkpt lat="42.9688267" lon="11.422845"><ele>140.0</ele><time>2026-05-01T14:07:04.967Z</time></trkpt><trkpt lat="42.9688083" lon="11.4230783"><ele>140.66666666666666</ele><time>2026-05-01T14:07:05.967Z</time></trkpt><trkpt lat="42.9687783" lon="11.4233067"><ele>141.33333333333334</ele><time>2026-05-01T14:07:06.967Z</time></trkpt><trkpt lat="42.9687517" lon="11.42354"><ele>142.0</ele><time>2026-05-01T14:07:07.967Z</time></trkpt><trkpt lat="42.9687167" lon="11.4237683"><ele>142.33333333333334</ele><time>2026-05-01T14:07:08.967Z</time></trkpt><trkpt lat="42.968675" lon="11.42399"><ele>142.66666666666666</ele><time>2026-05-01T14:07:09.967Z</time></trkpt><trkpt lat="42.9686317" lon="11.4241817"><ele>143.0</ele><time>2026-05-01T14:07:10.968Z</time></trkpt><trkpt lat="42.968575" lon="11.4243717"><ele>143.0</ele><time>2026-05-01T14:07:11.967Z</time></trkpt><trkpt lat="42.96852" lon="11.4245567"><ele>143.0</ele><time>2026-05-01T14:07:12.968Z</time></trkpt><trkpt lat="42.9684567" lon="11.4247317"><ele>143.0</ele><time>2026-05-01T14:07:13.967Z</time></trkpt><trkpt lat="42.9683883" lon="11.4249033"><ele>143.0</ele><time>2026-05-01T14:07:14.967Z</time></trkpt><trkpt lat="42.9683217" lon="11.4250767"><ele>139.5</ele><time>2026-05-01T14:07:15.967Z</time></trkpt><trkpt lat="42.968265" lon="11.4252383"><ele>136.0</ele><time>2026-05-01T14:07:16.967Z</time></trkpt><trkpt lat="42.9682033" lon="11.4253933"><ele>132.5</ele><time>2026-05-01T14:07:17.967Z</time></trkpt><trkpt lat="42.9681467" lon="11.4255533"><ele>129.0</ele><time>2026-05-01T14:07:18.967Z</time></trkpt><trkpt lat="42.968095" lon="11.4257067"><ele>128.5</ele><time>2026-05-01T14:07:19.967Z</time></trkpt><trkpt lat="42.9680433" lon="11.4258617"><ele>128.0</ele><time>2026-05-01T14:07:20.967Z</time></trkpt><trkpt lat="42.9679933" lon="11.426025"><ele>127.5</ele><time>2026-05-01T14:07:21.968Z</time></trkpt><trkpt lat="42.9679433" lon="11.4261867"><ele>127.0</ele><time>2026-05-01T14:07:22.967Z</time></trkpt><trkpt lat="42.967895" lon="11.4263233"><ele>128.33333333333334</ele><time>2026-05-01T14:07:23.967Z</time></trkpt><trkpt lat="42.9678383" lon="11.426425"><ele>129.66666666666669</ele><time>2026-05-01T14:07:24.967Z</time></trkpt><trkpt lat="42.9677883" lon="11.426505"><ele>131.0</ele><time>2026-05-01T14:07:25.967Z</time></trkpt><trkpt lat="42.967715" lon="11.4266"><ele>132.33333333333334</ele><time>2026-05-01T14:07:27.968Z</time></trkpt><trkpt lat="42.96767" lon="11.4266683"><ele>133.66666666666666</ele><time>2026-05-01T14:07:30.968Z</time></trkpt><trkpt lat="42.9676183" lon="11.4267333"><ele>135.0</ele><time>2026-05-01T14:07:32.967Z</time></trkpt><trkpt lat="42.967555" lon="11.4267917"><ele>136.25</ele><time>2026-05-01T14:07:34.967Z</time></trkpt><trkpt lat="42.96749" lon="11.426865"><ele>137.5</ele><time>2026-05-01T14:07:37.967Z</time></trkpt><trkpt lat="42.96746" lon="11.4269917"><ele>138.75</ele><time>2026-05-01T14:08:08.968Z</time></trkpt><trkpt lat="42.9675217" lon="11.4272283"><ele>140.0</ele><time>2026-05-01T14:08:10.967Z</time></trkpt><trkpt lat="42.96756" lon="11.4273617"><ele>140.0</ele><time>2026-05-01T14:08:11.968Z</time></trkpt><trkpt lat="42.9676" lon="11.427505"><ele>140.0</ele><time>2026-05-01T14:08:12.968Z</time></trkpt><trkpt lat="42.9676283" lon="11.4276267"><ele>140.0</ele><time>2026-05-01T14:08:13.968Z</time></trkpt><trkpt lat="42.9676767" lon="11.4279133"><ele>140.0</ele><time>2026-05-01T14:08:15.967Z</time></trkpt><trkpt lat="42.9677083" lon="11.42828"><ele>140.5</ele><time>2026-05-01T14:08:17.967Z</time></trkpt><trkpt lat="42.96773" lon="11.4284783"><ele>141.0</ele><time>2026-05-01T14:08:18.967Z</time></trkpt><trkpt lat="42.96787" lon="11.429015"><ele>141.0</ele><time>2026-05-01T14:08:21.967Z</time></trkpt><trkpt lat="42.96808" lon="11.4293083"><ele>141.0</ele><time>2026-05-01T14:08:23.967Z</time></trkpt><trkpt lat="42.9682083" lon="11.429415"><ele>143.66666666666666</ele><time>2026-05-01T14:08:24.967Z</time></trkpt><trkpt lat="42.9684233" lon="11.4296"><ele>146.33333333333331</ele><time>2026-05-01T14:08:26.968Z</time></trkpt><trkpt lat="42.9684983" lon="11.4297117"><ele>149.0</ele><time>2026-05-01T14:08:27.967Z</time></trkpt><trkpt lat="42.9685933" lon="11.42998"><ele>149.0</ele><time>2026-05-01T14:08:29.967Z</time></trkpt><trkpt lat="42.96859" lon="11.4301317"><ele>149.0</ele><time>2026-05-01T14:08:30.967Z</time></trkpt><trkpt lat="42.9685067" lon="11.430785"><ele>150.5</ele><time>2026-05-01T14:08:34.968Z</time></trkpt><trkpt lat="42.968485" lon="11.43097"><ele>152.0</ele><time>2026-05-01T14:08:35.968Z</time></trkpt><trkpt lat="42.9684617" lon="11.43116"><ele>153.5</ele><time>2026-05-01T14:08:36.968Z</time></trkpt><trkpt lat="42.9684483" lon="11.431365"><ele>155.0</ele><time>2026-05-01T14:08:37.967Z</time></trkpt><trkpt lat="42.9684383" lon="11.4315717"><ele>155.5</ele><time>2026-05-01T14:08:38.967Z</time></trkpt><trkpt lat="42.9684283" lon="11.4317667"><ele>156.0</ele><time>2026-05-01T14:08:39.967Z</time></trkpt><trkpt lat="42.96843" lon="11.431945"><ele>156.5</ele><time>2026-05-01T14:08:40.967Z</time></trkpt><trkpt lat="42.9684433" lon="11.432125"><ele>157.0</ele><time>2026-05-01T14:08:41.967Z</time></trkpt><trkpt lat="42.9684767" lon="11.4322933"><ele>157.0</ele><time>2026-05-01T14:08:42.967Z</time></trkpt><trkpt lat="42.968535" lon="11.4324433"><ele>157.0</ele><time>2026-05-01T14:08:43.968Z</time></trkpt><trkpt lat="42.9686133" lon="11.4325617"><ele>157.0</ele><time>2026-05-01T14:08:44.968Z</time></trkpt><trkpt lat="42.968695" lon="11.43266"><ele>157.0</ele><time>2026-05-01T14:08:45.968Z</time></trkpt><trkpt lat="42.9687767" lon="11.4327417"><ele>157.0</ele><time>2026-05-01T14:08:46.967Z</time></trkpt><trkpt lat="42.9688517" lon="11.4328167"><ele>157.0</ele><time>2026-05-01T14:08:47.967Z</time></trkpt><trkpt lat="42.9689267" lon="11.4328933"><ele>157.0</ele><time>2026-05-01T14:08:48.967Z</time></trkpt><trkpt lat="42.9689883" lon="11.4329583"><ele>157.0</ele><time>2026-05-01T14:08:49.967Z</time></trkpt><trkpt lat="42.9690467" lon="11.4330333"><ele>157.0</ele><time>2026-05-01T14:08:51.967Z</time></trkpt><trkpt lat="42.96911" lon="11.4330833"><ele>157.0</ele><time>2026-05-01T14:08:53.967Z</time></trkpt><trkpt lat="42.9691733" lon="11.433145"><ele>160.8</ele><time>2026-05-01T14:08:54.967Z</time></trkpt><trkpt lat="42.96924" lon="11.4332217"><ele>164.6</ele><time>2026-05-01T14:08:55.967Z</time></trkpt><trkpt lat="42.9692967" lon="11.4332967"><ele>168.4</ele><time>2026-05-01T14:08:56.967Z</time></trkpt><trkpt lat="42.96936" lon="11.4333783"><ele>172.20000000000002</ele><time>2026-05-01T14:08:57.967Z</time></trkpt><trkpt lat="42.9694283" lon="11.4334883"><ele>176.0</ele><time>2026-05-01T14:08:58.967Z</time></trkpt><trkpt lat="42.9694967" lon="11.4336133"><ele>176.0</ele><time>2026-05-01T14:08:59.967Z</time></trkpt><trkpt lat="42.9695583" lon="11.43376"><ele>176.0</ele><time>2026-05-01T14:09:00.968Z</time></trkpt><trkpt lat="42.96963" lon="11.43392"><ele>176.0</ele><time>2026-05-01T14:09:01.967Z</time></trkpt><trkpt lat="42.9697" lon="11.4340767"><ele>176.0</ele><time>2026-05-01T14:09:02.967Z</time></trkpt><trkpt lat="42.969785" lon="11.4342283"><ele>175.0</ele><time>2026-05-01T14:09:03.967Z</time></trkpt><trkpt lat="42.9698833" lon="11.43435"><ele>174.0</ele><time>2026-05-01T14:09:04.968Z</time></trkpt><trkpt lat="42.9700067" lon="11.4344233"><ele>173.0</ele><time>2026-05-01T14:09:05.967Z</time></trkpt><trkpt lat="42.970145" lon="11.43445"><ele>172.0</ele><time>2026-05-01T14:09:06.968Z</time></trkpt><trkpt lat="42.9703017" lon="11.43444"><ele>176.0</ele><time>2026-05-01T14:09:07.968Z</time></trkpt><trkpt lat="42.97047" lon="11.4344217"><ele>180.0</ele><time>2026-05-01T14:09:08.967Z</time></trkpt><trkpt lat="42.9706367" lon="11.4344083"><ele>184.0</ele><time>2026-05-01T14:09:09.968Z</time></trkpt><trkpt lat="42.9707933" lon="11.4344183"><ele>187.0</ele><time>2026-05-01T14:09:10.967Z</time></trkpt><trkpt lat="42.9709433" lon="11.4344633"><ele>190.0</ele><time>2026-05-01T14:09:11.967Z</time></trkpt><trkpt lat="42.971085" lon="11.43452"><ele>193.0</ele><time>2026-05-01T14:09:12.968Z</time></trkpt><trkpt lat="42.9712383" lon="11.4345933"><ele>185.0</ele><time>2026-05-01T14:09:13.967Z</time></trkpt><trkpt lat="42.9713917" lon="11.4346467"><ele>177.0</ele><time>2026-05-01T14:09:14.967Z</time></trkpt><trkpt lat="42.9717117" lon="11.434725"><ele>177.0</ele><time>2026-05-01T14:09:16.968Z</time></trkpt><trkpt lat="42.97203" lon="11.4347467"><ele>177.0</ele><time>2026-05-01T14:09:18.967Z</time></trkpt><trkpt lat="42.97219" lon="11.4347233"><ele>177.0</ele><time>2026-05-01T14:09:19.968Z</time></trkpt><trkpt lat="42.9724767" lon="11.4346667"><ele>177.0</ele><time>2026-05-01T14:09:21.967Z</time></trkpt><trkpt lat="42.9727383" lon="11.4345217"><ele>181.0</ele><time>2026-05-01T14:09:23.968Z</time></trkpt><trkpt lat="42.97287" lon="11.4344133"><ele>185.0</ele><time>2026-05-01T14:09:24.967Z</time></trkpt><trkpt lat="42.97315" lon="11.43417"><ele>185.0</ele><time>2026-05-01T14:09:26.968Z</time></trkpt><trkpt lat="42.9733167" lon="11.434045"><ele>185.0</ele><time>2026-05-01T14:09:27.968Z</time></trkpt><trkpt lat="42.973495" lon="11.4339083"><ele>185.0</ele><time>2026-05-01T14:09:28.968Z</time></trkpt><trkpt lat="42.973665" lon="11.43377"><ele>187.66666666666666</ele><time>2026-05-01T14:09:29.967Z</time></trkpt><trkpt lat="42.9738267" lon="11.433655"><ele>190.33333333333331</ele><time>2026-05-01T14:09:30.967Z</time></trkpt><trkpt lat="42.974005" lon="11.433525"><ele>193.0</ele><time>2026-05-01T14:09:31.967Z</time></trkpt><trkpt lat="42.97418" lon="11.4333917"><ele>191.0</ele><time>2026-05-01T14:09:32.967Z</time></trkpt><trkpt lat="42.9743517" lon="11.4332783"><ele>189.0</ele><time>2026-05-01T14:09:33.967Z</time></trkpt><trkpt lat="42.97451" lon="11.43317"><ele>187.0</ele><time>2026-05-01T14:09:34.968Z</time></trkpt><trkpt lat="42.97466" lon="11.43308"><ele>187.0</ele><time>2026-05-01T14:09:35.968Z</time></trkpt><trkpt lat="42.9747933" lon="11.4329883"><ele>187.0</ele><time>2026-05-01T14:09:36.967Z</time></trkpt><trkpt lat="42.9749083" lon="11.4328717"><ele>187.0</ele><time>2026-05-01T14:09:37.967Z</time></trkpt><trkpt lat="42.97499" lon="11.4326933"><ele>187.0</ele><time>2026-05-01T14:09:38.967Z</time></trkpt><trkpt lat="42.9750533" lon="11.43245"><ele>189.33333333333334</ele><time>2026-05-01T14:09:39.967Z</time></trkpt><trkpt lat="42.9751117" lon="11.432205"><ele>191.66666666666669</ele><time>2026-05-01T14:09:40.967Z</time></trkpt><trkpt lat="42.9751717" lon="11.4319833"><ele>194.0</ele><time>2026-05-01T14:09:41.968Z</time></trkpt><trkpt lat="42.9752833" lon="11.4318"><ele>195.33333333333334</ele><time>2026-05-01T14:09:42.968Z</time></trkpt><trkpt lat="42.9754167" lon="11.4316467"><ele>196.66666666666669</ele><time>2026-05-01T14:09:43.968Z</time></trkpt><trkpt lat="42.97557" lon="11.43151"><ele>198.0</ele><time>2026-05-01T14:09:44.968Z</time></trkpt><trkpt lat="42.9757217" lon="11.431385"><ele>199.33333333333331</ele><time>2026-05-01T14:09:45.967Z</time></trkpt><trkpt lat="42.975865" lon="11.4312533"><ele>200.66666666666666</ele><time>2026-05-01T14:09:46.967Z</time></trkpt><trkpt lat="42.97601" lon="11.4311233"><ele>202.0</ele><time>2026-05-01T14:09:47.967Z</time></trkpt><trkpt lat="42.9761617" lon="11.4309817"><ele>202.0</ele><time>2026-05-01T14:09:48.967Z</time></trkpt><trkpt lat="42.9763117" lon="11.4308433"><ele>202.0</ele><time>2026-05-01T14:09:49.967Z</time></trkpt><trkpt lat="42.9764567" lon="11.43072"><ele>202.0</ele><time>2026-05-01T14:09:50.968Z</time></trkpt><trkpt lat="42.9766083" lon="11.4306117"><ele>203.66666666666666</ele><time>2026-05-01T14:09:51.968Z</time></trkpt><trkpt lat="42.9767533" lon="11.4305367"><ele>205.33333333333331</ele><time>2026-05-01T14:09:52.967Z</time></trkpt><trkpt lat="42.9769183" lon="11.4304717"><ele>207.0</ele><time>2026-05-01T14:09:53.968Z</time></trkpt><trkpt lat="42.977075" lon="11.4304433"><ele>207.66666666666669</ele><time>2026-05-01T14:09:54.967Z</time></trkpt><trkpt lat="42.9772333" lon="11.43043"><ele>208.33333333333334</ele><time>2026-05-01T14:09:55.967Z</time></trkpt><trkpt lat="42.9773933" lon="11.430445"><ele>209.0</ele><time>2026-05-01T14:09:56.967Z</time></trkpt><trkpt lat="42.97756" lon="11.4304833"><ele>209.66666666666669</ele><time>2026-05-01T14:09:57.967Z</time></trkpt><trkpt lat="42.97773" lon="11.430545"><ele>210.33333333333331</ele><time>2026-05-01T14:09:58.967Z</time></trkpt><trkpt lat="42.977895" lon="11.4306267"><ele>211.0</ele><time>2026-05-01T14:09:59.968Z</time></trkpt><trkpt lat="42.9780617" lon="11.430715"><ele>211.0</ele><time>2026-05-01T14:10:00.966Z</time></trkpt><trkpt lat="42.9782283" lon="11.4307983"><ele>211.0</ele><time>2026-05-01T14:10:01.967Z</time></trkpt><trkpt lat="42.97839" lon="11.4308733"><ele>211.0</ele><time>2026-05-01T14:10:02.967Z</time></trkpt><trkpt lat="42.9785583" lon="11.43096"><ele>212.0</ele><time>2026-05-01T14:10:03.967Z</time></trkpt><trkpt lat="42.978735" lon="11.4310417"><ele>213.0</ele><time>2026-05-01T14:10:04.967Z</time></trkpt><trkpt lat="42.97891" lon="11.4311217"><ele>214.0</ele><time>2026-05-01T14:10:05.966Z</time></trkpt><trkpt lat="42.9790867" lon="11.431205"><ele>213.33333333333331</ele><time>2026-05-01T14:10:06.967Z</time></trkpt><trkpt lat="42.979275" lon="11.4312883"><ele>212.66666666666669</ele><time>2026-05-01T14:10:07.966Z</time></trkpt><trkpt lat="42.97947" lon="11.4313667"><ele>212.0</ele><time>2026-05-01T14:10:08.967Z</time></trkpt><trkpt lat="42.9796833" lon="11.4314633"><ele>210.5</ele><time>2026-05-01T14:10:09.966Z</time></trkpt><trkpt lat="42.9799033" lon="11.431565"><ele>209.0</ele><time>2026-05-01T14:10:10.967Z</time></trkpt><trkpt lat="42.98014" lon="11.4316733"><ele>209.0</ele><time>2026-05-01T14:10:11.967Z</time></trkpt><trkpt lat="42.98039" lon="11.43178"><ele>209.0</ele><time>2026-05-01T14:10:12.967Z</time></trkpt><trkpt lat="42.9806367" lon="11.4318917"><ele>208.5</ele><time>2026-05-01T14:10:13.966Z</time></trkpt><trkpt lat="42.98089" lon="11.431995"><ele>208.0</ele><time>2026-05-01T14:10:14.966Z</time></trkpt><trkpt lat="42.98114" lon="11.4321117"><ele>206.0</ele><time>2026-05-01T14:10:15.967Z</time></trkpt><trkpt lat="42.9813933" lon="11.4322283"><ele>204.0</ele><time>2026-05-01T14:10:16.966Z</time></trkpt><trkpt lat="42.9816467" lon="11.4323483"><ele>203.5</ele><time>2026-05-01T14:10:17.966Z</time></trkpt><trkpt lat="42.9819033" lon="11.4324583"><ele>203.0</ele><time>2026-05-01T14:10:18.966Z</time></trkpt><trkpt lat="42.9821583" lon="11.432575"><ele>203.0</ele><time>2026-05-01T14:10:19.966Z</time></trkpt><trkpt lat="42.9824167" lon="11.432695"><ele>203.0</ele><time>2026-05-01T14:10:20.966Z</time></trkpt><trkpt lat="42.98268" lon="11.4328183"><ele>202.0</ele><time>2026-05-01T14:10:21.966Z</time></trkpt><trkpt lat="42.9829533" lon="11.432945"><ele>201.0</ele><time>2026-05-01T14:10:22.966Z</time></trkpt><trkpt lat="42.9832267" lon="11.4330617"><ele>198.0</ele><time>2026-05-01T14:10:23.967Z</time></trkpt><trkpt lat="42.983485" lon="11.4331667"><ele>195.0</ele><time>2026-05-01T14:10:24.967Z</time></trkpt><trkpt lat="42.9837333" lon="11.4332817"><ele>195.0</ele><time>2026-05-01T14:10:25.967Z</time></trkpt><trkpt lat="42.9839783" lon="11.43343"><ele>195.0</ele><time>2026-05-01T14:10:26.967Z</time></trkpt><trkpt lat="42.9842033" lon="11.4336233"><ele>195.0</ele><time>2026-05-01T14:10:27.966Z</time></trkpt><trkpt lat="42.9844183" lon="11.433835"><ele>195.0</ele><time>2026-05-01T14:10:28.967Z</time></trkpt><trkpt lat="42.9846233" lon="11.434035"><ele>195.0</ele><time>2026-05-01T14:10:29.967Z</time></trkpt><trkpt lat="42.984815" lon="11.434225"><ele>195.0</ele><time>2026-05-01T14:10:30.967Z</time></trkpt><trkpt lat="42.9849983" lon="11.4344017"><ele>197.33333333333331</ele><time>2026-05-01T14:10:31.966Z</time></trkpt><trkpt lat="42.9851633" lon="11.434575"><ele>199.66666666666666</ele><time>2026-05-01T14:10:32.967Z</time></trkpt><trkpt lat="42.9853067" lon="11.43478"><ele>202.0</ele><time>2026-05-01T14:10:33.967Z</time></trkpt><trkpt lat="42.9854017" lon="11.4350267"><ele>203.0</ele><time>2026-05-01T14:10:34.967Z</time></trkpt><trkpt lat="42.9854783" lon="11.4353083"><ele>204.0</ele><time>2026-05-01T14:10:35.966Z</time></trkpt><trkpt lat="42.9855617" lon="11.4355867"><ele>205.0</ele><time>2026-05-01T14:10:36.967Z</time></trkpt><trkpt lat="42.9856367" lon="11.4358817"><ele>205.0</ele><time>2026-05-01T14:10:37.967Z</time></trkpt><trkpt lat="42.98572" lon="11.4361833"><ele>205.0</ele><time>2026-05-01T14:10:38.967Z</time></trkpt><trkpt lat="42.985805" lon="11.4364817"><ele>210.33333333333331</ele><time>2026-05-01T14:10:39.966Z</time></trkpt><trkpt lat="42.9858833" lon="11.436765"><ele>215.66666666666669</ele><time>2026-05-01T14:10:40.967Z</time></trkpt><trkpt lat="42.9859683" lon="11.4370467"><ele>221.0</ele><time>2026-05-01T14:10:41.966Z</time></trkpt><trkpt lat="42.9860533" lon="11.4373267"><ele>221.0</ele><time>2026-05-01T14:10:42.966Z</time></trkpt><trkpt lat="42.9861333" lon="11.4376017"><ele>221.0</ele><time>2026-05-01T14:10:43.967Z</time></trkpt><trkpt lat="42.9862133" lon="11.4378683"><ele>221.0</ele><time>2026-05-01T14:10:44.966Z</time></trkpt><trkpt lat="42.986285" lon="11.4381267"><ele>220.66666666666669</ele><time>2026-05-01T14:10:45.967Z</time></trkpt><trkpt lat="42.986365" lon="11.438365"><ele>220.33333333333331</ele><time>2026-05-01T14:10:46.966Z</time></trkpt><trkpt lat="42.9864467" lon="11.43858"><ele>220.0</ele><time>2026-05-01T14:10:47.967Z</time></trkpt><trkpt lat="42.986525" lon="11.4387817"><ele>219.33333333333331</ele><time>2026-05-01T14:10:48.966Z</time></trkpt><trkpt lat="42.9866217" lon="11.438965"><ele>218.66666666666669</ele><time>2026-05-01T14:10:49.966Z</time></trkpt><trkpt lat="42.98677" lon="11.439085"><ele>218.0</ele><time>2026-05-01T14:10:50.967Z</time></trkpt><trkpt lat="42.9869467" lon="11.4391617"><ele>219.33333333333334</ele><time>2026-05-01T14:10:51.966Z</time></trkpt><trkpt lat="42.9871283" lon="11.4391817"><ele>220.66666666666669</ele><time>2026-05-01T14:10:52.966Z</time></trkpt><trkpt lat="42.9873217" lon="11.4391517"><ele>222.0</ele><time>2026-05-01T14:10:53.967Z</time></trkpt><trkpt lat="42.9875183" lon="11.43912"><ele>222.66666666666669</ele><time>2026-05-01T14:10:54.967Z</time></trkpt><trkpt lat="42.9877183" lon="11.4390967"><ele>223.33333333333334</ele><time>2026-05-01T14:10:55.966Z</time></trkpt><trkpt lat="42.9879217" lon="11.4390717"><ele>224.0</ele><time>2026-05-01T14:10:56.966Z</time></trkpt><trkpt lat="42.9881267" lon="11.4390483"><ele>224.0</ele><time>2026-05-01T14:10:57.966Z</time></trkpt><trkpt lat="42.988335" lon="11.4390283"><ele>224.0</ele><time>2026-05-01T14:10:58.966Z</time></trkpt><trkpt lat="42.9885433" lon="11.4390133"><ele>224.0</ele><time>2026-05-01T14:10:59.966Z</time></trkpt><trkpt lat="42.9887417" lon="11.439005"><ele>225.66666666666669</ele><time>2026-05-01T14:11:00.966Z</time></trkpt><trkpt lat="42.98893" lon="11.4390383"><ele>227.33333333333331</ele><time>2026-05-01T14:11:01.966Z</time></trkpt><trkpt lat="42.989115" lon="11.4391167"><ele>229.0</ele><time>2026-05-01T14:11:02.966Z</time></trkpt><trkpt lat="42.989285" lon="11.43923"><ele>230.66666666666666</ele><time>2026-05-01T14:11:03.967Z</time></trkpt><trkpt lat="42.9894533" lon="11.43936"><ele>232.33333333333331</ele><time>2026-05-01T14:11:04.966Z</time></trkpt><trkpt lat="42.9896217" lon="11.4394983"><ele>234.0</ele><time>2026-05-01T14:11:05.966Z</time></trkpt><trkpt lat="42.98978" lon="11.4396483"><ele>234.0</ele><time>2026-05-01T14:11:06.966Z</time></trkpt><trkpt lat="42.9899467" lon="11.439795"><ele>234.0</ele><time>2026-05-01T14:11:07.966Z</time></trkpt><trkpt lat="42.99012" lon="11.4399367"><ele>234.0</ele><time>2026-05-01T14:11:08.966Z</time></trkpt><trkpt lat="42.9902833" lon="11.440085"><ele>235.33333333333331</ele><time>2026-05-01T14:11:09.967Z</time></trkpt><trkpt lat="42.9904517" lon="11.440235"><ele>236.66666666666666</ele><time>2026-05-01T14:11:10.966Z</time></trkpt><trkpt lat="42.9906133" lon="11.4403867"><ele>238.0</ele><time>2026-05-01T14:11:11.966Z</time></trkpt><trkpt lat="42.9907783" lon="11.4405417"><ele>239.0</ele><time>2026-05-01T14:11:12.967Z</time></trkpt><trkpt lat="42.9909433" lon="11.4406833"><ele>240.0</ele><time>2026-05-01T14:11:13.966Z</time></trkpt><trkpt lat="42.9911217" lon="11.44081"><ele>241.0</ele><time>2026-05-01T14:11:14.967Z</time></trkpt><trkpt lat="42.9913033" lon="11.4409183"><ele>241.0</ele><time>2026-05-01T14:11:15.966Z</time></trkpt><trkpt lat="42.99149" lon="11.4410233"><ele>241.0</ele><time>2026-05-01T14:11:16.967Z</time></trkpt><trkpt lat="42.9916817" lon="11.4411333"><ele>241.0</ele><time>2026-05-01T14:11:17.966Z</time></trkpt><trkpt lat="42.9918733" lon="11.441245"><ele>242.66666666666666</ele><time>2026-05-01T14:11:18.966Z</time></trkpt><trkpt lat="42.9920683" lon="11.4413583"><ele>244.33333333333331</ele><time>2026-05-01T14:11:19.966Z</time></trkpt><trkpt lat="42.9922583" lon="11.4414667"><ele>246.0</ele><time>2026-05-01T14:11:20.966Z</time></trkpt><trkpt lat="42.9924533" lon="11.4415717"><ele>247.66666666666669</ele><time>2026-05-01T14:11:21.966Z</time></trkpt><trkpt lat="42.9926433" lon="11.4416883"><ele>249.33333333333334</ele><time>2026-05-01T14:11:22.966Z</time></trkpt><trkpt lat="42.9928283" lon="11.4417983"><ele>251.0</ele><time>2026-05-01T14:11:23.967Z</time></trkpt><trkpt lat="42.9930117" lon="11.4419117"><ele>251.0</ele><time>2026-05-01T14:11:24.966Z</time></trkpt><trkpt lat="42.9932033" lon="11.4420267"><ele>251.0</ele><time>2026-05-01T14:11:25.966Z</time></trkpt><trkpt lat="42.9933917" lon="11.442135"><ele>251.0</ele><time>2026-05-01T14:11:26.966Z</time></trkpt><trkpt lat="42.9935667" lon="11.4422283"><ele>252.0</ele><time>2026-05-01T14:11:27.967Z</time></trkpt><trkpt lat="42.9937233" lon="11.4423117"><ele>253.0</ele><time>2026-05-01T14:11:28.966Z</time></trkpt><trkpt lat="42.9938867" lon="11.4423817"><ele>254.0</ele><time>2026-05-01T14:11:29.967Z</time></trkpt><trkpt lat="42.9940633" lon="11.442425"><ele>255.0</ele><time>2026-05-01T14:11:30.966Z</time></trkpt><trkpt lat="42.9942367" lon="11.442425"><ele>256.0</ele><time>2026-05-01T14:11:31.966Z</time></trkpt><trkpt lat="42.994415" lon="11.4423967"><ele>257.0</ele><time>2026-05-01T14:11:32.966Z</time></trkpt><trkpt lat="42.9945867" lon="11.4423733"><ele>257.0</ele><time>2026-05-01T14:11:33.966Z</time></trkpt><trkpt lat="42.9947633" lon="11.44236"><ele>257.0</ele><time>2026-05-01T14:11:34.967Z</time></trkpt><trkpt lat="42.9949283" lon="11.4423467"><ele>257.0</ele><time>2026-05-01T14:11:35.966Z</time></trkpt><trkpt lat="42.995105" lon="11.44234"><ele>260.5</ele><time>2026-05-01T14:11:36.966Z</time></trkpt><trkpt lat="42.9952683" lon="11.4423267"><ele>264.0</ele><time>2026-05-01T14:11:37.966Z</time></trkpt><trkpt lat="42.9956017" lon="11.442315"><ele>264.0</ele><time>2026-05-01T14:11:39.966Z</time></trkpt><trkpt lat="42.9957583" lon="11.4423183"><ele>264.0</ele><time>2026-05-01T14:11:40.967Z</time></trkpt><trkpt lat="42.9958983" lon="11.4423583"><ele>264.0</ele><time>2026-05-01T14:11:41.966Z</time></trkpt><trkpt lat="42.9960283" lon="11.4424367"><ele>264.0</ele><time>2026-05-01T14:11:42.967Z</time></trkpt><trkpt lat="42.996145" lon="11.4425583"><ele>264.6666666666667</ele><time>2026-05-01T14:11:43.967Z</time></trkpt><trkpt lat="42.996235" lon="11.44272"><ele>265.33333333333337</ele><time>2026-05-01T14:11:44.967Z</time></trkpt><trkpt lat="42.9962883" lon="11.4429083"><ele>266.0</ele><time>2026-05-01T14:11:45.967Z</time></trkpt><trkpt lat="42.9963167" lon="11.44312"><ele>266.0</ele><time>2026-05-01T14:11:46.966Z</time></trkpt><trkpt lat="42.9963317" lon="11.4433467"><ele>266.0</ele><time>2026-05-01T14:11:47.967Z</time></trkpt><trkpt lat="42.9963367" lon="11.4435783"><ele>266.0</ele><time>2026-05-01T14:11:48.967Z</time></trkpt><trkpt lat="42.996345" lon="11.4438033"><ele>267.6666666666667</ele><time>2026-05-01T14:11:49.966Z</time></trkpt><trkpt lat="42.9963533" lon="11.44404"><ele>269.3333333333333</ele><time>2026-05-01T14:11:50.967Z</time></trkpt><trkpt lat="42.996365" lon="11.4442833"><ele>271.0</ele><time>2026-05-01T14:11:51.966Z</time></trkpt><trkpt lat="42.9963683" lon="11.444525"><ele>272.66666666666663</ele><time>2026-05-01T14:11:52.967Z</time></trkpt><trkpt lat="42.9963767" lon="11.4447717"><ele>274.3333333333333</ele><time>2026-05-01T14:11:53.966Z</time></trkpt><trkpt lat="42.9963817" lon="11.44502"><ele>276.0</ele><time>2026-05-01T14:11:54.966Z</time></trkpt><trkpt lat="42.99639" lon="11.44527"><ele>277.0</ele><time>2026-05-01T14:11:55.967Z</time></trkpt><trkpt lat="42.996405" lon="11.4455167"><ele>278.0</ele><time>2026-05-01T14:11:56.966Z</time></trkpt><trkpt lat="42.996415" lon="11.4457683"><ele>279.0</ele><time>2026-05-01T14:11:57.966Z</time></trkpt><trkpt lat="42.99643" lon="11.4460133"><ele>279.0</ele><time>2026-05-01T14:11:58.966Z</time></trkpt><trkpt lat="42.9964417" lon="11.44626"><ele>279.0</ele><time>2026-05-01T14:11:59.966Z</time></trkpt><trkpt lat="42.9964517" lon="11.4465067"><ele>279.0</ele><time>2026-05-01T14:12:00.967Z</time></trkpt><trkpt lat="42.99646" lon="11.4467583"><ele>280.3333333333333</ele><time>2026-05-01T14:12:01.966Z</time></trkpt><trkpt lat="42.996465" lon="11.4469983"><ele>281.66666666666663</ele><time>2026-05-01T14:12:02.967Z</time></trkpt><trkpt lat="42.9964683" lon="11.4472233"><ele>283.0</ele><time>2026-05-01T14:12:03.967Z</time></trkpt><trkpt lat="42.9964517" lon="11.4474467"><ele>284.66666666666663</ele><time>2026-05-01T14:12:04.966Z</time></trkpt><trkpt lat="42.996405" lon="11.4476633"><ele>286.3333333333333</ele><time>2026-05-01T14:12:05.966Z</time></trkpt><trkpt lat="42.9963267" lon="11.4478733"><ele>288.0</ele><time>2026-05-01T14:12:06.967Z</time></trkpt><trkpt lat="42.996245" lon="11.4480733"><ele>291.3333333333333</ele><time>2026-05-01T14:12:07.967Z</time></trkpt><trkpt lat="42.9961717" lon="11.4482783"><ele>294.66666666666663</ele><time>2026-05-01T14:12:08.967Z</time></trkpt><trkpt lat="42.9961017" lon="11.4484733"><ele>298.0</ele><time>2026-05-01T14:12:09.966Z</time></trkpt><trkpt lat="42.9960367" lon="11.448655"><ele>299.5</ele><time>2026-05-01T14:12:10.966Z</time></trkpt><trkpt lat="42.995995" lon="11.44883"><ele>301.0</ele><time>2026-05-01T14:12:11.966Z</time></trkpt><trkpt lat="42.9959767" lon="11.4489967"><ele>302.5</ele><time>2026-05-01T14:12:12.966Z</time></trkpt><trkpt lat="42.9959833" lon="11.4491833"><ele>304.0</ele><time>2026-05-01T14:12:13.966Z</time></trkpt><trkpt lat="42.9960217" lon="11.449355"><ele>304.0</ele><time>2026-05-01T14:12:14.967Z</time></trkpt><trkpt lat="42.9960967" lon="11.4495283"><ele>304.0</ele><time>2026-05-01T14:12:15.967Z</time></trkpt><trkpt lat="42.9962067" lon="11.4496817"><ele>304.0</ele><time>2026-05-01T14:12:16.967Z</time></trkpt><trkpt lat="42.996335" lon="11.4498183"><ele>306.66666666666663</ele><time>2026-05-01T14:12:17.966Z</time></trkpt><trkpt lat="42.9964667" lon="11.4499467"><ele>309.3333333333333</ele><time>2026-05-01T14:12:18.967Z</time></trkpt><trkpt lat="42.9965917" lon="11.4500717"><ele>312.0</ele><time>2026-05-01T14:12:19.967Z</time></trkpt><trkpt lat="42.9967233" lon="11.4501633"><ele>314.0</ele><time>2026-05-01T14:12:20.967Z</time></trkpt><trkpt lat="42.996875" lon="11.4502033"><ele>316.0</ele><time>2026-05-01T14:12:21.966Z</time></trkpt><trkpt lat="42.9970333" lon="11.4502183"><ele>318.0</ele><time>2026-05-01T14:12:22.967Z</time></trkpt><trkpt lat="42.997205" lon="11.4501917"><ele>318.0</ele><time>2026-05-01T14:12:23.967Z</time></trkpt><trkpt lat="42.9973867" lon="11.450165"><ele>318.0</ele><time>2026-05-01T14:12:24.967Z</time></trkpt><trkpt lat="42.9975717" lon="11.450125"><ele>318.0</ele><time>2026-05-01T14:12:25.966Z</time></trkpt><trkpt lat="42.9977433" lon="11.4501017"><ele>320.6666666666667</ele><time>2026-05-01T14:12:26.967Z</time></trkpt><trkpt lat="42.997925" lon="11.4500683"><ele>323.33333333333337</ele><time>2026-05-01T14:12:27.967Z</time></trkpt><trkpt lat="42.99811" lon="11.450045"><ele>326.0</ele><time>2026-05-01T14:12:28.967Z</time></trkpt><trkpt lat="42.9982967" lon="11.45004"><ele>328.0</ele><time>2026-05-01T14:12:29.967Z</time></trkpt><trkpt lat="42.9984817" lon="11.450035"><ele>330.0</ele><time>2026-05-01T14:12:30.966Z</time></trkpt><trkpt lat="42.9986733" lon="11.4500483"><ele>332.0</ele><time>2026-05-01T14:12:31.966Z</time></trkpt><trkpt lat="42.99887" lon="11.4500767"><ele>332.0</ele><time>2026-05-01T14:12:32.966Z</time></trkpt><trkpt lat="42.9990717" lon="11.4501083"><ele>332.0</ele><time>2026-05-01T14:12:33.966Z</time></trkpt><trkpt lat="42.9992767" lon="11.4501333"><ele>332.0</ele><time>2026-05-01T14:12:34.966Z</time></trkpt><trkpt lat="42.9994933" lon="11.4501533"><ele>332.5</ele><time>2026-05-01T14:12:35.966Z</time></trkpt><trkpt lat="42.9997133" lon="11.4501833"><ele>333.0</ele><time>2026-05-01T14:12:36.967Z</time></trkpt><trkpt lat="42.9999433" lon="11.4502117"><ele>333.0</ele><time>2026-05-01T14:12:37.967Z</time></trkpt><trkpt lat="43.0001517" lon="11.45023"><ele>333.0</ele><time>2026-05-01T14:12:38.967Z</time></trkpt><trkpt lat="43.000335" lon="11.4502517"><ele>333.0</ele><time>2026-05-01T14:12:39.966Z</time></trkpt><trkpt lat="43.0004783" lon="11.4502883"><ele>333.0</ele><time>2026-05-01T14:12:40.966Z</time></trkpt><trkpt lat="43.0005733" lon="11.4503383"><ele>333.0</ele><time>2026-05-01T14:12:41.966Z</time></trkpt><trkpt lat="43.0006333" lon="11.4504183"><ele>333.0</ele><time>2026-05-01T14:12:42.967Z</time></trkpt><trkpt lat="43.0006467" lon="11.4505433"><ele>333.0</ele><time>2026-05-01T14:12:43.966Z</time></trkpt><trkpt lat="43.0006117" lon="11.4506667"><ele>333.0</ele><time>2026-05-01T14:12:44.967Z</time></trkpt><trkpt lat="43.0005367" lon="11.4507533"><ele>338.3333333333333</ele><time>2026-05-01T14:12:45.966Z</time></trkpt><trkpt lat="43.0004217" lon="11.4508033"><ele>343.66666666666663</ele><time>2026-05-01T14:12:46.966Z</time></trkpt><trkpt lat="43.0002467" lon="11.45081"><ele>349.0</ele><time>2026-05-01T14:12:47.966Z</time></trkpt><trkpt lat="43.000085" lon="11.4508183"><ele>349.0</ele><time>2026-05-01T14:12:48.966Z</time></trkpt><trkpt lat="42.999935" lon="11.450835"><ele>349.0</ele><time>2026-05-01T14:12:49.966Z</time></trkpt><trkpt lat="42.9997867" lon="11.4508617"><ele>349.0</ele><time>2026-05-01T14:12:50.967Z</time></trkpt><trkpt lat="42.9996467" lon="11.450895"><ele>349.0</ele><time>2026-05-01T14:12:51.966Z</time></trkpt><trkpt lat="42.99952" lon="11.450925"><ele>349.0</ele><time>2026-05-01T14:12:52.966Z</time></trkpt><trkpt lat="42.9994067" lon="11.450995"><ele>349.0</ele><time>2026-05-01T14:12:53.967Z</time></trkpt><trkpt lat="42.9992983" lon="11.451065"><ele>349.0</ele><time>2026-05-01T14:12:54.966Z</time></trkpt><trkpt lat="42.9991967" lon="11.4511333"><ele>349.0</ele><time>2026-05-01T14:12:55.967Z</time></trkpt><trkpt lat="42.9990833" lon="11.4512217"><ele>352.5</ele><time>2026-05-01T14:12:56.967Z</time></trkpt><trkpt lat="42.9989633" lon="11.4513283"><ele>356.0</ele><time>2026-05-01T14:12:57.967Z</time></trkpt><trkpt lat="42.998855" lon="11.4514633"><ele>359.5</ele><time>2026-05-01T14:12:58.967Z</time></trkpt><trkpt lat="42.9987567" lon="11.451615"><ele>363.0</ele><time>2026-05-01T14:12:59.967Z</time></trkpt><trkpt lat="42.9986783" lon="11.4517667"><ele>363.0</ele><time>2026-05-01T14:13:00.966Z</time></trkpt><trkpt lat="42.9986067" lon="11.4519133"><ele>363.0</ele><time>2026-05-01T14:13:01.966Z</time></trkpt><trkpt lat="42.99853" lon="11.4520583"><ele>363.0</ele><time>2026-05-01T14:13:02.967Z</time></trkpt><trkpt lat="42.9984533" lon="11.4521967"><ele>363.0</ele><time>2026-05-01T14:13:03.967Z</time></trkpt><trkpt lat="42.9983783" lon="11.452345"><ele>364.0</ele><time>2026-05-01T14:13:04.966Z</time></trkpt><trkpt lat="42.9983017" lon="11.4524967"><ele>365.0</ele><time>2026-05-01T14:13:05.966Z</time></trkpt><trkpt lat="42.9982133" lon="11.4526417"><ele>366.0</ele><time>2026-05-01T14:13:06.967Z</time></trkpt><trkpt lat="42.9981183" lon="11.4527517"><ele>367.0</ele><time>2026-05-01T14:13:07.966Z</time></trkpt><trkpt lat="42.998" lon="11.4528267"><ele>367.0</ele><time>2026-05-01T14:13:08.966Z</time></trkpt><trkpt lat="42.997865" lon="11.4528467"><ele>367.0</ele><time>2026-05-01T14:13:09.966Z</time></trkpt><trkpt lat="42.9977217" lon="11.45282"><ele>367.0</ele><time>2026-05-01T14:13:10.966Z</time></trkpt><trkpt lat="42.99757" lon="11.4527983"><ele>367.0</ele><time>2026-05-01T14:13:11.967Z</time></trkpt><trkpt lat="42.9974233" lon="11.45279"><ele>366.5</ele><time>2026-05-01T14:13:12.966Z</time></trkpt><trkpt lat="42.99729" lon="11.45279"><ele>366.0</ele><time>2026-05-01T14:13:13.966Z</time></trkpt><trkpt lat="42.99717" lon="11.4528117"><ele>365.5</ele><time>2026-05-01T14:13:14.967Z</time></trkpt><trkpt lat="42.9970583" lon="11.4528917"><ele>365.0</ele><time>2026-05-01T14:13:15.967Z</time></trkpt><trkpt lat="42.9969517" lon="11.453005"><ele>366.5</ele><time>2026-05-01T14:13:16.966Z</time></trkpt><trkpt lat="42.996855" lon="11.4531433"><ele>368.0</ele><time>2026-05-01T14:13:17.967Z</time></trkpt><trkpt lat="42.9967717" lon="11.4532867"><ele>369.5</ele><time>2026-05-01T14:13:18.967Z</time></trkpt><trkpt lat="42.99669" lon="11.4534233"><ele>371.0</ele><time>2026-05-01T14:13:19.967Z</time></trkpt><trkpt lat="42.9966083" lon="11.4535633"><ele>371.0</ele><time>2026-05-01T14:13:20.966Z</time></trkpt><trkpt lat="42.99652" lon="11.4537133"><ele>371.0</ele><time>2026-05-01T14:13:21.966Z</time></trkpt><trkpt lat="42.9964267" lon="11.4538783"><ele>371.0</ele><time>2026-05-01T14:13:22.967Z</time></trkpt><trkpt lat="42.996345" lon="11.4540567"><ele>371.0</ele><time>2026-05-01T14:13:23.966Z</time></trkpt><trkpt lat="42.9962683" lon="11.4542433"><ele>375.0</ele><time>2026-05-01T14:13:24.966Z</time></trkpt><trkpt lat="42.9961933" lon="11.4544283"><ele>379.0</ele><time>2026-05-01T14:13:25.967Z</time></trkpt><trkpt lat="42.996125" lon="11.4546017"><ele>383.0</ele><time>2026-05-01T14:13:26.966Z</time></trkpt><trkpt lat="42.9960533" lon="11.4547717"><ele>387.0</ele><time>2026-05-01T14:13:27.967Z</time></trkpt><trkpt lat="42.9959867" lon="11.4549383"><ele>391.0</ele><time>2026-05-01T14:13:28.966Z</time></trkpt><trkpt lat="42.9959283" lon="11.4551217"><ele>395.0</ele><time>2026-05-01T14:13:29.966Z</time></trkpt><trkpt lat="42.99588" lon="11.45532"><ele>399.0</ele><time>2026-05-01T14:13:30.966Z</time></trkpt><trkpt lat="42.9958417" lon="11.4555267"><ele>394.66666666666663</ele><time>2026-05-01T14:13:31.966Z</time></trkpt><trkpt lat="42.9958017" lon="11.455735"><ele>390.3333333333333</ele><time>2026-05-01T14:13:32.966Z</time></trkpt><trkpt lat="42.995765" lon="11.4559483"><ele>386.0</ele><time>2026-05-01T14:13:33.967Z</time></trkpt><trkpt lat="42.995735" lon="11.4561417"><ele>387.0</ele><time>2026-05-01T14:13:34.966Z</time></trkpt><trkpt lat="42.995705" lon="11.4563233"><ele>388.0</ele><time>2026-05-01T14:13:35.966Z</time></trkpt><trkpt lat="42.9956867" lon="11.4565067"><ele>389.0</ele><time>2026-05-01T14:13:36.967Z</time></trkpt><trkpt lat="42.9956767" lon="11.4566867"><ele>390.0</ele><time>2026-05-01T14:13:37.967Z</time></trkpt><trkpt lat="42.99569" lon="11.4568833"><ele>390.0</ele><time>2026-05-01T14:13:38.966Z</time></trkpt><trkpt lat="42.995725" lon="11.4570617"><ele>390.0</ele><time>2026-05-01T14:13:39.967Z</time></trkpt><trkpt lat="42.99576" lon="11.457235"><ele>390.0</ele><time>2026-05-01T14:13:40.967Z</time></trkpt><trkpt lat="42.9957867" lon="11.4574"><ele>390.0</ele><time>2026-05-01T14:13:41.967Z</time></trkpt><trkpt lat="42.9958217" lon="11.45755"><ele>393.75</ele><time>2026-05-01T14:13:42.966Z</time></trkpt><trkpt lat="42.9958783" lon="11.4577"><ele>397.5</ele><time>2026-05-01T14:13:43.967Z</time></trkpt><trkpt lat="42.99596" lon="11.45786"><ele>401.25</ele><time>2026-05-01T14:13:44.966Z</time></trkpt><trkpt lat="42.9960583" lon="11.4580067"><ele>405.0</ele><time>2026-05-01T14:13:45.966Z</time></trkpt><trkpt lat="42.996165" lon="11.4581283"><ele>405.0</ele><time>2026-05-01T14:13:46.967Z</time></trkpt><trkpt lat="42.9962783" lon="11.458225"><ele>405.0</ele><time>2026-05-01T14:13:47.967Z</time></trkpt><trkpt lat="42.9963883" lon="11.4582883"><ele>405.0</ele><time>2026-05-01T14:13:48.966Z</time></trkpt><trkpt lat="42.9964917" lon="11.458345"><ele>405.0</ele><time>2026-05-01T14:13:49.966Z</time></trkpt><trkpt lat="42.9965967" lon="11.4584067"><ele>407.75</ele><time>2026-05-01T14:13:50.966Z</time></trkpt><trkpt lat="42.996705" lon="11.4584767"><ele>410.5</ele><time>2026-05-01T14:13:51.966Z</time></trkpt><trkpt lat="42.9968183" lon="11.4585433"><ele>413.25</ele><time>2026-05-01T14:13:52.966Z</time></trkpt><trkpt lat="42.9969267" lon="11.4586217"><ele>416.0</ele><time>2026-05-01T14:13:53.967Z</time></trkpt><trkpt lat="42.9970367" lon="11.45869"><ele>416.0</ele><time>2026-05-01T14:13:54.966Z</time></trkpt><trkpt lat="42.99716" lon="11.458725"><ele>416.0</ele><time>2026-05-01T14:13:55.967Z</time></trkpt><trkpt lat="42.9972967" lon="11.45872"><ele>416.0</ele><time>2026-05-01T14:13:56.966Z</time></trkpt><trkpt lat="42.9974333" lon="11.45869"><ele>416.0</ele><time>2026-05-01T14:13:57.967Z</time></trkpt><trkpt lat="42.9975533" lon="11.4586233"><ele>417.0</ele><time>2026-05-01T14:13:58.967Z</time></trkpt><trkpt lat="42.9976733" lon="11.458545"><ele>418.0</ele><time>2026-05-01T14:13:59.966Z</time></trkpt><trkpt lat="42.9977933" lon="11.458465"><ele>419.0</ele><time>2026-05-01T14:14:00.967Z</time></trkpt><trkpt lat="42.9979217" lon="11.458385"><ele>420.0</ele><time>2026-05-01T14:14:01.966Z</time></trkpt><trkpt lat="42.9980533" lon="11.4583067"><ele>420.0</ele><time>2026-05-01T14:14:02.967Z</time></trkpt><trkpt lat="42.9981867" lon="11.4582333"><ele>420.0</ele><time>2026-05-01T14:14:03.967Z</time></trkpt><trkpt lat="42.9983233" lon="11.458155"><ele>420.0</ele><time>2026-05-01T14:14:04.966Z</time></trkpt><trkpt lat="42.998455" lon="11.4580867"><ele>420.0</ele><time>2026-05-01T14:14:05.966Z</time></trkpt><trkpt lat="42.9985933" lon="11.4580317"><ele>420.33333333333337</ele><time>2026-05-01T14:14:06.966Z</time></trkpt><trkpt lat="42.9987383" lon="11.4579883"><ele>420.6666666666667</ele><time>2026-05-01T14:14:07.966Z</time></trkpt><trkpt lat="42.9988867" lon="11.45795"><ele>421.0</ele><time>2026-05-01T14:14:08.967Z</time></trkpt><trkpt lat="42.9990383" lon="11.4579183"><ele>421.0</ele><time>2026-05-01T14:14:09.966Z</time></trkpt><trkpt lat="42.9991933" lon="11.4578883"><ele>421.0</ele><time>2026-05-01T14:14:10.966Z</time></trkpt><trkpt lat="42.9993467" lon="11.45786"><ele>421.0</ele><time>2026-05-01T14:14:11.967Z</time></trkpt><trkpt lat="42.999505" lon="11.4578383"><ele>421.0</ele><time>2026-05-01T14:14:12.967Z</time></trkpt><trkpt lat="42.999665" lon="11.4578117"><ele>421.0</ele><time>2026-05-01T14:14:13.967Z</time></trkpt><trkpt lat="42.99982" lon="11.4577933"><ele>421.0</ele><time>2026-05-01T14:14:14.966Z</time></trkpt><trkpt lat="42.9999783" lon="11.4577933"><ele>421.0</ele><time>2026-05-01T14:14:15.966Z</time></trkpt><trkpt lat="43.0001317" lon="11.4578033"><ele>421.0</ele><time>2026-05-01T14:14:16.967Z</time></trkpt><trkpt lat="43.000285" lon="11.4578067"><ele>421.0</ele><time>2026-05-01T14:14:17.966Z</time></trkpt><trkpt lat="43.0004433" lon="11.4578117"><ele>421.0</ele><time>2026-05-01T14:14:18.966Z</time></trkpt><trkpt lat="43.0005967" lon="11.4578417"><ele>421.0</ele><time>2026-05-01T14:14:19.967Z</time></trkpt><trkpt lat="43.0007417" lon="11.4578933"><ele>421.0</ele><time>2026-05-01T14:14:20.967Z</time></trkpt><trkpt lat="43.0008983" lon="11.45797"><ele>424.0</ele><time>2026-05-01T14:14:21.967Z</time></trkpt><trkpt lat="43.0010583" lon="11.4580817"><ele>427.0</ele><time>2026-05-01T14:14:22.966Z</time></trkpt><trkpt lat="43.001235" lon="11.458215"><ele>430.0</ele><time>2026-05-01T14:14:23.966Z</time></trkpt><trkpt lat="43.0014233" lon="11.4583767"><ele>430.0</ele><time>2026-05-01T14:14:24.967Z</time></trkpt><trkpt lat="43.0016133" lon="11.4585617"><ele>430.0</ele><time>2026-05-01T14:14:25.967Z</time></trkpt><trkpt lat="43.0018017" lon="11.4587567"><ele>432.0</ele><time>2026-05-01T14:14:26.966Z</time></trkpt><trkpt lat="43.001985" lon="11.4589333"><ele>434.0</ele><time>2026-05-01T14:14:27.966Z</time></trkpt><trkpt lat="43.0021483" lon="11.459115"><ele>436.0</ele><time>2026-05-01T14:14:28.966Z</time></trkpt><trkpt lat="43.002305" lon="11.4593033"><ele>436.0</ele><time>2026-05-01T14:14:29.966Z</time></trkpt><trkpt lat="43.0024517" lon="11.4595217"><ele>436.0</ele><time>2026-05-01T14:14:30.967Z</time></trkpt><trkpt lat="43.00258" lon="11.459755"><ele>436.0</ele><time>2026-05-01T14:14:31.967Z</time></trkpt><trkpt lat="43.0026933" lon="11.4599867"><ele>434.6666666666667</ele><time>2026-05-01T14:14:32.966Z</time></trkpt><trkpt lat="43.002795" lon="11.4602333"><ele>433.33333333333337</ele><time>2026-05-01T14:14:33.967Z</time></trkpt><trkpt lat="43.00288" lon="11.4604883"><ele>432.0</ele><time>2026-05-01T14:14:34.967Z</time></trkpt><trkpt lat="43.00295" lon="11.4607517"><ele>432.0</ele><time>2026-05-01T14:14:35.967Z</time></trkpt><trkpt lat="43.0029883" lon="11.4610183"><ele>432.0</ele><time>2026-05-01T14:14:36.967Z</time></trkpt><trkpt lat="43.0030017" lon="11.46127"><ele>432.0</ele><time>2026-05-01T14:14:37.966Z</time></trkpt><trkpt lat="43.0030033" lon="11.4615233"><ele>430.66666666666663</ele><time>2026-05-01T14:14:38.966Z</time></trkpt><trkpt lat="43.0030033" lon="11.461765"><ele>429.3333333333333</ele><time>2026-05-01T14:14:39.966Z</time></trkpt><trkpt lat="43.0030083" lon="11.4619917"><ele>428.0</ele><time>2026-05-01T14:14:40.965Z</time></trkpt><trkpt lat="43.0030433" lon="11.4622083"><ele>427.66666666666663</ele><time>2026-05-01T14:14:41.965Z</time></trkpt><trkpt lat="43.0030833" lon="11.462425"><ele>427.33333333333337</ele><time>2026-05-01T14:14:42.965Z</time></trkpt><trkpt lat="43.0031633" lon="11.462625"><ele>427.0</ele><time>2026-05-01T14:14:43.966Z</time></trkpt><trkpt lat="43.0032717" lon="11.4627867"><ele>424.8</ele><time>2026-05-01T14:14:44.966Z</time></trkpt><trkpt lat="43.003385" lon="11.462905"><ele>422.6</ele><time>2026-05-01T14:14:45.965Z</time></trkpt><trkpt lat="43.0034967" lon="11.462985"><ele>420.40000000000003</ele><time>2026-05-01T14:14:46.966Z</time></trkpt><trkpt lat="43.0035883" lon="11.4630467"><ele>418.20000000000005</ele><time>2026-05-01T14:14:47.965Z</time></trkpt><trkpt lat="43.0036433" lon="11.46311"><ele>416.0</ele><time>2026-05-01T14:14:48.966Z</time></trkpt><trkpt lat="43.00368" lon="11.463225"><ele>415.99999999999994</ele><time>2026-05-01T14:14:50.965Z</time></trkpt><trkpt lat="43.003715" lon="11.4633467"><ele>416.0</ele><time>2026-05-01T14:14:52.965Z</time></trkpt><trkpt lat="43.0037533" lon="11.46342"><ele>416.0</ele><time>2026-05-01T14:14:53.965Z</time></trkpt><trkpt lat="43.0038117" lon="11.46349"><ele>416.0</ele><time>2026-05-01T14:14:54.965Z</time></trkpt><trkpt lat="43.0038817" lon="11.4635667"><ele>415.99999999999994</ele><time>2026-05-01T14:14:55.966Z</time></trkpt><trkpt lat="43.003955" lon="11.4636433"><ele>416.0</ele><time>2026-05-01T14:14:56.965Z</time></trkpt><trkpt lat="43.004025" lon="11.4637183"><ele>415.75</ele><time>2026-05-01T14:14:57.965Z</time></trkpt><trkpt lat="43.0041133" lon="11.4637933"><ele>415.5</ele><time>2026-05-01T14:14:58.966Z</time></trkpt><trkpt lat="43.0042217" lon="11.46386"><ele>415.25</ele><time>2026-05-01T14:14:59.965Z</time></trkpt><trkpt lat="43.004335" lon="11.4639067"><ele>415.0</ele><time>2026-05-01T14:15:00.966Z</time></trkpt><trkpt lat="43.0044467" lon="11.4639617"><ele>415.0</ele><time>2026-05-01T14:15:01.965Z</time></trkpt><trkpt lat="43.0045483" lon="11.4640333"><ele>415.0</ele><time>2026-05-01T14:15:02.966Z</time></trkpt><trkpt lat="43.0046367" lon="11.4641133"><ele>415.0</ele><time>2026-05-01T14:15:03.966Z</time></trkpt><trkpt lat="43.0047083" lon="11.4642083"><ele>415.0</ele><time>2026-05-01T14:15:04.965Z</time></trkpt><trkpt lat="43.00475" lon="11.464335"><ele>415.0</ele><time>2026-05-01T14:15:05.965Z</time></trkpt><trkpt lat="43.00478" lon="11.4644833"><ele>413.75</ele><time>2026-05-01T14:15:06.965Z</time></trkpt><trkpt lat="43.0047983" lon="11.46466"><ele>412.5</ele><time>2026-05-01T14:15:07.966Z</time></trkpt><trkpt lat="43.0048067" lon="11.4648267"><ele>411.25</ele><time>2026-05-01T14:15:08.965Z</time></trkpt><trkpt lat="43.0047967" lon="11.4649917"><ele>410.0</ele><time>2026-05-01T14:15:09.966Z</time></trkpt><trkpt lat="43.00477" lon="11.4651583"><ele>410.0</ele><time>2026-05-01T14:15:10.965Z</time></trkpt><trkpt lat="43.0047333" lon="11.4653233"><ele>410.0</ele><time>2026-05-01T14:15:11.966Z</time></trkpt><trkpt lat="43.0046783" lon="11.4654883"><ele>410.0</ele><time>2026-05-01T14:15:12.965Z</time></trkpt><trkpt lat="43.0046433" lon="11.465655"><ele>410.0</ele><time>2026-05-01T14:15:13.965Z</time></trkpt><trkpt lat="43.0046267" lon="11.46583"><ele>409.75</ele><time>2026-05-01T14:15:14.966Z</time></trkpt><trkpt lat="43.00462" lon="11.4660367"><ele>409.5</ele><time>2026-05-01T14:15:15.965Z</time></trkpt><trkpt lat="43.0046167" lon="11.4662417"><ele>409.25</ele><time>2026-05-01T14:15:16.966Z</time></trkpt><trkpt lat="43.0046133" lon="11.4664383"><ele>409.0</ele><time>2026-05-01T14:15:17.966Z</time></trkpt><trkpt lat="43.004625" lon="11.466625"><ele>408.0</ele><time>2026-05-01T14:15:18.965Z</time></trkpt><trkpt lat="43.0046283" lon="11.4668183"><ele>407.0</ele><time>2026-05-01T14:15:19.965Z</time></trkpt><trkpt lat="43.0046383" lon="11.4669983"><ele>406.0</ele><time>2026-05-01T14:15:20.965Z</time></trkpt><trkpt lat="43.0046533" lon="11.46717"><ele>405.0</ele><time>2026-05-01T14:15:21.965Z</time></trkpt><trkpt lat="43.0046767" lon="11.4673317"><ele>404.2</ele><time>2026-05-01T14:15:22.965Z</time></trkpt><trkpt lat="43.0047067" lon="11.4675"><ele>403.4</ele><time>2026-05-01T14:15:23.966Z</time></trkpt><trkpt lat="43.0047333" lon="11.4676617"><ele>402.6</ele><time>2026-05-01T14:15:24.966Z</time></trkpt><trkpt lat="43.0047433" lon="11.4678033"><ele>401.8</ele><time>2026-05-01T14:15:25.966Z</time></trkpt><trkpt lat="43.0047283" lon="11.4679233"><ele>401.0</ele><time>2026-05-01T14:15:26.965Z</time></trkpt><trkpt lat="43.0047117" lon="11.4680483"><ele>400.99999999999994</ele><time>2026-05-01T14:15:27.965Z</time></trkpt><trkpt lat="43.00467" lon="11.4681617"><ele>401.0</ele><time>2026-05-01T14:15:28.965Z</time></trkpt><trkpt lat="43.00462" lon="11.46825"><ele>401.0</ele><time>2026-05-01T14:15:29.965Z</time></trkpt><trkpt lat="43.004565" lon="11.468305"><ele>401.0</ele><time>2026-05-01T14:15:30.965Z</time></trkpt><trkpt lat="43.00444" lon="11.46833"><ele>400.99999999999994</ele><time>2026-05-01T14:15:32.965Z</time></trkpt><trkpt lat="43.0043633" lon="11.4683083"><ele>401.0</ele><time>2026-05-01T14:15:33.965Z</time></trkpt><trkpt lat="43.0042633" lon="11.4683083"><ele>401.0</ele><time>2026-05-01T14:15:34.966Z</time></trkpt><trkpt lat="43.0041717" lon="11.4683233"><ele>401.0</ele><time>2026-05-01T14:15:35.966Z</time></trkpt><trkpt lat="43.0040767" lon="11.4683417"><ele>401.0</ele><time>2026-05-01T14:15:36.965Z</time></trkpt><trkpt lat="43.0039883" lon="11.4683817"><ele>401.0</ele><time>2026-05-01T14:15:37.966Z</time></trkpt><trkpt lat="43.0039083" lon="11.4684367"><ele>401.0</ele><time>2026-05-01T14:15:38.965Z</time></trkpt><trkpt lat="43.0038367" lon="11.4684933"><ele>398.8</ele><time>2026-05-01T14:15:39.965Z</time></trkpt><trkpt lat="43.003775" lon="11.4685567"><ele>396.6</ele><time>2026-05-01T14:15:40.965Z</time></trkpt><trkpt lat="43.0037467" lon="11.4686767"><ele>394.4</ele><time>2026-05-01T14:15:41.966Z</time></trkpt><trkpt lat="43.003705" lon="11.4687783"><ele>392.2</ele><time>2026-05-01T14:15:42.966Z</time></trkpt><trkpt lat="43.0036767" lon="11.4689283"><ele>390.0</ele><time>2026-05-01T14:15:43.966Z</time></trkpt><trkpt lat="43.003645" lon="11.469075"><ele>390.0</ele><time>2026-05-01T14:15:44.966Z</time></trkpt><trkpt lat="43.0036183" lon="11.4692317"><ele>390.0</ele><time>2026-05-01T14:15:45.965Z</time></trkpt><trkpt lat="43.0036117" lon="11.4694083"><ele>390.0</ele><time>2026-05-01T14:15:46.966Z</time></trkpt><trkpt lat="43.0036083" lon="11.4695683"><ele>390.0</ele><time>2026-05-01T14:15:47.965Z</time></trkpt><trkpt lat="43.003605" lon="11.4697433"><ele>390.0</ele><time>2026-05-01T14:15:48.965Z</time></trkpt><trkpt lat="43.0035883" lon="11.469905"><ele>390.0</ele><time>2026-05-01T14:15:49.965Z</time></trkpt><trkpt lat="43.0035617" lon="11.470065"><ele>390.0</ele><time>2026-05-01T14:15:50.965Z</time></trkpt><trkpt lat="43.00352" lon="11.4702233"><ele>390.0</ele><time>2026-05-01T14:15:51.966Z</time></trkpt><trkpt lat="43.003475" lon="11.4703783"><ele>390.5</ele><time>2026-05-01T14:15:52.966Z</time></trkpt><trkpt lat="43.0034333" lon="11.4705567"><ele>391.0</ele><time>2026-05-01T14:15:53.966Z</time></trkpt><trkpt lat="43.0033917" lon="11.4707383"><ele>391.5</ele><time>2026-05-01T14:15:54.965Z</time></trkpt><trkpt lat="43.00335" lon="11.470925"><ele>392.0</ele><time>2026-05-01T14:15:55.966Z</time></trkpt><trkpt lat="43.0033217" lon="11.47109"><ele>389.75</ele><time>2026-05-01T14:15:56.965Z</time></trkpt><trkpt lat="43.0033017" lon="11.4712633"><ele>387.5</ele><time>2026-05-01T14:15:57.965Z</time></trkpt><trkpt lat="43.0032783" lon="11.4714367"><ele>385.25</ele><time>2026-05-01T14:15:58.965Z</time></trkpt><trkpt lat="43.0032567" lon="11.4716117"><ele>383.0</ele><time>2026-05-01T14:15:59.966Z</time></trkpt><trkpt lat="43.0032267" lon="11.4717717"><ele>383.0</ele><time>2026-05-01T14:16:00.965Z</time></trkpt><trkpt lat="43.0031883" lon="11.4719217"><ele>383.0</ele><time>2026-05-01T14:16:01.966Z</time></trkpt><trkpt lat="43.0031483" lon="11.4720683"><ele>383.0</ele><time>2026-05-01T14:16:02.965Z</time></trkpt><trkpt lat="43.00312" lon="11.4722217"><ele>383.0</ele><time>2026-05-01T14:16:03.965Z</time></trkpt><trkpt lat="43.0031067" lon="11.47237"><ele>383.0</ele><time>2026-05-01T14:16:04.965Z</time></trkpt><trkpt lat="43.0031167" lon="11.4725033"><ele>383.0</ele><time>2026-05-01T14:16:05.965Z</time></trkpt><trkpt lat="43.0031233" lon="11.4726333"><ele>383.0</ele><time>2026-05-01T14:16:06.966Z</time></trkpt><trkpt lat="43.0031183" lon="11.4727733"><ele>383.0</ele><time>2026-05-01T14:16:07.965Z</time></trkpt><trkpt lat="43.0031117" lon="11.4729133"><ele>383.0</ele><time>2026-05-01T14:16:08.966Z</time></trkpt><trkpt lat="43.0030983" lon="11.4730533"><ele>383.2</ele><time>2026-05-01T14:16:09.966Z</time></trkpt><trkpt lat="43.00309" lon="11.473205"><ele>383.4</ele><time>2026-05-01T14:16:10.965Z</time></trkpt><trkpt lat="43.00308" lon="11.4733467"><ele>383.59999999999997</ele><time>2026-05-01T14:16:11.965Z</time></trkpt><trkpt lat="43.0030767" lon="11.4734817"><ele>383.79999999999995</ele><time>2026-05-01T14:16:12.966Z</time></trkpt><trkpt lat="43.0030867" lon="11.4736183"><ele>384.0</ele><time>2026-05-01T14:16:13.965Z</time></trkpt><trkpt lat="43.0031033" lon="11.4737433"><ele>383.0</ele><time>2026-05-01T14:16:14.965Z</time></trkpt><trkpt lat="43.003145" lon="11.473855"><ele>382.0</ele><time>2026-05-01T14:16:15.965Z</time></trkpt><trkpt lat="43.0032" lon="11.473955"><ele>381.0</ele><time>2026-05-01T14:16:16.965Z</time></trkpt><trkpt lat="43.0032783" lon="11.4740283"><ele>380.0</ele><time>2026-05-01T14:16:17.966Z</time></trkpt><trkpt lat="43.003355" lon="11.4740933"><ele>379.0</ele><time>2026-05-01T14:16:18.966Z</time></trkpt><trkpt lat="43.0034317" lon="11.47415"><ele>381.0</ele><time>2026-05-01T14:16:19.965Z</time></trkpt><trkpt lat="43.003515" lon="11.474215"><ele>383.0</ele><time>2026-05-01T14:16:20.965Z</time></trkpt><trkpt lat="43.0035933" lon="11.4742733"><ele>385.0</ele><time>2026-05-01T14:16:21.966Z</time></trkpt><trkpt lat="43.0036517" lon="11.4743317"><ele>387.0</ele><time>2026-05-01T14:16:22.966Z</time></trkpt><trkpt lat="43.0036817" lon="11.4744683"><ele>389.0</ele><time>2026-05-01T14:16:24.965Z</time></trkpt><trkpt lat="43.0036067" lon="11.4745933"><ele>388.79999999999995</ele><time>2026-05-01T14:16:26.965Z</time></trkpt><trkpt lat="43.0035417" lon="11.4746567"><ele>388.59999999999997</ele><time>2026-05-01T14:16:27.965Z</time></trkpt><trkpt lat="43.0034583" lon="11.4747167"><ele>388.4</ele><time>2026-05-01T14:16:28.965Z</time></trkpt><trkpt lat="43.0033583" lon="11.474785"><ele>388.2</ele><time>2026-05-01T14:16:29.965Z</time></trkpt><trkpt lat="43.0032317" lon="11.4748317"><ele>388.0</ele><time>2026-05-01T14:16:30.965Z</time></trkpt><trkpt lat="43.0031" lon="11.4748717"><ele>385.33333333333337</ele><time>2026-05-01T14:16:31.965Z</time></trkpt><trkpt lat="43.0029667" lon="11.4749317"><ele>382.6666666666667</ele><time>2026-05-01T14:16:32.965Z</time></trkpt><trkpt lat="43.0028233" lon="11.4750333"><ele>380.0</ele><time>2026-05-01T14:16:33.966Z</time></trkpt><trkpt lat="43.002645" lon="11.4751633"><ele>378.5</ele><time>2026-05-01T14:16:34.966Z</time></trkpt><trkpt lat="43.0024567" lon="11.4753033"><ele>377.0</ele><time>2026-05-01T14:16:35.966Z</time></trkpt><trkpt lat="43.00225" lon="11.4754667"><ele>377.0</ele><time>2026-05-01T14:16:36.966Z</time></trkpt><trkpt lat="43.0020217" lon="11.47564"><ele>377.0</ele><time>2026-05-01T14:16:37.965Z</time></trkpt><trkpt lat="43.001795" lon="11.4758033"><ele>376.0</ele><time>2026-05-01T14:16:38.966Z</time></trkpt><trkpt lat="43.0015933" lon="11.4759467"><ele>375.0</ele><time>2026-05-01T14:16:39.965Z</time></trkpt><trkpt lat="43.001425" lon="11.4760783"><ele>374.0</ele><time>2026-05-01T14:16:40.966Z</time></trkpt><trkpt lat="43.00129" lon="11.47618"><ele>375.2</ele><time>2026-05-01T14:16:41.965Z</time></trkpt><trkpt lat="43.0011733" lon="11.4762883"><ele>376.4</ele><time>2026-05-01T14:16:42.966Z</time></trkpt><trkpt lat="43.0010733" lon="11.476365"><ele>377.6</ele><time>2026-05-01T14:16:43.965Z</time></trkpt><trkpt lat="43.0009983" lon="11.4764133"><ele>378.8</ele><time>2026-05-01T14:16:44.966Z</time></trkpt><trkpt lat="43.00093" lon="11.4764267"><ele>380.0</ele><time>2026-05-01T14:16:45.966Z</time></trkpt><trkpt lat="43.0008667" lon="11.4764083"><ele>380.25</ele><time>2026-05-01T14:16:46.965Z</time></trkpt><trkpt lat="43.0007983" lon="11.4763633"><ele>380.5</ele><time>2026-05-01T14:16:47.965Z</time></trkpt><trkpt lat="43.000725" lon="11.4762717"><ele>380.75</ele><time>2026-05-01T14:16:48.966Z</time></trkpt><trkpt lat="43.0006517" lon="11.4761283"><ele>381.0</ele><time>2026-05-01T14:16:49.965Z</time></trkpt><trkpt lat="43.0005667" lon="11.4759567"><ele>379.0</ele><time>2026-05-01T14:16:50.965Z</time></trkpt><trkpt lat="43.0004767" lon="11.4757567"><ele>377.0</ele><time>2026-05-01T14:16:51.965Z</time></trkpt><trkpt lat="43.00038" lon="11.4755467"><ele>375.0</ele><time>2026-05-01T14:16:52.966Z</time></trkpt><trkpt lat="43.0002667" lon="11.4753283"><ele>373.6666666666667</ele><time>2026-05-01T14:16:53.965Z</time></trkpt><trkpt lat="43.00014" lon="11.4751033"><ele>372.33333333333337</ele><time>2026-05-01T14:16:54.966Z</time></trkpt><trkpt lat="42.9999967" lon="11.4748833"><ele>371.0</ele><time>2026-05-01T14:16:55.966Z</time></trkpt><trkpt lat="42.9998583" lon="11.4746633"><ele>369.33333333333337</ele><time>2026-05-01T14:16:56.965Z</time></trkpt><trkpt lat="42.9997267" lon="11.4744617"><ele>367.6666666666667</ele><time>2026-05-01T14:16:57.966Z</time></trkpt><trkpt lat="42.99961" lon="11.4742833"><ele>366.0</ele><time>2026-05-01T14:16:58.965Z</time></trkpt><trkpt lat="42.999505" lon="11.474135"><ele>366.0</ele><time>2026-05-01T14:16:59.965Z</time></trkpt><trkpt lat="42.9994083" lon="11.474015"><ele>366.0</ele><time>2026-05-01T14:17:00.965Z</time></trkpt><trkpt lat="42.9993083" lon="11.4739117"><ele>366.0</ele><time>2026-05-01T14:17:01.965Z</time></trkpt><trkpt lat="42.9992" lon="11.473835"><ele>366.0</ele><time>2026-05-01T14:17:02.966Z</time></trkpt><trkpt lat="42.9990733" lon="11.4737883"><ele>365.0</ele><time>2026-05-01T14:17:03.966Z</time></trkpt><trkpt lat="42.9989283" lon="11.4737567"><ele>364.0</ele><time>2026-05-01T14:17:04.966Z</time></trkpt><trkpt lat="42.9987667" lon="11.473715"><ele>363.0</ele><time>2026-05-01T14:17:05.966Z</time></trkpt><trkpt lat="42.998605" lon="11.4736717"><ele>363.0</ele><time>2026-05-01T14:17:06.965Z</time></trkpt><trkpt lat="42.9984333" lon="11.47363"><ele>363.0</ele><time>2026-05-01T14:17:07.965Z</time></trkpt><trkpt lat="42.9982733" lon="11.4735783"><ele>363.0</ele><time>2026-05-01T14:17:08.966Z</time></trkpt><trkpt lat="42.9981217" lon="11.4735317"><ele>363.3333333333333</ele><time>2026-05-01T14:17:09.966Z</time></trkpt><trkpt lat="42.9979733" lon="11.4734967"><ele>363.66666666666663</ele><time>2026-05-01T14:17:10.966Z</time></trkpt><trkpt lat="42.9978167" lon="11.4734283"><ele>364.0</ele><time>2026-05-01T14:17:11.965Z</time></trkpt><trkpt lat="42.997665" lon="11.4733383"><ele>364.0</ele><time>2026-05-01T14:17:12.965Z</time></trkpt><trkpt lat="42.997505" lon="11.4732333"><ele>364.0</ele><time>2026-05-01T14:17:13.965Z</time></trkpt><trkpt lat="42.9973533" lon="11.473145"><ele>364.0</ele><time>2026-05-01T14:17:14.965Z</time></trkpt><trkpt lat="42.9972267" lon="11.4730667"><ele>364.6</ele><time>2026-05-01T14:17:15.965Z</time></trkpt><trkpt lat="42.9971233" lon="11.4730133"><ele>365.2</ele><time>2026-05-01T14:17:16.966Z</time></trkpt><trkpt lat="42.99704" lon="11.4729817"><ele>365.8</ele><time>2026-05-01T14:17:17.966Z</time></trkpt><trkpt lat="42.9969533" lon="11.4729783"><ele>366.40000000000003</ele><time>2026-05-01T14:17:18.965Z</time></trkpt><trkpt lat="42.9968767" lon="11.47301"><ele>367.0</ele><time>2026-05-01T14:17:19.965Z</time></trkpt><trkpt lat="42.9967983" lon="11.4730833"><ele>367.0</ele><time>2026-05-01T14:17:20.965Z</time></trkpt><trkpt lat="42.9967167" lon="11.4732033"><ele>367.0</ele><time>2026-05-01T14:17:21.966Z</time></trkpt><trkpt lat="42.9966233" lon="11.4733767"><ele>367.0</ele><time>2026-05-01T14:17:22.966Z</time></trkpt><trkpt lat="42.9965083" lon="11.4735617"><ele>368.66666666666663</ele><time>2026-05-01T14:17:23.966Z</time></trkpt><trkpt lat="42.9963917" lon="11.4737567"><ele>370.3333333333333</ele><time>2026-05-01T14:17:24.966Z</time></trkpt><trkpt lat="42.9962783" lon="11.47394"><ele>372.0</ele><time>2026-05-01T14:17:25.965Z</time></trkpt><trkpt lat="42.9961467" lon="11.4741267"><ele>372.3333333333333</ele><time>2026-05-01T14:17:26.965Z</time></trkpt><trkpt lat="42.9960183" lon="11.4743017"><ele>372.66666666666663</ele><time>2026-05-01T14:17:27.965Z</time></trkpt><trkpt lat="42.995885" lon="11.47447"><ele>373.0</ele><time>2026-05-01T14:17:28.966Z</time></trkpt><trkpt lat="42.9957417" lon="11.47462"><ele>374.25</ele><time>2026-05-01T14:17:29.966Z</time></trkpt><trkpt lat="42.99561" lon="11.4747417"><ele>375.5</ele><time>2026-05-01T14:17:30.966Z</time></trkpt><trkpt lat="42.9955033" lon="11.4748283"><ele>376.75</ele><time>2026-05-01T14:17:31.965Z</time></trkpt><trkpt lat="42.9953967" lon="11.4748817"><ele>378.0</ele><time>2026-05-01T14:17:32.966Z</time></trkpt><trkpt lat="42.9953" lon="11.4749017"><ele>378.0</ele><time>2026-05-01T14:17:33.965Z</time></trkpt><trkpt lat="42.99517" lon="11.4748867"><ele>378.0</ele><time>2026-05-01T14:17:34.966Z</time></trkpt><trkpt lat="42.9950067" lon="11.4748567"><ele>378.0</ele><time>2026-05-01T14:17:35.965Z</time></trkpt><trkpt lat="42.9948433" lon="11.4748233"><ele>377.5</ele><time>2026-05-01T14:17:36.966Z</time></trkpt><trkpt lat="42.9947" lon="11.4747983"><ele>377.0</ele><time>2026-05-01T14:17:37.966Z</time></trkpt><trkpt lat="42.9945833" lon="11.4747867"><ele>376.5</ele><time>2026-05-01T14:17:38.966Z</time></trkpt><trkpt lat="42.994475" lon="11.4747817"><ele>376.0</ele><time>2026-05-01T14:17:39.965Z</time></trkpt><trkpt lat="42.99438" lon="11.4748067"><ele>376.0</ele><time>2026-05-01T14:17:40.965Z</time></trkpt><trkpt lat="42.9942717" lon="11.4748683"><ele>376.0</ele><time>2026-05-01T14:17:41.965Z</time></trkpt><trkpt lat="42.99415" lon="11.47496"><ele>376.0</ele><time>2026-05-01T14:17:42.966Z</time></trkpt><trkpt lat="42.9940367" lon="11.4750467"><ele>376.0</ele><time>2026-05-01T14:17:43.966Z</time></trkpt><trkpt lat="42.993925" lon="11.4751233"><ele>375.25</ele><time>2026-05-01T14:17:44.966Z</time></trkpt><trkpt lat="42.9938267" lon="11.4752033"><ele>374.5</ele><time>2026-05-01T14:17:45.965Z</time></trkpt><trkpt lat="42.9937183" lon="11.4752983"><ele>373.75</ele><time>2026-05-01T14:17:46.965Z</time></trkpt><trkpt lat="42.993635" lon="11.4754033"><ele>373.0</ele><time>2026-05-01T14:17:47.966Z</time></trkpt><trkpt lat="42.9935667" lon="11.475505"><ele>373.0</ele><time>2026-05-01T14:17:48.965Z</time></trkpt><trkpt lat="42.9935083" lon="11.4756233"><ele>373.0</ele><time>2026-05-01T14:17:49.966Z</time></trkpt><trkpt lat="42.99346" lon="11.4757817"><ele>373.0</ele><time>2026-05-01T14:17:50.965Z</time></trkpt><trkpt lat="42.9934017" lon="11.47597"><ele>373.0</ele><time>2026-05-01T14:17:51.965Z</time></trkpt><trkpt lat="42.99334" lon="11.4761667"><ele>369.0</ele><time>2026-05-01T14:17:52.965Z</time></trkpt><trkpt lat="42.993285" lon="11.476355"><ele>365.0</ele><time>2026-05-01T14:17:53.965Z</time></trkpt><trkpt lat="42.9932267" lon="11.4765367"><ele>361.0</ele><time>2026-05-01T14:17:54.965Z</time></trkpt><trkpt lat="42.9931733" lon="11.4767033"><ele>357.0</ele><time>2026-05-01T14:17:55.965Z</time></trkpt><trkpt lat="42.9931283" lon="11.4768417"><ele>357.0</ele><time>2026-05-01T14:17:56.966Z</time></trkpt><trkpt lat="42.99309" lon="11.47697"><ele>357.0</ele><time>2026-05-01T14:17:57.965Z</time></trkpt><trkpt lat="42.993065" lon="11.4770967"><ele>357.0</ele><time>2026-05-01T14:17:58.965Z</time></trkpt><trkpt lat="42.9930583" lon="11.47722"><ele>357.0</ele><time>2026-05-01T14:17:59.965Z</time></trkpt><trkpt lat="42.9930617" lon="11.4773367"><ele>357.0</ele><time>2026-05-01T14:18:00.966Z</time></trkpt><trkpt lat="42.9930783" lon="11.4774667"><ele>355.6</ele><time>2026-05-01T14:18:01.965Z</time></trkpt><trkpt lat="42.9931" lon="11.4775867"><ele>354.20000000000005</ele><time>2026-05-01T14:18:02.965Z</time></trkpt><trkpt lat="42.9931283" lon="11.4777033"><ele>352.8</ele><time>2026-05-01T14:18:03.966Z</time></trkpt><trkpt lat="42.99317" lon="11.4778083"><ele>351.4</ele><time>2026-05-01T14:18:04.965Z</time></trkpt><trkpt lat="42.993235" lon="11.4779"><ele>350.0</ele><time>2026-05-01T14:18:05.965Z</time></trkpt><trkpt lat="42.9933167" lon="11.4779733"><ele>349.4</ele><time>2026-05-01T14:18:06.966Z</time></trkpt><trkpt lat="42.9934" lon="11.47803"><ele>348.8</ele><time>2026-05-01T14:18:07.966Z</time></trkpt><trkpt lat="42.993485" lon="11.4780817"><ele>348.20000000000005</ele><time>2026-05-01T14:18:08.965Z</time></trkpt><trkpt lat="42.9935667" lon="11.4781383"><ele>347.6</ele><time>2026-05-01T14:18:09.965Z</time></trkpt><trkpt lat="42.99366" lon="11.4782"><ele>347.0</ele><time>2026-05-01T14:18:10.966Z</time></trkpt><trkpt lat="42.99375" lon="11.4782667"><ele>347.0</ele><time>2026-05-01T14:18:11.965Z</time></trkpt><trkpt lat="42.993845" lon="11.4783217"><ele>347.0</ele><time>2026-05-01T14:18:12.965Z</time></trkpt><trkpt lat="42.9939367" lon="11.4783567"><ele>347.0</ele><time>2026-05-01T14:18:13.965Z</time></trkpt><trkpt lat="42.9940367" lon="11.4783783"><ele>347.0</ele><time>2026-05-01T14:18:14.965Z</time></trkpt><trkpt lat="42.9941233" lon="11.4783817"><ele>347.0</ele><time>2026-05-01T14:18:15.965Z</time></trkpt><trkpt lat="42.9942" lon="11.478395"><ele>345.40000000000003</ele><time>2026-05-01T14:18:16.966Z</time></trkpt><trkpt lat="42.9942617" lon="11.4784233"><ele>343.8</ele><time>2026-05-01T14:18:17.965Z</time></trkpt><trkpt lat="42.99435" lon="11.47853"><ele>342.2</ele><time>2026-05-01T14:18:19.965Z</time></trkpt><trkpt lat="42.9943333" lon="11.4787"><ele>340.6</ele><time>2026-05-01T14:18:21.966Z</time></trkpt><trkpt lat="42.9942667" lon="11.478825"><ele>339.0</ele><time>2026-05-01T14:18:22.966Z</time></trkpt><trkpt lat="42.994165" lon="11.4789783"><ele>339.0</ele><time>2026-05-01T14:18:23.965Z</time></trkpt><trkpt lat="42.9940433" lon="11.4791467"><ele>339.0</ele><time>2026-05-01T14:18:24.965Z</time></trkpt><trkpt lat="42.9939433" lon="11.4793133"><ele>339.0</ele><time>2026-05-01T14:18:25.965Z</time></trkpt><trkpt lat="42.9938517" lon="11.47946"><ele>339.0</ele><time>2026-05-01T14:18:26.966Z</time></trkpt><trkpt lat="42.9937883" lon="11.4795983"><ele>339.0</ele><time>2026-05-01T14:18:27.965Z</time></trkpt><trkpt lat="42.9937433" lon="11.4797217"><ele>339.0</ele><time>2026-05-01T14:18:28.965Z</time></trkpt><trkpt lat="42.99371" lon="11.4798417"><ele>339.0</ele><time>2026-05-01T14:18:29.965Z</time></trkpt><trkpt lat="42.99369" lon="11.4799617"><ele>339.0</ele><time>2026-05-01T14:18:30.965Z</time></trkpt><trkpt lat="42.9936867" lon="11.48009"><ele>339.75</ele><time>2026-05-01T14:18:31.965Z</time></trkpt><trkpt lat="42.993695" lon="11.4802317"><ele>340.5</ele><time>2026-05-01T14:18:32.966Z</time></trkpt><trkpt lat="42.9937183" lon="11.4804133"><ele>341.25</ele><time>2026-05-01T14:18:33.966Z</time></trkpt><trkpt lat="42.99376" lon="11.4806167"><ele>342.0</ele><time>2026-05-01T14:18:34.965Z</time></trkpt><trkpt lat="42.9938" lon="11.4808183"><ele>340.0</ele><time>2026-05-01T14:18:35.965Z</time></trkpt><trkpt lat="42.99383" lon="11.4810217"><ele>338.0</ele><time>2026-05-01T14:18:36.965Z</time></trkpt><trkpt lat="42.9938417" lon="11.4811983"><ele>336.0</ele><time>2026-05-01T14:18:37.965Z</time></trkpt><trkpt lat="42.993835" lon="11.4813783"><ele>334.0</ele><time>2026-05-01T14:18:38.965Z</time></trkpt><trkpt lat="42.9938083" lon="11.4815483"><ele>329.75</ele><time>2026-05-01T14:18:39.966Z</time></trkpt><trkpt lat="42.9937783" lon="11.4817083"><ele>325.5</ele><time>2026-05-01T14:18:40.966Z</time></trkpt><trkpt lat="42.993745" lon="11.4818733"><ele>321.25</ele><time>2026-05-01T14:18:41.965Z</time></trkpt><trkpt lat="42.99371" lon="11.48204"><ele>317.0</ele><time>2026-05-01T14:18:42.965Z</time></trkpt><trkpt lat="42.9936867" lon="11.482195"><ele>315.25</ele><time>2026-05-01T14:18:43.965Z</time></trkpt><trkpt lat="42.9936867" lon="11.4823367"><ele>313.5</ele><time>2026-05-01T14:18:44.965Z</time></trkpt><trkpt lat="42.9937133" lon="11.482485"><ele>311.75</ele><time>2026-05-01T14:18:45.965Z</time></trkpt><trkpt lat="42.9937717" lon="11.48263"><ele>310.0</ele><time>2026-05-01T14:18:46.965Z</time></trkpt><trkpt lat="42.993845" lon="11.4827767"><ele>308.66666666666663</ele><time>2026-05-01T14:18:47.966Z</time></trkpt><trkpt lat="42.9939267" lon="11.48295"><ele>307.3333333333333</ele><time>2026-05-01T14:18:48.965Z</time></trkpt><trkpt lat="42.9940083" lon="11.48312"><ele>306.0</ele><time>2026-05-01T14:18:49.965Z</time></trkpt><trkpt lat="42.9940783" lon="11.4833033"><ele>306.0</ele><time>2026-05-01T14:18:50.966Z</time></trkpt><trkpt lat="42.99414" lon="11.4834683"><ele>306.0</ele><time>2026-05-01T14:18:51.966Z</time></trkpt><trkpt lat="42.9941967" lon="11.48361"><ele>306.0</ele><time>2026-05-01T14:18:52.966Z</time></trkpt><trkpt lat="42.9942517" lon="11.4837433"><ele>306.0</ele><time>2026-05-01T14:18:53.966Z</time></trkpt><trkpt lat="42.994335" lon="11.4838517"><ele>305.0</ele><time>2026-05-01T14:18:54.965Z</time></trkpt><trkpt lat="42.994425" lon="11.4839583"><ele>304.0</ele><time>2026-05-01T14:18:55.965Z</time></trkpt><trkpt lat="42.99452" lon="11.484045"><ele>303.0</ele><time>2026-05-01T14:18:56.966Z</time></trkpt><trkpt lat="42.9946283" lon="11.4841183"><ele>302.0</ele><time>2026-05-01T14:18:57.966Z</time></trkpt><trkpt lat="42.99474" lon="11.4841683"><ele>302.0</ele><time>2026-05-01T14:18:58.965Z</time></trkpt><trkpt lat="42.9948667" lon="11.48423"><ele>302.0</ele><time>2026-05-01T14:18:59.965Z</time></trkpt><trkpt lat="42.9949883" lon="11.48429"><ele>302.0</ele><time>2026-05-01T14:19:00.966Z</time></trkpt><trkpt lat="42.995095" lon="11.48437"><ele>302.0</ele><time>2026-05-01T14:19:01.965Z</time></trkpt><trkpt lat="42.9951933" lon="11.4844583"><ele>303.4</ele><time>2026-05-01T14:19:02.965Z</time></trkpt><trkpt lat="42.99528" lon="11.48457"><ele>304.79999999999995</ele><time>2026-05-01T14:19:03.966Z</time></trkpt><trkpt lat="42.9953533" lon="11.48469"><ele>306.2</ele><time>2026-05-01T14:19:04.966Z</time></trkpt><trkpt lat="42.9954167" lon="11.4848"><ele>307.59999999999997</ele><time>2026-05-01T14:19:05.966Z</time></trkpt><trkpt lat="42.9954483" lon="11.48494"><ele>309.0</ele><time>2026-05-01T14:19:06.966Z</time></trkpt><trkpt lat="42.99546" lon="11.48508"><ele>309.0</ele><time>2026-05-01T14:19:07.965Z</time></trkpt><trkpt lat="42.9954533" lon="11.4852183"><ele>309.0</ele><time>2026-05-01T14:19:08.966Z</time></trkpt><trkpt lat="42.9954417" lon="11.4853467"><ele>309.0</ele><time>2026-05-01T14:19:09.965Z</time></trkpt><trkpt lat="42.9954083" lon="11.4854517"><ele>309.0</ele><time>2026-05-01T14:19:10.965Z</time></trkpt><trkpt lat="42.9953617" lon="11.4855117"><ele>309.0</ele><time>2026-05-01T14:19:11.965Z</time></trkpt><trkpt lat="42.9952483" lon="11.4855417"><ele>309.0</ele><time>2026-05-01T14:19:13.965Z</time></trkpt><trkpt lat="42.9951833" lon="11.4854933"><ele>309.0</ele><time>2026-05-01T14:19:14.965Z</time></trkpt><trkpt lat="42.9951083" lon="11.4854517"><ele>309.0</ele><time>2026-05-01T14:19:15.965Z</time></trkpt><trkpt lat="42.995025" lon="11.485405"><ele>309.0</ele><time>2026-05-01T14:19:16.966Z</time></trkpt><trkpt lat="42.9949333" lon="11.4853783"><ele>309.0</ele><time>2026-05-01T14:19:17.965Z</time></trkpt><trkpt lat="42.9948317" lon="11.4853933"><ele>309.0</ele><time>2026-05-01T14:19:18.965Z</time></trkpt><trkpt lat="42.99472" lon="11.485445"><ele>307.25</ele><time>2026-05-01T14:19:19.965Z</time></trkpt><trkpt lat="42.9946" lon="11.4855083"><ele>305.5</ele><time>2026-05-01T14:19:20.965Z</time></trkpt><trkpt lat="42.9944817" lon="11.4855717"><ele>303.75</ele><time>2026-05-01T14:19:21.965Z</time></trkpt><trkpt lat="42.994375" lon="11.48564"><ele>302.0</ele><time>2026-05-01T14:19:22.966Z</time></trkpt><trkpt lat="42.99427" lon="11.4857067"><ele>302.6</ele><time>2026-05-01T14:19:23.965Z</time></trkpt><trkpt lat="42.99417" lon="11.48575"><ele>303.2</ele><time>2026-05-01T14:19:24.966Z</time></trkpt><trkpt lat="42.994075" lon="11.4857717"><ele>303.8</ele><time>2026-05-01T14:19:25.965Z</time></trkpt><trkpt lat="42.9939783" lon="11.4857683"><ele>304.4</ele><time>2026-05-01T14:19:26.965Z</time></trkpt><trkpt lat="42.99388" lon="11.48576"><ele>305.0</ele><time>2026-05-01T14:19:27.965Z</time></trkpt><trkpt lat="42.9937683" lon="11.485755"><ele>305.0</ele><time>2026-05-01T14:19:28.965Z</time></trkpt><trkpt lat="42.993645" lon="11.4857567"><ele>305.0</ele><time>2026-05-01T14:19:29.966Z</time></trkpt><trkpt lat="42.9935217" lon="11.4857533"><ele>305.0</ele><time>2026-05-01T14:19:30.965Z</time></trkpt><trkpt lat="42.9934017" lon="11.485755"><ele>305.0</ele><time>2026-05-01T14:19:31.965Z</time></trkpt><trkpt lat="42.993285" lon="11.4857633"><ele>304.2</ele><time>2026-05-01T14:19:32.965Z</time></trkpt><trkpt lat="42.9931717" lon="11.4857733"><ele>303.4</ele><time>2026-05-01T14:19:33.966Z</time></trkpt><trkpt lat="42.99306" lon="11.4857967"><ele>302.6</ele><time>2026-05-01T14:19:34.965Z</time></trkpt><trkpt lat="42.9929583" lon="11.4858417"><ele>301.8</ele><time>2026-05-01T14:19:35.966Z</time></trkpt><trkpt lat="42.9928567" lon="11.4859067"><ele>301.0</ele><time>2026-05-01T14:19:36.965Z</time></trkpt><trkpt lat="42.9927517" lon="11.4860083"><ele>301.0</ele><time>2026-05-01T14:19:37.965Z</time></trkpt><trkpt lat="42.9926617" lon="11.48612"><ele>301.0</ele><time>2026-05-01T14:19:38.966Z</time></trkpt><trkpt lat="42.9925717" lon="11.4862467"><ele>301.0</ele><time>2026-05-01T14:19:39.965Z</time></trkpt><trkpt lat="42.9924817" lon="11.486395"><ele>301.0</ele><time>2026-05-01T14:19:40.966Z</time></trkpt><trkpt lat="42.9923833" lon="11.4865617"><ele>301.75</ele><time>2026-05-01T14:19:41.965Z</time></trkpt><trkpt lat="42.992275" lon="11.486725"><ele>302.5</ele><time>2026-05-01T14:19:42.965Z</time></trkpt><trkpt lat="42.9921833" lon="11.4868683"><ele>303.25</ele><time>2026-05-01T14:19:43.965Z</time></trkpt><trkpt lat="42.9921117" lon="11.487005"><ele>304.0</ele><time>2026-05-01T14:19:44.964Z</time></trkpt><trkpt lat="42.9920717" lon="11.4871483"><ele>304.0</ele><time>2026-05-01T14:19:45.964Z</time></trkpt><trkpt lat="42.99205" lon="11.4873067"><ele>304.0</ele><time>2026-05-01T14:19:46.964Z</time></trkpt><trkpt lat="42.99203" lon="11.4874917"><ele>304.0</ele><time>2026-05-01T14:19:47.965Z</time></trkpt><trkpt lat="42.9920067" lon="11.48771"><ele>304.0</ele><time>2026-05-01T14:19:48.965Z</time></trkpt><trkpt lat="42.9919817" lon="11.4879283"><ele>305.25</ele><time>2026-05-01T14:19:49.964Z</time></trkpt><trkpt lat="42.9919583" lon="11.4881083"><ele>306.5</ele><time>2026-05-01T14:19:50.964Z</time></trkpt><trkpt lat="42.991945" lon="11.4882633"><ele>307.75</ele><time>2026-05-01T14:19:51.964Z</time></trkpt><trkpt lat="42.99193" lon="11.4884333"><ele>309.0</ele><time>2026-05-01T14:19:52.964Z</time></trkpt><trkpt lat="42.9919217" lon="11.488585"><ele>309.0</ele><time>2026-05-01T14:19:53.965Z</time></trkpt><trkpt lat="42.991905" lon="11.4887183"><ele>309.0</ele><time>2026-05-01T14:19:54.964Z</time></trkpt><trkpt lat="42.9918933" lon="11.48885"><ele>309.0</ele><time>2026-05-01T14:19:55.964Z</time></trkpt><trkpt lat="42.9918783" lon="11.4889967"><ele>309.0</ele><time>2026-05-01T14:19:56.964Z</time></trkpt><trkpt lat="42.9918633" lon="11.4891617"><ele>309.0</ele><time>2026-05-01T14:19:57.964Z</time></trkpt><trkpt lat="42.9918467" lon="11.4893317"><ele>309.5</ele><time>2026-05-01T14:19:58.965Z</time></trkpt><trkpt lat="42.9918183" lon="11.4894917"><ele>310.0</ele><time>2026-05-01T14:19:59.964Z</time></trkpt><trkpt lat="42.9917817" lon="11.4896467"><ele>310.5</ele><time>2026-05-01T14:20:00.964Z</time></trkpt><trkpt lat="42.99176" lon="11.4898017"><ele>311.0</ele><time>2026-05-01T14:20:01.964Z</time></trkpt><trkpt lat="42.9917383" lon="11.4899533"><ele>311.25</ele><time>2026-05-01T14:20:02.965Z</time></trkpt><trkpt lat="42.9917083" lon="11.4901217"><ele>311.5</ele><time>2026-05-01T14:20:03.964Z</time></trkpt><trkpt lat="42.99168" lon="11.4903067"><ele>311.75</ele><time>2026-05-01T14:20:04.964Z</time></trkpt><trkpt lat="42.9916433" lon="11.49051"><ele>312.0</ele><time>2026-05-01T14:20:05.964Z</time></trkpt><trkpt lat="42.9916067" lon="11.4907233"><ele>307.5</ele><time>2026-05-01T14:20:06.965Z</time></trkpt><trkpt lat="42.99157" lon="11.49093"><ele>303.0</ele><time>2026-05-01T14:20:07.964Z</time></trkpt><trkpt lat="42.9915417" lon="11.4911283"><ele>298.5</ele><time>2026-05-01T14:20:08.964Z</time></trkpt><trkpt lat="42.9915017" lon="11.491305"><ele>294.0</ele><time>2026-05-01T14:20:09.964Z</time></trkpt><trkpt lat="42.9914667" lon="11.4914733"><ele>293.75</ele><time>2026-05-01T14:20:10.964Z</time></trkpt><trkpt lat="42.99144" lon="11.4916333"><ele>293.5</ele><time>2026-05-01T14:20:11.965Z</time></trkpt><trkpt lat="42.9914167" lon="11.491785"><ele>293.25</ele><time>2026-05-01T14:20:12.964Z</time></trkpt><trkpt lat="42.99138" lon="11.4919583"><ele>293.0</ele><time>2026-05-01T14:20:13.964Z</time></trkpt><trkpt lat="42.9913533" lon="11.4921483"><ele>293.0</ele><time>2026-05-01T14:20:14.964Z</time></trkpt><trkpt lat="42.9913183" lon="11.4923333"><ele>293.0</ele><time>2026-05-01T14:20:15.964Z</time></trkpt><trkpt lat="42.9912933" lon="11.4925167"><ele>293.0</ele><time>2026-05-01T14:20:16.964Z</time></trkpt><trkpt lat="42.99126" lon="11.492705"><ele>293.0</ele><time>2026-05-01T14:20:17.965Z</time></trkpt><trkpt lat="42.99122" lon="11.4929017"><ele>292.6666666666667</ele><time>2026-05-01T14:20:18.965Z</time></trkpt><trkpt lat="42.991175" lon="11.4931033"><ele>292.3333333333333</ele><time>2026-05-01T14:20:19.964Z</time></trkpt><trkpt lat="42.9911317" lon="11.4933267"><ele>292.0</ele><time>2026-05-01T14:20:20.964Z</time></trkpt><trkpt lat="42.9910717" lon="11.4935867"><ele>292.66666666666663</ele><time>2026-05-01T14:20:21.965Z</time></trkpt><trkpt lat="42.9910117" lon="11.4938617"><ele>293.3333333333333</ele><time>2026-05-01T14:20:22.964Z</time></trkpt><trkpt lat="42.9909533" lon="11.4941417"><ele>294.0</ele><time>2026-05-01T14:20:23.965Z</time></trkpt><trkpt lat="42.9908867" lon="11.4944617"><ele>286.5</ele><time>2026-05-01T14:20:24.964Z</time></trkpt><trkpt lat="42.9908033" lon="11.4948183"><ele>279.0</ele><time>2026-05-01T14:20:25.964Z</time></trkpt><trkpt lat="42.9907233" lon="11.495165"><ele>281.0</ele><time>2026-05-01T14:20:26.965Z</time></trkpt><trkpt lat="42.99064" lon="11.495485"><ele>283.0</ele><time>2026-05-01T14:20:27.964Z</time></trkpt><trkpt lat="42.99056" lon="11.4957767"><ele>283.0</ele><time>2026-05-01T14:20:28.965Z</time></trkpt><trkpt lat="42.9904783" lon="11.4960283"><ele>283.0</ele><time>2026-05-01T14:20:29.964Z</time></trkpt><trkpt lat="42.9904117" lon="11.49626"><ele>283.0</ele><time>2026-05-01T14:20:30.964Z</time></trkpt><trkpt lat="42.990335" lon="11.4964983"><ele>286.0</ele><time>2026-05-01T14:20:31.965Z</time></trkpt><trkpt lat="42.990255" lon="11.496735"><ele>289.0</ele><time>2026-05-01T14:20:32.965Z</time></trkpt><trkpt lat="42.9901917" lon="11.4969467"><ele>292.0</ele><time>2026-05-01T14:20:33.964Z</time></trkpt><trkpt lat="42.9901383" lon="11.4971267"><ele>293.2</ele><time>2026-05-01T14:20:34.964Z</time></trkpt><trkpt lat="42.9900917" lon="11.49728"><ele>294.4</ele><time>2026-05-01T14:20:35.964Z</time></trkpt><trkpt lat="42.9900567" lon="11.4974217"><ele>295.6</ele><time>2026-05-01T14:20:36.964Z</time></trkpt><trkpt lat="42.9900283" lon="11.4975517"><ele>296.8</ele><time>2026-05-01T14:20:37.964Z</time></trkpt><trkpt lat="42.990015" lon="11.4976733"><ele>298.0</ele><time>2026-05-01T14:20:38.964Z</time></trkpt><trkpt lat="42.9900067" lon="11.4978"><ele>294.5</ele><time>2026-05-01T14:20:39.964Z</time></trkpt><trkpt lat="42.9899967" lon="11.4979633"><ele>291.0</ele><time>2026-05-01T14:20:40.964Z</time></trkpt><trkpt lat="42.9899867" lon="11.49813"><ele>287.5</ele><time>2026-05-01T14:20:41.964Z</time></trkpt><trkpt lat="42.989985" lon="11.498285"><ele>284.0</ele><time>2026-05-01T14:20:42.965Z</time></trkpt><trkpt lat="42.9899917" lon="11.4984333"><ele>284.75</ele><time>2026-05-01T14:20:43.964Z</time></trkpt><trkpt lat="42.990015" lon="11.498575"><ele>285.5</ele><time>2026-05-01T14:20:44.965Z</time></trkpt><trkpt lat="42.9900617" lon="11.4987033"><ele>286.25</ele><time>2026-05-01T14:20:45.964Z</time></trkpt><trkpt lat="42.99013" lon="11.4988467"><ele>287.0</ele><time>2026-05-01T14:20:46.965Z</time></trkpt><trkpt lat="42.990245" lon="11.4990067"><ele>287.0</ele><time>2026-05-01T14:20:47.965Z</time></trkpt><trkpt lat="42.9903933" lon="11.4991983"><ele>287.0</ele><time>2026-05-01T14:20:48.964Z</time></trkpt><trkpt lat="42.99055" lon="11.4994333"><ele>287.0</ele><time>2026-05-01T14:20:49.965Z</time></trkpt><trkpt lat="42.990705" lon="11.4996633"><ele>286.33333333333337</ele><time>2026-05-01T14:20:50.964Z</time></trkpt><trkpt lat="42.990845" lon="11.4998717"><ele>285.6666666666667</ele><time>2026-05-01T14:20:51.964Z</time></trkpt><trkpt lat="42.9909683" lon="11.5000567"><ele>285.0</ele><time>2026-05-01T14:20:52.964Z</time></trkpt><trkpt lat="42.9910833" lon="11.5002317"><ele>285.0</ele><time>2026-05-01T14:20:53.964Z</time></trkpt><trkpt lat="42.99118" lon="11.500395"><ele>285.0</ele><time>2026-05-01T14:20:54.965Z</time></trkpt><trkpt lat="42.991265" lon="11.5005283"><ele>285.0</ele><time>2026-05-01T14:20:55.965Z</time></trkpt><trkpt lat="42.991355" lon="11.50064"><ele>285.0</ele><time>2026-05-01T14:20:56.964Z</time></trkpt><trkpt lat="42.991455" lon="11.50074"><ele>285.25</ele><time>2026-05-01T14:20:57.965Z</time></trkpt><trkpt lat="42.9915717" lon="11.5008467"><ele>285.5</ele><time>2026-05-01T14:20:58.964Z</time></trkpt><trkpt lat="42.991705" lon="11.5009417"><ele>285.75</ele><time>2026-05-01T14:20:59.964Z</time></trkpt><trkpt lat="42.9918283" lon="11.5010233"><ele>286.0</ele><time>2026-05-01T14:21:00.964Z</time></trkpt><trkpt lat="42.9919283" lon="11.501085"><ele>286.0</ele><time>2026-05-01T14:21:01.965Z</time></trkpt><trkpt lat="42.99201" lon="11.5011567"><ele>286.0</ele><time>2026-05-01T14:21:02.964Z</time></trkpt><trkpt lat="42.9920667" lon="11.5012367"><ele>286.0</ele><time>2026-05-01T14:21:03.965Z</time></trkpt><trkpt lat="42.9920933" lon="11.5013267"><ele>286.0</ele><time>2026-05-01T14:21:04.964Z</time></trkpt><trkpt lat="42.9920983" lon="11.5014483"><ele>286.0</ele><time>2026-05-01T14:21:05.964Z</time></trkpt><trkpt lat="42.992075" lon="11.5015967"><ele>286.66666666666663</ele><time>2026-05-01T14:21:06.964Z</time></trkpt><trkpt lat="42.992005" lon="11.50179"><ele>287.3333333333333</ele><time>2026-05-01T14:21:07.965Z</time></trkpt><trkpt lat="42.9919133" lon="11.50201"><ele>288.0</ele><time>2026-05-01T14:21:08.964Z</time></trkpt><trkpt lat="42.9918033" lon="11.5022517"><ele>285.6666666666667</ele><time>2026-05-01T14:21:09.965Z</time></trkpt><trkpt lat="42.99171" lon="11.50251"><ele>283.33333333333337</ele><time>2026-05-01T14:21:10.965Z</time></trkpt><trkpt lat="42.9916083" lon="11.5027767"><ele>281.0</ele><time>2026-05-01T14:21:11.964Z</time></trkpt><trkpt lat="42.9915333" lon="11.503015"><ele>281.0</ele><time>2026-05-01T14:21:12.965Z</time></trkpt><trkpt lat="42.9914533" lon="11.5032517"><ele>281.0</ele><time>2026-05-01T14:21:13.964Z</time></trkpt><trkpt lat="42.991345" lon="11.5034967"><ele>281.0</ele><time>2026-05-01T14:21:14.965Z</time></trkpt><trkpt lat="42.99123" lon="11.503745"><ele>287.0</ele><time>2026-05-01T14:21:15.964Z</time></trkpt><trkpt lat="42.9911033" lon="11.5040183"><ele>293.0</ele><time>2026-05-01T14:21:16.965Z</time></trkpt><trkpt lat="42.990975" lon="11.5043133"><ele>296.0</ele><time>2026-05-01T14:21:17.965Z</time></trkpt><trkpt lat="42.9908617" lon="11.5045833"><ele>299.0</ele><time>2026-05-01T14:21:18.964Z</time></trkpt><trkpt lat="42.9907617" lon="11.5048333"><ele>302.0</ele><time>2026-05-01T14:21:19.964Z</time></trkpt><trkpt lat="42.9906667" lon="11.505075"><ele>296.0</ele><time>2026-05-01T14:21:20.964Z</time></trkpt><trkpt lat="42.9905833" lon="11.5052967"><ele>290.0</ele><time>2026-05-01T14:21:21.964Z</time></trkpt><trkpt lat="42.9904983" lon="11.5055133"><ele>284.0</ele><time>2026-05-01T14:21:22.965Z</time></trkpt><trkpt lat="42.9904083" lon="11.5057033"><ele>284.0</ele><time>2026-05-01T14:21:23.964Z</time></trkpt><trkpt lat="42.99033" lon="11.50585"><ele>284.0</ele><time>2026-05-01T14:21:24.964Z</time></trkpt><trkpt lat="42.9902617" lon="11.5059617"><ele>284.0</ele><time>2026-05-01T14:21:25.964Z</time></trkpt><trkpt lat="42.9901983" lon="11.5060783"><ele>284.0</ele><time>2026-05-01T14:21:26.964Z</time></trkpt><trkpt lat="42.9901433" lon="11.5062233"><ele>285.75</ele><time>2026-05-01T14:21:27.964Z</time></trkpt><trkpt lat="42.9901133" lon="11.50639"><ele>287.5</ele><time>2026-05-01T14:21:28.965Z</time></trkpt><trkpt lat="42.9901017" lon="11.5065883"><ele>289.25</ele><time>2026-05-01T14:21:29.964Z</time></trkpt><trkpt lat="42.99009" lon="11.5067883"><ele>291.0</ele><time>2026-05-01T14:21:30.964Z</time></trkpt><trkpt lat="42.9900733" lon="11.5069667"><ele>292.75</ele><time>2026-05-01T14:21:31.964Z</time></trkpt><trkpt lat="42.9900233" lon="11.507095"><ele>294.5</ele><time>2026-05-01T14:21:32.965Z</time></trkpt><trkpt lat="42.989955" lon="11.507205"><ele>296.25</ele><time>2026-05-01T14:21:33.964Z</time></trkpt><trkpt lat="42.9898567" lon="11.5073017"><ele>298.0</ele><time>2026-05-01T14:21:34.965Z</time></trkpt><trkpt lat="42.98976" lon="11.507415"><ele>294.0</ele><time>2026-05-01T14:21:35.965Z</time></trkpt><trkpt lat="42.9896783" lon="11.50755"><ele>290.0</ele><time>2026-05-01T14:21:36.964Z</time></trkpt><trkpt lat="42.9896083" lon="11.5077217"><ele>286.0</ele><time>2026-05-01T14:21:37.964Z</time></trkpt><trkpt lat="42.9895517" lon="11.5079117"><ele>282.0</ele><time>2026-05-01T14:21:38.964Z</time></trkpt><trkpt lat="42.9895167" lon="11.5081233"><ele>282.0</ele><time>2026-05-01T14:21:39.964Z</time></trkpt><trkpt lat="42.989475" lon="11.5083767"><ele>282.0</ele><time>2026-05-01T14:21:40.964Z</time></trkpt><trkpt lat="42.9894433" lon="11.50865"><ele>282.0</ele><time>2026-05-01T14:21:41.965Z</time></trkpt><trkpt lat="42.98942" lon="11.50891"><ele>286.3333333333333</ele><time>2026-05-01T14:21:42.964Z</time></trkpt><trkpt lat="42.98941" lon="11.50914"><ele>290.66666666666663</ele><time>2026-05-01T14:21:43.965Z</time></trkpt><trkpt lat="42.989395" lon="11.509345"><ele>295.0</ele><time>2026-05-01T14:21:44.965Z</time></trkpt><trkpt lat="42.9893833" lon="11.5095333"><ele>296.5</ele><time>2026-05-01T14:21:45.965Z</time></trkpt><trkpt lat="42.9893783" lon="11.5097217"><ele>298.0</ele><time>2026-05-01T14:21:46.964Z</time></trkpt><trkpt lat="42.9893767" lon="11.5098833"><ele>299.5</ele><time>2026-05-01T14:21:47.964Z</time></trkpt><trkpt lat="42.9893917" lon="11.510045"><ele>301.0</ele><time>2026-05-01T14:21:48.964Z</time></trkpt><trkpt lat="42.98942" lon="11.5102267"><ele>299.25</ele><time>2026-05-01T14:21:49.965Z</time></trkpt><trkpt lat="42.9894567" lon="11.5104167"><ele>297.5</ele><time>2026-05-01T14:21:50.964Z</time></trkpt><trkpt lat="42.9894933" lon="11.5106"><ele>295.75</ele><time>2026-05-01T14:21:51.964Z</time></trkpt><trkpt lat="42.9895233" lon="11.5107683"><ele>294.0</ele><time>2026-05-01T14:21:52.964Z</time></trkpt><trkpt lat="42.9895433" lon="11.5109267"><ele>294.0</ele><time>2026-05-01T14:21:53.965Z</time></trkpt><trkpt lat="42.98957" lon="11.5110967"><ele>294.0</ele><time>2026-05-01T14:21:54.964Z</time></trkpt><trkpt lat="42.9895917" lon="11.5112533"><ele>294.0</ele><time>2026-05-01T14:21:55.965Z</time></trkpt><trkpt lat="42.98961" lon="11.511395"><ele>294.0</ele><time>2026-05-01T14:21:56.964Z</time></trkpt><trkpt lat="42.989635" lon="11.5115067"><ele>294.0</ele><time>2026-05-01T14:21:57.965Z</time></trkpt><trkpt lat="42.9896683" lon="11.511615"><ele>292.4</ele><time>2026-05-01T14:21:58.965Z</time></trkpt><trkpt lat="42.98972" lon="11.5117"><ele>290.79999999999995</ele><time>2026-05-01T14:21:59.964Z</time></trkpt><trkpt lat="42.9897883" lon="11.5117517"><ele>289.20000000000005</ele><time>2026-05-01T14:22:00.964Z</time></trkpt><trkpt lat="42.989885" lon="11.5117967"><ele>287.6</ele><time>2026-05-01T14:22:01.964Z</time></trkpt><trkpt lat="42.9900167" lon="11.5118367"><ele>286.0</ele><time>2026-05-01T14:22:02.964Z</time></trkpt><trkpt lat="42.9901967" lon="11.5118867"><ele>286.0</ele><time>2026-05-01T14:22:03.964Z</time></trkpt><trkpt lat="42.9904083" lon="11.511935"><ele>286.0</ele><time>2026-05-01T14:22:04.965Z</time></trkpt><trkpt lat="42.9906283" lon="11.5119883"><ele>286.0</ele><time>2026-05-01T14:22:05.965Z</time></trkpt><trkpt lat="42.990835" lon="11.5120483"><ele>282.0</ele><time>2026-05-01T14:22:06.964Z</time></trkpt><trkpt lat="42.9910217" lon="11.5121033"><ele>278.0</ele><time>2026-05-01T14:22:07.964Z</time></trkpt><trkpt lat="42.9911917" lon="11.5121433"><ele>274.0</ele><time>2026-05-01T14:22:08.965Z</time></trkpt><trkpt lat="42.9913617" lon="11.5121833"><ele>274.0</ele><time>2026-05-01T14:22:09.964Z</time></trkpt><trkpt lat="42.9915183" lon="11.5122183"><ele>274.0</ele><time>2026-05-01T14:22:10.965Z</time></trkpt><trkpt lat="42.9916533" lon="11.5122633"><ele>274.0</ele><time>2026-05-01T14:22:11.965Z</time></trkpt><trkpt lat="42.9917683" lon="11.5123067"><ele>274.0</ele><time>2026-05-01T14:22:12.965Z</time></trkpt><trkpt lat="42.991865" lon="11.5123917"><ele>275.5</ele><time>2026-05-01T14:22:13.964Z</time></trkpt><trkpt lat="42.991945" lon="11.5124967"><ele>277.0</ele><time>2026-05-01T14:22:14.964Z</time></trkpt><trkpt lat="42.9920067" lon="11.5126433"><ele>278.5</ele><time>2026-05-01T14:22:15.965Z</time></trkpt><trkpt lat="42.9920483" lon="11.5127867"><ele>280.0</ele><time>2026-05-01T14:22:16.964Z</time></trkpt><trkpt lat="42.992085" lon="11.51294"><ele>279.75</ele><time>2026-05-01T14:22:17.965Z</time></trkpt><trkpt lat="42.992185" lon="11.51306"><ele>279.5</ele><time>2026-05-01T14:22:18.964Z</time></trkpt><trkpt lat="42.99231" lon="11.5131333"><ele>279.25</ele><time>2026-05-01T14:22:19.964Z</time></trkpt><trkpt lat="42.9924567" lon="11.5131883"><ele>279.0</ele><time>2026-05-01T14:22:20.964Z</time></trkpt><trkpt lat="42.99262" lon="11.5132483"><ele>279.0</ele><time>2026-05-01T14:22:21.965Z</time></trkpt><trkpt lat="42.9927883" lon="11.513325"><ele>279.0</ele><time>2026-05-01T14:22:22.964Z</time></trkpt><trkpt lat="42.9929383" lon="11.51342"><ele>279.0</ele><time>2026-05-01T14:22:23.964Z</time></trkpt><trkpt lat="42.9930717" lon="11.5135183"><ele>279.0</ele><time>2026-05-01T14:22:24.965Z</time></trkpt><trkpt lat="42.9931967" lon="11.5136267"><ele>279.0</ele><time>2026-05-01T14:22:25.964Z</time></trkpt><trkpt lat="42.9933083" lon="11.5137217"><ele>279.0</ele><time>2026-05-01T14:22:26.965Z</time></trkpt><trkpt lat="42.993385" lon="11.513795"><ele>279.0</ele><time>2026-05-01T14:22:27.965Z</time></trkpt><trkpt lat="42.99344" lon="11.5138583"><ele>279.0</ele><time>2026-05-01T14:22:28.965Z</time></trkpt><trkpt lat="42.9934917" lon="11.5139183"><ele>283.1666666666667</ele><time>2026-05-01T14:22:30.964Z</time></trkpt><trkpt lat="42.993555" lon="11.5139433"><ele>287.3333333333333</ele><time>2026-05-01T14:22:59.964Z</time></trkpt><trkpt lat="42.9936683" lon="11.5140167"><ele>291.5</ele><time>2026-05-01T14:23:01.965Z</time></trkpt><trkpt lat="42.99373" lon="11.51404"><ele>295.66666666666663</ele><time>2026-05-01T14:23:02.964Z</time></trkpt><trkpt lat="42.993805" lon="11.514055"><ele>299.8333333333333</ele><time>2026-05-01T14:23:03.964Z</time></trkpt><trkpt lat="42.9939017" lon="11.5140517"><ele>304.0</ele><time>2026-05-01T14:23:04.964Z</time></trkpt><trkpt lat="42.9940183" lon="11.5140217"><ele>304.0</ele><time>2026-05-01T14:23:05.964Z</time></trkpt><trkpt lat="42.9941583" lon="11.5139617"><ele>304.0</ele><time>2026-05-01T14:23:06.965Z</time></trkpt><trkpt lat="42.9943117" lon="11.5138717"><ele>304.0</ele><time>2026-05-01T14:23:07.964Z</time></trkpt><trkpt lat="42.994485" lon="11.513765"><ele>305.0</ele><time>2026-05-01T14:23:08.964Z</time></trkpt><trkpt lat="42.9946783" lon="11.5136433"><ele>306.0</ele><time>2026-05-01T14:23:09.964Z</time></trkpt><trkpt lat="42.994855" lon="11.5135367"><ele>307.0</ele><time>2026-05-01T14:23:10.964Z</time></trkpt><trkpt lat="42.99501" lon="11.5134583"><ele>307.0</ele><time>2026-05-01T14:23:11.965Z</time></trkpt><trkpt lat="42.9951417" lon="11.5133933"><ele>307.0</ele><time>2026-05-01T14:23:12.965Z</time></trkpt><trkpt lat="42.9952617" lon="11.5133517"><ele>307.0</ele><time>2026-05-01T14:23:13.964Z</time></trkpt><trkpt lat="42.9954" lon="11.5133317"><ele>307.0</ele><time>2026-05-01T14:23:14.964Z</time></trkpt><trkpt lat="42.9955483" lon="11.51334"><ele>307.0</ele><time>2026-05-01T14:23:15.965Z</time></trkpt><trkpt lat="42.9956983" lon="11.5133717"><ele>307.0</ele><time>2026-05-01T14:23:16.964Z</time></trkpt><trkpt lat="42.9958517" lon="11.513405"><ele>307.0</ele><time>2026-05-01T14:23:17.965Z</time></trkpt><trkpt lat="42.996015" lon="11.5134633"><ele>307.3333333333333</ele><time>2026-05-01T14:23:18.964Z</time></trkpt><trkpt lat="42.9961933" lon="11.5135433"><ele>307.6666666666667</ele><time>2026-05-01T14:23:19.964Z</time></trkpt><trkpt lat="42.99638" lon="11.5136217"><ele>308.0</ele><time>2026-05-01T14:23:20.964Z</time></trkpt><trkpt lat="42.9965483" lon="11.51367"><ele>307.25</ele><time>2026-05-01T14:23:21.964Z</time></trkpt><trkpt lat="42.996685" lon="11.5137117"><ele>306.5</ele><time>2026-05-01T14:23:22.965Z</time></trkpt><trkpt lat="42.996805" lon="11.51377"><ele>305.75</ele><time>2026-05-01T14:23:23.964Z</time></trkpt><trkpt lat="42.996895" lon="11.5138583"><ele>305.0</ele><time>2026-05-01T14:23:24.965Z</time></trkpt><trkpt lat="42.9969683" lon="11.5140033"><ele>305.0</ele><time>2026-05-01T14:23:25.965Z</time></trkpt><trkpt lat="42.9970367" lon="11.5142033"><ele>305.0</ele><time>2026-05-01T14:23:26.964Z</time></trkpt><trkpt lat="42.99711" lon="11.5144117"><ele>305.0</ele><time>2026-05-01T14:23:27.964Z</time></trkpt><trkpt lat="42.9971767" lon="11.5146317"><ele>307.0</ele><time>2026-05-01T14:23:28.965Z</time></trkpt><trkpt lat="42.99724" lon="11.51484"><ele>309.0</ele><time>2026-05-01T14:23:29.964Z</time></trkpt><trkpt lat="42.9972933" lon="11.51505"><ele>311.0</ele><time>2026-05-01T14:23:30.965Z</time></trkpt><trkpt lat="42.99733" lon="11.5152517"><ele>312.0</ele><time>2026-05-01T14:23:31.965Z</time></trkpt><trkpt lat="42.99734" lon="11.5154683"><ele>313.0</ele><time>2026-05-01T14:23:32.964Z</time></trkpt><trkpt lat="42.9973183" lon="11.5157317"><ele>314.0</ele><time>2026-05-01T14:23:33.964Z</time></trkpt><trkpt lat="42.9972933" lon="11.5160117"><ele>313.6666666666667</ele><time>2026-05-01T14:23:34.964Z</time></trkpt><trkpt lat="42.9972567" lon="11.51627"><ele>313.3333333333333</ele><time>2026-05-01T14:23:35.965Z</time></trkpt><trkpt lat="42.997215" lon="11.5165017"><ele>313.0</ele><time>2026-05-01T14:23:36.965Z</time></trkpt><trkpt lat="42.9971517" lon="11.516725"><ele>313.0</ele><time>2026-05-01T14:23:37.965Z</time></trkpt><trkpt lat="42.9970633" lon="11.5169483"><ele>313.0</ele><time>2026-05-01T14:23:38.965Z</time></trkpt><trkpt lat="42.9969517" lon="11.5171683"><ele>313.0</ele><time>2026-05-01T14:23:39.964Z</time></trkpt><trkpt lat="42.9968233" lon="11.5173883"><ele>312.3333333333333</ele><time>2026-05-01T14:23:40.965Z</time></trkpt><trkpt lat="42.996685" lon="11.5175717"><ele>311.6666666666667</ele><time>2026-05-01T14:23:41.964Z</time></trkpt><trkpt lat="42.9965317" lon="11.517725"><ele>311.0</ele><time>2026-05-01T14:23:42.964Z</time></trkpt><trkpt lat="42.9963717" lon="11.5178583"><ele>314.6666666666667</ele><time>2026-05-01T14:23:43.965Z</time></trkpt><trkpt lat="42.9962" lon="11.5179733"><ele>318.3333333333333</ele><time>2026-05-01T14:23:44.965Z</time></trkpt><trkpt lat="42.9960217" lon="11.5181067"><ele>322.0</ele><time>2026-05-01T14:23:45.965Z</time></trkpt><trkpt lat="42.9958717" lon="11.51826"><ele>326.0</ele><time>2026-05-01T14:23:46.965Z</time></trkpt><trkpt lat="42.9957567" lon="11.5184083"><ele>330.0</ele><time>2026-05-01T14:23:47.964Z</time></trkpt><trkpt lat="42.9956767" lon="11.51853"><ele>334.0</ele><time>2026-05-01T14:23:48.965Z</time></trkpt><trkpt lat="42.995605" lon="11.51862"><ele>338.0</ele><time>2026-05-01T14:23:49.964Z</time></trkpt><trkpt lat="42.9955483" lon="11.5186867"><ele>337.33333333333337</ele><time>2026-05-01T14:23:50.964Z</time></trkpt><trkpt lat="42.995485" lon="11.5187717"><ele>336.6666666666667</ele><time>2026-05-01T14:23:52.964Z</time></trkpt><trkpt lat="42.9954483" lon="11.51885"><ele>336.0</ele><time>2026-05-01T14:23:56.964Z</time></trkpt><trkpt lat="42.9953867" lon="11.51894"><ele>335.3333333333333</ele><time>2026-05-01T14:24:07.965Z</time></trkpt><trkpt lat="42.9952833" lon="11.5189667"><ele>334.66666666666663</ele><time>2026-05-01T14:24:09.964Z</time></trkpt><trkpt lat="42.99519" lon="11.518995"><ele>334.0</ele><time>2026-05-01T14:24:11.964Z</time></trkpt><trkpt lat="42.9951083" lon="11.51909"><ele>334.0</ele><time>2026-05-01T14:39:42.962Z</time></trkpt><trkpt lat="42.9950633" lon="11.5191517"><ele>334.0</ele><time>2026-05-01T14:39:43.962Z</time></trkpt><trkpt lat="42.9950117" lon="11.5192283"><ele>334.0</ele><time>2026-05-01T14:39:44.961Z</time></trkpt><trkpt lat="42.99496" lon="11.5193167"><ele>334.0</ele><time>2026-05-01T14:39:45.961Z</time></trkpt><trkpt lat="42.99492" lon="11.5193967"><ele>334.0</ele><time>2026-05-01T14:39:46.961Z</time></trkpt><trkpt lat="42.9948817" lon="11.5194667"><ele>334.0</ele><time>2026-05-01T14:39:47.961Z</time></trkpt><trkpt lat="42.9948383" lon="11.5195567"><ele>334.0</ele><time>2026-05-01T14:39:49.961Z</time></trkpt><trkpt lat="42.9948283" lon="11.5196833"><ele>334.8333333333333</ele><time>2026-05-01T14:39:53.961Z</time></trkpt><trkpt lat="42.9948467" lon="11.5197883"><ele>335.66666666666663</ele><time>2026-05-01T14:39:56.961Z</time></trkpt><trkpt lat="42.994915" lon="11.5198383"><ele>336.5</ele><time>2026-05-01T14:39:59.961Z</time></trkpt><trkpt lat="42.9950233" lon="11.5198733"><ele>337.3333333333333</ele><time>2026-05-01T14:40:01.962Z</time></trkpt><trkpt lat="42.9950983" lon="11.519905"><ele>338.1666666666667</ele><time>2026-05-01T14:40:02.961Z</time></trkpt><trkpt lat="42.99519" lon="11.5199567"><ele>339.0</ele><time>2026-05-01T14:40:03.961Z</time></trkpt><trkpt lat="42.9952867" lon="11.5200233"><ele>339.0</ele><time>2026-05-01T14:40:04.962Z</time></trkpt><trkpt lat="42.995395" lon="11.5200883"><ele>339.0</ele><time>2026-05-01T14:40:05.961Z</time></trkpt><trkpt lat="42.9955" lon="11.5201583"><ele>339.0</ele><time>2026-05-01T14:40:06.961Z</time></trkpt><trkpt lat="42.9956017" lon="11.5202333"><ele>339.0</ele><time>2026-05-01T14:40:07.961Z</time></trkpt><trkpt lat="42.9957067" lon="11.5203033"><ele>339.0</ele><time>2026-05-01T14:40:08.961Z</time></trkpt><trkpt lat="42.9958067" lon="11.52039"><ele>339.0</ele><time>2026-05-01T14:40:09.962Z</time></trkpt><trkpt lat="42.9958983" lon="11.5204967"><ele>339.0</ele><time>2026-05-01T14:40:10.962Z</time></trkpt><trkpt lat="42.9959783" lon="11.5206167"><ele>339.0</ele><time>2026-05-01T14:40:11.961Z</time></trkpt><trkpt lat="42.9960533" lon="11.52076"><ele>339.0</ele><time>2026-05-01T14:40:12.962Z</time></trkpt><trkpt lat="42.99613" lon="11.5209133"><ele>339.0</ele><time>2026-05-01T14:40:13.961Z</time></trkpt><trkpt lat="42.996215" lon="11.5210733"><ele>339.0</ele><time>2026-05-01T14:40:14.962Z</time></trkpt><trkpt lat="42.9963133" lon="11.521225"><ele>339.0</ele><time>2026-05-01T14:40:15.961Z</time></trkpt><trkpt lat="42.9964267" lon="11.5213633"><ele>339.0</ele><time>2026-05-01T14:40:16.961Z</time></trkpt><trkpt lat="42.99655" lon="11.521495"><ele>339.0</ele><time>2026-05-01T14:40:17.961Z</time></trkpt><trkpt lat="42.9966783" lon="11.521625"><ele>339.0</ele><time>2026-05-01T14:40:18.961Z</time></trkpt><trkpt lat="42.9968083" lon="11.5217433"><ele>336.0</ele><time>2026-05-01T14:40:19.962Z</time></trkpt><trkpt lat="42.9969383" lon="11.52187"><ele>333.0</ele><time>2026-05-01T14:40:20.961Z</time></trkpt><trkpt lat="42.9970717" lon="11.5220117"><ele>330.0</ele><time>2026-05-01T14:40:21.961Z</time></trkpt><trkpt lat="42.9972133" lon="11.5221633"><ele>330.0</ele><time>2026-05-01T14:40:22.962Z</time></trkpt><trkpt lat="42.9973633" lon="11.5223167"><ele>330.0</ele><time>2026-05-01T14:40:23.962Z</time></trkpt><trkpt lat="42.997515" lon="11.5224667"><ele>330.0</ele><time>2026-05-01T14:40:24.962Z</time></trkpt><trkpt lat="42.99766" lon="11.522615"><ele>327.6666666666667</ele><time>2026-05-01T14:40:25.961Z</time></trkpt><trkpt lat="42.9977967" lon="11.52275"><ele>325.33333333333337</ele><time>2026-05-01T14:40:26.962Z</time></trkpt><trkpt lat="42.99793" lon="11.522885"><ele>323.0</ele><time>2026-05-01T14:40:27.961Z</time></trkpt><trkpt lat="42.9980667" lon="11.52302"><ele>323.0</ele><time>2026-05-01T14:40:28.961Z</time></trkpt><trkpt lat="42.998215" lon="11.5231367"><ele>323.0</ele><time>2026-05-01T14:40:29.961Z</time></trkpt><trkpt lat="42.9983767" lon="11.5232333"><ele>323.0</ele><time>2026-05-01T14:40:30.962Z</time></trkpt><trkpt lat="42.9985567" lon="11.5233017"><ele>320.6666666666667</ele><time>2026-05-01T14:40:31.961Z</time></trkpt><trkpt lat="42.9987433" lon="11.523385"><ele>318.3333333333333</ele><time>2026-05-01T14:40:32.962Z</time></trkpt><trkpt lat="42.9989283" lon="11.5234767"><ele>316.0</ele><time>2026-05-01T14:40:33.961Z</time></trkpt><trkpt lat="42.999115" lon="11.5235817"><ele>316.3333333333333</ele><time>2026-05-01T14:40:34.961Z</time></trkpt><trkpt lat="42.9992933" lon="11.5237017"><ele>316.6666666666667</ele><time>2026-05-01T14:40:35.961Z</time></trkpt><trkpt lat="42.9994733" lon="11.5238317"><ele>317.0</ele><time>2026-05-01T14:40:36.961Z</time></trkpt><trkpt lat="42.9996583" lon="11.5239617"><ele>317.0</ele><time>2026-05-01T14:40:37.961Z</time></trkpt><trkpt lat="42.99985" lon="11.5240883"><ele>317.0</ele><time>2026-05-01T14:40:38.961Z</time></trkpt><trkpt lat="43.0000483" lon="11.5242"><ele>317.0</ele><time>2026-05-01T14:40:39.962Z</time></trkpt><trkpt lat="43.0002567" lon="11.5242833"><ele>317.0</ele><time>2026-05-01T14:40:40.961Z</time></trkpt><trkpt lat="43.00046" lon="11.52437"><ele>317.0</ele><time>2026-05-01T14:40:41.961Z</time></trkpt><trkpt lat="43.0006683" lon="11.5244483"><ele>317.0</ele><time>2026-05-01T14:40:42.961Z</time></trkpt><trkpt lat="43.0008783" lon="11.5245333"><ele>318.33333333333337</ele><time>2026-05-01T14:40:43.962Z</time></trkpt><trkpt lat="43.00108" lon="11.5246167"><ele>319.6666666666667</ele><time>2026-05-01T14:40:44.961Z</time></trkpt><trkpt lat="43.0012917" lon="11.5247033"><ele>321.0</ele><time>2026-05-01T14:40:45.962Z</time></trkpt><trkpt lat="43.0015133" lon="11.5247983"><ele>321.0</ele><time>2026-05-01T14:40:46.961Z</time></trkpt><trkpt lat="43.00175" lon="11.5248917"><ele>321.0</ele><time>2026-05-01T14:40:47.962Z</time></trkpt><trkpt lat="43.0019617" lon="11.524965"><ele>321.0</ele><time>2026-05-01T14:40:48.962Z</time></trkpt><trkpt lat="43.002165" lon="11.525035"><ele>321.0</ele><time>2026-05-01T14:40:49.961Z</time></trkpt><trkpt lat="43.00237" lon="11.5250967"><ele>321.0</ele><time>2026-05-01T14:40:50.962Z</time></trkpt><trkpt lat="43.0025717" lon="11.52515"><ele>321.0</ele><time>2026-05-01T14:40:51.962Z</time></trkpt><trkpt lat="43.0027683" lon="11.5252083"><ele>321.0</ele><time>2026-05-01T14:40:52.962Z</time></trkpt><trkpt lat="43.002975" lon="11.5252633"><ele>321.0</ele><time>2026-05-01T14:40:53.961Z</time></trkpt><trkpt lat="43.0031983" lon="11.5253267"><ele>321.0</ele><time>2026-05-01T14:40:54.962Z</time></trkpt><trkpt lat="43.0034383" lon="11.5253833"><ele>321.0</ele><time>2026-05-01T14:40:55.962Z</time></trkpt><trkpt lat="43.0036783" lon="11.5254583"><ele>322.0</ele><time>2026-05-01T14:40:56.961Z</time></trkpt><trkpt lat="43.003925" lon="11.52554"><ele>323.0</ele><time>2026-05-01T14:40:57.962Z</time></trkpt><trkpt lat="43.00417" lon="11.5256033"><ele>323.5</ele><time>2026-05-01T14:40:58.961Z</time></trkpt><trkpt lat="43.00442" lon="11.5256817"><ele>324.0</ele><time>2026-05-01T14:40:59.961Z</time></trkpt><trkpt lat="43.0046683" lon="11.5257667"><ele>324.0</ele><time>2026-05-01T14:41:00.962Z</time></trkpt><trkpt lat="43.004915" lon="11.5258483"><ele>324.0</ele><time>2026-05-01T14:41:01.962Z</time></trkpt><trkpt lat="43.0051583" lon="11.5259267"><ele>324.5</ele><time>2026-05-01T14:41:02.961Z</time></trkpt><trkpt lat="43.0054" lon="11.5259883"><ele>325.0</ele><time>2026-05-01T14:41:03.961Z</time></trkpt><trkpt lat="43.00565" lon="11.52606"><ele>325.5</ele><time>2026-05-01T14:41:04.961Z</time></trkpt><trkpt lat="43.005885" lon="11.5261183"><ele>326.0</ele><time>2026-05-01T14:41:05.962Z</time></trkpt><trkpt lat="43.006125" lon="11.5261883"><ele>326.5</ele><time>2026-05-01T14:41:06.961Z</time></trkpt><trkpt lat="43.0063783" lon="11.5262683"><ele>327.0</ele><time>2026-05-01T14:41:07.962Z</time></trkpt><trkpt lat="43.0066283" lon="11.5263383"><ele>328.0</ele><time>2026-05-01T14:41:08.961Z</time></trkpt><trkpt lat="43.00688" lon="11.5264067"><ele>329.0</ele><time>2026-05-01T14:41:09.961Z</time></trkpt><trkpt lat="43.00714" lon="11.5264567"><ele>329.0</ele><time>2026-05-01T14:41:10.962Z</time></trkpt><trkpt lat="43.0074017" lon="11.5264917"><ele>329.0</ele><time>2026-05-01T14:41:11.961Z</time></trkpt><trkpt lat="43.0076617" lon="11.52652"><ele>329.0</ele><time>2026-05-01T14:41:12.961Z</time></trkpt><trkpt lat="43.0079133" lon="11.5265467"><ele>329.0</ele><time>2026-05-01T14:41:13.962Z</time></trkpt><trkpt lat="43.0081667" lon="11.5265767"><ele>330.0</ele><time>2026-05-01T14:41:14.961Z</time></trkpt><trkpt lat="43.008425" lon="11.526605"><ele>331.0</ele><time>2026-05-01T14:41:15.962Z</time></trkpt><trkpt lat="43.0087" lon="11.5266233"><ele>331.0</ele><time>2026-05-01T14:41:16.962Z</time></trkpt><trkpt lat="43.0089767" lon="11.526655"><ele>331.0</ele><time>2026-05-01T14:41:17.962Z</time></trkpt><trkpt lat="43.0092467" lon="11.5266967"><ele>331.5</ele><time>2026-05-01T14:41:18.961Z</time></trkpt><trkpt lat="43.0095083" lon="11.52674"><ele>332.0</ele><time>2026-05-01T14:41:19.961Z</time></trkpt><trkpt lat="43.0097683" lon="11.526775"><ele>333.0</ele><time>2026-05-01T14:41:20.962Z</time></trkpt><trkpt lat="43.0100183" lon="11.5268067"><ele>334.0</ele><time>2026-05-01T14:41:21.962Z</time></trkpt><trkpt lat="43.0102633" lon="11.526835"><ele>334.0</ele><time>2026-05-01T14:41:22.962Z</time></trkpt><trkpt lat="43.0105" lon="11.526865"><ele>334.0</ele><time>2026-05-01T14:41:23.961Z</time></trkpt><trkpt lat="43.0107333" lon="11.5268933"><ele>336.0</ele><time>2026-05-01T14:41:24.961Z</time></trkpt><trkpt lat="43.0109633" lon="11.52692"><ele>338.0</ele><time>2026-05-01T14:41:25.961Z</time></trkpt><trkpt lat="43.0111867" lon="11.5269483"><ele>338.0</ele><time>2026-05-01T14:41:26.961Z</time></trkpt><trkpt lat="43.0114167" lon="11.5269633"><ele>338.0</ele><time>2026-05-01T14:41:27.962Z</time></trkpt><trkpt lat="43.0116467" lon="11.5269867"><ele>340.5</ele><time>2026-05-01T14:41:28.962Z</time></trkpt><trkpt lat="43.0118717" lon="11.526995"><ele>343.0</ele><time>2026-05-01T14:41:29.961Z</time></trkpt><trkpt lat="43.0121033" lon="11.52698"><ele>343.0</ele><time>2026-05-01T14:41:30.962Z</time></trkpt><trkpt lat="43.0123283" lon="11.5269267"><ele>343.0</ele><time>2026-05-01T14:41:31.961Z</time></trkpt><trkpt lat="43.0125533" lon="11.5268633"><ele>344.0</ele><time>2026-05-01T14:41:32.961Z</time></trkpt><trkpt lat="43.0127733" lon="11.52681"><ele>345.0</ele><time>2026-05-01T14:41:33.961Z</time></trkpt><trkpt lat="43.01299" lon="11.5267683"><ele>346.0</ele><time>2026-05-01T14:41:34.961Z</time></trkpt><trkpt lat="43.0132167" lon="11.526735"><ele>346.0</ele><time>2026-05-01T14:41:35.961Z</time></trkpt><trkpt lat="43.0134333" lon="11.5267267"><ele>346.0</ele><time>2026-05-01T14:41:36.961Z</time></trkpt><trkpt lat="43.013635" lon="11.52673"><ele>346.0</ele><time>2026-05-01T14:41:37.961Z</time></trkpt><trkpt lat="43.0138267" lon="11.5267217"><ele>346.0</ele><time>2026-05-01T14:41:38.962Z</time></trkpt><trkpt lat="43.0139867" lon="11.5266883"><ele>346.0</ele><time>2026-05-01T14:41:39.962Z</time></trkpt><trkpt lat="43.0141233" lon="11.5265867"><ele>346.0</ele><time>2026-05-01T14:41:40.961Z</time></trkpt><trkpt lat="43.01424" lon="11.5264217"><ele>351.0</ele><time>2026-05-01T14:41:41.961Z</time></trkpt><trkpt lat="43.0143517" lon="11.52621"><ele>356.0</ele><time>2026-05-01T14:41:42.961Z</time></trkpt><trkpt lat="43.014465" lon="11.52599"><ele>361.0</ele><time>2026-05-01T14:41:43.962Z</time></trkpt><trkpt lat="43.0145917" lon="11.5257833"><ele>361.0</ele><time>2026-05-01T14:41:44.961Z</time></trkpt><trkpt lat="43.0147267" lon="11.5255983"><ele>361.0</ele><time>2026-05-01T14:41:45.962Z</time></trkpt><trkpt lat="43.0148783" lon="11.5254467"><ele>361.0</ele><time>2026-05-01T14:41:46.961Z</time></trkpt><trkpt lat="43.01504" lon="11.52531"><ele>361.0</ele><time>2026-05-01T14:41:47.962Z</time></trkpt><trkpt lat="43.0152033" lon="11.525195"><ele>361.0</ele><time>2026-05-01T14:41:48.961Z</time></trkpt><trkpt lat="43.01538" lon="11.5250883"><ele>361.0</ele><time>2026-05-01T14:41:49.962Z</time></trkpt><trkpt lat="43.015555" lon="11.5250017"><ele>361.0</ele><time>2026-05-01T14:41:50.962Z</time></trkpt><trkpt lat="43.0157167" lon="11.524925"><ele>361.0</ele><time>2026-05-01T14:41:51.961Z</time></trkpt><trkpt lat="43.0158383" lon="11.524815"><ele>361.0</ele><time>2026-05-01T14:41:52.961Z</time></trkpt><trkpt lat="43.0159417" lon="11.5246683"><ele>363.66666666666663</ele><time>2026-05-01T14:41:53.962Z</time></trkpt><trkpt lat="43.0160267" lon="11.5244667"><ele>366.3333333333333</ele><time>2026-05-01T14:41:54.962Z</time></trkpt><trkpt lat="43.0161217" lon="11.5242367"><ele>369.0</ele><time>2026-05-01T14:41:55.961Z</time></trkpt><trkpt lat="43.0162283" lon="11.5240033"><ele>369.0</ele><time>2026-05-01T14:41:56.962Z</time></trkpt><trkpt lat="43.01634" lon="11.5237783"><ele>369.0</ele><time>2026-05-01T14:41:57.961Z</time></trkpt><trkpt lat="43.016445" lon="11.52356"><ele>369.0</ele><time>2026-05-01T14:41:58.962Z</time></trkpt><trkpt lat="43.0165567" lon="11.5233633"><ele>370.0</ele><time>2026-05-01T14:41:59.961Z</time></trkpt><trkpt lat="43.0166733" lon="11.5231867"><ele>371.0</ele><time>2026-05-01T14:42:00.961Z</time></trkpt><trkpt lat="43.0167917" lon="11.5230217"><ele>372.0</ele><time>2026-05-01T14:42:01.961Z</time></trkpt><trkpt lat="43.0169083" lon="11.5228633"><ele>372.0</ele><time>2026-05-01T14:42:02.962Z</time></trkpt><trkpt lat="43.0170483" lon="11.522735"><ele>372.0</ele><time>2026-05-01T14:42:03.961Z</time></trkpt><trkpt lat="43.017205" lon="11.5226167"><ele>372.0</ele><time>2026-05-01T14:42:04.962Z</time></trkpt><trkpt lat="43.01736" lon="11.5225183"><ele>370.0</ele><time>2026-05-01T14:42:05.962Z</time></trkpt><trkpt lat="43.01751" lon="11.522395"><ele>368.0</ele><time>2026-05-01T14:42:06.961Z</time></trkpt><trkpt lat="43.0176583" lon="11.52226"><ele>366.0</ele><time>2026-05-01T14:42:07.961Z</time></trkpt><trkpt lat="43.0177917" lon="11.5221067"><ele>370.0</ele><time>2026-05-01T14:42:08.962Z</time></trkpt><trkpt lat="43.0179183" lon="11.5219467"><ele>374.0</ele><time>2026-05-01T14:42:09.961Z</time></trkpt><trkpt lat="43.0180517" lon="11.52178"><ele>378.0</ele><time>2026-05-01T14:42:10.961Z</time></trkpt><trkpt lat="43.018175" lon="11.5216283"><ele>378.0</ele><time>2026-05-01T14:42:11.962Z</time></trkpt><trkpt lat="43.0183133" lon="11.5215"><ele>378.0</ele><time>2026-05-01T14:42:12.961Z</time></trkpt><trkpt lat="43.018485" lon="11.52139"><ele>378.0</ele><time>2026-05-01T14:42:13.961Z</time></trkpt><trkpt lat="43.018665" lon="11.5212833"><ele>379.6666666666667</ele><time>2026-05-01T14:42:14.961Z</time></trkpt><trkpt lat="43.018845" lon="11.5211767"><ele>381.33333333333337</ele><time>2026-05-01T14:42:15.962Z</time></trkpt><trkpt lat="43.0190267" lon="11.5210667"><ele>383.0</ele><time>2026-05-01T14:42:16.962Z</time></trkpt><trkpt lat="43.0192083" lon="11.52096"><ele>383.0</ele><time>2026-05-01T14:42:17.961Z</time></trkpt><trkpt lat="43.0193883" lon="11.5208567"><ele>383.0</ele><time>2026-05-01T14:42:18.962Z</time></trkpt><trkpt lat="43.0195667" lon="11.5207533"><ele>383.0</ele><time>2026-05-01T14:42:19.961Z</time></trkpt><trkpt lat="43.01974" lon="11.5206433"><ele>383.0</ele><time>2026-05-01T14:42:20.962Z</time></trkpt><trkpt lat="43.019905" lon="11.5205383"><ele>383.0</ele><time>2026-05-01T14:42:21.961Z</time></trkpt><trkpt lat="43.02006" lon="11.5204283"><ele>383.0</ele><time>2026-05-01T14:42:22.962Z</time></trkpt><trkpt lat="43.0201933" lon="11.5203033"><ele>384.6666666666667</ele><time>2026-05-01T14:42:23.962Z</time></trkpt><trkpt lat="43.0202967" lon="11.520155"><ele>386.33333333333337</ele><time>2026-05-01T14:42:24.961Z</time></trkpt><trkpt lat="43.0203933" lon="11.519965"><ele>388.0</ele><time>2026-05-01T14:42:25.961Z</time></trkpt><trkpt lat="43.020485" lon="11.51976"><ele>391.33333333333337</ele><time>2026-05-01T14:42:26.961Z</time></trkpt><trkpt lat="43.0205733" lon="11.5195383"><ele>394.66666666666663</ele><time>2026-05-01T14:42:27.962Z</time></trkpt><trkpt lat="43.0206683" lon="11.5193167"><ele>398.0</ele><time>2026-05-01T14:42:28.961Z</time></trkpt><trkpt lat="43.02077" lon="11.5190883"><ele>394.3333333333333</ele><time>2026-05-01T14:42:29.962Z</time></trkpt><trkpt lat="43.02087" lon="11.518865"><ele>390.66666666666663</ele><time>2026-05-01T14:42:30.962Z</time></trkpt><trkpt lat="43.020965" lon="11.51865"><ele>387.0</ele><time>2026-05-01T14:42:31.961Z</time></trkpt><trkpt lat="43.0210617" lon="11.5184483"><ele>387.0</ele><time>2026-05-01T14:42:32.962Z</time></trkpt><trkpt lat="43.0211533" lon="11.51824"><ele>387.0</ele><time>2026-05-01T14:42:33.961Z</time></trkpt><trkpt lat="43.021235" lon="11.5180383"><ele>387.0</ele><time>2026-05-01T14:42:34.962Z</time></trkpt><trkpt lat="43.0213417" lon="11.5178517"><ele>388.33333333333337</ele><time>2026-05-01T14:42:35.961Z</time></trkpt><trkpt lat="43.0214633" lon="11.5176883"><ele>389.6666666666667</ele><time>2026-05-01T14:42:36.961Z</time></trkpt><trkpt lat="43.0216017" lon="11.5175567"><ele>391.0</ele><time>2026-05-01T14:42:37.961Z</time></trkpt><trkpt lat="43.0217583" lon="11.51743"><ele>388.6666666666667</ele><time>2026-05-01T14:42:38.962Z</time></trkpt><trkpt lat="43.02192" lon="11.5173033"><ele>386.33333333333337</ele><time>2026-05-01T14:42:39.961Z</time></trkpt><trkpt lat="43.02207" lon="11.5171767"><ele>384.0</ele><time>2026-05-01T14:42:40.961Z</time></trkpt><trkpt lat="43.022205" lon="11.5170517"><ele>384.0</ele><time>2026-05-01T14:42:41.962Z</time></trkpt><trkpt lat="43.02231" lon="11.5168967"><ele>384.0</ele><time>2026-05-01T14:42:42.96Z</time></trkpt><trkpt lat="43.0223883" lon="11.5166917"><ele>384.0</ele><time>2026-05-01T14:42:43.961Z</time></trkpt><trkpt lat="43.0224167" lon="11.51645"><ele>385.66666666666663</ele><time>2026-05-01T14:42:44.96Z</time></trkpt><trkpt lat="43.0224167" lon="11.51617"><ele>387.3333333333333</ele><time>2026-05-01T14:42:45.96Z</time></trkpt><trkpt lat="43.022425" lon="11.5158733"><ele>389.0</ele><time>2026-05-01T14:42:46.96Z</time></trkpt><trkpt lat="43.0224383" lon="11.5155967"><ele>388.66666666666663</ele><time>2026-05-01T14:42:47.961Z</time></trkpt><trkpt lat="43.02245" lon="11.51535"><ele>388.33333333333337</ele><time>2026-05-01T14:42:48.96Z</time></trkpt><trkpt lat="43.0224783" lon="11.5151183"><ele>388.0</ele><time>2026-05-01T14:42:49.96Z</time></trkpt><trkpt lat="43.0225383" lon="11.514885"><ele>388.0</ele><time>2026-05-01T14:42:50.961Z</time></trkpt><trkpt lat="43.02263" lon="11.5146483"><ele>388.0</ele><time>2026-05-01T14:42:51.961Z</time></trkpt><trkpt lat="43.0227417" lon="11.5144083"><ele>388.0</ele><time>2026-05-01T14:42:52.96Z</time></trkpt><trkpt lat="43.0228433" lon="11.51419"><ele>389.6666666666667</ele><time>2026-05-01T14:42:53.96Z</time></trkpt><trkpt lat="43.0229533" lon="11.5140067"><ele>391.33333333333337</ele><time>2026-05-01T14:42:54.96Z</time></trkpt><trkpt lat="43.02308" lon="11.5138617"><ele>393.0</ele><time>2026-05-01T14:42:55.96Z</time></trkpt><trkpt lat="43.0232383" lon="11.5137417"><ele>395.0</ele><time>2026-05-01T14:42:56.961Z</time></trkpt><trkpt lat="43.0234217" lon="11.51363"><ele>397.0</ele><time>2026-05-01T14:42:57.961Z</time></trkpt><trkpt lat="43.0236" lon="11.51351"><ele>399.0</ele><time>2026-05-01T14:42:58.961Z</time></trkpt><trkpt lat="43.023785" lon="11.51339"><ele>399.0</ele><time>2026-05-01T14:42:59.96Z</time></trkpt><trkpt lat="43.0239817" lon="11.513265"><ele>399.0</ele><time>2026-05-01T14:43:00.961Z</time></trkpt><trkpt lat="43.0241717" lon="11.5131267"><ele>399.0</ele><time>2026-05-01T14:43:01.961Z</time></trkpt><trkpt lat="43.0243667" lon="11.5130017"><ele>402.0</ele><time>2026-05-01T14:43:02.961Z</time></trkpt><trkpt lat="43.0245567" lon="11.5128767"><ele>405.0</ele><time>2026-05-01T14:43:03.96Z</time></trkpt><trkpt lat="43.0247483" lon="11.5127567"><ele>408.0</ele><time>2026-05-01T14:43:04.96Z</time></trkpt><trkpt lat="43.0249383" lon="11.512625"><ele>410.33333333333337</ele><time>2026-05-01T14:43:05.96Z</time></trkpt><trkpt lat="43.0251217" lon="11.51248"><ele>412.6666666666667</ele><time>2026-05-01T14:43:06.96Z</time></trkpt><trkpt lat="43.0252983" lon="11.51231"><ele>415.0</ele><time>2026-05-01T14:43:07.961Z</time></trkpt><trkpt lat="43.025455" lon="11.5121267"><ele>415.0</ele><time>2026-05-01T14:43:08.96Z</time></trkpt><trkpt lat="43.0255983" lon="11.511955"><ele>415.0</ele><time>2026-05-01T14:43:09.96Z</time></trkpt><trkpt lat="43.0257383" lon="11.5118067"><ele>415.0</ele><time>2026-05-01T14:43:10.96Z</time></trkpt><trkpt lat="43.0259017" lon="11.51169"><ele>416.0</ele><time>2026-05-01T14:43:11.961Z</time></trkpt><trkpt lat="43.0260917" lon="11.5116233"><ele>417.0</ele><time>2026-05-01T14:43:12.961Z</time></trkpt><trkpt lat="43.0262883" lon="11.511585"><ele>418.0</ele><time>2026-05-01T14:43:13.96Z</time></trkpt><trkpt lat="43.0264767" lon="11.5115483"><ele>418.0</ele><time>2026-05-01T14:43:14.961Z</time></trkpt><trkpt lat="43.026635" lon="11.5115033"><ele>418.0</ele><time>2026-05-01T14:43:15.96Z</time></trkpt><trkpt lat="43.026785" lon="11.51143"><ele>418.0</ele><time>2026-05-01T14:43:16.961Z</time></trkpt><trkpt lat="43.026905" lon="11.5112917"><ele>419.0</ele><time>2026-05-01T14:43:17.96Z</time></trkpt><trkpt lat="43.02699" lon="11.5110983"><ele>420.0</ele><time>2026-05-01T14:43:18.96Z</time></trkpt><trkpt lat="43.02707" lon="11.510885"><ele>421.0</ele><time>2026-05-01T14:43:19.961Z</time></trkpt><trkpt lat="43.027185" lon="11.5106967"><ele>421.0</ele><time>2026-05-01T14:43:20.96Z</time></trkpt><trkpt lat="43.0273267" lon="11.5105283"><ele>421.0</ele><time>2026-05-01T14:43:21.96Z</time></trkpt><trkpt lat="43.0274967" lon="11.5103817"><ele>421.0</ele><time>2026-05-01T14:43:22.96Z</time></trkpt><trkpt lat="43.0276583" lon="11.5102233"><ele>421.6666666666667</ele><time>2026-05-01T14:43:23.96Z</time></trkpt><trkpt lat="43.02782" lon="11.5100317"><ele>422.33333333333337</ele><time>2026-05-01T14:43:24.96Z</time></trkpt><trkpt lat="43.027965" lon="11.5098017"><ele>423.0</ele><time>2026-05-01T14:43:25.96Z</time></trkpt><trkpt lat="43.0281133" lon="11.5095617"><ele>423.0</ele><time>2026-05-01T14:43:26.961Z</time></trkpt><trkpt lat="43.0282767" lon="11.5093483"><ele>423.0</ele><time>2026-05-01T14:43:27.96Z</time></trkpt><trkpt lat="43.0284733" lon="11.5091583"><ele>430.5</ele><time>2026-05-01T14:43:28.96Z</time></trkpt><trkpt lat="43.0287033" lon="11.508995"><ele>438.0</ele><time>2026-05-01T14:43:29.96Z</time></trkpt><trkpt lat="43.0289433" lon="11.5088183"><ele>438.0</ele><time>2026-05-01T14:43:30.96Z</time></trkpt><trkpt lat="43.0291767" lon="11.5086417"><ele>438.0</ele><time>2026-05-01T14:43:31.961Z</time></trkpt><trkpt lat="43.0294067" lon="11.5084617"><ele>438.0</ele><time>2026-05-01T14:43:32.961Z</time></trkpt><trkpt lat="43.0296383" lon="11.5082917"><ele>438.0</ele><time>2026-05-01T14:43:33.96Z</time></trkpt><trkpt lat="43.0298617" lon="11.5081233"><ele>439.0</ele><time>2026-05-01T14:43:34.96Z</time></trkpt><trkpt lat="43.0300683" lon="11.507965"><ele>440.0</ele><time>2026-05-01T14:43:35.96Z</time></trkpt><trkpt lat="43.0302617" lon="11.50781"><ele>440.0</ele><time>2026-05-01T14:43:36.96Z</time></trkpt><trkpt lat="43.0304467" lon="11.5076767"><ele>440.0</ele><time>2026-05-01T14:43:37.96Z</time></trkpt><trkpt lat="43.03062" lon="11.5075767"><ele>440.0</ele><time>2026-05-01T14:43:38.96Z</time></trkpt><trkpt lat="43.0308017" lon="11.507525"><ele>442.66666666666663</ele><time>2026-05-01T14:43:39.96Z</time></trkpt><trkpt lat="43.0310017" lon="11.5075233"><ele>445.33333333333337</ele><time>2026-05-01T14:43:40.961Z</time></trkpt><trkpt lat="43.0312083" lon="11.5075533"><ele>448.0</ele><time>2026-05-01T14:43:41.961Z</time></trkpt><trkpt lat="43.0314183" lon="11.5075883"><ele>448.0</ele><time>2026-05-01T14:43:42.961Z</time></trkpt><trkpt lat="43.031625" lon="11.5076217"><ele>448.0</ele><time>2026-05-01T14:43:43.96Z</time></trkpt><trkpt lat="43.0318367" lon="11.50765"><ele>448.0</ele><time>2026-05-01T14:43:44.96Z</time></trkpt><trkpt lat="43.0320367" lon="11.5076717"><ele>449.33333333333337</ele><time>2026-05-01T14:43:45.96Z</time></trkpt><trkpt lat="43.0322283" lon="11.5076867"><ele>450.66666666666663</ele><time>2026-05-01T14:43:46.961Z</time></trkpt><trkpt lat="43.0324167" lon="11.5076933"><ele>452.0</ele><time>2026-05-01T14:43:47.961Z</time></trkpt><trkpt lat="43.032585" lon="11.50766"><ele>453.3333333333333</ele><time>2026-05-01T14:43:48.96Z</time></trkpt><trkpt lat="43.0327433" lon="11.50757"><ele>454.66666666666663</ele><time>2026-05-01T14:43:49.961Z</time></trkpt><trkpt lat="43.03288" lon="11.5074167"><ele>456.0</ele><time>2026-05-01T14:43:50.961Z</time></trkpt><trkpt lat="43.0329983" lon="11.5072117"><ele>453.0</ele><time>2026-05-01T14:43:51.961Z</time></trkpt><trkpt lat="43.03312" lon="11.5069867"><ele>450.0</ele><time>2026-05-01T14:43:52.96Z</time></trkpt><trkpt lat="43.0332483" lon="11.50677"><ele>447.0</ele><time>2026-05-01T14:43:53.96Z</time></trkpt><trkpt lat="43.0333867" lon="11.5065517"><ele>450.33333333333337</ele><time>2026-05-01T14:43:54.96Z</time></trkpt><trkpt lat="43.03353" lon="11.5063283"><ele>453.6666666666667</ele><time>2026-05-01T14:43:55.96Z</time></trkpt><trkpt lat="43.03368" lon="11.5060917"><ele>457.0</ele><time>2026-05-01T14:43:56.961Z</time></trkpt><trkpt lat="43.0338183" lon="11.5058533"><ele>457.0</ele><time>2026-05-01T14:43:57.961Z</time></trkpt><trkpt lat="43.0339633" lon="11.50563"><ele>457.0</ele><time>2026-05-01T14:43:58.961Z</time></trkpt><trkpt lat="43.0341017" lon="11.5054233"><ele>457.0</ele><time>2026-05-01T14:43:59.96Z</time></trkpt><trkpt lat="43.034265" lon="11.50522"><ele>459.33333333333337</ele><time>2026-05-01T14:44:00.961Z</time></trkpt><trkpt lat="43.0344367" lon="11.505035"><ele>461.66666666666663</ele><time>2026-05-01T14:44:01.96Z</time></trkpt><trkpt lat="43.034615" lon="11.50485"><ele>464.0</ele><time>2026-05-01T14:44:02.96Z</time></trkpt><trkpt lat="43.0348" lon="11.5046767"><ele>464.3333333333333</ele><time>2026-05-01T14:44:03.96Z</time></trkpt><trkpt lat="43.034975" lon="11.5044967"><ele>464.66666666666663</ele><time>2026-05-01T14:44:04.961Z</time></trkpt><trkpt lat="43.0351433" lon="11.504315"><ele>465.0</ele><time>2026-05-01T14:44:05.96Z</time></trkpt><trkpt lat="43.035315" lon="11.5041383"><ele>465.0</ele><time>2026-05-01T14:44:06.961Z</time></trkpt><trkpt lat="43.035475" lon="11.5039733"><ele>465.0</ele><time>2026-05-01T14:44:07.961Z</time></trkpt><trkpt lat="43.0356317" lon="11.5038233"><ele>465.0</ele><time>2026-05-01T14:44:08.96Z</time></trkpt><trkpt lat="43.0357883" lon="11.5037267"><ele>463.66666666666663</ele><time>2026-05-01T14:44:09.96Z</time></trkpt><trkpt lat="43.035945" lon="11.5036983"><ele>462.3333333333333</ele><time>2026-05-01T14:44:10.96Z</time></trkpt><trkpt lat="43.0361133" lon="11.5037233"><ele>461.0</ele><time>2026-05-01T14:44:11.96Z</time></trkpt><trkpt lat="43.0362917" lon="11.5037867"><ele>466.0</ele><time>2026-05-01T14:44:12.96Z</time></trkpt><trkpt lat="43.0364817" lon="11.5038567"><ele>471.0</ele><time>2026-05-01T14:44:13.961Z</time></trkpt><trkpt lat="43.03667" lon="11.5039183"><ele>476.0</ele><time>2026-05-01T14:44:14.961Z</time></trkpt><trkpt lat="43.0368617" lon="11.503955"><ele>477.3333333333333</ele><time>2026-05-01T14:44:15.96Z</time></trkpt><trkpt lat="43.037045" lon="11.503945"><ele>478.66666666666663</ele><time>2026-05-01T14:44:16.96Z</time></trkpt><trkpt lat="43.0372383" lon="11.50386"><ele>480.0</ele><time>2026-05-01T14:44:17.96Z</time></trkpt><trkpt lat="43.03743" lon="11.50374"><ele>477.66666666666663</ele><time>2026-05-01T14:44:18.96Z</time></trkpt><trkpt lat="43.03762" lon="11.503575"><ele>475.3333333333333</ele><time>2026-05-01T14:44:19.96Z</time></trkpt><trkpt lat="43.0378083" lon="11.5034233"><ele>473.0</ele><time>2026-05-01T14:44:20.961Z</time></trkpt><trkpt lat="43.0379817" lon="11.5032783"><ele>473.0</ele><time>2026-05-01T14:44:21.96Z</time></trkpt><trkpt lat="43.038155" lon="11.5031433"><ele>473.0</ele><time>2026-05-01T14:44:22.961Z</time></trkpt><trkpt lat="43.0383367" lon="11.5030033"><ele>473.0</ele><time>2026-05-01T14:44:23.96Z</time></trkpt><trkpt lat="43.0385233" lon="11.5028667"><ele>474.66666666666663</ele><time>2026-05-01T14:44:24.96Z</time></trkpt><trkpt lat="43.038715" lon="11.5027367"><ele>476.33333333333337</ele><time>2026-05-01T14:44:25.96Z</time></trkpt><trkpt lat="43.0389033" lon="11.5025983"><ele>478.0</ele><time>2026-05-01T14:44:26.96Z</time></trkpt><trkpt lat="43.0390817" lon="11.502445"><ele>478.6666666666667</ele><time>2026-05-01T14:44:27.96Z</time></trkpt><trkpt lat="43.0392433" lon="11.5022567"><ele>479.33333333333337</ele><time>2026-05-01T14:44:28.96Z</time></trkpt><trkpt lat="43.0393967" lon="11.50203"><ele>480.0</ele><time>2026-05-01T14:44:29.96Z</time></trkpt><trkpt lat="43.03953" lon="11.5017817"><ele>480.0</ele><time>2026-05-01T14:44:30.96Z</time></trkpt><trkpt lat="43.0396667" lon="11.5015317"><ele>480.0</ele><time>2026-05-01T14:44:31.96Z</time></trkpt><trkpt lat="43.0398017" lon="11.50129"><ele>480.0</ele><time>2026-05-01T14:44:32.961Z</time></trkpt><trkpt lat="43.0399383" lon="11.5010433"><ele>480.0</ele><time>2026-05-01T14:44:33.96Z</time></trkpt><trkpt lat="43.0400767" lon="11.5007967"><ele>480.33333333333337</ele><time>2026-05-01T14:44:34.96Z</time></trkpt><trkpt lat="43.0402083" lon="11.500545"><ele>480.6666666666667</ele><time>2026-05-01T14:44:35.961Z</time></trkpt><trkpt lat="43.0403433" lon="11.5003033"><ele>481.0</ele><time>2026-05-01T14:44:36.961Z</time></trkpt><trkpt lat="43.0404767" lon="11.50004"><ele>480.0</ele><time>2026-05-01T14:44:37.96Z</time></trkpt><trkpt lat="43.04061" lon="11.499785"><ele>479.0</ele><time>2026-05-01T14:44:38.96Z</time></trkpt><trkpt lat="43.04075" lon="11.499525"><ele>481.5</ele><time>2026-05-01T14:44:39.96Z</time></trkpt><trkpt lat="43.0408917" lon="11.4992633"><ele>484.0</ele><time>2026-05-01T14:44:40.96Z</time></trkpt><trkpt lat="43.0410333" lon="11.4990067"><ele>484.0</ele><time>2026-05-01T14:44:41.96Z</time></trkpt><trkpt lat="43.0411767" lon="11.4987433"><ele>484.0</ele><time>2026-05-01T14:44:42.961Z</time></trkpt><trkpt lat="43.04132" lon="11.4984833"><ele>484.0</ele><time>2026-05-01T14:44:43.961Z</time></trkpt><trkpt lat="43.0414617" lon="11.4982217"><ele>484.0</ele><time>2026-05-01T14:44:44.96Z</time></trkpt><trkpt lat="43.0416" lon="11.4979667"><ele>485.6666666666667</ele><time>2026-05-01T14:44:45.961Z</time></trkpt><trkpt lat="43.04173" lon="11.4977367"><ele>487.33333333333337</ele><time>2026-05-01T14:44:46.96Z</time></trkpt><trkpt lat="43.0418683" lon="11.4975133"><ele>489.0</ele><time>2026-05-01T14:44:47.961Z</time></trkpt><trkpt lat="43.04202" lon="11.4973133"><ele>489.0</ele><time>2026-05-01T14:44:48.96Z</time></trkpt><trkpt lat="43.0421983" lon="11.497135"><ele>489.0</ele><time>2026-05-01T14:44:49.96Z</time></trkpt><trkpt lat="43.0423917" lon="11.4969917"><ele>489.0</ele><time>2026-05-01T14:44:50.96Z</time></trkpt><trkpt lat="43.0425933" lon="11.4968617"><ele>491.66666666666663</ele><time>2026-05-01T14:44:51.96Z</time></trkpt><trkpt lat="43.0427983" lon="11.496755"><ele>494.3333333333333</ele><time>2026-05-01T14:44:52.96Z</time></trkpt><trkpt lat="43.0430017" lon="11.4966767"><ele>497.0</ele><time>2026-05-01T14:44:53.96Z</time></trkpt><trkpt lat="43.043215" lon="11.4965983"><ele>498.3333333333333</ele><time>2026-05-01T14:44:54.96Z</time></trkpt><trkpt lat="43.0434267" lon="11.4965433"><ele>499.66666666666663</ele><time>2026-05-01T14:44:55.96Z</time></trkpt><trkpt lat="43.0436517" lon="11.4965083"><ele>501.0</ele><time>2026-05-01T14:44:56.961Z</time></trkpt><trkpt lat="43.0438683" lon="11.49647"><ele>501.0</ele><time>2026-05-01T14:44:57.96Z</time></trkpt><trkpt lat="43.0441" lon="11.496435"><ele>501.0</ele><time>2026-05-01T14:44:58.961Z</time></trkpt><trkpt lat="43.0443417" lon="11.49641"><ele>499.0</ele><time>2026-05-01T14:44:59.96Z</time></trkpt><trkpt lat="43.0445833" lon="11.4963867"><ele>497.0</ele><time>2026-05-01T14:45:00.961Z</time></trkpt><trkpt lat="43.0448233" lon="11.49635"><ele>497.5</ele><time>2026-05-01T14:45:01.961Z</time></trkpt><trkpt lat="43.0450633" lon="11.4963183"><ele>498.0</ele><time>2026-05-01T14:45:02.96Z</time></trkpt><trkpt lat="43.0452967" lon="11.4962817"><ele>502.5</ele><time>2026-05-01T14:45:03.96Z</time></trkpt><trkpt lat="43.04553" lon="11.4962433"><ele>507.0</ele><time>2026-05-01T14:45:04.96Z</time></trkpt><trkpt lat="43.04576" lon="11.4962117"><ele>508.33333333333337</ele><time>2026-05-01T14:45:05.96Z</time></trkpt><trkpt lat="43.045985" lon="11.4961867"><ele>509.6666666666667</ele><time>2026-05-01T14:45:06.961Z</time></trkpt><trkpt lat="43.0462033" lon="11.4961583"><ele>511.0</ele><time>2026-05-01T14:45:07.96Z</time></trkpt><trkpt lat="43.0464233" lon="11.49613"><ele>511.0</ele><time>2026-05-01T14:45:08.96Z</time></trkpt><trkpt lat="43.04662" lon="11.496105"><ele>511.0</ele><time>2026-05-01T14:45:09.96Z</time></trkpt><trkpt lat="43.04681" lon="11.4960617"><ele>511.0</ele><time>2026-05-01T14:45:10.961Z</time></trkpt><trkpt lat="43.046985" lon="11.4959883"><ele>512.3333333333334</ele><time>2026-05-01T14:45:11.961Z</time></trkpt><trkpt lat="43.04712" lon="11.4958667"><ele>513.6666666666666</ele><time>2026-05-01T14:45:12.961Z</time></trkpt><trkpt lat="43.0472267" lon="11.4957017"><ele>515.0</ele><time>2026-05-01T14:45:13.961Z</time></trkpt><trkpt lat="43.0473133" lon="11.4954917"><ele>516.3333333333333</ele><time>2026-05-01T14:45:14.96Z</time></trkpt><trkpt lat="43.047385" lon="11.49524"><ele>517.6666666666666</ele><time>2026-05-01T14:45:15.961Z</time></trkpt><trkpt lat="43.04748" lon="11.4949533"><ele>519.0</ele><time>2026-05-01T14:45:16.96Z</time></trkpt><trkpt lat="43.04759" lon="11.4946533"><ele>525.0</ele><time>2026-05-01T14:45:17.961Z</time></trkpt><trkpt lat="43.0477" lon="11.4943717"><ele>531.0</ele><time>2026-05-01T14:45:18.961Z</time></trkpt><trkpt lat="43.0478133" lon="11.4941167"><ele>531.0</ele><time>2026-05-01T14:45:19.96Z</time></trkpt><trkpt lat="43.0479" lon="11.4939"><ele>531.0</ele><time>2026-05-01T14:45:20.961Z</time></trkpt><trkpt lat="43.04797" lon="11.4937333"><ele>531.0</ele><time>2026-05-01T14:45:21.961Z</time></trkpt><trkpt lat="43.048045" lon="11.4936133"><ele>531.0</ele><time>2026-05-01T14:45:22.96Z</time></trkpt><trkpt lat="43.04814" lon="11.4935517"><ele>531.0</ele><time>2026-05-01T14:45:23.96Z</time></trkpt><trkpt lat="43.048235" lon="11.49357"><ele>531.0</ele><time>2026-05-01T14:45:24.96Z</time></trkpt><trkpt lat="43.0483133" lon="11.4936533"><ele>531.0</ele><time>2026-05-01T14:45:25.96Z</time></trkpt><trkpt lat="43.0483617" lon="11.493785"><ele>531.0</ele><time>2026-05-01T14:45:26.96Z</time></trkpt><trkpt lat="43.04837" lon="11.4939517"><ele>531.0</ele><time>2026-05-01T14:45:27.96Z</time></trkpt><trkpt lat="43.048325" lon="11.49414"><ele>531.0</ele><time>2026-05-01T14:45:28.96Z</time></trkpt><trkpt lat="43.0482767" lon="11.49435"><ele>531.0</ele><time>2026-05-01T14:45:29.96Z</time></trkpt><trkpt lat="43.0482417" lon="11.4945683"><ele>531.0</ele><time>2026-05-01T14:45:30.96Z</time></trkpt><trkpt lat="43.04825" lon="11.4947683"><ele>528.0</ele><time>2026-05-01T14:45:31.96Z</time></trkpt><trkpt lat="43.0482883" lon="11.49496"><ele>525.0</ele><time>2026-05-01T14:45:32.96Z</time></trkpt><trkpt lat="43.0483667" lon="11.4951467"><ele>522.0</ele><time>2026-05-01T14:45:33.96Z</time></trkpt><trkpt lat="43.0484767" lon="11.495325"><ele>519.3333333333334</ele><time>2026-05-01T14:45:34.961Z</time></trkpt><trkpt lat="43.0485967" lon="11.4954983"><ele>516.6666666666667</ele><time>2026-05-01T14:45:35.96Z</time></trkpt><trkpt lat="43.048705" lon="11.495695"><ele>514.0</ele><time>2026-05-01T14:45:36.96Z</time></trkpt><trkpt lat="43.0487933" lon="11.4958867"><ele>514.0</ele><time>2026-05-01T14:45:37.96Z</time></trkpt><trkpt lat="43.048885" lon="11.496075"><ele>514.0</ele><time>2026-05-01T14:45:38.961Z</time></trkpt><trkpt lat="43.0490067" lon="11.49622"><ele>514.0</ele><time>2026-05-01T14:45:39.961Z</time></trkpt><trkpt lat="43.0491583" lon="11.4963567"><ele>516.0</ele><time>2026-05-01T14:45:40.96Z</time></trkpt><trkpt lat="43.0493417" lon="11.4964917"><ele>518.0</ele><time>2026-05-01T14:45:41.961Z</time></trkpt><trkpt lat="43.0495367" lon="11.4966367"><ele>520.0</ele><time>2026-05-01T14:45:42.961Z</time></trkpt><trkpt lat="43.0497167" lon="11.4967783"><ele>520.0</ele><time>2026-05-01T14:45:43.96Z</time></trkpt><trkpt lat="43.0498783" lon="11.4969"><ele>520.0</ele><time>2026-05-01T14:45:44.96Z</time></trkpt><trkpt lat="43.05002" lon="11.4970117"><ele>520.0</ele><time>2026-05-01T14:45:45.96Z</time></trkpt><trkpt lat="43.0501567" lon="11.4971033"><ele>521.5</ele><time>2026-05-01T14:45:46.96Z</time></trkpt><trkpt lat="43.0502933" lon="11.4971317"><ele>523.0</ele><time>2026-05-01T14:45:47.96Z</time></trkpt><trkpt lat="43.0504317" lon="11.4971217"><ele>524.5</ele><time>2026-05-01T14:45:48.961Z</time></trkpt><trkpt lat="43.0505683" lon="11.4970183"><ele>526.0</ele><time>2026-05-01T14:45:49.961Z</time></trkpt><trkpt lat="43.0506833" lon="11.4968433"><ele>528.0</ele><time>2026-05-01T14:45:50.96Z</time></trkpt><trkpt lat="43.050775" lon="11.4966133"><ele>530.0</ele><time>2026-05-01T14:45:51.96Z</time></trkpt><trkpt lat="43.0508533" lon="11.4963617"><ele>532.0</ele><time>2026-05-01T14:45:52.961Z</time></trkpt><trkpt lat="43.0509383" lon="11.49611"><ele>535.3333333333334</ele><time>2026-05-01T14:45:53.96Z</time></trkpt><trkpt lat="43.0510033" lon="11.495865"><ele>538.6666666666666</ele><time>2026-05-01T14:45:54.96Z</time></trkpt><trkpt lat="43.0510333" lon="11.4955983"><ele>542.0</ele><time>2026-05-01T14:45:55.96Z</time></trkpt><trkpt lat="43.0510433" lon="11.495315"><ele>543.6666666666666</ele><time>2026-05-01T14:45:56.961Z</time></trkpt><trkpt lat="43.05105" lon="11.49503"><ele>545.3333333333334</ele><time>2026-05-01T14:45:57.961Z</time></trkpt><trkpt lat="43.0510633" lon="11.4947617"><ele>547.0</ele><time>2026-05-01T14:45:58.96Z</time></trkpt><trkpt lat="43.0510933" lon="11.4945133"><ele>550.6666666666667</ele><time>2026-05-01T14:45:59.961Z</time></trkpt><trkpt lat="43.0511367" lon="11.4942533"><ele>554.3333333333334</ele><time>2026-05-01T14:46:00.96Z</time></trkpt><trkpt lat="43.0511867" lon="11.4940033"><ele>558.0</ele><time>2026-05-01T14:46:01.961Z</time></trkpt><trkpt lat="43.0512367" lon="11.49374"><ele>559.3333333333334</ele><time>2026-05-01T14:46:02.96Z</time></trkpt><trkpt lat="43.0512783" lon="11.49347"><ele>560.6666666666667</ele><time>2026-05-01T14:46:03.96Z</time></trkpt><trkpt lat="43.0513" lon="11.4931983"><ele>562.0</ele><time>2026-05-01T14:46:04.96Z</time></trkpt><trkpt lat="43.0512967" lon="11.49293"><ele>564.0</ele><time>2026-05-01T14:46:05.96Z</time></trkpt><trkpt lat="43.0512833" lon="11.4926733"><ele>566.0</ele><time>2026-05-01T14:46:06.96Z</time></trkpt><trkpt lat="43.051275" lon="11.4924133"><ele>568.0</ele><time>2026-05-01T14:46:07.961Z</time></trkpt><trkpt lat="43.05128" lon="11.49216"><ele>568.4</ele><time>2026-05-01T14:46:08.96Z</time></trkpt><trkpt lat="43.0512967" lon="11.4919483"><ele>568.8</ele><time>2026-05-01T14:46:09.96Z</time></trkpt><trkpt lat="43.0513267" lon="11.4918"><ele>569.2</ele><time>2026-05-01T14:46:10.96Z</time></trkpt><trkpt lat="43.051375" lon="11.4917133"><ele>569.6</ele><time>2026-05-01T14:46:11.961Z</time></trkpt><trkpt lat="43.0514483" lon="11.49167"><ele>570.0</ele><time>2026-05-01T14:46:12.96Z</time></trkpt><trkpt lat="43.0515367" lon="11.49168"><ele>566.75</ele><time>2026-05-01T14:46:13.96Z</time></trkpt><trkpt lat="43.0516383" lon="11.49174"><ele>563.5</ele><time>2026-05-01T14:46:14.961Z</time></trkpt><trkpt lat="43.05172" lon="11.49185"><ele>560.25</ele><time>2026-05-01T14:46:15.96Z</time></trkpt><trkpt lat="43.05179" lon="11.4920133"><ele>557.0</ele><time>2026-05-01T14:46:16.96Z</time></trkpt><trkpt lat="43.0518667" lon="11.49221"><ele>554.25</ele><time>2026-05-01T14:46:17.961Z</time></trkpt><trkpt lat="43.0519433" lon="11.4923767"><ele>551.5</ele><time>2026-05-01T14:46:18.96Z</time></trkpt><trkpt lat="43.0520333" lon="11.4924883"><ele>548.75</ele><time>2026-05-01T14:46:19.961Z</time></trkpt><trkpt lat="43.0521383" lon="11.492545"><ele>546.0</ele><time>2026-05-01T14:46:20.96Z</time></trkpt><trkpt lat="43.0522433" lon="11.49252"><ele>546.0</ele><time>2026-05-01T14:46:21.961Z</time></trkpt><trkpt lat="43.0523317" lon="11.492435"><ele>546.0</ele><time>2026-05-01T14:46:22.961Z</time></trkpt><trkpt lat="43.05239" lon="11.492285"><ele>546.0</ele><time>2026-05-01T14:46:23.961Z</time></trkpt><trkpt lat="43.0524383" lon="11.4920967"><ele>546.0</ele><time>2026-05-01T14:46:24.961Z</time></trkpt><trkpt lat="43.0525033" lon="11.4919267"><ele>548.75</ele><time>2026-05-01T14:46:25.96Z</time></trkpt><trkpt lat="43.0526033" lon="11.4918067"><ele>551.5</ele><time>2026-05-01T14:46:26.961Z</time></trkpt><trkpt lat="43.0527333" lon="11.4917517"><ele>554.25</ele><time>2026-05-01T14:46:27.96Z</time></trkpt><trkpt lat="43.0528883" lon="11.4917683"><ele>557.0</ele><time>2026-05-01T14:46:28.96Z</time></trkpt><trkpt lat="43.0530383" lon="11.4918417"><ele>557.0</ele><time>2026-05-01T14:46:29.96Z</time></trkpt><trkpt lat="43.05318" lon="11.4919183"><ele>557.0</ele><time>2026-05-01T14:46:30.961Z</time></trkpt><trkpt lat="43.0533117" lon="11.4919883"><ele>557.0</ele><time>2026-05-01T14:46:31.96Z</time></trkpt><trkpt lat="43.053455" lon="11.4919983"><ele>557.0</ele><time>2026-05-01T14:46:32.96Z</time></trkpt><trkpt lat="43.0535767" lon="11.4919683"><ele>555.25</ele><time>2026-05-01T14:46:33.96Z</time></trkpt><trkpt lat="43.05367" lon="11.491885"><ele>553.5</ele><time>2026-05-01T14:46:34.96Z</time></trkpt><trkpt lat="43.053735" lon="11.4917717"><ele>551.75</ele><time>2026-05-01T14:46:35.961Z</time></trkpt><trkpt lat="43.053755" lon="11.4916017"><ele>550.0</ele><time>2026-05-01T14:46:36.96Z</time></trkpt><trkpt lat="43.0537517" lon="11.4914033"><ele>554.3333333333334</ele><time>2026-05-01T14:46:37.961Z</time></trkpt><trkpt lat="43.053745" lon="11.4912"><ele>558.6666666666666</ele><time>2026-05-01T14:46:38.961Z</time></trkpt><trkpt lat="43.0537417" lon="11.4909967"><ele>563.0</ele><time>2026-05-01T14:46:39.961Z</time></trkpt><trkpt lat="43.053745" lon="11.4907883"><ele>563.0</ele><time>2026-05-01T14:46:40.96Z</time></trkpt><trkpt lat="43.053755" lon="11.4906"><ele>563.0</ele><time>2026-05-01T14:46:41.96Z</time></trkpt><trkpt lat="43.0537533" lon="11.4904333"><ele>563.0</ele><time>2026-05-01T14:46:42.961Z</time></trkpt><trkpt lat="43.0537583" lon="11.4902767"><ele>563.0</ele><time>2026-05-01T14:46:43.96Z</time></trkpt><trkpt lat="43.0537567" lon="11.490105"><ele>563.5</ele><time>2026-05-01T14:46:44.96Z</time></trkpt><trkpt lat="43.0537633" lon="11.489945"><ele>564.0</ele><time>2026-05-01T14:46:45.96Z</time></trkpt><trkpt lat="43.0537733" lon="11.4897783"><ele>564.5</ele><time>2026-05-01T14:46:46.96Z</time></trkpt><trkpt lat="43.053785" lon="11.48962"><ele>565.0</ele><time>2026-05-01T14:46:47.96Z</time></trkpt><trkpt lat="43.0538233" lon="11.489475"><ele>566.0</ele><time>2026-05-01T14:46:48.96Z</time></trkpt><trkpt lat="43.0538917" lon="11.4893733"><ele>567.0</ele><time>2026-05-01T14:46:49.96Z</time></trkpt><trkpt lat="43.05399" lon="11.4892967"><ele>568.0</ele><time>2026-05-01T14:46:50.96Z</time></trkpt><trkpt lat="43.0541083" lon="11.489255"><ele>569.0</ele><time>2026-05-01T14:46:51.961Z</time></trkpt><trkpt lat="43.0542217" lon="11.4892417"><ele>566.2</ele><time>2026-05-01T14:46:52.961Z</time></trkpt><trkpt lat="43.0543267" lon="11.48924"><ele>563.4</ele><time>2026-05-01T14:46:53.961Z</time></trkpt><trkpt lat="43.054425" lon="11.489235"><ele>560.6</ele><time>2026-05-01T14:46:54.961Z</time></trkpt><trkpt lat="43.05452" lon="11.48922"><ele>557.8</ele><time>2026-05-01T14:46:55.96Z</time></trkpt><trkpt lat="43.054615" lon="11.4892017"><ele>555.0</ele><time>2026-05-01T14:46:56.961Z</time></trkpt><trkpt lat="43.054705" lon="11.4891833"><ele>555.0</ele><time>2026-05-01T14:46:57.961Z</time></trkpt><trkpt lat="43.0547733" lon="11.4891717"><ele>555.0</ele><time>2026-05-01T14:46:58.961Z</time></trkpt><trkpt lat="43.0548583" lon="11.4891633"><ele>555.0</ele><time>2026-05-01T14:47:00.96Z</time></trkpt><trkpt lat="43.0549317" lon="11.489155"><ele>555.0</ele><time>2026-05-01T14:47:02.961Z</time></trkpt><trkpt lat="43.0549967" lon="11.489185"><ele>555.0</ele><time>2026-05-01T14:47:05.961Z</time></trkpt><trkpt lat="43.0550633" lon="11.489155"><ele>555.0</ele><time>2026-05-01T14:48:00.96Z</time></trkpt><trkpt lat="43.05516" lon="11.489115"><ele>555.0</ele><time>2026-05-01T14:48:02.96Z</time></trkpt><trkpt lat="43.0551467" lon="11.4890067"><ele>555.0</ele><time>2026-05-01T14:48:05.96Z</time></trkpt><trkpt lat="43.0550633" lon="11.4889633"><ele>555.0</ele><time>2026-05-01T14:48:06.96Z</time></trkpt><trkpt lat="43.0549517" lon="11.4888967"><ele>555.0</ele><time>2026-05-01T14:48:07.96Z</time></trkpt><trkpt lat="43.0548217" lon="11.4888183"><ele>555.0</ele><time>2026-05-01T14:48:08.96Z</time></trkpt><trkpt lat="43.05469" lon="11.4887533"><ele>557.0</ele><time>2026-05-01T14:48:09.961Z</time></trkpt><trkpt lat="43.0545783" lon="11.488705"><ele>559.0</ele><time>2026-05-01T14:48:10.96Z</time></trkpt><trkpt lat="43.054465" lon="11.48867"><ele>561.0</ele><time>2026-05-01T14:48:11.96Z</time></trkpt><trkpt lat="43.05436" lon="11.48867"><ele>563.0</ele><time>2026-05-01T14:48:12.961Z</time></trkpt><trkpt lat="43.0542833" lon="11.4886683"><ele>565.0</ele><time>2026-05-01T14:48:13.961Z</time></trkpt><trkpt lat="43.0542017" lon="11.4886667"><ele>565.0</ele><time>2026-05-01T14:48:15.96Z</time></trkpt><trkpt lat="43.0541367" lon="11.4887283"><ele>565.0</ele><time>2026-05-01T14:49:36.959Z</time></trkpt><trkpt lat="43.0542367" lon="11.4887367"><ele>565.0</ele><time>2026-05-01T14:49:38.96Z</time></trkpt><trkpt lat="43.054335" lon="11.488735"><ele>565.0</ele><time>2026-05-01T14:49:39.959Z</time></trkpt><trkpt lat="43.0544817" lon="11.48874"><ele>565.0</ele><time>2026-05-01T14:49:40.959Z</time></trkpt><trkpt lat="43.0546267" lon="11.4887733"><ele>563.0</ele><time>2026-05-01T14:49:41.959Z</time></trkpt><trkpt lat="43.0547467" lon="11.4888333"><ele>561.0</ele><time>2026-05-01T14:49:42.959Z</time></trkpt><trkpt lat="43.0548433" lon="11.4889017"><ele>559.0</ele><time>2026-05-01T14:49:43.959Z</time></trkpt><trkpt lat="43.0549283" lon="11.4889733"><ele>557.0</ele><time>2026-05-01T14:49:44.96Z</time></trkpt><trkpt lat="43.0549933" lon="11.4890467"><ele>555.0</ele><time>2026-05-01T14:49:45.959Z</time></trkpt><trkpt lat="43.055035" lon="11.4891317"><ele>555.0</ele><time>2026-05-01T14:49:46.96Z</time></trkpt><trkpt lat="43.0550117" lon="11.489235"><ele>555.0</ele><time>2026-05-01T14:49:48.96Z</time></trkpt><trkpt lat="43.0548867" lon="11.48926"><ele>555.0</ele><time>2026-05-01T14:49:50.959Z</time></trkpt><trkpt lat="43.0547867" lon="11.4892633"><ele>555.0</ele><time>2026-05-01T14:49:51.959Z</time></trkpt><trkpt lat="43.0546833" lon="11.4892633"><ele>555.0</ele><time>2026-05-01T14:49:52.959Z</time></trkpt><trkpt lat="43.0545883" lon="11.489265"><ele>555.0</ele><time>2026-05-01T14:49:53.959Z</time></trkpt><trkpt lat="43.0545067" lon="11.4892683"><ele>555.0</ele><time>2026-05-01T14:49:54.959Z</time></trkpt><trkpt lat="43.0544367" lon="11.48927"><ele>555.0</ele><time>2026-05-01T14:49:55.959Z</time></trkpt><trkpt lat="43.05437" lon="11.48928"><ele>555.0</ele><time>2026-05-01T14:49:56.959Z</time></trkpt><trkpt lat="43.05424" lon="11.4893483"><ele>555.0</ele><time>2026-05-01T14:49:58.959Z</time></trkpt><trkpt lat="43.0541733" lon="11.4894467"><ele>555.0</ele><time>2026-05-01T14:49:59.959Z</time></trkpt><trkpt lat="43.0541267" lon="11.48959"><ele>555.0</ele><time>2026-05-01T14:50:00.959Z</time></trkpt><trkpt lat="43.054115" lon="11.48974"><ele>555.0</ele><time>2026-05-01T14:50:01.96Z</time></trkpt><trkpt lat="43.0541517" lon="11.489895"><ele>555.0</ele><time>2026-05-01T14:50:02.959Z</time></trkpt><trkpt lat="43.0542117" lon="11.4900683"><ele>552.0</ele><time>2026-05-01T14:50:03.96Z</time></trkpt><trkpt lat="43.0543517" lon="11.49023"><ele>549.0</ele><time>2026-05-01T14:50:04.959Z</time></trkpt><trkpt lat="43.0545083" lon="11.49038"><ele>546.0</ele><time>2026-05-01T14:50:05.96Z</time></trkpt><trkpt lat="43.054655" lon="11.4905267"><ele>543.3333333333334</ele><time>2026-05-01T14:50:06.959Z</time></trkpt><trkpt lat="43.05478" lon="11.4906733"><ele>540.6666666666667</ele><time>2026-05-01T14:50:07.959Z</time></trkpt><trkpt lat="43.05489" lon="11.4908283"><ele>538.0</ele><time>2026-05-01T14:50:08.959Z</time></trkpt><trkpt lat="43.0549883" lon="11.491"><ele>537.75</ele><time>2026-05-01T14:50:09.959Z</time></trkpt><trkpt lat="43.05508" lon="11.491185"><ele>537.5</ele><time>2026-05-01T14:50:10.96Z</time></trkpt><trkpt lat="43.055165" lon="11.491365"><ele>537.25</ele><time>2026-05-01T14:50:11.959Z</time></trkpt><trkpt lat="43.05523" lon="11.491515"><ele>537.0</ele><time>2026-05-01T14:50:12.96Z</time></trkpt><trkpt lat="43.0552983" lon="11.491635"><ele>533.6666666666666</ele><time>2026-05-01T14:50:13.96Z</time></trkpt><trkpt lat="43.0553667" lon="11.49174"><ele>530.3333333333334</ele><time>2026-05-01T14:50:14.96Z</time></trkpt><trkpt lat="43.05541" lon="11.4918283"><ele>527.0</ele><time>2026-05-01T14:50:15.959Z</time></trkpt><trkpt lat="43.0554433" lon="11.4919267"><ele>523.6666666666667</ele><time>2026-05-01T14:50:17.959Z</time></trkpt><trkpt lat="43.055355" lon="11.4918783"><ele>520.3333333333334</ele><time>2026-05-01T14:50:20.96Z</time></trkpt><trkpt lat="43.0552983" lon="11.4917967"><ele>517.0</ele><time>2026-05-01T14:50:21.959Z</time></trkpt><trkpt lat="43.0552117" lon="11.4916867"><ele>517.0</ele><time>2026-05-01T14:50:22.959Z</time></trkpt><trkpt lat="43.0551117" lon="11.49154"><ele>517.0</ele><time>2026-05-01T14:50:23.959Z</time></trkpt><trkpt lat="43.0550067" lon="11.4913783"><ele>517.0</ele><time>2026-05-01T14:50:24.96Z</time></trkpt><trkpt lat="43.0548967" lon="11.49122"><ele>521.2</ele><time>2026-05-01T14:50:25.959Z</time></trkpt><trkpt lat="43.0548033" lon="11.491085"><ele>525.4000000000001</ele><time>2026-05-01T14:50:26.96Z</time></trkpt><trkpt lat="43.054715" lon="11.4909883"><ele>529.5999999999999</ele><time>2026-05-01T14:50:27.959Z</time></trkpt><trkpt lat="43.054625" lon="11.4909317"><ele>533.8</ele><time>2026-05-01T14:50:28.959Z</time></trkpt><trkpt lat="43.0545283" lon="11.4909283"><ele>538.0</ele><time>2026-05-01T14:50:29.959Z</time></trkpt><trkpt lat="43.054445" lon="11.4909717"><ele>538.0</ele><time>2026-05-01T14:50:30.959Z</time></trkpt><trkpt lat="43.0543667" lon="11.49102"><ele>538.0</ele><time>2026-05-01T14:50:31.959Z</time></trkpt><trkpt lat="43.0543133" lon="11.4911217"><ele>538.0</ele><time>2026-05-01T14:50:32.959Z</time></trkpt><trkpt lat="43.0542833" lon="11.49127"><ele>538.0</ele><time>2026-05-01T14:50:33.96Z</time></trkpt><trkpt lat="43.0542867" lon="11.4914717"><ele>538.0</ele><time>2026-05-01T14:50:34.96Z</time></trkpt><trkpt lat="43.05432" lon="11.491715"><ele>537.3333333333334</ele><time>2026-05-01T14:50:35.959Z</time></trkpt><trkpt lat="43.054385" lon="11.4919967"><ele>536.6666666666666</ele><time>2026-05-01T14:50:36.959Z</time></trkpt><trkpt lat="43.0544017" lon="11.4922617"><ele>536.0</ele><time>2026-05-01T14:50:37.96Z</time></trkpt><trkpt lat="43.05441" lon="11.49249"><ele>533.0</ele><time>2026-05-01T14:50:38.959Z</time></trkpt><trkpt lat="43.0544017" lon="11.4927017"><ele>530.0</ele><time>2026-05-01T14:50:39.96Z</time></trkpt><trkpt lat="43.0543783" lon="11.4928933"><ele>527.0</ele><time>2026-05-01T14:50:40.96Z</time></trkpt><trkpt lat="43.054325" lon="11.4930717"><ele>524.0</ele><time>2026-05-01T14:50:41.959Z</time></trkpt><trkpt lat="43.054245" lon="11.49323"><ele>520.6666666666666</ele><time>2026-05-01T14:50:42.959Z</time></trkpt><trkpt lat="43.054145" lon="11.4933783"><ele>517.3333333333334</ele><time>2026-05-01T14:50:43.959Z</time></trkpt><trkpt lat="43.0540067" lon="11.493515"><ele>514.0</ele><time>2026-05-01T14:50:44.959Z</time></trkpt><trkpt lat="43.0538667" lon="11.4936433"><ele>512.5</ele><time>2026-05-01T14:50:45.96Z</time></trkpt><trkpt lat="43.0537417" lon="11.4937617"><ele>511.0</ele><time>2026-05-01T14:50:46.96Z</time></trkpt><trkpt lat="43.0536333" lon="11.4939"><ele>509.5</ele><time>2026-05-01T14:50:47.959Z</time></trkpt><trkpt lat="43.053555" lon="11.4940733"><ele>508.0</ele><time>2026-05-01T14:50:48.96Z</time></trkpt><trkpt lat="43.053495" lon="11.4942717"><ele>508.0</ele><time>2026-05-01T14:50:49.959Z</time></trkpt><trkpt lat="43.0534717" lon="11.494505"><ele>508.0</ele><time>2026-05-01T14:50:50.959Z</time></trkpt><trkpt lat="43.05347" lon="11.4947567"><ele>508.0</ele><time>2026-05-01T14:50:51.959Z</time></trkpt><trkpt lat="43.0534833" lon="11.4950083"><ele>507.0</ele><time>2026-05-01T14:50:52.96Z</time></trkpt><trkpt lat="43.0534917" lon="11.49525"><ele>506.0</ele><time>2026-05-01T14:50:53.96Z</time></trkpt><trkpt lat="43.0535067" lon="11.4954783"><ele>505.0</ele><time>2026-05-01T14:50:54.96Z</time></trkpt><trkpt lat="43.0535133" lon="11.4956933"><ele>504.6666666666667</ele><time>2026-05-01T14:50:55.959Z</time></trkpt><trkpt lat="43.0535083" lon="11.49592"><ele>504.33333333333337</ele><time>2026-05-01T14:50:56.959Z</time></trkpt><trkpt lat="43.053495" lon="11.4961317"><ele>504.0</ele><time>2026-05-01T14:50:57.959Z</time></trkpt><trkpt lat="43.0534717" lon="11.4963283"><ele>502.33333333333337</ele><time>2026-05-01T14:50:58.96Z</time></trkpt><trkpt lat="43.053445" lon="11.49654"><ele>500.6666666666667</ele><time>2026-05-01T14:50:59.959Z</time></trkpt><trkpt lat="43.0534217" lon="11.4967733"><ele>499.0</ele><time>2026-05-01T14:51:00.959Z</time></trkpt><trkpt lat="43.053385" lon="11.497035"><ele>498.0</ele><time>2026-05-01T14:51:01.959Z</time></trkpt><trkpt lat="43.0533217" lon="11.4972917"><ele>497.0</ele><time>2026-05-01T14:51:02.959Z</time></trkpt><trkpt lat="43.0532283" lon="11.4975567"><ele>496.0</ele><time>2026-05-01T14:51:03.96Z</time></trkpt><trkpt lat="43.05313" lon="11.4978067"><ele>498.0</ele><time>2026-05-01T14:51:04.959Z</time></trkpt><trkpt lat="43.0530217" lon="11.498075"><ele>500.0</ele><time>2026-05-01T14:51:05.959Z</time></trkpt><trkpt lat="43.052895" lon="11.49835"><ele>500.0</ele><time>2026-05-01T14:51:06.96Z</time></trkpt><trkpt lat="43.0527717" lon="11.498635"><ele>500.0</ele><time>2026-05-01T14:51:07.959Z</time></trkpt><trkpt lat="43.052645" lon="11.4989183"><ele>497.66666666666663</ele><time>2026-05-01T14:51:08.959Z</time></trkpt><trkpt lat="43.0525317" lon="11.4991933"><ele>495.33333333333337</ele><time>2026-05-01T14:51:09.959Z</time></trkpt><trkpt lat="43.0524267" lon="11.4994483"><ele>493.0</ele><time>2026-05-01T14:51:10.96Z</time></trkpt><trkpt lat="43.0523333" lon="11.4996983"><ele>488.33333333333337</ele><time>2026-05-01T14:51:11.959Z</time></trkpt><trkpt lat="43.052245" lon="11.4999267"><ele>483.66666666666663</ele><time>2026-05-01T14:51:12.959Z</time></trkpt><trkpt lat="43.0521683" lon="11.5001333"><ele>479.0</ele><time>2026-05-01T14:51:13.959Z</time></trkpt><trkpt lat="43.0520883" lon="11.500325"><ele>477.75</ele><time>2026-05-01T14:51:14.959Z</time></trkpt><trkpt lat="43.05202" lon="11.5005083"><ele>476.5</ele><time>2026-05-01T14:51:15.959Z</time></trkpt><trkpt lat="43.0519633" lon="11.5006867"><ele>475.25</ele><time>2026-05-01T14:51:16.959Z</time></trkpt><trkpt lat="43.0519283" lon="11.5008717"><ele>474.0</ele><time>2026-05-01T14:51:17.959Z</time></trkpt><trkpt lat="43.0519033" lon="11.50105"><ele>474.0</ele><time>2026-05-01T14:51:18.959Z</time></trkpt><trkpt lat="43.0519" lon="11.5012317"><ele>474.0</ele><time>2026-05-01T14:51:19.959Z</time></trkpt><trkpt lat="43.0519083" lon="11.5014183"><ele>474.0</ele><time>2026-05-01T14:51:20.959Z</time></trkpt><trkpt lat="43.0519183" lon="11.501605"><ele>474.0</ele><time>2026-05-01T14:51:21.959Z</time></trkpt><trkpt lat="43.05192" lon="11.5017783"><ele>473.0</ele><time>2026-05-01T14:51:22.96Z</time></trkpt><trkpt lat="43.0519167" lon="11.50194"><ele>472.0</ele><time>2026-05-01T14:51:23.959Z</time></trkpt><trkpt lat="43.05191" lon="11.5020967"><ele>471.0</ele><time>2026-05-01T14:51:24.96Z</time></trkpt><trkpt lat="43.0518967" lon="11.50223"><ele>470.0</ele><time>2026-05-01T14:51:25.959Z</time></trkpt><trkpt lat="43.0518717" lon="11.502355"><ele>469.0</ele><time>2026-05-01T14:51:26.96Z</time></trkpt><trkpt lat="43.0518333" lon="11.5024717"><ele>468.50000000000006</ele><time>2026-05-01T14:51:27.959Z</time></trkpt><trkpt lat="43.0517967" lon="11.502585"><ele>468.0</ele><time>2026-05-01T14:51:28.959Z</time></trkpt><trkpt lat="43.0517633" lon="11.50269"><ele>467.5</ele><time>2026-05-01T14:51:29.959Z</time></trkpt><trkpt lat="43.0517367" lon="11.502805"><ele>467.0</ele><time>2026-05-01T14:51:30.96Z</time></trkpt><trkpt lat="43.0517183" lon="11.5029233"><ele>466.50000000000006</ele><time>2026-05-01T14:51:31.959Z</time></trkpt><trkpt lat="43.05172" lon="11.503045"><ele>466.0</ele><time>2026-05-01T14:51:32.959Z</time></trkpt><trkpt lat="43.051735" lon="11.5031667"><ele>465.6</ele><time>2026-05-01T14:51:33.959Z</time></trkpt><trkpt lat="43.0517667" lon="11.503275"><ele>465.20000000000005</ele><time>2026-05-01T14:51:34.959Z</time></trkpt><trkpt lat="43.051805" lon="11.503385"><ele>464.79999999999995</ele><time>2026-05-01T14:51:35.959Z</time></trkpt><trkpt lat="43.051855" lon="11.5034933"><ele>464.4</ele><time>2026-05-01T14:51:36.959Z</time></trkpt><trkpt lat="43.0519033" lon="11.503605"><ele>464.0</ele><time>2026-05-01T14:51:37.96Z</time></trkpt><trkpt lat="43.0519483" lon="11.5037133"><ele>462.66666666666663</ele><time>2026-05-01T14:51:38.959Z</time></trkpt><trkpt lat="43.051985" lon="11.5038167"><ele>461.3333333333333</ele><time>2026-05-01T14:51:39.96Z</time></trkpt><trkpt lat="43.0520183" lon="11.50393"><ele>460.0</ele><time>2026-05-01T14:51:40.96Z</time></trkpt><trkpt lat="43.0520617" lon="11.5040317"><ele>458.66666666666663</ele><time>2026-05-01T14:51:41.959Z</time></trkpt><trkpt lat="43.0520917" lon="11.5041217"><ele>457.3333333333333</ele><time>2026-05-01T14:51:42.959Z</time></trkpt><trkpt lat="43.05213" lon="11.50422"><ele>456.0</ele><time>2026-05-01T14:51:44.959Z</time></trkpt><trkpt lat="43.052235" lon="11.5042233"><ele>456.0</ele><time>2026-05-01T14:51:48.959Z</time></trkpt><trkpt lat="43.05233" lon="11.5042417"><ele>456.0</ele><time>2026-05-01T14:51:50.96Z</time></trkpt></trkseg></trk></gpx>